<?xml version='1.0' encoding='UTF-8'?><gpx version="1.1" creator="JPX - https://github.com/jenetics/jpx" xmlns="http://www.topografix.com/GPX/1/1"><trk><trkseg><trkpt lat="40.92026521483801" lon="15.669065261011076"><ele>617.0</ele><time>2026-04-06T06:45:27Z</time></trkpt><trkpt lat="40.92019719803014" lon="15.669053278293058"><ele>617.0</ele><time>2026-04-06T06:45:29Z</time></trkpt><trkpt lat="40.920137061659375" lon="15.669000933517053"><ele>617.0</ele><time>2026-04-06T06:45:55Z</time></trkpt><trkpt lat="40.920056040297446" lon="15.669039082492136"><ele>617.0</ele><time>2026-04-06T06:47:31Z</time></trkpt><trkpt lat="40.92001355155546" lon="15.669113708776319"><ele>617.0</ele><time>2026-04-06T06:47:33Z</time></trkpt><trkpt lat="40.91999841487612" lon="15.66920898152317"><ele>617.0</ele><time>2026-04-06T06:47:37Z</time></trkpt><trkpt lat="40.920054396191055" lon="15.6693082119352"><ele>617.0</ele><time>2026-04-06T06:47:39Z</time></trkpt><trkpt lat="40.920114267371744" lon="15.669356012492853"><ele>617.0</ele><time>2026-04-06T06:47:40Z</time></trkpt><trkpt lat="40.92018268386392" lon="15.669380240687032"><ele>617.0</ele><time>2026-04-06T06:47:41Z</time></trkpt><trkpt lat="40.92027175416113" lon="15.669398578843513"><ele>617.0</ele><time>2026-04-06T06:47:42Z</time></trkpt><trkpt lat="40.92035709555036" lon="15.66942509227497"><ele>617.0</ele><time>2026-04-06T06:47:43Z</time></trkpt><trkpt lat="40.92045532068762" lon="15.66945722795136"><ele>617.0</ele><time>2026-04-06T06:47:44Z</time></trkpt><trkpt lat="40.92055815146913" lon="15.669501743796078"><ele>616.8000000000001</ele><time>2026-04-06T06:47:45Z</time></trkpt><trkpt lat="40.920661407285344" lon="15.669551694011766"><ele>616.6</ele><time>2026-04-06T06:47:46Z</time></trkpt><trkpt lat="40.920759799683296" lon="15.669585203771852"><ele>616.4000000000001</ele><time>2026-04-06T06:47:47Z</time></trkpt><trkpt lat="40.92086292948165" lon="15.66962450164168"><ele>616.2</ele><time>2026-04-06T06:47:48Z</time></trkpt><trkpt lat="40.92096401996426" lon="15.669655636315648"><ele>616.0</ele><time>2026-04-06T06:47:49Z</time></trkpt><trkpt lat="40.92107087044919" lon="15.669696960942492"><ele>616.6666666666667</ele><time>2026-04-06T06:47:50Z</time></trkpt><trkpt lat="40.921172706578155" lon="15.669734352099931"><ele>617.3333333333334</ele><time>2026-04-06T06:47:51Z</time></trkpt><trkpt lat="40.921259267293756" lon="15.669771855197908"><ele>618.0</ele><time>2026-04-06T06:47:52Z</time></trkpt><trkpt lat="40.92132549979648" lon="15.669804564638255"><ele>618.6666666666666</ele><time>2026-04-06T06:47:53Z</time></trkpt><trkpt lat="40.921376828113175" lon="15.669868350335841"><ele>619.3333333333333</ele><time>2026-04-06T06:47:55Z</time></trkpt><trkpt lat="40.92134372313353" lon="15.670007763959042"><ele>620.0</ele><time>2026-04-06T06:47:57Z</time></trkpt><trkpt lat="40.921317402500755" lon="15.67015294390691"><ele>620.3333333333333</ele><time>2026-04-06T06:47:59Z</time></trkpt><trkpt lat="40.921278391960584" lon="15.670329538625127"><ele>620.6666666666666</ele><time>2026-04-06T06:48:01Z</time></trkpt><trkpt lat="40.92127031198535" lon="15.670420676744103"><ele>621.0</ele><time>2026-04-06T06:48:02Z</time></trkpt><trkpt lat="40.92125860019651" lon="15.670510092847291"><ele>621.3333333333334</ele><time>2026-04-06T06:48:03Z</time></trkpt><trkpt lat="40.92123899296224" lon="15.670600557648445"><ele>621.6666666666667</ele><time>2026-04-06T06:48:04Z</time></trkpt><trkpt lat="40.921222567446854" lon="15.670683243995898"><ele>622.0</ele><time>2026-04-06T06:48:05Z</time></trkpt><trkpt lat="40.921200123332994" lon="15.670792257556059"><ele>622.0</ele><time>2026-04-06T06:48:07Z</time></trkpt><trkpt lat="40.92118754119552" lon="15.670905753003042"><ele>622.0</ele><time>2026-04-06T06:51:11Z</time></trkpt><trkpt lat="40.92118959842669" lon="15.671005814405742"><ele>622.0</ele><time>2026-04-06T06:51:12Z</time></trkpt><trkpt lat="40.921174571741126" lon="15.671106600183927"><ele>622.0</ele><time>2026-04-06T06:51:13Z</time></trkpt><trkpt lat="40.92115910171296" lon="15.67121035951513"><ele>622.0</ele><time>2026-04-06T06:51:14Z</time></trkpt><trkpt lat="40.92115463620201" lon="15.67130987991368"><ele>622.0</ele><time>2026-04-06T06:51:15Z</time></trkpt><trkpt lat="40.921134039328514" lon="15.67139935088341"><ele>621.8571428571428</ele><time>2026-04-06T06:51:16Z</time></trkpt><trkpt lat="40.92111463909964" lon="15.671494134796108"><ele>621.7142857142858</ele><time>2026-04-06T06:51:17Z</time></trkpt><trkpt lat="40.921101335162525" lon="15.671582643138922"><ele>621.5714285714286</ele><time>2026-04-06T06:51:18Z</time></trkpt><trkpt lat="40.92109144670892" lon="15.671680263773037"><ele>621.4285714285713</ele><time>2026-04-06T06:51:19Z</time></trkpt><trkpt lat="40.9210810422353" lon="15.671780436639734"><ele>621.2857142857142</ele><time>2026-04-06T06:51:20Z</time></trkpt><trkpt lat="40.921063364342224" lon="15.671865125691"><ele>621.1428571428571</ele><time>2026-04-06T06:51:21Z</time></trkpt><trkpt lat="40.92104374194044" lon="15.671948734536302"><ele>621.0</ele><time>2026-04-06T06:51:22Z</time></trkpt><trkpt lat="40.921035267363195" lon="15.672033416702387"><ele>621.0</ele><time>2026-04-06T06:51:23Z</time></trkpt><trkpt lat="40.92102686860966" lon="15.67212772651366"><ele>621.0</ele><time>2026-04-06T06:51:25Z</time></trkpt><trkpt lat="40.921194475667505" lon="15.67217209463682"><ele>621.0</ele><time>2026-04-06T06:51:27Z</time></trkpt><trkpt lat="40.921278095582934" lon="15.672197316430166"><ele>621.0</ele><time>2026-04-06T06:51:28Z</time></trkpt><trkpt lat="40.92134587587262" lon="15.67226404053428"><ele>621.0</ele><time>2026-04-06T06:51:29Z</time></trkpt><trkpt lat="40.92140201849159" lon="15.672301853518814"><ele>621.0</ele><time>2026-04-06T06:51:30Z</time></trkpt><trkpt lat="40.92147521016057" lon="15.672360613041509"><ele>621.0</ele><time>2026-04-06T06:51:32Z</time></trkpt><trkpt lat="40.921432280803415" lon="15.672533085644327"><ele>621.0</ele><time>2026-04-06T06:51:33Z</time></trkpt><trkpt lat="40.92141290893147" lon="15.672631617735428"><ele>621.0</ele><time>2026-04-06T06:51:34Z</time></trkpt><trkpt lat="40.921404411977626" lon="15.672768960246467"><ele>621.0</ele><time>2026-04-06T06:51:35Z</time></trkpt><trkpt lat="40.92140666708172" lon="15.672903262831753"><ele>620.25</ele><time>2026-04-06T06:51:36Z</time></trkpt><trkpt lat="40.921392742759856" lon="15.673065703725937"><ele>619.5</ele><time>2026-04-06T06:51:37Z</time></trkpt><trkpt lat="40.92138349794739" lon="15.673244481531428"><ele>618.75</ele><time>2026-04-06T06:51:38Z</time></trkpt><trkpt lat="40.92136784836505" lon="15.673442248036789"><ele>618.0</ele><time>2026-04-06T06:51:39Z</time></trkpt><trkpt lat="40.921353887706665" lon="15.673629813927661"><ele>618.0</ele><time>2026-04-06T06:51:40Z</time></trkpt><trkpt lat="40.921343102535445" lon="15.673809814880816"><ele>618.0</ele><time>2026-04-06T06:51:41Z</time></trkpt><trkpt lat="40.92133627447141" lon="15.673986760294246"><ele>618.0</ele><time>2026-04-06T06:51:42Z</time></trkpt><trkpt lat="40.92132999890211" lon="15.67416019689512"><ele>618.0</ele><time>2026-04-06T06:51:43Z</time></trkpt><trkpt lat="40.92132725019454" lon="15.674328770742228"><ele>620.0</ele><time>2026-04-06T06:51:44Z</time></trkpt><trkpt lat="40.92133214758914" lon="15.6745048029498"><ele>622.0</ele><time>2026-04-06T06:51:45Z</time></trkpt><trkpt lat="40.92133283988257" lon="15.674683879401343"><ele>624.0</ele><time>2026-04-06T06:51:46Z</time></trkpt><trkpt lat="40.921338556771516" lon="15.674875565061374"><ele>626.0</ele><time>2026-04-06T06:51:47Z</time></trkpt><trkpt lat="40.921327182654025" lon="15.675064579718105"><ele>626.0</ele><time>2026-04-06T06:51:48Z</time></trkpt><trkpt lat="40.92132396194501" lon="15.675260730212893"><ele>626.0</ele><time>2026-04-06T06:51:49Z</time></trkpt><trkpt lat="40.921323376977256" lon="15.675455784778727"><ele>626.0</ele><time>2026-04-06T06:51:50Z</time></trkpt><trkpt lat="40.92131941367634" lon="15.675655093324249"><ele>626.0</ele><time>2026-04-06T06:51:51Z</time></trkpt><trkpt lat="40.921319414816196" lon="15.675850745932392"><ele>627.25</ele><time>2026-04-06T06:51:52Z</time></trkpt><trkpt lat="40.92131761855446" lon="15.676049640463534"><ele>628.5</ele><time>2026-04-06T06:51:53Z</time></trkpt><trkpt lat="40.921319322139944" lon="15.67624269192431"><ele>629.75</ele><time>2026-04-06T06:51:54Z</time></trkpt><trkpt lat="40.92132073285869" lon="15.67643765353444"><ele>631.0</ele><time>2026-04-06T06:51:55Z</time></trkpt><trkpt lat="40.92132575612039" lon="15.676628276024271"><ele>632.25</ele><time>2026-04-06T06:51:56Z</time></trkpt><trkpt lat="40.92132467149413" lon="15.676808039161102"><ele>633.5</ele><time>2026-04-06T06:51:57Z</time></trkpt><trkpt lat="40.92132283008451" lon="15.676983574238253"><ele>634.75</ele><time>2026-04-06T06:51:58Z</time></trkpt><trkpt lat="40.92132126018293" lon="15.677128362048933"><ele>636.0</ele><time>2026-04-06T06:51:59Z</time></trkpt><trkpt lat="40.921302756329325" lon="15.677246345625653"><ele>637.0</ele><time>2026-04-06T06:52:00Z</time></trkpt><trkpt lat="40.921260645560594" lon="15.677367479407183"><ele>638.0</ele><time>2026-04-06T06:52:01Z</time></trkpt><trkpt lat="40.92119177174034" lon="15.67748869359294"><ele>639.0</ele><time>2026-04-06T06:52:02Z</time></trkpt><trkpt lat="40.92110518602532" lon="15.677611597917549"><ele>640.0</ele><time>2026-04-06T06:52:03Z</time></trkpt><trkpt lat="40.92102677281879" lon="15.677733376112153"><ele>640.5</ele><time>2026-04-06T06:52:04Z</time></trkpt><trkpt lat="40.9209436660622" lon="15.677848146608886"><ele>641.0</ele><time>2026-04-06T06:52:05Z</time></trkpt><trkpt lat="40.92084972856801" lon="15.677939308463673"><ele>641.5</ele><time>2026-04-06T06:52:06Z</time></trkpt><trkpt lat="40.92074506560788" lon="15.678005893844587"><ele>642.0</ele><time>2026-04-06T06:52:07Z</time></trkpt><trkpt lat="40.92067396464567" lon="15.678195423154248"><ele>642.0</ele><time>2026-04-06T06:52:08Z</time></trkpt><trkpt lat="40.920505440549015" lon="15.678073650915431"><ele>642.0</ele><time>2026-04-06T06:52:09Z</time></trkpt><trkpt lat="40.920381389281154" lon="15.67808753791365"><ele>642.0</ele><time>2026-04-06T06:52:10Z</time></trkpt><trkpt lat="40.92024957226804" lon="15.67809800599458"><ele>642.0</ele><time>2026-04-06T06:52:11Z</time></trkpt><trkpt lat="40.920126155839455" lon="15.678118539983311"><ele>641.75</ele><time>2026-04-06T06:52:12Z</time></trkpt><trkpt lat="40.91998644527897" lon="15.678136660652525"><ele>641.5</ele><time>2026-04-06T06:52:13Z</time></trkpt><trkpt lat="40.919857881521914" lon="15.678192031854778"><ele>641.25</ele><time>2026-04-06T06:52:14Z</time></trkpt><trkpt lat="40.9197292397659" lon="15.678267612110995"><ele>641.0</ele><time>2026-04-06T06:52:15Z</time></trkpt><trkpt lat="40.9195942931521" lon="15.678335373141408"><ele>641.0</ele><time>2026-04-06T06:52:16Z</time></trkpt><trkpt lat="40.91943352399035" lon="15.678346518037971"><ele>641.0</ele><time>2026-04-06T06:52:17Z</time></trkpt><trkpt lat="40.91929700885578" lon="15.67842123420347"><ele>641.0</ele><time>2026-04-06T06:52:18Z</time></trkpt><trkpt lat="40.91914637152842" lon="15.678458036235726"><ele>641.75</ele><time>2026-04-06T06:52:19Z</time></trkpt><trkpt lat="40.91899885149199" lon="15.678513595176208"><ele>642.5</ele><time>2026-04-06T06:52:20Z</time></trkpt><trkpt lat="40.918853402200384" lon="15.678578595014324"><ele>643.25</ele><time>2026-04-06T06:52:21Z</time></trkpt><trkpt lat="40.918718994139645" lon="15.678634429446012"><ele>644.0</ele><time>2026-04-06T06:52:22Z</time></trkpt><trkpt lat="40.91858906104627" lon="15.67868421269813"><ele>644.0</ele><time>2026-04-06T06:52:23Z</time></trkpt><trkpt lat="40.918463134709505" lon="15.6787254260655"><ele>644.0</ele><time>2026-04-06T06:52:24Z</time></trkpt><trkpt lat="40.91834958082731" lon="15.678763810648746"><ele>644.0</ele><time>2026-04-06T06:52:25Z</time></trkpt><trkpt lat="40.91824875296326" lon="15.678802984500505"><ele>644.0</ele><time>2026-04-06T06:52:26Z</time></trkpt><trkpt lat="40.918148830826475" lon="15.678843781734098"><ele>644.75</ele><time>2026-04-06T06:52:27Z</time></trkpt><trkpt lat="40.918045180931685" lon="15.678889886842024"><ele>645.5</ele><time>2026-04-06T06:52:28Z</time></trkpt><trkpt lat="40.91793433180502" lon="15.678934192774543"><ele>646.25</ele><time>2026-04-06T06:52:29Z</time></trkpt><trkpt lat="40.9178153891848" lon="15.678976276067443"><ele>647.0</ele><time>2026-04-06T06:52:30Z</time></trkpt><trkpt lat="40.91769835922085" lon="15.67901509581213"><ele>647.0</ele><time>2026-04-06T06:52:31Z</time></trkpt><trkpt lat="40.917582888216" lon="15.679065938426122"><ele>647.0</ele><time>2026-04-06T06:52:32Z</time></trkpt><trkpt lat="40.917468729816726" lon="15.679125623461477"><ele>647.0</ele><time>2026-04-06T06:52:33Z</time></trkpt><trkpt lat="40.917352451728156" lon="15.679191523219707"><ele>647.0</ele><time>2026-04-06T06:52:34Z</time></trkpt><trkpt lat="40.91723430860116" lon="15.679269273611785"><ele>647.25</ele><time>2026-04-06T06:52:35Z</time></trkpt><trkpt lat="40.917113725218265" lon="15.679360145392074"><ele>647.5</ele><time>2026-04-06T06:52:36Z</time></trkpt><trkpt lat="40.91699486474265" lon="15.679467879570891"><ele>647.75</ele><time>2026-04-06T06:52:37Z</time></trkpt><trkpt lat="40.91687746698343" lon="15.679581409812364"><ele>648.0</ele><time>2026-04-06T06:52:38Z</time></trkpt><trkpt lat="40.916759500418145" lon="15.679696883873408"><ele>649.25</ele><time>2026-04-06T06:52:39Z</time></trkpt><trkpt lat="40.916642406779836" lon="15.679799593785805"><ele>650.5</ele><time>2026-04-06T06:52:40Z</time></trkpt><trkpt lat="40.91653124258864" lon="15.679886449709283"><ele>651.75</ele><time>2026-04-06T06:52:41Z</time></trkpt><trkpt lat="40.91643059767286" lon="15.679957769930496"><ele>653.0</ele><time>2026-04-06T06:52:42Z</time></trkpt><trkpt lat="40.91633610929622" lon="15.680031992414104"><ele>653.0</ele><time>2026-04-06T06:52:43Z</time></trkpt><trkpt lat="40.91624455281774" lon="15.680097542926877"><ele>653.0</ele><time>2026-04-06T06:52:44Z</time></trkpt><trkpt lat="40.916156010380405" lon="15.680156429373413"><ele>653.0</ele><time>2026-04-06T06:52:45Z</time></trkpt><trkpt lat="40.916063152820975" lon="15.680211630119867"><ele>653.0</ele><time>2026-04-06T06:52:46Z</time></trkpt><trkpt lat="40.91597551352445" lon="15.680262466206987"><ele>653.0</ele><time>2026-04-06T06:52:47Z</time></trkpt><trkpt lat="40.915881657946954" lon="15.68031434170856"><ele>652.5</ele><time>2026-04-06T06:52:48Z</time></trkpt><trkpt lat="40.9157773477578" lon="15.680364833864662"><ele>652.0</ele><time>2026-04-06T06:52:49Z</time></trkpt><trkpt lat="40.91565682224925" lon="15.680415959521346"><ele>651.5</ele><time>2026-04-06T06:52:50Z</time></trkpt><trkpt lat="40.91553364208366" lon="15.680466671831114"><ele>651.0</ele><time>2026-04-06T06:52:51Z</time></trkpt><trkpt lat="40.91540020739135" lon="15.680525387261934"><ele>651.0</ele><time>2026-04-06T06:52:52Z</time></trkpt><trkpt lat="40.915260744046925" lon="15.680594157295422"><ele>651.0</ele><time>2026-04-06T06:52:53Z</time></trkpt><trkpt lat="40.91511771887024" lon="15.680666680315"><ele>651.0</ele><time>2026-04-06T06:52:54Z</time></trkpt><trkpt lat="40.91497008761741" lon="15.680742970892585"><ele>650.0</ele><time>2026-04-06T06:52:55Z</time></trkpt><trkpt lat="40.91482800856793" lon="15.680816797473575"><ele>649.0</ele><time>2026-04-06T06:52:56Z</time></trkpt><trkpt lat="40.91469250490026" lon="15.680905893421595"><ele>648.0</ele><time>2026-04-06T06:52:57Z</time></trkpt><trkpt lat="40.914550797506195" lon="15.681003398869859"><ele>646.6666666666666</ele><time>2026-04-06T06:52:58Z</time></trkpt><trkpt lat="40.914418188068886" lon="15.681106194871477"><ele>645.3333333333333</ele><time>2026-04-06T06:52:59Z</time></trkpt><trkpt lat="40.91429176069513" lon="15.681211240570025"><ele>644.0</ele><time>2026-04-06T06:53:00Z</time></trkpt><trkpt lat="40.91415683249217" lon="15.68131873601471"><ele>642.0</ele><time>2026-04-06T06:53:01Z</time></trkpt><trkpt lat="40.91402367681565" lon="15.681426653109666"><ele>640.0</ele><time>2026-04-06T06:53:02Z</time></trkpt><trkpt lat="40.91388828312183" lon="15.681539062226419"><ele>638.0</ele><time>2026-04-06T06:53:03Z</time></trkpt><trkpt lat="40.91375328890998" lon="15.68164718604302"><ele>638.0</ele><time>2026-04-06T06:53:04Z</time></trkpt><trkpt lat="40.91361285172716" lon="15.681761649620542"><ele>638.0</ele><time>2026-04-06T06:53:05Z</time></trkpt><trkpt lat="40.91347764213137" lon="15.681874665352515"><ele>638.0</ele><time>2026-04-06T06:53:06Z</time></trkpt><trkpt lat="40.91334750034277" lon="15.681983180347677"><ele>636.75</ele><time>2026-04-06T06:53:07Z</time></trkpt><trkpt lat="40.91323356548264" lon="15.682084446058838"><ele>635.5</ele><time>2026-04-06T06:53:08Z</time></trkpt><trkpt lat="40.913116578773916" lon="15.682193687875191"><ele>634.25</ele><time>2026-04-06T06:53:09Z</time></trkpt><trkpt lat="40.913014752098064" lon="15.682299554520792"><ele>633.0</ele><time>2026-04-06T06:53:10Z</time></trkpt><trkpt lat="40.912922880459746" lon="15.682402104237264"><ele>633.0</ele><time>2026-04-06T06:53:11Z</time></trkpt><trkpt lat="40.91284246041882" lon="15.682518633126183"><ele>633.0</ele><time>2026-04-06T06:53:12Z</time></trkpt><trkpt lat="40.912767743049955" lon="15.682630937059944"><ele>633.0</ele><time>2026-04-06T06:53:13Z</time></trkpt><trkpt lat="40.9126961028007" lon="15.682744085195647"><ele>633.0</ele><time>2026-04-06T06:53:14Z</time></trkpt><trkpt lat="40.91260885209226" lon="15.68285500537048"><ele>631.75</ele><time>2026-04-06T06:53:15Z</time></trkpt><trkpt lat="40.91251306168607" lon="15.682961757737305"><ele>630.5</ele><time>2026-04-06T06:53:16Z</time></trkpt><trkpt lat="40.91240438043487" lon="15.683068931239715"><ele>629.25</ele><time>2026-04-06T06:53:17Z</time></trkpt><trkpt lat="40.91228623994879" lon="15.683169408795532"><ele>628.0</ele><time>2026-04-06T06:53:18Z</time></trkpt><trkpt lat="40.91216238032778" lon="15.683268082849954"><ele>628.0</ele><time>2026-04-06T06:53:19Z</time></trkpt><trkpt lat="40.912040002151834" lon="15.683366917081969"><ele>628.0</ele><time>2026-04-06T06:53:20Z</time></trkpt><trkpt lat="40.911914396226535" lon="15.683465486448654"><ele>628.0</ele><time>2026-04-06T06:53:21Z</time></trkpt><trkpt lat="40.91178979787255" lon="15.683566499794498"><ele>628.0</ele><time>2026-04-06T06:53:22Z</time></trkpt><trkpt lat="40.91167234073115" lon="15.68366522666339"><ele>628.75</ele><time>2026-04-06T06:53:23Z</time></trkpt><trkpt lat="40.911559319661315" lon="15.683752768949605"><ele>629.5</ele><time>2026-04-06T06:53:24Z</time></trkpt><trkpt lat="40.911454413" lon="15.683830329937306"><ele>630.25</ele><time>2026-04-06T06:53:25Z</time></trkpt><trkpt lat="40.911355667423116" lon="15.683898758683402"><ele>631.0</ele><time>2026-04-06T06:53:26Z</time></trkpt><trkpt lat="40.911268434126654" lon="15.683965688705243"><ele>631.0</ele><time>2026-04-06T06:53:27Z</time></trkpt><trkpt lat="40.91118401580111" lon="15.68403275583372"><ele>631.0</ele><time>2026-04-06T06:53:28Z</time></trkpt><trkpt lat="40.911107404973095" lon="15.684107433547283"><ele>631.0</ele><time>2026-04-06T06:53:29Z</time></trkpt><trkpt lat="40.91104724792314" lon="15.6841886752907"><ele>631.0</ele><time>2026-04-06T06:53:30Z</time></trkpt><trkpt lat="40.9110133649253" lon="15.68429355658424"><ele>631.0</ele><time>2026-04-06T06:53:31Z</time></trkpt><trkpt lat="40.911008218169044" lon="15.684412019210376"><ele>630.2</ele><time>2026-04-06T06:53:32Z</time></trkpt><trkpt lat="40.91103451100757" lon="15.684532261888439"><ele>629.4000000000001</ele><time>2026-04-06T06:53:33Z</time></trkpt><trkpt lat="40.911085662172695" lon="15.684642459593002"><ele>628.6</ele><time>2026-04-06T06:53:34Z</time></trkpt><trkpt lat="40.91117434039791" lon="15.684750632249846"><ele>627.8000000000001</ele><time>2026-04-06T06:53:35Z</time></trkpt><trkpt lat="40.91126610783809" lon="15.684873364874433"><ele>627.0</ele><time>2026-04-06T06:53:36Z</time></trkpt><trkpt lat="40.911353936518125" lon="15.685008566560409"><ele>627.0</ele><time>2026-04-06T06:53:37Z</time></trkpt><trkpt lat="40.91142131330425" lon="15.685138960235372"><ele>627.0</ele><time>2026-04-06T06:53:38Z</time></trkpt><trkpt lat="40.911392949372186" lon="15.685320015913085"><ele>627.0</ele><time>2026-04-06T06:53:39Z</time></trkpt><trkpt lat="40.91139801620366" lon="15.685491162204826"><ele>627.0</ele><time>2026-04-06T06:53:40Z</time></trkpt><trkpt lat="40.911403232123405" lon="15.685675272373446"><ele>626.6666666666666</ele><time>2026-04-06T06:53:41Z</time></trkpt><trkpt lat="40.91139803626536" lon="15.685874514853042"><ele>626.3333333333333</ele><time>2026-04-06T06:53:42Z</time></trkpt><trkpt lat="40.911400649575086" lon="15.686078995858026"><ele>626.0</ele><time>2026-04-06T06:53:43Z</time></trkpt><trkpt lat="40.91140416522866" lon="15.68629963979038"><ele>626.3333333333333</ele><time>2026-04-06T06:53:44Z</time></trkpt><trkpt lat="40.911411462495046" lon="15.68652599859114"><ele>626.6666666666666</ele><time>2026-04-06T06:53:45Z</time></trkpt><trkpt lat="40.911417119821664" lon="15.686760541476932"><ele>627.0</ele><time>2026-04-06T06:53:46Z</time></trkpt><trkpt lat="40.91141660081603" lon="15.686995564381137"><ele>627.0</ele><time>2026-04-06T06:53:47Z</time></trkpt><trkpt lat="40.91141981117897" lon="15.68723767704653"><ele>627.0</ele><time>2026-04-06T06:53:48Z</time></trkpt><trkpt lat="40.91142050736919" lon="15.687475984165479"><ele>627.0</ele><time>2026-04-06T06:53:49Z</time></trkpt><trkpt lat="40.911420823226614" lon="15.687709925355172"><ele>627.6666666666666</ele><time>2026-04-06T06:53:50Z</time></trkpt><trkpt lat="40.911420491410155" lon="15.68793303046279"><ele>628.3333333333333</ele><time>2026-04-06T06:53:51Z</time></trkpt><trkpt lat="40.91141308615938" lon="15.688154293632527"><ele>629.0</ele><time>2026-04-06T06:53:52Z</time></trkpt><trkpt lat="40.91139422081002" lon="15.688374237189436"><ele>629.0</ele><time>2026-04-06T06:53:53Z</time></trkpt><trkpt lat="40.911353273979934" lon="15.688584657825087"><ele>629.0</ele><time>2026-04-06T06:53:54Z</time></trkpt><trkpt lat="40.91130302259871" lon="15.688800471172941"><ele>629.0</ele><time>2026-04-06T06:53:55Z</time></trkpt><trkpt lat="40.911229079174184" lon="15.689003222881512"><ele>629.3333333333333</ele><time>2026-04-06T06:53:56Z</time></trkpt><trkpt lat="40.911122306681946" lon="15.689172919870222"><ele>629.6666666666666</ele><time>2026-04-06T06:53:57Z</time></trkpt><trkpt lat="40.91101011689356" lon="15.689337944457023"><ele>630.0</ele><time>2026-04-06T06:53:58Z</time></trkpt><trkpt lat="40.91087900069353" lon="15.689478903081229"><ele>625.6666666666666</ele><time>2026-04-06T06:53:59Z</time></trkpt><trkpt lat="40.91073431093841" lon="15.689603841469841"><ele>621.3333333333333</ele><time>2026-04-06T06:54:00Z</time></trkpt><trkpt lat="40.91057837518444" lon="15.6897014833493"><ele>617.0</ele><time>2026-04-06T06:54:01Z</time></trkpt><trkpt lat="40.91040702931246" lon="15.689783831191416"><ele>617.0</ele><time>2026-04-06T06:54:02Z</time></trkpt><trkpt lat="40.91023686423334" lon="15.689850369544494"><ele>617.0</ele><time>2026-04-06T06:54:03Z</time></trkpt><trkpt lat="40.910066558707065" lon="15.689910100184424"><ele>617.0</ele><time>2026-04-06T06:54:04Z</time></trkpt><trkpt lat="40.90988997164348" lon="15.689966417717907"><ele>615.6666666666666</ele><time>2026-04-06T06:54:05Z</time></trkpt><trkpt lat="40.90971237460018" lon="15.690025033420723"><ele>614.3333333333334</ele><time>2026-04-06T06:54:06Z</time></trkpt><trkpt lat="40.9095407225709" lon="15.690079344929531"><ele>613.0</ele><time>2026-04-06T06:54:07Z</time></trkpt><trkpt lat="40.90937625246589" lon="15.69013165504718"><ele>613.6666666666667</ele><time>2026-04-06T06:54:08Z</time></trkpt><trkpt lat="40.90922177488717" lon="15.690179611564655"><ele>614.3333333333334</ele><time>2026-04-06T06:54:09Z</time></trkpt><trkpt lat="40.909077707050834" lon="15.690233569260842"><ele>615.0</ele><time>2026-04-06T06:54:10Z</time></trkpt><trkpt lat="40.908936944280754" lon="15.690291813750814"><ele>610.5</ele><time>2026-04-06T06:54:11Z</time></trkpt><trkpt lat="40.90880627405225" lon="15.690357908432713"><ele>606.0</ele><time>2026-04-06T06:54:12Z</time></trkpt><trkpt lat="40.90868280402193" lon="15.690432874183124"><ele>601.5</ele><time>2026-04-06T06:54:13Z</time></trkpt><trkpt lat="40.90856929468412" lon="15.690528563036784"><ele>597.0</ele><time>2026-04-06T06:54:14Z</time></trkpt><trkpt lat="40.90847140758677" lon="15.690638100983248"><ele>597.25</ele><time>2026-04-06T06:54:15Z</time></trkpt><trkpt lat="40.908381189704535" lon="15.690760257142497"><ele>597.5</ele><time>2026-04-06T06:54:16Z</time></trkpt><trkpt lat="40.90830086359892" lon="15.690887331483538"><ele>597.75</ele><time>2026-04-06T06:54:17Z</time></trkpt><trkpt lat="40.9082305179526" lon="15.69101668725086"><ele>598.0</ele><time>2026-04-06T06:54:18Z</time></trkpt><trkpt lat="40.908168932245125" lon="15.691149759907866"><ele>598.0</ele><time>2026-04-06T06:54:19Z</time></trkpt><trkpt lat="40.90811532905149" lon="15.691285007832754"><ele>598.0</ele><time>2026-04-06T06:54:20Z</time></trkpt><trkpt lat="40.90806501188689" lon="15.691428141165995"><ele>598.0</ele><time>2026-04-06T06:54:21Z</time></trkpt><trkpt lat="40.90802439061727" lon="15.691580132193332"><ele>598.0</ele><time>2026-04-06T06:54:22Z</time></trkpt><trkpt lat="40.907986185474826" lon="15.69175398403385"><ele>597.6666666666667</ele><time>2026-04-06T06:54:23Z</time></trkpt><trkpt lat="40.907958669816885" lon="15.691941998737661"><ele>597.3333333333334</ele><time>2026-04-06T06:54:24Z</time></trkpt><trkpt lat="40.90793814521802" lon="15.692144609027185"><ele>597.0</ele><time>2026-04-06T06:54:25Z</time></trkpt><trkpt lat="40.907922440560064" lon="15.692358468758723"><ele>597.0</ele><time>2026-04-06T06:54:26Z</time></trkpt><trkpt lat="40.907902230067215" lon="15.692578632732971"><ele>597.0</ele><time>2026-04-06T06:54:27Z</time></trkpt><trkpt lat="40.90787990359531" lon="15.692810955070955"><ele>597.0</ele><time>2026-04-06T06:54:28Z</time></trkpt><trkpt lat="40.9078553596234" lon="15.693043563591234"><ele>595.0</ele><time>2026-04-06T06:54:29Z</time></trkpt><trkpt lat="40.90783247793577" lon="15.693268121167883"><ele>593.0</ele><time>2026-04-06T06:54:30Z</time></trkpt><trkpt lat="40.907810762960956" lon="15.693486690901155"><ele>591.0</ele><time>2026-04-06T06:54:31Z</time></trkpt><trkpt lat="40.90779444132164" lon="15.693707214007015"><ele>589.3333333333334</ele><time>2026-04-06T06:54:32Z</time></trkpt><trkpt lat="40.90779543059888" lon="15.693933137160684"><ele>587.6666666666667</ele><time>2026-04-06T06:54:33Z</time></trkpt><trkpt lat="40.90781721332387" lon="15.694157963578158"><ele>586.0</ele><time>2026-04-06T06:54:34Z</time></trkpt><trkpt lat="40.90787433798143" lon="15.694381070793108"><ele>586.6666666666667</ele><time>2026-04-06T06:54:35Z</time></trkpt><trkpt lat="40.90794313575735" lon="15.694596464945288"><ele>587.3333333333334</ele><time>2026-04-06T06:54:36Z</time></trkpt><trkpt lat="40.908033020603085" lon="15.69479077115245"><ele>588.0</ele><time>2026-04-06T06:54:37Z</time></trkpt><trkpt lat="40.908139112621384" lon="15.694963813439124"><ele>588.0</ele><time>2026-04-06T06:54:38Z</time></trkpt><trkpt lat="40.90826382604699" lon="15.695131783016189"><ele>588.0</ele><time>2026-04-06T06:54:39Z</time></trkpt><trkpt lat="40.90841384065285" lon="15.695268970695881"><ele>588.0</ele><time>2026-04-06T06:54:40Z</time></trkpt><trkpt lat="40.908578106509864" lon="15.695382161885627"><ele>590.3333333333334</ele><time>2026-04-06T06:54:41Z</time></trkpt><trkpt lat="40.9087602862296" lon="15.695475048035608"><ele>592.6666666666667</ele><time>2026-04-06T06:54:42Z</time></trkpt><trkpt lat="40.90895242951616" lon="15.695549232143348"><ele>595.0</ele><time>2026-04-06T06:54:43Z</time></trkpt><trkpt lat="40.90915399039213" lon="15.695606524020917"><ele>588.6666666666667</ele><time>2026-04-06T06:54:44Z</time></trkpt><trkpt lat="40.909363639357075" lon="15.695664351973996"><ele>582.3333333333334</ele><time>2026-04-06T06:54:45Z</time></trkpt><trkpt lat="40.909570523858754" lon="15.695727490163897"><ele>576.0</ele><time>2026-04-06T06:54:46Z</time></trkpt><trkpt lat="40.909773786041605" lon="15.695801200776314"><ele>576.0</ele><time>2026-04-06T06:54:47Z</time></trkpt><trkpt lat="40.909976702112246" lon="15.695889544863428"><ele>576.0</ele><time>2026-04-06T06:54:48Z</time></trkpt><trkpt lat="40.91017232080073" lon="15.695994151089733"><ele>576.0</ele><time>2026-04-06T06:54:49Z</time></trkpt><trkpt lat="40.91035292317284" lon="15.696121747790214"><ele>574.3333333333334</ele><time>2026-04-06T06:54:50Z</time></trkpt><trkpt lat="40.91051810380051" lon="15.696272567550402"><ele>572.6666666666667</ele><time>2026-04-06T06:54:51Z</time></trkpt><trkpt lat="40.910674290524355" lon="15.696446389560272"><ele>571.0</ele><time>2026-04-06T06:54:52Z</time></trkpt><trkpt lat="40.91082356353609" lon="15.69662978362602"><ele>567.6666666666667</ele><time>2026-04-06T06:54:53Z</time></trkpt><trkpt lat="40.910972225855225" lon="15.696814249236198"><ele>564.3333333333334</ele><time>2026-04-06T06:54:54Z</time></trkpt><trkpt lat="40.911122749915435" lon="15.69699815856744"><ele>561.0</ele><time>2026-04-06T06:54:55Z</time></trkpt><trkpt lat="40.9112731567982" lon="15.697174833713527"><ele>561.0</ele><time>2026-04-06T06:54:56Z</time></trkpt><trkpt lat="40.911433305947355" lon="15.697330644098173"><ele>561.0</ele><time>2026-04-06T06:54:57Z</time></trkpt><trkpt lat="40.91160661289565" lon="15.697455902447595"><ele>561.0</ele><time>2026-04-06T06:54:58Z</time></trkpt><trkpt lat="40.91178651192365" lon="15.697554034620344"><ele>557.3333333333334</ele><time>2026-04-06T06:54:59Z</time></trkpt><trkpt lat="40.91197972244667" lon="15.697626495199192"><ele>553.6666666666667</ele><time>2026-04-06T06:55:00Z</time></trkpt><trkpt lat="40.91218084460542" lon="15.697672214844191"><ele>550.0</ele><time>2026-04-06T06:55:01Z</time></trkpt><trkpt lat="40.91238563532782" lon="15.697695915939"><ele>548.3333333333334</ele><time>2026-04-06T06:55:02Z</time></trkpt><trkpt lat="40.91259112788489" lon="15.69771107147496"><ele>546.6666666666666</ele><time>2026-04-06T06:55:03Z</time></trkpt><trkpt lat="40.91280183503923" lon="15.697729089247979"><ele>545.0</ele><time>2026-04-06T06:55:04Z</time></trkpt><trkpt lat="40.91300818025106" lon="15.69775160356581"><ele>546.0</ele><time>2026-04-06T06:55:05Z</time></trkpt><trkpt lat="40.913211029123694" lon="15.697774594112664"><ele>547.0</ele><time>2026-04-06T06:55:06Z</time></trkpt><trkpt lat="40.91340816859684" lon="15.697799443251908"><ele>548.0</ele><time>2026-04-06T06:55:07Z</time></trkpt><trkpt lat="40.91360121463757" lon="15.697826408846645"><ele>548.0</ele><time>2026-04-06T06:55:08Z</time></trkpt><trkpt lat="40.91379444737147" lon="15.697858668803345"><ele>548.0</ele><time>2026-04-06T06:55:09Z</time></trkpt><trkpt lat="40.91398541288082" lon="15.69789976796658"><ele>548.0</ele><time>2026-04-06T06:55:10Z</time></trkpt><trkpt lat="40.91417378933207" lon="15.697953350060468"><ele>544.3333333333333</ele><time>2026-04-06T06:55:11Z</time></trkpt><trkpt lat="40.91435898856959" lon="15.698017495201283"><ele>540.6666666666666</ele><time>2026-04-06T06:55:12Z</time></trkpt><trkpt lat="40.914543637900714" lon="15.698091660588075"><ele>537.0</ele><time>2026-04-06T06:55:13Z</time></trkpt><trkpt lat="40.91472104454324" lon="15.698173602645085"><ele>537.0</ele><time>2026-04-06T06:55:14Z</time></trkpt><trkpt lat="40.91489532736296" lon="15.69826922842367"><ele>537.0</ele><time>2026-04-06T06:55:15Z</time></trkpt><trkpt lat="40.91507055605662" lon="15.698378916770281"><ele>537.0</ele><time>2026-04-06T06:55:16Z</time></trkpt><trkpt lat="40.915237007252784" lon="15.698506897377822"><ele>536.0</ele><time>2026-04-06T06:55:17Z</time></trkpt><trkpt lat="40.91540356854243" lon="15.698644117703287"><ele>535.0</ele><time>2026-04-06T06:55:18Z</time></trkpt><trkpt lat="40.915570689620296" lon="15.698785528272424"><ele>534.0</ele><time>2026-04-06T06:55:19Z</time></trkpt><trkpt lat="40.915734637872994" lon="15.698930013233173"><ele>534.0</ele><time>2026-04-06T06:55:20Z</time></trkpt><trkpt lat="40.91590077838551" lon="15.699087507853632"><ele>534.0</ele><time>2026-04-06T06:55:21Z</time></trkpt><trkpt lat="40.91606600841949" lon="15.699249630147945"><ele>534.0</ele><time>2026-04-06T06:55:22Z</time></trkpt><trkpt lat="40.91623192865148" lon="15.699408495585567"><ele>529.6666666666666</ele><time>2026-04-06T06:55:23Z</time></trkpt><trkpt lat="40.91640168653744" lon="15.699573414002737"><ele>525.3333333333333</ele><time>2026-04-06T06:55:24Z</time></trkpt><trkpt lat="40.91656872942551" lon="15.699736204496336"><ele>521.0</ele><time>2026-04-06T06:55:25Z</time></trkpt><trkpt lat="40.916738142587405" lon="15.699901782994683"><ele>520.0</ele><time>2026-04-06T06:55:26Z</time></trkpt><trkpt lat="40.916907729005686" lon="15.700063083660261"><ele>519.0</ele><time>2026-04-06T06:55:27Z</time></trkpt><trkpt lat="40.91707915803826" lon="15.700228096983707"><ele>518.0</ele><time>2026-04-06T06:55:28Z</time></trkpt><trkpt lat="40.917246436151004" lon="15.70039007356493"><ele>518.0</ele><time>2026-04-06T06:55:29Z</time></trkpt><trkpt lat="40.91740727325088" lon="15.700556956378074"><ele>518.0</ele><time>2026-04-06T06:55:30Z</time></trkpt><trkpt lat="40.91755058799712" lon="15.700737801203148"><ele>518.0</ele><time>2026-04-06T06:55:31Z</time></trkpt><trkpt lat="40.91767335580409" lon="15.700933940590076"><ele>510.3333333333333</ele><time>2026-04-06T06:55:32Z</time></trkpt><trkpt lat="40.917779079969904" lon="15.70114544287401"><ele>502.66666666666663</ele><time>2026-04-06T06:55:33Z</time></trkpt><trkpt lat="40.91786872039972" lon="15.701368944103628"><ele>495.0</ele><time>2026-04-06T06:55:34Z</time></trkpt><trkpt lat="40.91794545766515" lon="15.701602838750143"><ele>495.0</ele><time>2026-04-06T06:55:35Z</time></trkpt><trkpt lat="40.91800447708399" lon="15.701840508838268"><ele>495.0</ele><time>2026-04-06T06:55:36Z</time></trkpt><trkpt lat="40.91804580590132" lon="15.702088575664341"><ele>495.0</ele><time>2026-04-06T06:55:37Z</time></trkpt><trkpt lat="40.91805995439333" lon="15.702333668943284"><ele>494.0</ele><time>2026-04-06T06:55:38Z</time></trkpt><trkpt lat="40.9180580137993" lon="15.702581841310455"><ele>493.0</ele><time>2026-04-06T06:55:39Z</time></trkpt><trkpt lat="40.91804758736776" lon="15.702828386722425"><ele>492.0</ele><time>2026-04-06T06:55:40Z</time></trkpt><trkpt lat="40.918037024507065" lon="15.703069877573979"><ele>492.0</ele><time>2026-04-06T06:55:41Z</time></trkpt><trkpt lat="40.918027884874455" lon="15.703317007150414"><ele>492.0</ele><time>2026-04-06T06:55:42Z</time></trkpt><trkpt lat="40.91801781413983" lon="15.703566094577868"><ele>492.0</ele><time>2026-04-06T06:55:43Z</time></trkpt><trkpt lat="40.918006311883275" lon="15.703810257545188"><ele>492.0</ele><time>2026-04-06T06:55:44Z</time></trkpt><trkpt lat="40.91799704023904" lon="15.704059655916994"><ele>492.0</ele><time>2026-04-06T06:55:45Z</time></trkpt><trkpt lat="40.917986933123906" lon="15.704304974794184"><ele>492.0</ele><time>2026-04-06T06:55:46Z</time></trkpt><trkpt lat="40.91797157887374" lon="15.704552462082821"><ele>491.0</ele><time>2026-04-06T06:55:47Z</time></trkpt><trkpt lat="40.91794225195964" lon="15.70479618833103"><ele>490.0</ele><time>2026-04-06T06:55:48Z</time></trkpt><trkpt lat="40.91789893699135" lon="15.705035647590968"><ele>489.0</ele><time>2026-04-06T06:55:49Z</time></trkpt><trkpt lat="40.917844068933" lon="15.70527652864551"><ele>485.0</ele><time>2026-04-06T06:55:50Z</time></trkpt><trkpt lat="40.917790091051145" lon="15.705508362803206"><ele>481.0</ele><time>2026-04-06T06:55:51Z</time></trkpt><trkpt lat="40.917726495867164" lon="15.70573975036801"><ele>477.0</ele><time>2026-04-06T06:55:52Z</time></trkpt><trkpt lat="40.91765020538969" lon="15.705960007382746"><ele>480.33333333333337</ele><time>2026-04-06T06:55:53Z</time></trkpt><trkpt lat="40.91756454801036" lon="15.706182748283133"><ele>483.6666666666667</ele><time>2026-04-06T06:55:54Z</time></trkpt><trkpt lat="40.9174799914799" lon="15.706398530493388"><ele>487.0</ele><time>2026-04-06T06:55:55Z</time></trkpt><trkpt lat="40.91739307325103" lon="15.706616603074552"><ele>487.0</ele><time>2026-04-06T06:55:56Z</time></trkpt><trkpt lat="40.91731195911338" lon="15.70683980451332"><ele>487.0</ele><time>2026-04-06T06:55:57Z</time></trkpt><trkpt lat="40.91723641250789" lon="15.707064866528784"><ele>487.0</ele><time>2026-04-06T06:55:58Z</time></trkpt><trkpt lat="40.917183372241595" lon="15.707297231377572"><ele>484.33333333333337</ele><time>2026-04-06T06:55:59Z</time></trkpt><trkpt lat="40.91715585012916" lon="15.707535740280944"><ele>481.66666666666663</ele><time>2026-04-06T06:56:00Z</time></trkpt><trkpt lat="40.91715349877369" lon="15.707781436513908"><ele>479.0</ele><time>2026-04-06T06:56:01Z</time></trkpt><trkpt lat="40.91717110711315" lon="15.708023114038394"><ele>477.66666666666663</ele><time>2026-04-06T06:56:02Z</time></trkpt><trkpt lat="40.917205402702045" lon="15.70826175923183"><ele>476.33333333333337</ele><time>2026-04-06T06:56:03Z</time></trkpt><trkpt lat="40.91725362217283" lon="15.708500463451013"><ele>475.0</ele><time>2026-04-06T06:56:04Z</time></trkpt><trkpt lat="40.9173083344326" lon="15.708733826114196"><ele>473.0</ele><time>2026-04-06T06:56:05Z</time></trkpt><trkpt lat="40.91736590985235" lon="15.70897039055889"><ele>471.0</ele><time>2026-04-06T06:56:06Z</time></trkpt><trkpt lat="40.917420564069474" lon="15.709208729548376"><ele>469.0</ele><time>2026-04-06T06:56:07Z</time></trkpt><trkpt lat="40.91747364078256" lon="15.70944395384863"><ele>467.6666666666667</ele><time>2026-04-06T06:56:08Z</time></trkpt><trkpt lat="40.9175287347109" lon="15.709682989537901"><ele>466.33333333333337</ele><time>2026-04-06T06:56:09Z</time></trkpt><trkpt lat="40.917583641310685" lon="15.709920967748642"><ele>465.0</ele><time>2026-04-06T06:56:10Z</time></trkpt><trkpt lat="40.91763814957939" lon="15.710160099674912"><ele>462.0</ele><time>2026-04-06T06:56:11Z</time></trkpt><trkpt lat="40.91769151093883" lon="15.710399420146352"><ele>459.0</ele><time>2026-04-06T06:56:12Z</time></trkpt><trkpt lat="40.91774649795314" lon="15.71063420163878"><ele>456.0</ele><time>2026-04-06T06:56:13Z</time></trkpt><trkpt lat="40.91780531656244" lon="15.710870756448285"><ele>453.0</ele><time>2026-04-06T06:56:14Z</time></trkpt><trkpt lat="40.9178618672161" lon="15.711105015452961"><ele>450.0</ele><time>2026-04-06T06:56:15Z</time></trkpt><trkpt lat="40.91791776566809" lon="15.71134112667442"><ele>447.0</ele><time>2026-04-06T06:56:16Z</time></trkpt><trkpt lat="40.91796945966725" lon="15.711577873711803"><ele>447.0</ele><time>2026-04-06T06:56:17Z</time></trkpt><trkpt lat="40.91801522788207" lon="15.711816505195566"><ele>447.0</ele><time>2026-04-06T06:56:18Z</time></trkpt><trkpt lat="40.91805097416839" lon="15.712057740929058"><ele>447.0</ele><time>2026-04-06T06:56:19Z</time></trkpt><trkpt lat="40.91806722132938" lon="15.712295827773776"><ele>445.33333333333337</ele><time>2026-04-06T06:56:20Z</time></trkpt><trkpt lat="40.91806468834504" lon="15.712538417091338"><ele>443.6666666666667</ele><time>2026-04-06T06:56:21Z</time></trkpt><trkpt lat="40.91803948668097" lon="15.712776716726353"><ele>442.0</ele><time>2026-04-06T06:56:22Z</time></trkpt><trkpt lat="40.91800052747546" lon="15.713007371662492"><ele>440.6666666666667</ele><time>2026-04-06T06:56:23Z</time></trkpt><trkpt lat="40.91794370593644" lon="15.713229069407435"><ele>439.33333333333337</ele><time>2026-04-06T06:56:24Z</time></trkpt><trkpt lat="40.91786978058701" lon="15.71344138635318"><ele>438.0</ele><time>2026-04-06T06:56:25Z</time></trkpt><trkpt lat="40.91777613689244" lon="15.713630098651787"><ele>438.0</ele><time>2026-04-06T06:56:26Z</time></trkpt><trkpt lat="40.917663834670336" lon="15.71381107380282"><ele>438.0</ele><time>2026-04-06T06:56:27Z</time></trkpt><trkpt lat="40.91754498187078" lon="15.7139662600841"><ele>438.0</ele><time>2026-04-06T06:56:28Z</time></trkpt><trkpt lat="40.917421820311844" lon="15.71410788519907"><ele>438.0</ele><time>2026-04-06T06:56:29Z</time></trkpt><trkpt lat="40.91729301916616" lon="15.71422724133525"><ele>438.0</ele><time>2026-04-06T06:56:30Z</time></trkpt><trkpt lat="40.91716188326826" lon="15.714330361676199"><ele>438.0</ele><time>2026-04-06T06:56:31Z</time></trkpt><trkpt lat="40.917027864470434" lon="15.714415398275372"><ele>434.0</ele><time>2026-04-06T06:56:32Z</time></trkpt><trkpt lat="40.916889157742226" lon="15.714489671646719"><ele>430.0</ele><time>2026-04-06T06:56:33Z</time></trkpt><trkpt lat="40.916751300491214" lon="15.71455476768453"><ele>426.0</ele><time>2026-04-06T06:56:34Z</time></trkpt><trkpt lat="40.91660909130564" lon="15.714618637641994"><ele>422.0</ele><time>2026-04-06T06:56:35Z</time></trkpt><trkpt lat="40.91646853470421" lon="15.714674339077533"><ele>422.0</ele><time>2026-04-06T06:56:36Z</time></trkpt><trkpt lat="40.916327820778505" lon="15.714732719252384"><ele>422.0</ele><time>2026-04-06T06:56:37Z</time></trkpt><trkpt lat="40.91619238127978" lon="15.71480535453452"><ele>422.0</ele><time>2026-04-06T06:56:38Z</time></trkpt><trkpt lat="40.91605122213862" lon="15.714864203737687"><ele>422.0</ele><time>2026-04-06T06:56:39Z</time></trkpt><trkpt lat="40.91591207158565" lon="15.7149040907297"><ele>420.75</ele><time>2026-04-06T06:56:40Z</time></trkpt><trkpt lat="40.91577039553422" lon="15.714931495170873"><ele>419.5</ele><time>2026-04-06T06:56:41Z</time></trkpt><trkpt lat="40.915625709998785" lon="15.714940631897242"><ele>418.25</ele><time>2026-04-06T06:56:42Z</time></trkpt><trkpt lat="40.915480337795785" lon="15.714927667463229"><ele>417.0</ele><time>2026-04-06T06:56:43Z</time></trkpt><trkpt lat="40.91533294634952" lon="15.714903708924236"><ele>417.0</ele><time>2026-04-06T06:56:44Z</time></trkpt><trkpt lat="40.91519400289765" lon="15.71487134995891"><ele>417.0</ele><time>2026-04-06T06:56:45Z</time></trkpt><trkpt lat="40.91504831621249" lon="15.714841081545396"><ele>417.0</ele><time>2026-04-06T06:56:46Z</time></trkpt><trkpt lat="40.914907961352114" lon="15.7148096640338"><ele>417.0</ele><time>2026-04-06T06:56:47Z</time></trkpt><trkpt lat="40.91476794791533" lon="15.71477812674164"><ele>417.0</ele><time>2026-04-06T06:56:48Z</time></trkpt><trkpt lat="40.9146268346563" lon="15.71474781969365"><ele>417.0</ele><time>2026-04-06T06:56:49Z</time></trkpt><trkpt lat="40.91448130940622" lon="15.714718050555422"><ele>417.0</ele><time>2026-04-06T06:56:50Z</time></trkpt><trkpt lat="40.91434135008038" lon="15.714668225006848"><ele>417.0</ele><time>2026-04-06T06:56:51Z</time></trkpt><trkpt lat="40.91419748592191" lon="15.714634421482758"><ele>416.75</ele><time>2026-04-06T06:56:52Z</time></trkpt><trkpt lat="40.9140573027321" lon="15.714601482862976"><ele>416.5</ele><time>2026-04-06T06:56:53Z</time></trkpt><trkpt lat="40.9139188440248" lon="15.714568949453044"><ele>416.25</ele><time>2026-04-06T06:56:54Z</time></trkpt><trkpt lat="40.91378044834687" lon="15.714556617402184"><ele>416.0</ele><time>2026-04-06T06:56:55Z</time></trkpt><trkpt lat="40.91364853582433" lon="15.7145238667851"><ele>416.0</ele><time>2026-04-06T06:56:56Z</time></trkpt><trkpt lat="40.91351804016605" lon="15.714490014557986"><ele>416.0</ele><time>2026-04-06T06:56:57Z</time></trkpt><trkpt lat="40.91339166383567" lon="15.714452775089644"><ele>416.0</ele><time>2026-04-06T06:56:58Z</time></trkpt><trkpt lat="40.91325178954161" lon="15.714426157577135"><ele>416.0</ele><time>2026-04-06T06:56:59Z</time></trkpt><trkpt lat="40.91311194805358" lon="15.714390116075988"><ele>420.0</ele><time>2026-04-06T06:57:00Z</time></trkpt><trkpt lat="40.91296632556058" lon="15.71436000644798"><ele>424.0</ele><time>2026-04-06T06:57:01Z</time></trkpt><trkpt lat="40.91281941863543" lon="15.714325068713704"><ele>428.0</ele><time>2026-04-06T06:57:02Z</time></trkpt><trkpt lat="40.912667837542166" lon="15.714291106495827"><ele>426.66666666666663</ele><time>2026-04-06T06:57:03Z</time></trkpt><trkpt lat="40.912510408544655" lon="15.71425874607746"><ele>425.33333333333337</ele><time>2026-04-06T06:57:04Z</time></trkpt><trkpt lat="40.912348300089995" lon="15.714225659150578"><ele>424.0</ele><time>2026-04-06T06:57:05Z</time></trkpt><trkpt lat="40.912185001374176" lon="15.714194613829394"><ele>424.0</ele><time>2026-04-06T06:57:06Z</time></trkpt><trkpt lat="40.912019253559855" lon="15.714165609757998"><ele>424.0</ele><time>2026-04-06T06:57:07Z</time></trkpt><trkpt lat="40.911852150830526" lon="15.714143525456755"><ele>424.0</ele><time>2026-04-06T06:57:08Z</time></trkpt><trkpt lat="40.911684042803955" lon="15.714130312788992"><ele>425.33333333333337</ele><time>2026-04-06T06:57:09Z</time></trkpt><trkpt lat="40.91151252029219" lon="15.714126584694771"><ele>426.66666666666663</ele><time>2026-04-06T06:57:10Z</time></trkpt><trkpt lat="40.91134012389835" lon="15.714132462354351"><ele>428.0</ele><time>2026-04-06T06:57:11Z</time></trkpt><trkpt lat="40.91116564375813" lon="15.714147764277637"><ele>428.0</ele><time>2026-04-06T06:57:12Z</time></trkpt><trkpt lat="40.910989013641505" lon="15.71417454315781"><ele>428.0</ele><time>2026-04-06T06:57:13Z</time></trkpt><trkpt lat="40.910814451518846" lon="15.714208823014989"><ele>428.0</ele><time>2026-04-06T06:57:14Z</time></trkpt><trkpt lat="40.91063357292921" lon="15.714240794850035"><ele>429.66666666666663</ele><time>2026-04-06T06:57:15Z</time></trkpt><trkpt lat="40.910454207810524" lon="15.714266263073478"><ele>431.33333333333337</ele><time>2026-04-06T06:57:16Z</time></trkpt><trkpt lat="40.910271724675795" lon="15.714293624614896"><ele>433.0</ele><time>2026-04-06T06:57:17Z</time></trkpt><trkpt lat="40.91008829419094" lon="15.714328875993937"><ele>435.0</ele><time>2026-04-06T06:57:18Z</time></trkpt><trkpt lat="40.90990667647358" lon="15.714379382852389"><ele>437.0</ele><time>2026-04-06T06:57:19Z</time></trkpt><trkpt lat="40.909728261225276" lon="15.714445931906166"><ele>439.0</ele><time>2026-04-06T06:57:20Z</time></trkpt><trkpt lat="40.90955462525596" lon="15.714533406279866"><ele>438.0</ele><time>2026-04-06T06:57:21Z</time></trkpt><trkpt lat="40.909389136495335" lon="15.714637165718754"><ele>437.0</ele><time>2026-04-06T06:57:22Z</time></trkpt><trkpt lat="40.90923089677061" lon="15.714760145948468"><ele>436.0</ele><time>2026-04-06T06:57:23Z</time></trkpt><trkpt lat="40.9090772520697" lon="15.71490006440289"><ele>436.0</ele><time>2026-04-06T06:57:24Z</time></trkpt><trkpt lat="40.90892778861941" lon="15.715042562132487"><ele>436.0</ele><time>2026-04-06T06:57:25Z</time></trkpt><trkpt lat="40.90878533910321" lon="15.715197006762118"><ele>436.0</ele><time>2026-04-06T06:57:26Z</time></trkpt><trkpt lat="40.90864453426443" lon="15.715353852722917"><ele>436.33333333333337</ele><time>2026-04-06T06:57:27Z</time></trkpt><trkpt lat="40.908504026813006" lon="15.715506057402873"><ele>436.66666666666663</ele><time>2026-04-06T06:57:28Z</time></trkpt><trkpt lat="40.90836214861357" lon="15.715659356482522"><ele>437.0</ele><time>2026-04-06T06:57:29Z</time></trkpt><trkpt lat="40.908216906592386" lon="15.715802785398584"><ele>437.0</ele><time>2026-04-06T06:57:30Z</time></trkpt><trkpt lat="40.90807237335691" lon="15.715939021419858"><ele>437.0</ele><time>2026-04-06T06:57:31Z</time></trkpt><trkpt lat="40.90792818682554" lon="15.71608573855343"><ele>437.0</ele><time>2026-04-06T06:57:32Z</time></trkpt><trkpt lat="40.90778859898758" lon="15.716233380524693"><ele>436.0</ele><time>2026-04-06T06:57:33Z</time></trkpt><trkpt lat="40.90765304364818" lon="15.716386015782835"><ele>435.0</ele><time>2026-04-06T06:57:34Z</time></trkpt><trkpt lat="40.90751483624475" lon="15.716536426549032"><ele>434.0</ele><time>2026-04-06T06:57:35Z</time></trkpt><trkpt lat="40.90737846665274" lon="15.716684263894388"><ele>434.0</ele><time>2026-04-06T06:57:36Z</time></trkpt><trkpt lat="40.9072465564405" lon="15.716835912720233"><ele>434.0</ele><time>2026-04-06T06:57:37Z</time></trkpt><trkpt lat="40.90712417757662" lon="15.716996383380083"><ele>434.0</ele><time>2026-04-06T06:57:38Z</time></trkpt><trkpt lat="40.90701053414819" lon="15.717164470227434"><ele>432.66666666666663</ele><time>2026-04-06T06:57:39Z</time></trkpt><trkpt lat="40.90690358564397" lon="15.71734176829971"><ele>431.33333333333337</ele><time>2026-04-06T06:57:40Z</time></trkpt><trkpt lat="40.906806922186135" lon="15.717520353023382"><ele>430.0</ele><time>2026-04-06T06:57:41Z</time></trkpt><trkpt lat="40.90671366420138" lon="15.717705793310069"><ele>433.0</ele><time>2026-04-06T06:57:42Z</time></trkpt><trkpt lat="40.906622423346995" lon="15.717887089883515"><ele>436.0</ele><time>2026-04-06T06:57:43Z</time></trkpt><trkpt lat="40.90653693111311" lon="15.718072534618315"><ele>439.0</ele><time>2026-04-06T06:57:44Z</time></trkpt><trkpt lat="40.90646164466564" lon="15.718265216913217"><ele>439.0</ele><time>2026-04-06T06:57:45Z</time></trkpt><trkpt lat="40.90639736252882" lon="15.718461840736031"><ele>439.0</ele><time>2026-04-06T06:57:46Z</time></trkpt><trkpt lat="40.90634236491942" lon="15.718667182410162"><ele>439.0</ele><time>2026-04-06T06:57:47Z</time></trkpt><trkpt lat="40.906296645989556" lon="15.718881738824932"><ele>439.33333333333337</ele><time>2026-04-06T06:57:48Z</time></trkpt><trkpt lat="40.90625559686028" lon="15.719102953690168"><ele>439.66666666666663</ele><time>2026-04-06T06:57:49Z</time></trkpt><trkpt lat="40.90622074303758" lon="15.719316562925416"><ele>440.0</ele><time>2026-04-06T06:57:50Z</time></trkpt><trkpt lat="40.90618912463708" lon="15.719532994323155"><ele>440.0</ele><time>2026-04-06T06:57:51Z</time></trkpt><trkpt lat="40.9061602159512" lon="15.719748604724098"><ele>440.0</ele><time>2026-04-06T06:57:52Z</time></trkpt><trkpt lat="40.90612950481313" lon="15.719966912247191"><ele>440.0</ele><time>2026-04-06T06:57:53Z</time></trkpt><trkpt lat="40.90609908442184" lon="15.720182707047982"><ele>444.0</ele><time>2026-04-06T06:57:54Z</time></trkpt><trkpt lat="40.90606552658252" lon="15.720397295523767"><ele>448.0</ele><time>2026-04-06T06:57:55Z</time></trkpt><trkpt lat="40.90603280839636" lon="15.720606836913822"><ele>452.0</ele><time>2026-04-06T06:57:56Z</time></trkpt><trkpt lat="40.90600155133734" lon="15.720816276964314"><ele>452.0</ele><time>2026-04-06T06:57:57Z</time></trkpt><trkpt lat="40.9059714763178" lon="15.721022672609948"><ele>452.0</ele><time>2026-04-06T06:57:58Z</time></trkpt><trkpt lat="40.90594500964263" lon="15.721233356684394"><ele>452.0</ele><time>2026-04-06T06:57:59Z</time></trkpt><trkpt lat="40.90591706663005" lon="15.721439395231181"><ele>449.66666666666663</ele><time>2026-04-06T06:58:00Z</time></trkpt><trkpt lat="40.905888087979335" lon="15.721648201745701"><ele>447.33333333333337</ele><time>2026-04-06T06:58:01Z</time></trkpt><trkpt lat="40.90585639504669" lon="15.721856136660858"><ele>445.0</ele><time>2026-04-06T06:58:02Z</time></trkpt><trkpt lat="40.905823394547085" lon="15.722066558495593"><ele>450.0</ele><time>2026-04-06T06:58:03Z</time></trkpt><trkpt lat="40.90579191615152" lon="15.722276455176674"><ele>455.0</ele><time>2026-04-06T06:58:04Z</time></trkpt><trkpt lat="40.905758718225165" lon="15.722481670777897"><ele>460.0</ele><time>2026-04-06T06:58:05Z</time></trkpt><trkpt lat="40.90572712658265" lon="15.722683678163174"><ele>463.0</ele><time>2026-04-06T06:58:06Z</time></trkpt><trkpt lat="40.90569998833345" lon="15.722896653835607"><ele>466.0</ele><time>2026-04-06T06:58:07Z</time></trkpt><trkpt lat="40.90568063710707" lon="15.723103960670716"><ele>469.0</ele><time>2026-04-06T06:58:08Z</time></trkpt><trkpt lat="40.90566108712799" lon="15.723311998971287"><ele>469.0</ele><time>2026-04-06T06:58:09Z</time></trkpt><trkpt lat="40.90564105789408" lon="15.723521887677652"><ele>469.0</ele><time>2026-04-06T06:58:10Z</time></trkpt><trkpt lat="40.90562654450047" lon="15.72373129435595"><ele>469.0</ele><time>2026-04-06T06:58:11Z</time></trkpt><trkpt lat="40.90562435012489" lon="15.72394490630661"><ele>471.6666666666667</ele><time>2026-04-06T06:58:12Z</time></trkpt><trkpt lat="40.90562546024834" lon="15.724157337350256"><ele>474.33333333333337</ele><time>2026-04-06T06:58:13Z</time></trkpt><trkpt lat="40.905634455301055" lon="15.724366312233455"><ele>477.0</ele><time>2026-04-06T06:58:14Z</time></trkpt><trkpt lat="40.90563896003013" lon="15.724578102143818"><ele>479.33333333333337</ele><time>2026-04-06T06:58:15Z</time></trkpt><trkpt lat="40.9056478314588" lon="15.724790449265067"><ele>481.6666666666667</ele><time>2026-04-06T06:58:16Z</time></trkpt><trkpt lat="40.90566679804009" lon="15.724999418690366"><ele>484.0</ele><time>2026-04-06T06:58:17Z</time></trkpt><trkpt lat="40.90568751972045" lon="15.725208762610299"><ele>485.0</ele><time>2026-04-06T06:58:18Z</time></trkpt><trkpt lat="40.90571123733686" lon="15.72541671133805"><ele>486.0</ele><time>2026-04-06T06:58:19Z</time></trkpt><trkpt lat="40.905733161686335" lon="15.72562806485041"><ele>487.0</ele><time>2026-04-06T06:58:20Z</time></trkpt><trkpt lat="40.90575228985405" lon="15.725838312003697"><ele>487.0</ele><time>2026-04-06T06:58:21Z</time></trkpt><trkpt lat="40.9057793016649" lon="15.726045900324971"><ele>487.0</ele><time>2026-04-06T06:58:22Z</time></trkpt><trkpt lat="40.90582767142491" lon="15.726246919980303"><ele>487.0</ele><time>2026-04-06T06:58:23Z</time></trkpt><trkpt lat="40.905894229221694" lon="15.72644099297551"><ele>487.0</ele><time>2026-04-06T06:58:24Z</time></trkpt><trkpt lat="40.90597055335834" lon="15.726619328354968"><ele>487.0</ele><time>2026-04-06T06:58:25Z</time></trkpt><trkpt lat="40.90605853640113" lon="15.72680244629707"><ele>487.0</ele><time>2026-04-06T06:58:26Z</time></trkpt><trkpt lat="40.90616050296834" lon="15.726970727336969"><ele>487.0</ele><time>2026-04-06T06:58:27Z</time></trkpt><trkpt lat="40.906271287990094" lon="15.727129306795035"><ele>487.0</ele><time>2026-04-06T06:58:28Z</time></trkpt><trkpt lat="40.90640039976287" lon="15.727277129322184"><ele>487.0</ele><time>2026-04-06T06:58:29Z</time></trkpt><trkpt lat="40.90653697472678" lon="15.727411780894803"><ele>487.0</ele><time>2026-04-06T06:58:30Z</time></trkpt><trkpt lat="40.906684457320196" lon="15.727530915577608"><ele>487.0</ele><time>2026-04-06T06:58:31Z</time></trkpt><trkpt lat="40.90683686571008" lon="15.727633927905705"><ele>487.0</ele><time>2026-04-06T06:58:32Z</time></trkpt><trkpt lat="40.90699924992061" lon="15.727730630000156"><ele>486.33333333333337</ele><time>2026-04-06T06:58:33Z</time></trkpt><trkpt lat="40.907163710808284" lon="15.727812211138756"><ele>485.66666666666663</ele><time>2026-04-06T06:58:34Z</time></trkpt><trkpt lat="40.907328171022435" lon="15.727884914229005"><ele>485.0</ele><time>2026-04-06T06:58:35Z</time></trkpt><trkpt lat="40.907497490851796" lon="15.727958056703644"><ele>490.66666666666663</ele><time>2026-04-06T06:58:36Z</time></trkpt><trkpt lat="40.90766729688219" lon="15.728036580840882"><ele>496.33333333333337</ele><time>2026-04-06T06:58:37Z</time></trkpt><trkpt lat="40.907834652983986" lon="15.728119856461676"><ele>502.0</ele><time>2026-04-06T06:58:38Z</time></trkpt><trkpt lat="40.90800497251045" lon="15.728205503076982"><ele>502.0</ele><time>2026-04-06T06:58:39Z</time></trkpt><trkpt lat="40.90817451911994" lon="15.728292394251978"><ele>502.0</ele><time>2026-04-06T06:58:40Z</time></trkpt><trkpt lat="40.9083445209723" lon="15.728374363325658"><ele>502.0</ele><time>2026-04-06T06:58:41Z</time></trkpt><trkpt lat="40.908514515902795" lon="15.728457164364203"><ele>503.6666666666667</ele><time>2026-04-06T06:58:42Z</time></trkpt><trkpt lat="40.90868825308733" lon="15.728542903163747"><ele>505.33333333333337</ele><time>2026-04-06T06:58:43Z</time></trkpt><trkpt lat="40.908858382388004" lon="15.728627658652028"><ele>507.0</ele><time>2026-04-06T06:58:44Z</time></trkpt><trkpt lat="40.90903097164487" lon="15.728709064908966"><ele>507.0</ele><time>2026-04-06T06:58:45Z</time></trkpt><trkpt lat="40.9092055690374" lon="15.728787879900207"><ele>507.0</ele><time>2026-04-06T06:58:46Z</time></trkpt><trkpt lat="40.909376562974984" lon="15.72886811940112"><ele>507.0</ele><time>2026-04-06T06:58:47Z</time></trkpt><trkpt lat="40.90955150452583" lon="15.728951500822536"><ele>509.66666666666663</ele><time>2026-04-06T06:58:48Z</time></trkpt><trkpt lat="40.90971935070779" lon="15.729035338627899"><ele>512.3333333333333</ele><time>2026-04-06T06:58:49Z</time></trkpt><trkpt lat="40.90989135796345" lon="15.72911948523834"><ele>515.0</ele><time>2026-04-06T06:58:50Z</time></trkpt><trkpt lat="40.91005897231791" lon="15.729207450195615"><ele>515.0</ele><time>2026-04-06T06:58:51Z</time></trkpt><trkpt lat="40.91022752021688" lon="15.729302760914305"><ele>515.0</ele><time>2026-04-06T06:58:52Z</time></trkpt><trkpt lat="40.91038811015938" lon="15.729406806166761"><ele>515.0</ele><time>2026-04-06T06:58:53Z</time></trkpt><trkpt lat="40.910547059726426" lon="15.729516744731894"><ele>515.0</ele><time>2026-04-06T06:58:54Z</time></trkpt><trkpt lat="40.91070029009771" lon="15.72964242275546"><ele>515.0</ele><time>2026-04-06T06:58:55Z</time></trkpt><trkpt lat="40.91085695061889" lon="15.729772198851522"><ele>515.0</ele><time>2026-04-06T06:58:56Z</time></trkpt><trkpt lat="40.9110115851508" lon="15.729904707215999"><ele>517.0</ele><time>2026-04-06T06:58:57Z</time></trkpt><trkpt lat="40.911153311735745" lon="15.730048399433153"><ele>519.0</ele><time>2026-04-06T06:58:58Z</time></trkpt><trkpt lat="40.911300562779424" lon="15.730195715261647"><ele>521.0</ele><time>2026-04-06T06:58:59Z</time></trkpt><trkpt lat="40.91144375981263" lon="15.730342295619087"><ele>521.0</ele><time>2026-04-06T06:59:00Z</time></trkpt><trkpt lat="40.911585346059844" lon="15.730484230783238"><ele>521.0</ele><time>2026-04-06T06:59:01Z</time></trkpt><trkpt lat="40.91173276014899" lon="15.730622980899618"><ele>521.0</ele><time>2026-04-06T06:59:02Z</time></trkpt><trkpt lat="40.91187913413147" lon="15.730761757824764"><ele>524.3333333333333</ele><time>2026-04-06T06:59:03Z</time></trkpt><trkpt lat="40.912027018758785" lon="15.730899274083397"><ele>527.6666666666666</ele><time>2026-04-06T06:59:04Z</time></trkpt><trkpt lat="40.91217243884924" lon="15.731037875795506"><ele>531.0</ele><time>2026-04-06T06:59:05Z</time></trkpt><trkpt lat="40.91231308795529" lon="15.731182649976128"><ele>531.0</ele><time>2026-04-06T06:59:06Z</time></trkpt><trkpt lat="40.91244704963931" lon="15.731336906417246"><ele>531.0</ele><time>2026-04-06T06:59:07Z</time></trkpt><trkpt lat="40.912574476740815" lon="15.731500978893118"><ele>531.0</ele><time>2026-04-06T06:59:08Z</time></trkpt><trkpt lat="40.912689138547634" lon="15.731677826494373"><ele>538.6666666666666</ele><time>2026-04-06T06:59:09Z</time></trkpt><trkpt lat="40.91278899782513" lon="15.73187049330365"><ele>546.3333333333333</ele><time>2026-04-06T06:59:10Z</time></trkpt><trkpt lat="40.912869857126935" lon="15.732074495602289"><ele>554.0</ele><time>2026-04-06T06:59:11Z</time></trkpt><trkpt lat="40.9129403931537" lon="15.73228678997677"><ele>554.3333333333333</ele><time>2026-04-06T06:59:12Z</time></trkpt><trkpt lat="40.91300440334954" lon="15.732498508196063"><ele>554.6666666666666</ele><time>2026-04-06T06:59:13Z</time></trkpt><trkpt lat="40.91306136897216" lon="15.73271432585159"><ele>555.0</ele><time>2026-04-06T06:59:14Z</time></trkpt><trkpt lat="40.913114434870295" lon="15.7329279510971"><ele>555.0</ele><time>2026-04-06T06:59:15Z</time></trkpt><trkpt lat="40.9131771545821" lon="15.733137845357776"><ele>555.0</ele><time>2026-04-06T06:59:16Z</time></trkpt><trkpt lat="40.91324422872457" lon="15.733347242373862"><ele>555.0</ele><time>2026-04-06T06:59:17Z</time></trkpt><trkpt lat="40.913326269826655" lon="15.733549584318846"><ele>561.3333333333334</ele><time>2026-04-06T06:59:18Z</time></trkpt><trkpt lat="40.913412743416316" lon="15.733744652802656"><ele>567.6666666666667</ele><time>2026-04-06T06:59:19Z</time></trkpt><trkpt lat="40.913502174515166" lon="15.73393355533927"><ele>574.0</ele><time>2026-04-06T06:59:20Z</time></trkpt><trkpt lat="40.91359680388537" lon="15.734125223238049"><ele>574.0</ele><time>2026-04-06T06:59:21Z</time></trkpt><trkpt lat="40.91369279241202" lon="15.73431392345481"><ele>574.0</ele><time>2026-04-06T06:59:22Z</time></trkpt><trkpt lat="40.91378972797699" lon="15.73450384437387"><ele>574.0</ele><time>2026-04-06T06:59:23Z</time></trkpt><trkpt lat="40.91388373311241" lon="15.734691605735524"><ele>569.6666666666667</ele><time>2026-04-06T06:59:24Z</time></trkpt><trkpt lat="40.91398497163183" lon="15.734880655170121"><ele>565.3333333333334</ele><time>2026-04-06T06:59:25Z</time></trkpt><trkpt lat="40.914081213297145" lon="15.735063299660363"><ele>561.0</ele><time>2026-04-06T06:59:26Z</time></trkpt><trkpt lat="40.914185188003266" lon="15.73525167396871"><ele>569.3333333333334</ele><time>2026-04-06T06:59:27Z</time></trkpt><trkpt lat="40.91428966353097" lon="15.735440797008003"><ele>577.6666666666667</ele><time>2026-04-06T06:59:28Z</time></trkpt><trkpt lat="40.914392064829094" lon="15.735624507166877"><ele>586.0</ele><time>2026-04-06T06:59:29Z</time></trkpt><trkpt lat="40.914497569268356" lon="15.735813974691268"><ele>586.0</ele><time>2026-04-06T06:59:30Z</time></trkpt><trkpt lat="40.91459648400976" lon="15.735999367827368"><ele>586.0</ele><time>2026-04-06T06:59:31Z</time></trkpt><trkpt lat="40.914708225363285" lon="15.736184064331855"><ele>586.0</ele><time>2026-04-06T06:59:32Z</time></trkpt><trkpt lat="40.91481686884988" lon="15.736368965341034"><ele>588.6666666666667</ele><time>2026-04-06T06:59:33Z</time></trkpt><trkpt lat="40.914928301427075" lon="15.736553945217274"><ele>591.3333333333334</ele><time>2026-04-06T06:59:34Z</time></trkpt><trkpt lat="40.915051737915434" lon="15.736744992250886"><ele>594.0</ele><time>2026-04-06T06:59:35Z</time></trkpt><trkpt lat="40.915179262463965" lon="15.736935034827617"><ele>600.0</ele><time>2026-04-06T06:59:36Z</time></trkpt><trkpt lat="40.91529335333079" lon="15.73714114643663"><ele>606.0</ele><time>2026-04-06T06:59:37Z</time></trkpt><trkpt lat="40.91541274438579" lon="15.737339304978244"><ele>612.0</ele><time>2026-04-06T06:59:38Z</time></trkpt><trkpt lat="40.91553167928149" lon="15.73753670644191"><ele>612.3333333333334</ele><time>2026-04-06T06:59:39Z</time></trkpt><trkpt lat="40.91566224351286" lon="15.73775340961995"><ele>612.6666666666667</ele><time>2026-04-06T06:59:40.076Z</time></trkpt><trkpt lat="40.91578077984459" lon="15.73795228409719"><ele>613.0</ele><time>2026-04-06T06:59:41.07Z</time></trkpt><trkpt lat="40.915900947549716" lon="15.738154220688097"><ele>586.0</ele><time>2026-04-06T06:59:42.071Z</time></trkpt><trkpt lat="40.917165816846925" lon="15.740236511086744"><ele>586.0</ele><time>2026-04-06T06:59:45.61Z</time></trkpt><trkpt lat="40.91694634272999" lon="15.740898098677668"><ele>586.0</ele><time>2026-04-06T06:59:54Z</time></trkpt><trkpt lat="40.917566852743256" lon="15.74087282725892"><ele>577.3333333333334</ele><time>2026-04-06T06:59:55Z</time></trkpt><trkpt lat="40.91766938984735" lon="15.741092718117924"><ele>568.6666666666666</ele><time>2026-04-06T06:59:56Z</time></trkpt><trkpt lat="40.917777720433946" lon="15.741302412582714"><ele>560.0</ele><time>2026-04-06T06:59:57Z</time></trkpt><trkpt lat="40.917918653516516" lon="15.741508934046184"><ele>560.0</ele><time>2026-04-06T06:59:58Z</time></trkpt><trkpt lat="40.91804438567684" lon="15.7417233508905"><ele>560.0</ele><time>2026-04-06T06:59:59Z</time></trkpt><trkpt lat="40.91816055771493" lon="15.741904941468336"><ele>560.0</ele><time>2026-04-06T07:00:00Z</time></trkpt><trkpt lat="40.91829371403912" lon="15.742098853723057"><ele>566.0</ele><time>2026-04-06T07:00:01Z</time></trkpt><trkpt lat="40.91841569788077" lon="15.742266921280656"><ele>572.0</ele><time>2026-04-06T07:00:02Z</time></trkpt><trkpt lat="40.91855735226402" lon="15.742416647409518"><ele>578.0</ele><time>2026-04-06T07:00:03Z</time></trkpt><trkpt lat="40.91870289851269" lon="15.742560472704046"><ele>578.0</ele><time>2026-04-06T07:00:04Z</time></trkpt><trkpt lat="40.91885564652718" lon="15.7426939784008"><ele>578.0</ele><time>2026-04-06T07:00:05Z</time></trkpt><trkpt lat="40.91902216401968" lon="15.742822888314064"><ele>578.0</ele><time>2026-04-06T07:00:06Z</time></trkpt><trkpt lat="40.91917425132706" lon="15.742939004440782"><ele>586.0</ele><time>2026-04-06T07:00:07Z</time></trkpt><trkpt lat="40.91931875068586" lon="15.743044563022933"><ele>594.0</ele><time>2026-04-06T07:00:08Z</time></trkpt><trkpt lat="40.91949313719555" lon="15.743152545163708"><ele>602.0</ele><time>2026-04-06T07:00:09Z</time></trkpt><trkpt lat="40.91965384868891" lon="15.743237391889705"><ele>602.0</ele><time>2026-04-06T07:00:10Z</time></trkpt><trkpt lat="40.91981824379203" lon="15.743301543121074"><ele>602.0</ele><time>2026-04-06T07:00:11Z</time></trkpt><trkpt lat="40.91998996004156" lon="15.743364783478233"><ele>602.0</ele><time>2026-04-06T07:00:12Z</time></trkpt><trkpt lat="40.9201534155634" lon="15.743422103239835"><ele>601.0</ele><time>2026-04-06T07:00:13Z</time></trkpt><trkpt lat="40.92033057946169" lon="15.743473787848085"><ele>600.0</ele><time>2026-04-06T07:00:14Z</time></trkpt><trkpt lat="40.920499031153206" lon="15.743517458939923"><ele>599.0</ele><time>2026-04-06T07:00:15Z</time></trkpt><trkpt lat="40.9206698077665" lon="15.743559521715193"><ele>598.6666666666666</ele><time>2026-04-06T07:00:16Z</time></trkpt><trkpt lat="40.92084131506103" lon="15.743607624424062"><ele>598.3333333333334</ele><time>2026-04-06T07:00:17Z</time></trkpt><trkpt lat="40.92101640758151" lon="15.74366736852868"><ele>598.0</ele><time>2026-04-06T07:00:18Z</time></trkpt><trkpt lat="40.92117068104103" lon="15.7437366971489"><ele>598.0</ele><time>2026-04-06T07:00:19Z</time></trkpt><trkpt lat="40.921347932635236" lon="15.743833266871999"><ele>598.0</ele><time>2026-04-06T07:00:20Z</time></trkpt><trkpt lat="40.9215174256862" lon="15.743937624614713"><ele>598.0</ele><time>2026-04-06T07:00:21Z</time></trkpt><trkpt lat="40.92168247665075" lon="15.744053911850443"><ele>596.0</ele><time>2026-04-06T07:00:22Z</time></trkpt><trkpt lat="40.9218456826015" lon="15.744179144811651"><ele>594.0</ele><time>2026-04-06T07:00:23Z</time></trkpt><trkpt lat="40.92201204748436" lon="15.744309863447294"><ele>592.0</ele><time>2026-04-06T07:00:24Z</time></trkpt><trkpt lat="40.92217676176148" lon="15.744445923324468"><ele>594.6666666666667</ele><time>2026-04-06T07:00:25Z</time></trkpt><trkpt lat="40.922338681845105" lon="15.744583415749862"><ele>597.3333333333334</ele><time>2026-04-06T07:00:26Z</time></trkpt><trkpt lat="40.922504167571894" lon="15.744718055877243"><ele>600.0</ele><time>2026-04-06T07:00:27Z</time></trkpt><trkpt lat="40.92266418342995" lon="15.744843741475608"><ele>600.0</ele><time>2026-04-06T07:00:28Z</time></trkpt><trkpt lat="40.92284498163286" lon="15.744969528078059"><ele>600.0</ele><time>2026-04-06T07:00:29Z</time></trkpt><trkpt lat="40.92302264952366" lon="15.745083088652207"><ele>600.0</ele><time>2026-04-06T07:00:30Z</time></trkpt><trkpt lat="40.92319835098364" lon="15.745183948702172"><ele>600.0</ele><time>2026-04-06T07:00:31Z</time></trkpt><trkpt lat="40.92338413424164" lon="15.745272451798048"><ele>600.0</ele><time>2026-04-06T07:00:32Z</time></trkpt><trkpt lat="40.92357093325759" lon="15.745351020313597"><ele>600.0</ele><time>2026-04-06T07:00:33Z</time></trkpt><trkpt lat="40.92375850057907" lon="15.745413491328774"><ele>598.0</ele><time>2026-04-06T07:00:34Z</time></trkpt><trkpt lat="40.92395127681782" lon="15.74546751897249"><ele>596.0</ele><time>2026-04-06T07:00:35Z</time></trkpt><trkpt lat="40.92414352899177" lon="15.745524077952238"><ele>594.0</ele><time>2026-04-06T07:00:36Z</time></trkpt><trkpt lat="40.92433611719132" lon="15.745574549298981"><ele>593.3333333333334</ele><time>2026-04-06T07:00:37Z</time></trkpt><trkpt lat="40.92453250215706" lon="15.745621673850547"><ele>592.6666666666667</ele><time>2026-04-06T07:00:38Z</time></trkpt><trkpt lat="40.92472079766888" lon="15.745681668832033"><ele>592.0</ele><time>2026-04-06T07:00:39Z</time></trkpt><trkpt lat="40.924908921872714" lon="15.745759843311621"><ele>591.3333333333334</ele><time>2026-04-06T07:00:40Z</time></trkpt><trkpt lat="40.92509676777667" lon="15.745857912719453"><ele>590.6666666666666</ele><time>2026-04-06T07:00:41Z</time></trkpt><trkpt lat="40.92527143239162" lon="15.745972601980794"><ele>590.0</ele><time>2026-04-06T07:00:42Z</time></trkpt><trkpt lat="40.925442191269816" lon="15.746101120721264"><ele>590.0</ele><time>2026-04-06T07:00:43Z</time></trkpt><trkpt lat="40.92560500371391" lon="15.746236506365573"><ele>590.0</ele><time>2026-04-06T07:00:44Z</time></trkpt><trkpt lat="40.92576850600412" lon="15.746374391567779"><ele>590.0</ele><time>2026-04-06T07:00:45Z</time></trkpt><trkpt lat="40.92592810201758" lon="15.746510329662817"><ele>587.0</ele><time>2026-04-06T07:00:46Z</time></trkpt><trkpt lat="40.92609420240056" lon="15.746647197847201"><ele>584.0</ele><time>2026-04-06T07:00:47Z</time></trkpt><trkpt lat="40.92625206792914" lon="15.746772140436374"><ele>581.0</ele><time>2026-04-06T07:00:48Z</time></trkpt><trkpt lat="40.92641391981098" lon="15.746898717139564"><ele>581.0</ele><time>2026-04-06T07:00:49Z</time></trkpt><trkpt lat="40.92657594036951" lon="15.746994646465849"><ele>581.0</ele><time>2026-04-06T07:00:50Z</time></trkpt><trkpt lat="40.92674604477539" lon="15.747051647001127"><ele>581.0</ele><time>2026-04-06T07:00:51Z</time></trkpt><trkpt lat="40.926920973789215" lon="15.747080824150611"><ele>580.3333333333333</ele><time>2026-04-06T07:00:52Z</time></trkpt><trkpt lat="40.927102555437955" lon="15.74708650135902"><ele>579.6666666666666</ele><time>2026-04-06T07:00:53Z</time></trkpt><trkpt lat="40.927284055420635" lon="15.747076666603867"><ele>579.0</ele><time>2026-04-06T07:00:54Z</time></trkpt><trkpt lat="40.92746877274512" lon="15.747062308733152"><ele>581.3333333333334</ele><time>2026-04-06T07:00:55Z</time></trkpt><trkpt lat="40.92765645661989" lon="15.747044192688143"><ele>583.6666666666667</ele><time>2026-04-06T07:00:56Z</time></trkpt><trkpt lat="40.9278443548817" lon="15.747020858216302"><ele>586.0</ele><time>2026-04-06T07:00:57Z</time></trkpt><trkpt lat="40.928030502783116" lon="15.746985806981204"><ele>586.0</ele><time>2026-04-06T07:00:58Z</time></trkpt><trkpt lat="40.92821629555953" lon="15.746927929790445"><ele>586.0</ele><time>2026-04-06T07:00:59Z</time></trkpt><trkpt lat="40.928392277829836" lon="15.746830533585813"><ele>586.0</ele><time>2026-04-06T07:01:00Z</time></trkpt><trkpt lat="40.92855969693396" lon="15.746711789008154"><ele>581.6666666666667</ele><time>2026-04-06T07:01:01Z</time></trkpt><trkpt lat="40.928711693186514" lon="15.746558893750626"><ele>577.3333333333334</ele><time>2026-04-06T07:01:02Z</time></trkpt><trkpt lat="40.928850796166174" lon="15.746380551851319"><ele>573.0</ele><time>2026-04-06T07:01:03Z</time></trkpt><trkpt lat="40.92897112521426" lon="15.74618858964303"><ele>573.3333333333334</ele><time>2026-04-06T07:01:04Z</time></trkpt><trkpt lat="40.92907982313678" lon="15.74597844391494"><ele>573.6666666666667</ele><time>2026-04-06T07:01:05Z</time></trkpt><trkpt lat="40.92918059016238" lon="15.74577194742281"><ele>574.0</ele><time>2026-04-06T07:01:06Z</time></trkpt><trkpt lat="40.929280910975336" lon="15.74556163619798"><ele>572.6666666666667</ele><time>2026-04-06T07:01:07Z</time></trkpt><trkpt lat="40.9293963088319" lon="15.74537293684433"><ele>571.3333333333334</ele><time>2026-04-06T07:01:08Z</time></trkpt><trkpt lat="40.92950107970719" lon="15.745172564456306"><ele>570.0</ele><time>2026-04-06T07:01:09Z</time></trkpt><trkpt lat="40.929604170589926" lon="15.744975403034994"><ele>570.0</ele><time>2026-04-06T07:01:10Z</time></trkpt><trkpt lat="40.92970793018751" lon="15.74478069729837"><ele>570.0</ele><time>2026-04-06T07:01:11Z</time></trkpt><trkpt lat="40.92981510497752" lon="15.744596006743889"><ele>570.0</ele><time>2026-04-06T07:01:12Z</time></trkpt><trkpt lat="40.929933220889154" lon="15.744427334681463"><ele>572.6666666666666</ele><time>2026-04-06T07:01:13Z</time></trkpt><trkpt lat="40.93004633831354" lon="15.744262991399248"><ele>575.3333333333333</ele><time>2026-04-06T07:01:14Z</time></trkpt><trkpt lat="40.930177931518685" lon="15.744135654993993"><ele>578.0</ele><time>2026-04-06T07:01:15Z</time></trkpt><trkpt lat="40.93032096302995" lon="15.744032729086276"><ele>572.0</ele><time>2026-04-06T07:01:16Z</time></trkpt><trkpt lat="40.93047305284368" lon="15.743939842606645"><ele>566.0</ele><time>2026-04-06T07:01:17Z</time></trkpt><trkpt lat="40.930629659464444" lon="15.743881225221426"><ele>560.0</ele><time>2026-04-06T07:01:18Z</time></trkpt><trkpt lat="40.93079708079226" lon="15.743850479010534"><ele>561.6666666666666</ele><time>2026-04-06T07:01:19Z</time></trkpt><trkpt lat="40.93097078858258" lon="15.743852002547111"><ele>563.3333333333334</ele><time>2026-04-06T07:01:20Z</time></trkpt><trkpt lat="40.931143924879585" lon="15.743877131710303"><ele>565.0</ele><time>2026-04-06T07:01:21Z</time></trkpt><trkpt lat="40.93131507970804" lon="15.743932977167916"><ele>565.0</ele><time>2026-04-06T07:01:22Z</time></trkpt><trkpt lat="40.931483271643096" lon="15.744017815766727"><ele>565.0</ele><time>2026-04-06T07:01:23Z</time></trkpt><trkpt lat="40.931641989927385" lon="15.744135260289976"><ele>565.0</ele><time>2026-04-06T07:01:24Z</time></trkpt><trkpt lat="40.93178796374601" lon="15.744278423062186"><ele>565.3333333333334</ele><time>2026-04-06T07:01:25Z</time></trkpt><trkpt lat="40.93191975570407" lon="15.744443937586125"><ele>565.6666666666666</ele><time>2026-04-06T07:01:26Z</time></trkpt><trkpt lat="40.932036174293614" lon="15.744628418401666"><ele>566.0</ele><time>2026-04-06T07:01:27Z</time></trkpt><trkpt lat="40.93213477056811" lon="15.744836131344954"><ele>566.0</ele><time>2026-04-06T07:01:28Z</time></trkpt><trkpt lat="40.932223794501525" lon="15.745056845212394"><ele>566.0</ele><time>2026-04-06T07:01:29Z</time></trkpt><trkpt lat="40.93231462595374" lon="15.745286723602705"><ele>566.0</ele><time>2026-04-06T07:01:30Z</time></trkpt><trkpt lat="40.93240537803657" lon="15.745513683433861"><ele>565.6666666666666</ele><time>2026-04-06T07:01:31Z</time></trkpt><trkpt lat="40.93250057947706" lon="15.745751136829904"><ele>565.3333333333334</ele><time>2026-04-06T07:01:32Z</time></trkpt><trkpt lat="40.93259384866032" lon="15.745986368754174"><ele>565.0</ele><time>2026-04-06T07:01:33Z</time></trkpt><trkpt lat="40.932690078492975" lon="15.746222445933126"><ele>562.6666666666667</ele><time>2026-04-06T07:01:34Z</time></trkpt><trkpt lat="40.93278290759924" lon="15.746465328117479"><ele>560.3333333333334</ele><time>2026-04-06T07:01:35Z</time></trkpt><trkpt lat="40.93286683625578" lon="15.74670649036426"><ele>558.0</ele><time>2026-04-06T07:01:36Z</time></trkpt><trkpt lat="40.932936405961556" lon="15.746948379686485"><ele>555.6666666666666</ele><time>2026-04-06T07:01:37Z</time></trkpt><trkpt lat="40.932986922194544" lon="15.747200602466046"><ele>553.3333333333333</ele><time>2026-04-06T07:01:38Z</time></trkpt><trkpt lat="40.933028301797705" lon="15.7474583134113"><ele>551.0</ele><time>2026-04-06T07:01:39Z</time></trkpt><trkpt lat="40.933058297306864" lon="15.747719310277791"><ele>548.0</ele><time>2026-04-06T07:01:40Z</time></trkpt><trkpt lat="40.93308081771933" lon="15.747979272370523"><ele>545.0</ele><time>2026-04-06T07:01:41Z</time></trkpt><trkpt lat="40.93309845309919" lon="15.748242474650109"><ele>542.0</ele><time>2026-04-06T07:01:42Z</time></trkpt><trkpt lat="40.93311218658741" lon="15.74850445872683"><ele>538.3333333333333</ele><time>2026-04-06T07:01:43Z</time></trkpt><trkpt lat="40.93312885379012" lon="15.74877227937903"><ele>534.6666666666666</ele><time>2026-04-06T07:01:44Z</time></trkpt><trkpt lat="40.93314995163707" lon="15.749032588272788"><ele>531.0</ele><time>2026-04-06T07:01:45Z</time></trkpt><trkpt lat="40.933173044107704" lon="15.749298603507224"><ele>527.6666666666666</ele><time>2026-04-06T07:01:46Z</time></trkpt><trkpt lat="40.93319414352724" lon="15.74955873569885"><ele>524.3333333333333</ele><time>2026-04-06T07:01:47Z</time></trkpt><trkpt lat="40.93321332277082" lon="15.749811721276894"><ele>521.0</ele><time>2026-04-06T07:01:48Z</time></trkpt><trkpt lat="40.933243528960126" lon="15.750064133547848"><ele>520.3333333333333</ele><time>2026-04-06T07:01:49Z</time></trkpt><trkpt lat="40.93328000936173" lon="15.750304759001157"><ele>519.6666666666666</ele><time>2026-04-06T07:01:50Z</time></trkpt><trkpt lat="40.93334151314576" lon="15.750526279704145"><ele>519.0</ele><time>2026-04-06T07:01:51Z</time></trkpt><trkpt lat="40.93341370221572" lon="15.750753805700306"><ele>519.0</ele><time>2026-04-06T07:01:52Z</time></trkpt><trkpt lat="40.93350155227013" lon="15.750961077383757"><ele>519.0</ele><time>2026-04-06T07:01:53Z</time></trkpt><trkpt lat="40.93361282250312" lon="15.751155615720654"><ele>519.0</ele><time>2026-04-06T07:01:54Z</time></trkpt><trkpt lat="40.93373895133765" lon="15.751330609761931"><ele>519.0</ele><time>2026-04-06T07:01:55Z</time></trkpt><trkpt lat="40.93387933454125" lon="15.751479194410225"><ele>519.0</ele><time>2026-04-06T07:01:56Z</time></trkpt><trkpt lat="40.934031860002015" lon="15.751605523711502"><ele>519.0</ele><time>2026-04-06T07:01:57Z</time></trkpt><trkpt lat="40.934198108120505" lon="15.751705967765565"><ele>518.0</ele><time>2026-04-06T07:01:58Z</time></trkpt><trkpt lat="40.93437554811084" lon="15.751792001536712"><ele>517.0</ele><time>2026-04-06T07:01:59Z</time></trkpt><trkpt lat="40.93456135192293" lon="15.751855108976601"><ele>516.0</ele><time>2026-04-06T07:02:00Z</time></trkpt><trkpt lat="40.93475131301426" lon="15.751903935010473"><ele>513.6666666666666</ele><time>2026-04-06T07:02:01Z</time></trkpt><trkpt lat="40.93494220458933" lon="15.751949776933678"><ele>511.3333333333333</ele><time>2026-04-06T07:02:02Z</time></trkpt><trkpt lat="40.93513783489043" lon="15.75199592407456"><ele>509.0</ele><time>2026-04-06T07:02:03Z</time></trkpt><trkpt lat="40.935331179436666" lon="15.752032992029605"><ele>507.66666666666663</ele><time>2026-04-06T07:02:04Z</time></trkpt><trkpt lat="40.9355263449205" lon="15.75207235671755"><ele>506.33333333333337</ele><time>2026-04-06T07:02:05Z</time></trkpt><trkpt lat="40.935722430841686" lon="15.752120616834468"><ele>505.0</ele><time>2026-04-06T07:02:06Z</time></trkpt><trkpt lat="40.935910725658324" lon="15.752169227006542"><ele>505.0</ele><time>2026-04-06T07:02:07Z</time></trkpt><trkpt lat="40.936099416046915" lon="15.752214773688976"><ele>505.0</ele><time>2026-04-06T07:02:08Z</time></trkpt><trkpt lat="40.93628620382478" lon="15.752263395487892"><ele>505.0</ele><time>2026-04-06T07:02:09Z</time></trkpt><trkpt lat="40.936469573526736" lon="15.75232849969015"><ele>505.0</ele><time>2026-04-06T07:02:10Z</time></trkpt><trkpt lat="40.936649509305994" lon="15.752413991324879"><ele>505.0</ele><time>2026-04-06T07:02:11Z</time></trkpt><trkpt lat="40.93681710887567" lon="15.7525159626649"><ele>505.0</ele><time>2026-04-06T07:02:12Z</time></trkpt><trkpt lat="40.93697625558772" lon="15.752638169153636"><ele>503.33333333333337</ele><time>2026-04-06T07:02:13Z</time></trkpt><trkpt lat="40.93712239866755" lon="15.752786440739733"><ele>501.66666666666663</ele><time>2026-04-06T07:02:14Z</time></trkpt><trkpt lat="40.93725232050199" lon="15.752954720523844"><ele>500.0</ele><time>2026-04-06T07:02:15Z</time></trkpt><trkpt lat="40.93736278466964" lon="15.753148810545946"><ele>500.0</ele><time>2026-04-06T07:02:16Z</time></trkpt><trkpt lat="40.93746148641323" lon="15.753360677443187"><ele>500.0</ele><time>2026-04-06T07:02:17Z</time></trkpt><trkpt lat="40.93755000741416" lon="15.753578424410428"><ele>500.0</ele><time>2026-04-06T07:02:18Z</time></trkpt><trkpt lat="40.9376391560153" lon="15.753807016221623"><ele>499.3333333333333</ele><time>2026-04-06T07:02:19Z</time></trkpt><trkpt lat="40.93772432628349" lon="15.75402829081165"><ele>498.66666666666663</ele><time>2026-04-06T07:02:20Z</time></trkpt><trkpt lat="40.937809691022466" lon="15.754254370784649"><ele>498.0</ele><time>2026-04-06T07:02:21Z</time></trkpt><trkpt lat="40.93789291623173" lon="15.75447919057551"><ele>494.66666666666663</ele><time>2026-04-06T07:02:22Z</time></trkpt><trkpt lat="40.93796337601212" lon="15.754684719822716"><ele>491.3333333333333</ele><time>2026-04-06T07:02:23Z</time></trkpt><trkpt lat="40.93802954167437" lon="15.754871438608612"><ele>488.0</ele><time>2026-04-06T07:02:24Z</time></trkpt><trkpt lat="40.93808267612016" lon="15.75503304860709"><ele>488.0</ele><time>2026-04-06T07:02:25Z</time></trkpt><trkpt lat="40.93811773126903" lon="15.755174042381821"><ele>487.99999999999994</ele><time>2026-04-06T07:02:26Z</time></trkpt><trkpt lat="40.93812915678674" lon="15.755300015657435"><ele>487.99999999999994</ele><time>2026-04-06T07:02:27Z</time></trkpt><trkpt lat="40.9381229708889" lon="15.75543073561149"><ele>488.0</ele><time>2026-04-06T07:02:28Z</time></trkpt><trkpt lat="40.938126118360735" lon="15.755558299542479"><ele>488.0</ele><time>2026-04-06T07:02:29Z</time></trkpt><trkpt lat="40.93815542073061" lon="15.75567635860786"><ele>486.75</ele><time>2026-04-06T07:02:30Z</time></trkpt><trkpt lat="40.938236573219086" lon="15.755767492311309"><ele>485.5</ele><time>2026-04-06T07:02:31Z</time></trkpt><trkpt lat="40.93831357664228" lon="15.75585196699118"><ele>484.25</ele><time>2026-04-06T07:02:32Z</time></trkpt><trkpt lat="40.938399101336515" lon="15.755960790904497"><ele>483.0</ele><time>2026-04-06T07:02:33Z</time></trkpt><trkpt lat="40.93847330545234" lon="15.756105665650963"><ele>480.66666666666663</ele><time>2026-04-06T07:02:34Z</time></trkpt><trkpt lat="40.938537108508186" lon="15.756275121237207"><ele>478.3333333333333</ele><time>2026-04-06T07:02:35Z</time></trkpt><trkpt lat="40.93860101239396" lon="15.756465089752142"><ele>476.0</ele><time>2026-04-06T07:02:36Z</time></trkpt><trkpt lat="40.93867348283046" lon="15.75666001875135"><ele>476.0</ele><time>2026-04-06T07:02:37Z</time></trkpt><trkpt lat="40.93875692060132" lon="15.75686661569193"><ele>476.0</ele><time>2026-04-06T07:02:38Z</time></trkpt><trkpt lat="40.938846787801324" lon="15.757079216851494"><ele>476.0</ele><time>2026-04-06T07:02:39Z</time></trkpt><trkpt lat="40.93895200769725" lon="15.757291037648658"><ele>473.66666666666663</ele><time>2026-04-06T07:02:40Z</time></trkpt><trkpt lat="40.939070223722865" lon="15.75749733677052"><ele>471.33333333333337</ele><time>2026-04-06T07:02:41Z</time></trkpt><trkpt lat="40.93919471145666" lon="15.75769734124658"><ele>469.0</ele><time>2026-04-06T07:02:42Z</time></trkpt><trkpt lat="40.93931772952943" lon="15.757906755647776"><ele>468.6666666666667</ele><time>2026-04-06T07:02:43Z</time></trkpt><trkpt lat="40.93944221557964" lon="15.75812014327932"><ele>468.33333333333337</ele><time>2026-04-06T07:02:44Z</time></trkpt><trkpt lat="40.93957110770798" lon="15.758338936294242"><ele>468.0</ele><time>2026-04-06T07:02:45Z</time></trkpt><trkpt lat="40.93969909615999" lon="15.758559244422493"><ele>468.0</ele><time>2026-04-06T07:02:46Z</time></trkpt><trkpt lat="40.939829876164374" lon="15.75878001639643"><ele>468.0</ele><time>2026-04-06T07:02:47Z</time></trkpt><trkpt lat="40.939961513705214" lon="15.758998559823873"><ele>468.0</ele><time>2026-04-06T07:02:48Z</time></trkpt><trkpt lat="40.94009153688374" lon="15.759216886450579"><ele>463.33333333333337</ele><time>2026-04-06T07:02:49Z</time></trkpt><trkpt lat="40.940220365284574" lon="15.759437492840252"><ele>458.6666666666667</ele><time>2026-04-06T07:02:50Z</time></trkpt><trkpt lat="40.940352416782396" lon="15.759661889614263"><ele>454.0</ele><time>2026-04-06T07:02:51Z</time></trkpt><trkpt lat="40.94048661151037" lon="15.759887654548978"><ele>454.0</ele><time>2026-04-06T07:02:52Z</time></trkpt><trkpt lat="40.940620685485094" lon="15.760114004373744"><ele>454.0</ele><time>2026-04-06T07:02:53Z</time></trkpt><trkpt lat="40.94075731735514" lon="15.760344552865341"><ele>454.0</ele><time>2026-04-06T07:02:54Z</time></trkpt><trkpt lat="40.94088563824165" lon="15.760563808310902"><ele>450.0</ele><time>2026-04-06T07:02:55Z</time></trkpt><trkpt lat="40.9410137649372" lon="15.76078742152771"><ele>446.0</ele><time>2026-04-06T07:02:56Z</time></trkpt><trkpt lat="40.94114006468412" lon="15.761001747935808"><ele>442.0</ele><time>2026-04-06T07:02:57Z</time></trkpt><trkpt lat="40.94126679428838" lon="15.76122299448084"><ele>442.0</ele><time>2026-04-06T07:02:58Z</time></trkpt><trkpt lat="40.94138972798054" lon="15.761441971976284"><ele>442.0</ele><time>2026-04-06T07:02:59Z</time></trkpt><trkpt lat="40.94150969633274" lon="15.761664039920753"><ele>442.0</ele><time>2026-04-06T07:03:00Z</time></trkpt><trkpt lat="40.9416210566356" lon="15.76189020921534"><ele>442.33333333333337</ele><time>2026-04-06T07:03:01Z</time></trkpt><trkpt lat="40.9417243460378" lon="15.762125838426941"><ele>442.66666666666663</ele><time>2026-04-06T07:03:02Z</time></trkpt><trkpt lat="40.94181588224636" lon="15.762356962937519"><ele>443.0</ele><time>2026-04-06T07:03:03Z</time></trkpt><trkpt lat="40.94190194660483" lon="15.76260124696566"><ele>446.0</ele><time>2026-04-06T07:03:04Z</time></trkpt><trkpt lat="40.94197928408303" lon="15.762835057551731"><ele>449.0</ele><time>2026-04-06T07:03:05Z</time></trkpt><trkpt lat="40.94205196172249" lon="15.763080645019103"><ele>452.0</ele><time>2026-04-06T07:03:06Z</time></trkpt><trkpt lat="40.942109626440946" lon="15.76333187296341"><ele>454.0</ele><time>2026-04-06T07:03:07Z</time></trkpt><trkpt lat="40.94215733593153" lon="15.763582767543094"><ele>456.0</ele><time>2026-04-06T07:03:08Z</time></trkpt><trkpt lat="40.94220247312994" lon="15.763837773003575"><ele>458.0</ele><time>2026-04-06T07:03:09Z</time></trkpt><trkpt lat="40.94224946668509" lon="15.764088533038906"><ele>458.0</ele><time>2026-04-06T07:03:10Z</time></trkpt><trkpt lat="40.94229910372362" lon="15.764339752559179"><ele>458.0</ele><time>2026-04-06T07:03:11Z</time></trkpt><trkpt lat="40.942339969031465" lon="15.76457940963073"><ele>458.0</ele><time>2026-04-06T07:03:12Z</time></trkpt><trkpt lat="40.94237820817247" lon="15.76482955136558"><ele>459.3333333333333</ele><time>2026-04-06T07:03:13Z</time></trkpt><trkpt lat="40.942423225386925" lon="15.765063971278781"><ele>460.66666666666663</ele><time>2026-04-06T07:03:14Z</time></trkpt><trkpt lat="40.942465523131226" lon="15.76530877747945"><ele>462.0</ele><time>2026-04-06T07:03:15Z</time></trkpt><trkpt lat="40.94250215236443" lon="15.765544420652084"><ele>461.66666666666663</ele><time>2026-04-06T07:03:16Z</time></trkpt><trkpt lat="40.94254040464571" lon="15.76578515210169"><ele>461.3333333333333</ele><time>2026-04-06T07:03:17Z</time></trkpt><trkpt lat="40.94257989066872" lon="15.766019251549762"><ele>461.0</ele><time>2026-04-06T07:03:18Z</time></trkpt><trkpt lat="40.94261625460504" lon="15.76625473852784"><ele>461.0</ele><time>2026-04-06T07:03:19Z</time></trkpt><trkpt lat="40.94265184210746" lon="15.766479717267293"><ele>461.0</ele><time>2026-04-06T07:03:20Z</time></trkpt><trkpt lat="40.942685998227944" lon="15.766683195721145"><ele>461.0</ele><time>2026-04-06T07:03:21Z</time></trkpt><trkpt lat="40.9427248773486" lon="15.76686196867442"><ele>461.6</ele><time>2026-04-06T07:03:22Z</time></trkpt><trkpt lat="40.94276138289296" lon="15.767021928651909"><ele>462.20000000000005</ele><time>2026-04-06T07:03:23Z</time></trkpt><trkpt lat="40.942784850550694" lon="15.767174337152143"><ele>462.79999999999995</ele><time>2026-04-06T07:03:24Z</time></trkpt><trkpt lat="40.94278739127249" lon="15.767312704037442"><ele>463.4</ele><time>2026-04-06T07:03:25Z</time></trkpt><trkpt lat="40.942777383009215" lon="15.76743788865535"><ele>464.0</ele><time>2026-04-06T07:03:26Z</time></trkpt><trkpt lat="40.94278867770157" lon="15.767557886900935"><ele>464.0</ele><time>2026-04-06T07:03:27Z</time></trkpt><trkpt lat="40.94283360027791" lon="15.767655456393568"><ele>464.0</ele><time>2026-04-06T07:03:28Z</time></trkpt><trkpt lat="40.94290348786225" lon="15.767716815484992"><ele>464.0</ele><time>2026-04-06T07:03:29Z</time></trkpt><trkpt lat="40.94299657145163" lon="15.76772888844056"><ele>464.0</ele><time>2026-04-06T07:03:30Z</time></trkpt><trkpt lat="40.94308229701033" lon="15.767697324105566"><ele>464.0</ele><time>2026-04-06T07:03:31Z</time></trkpt><trkpt lat="40.943179401259414" lon="15.767830785196956"><ele>464.75</ele><time>2026-04-06T07:03:32Z</time></trkpt><trkpt lat="40.94326791508228" lon="15.7679421571018"><ele>465.5</ele><time>2026-04-06T07:03:33Z</time></trkpt><trkpt lat="40.94336205632628" lon="15.768065079177234"><ele>466.25</ele><time>2026-04-06T07:03:34Z</time></trkpt><trkpt lat="40.94347190754598" lon="15.768194667561216"><ele>467.0</ele><time>2026-04-06T07:03:35Z</time></trkpt><trkpt lat="40.94358373440281" lon="15.768326935440836"><ele>467.0</ele><time>2026-04-06T07:03:36Z</time></trkpt><trkpt lat="40.94370060638695" lon="15.76846491788256"><ele>467.0</ele><time>2026-04-06T07:03:37Z</time></trkpt><trkpt lat="40.943821938548375" lon="15.768607519812052"><ele>467.0</ele><time>2026-04-06T07:03:38Z</time></trkpt><trkpt lat="40.94393616843619" lon="15.768757857252055"><ele>469.66666666666663</ele><time>2026-04-06T07:03:39Z</time></trkpt><trkpt lat="40.94404380748733" lon="15.768926539815652"><ele>472.33333333333337</ele><time>2026-04-06T07:03:40Z</time></trkpt><trkpt lat="40.944137584516575" lon="15.769126635213095"><ele>475.0</ele><time>2026-04-06T07:03:41Z</time></trkpt><trkpt lat="40.94420867710594" lon="15.769336194045898"><ele>472.33333333333337</ele><time>2026-04-06T07:03:42Z</time></trkpt><trkpt lat="40.94426723475979" lon="15.76955954455771"><ele>469.66666666666663</ele><time>2026-04-06T07:03:43Z</time></trkpt><trkpt lat="40.944314871960486" lon="15.769787248864853"><ele>467.0</ele><time>2026-04-06T07:03:44Z</time></trkpt><trkpt lat="40.94435729528907" lon="15.770007111751509"><ele>469.3333333333333</ele><time>2026-04-06T07:03:45Z</time></trkpt><trkpt lat="40.944408658449674" lon="15.770235085213354"><ele>471.66666666666663</ele><time>2026-04-06T07:03:46Z</time></trkpt><trkpt lat="40.944473750245336" lon="15.770452336907505"><ele>474.0</ele><time>2026-04-06T07:03:47Z</time></trkpt><trkpt lat="40.944559007241246" lon="15.770658296617079"><ele>474.0</ele><time>2026-04-06T07:03:48Z</time></trkpt><trkpt lat="40.94466317415462" lon="15.770844100349938"><ele>474.0</ele><time>2026-04-06T07:03:49Z</time></trkpt><trkpt lat="40.944791076721074" lon="15.771011522461587"><ele>474.0</ele><time>2026-04-06T07:03:50Z</time></trkpt><trkpt lat="40.94493721481057" lon="15.771146762644445"><ele>477.66666666666663</ele><time>2026-04-06T07:03:51Z</time></trkpt><trkpt lat="40.94509846427797" lon="15.771258874115746"><ele>481.3333333333333</ele><time>2026-04-06T07:03:52Z</time></trkpt><trkpt lat="40.945265646962746" lon="15.77135058043394"><ele>485.0</ele><time>2026-04-06T07:03:53Z</time></trkpt><trkpt lat="40.94543740900099" lon="15.771429802308976"><ele>485.0</ele><time>2026-04-06T07:03:54Z</time></trkpt><trkpt lat="40.94561560965519" lon="15.771511021925116"><ele>485.0</ele><time>2026-04-06T07:03:55Z</time></trkpt><trkpt lat="40.94578931353234" lon="15.771595472036967"><ele>485.0</ele><time>2026-04-06T07:03:56Z</time></trkpt><trkpt lat="40.94596103872354" lon="15.771689935768983"><ele>484.66666666666663</ele><time>2026-04-06T07:03:57Z</time></trkpt><trkpt lat="40.946128355056196" lon="15.771781989986424"><ele>484.33333333333337</ele><time>2026-04-06T07:03:58Z</time></trkpt><trkpt lat="40.94630292023109" lon="15.77187149540531"><ele>484.0</ele><time>2026-04-06T07:03:59Z</time></trkpt><trkpt lat="40.94647031569387" lon="15.77197063887693"><ele>482.33333333333337</ele><time>2026-04-06T07:04:00Z</time></trkpt><trkpt lat="40.94662866552097" lon="15.772095288670922"><ele>480.66666666666663</ele><time>2026-04-06T07:04:01Z</time></trkpt><trkpt lat="40.94677941582402" lon="15.772241101576709"><ele>479.0</ele><time>2026-04-06T07:04:02Z</time></trkpt><trkpt lat="40.9469113983971" lon="15.772403608780284"><ele>479.0</ele><time>2026-04-06T07:04:03Z</time></trkpt><trkpt lat="40.94703162560532" lon="15.772585562766881"><ele>479.0</ele><time>2026-04-06T07:04:04Z</time></trkpt><trkpt lat="40.94713530340629" lon="15.772791284600999"><ele>479.0</ele><time>2026-04-06T07:04:05Z</time></trkpt><trkpt lat="40.9472133311362" lon="15.773005417431952"><ele>481.66666666666663</ele><time>2026-04-06T07:04:06Z</time></trkpt><trkpt lat="40.947273042410416" lon="15.77323764354561"><ele>484.33333333333337</ele><time>2026-04-06T07:04:07Z</time></trkpt><trkpt lat="40.94731829004612" lon="15.773481522349874"><ele>487.0</ele><time>2026-04-06T07:04:08Z</time></trkpt><trkpt lat="40.947347634494044" lon="15.773720463384004"><ele>487.33333333333337</ele><time>2026-04-06T07:04:09Z</time></trkpt><trkpt lat="40.94736842415851" lon="15.77393767926256"><ele>487.66666666666663</ele><time>2026-04-06T07:04:10Z</time></trkpt><trkpt lat="40.947384766978736" lon="15.77414217510283"><ele>488.0</ele><time>2026-04-06T07:04:11Z</time></trkpt><trkpt lat="40.94739411025561" lon="15.774322844211214"><ele>489.0</ele><time>2026-04-06T07:04:12Z</time></trkpt><trkpt lat="40.947390636252415" lon="15.774482387255988"><ele>489.99999999999994</ele><time>2026-04-06T07:04:13Z</time></trkpt><trkpt lat="40.94736561918939" lon="15.774629240022719"><ele>490.99999999999994</ele><time>2026-04-06T07:04:14Z</time></trkpt><trkpt lat="40.947321239485824" lon="15.774763787730512"><ele>492.0</ele><time>2026-04-06T07:04:15Z</time></trkpt><trkpt lat="40.94728187383499" lon="15.77486539698904"><ele>493.0</ele><time>2026-04-06T07:04:16Z</time></trkpt><trkpt lat="40.947282737191856" lon="15.7749740384491"><ele>493.0</ele><time>2026-04-06T07:04:17Z</time></trkpt><trkpt lat="40.94732608560678" lon="15.775055527115509"><ele>492.99999999999994</ele><time>2026-04-06T07:04:18Z</time></trkpt><trkpt lat="40.94739505913726" lon="15.775108306248908"><ele>492.99999999999994</ele><time>2026-04-06T07:04:19Z</time></trkpt><trkpt lat="40.94747895910735" lon="15.775152854526352"><ele>493.0</ele><time>2026-04-06T07:04:20Z</time></trkpt><trkpt lat="40.94756478285933" lon="15.77522855143775"><ele>493.0</ele><time>2026-04-06T07:04:21Z</time></trkpt><trkpt lat="40.947637227674164" lon="15.775355453953063"><ele>493.0</ele><time>2026-04-06T07:04:22Z</time></trkpt><trkpt lat="40.9476957418015" lon="15.775512918783507"><ele>493.0</ele><time>2026-04-06T07:04:23Z</time></trkpt><trkpt lat="40.94774213953639" lon="15.77569026693346"><ele>493.0</ele><time>2026-04-06T07:04:24Z</time></trkpt><trkpt lat="40.94778324415713" lon="15.775877857768826"><ele>493.0</ele><time>2026-04-06T07:04:25Z</time></trkpt><trkpt lat="40.94783567137232" lon="15.776067881987103"><ele>493.0</ele><time>2026-04-06T07:04:26Z</time></trkpt><trkpt lat="40.94789200544395" lon="15.776269713970702"><ele>493.0</ele><time>2026-04-06T07:04:27Z</time></trkpt><trkpt lat="40.94794507399847" lon="15.776477391314366"><ele>493.0</ele><time>2026-04-06T07:04:28Z</time></trkpt><trkpt lat="40.9479989931319" lon="15.7766859119553"><ele>495.6666666666667</ele><time>2026-04-06T07:04:29Z</time></trkpt><trkpt lat="40.94805877748683" lon="15.776898802733669"><ele>498.33333333333337</ele><time>2026-04-06T07:04:30Z</time></trkpt><trkpt lat="40.94812019119931" lon="15.777116205459876"><ele>501.0</ele><time>2026-04-06T07:04:31Z</time></trkpt><trkpt lat="40.94818145163557" lon="15.777337956950557"><ele>501.0</ele><time>2026-04-06T07:04:32Z</time></trkpt><trkpt lat="40.94824032486453" lon="15.777561213675332"><ele>501.0</ele><time>2026-04-06T07:04:33Z</time></trkpt><trkpt lat="40.94830364151616" lon="15.777784769120048"><ele>501.0</ele><time>2026-04-06T07:04:34Z</time></trkpt><trkpt lat="40.94836444200911" lon="15.778012671446014"><ele>501.66666666666663</ele><time>2026-04-06T07:04:35Z</time></trkpt><trkpt lat="40.94842683993437" lon="15.778238242524536"><ele>502.3333333333333</ele><time>2026-04-06T07:04:36Z</time></trkpt><trkpt lat="40.94849484357269" lon="15.778465892729237"><ele>503.0</ele><time>2026-04-06T07:04:37Z</time></trkpt><trkpt lat="40.948567387810535" lon="15.778691511013887"><ele>503.0</ele><time>2026-04-06T07:04:38Z</time></trkpt><trkpt lat="40.94864834464339" lon="15.778911834591115"><ele>503.0</ele><time>2026-04-06T07:04:39Z</time></trkpt><trkpt lat="40.948744282366945" lon="15.779124724625726"><ele>503.0</ele><time>2026-04-06T07:04:40Z</time></trkpt><trkpt lat="40.94885648055915" lon="15.779327871605444"><ele>504.3333333333333</ele><time>2026-04-06T07:04:41Z</time></trkpt><trkpt lat="40.94897717400911" lon="15.779511057371566"><ele>505.66666666666663</ele><time>2026-04-06T07:04:42Z</time></trkpt><trkpt lat="40.9491049612476" lon="15.779680983579135"><ele>507.0</ele><time>2026-04-06T07:04:43Z</time></trkpt><trkpt lat="40.9492384571544" lon="15.779843530126703"><ele>507.0</ele><time>2026-04-06T07:04:44Z</time></trkpt><trkpt lat="40.949371714116154" lon="15.780004070106951"><ele>507.0</ele><time>2026-04-06T07:04:45Z</time></trkpt><trkpt lat="40.94950505887347" lon="15.780167425458083"><ele>507.0</ele><time>2026-04-06T07:04:46Z</time></trkpt><trkpt lat="40.94963239704432" lon="15.780335244610114"><ele>508.33333333333337</ele><time>2026-04-06T07:04:47Z</time></trkpt><trkpt lat="40.94976166415036" lon="15.780504937837067"><ele>509.6666666666667</ele><time>2026-04-06T07:04:48Z</time></trkpt><trkpt lat="40.94989568307464" lon="15.780671485614231"><ele>511.0</ele><time>2026-04-06T07:04:49Z</time></trkpt><trkpt lat="40.950029084402594" lon="15.780833414458504"><ele>511.0</ele><time>2026-04-06T07:04:50Z</time></trkpt><trkpt lat="40.95016981695862" lon="15.781006378696166"><ele>511.0</ele><time>2026-04-06T07:04:51Z</time></trkpt><trkpt lat="40.95029526716985" lon="15.781162910594043"><ele>511.0</ele><time>2026-04-06T07:04:52Z</time></trkpt><trkpt lat="40.950412916828206" lon="15.781309768786832"><ele>511.0</ele><time>2026-04-06T07:04:53Z</time></trkpt><trkpt lat="40.9505152219269" lon="15.781436920323333"><ele>511.0</ele><time>2026-04-06T07:04:54Z</time></trkpt><trkpt lat="40.950595633719935" lon="15.781549269101598"><ele>511.0</ele><time>2026-04-06T07:04:55Z</time></trkpt><trkpt lat="40.95065800103453" lon="15.781661968842947"><ele>511.0</ele><time>2026-04-06T07:04:56Z</time></trkpt><trkpt lat="40.95069462413219" lon="15.781792733302053"><ele>511.5</ele><time>2026-04-06T07:04:57Z</time></trkpt><trkpt lat="40.950711907251645" lon="15.781937409813013"><ele>512.0</ele><time>2026-04-06T07:04:58Z</time></trkpt><trkpt lat="40.95073167909358" lon="15.78209368616783"><ele>512.5</ele><time>2026-04-06T07:04:59Z</time></trkpt><trkpt lat="40.950778958873975" lon="15.782254939135267"><ele>513.0</ele><time>2026-04-06T07:05:00Z</time></trkpt><trkpt lat="40.95084780207205" lon="15.782418688204658"><ele>512.0</ele><time>2026-04-06T07:05:01Z</time></trkpt><trkpt lat="40.95092798738761" lon="15.782588038567965"><ele>511.0</ele><time>2026-04-06T07:05:02Z</time></trkpt><trkpt lat="40.95101313795795" lon="15.782765295035102"><ele>510.0</ele><time>2026-04-06T07:05:03Z</time></trkpt><trkpt lat="40.95109611301342" lon="15.78294888724237"><ele>508.0</ele><time>2026-04-06T07:05:04Z</time></trkpt><trkpt lat="40.951184099676254" lon="15.783139640191466"><ele>506.0</ele><time>2026-04-06T07:05:05Z</time></trkpt><trkpt lat="40.95127461103605" lon="15.783333552323764"><ele>504.0</ele><time>2026-04-06T07:05:06Z</time></trkpt><trkpt lat="40.95136461984733" lon="15.783534483469982"><ele>503.33333333333337</ele><time>2026-04-06T07:05:07Z</time></trkpt><trkpt lat="40.951452557840774" lon="15.783731054027779"><ele>502.6666666666667</ele><time>2026-04-06T07:05:08Z</time></trkpt><trkpt lat="40.951540341486165" lon="15.78392665264307"><ele>502.0</ele><time>2026-04-06T07:05:09Z</time></trkpt><trkpt lat="40.95162837479417" lon="15.784120941313507"><ele>501.6666666666667</ele><time>2026-04-06T07:05:10Z</time></trkpt><trkpt lat="40.951720261771484" lon="15.784322530964658"><ele>501.33333333333337</ele><time>2026-04-06T07:05:11Z</time></trkpt><trkpt lat="40.95180973119929" lon="15.784513470177604"><ele>501.0</ele><time>2026-04-06T07:05:12Z</time></trkpt><trkpt lat="40.951899995914026" lon="15.784701855513266"><ele>500.33333333333337</ele><time>2026-04-06T07:05:13Z</time></trkpt><trkpt lat="40.95198689361356" lon="15.784891338792589"><ele>499.6666666666667</ele><time>2026-04-06T07:05:14Z</time></trkpt><trkpt lat="40.95206836924043" lon="15.785077647917896"><ele>499.0</ele><time>2026-04-06T07:05:15Z</time></trkpt><trkpt lat="40.95214598195069" lon="15.785268431541255"><ele>498.33333333333337</ele><time>2026-04-06T07:05:16Z</time></trkpt><trkpt lat="40.95222175996145" lon="15.785459002016955"><ele>497.66666666666663</ele><time>2026-04-06T07:05:17Z</time></trkpt><trkpt lat="40.9522931059023" lon="15.785655974906078"><ele>497.0</ele><time>2026-04-06T07:05:18Z</time></trkpt><trkpt lat="40.95235198036154" lon="15.785859844363753"><ele>496.0</ele><time>2026-04-06T07:05:19Z</time></trkpt><trkpt lat="40.95240527130204" lon="15.786080339851411"><ele>495.0</ele><time>2026-04-06T07:05:20Z</time></trkpt><trkpt lat="40.95245622559296" lon="15.786301247384332"><ele>494.0</ele><time>2026-04-06T07:05:21Z</time></trkpt><trkpt lat="40.95251330595683" lon="15.786525154145291"><ele>494.66666666666663</ele><time>2026-04-06T07:05:22Z</time></trkpt><trkpt lat="40.95256941782744" lon="15.786744340099725"><ele>495.33333333333337</ele><time>2026-04-06T07:05:23Z</time></trkpt><trkpt lat="40.95261677877396" lon="15.786973066833031"><ele>496.0</ele><time>2026-04-06T07:05:24Z</time></trkpt><trkpt lat="40.95264940720644" lon="15.787193138098697"><ele>496.0</ele><time>2026-04-06T07:05:25Z</time></trkpt><trkpt lat="40.95267507147856" lon="15.787391641562285"><ele>496.0</ele><time>2026-04-06T07:05:26Z</time></trkpt><trkpt lat="40.95270764176241" lon="15.787579523402801"><ele>496.0</ele><time>2026-04-06T07:05:27Z</time></trkpt><trkpt lat="40.95274639633358" lon="15.787768267392671"><ele>496.0</ele><time>2026-04-06T07:05:28Z</time></trkpt><trkpt lat="40.952791237307196" lon="15.787954600884065"><ele>495.6666666666667</ele><time>2026-04-06T07:05:29Z</time></trkpt><trkpt lat="40.95284366043436" lon="15.788138788770775"><ele>495.33333333333337</ele><time>2026-04-06T07:05:30Z</time></trkpt><trkpt lat="40.95290084412538" lon="15.788325796918569"><ele>495.0</ele><time>2026-04-06T07:05:31Z</time></trkpt><trkpt lat="40.95295725425247" lon="15.788518964180078"><ele>493.33333333333337</ele><time>2026-04-06T07:05:32Z</time></trkpt><trkpt lat="40.95302023786384" lon="15.788722048428772"><ele>491.6666666666667</ele><time>2026-04-06T07:05:33Z</time></trkpt><trkpt lat="40.953079759439674" lon="15.788927502002617"><ele>490.0</ele><time>2026-04-06T07:05:34Z</time></trkpt><trkpt lat="40.95314053134642" lon="15.789135582000112"><ele>488.33333333333337</ele><time>2026-04-06T07:05:35Z</time></trkpt><trkpt lat="40.95318997217017" lon="15.78935656064197"><ele>486.66666666666663</ele><time>2026-04-06T07:05:36Z</time></trkpt><trkpt lat="40.95323205018639" lon="15.789582340495478"><ele>485.0</ele><time>2026-04-06T07:05:37Z</time></trkpt><trkpt lat="40.95327333634868" lon="15.789807390218641"><ele>485.0</ele><time>2026-04-06T07:05:38Z</time></trkpt><trkpt lat="40.953300487819156" lon="15.790028628297414"><ele>485.0</ele><time>2026-04-06T07:05:39Z</time></trkpt><trkpt lat="40.95333512832786" lon="15.790255201164756"><ele>485.0</ele><time>2026-04-06T07:05:40Z</time></trkpt><trkpt lat="40.953364219460745" lon="15.790491188454709"><ele>484.66666666666663</ele><time>2026-04-06T07:05:41Z</time></trkpt><trkpt lat="40.95339660892016" lon="15.790723431798831"><ele>484.33333333333337</ele><time>2026-04-06T07:05:42Z</time></trkpt><trkpt lat="40.953431773549326" lon="15.790957641219999"><ele>484.0</ele><time>2026-04-06T07:05:43Z</time></trkpt><trkpt lat="40.95346905234411" lon="15.791194742831419"><ele>481.33333333333337</ele><time>2026-04-06T07:05:44Z</time></trkpt><trkpt lat="40.95351406865337" lon="15.79143415264293"><ele>478.66666666666663</ele><time>2026-04-06T07:05:45Z</time></trkpt><trkpt lat="40.953554427118554" lon="15.791664155410476"><ele>476.0</ele><time>2026-04-06T07:05:46Z</time></trkpt><trkpt lat="40.95358940030883" lon="15.791887252040874"><ele>473.3333333333333</ele><time>2026-04-06T07:05:47Z</time></trkpt><trkpt lat="40.953637816828326" lon="15.792106065483726"><ele>470.66666666666663</ele><time>2026-04-06T07:05:48Z</time></trkpt><trkpt lat="40.95371288193119" lon="15.792319519890329"><ele>468.0</ele><time>2026-04-06T07:05:49Z</time></trkpt><trkpt lat="40.95380937592363" lon="15.792520640046899"><ele>466.66666666666663</ele><time>2026-04-06T07:05:50Z</time></trkpt><trkpt lat="40.95391634182935" lon="15.792717004545143"><ele>465.3333333333333</ele><time>2026-04-06T07:05:51Z</time></trkpt><trkpt lat="40.95401497181154" lon="15.792922797823232"><ele>464.0</ele><time>2026-04-06T07:05:52Z</time></trkpt><trkpt lat="40.95410341987912" lon="15.793123131930003"><ele>464.0</ele><time>2026-04-06T07:05:53Z</time></trkpt><trkpt lat="40.95418729928021" lon="15.793312716522918"><ele>464.0</ele><time>2026-04-06T07:05:54Z</time></trkpt><trkpt lat="40.954270450804266" lon="15.793501844482975"><ele>464.0</ele><time>2026-04-06T07:05:55Z</time></trkpt><trkpt lat="40.95435219746009" lon="15.793680842716926"><ele>462.66666666666663</ele><time>2026-04-06T07:05:56Z</time></trkpt><trkpt lat="40.95442969834828" lon="15.79385951129298"><ele>461.33333333333337</ele><time>2026-04-06T07:05:57Z</time></trkpt><trkpt lat="40.954509175043825" lon="15.794038879309102"><ele>460.0</ele><time>2026-04-06T07:05:58Z</time></trkpt><trkpt lat="40.954593584221634" lon="15.794226106108974"><ele>458.0</ele><time>2026-04-06T07:05:59Z</time></trkpt><trkpt lat="40.95467605465231" lon="15.794417114624494"><ele>456.0</ele><time>2026-04-06T07:06:00Z</time></trkpt><trkpt lat="40.954758156345044" lon="15.794610251899595"><ele>454.0</ele><time>2026-04-06T07:06:01Z</time></trkpt><trkpt lat="40.95484536714948" lon="15.794808433610953"><ele>454.0</ele><time>2026-04-06T07:06:02Z</time></trkpt><trkpt lat="40.95493569377076" lon="15.79501113523421"><ele>454.0</ele><time>2026-04-06T07:06:03Z</time></trkpt><trkpt lat="40.95501910119434" lon="15.795204746257527"><ele>454.0</ele><time>2026-04-06T07:06:04Z</time></trkpt><trkpt lat="40.95510592782462" lon="15.795389283794032"><ele>451.33333333333337</ele><time>2026-04-06T07:06:05Z</time></trkpt><trkpt lat="40.955195766521676" lon="15.795575402697926"><ele>448.66666666666663</ele><time>2026-04-06T07:06:06Z</time></trkpt><trkpt lat="40.955271159837395" lon="15.79577436876483"><ele>446.0</ele><time>2026-04-06T07:06:07Z</time></trkpt><trkpt lat="40.95537108649089" lon="15.795949056868928"><ele>445.66666666666663</ele><time>2026-04-06T07:06:08Z</time></trkpt><trkpt lat="40.95546065365001" lon="15.796119463017238"><ele>445.33333333333337</ele><time>2026-04-06T07:06:09Z</time></trkpt><trkpt lat="40.95557799864295" lon="15.796270232681385"><ele>445.0</ele><time>2026-04-06T07:06:10Z</time></trkpt><trkpt lat="40.95571568618335" lon="15.796413120604976"><ele>445.0</ele><time>2026-04-06T07:06:11Z</time></trkpt><trkpt lat="40.95585906483531" lon="15.796556933242533"><ele>445.0</ele><time>2026-04-06T07:06:12Z</time></trkpt><trkpt lat="40.9559995889587" lon="15.796704777030241"><ele>445.0</ele><time>2026-04-06T07:06:13Z</time></trkpt><trkpt lat="40.9561452104383" lon="15.796862303744591"><ele>444.6666666666667</ele><time>2026-04-06T07:06:14Z</time></trkpt><trkpt lat="40.95629458574359" lon="15.79701787222424"><ele>444.33333333333337</ele><time>2026-04-06T07:06:15Z</time></trkpt><trkpt lat="40.95643029418567" lon="15.797172199919329"><ele>444.0</ele><time>2026-04-06T07:06:16Z</time></trkpt><trkpt lat="40.956559148259636" lon="15.797317331492417"><ele>444.0</ele><time>2026-04-06T07:06:17Z</time></trkpt><trkpt lat="40.95669118280179" lon="15.797460981408381"><ele>444.0</ele><time>2026-04-06T07:06:18Z</time></trkpt><trkpt lat="40.956816634858356" lon="15.797603239208208"><ele>444.0</ele><time>2026-04-06T07:06:19Z</time></trkpt><trkpt lat="40.956925940081526" lon="15.797736585185175"><ele>443.75</ele><time>2026-04-06T07:06:20Z</time></trkpt><trkpt lat="40.95701915078932" lon="15.797838601629904"><ele>443.5</ele><time>2026-04-06T07:06:21Z</time></trkpt><trkpt lat="40.95711528167999" lon="15.797940141106737"><ele>443.25</ele><time>2026-04-06T07:06:22Z</time></trkpt><trkpt lat="40.957215777227994" lon="15.798044789089257"><ele>443.0</ele><time>2026-04-06T07:06:23Z</time></trkpt><trkpt lat="40.957317873213476" lon="15.798155146961642"><ele>443.0</ele><time>2026-04-06T07:06:24Z</time></trkpt><trkpt lat="40.95741643359005" lon="15.79825786704822"><ele>443.0</ele><time>2026-04-06T07:06:25Z</time></trkpt><trkpt lat="40.95750754382631" lon="15.798360778897452"><ele>443.0</ele><time>2026-04-06T07:06:26Z</time></trkpt><trkpt lat="40.95759126686994" lon="15.798459184189312"><ele>443.0</ele><time>2026-04-06T07:06:27Z</time></trkpt><trkpt lat="40.95767198387521" lon="15.798549043803176"><ele>442.79999999999995</ele><time>2026-04-06T07:06:28Z</time></trkpt><trkpt lat="40.957747119906145" lon="15.798633194169277"><ele>442.59999999999997</ele><time>2026-04-06T07:06:29Z</time></trkpt><trkpt lat="40.95781191713104" lon="15.798723965099956"><ele>442.40000000000003</ele><time>2026-04-06T07:06:30Z</time></trkpt><trkpt lat="40.95785232228437" lon="15.798832150808144"><ele>442.20000000000005</ele><time>2026-04-06T07:06:31Z</time></trkpt><trkpt lat="40.95787758642478" lon="15.798926199331866"><ele>442.0</ele><time>2026-04-06T07:06:32Z</time></trkpt><trkpt lat="40.957977040809745" lon="15.799018115797132"><ele>442.00000000000006</ele><time>2026-04-06T07:06:34Z</time></trkpt><trkpt lat="40.9580496341524" lon="15.79903081377577"><ele>442.0</ele><time>2026-04-06T07:06:35Z</time></trkpt><trkpt lat="40.958121350604955" lon="15.799043967302637"><ele>442.0</ele><time>2026-04-06T07:06:36Z</time></trkpt><trkpt lat="40.95821194745258" lon="15.799111281148347"><ele>442.0</ele><time>2026-04-06T07:06:38Z</time></trkpt><trkpt lat="40.95827509674971" lon="15.799215748763038"><ele>442.00000000000006</ele><time>2026-04-06T07:06:39Z</time></trkpt><trkpt lat="40.95833745594758" lon="15.799300945647985"><ele>442.0</ele><time>2026-04-06T07:06:40Z</time></trkpt><trkpt lat="40.95841022543684" lon="15.799390310090805"><ele>441.40000000000003</ele><time>2026-04-06T07:06:41Z</time></trkpt><trkpt lat="40.9584697088653" lon="15.799484217907786"><ele>440.80000000000007</ele><time>2026-04-06T07:06:42Z</time></trkpt><trkpt lat="40.95851959323584" lon="15.799589880294008"><ele>440.2</ele><time>2026-04-06T07:06:43Z</time></trkpt><trkpt lat="40.9585573666629" lon="15.799700743558102"><ele>439.6</ele><time>2026-04-06T07:06:44Z</time></trkpt><trkpt lat="40.95856624614648" lon="15.799829214660916"><ele>439.0</ele><time>2026-04-06T07:06:45Z</time></trkpt><trkpt lat="40.95858143289479" lon="15.79998408896213"><ele>438.5</ele><time>2026-04-06T07:06:46Z</time></trkpt><trkpt lat="40.95859353434867" lon="15.80017255310894"><ele>438.0</ele><time>2026-04-06T07:06:47Z</time></trkpt><trkpt lat="40.958603145383265" lon="15.800368441196698"><ele>437.5</ele><time>2026-04-06T07:06:48Z</time></trkpt><trkpt lat="40.95861159052963" lon="15.800563787486938"><ele>437.0</ele><time>2026-04-06T07:06:49Z</time></trkpt><trkpt lat="40.95862019128948" lon="15.800764630891665"><ele>437.0</ele><time>2026-04-06T07:06:50Z</time></trkpt><trkpt lat="40.958642735441074" lon="15.800967503821074"><ele>437.0</ele><time>2026-04-06T07:06:51Z</time></trkpt><trkpt lat="40.95864595422568" lon="15.801176452974767"><ele>437.0</ele><time>2026-04-06T07:06:52Z</time></trkpt><trkpt lat="40.95864575309257" lon="15.801388335284818"><ele>436.3333333333333</ele><time>2026-04-06T07:06:53Z</time></trkpt><trkpt lat="40.95865271936151" lon="15.80160262379723"><ele>435.66666666666663</ele><time>2026-04-06T07:06:54Z</time></trkpt><trkpt lat="40.958659708813656" lon="15.801805803294474"><ele>435.0</ele><time>2026-04-06T07:06:55Z</time></trkpt><trkpt lat="40.95866929509429" lon="15.801999048746154"><ele>434.5</ele><time>2026-04-06T07:06:56Z</time></trkpt><trkpt lat="40.95867738367782" lon="15.802182047201885"><ele>434.0</ele><time>2026-04-06T07:06:57Z</time></trkpt><trkpt lat="40.958683798312" lon="15.802356001446697"><ele>433.5</ele><time>2026-04-06T07:06:58Z</time></trkpt><trkpt lat="40.958690000805774" lon="15.802537217701449"><ele>433.0</ele><time>2026-04-06T07:06:59Z</time></trkpt><trkpt lat="40.95869995257101" lon="15.802720817607891"><ele>432.5</ele><time>2026-04-06T07:07:00Z</time></trkpt><trkpt lat="40.95871125890665" lon="15.802905964977464"><ele>432.0</ele><time>2026-04-06T07:07:01Z</time></trkpt><trkpt lat="40.9587208224388" lon="15.803087038355272"><ele>431.5</ele><time>2026-04-06T07:07:02Z</time></trkpt><trkpt lat="40.958728324489215" lon="15.80326472818093"><ele>431.0</ele><time>2026-04-06T07:07:03Z</time></trkpt><trkpt lat="40.95873322315398" lon="15.803438461946042"><ele>432.0</ele><time>2026-04-06T07:07:04Z</time></trkpt><trkpt lat="40.95873829331574" lon="15.803596755341692"><ele>433.0</ele><time>2026-04-06T07:07:05Z</time></trkpt><trkpt lat="40.958743379681216" lon="15.80375799945465"><ele>434.0</ele><time>2026-04-06T07:07:06Z</time></trkpt><trkpt lat="40.95874813121416" lon="15.803921305512672"><ele>435.0</ele><time>2026-04-06T07:07:07Z</time></trkpt><trkpt lat="40.958754714886" lon="15.804080647079617"><ele>435.0</ele><time>2026-04-06T07:07:08Z</time></trkpt><trkpt lat="40.958762470987146" lon="15.804246085198553"><ele>435.0</ele><time>2026-04-06T07:07:09Z</time></trkpt><trkpt lat="40.958771838098656" lon="15.804418182751744"><ele>435.0</ele><time>2026-04-06T07:07:10Z</time></trkpt><trkpt lat="40.958778891650084" lon="15.804591979797294"><ele>435.0</ele><time>2026-04-06T07:07:11Z</time></trkpt><trkpt lat="40.95879036599322" lon="15.80476487863673"><ele>434.75</ele><time>2026-04-06T07:07:12Z</time></trkpt><trkpt lat="40.95880729414382" lon="15.804929886395767"><ele>434.5</ele><time>2026-04-06T07:07:13Z</time></trkpt><trkpt lat="40.958828161522625" lon="15.805096389146374"><ele>434.25</ele><time>2026-04-06T07:07:14Z</time></trkpt><trkpt lat="40.95886058549425" lon="15.805255309764684"><ele>434.0</ele><time>2026-04-06T07:07:15Z</time></trkpt><trkpt lat="40.958891080792505" lon="15.805408870154569"><ele>433.5</ele><time>2026-04-06T07:07:16Z</time></trkpt><trkpt lat="40.95892674846406" lon="15.805559905283824"><ele>433.0</ele><time>2026-04-06T07:07:17Z</time></trkpt><trkpt lat="40.958961059189214" lon="15.805715073606788"><ele>432.5</ele><time>2026-04-06T07:07:18Z</time></trkpt><trkpt lat="40.95899412130852" lon="15.805871255947466"><ele>432.0</ele><time>2026-04-06T07:07:19Z</time></trkpt><trkpt lat="40.959020888462724" lon="15.806029453260514"><ele>431.25</ele><time>2026-04-06T07:07:20Z</time></trkpt><trkpt lat="40.9590447457699" lon="15.80618361485642"><ele>430.5</ele><time>2026-04-06T07:07:21Z</time></trkpt><trkpt lat="40.95908048869465" lon="15.806342570117742"><ele>429.75</ele><time>2026-04-06T07:07:22Z</time></trkpt><trkpt lat="40.95911478177809" lon="15.806501693974463"><ele>429.0</ele><time>2026-04-06T07:07:23Z</time></trkpt><trkpt lat="40.95914412146524" lon="15.80666200034097"><ele>429.0</ele><time>2026-04-06T07:07:24Z</time></trkpt><trkpt lat="40.959172075082414" lon="15.80682180239926"><ele>429.0</ele><time>2026-04-06T07:07:25Z</time></trkpt><trkpt lat="40.959202461052605" lon="15.806982637851187"><ele>429.0</ele><time>2026-04-06T07:07:26Z</time></trkpt><trkpt lat="40.95923521741718" lon="15.80714042838271"><ele>429.0</ele><time>2026-04-06T07:07:27Z</time></trkpt><trkpt lat="40.959264190333734" lon="15.807301959522984"><ele>428.5</ele><time>2026-04-06T07:07:28Z</time></trkpt><trkpt lat="40.959296765441884" lon="15.807465679202775"><ele>428.0</ele><time>2026-04-06T07:07:29Z</time></trkpt><trkpt lat="40.95932263735553" lon="15.807624500266401"><ele>427.5</ele><time>2026-04-06T07:07:30Z</time></trkpt><trkpt lat="40.95935712890288" lon="15.807785344099896"><ele>427.0</ele><time>2026-04-06T07:07:31Z</time></trkpt><trkpt lat="40.95939456177964" lon="15.807947221591931"><ele>426.25</ele><time>2026-04-06T07:07:32Z</time></trkpt><trkpt lat="40.95942224535096" lon="15.808105524796382"><ele>425.5</ele><time>2026-04-06T07:07:33Z</time></trkpt><trkpt lat="40.95944897491738" lon="15.808267322644173"><ele>424.75</ele><time>2026-04-06T07:07:34Z</time></trkpt><trkpt lat="40.95947655271211" lon="15.808416953145649"><ele>424.0</ele><time>2026-04-06T07:07:35Z</time></trkpt><trkpt lat="40.95950592173392" lon="15.80856007870762"><ele>423.6</ele><time>2026-04-06T07:07:36Z</time></trkpt><trkpt lat="40.95953269191824" lon="15.808706175959657"><ele>423.2</ele><time>2026-04-06T07:07:37Z</time></trkpt><trkpt lat="40.95956476374583" lon="15.808847592813475"><ele>422.8</ele><time>2026-04-06T07:07:38Z</time></trkpt><trkpt lat="40.95959533576135" lon="15.808984415549512"><ele>422.40000000000003</ele><time>2026-04-06T07:07:39Z</time></trkpt><trkpt lat="40.95962031038762" lon="15.809112531737364"><ele>422.0</ele><time>2026-04-06T07:07:40Z</time></trkpt><trkpt lat="40.959642678001494" lon="15.809223301542945"><ele>422.0</ele><time>2026-04-06T07:07:41Z</time></trkpt><trkpt lat="40.95966668838127" lon="15.809334312600129"><ele>422.0</ele><time>2026-04-06T07:07:42Z</time></trkpt><trkpt lat="40.959683226823735" lon="15.809431160003053"><ele>422.0</ele><time>2026-04-06T07:07:43Z</time></trkpt><trkpt lat="40.95969725792659" lon="15.809514763696672"><ele>422.0</ele><time>2026-04-06T07:07:44Z</time></trkpt><trkpt lat="40.959712301286636" lon="15.80959613763464"><ele>422.0</ele><time>2026-04-06T07:07:45Z</time></trkpt><trkpt lat="40.959729147675574" lon="15.809683020319373"><ele>422.0</ele><time>2026-04-06T07:07:46Z</time></trkpt><trkpt lat="40.95974852705901" lon="15.809768935922248"><ele>422.0</ele><time>2026-04-06T07:07:47Z</time></trkpt><trkpt lat="40.959768390128446" lon="15.809866302140247"><ele>421.99999999999994</ele><time>2026-04-06T07:07:48Z</time></trkpt><trkpt lat="40.9597930526989" lon="15.80996660824142"><ele>422.0</ele><time>2026-04-06T07:07:49Z</time></trkpt><trkpt lat="40.9597998495423" lon="15.81006204520887"><ele>422.0</ele><time>2026-04-06T07:07:50Z</time></trkpt><trkpt lat="40.95982952129222" lon="15.810138267512766"><ele>422.0</ele><time>2026-04-06T07:07:51Z</time></trkpt><trkpt lat="40.95978982789912" lon="15.810261827378934"><ele>421.99999999999994</ele><time>2026-04-06T07:07:53Z</time></trkpt><trkpt lat="40.95972122022651" lon="15.810259800570217"><ele>422.0</ele><time>2026-04-06T07:07:54Z</time></trkpt><trkpt lat="40.95964550600201" lon="15.81029115279121"><ele>422.40000000000003</ele><time>2026-04-06T07:07:55Z</time></trkpt><trkpt lat="40.959557242254185" lon="15.81034346253443"><ele>422.8</ele><time>2026-04-06T07:07:56Z</time></trkpt><trkpt lat="40.95945311966044" lon="15.810381781038439"><ele>423.2</ele><time>2026-04-06T07:07:57Z</time></trkpt><trkpt lat="40.95933847771178" lon="15.8104318776408"><ele>423.6</ele><time>2026-04-06T07:07:58Z</time></trkpt><trkpt lat="40.95922243444455" lon="15.810475892391302"><ele>424.0</ele><time>2026-04-06T07:07:59Z</time></trkpt><trkpt lat="40.95910729293442" lon="15.810519598751464"><ele>424.6</ele><time>2026-04-06T07:08:00Z</time></trkpt><trkpt lat="40.959007700702855" lon="15.810560449560775"><ele>425.2</ele><time>2026-04-06T07:08:01Z</time></trkpt><trkpt lat="40.958920621343914" lon="15.810594095663665"><ele>425.80000000000007</ele><time>2026-04-06T07:08:02Z</time></trkpt><trkpt lat="40.95884241115831" lon="15.810603687255501"><ele>426.40000000000003</ele><time>2026-04-06T07:08:03Z</time></trkpt><trkpt lat="40.958747546135655" lon="15.810653840248683"><ele>427.0</ele><time>2026-04-06T07:08:05Z</time></trkpt><trkpt lat="40.95866716685647" lon="15.810680817740383"><ele>427.0</ele><time>2026-04-06T07:08:07Z</time></trkpt><trkpt lat="40.95861792134021" lon="15.810749318205616"><ele>427.00000000000006</ele><time>2026-04-06T07:08:11Z</time></trkpt><trkpt lat="40.95853990333918" lon="15.810890561949899"><ele>427.00000000000006</ele><time>2026-04-06T07:08:14Z</time></trkpt><trkpt lat="40.95850491879292" lon="15.811003012589273"><ele>427.0</ele><time>2026-04-06T07:08:15Z</time></trkpt><trkpt lat="40.95845488861204" lon="15.811124645697584"><ele>427.0</ele><time>2026-04-06T07:08:16Z</time></trkpt><trkpt lat="40.958403235084056" lon="15.811250540439557"><ele>426.25</ele><time>2026-04-06T07:08:17Z</time></trkpt><trkpt lat="40.95834667088355" lon="15.811384796657514"><ele>425.5</ele><time>2026-04-06T07:08:18Z</time></trkpt><trkpt lat="40.9582962153737" lon="15.811524538485681"><ele>424.75</ele><time>2026-04-06T07:08:19Z</time></trkpt><trkpt lat="40.95826080502451" lon="15.81166916175414"><ele>424.0</ele><time>2026-04-06T07:08:20Z</time></trkpt><trkpt lat="40.9582347263484" lon="15.811828086005695"><ele>423.75</ele><time>2026-04-06T07:08:21Z</time></trkpt><trkpt lat="40.95823319856166" lon="15.81199045675579"><ele>423.5</ele><time>2026-04-06T07:08:22Z</time></trkpt><trkpt lat="40.958245327477606" lon="15.812163761111245"><ele>423.25</ele><time>2026-04-06T07:08:23Z</time></trkpt><trkpt lat="40.958272815641706" lon="15.812330071391962"><ele>423.0</ele><time>2026-04-06T07:08:24Z</time></trkpt><trkpt lat="40.95830930265568" lon="15.81251154754526"><ele>422.5</ele><time>2026-04-06T07:08:25Z</time></trkpt><trkpt lat="40.95835356611766" lon="15.812698679579377"><ele>422.0</ele><time>2026-04-06T07:08:26.001Z</time></trkpt><trkpt lat="40.95838231628079" lon="15.812889321155346"><ele>421.5</ele><time>2026-04-06T07:08:27Z</time></trkpt><trkpt lat="40.95841360661329" lon="15.813080313457181"><ele>421.0</ele><time>2026-04-06T07:08:28Z</time></trkpt><trkpt lat="40.95844692513929" lon="15.813263211196697"><ele>420.75</ele><time>2026-04-06T07:08:29Z</time></trkpt><trkpt lat="40.958478044260076" lon="15.81343083331608"><ele>420.5</ele><time>2026-04-06T07:08:30Z</time></trkpt><trkpt lat="40.95851082468969" lon="15.813593360074558"><ele>420.25</ele><time>2026-04-06T07:08:31Z</time></trkpt><trkpt lat="40.95853990348683" lon="15.813740793023326"><ele>420.0</ele><time>2026-04-06T07:08:32Z</time></trkpt><trkpt lat="40.95856129686884" lon="15.813875097536036"><ele>420.0</ele><time>2026-04-06T07:08:33Z</time></trkpt><trkpt lat="40.95857590831271" lon="15.813984384888125"><ele>420.0</ele><time>2026-04-06T07:08:34Z</time></trkpt><trkpt lat="40.95857250092333" lon="15.814087384260857"><ele>420.0</ele><time>2026-04-06T07:08:35Z</time></trkpt><trkpt lat="40.95853162061343" lon="15.814190859205025"><ele>420.0</ele><time>2026-04-06T07:08:36Z</time></trkpt><trkpt lat="40.95849321825827" lon="15.814303079158185"><ele>420.0</ele><time>2026-04-06T07:08:37Z</time></trkpt><trkpt lat="40.95845242599585" lon="15.814395529238944"><ele>420.0</ele><time>2026-04-06T07:08:38Z</time></trkpt><trkpt lat="40.95840245985941" lon="15.814498958548507"><ele>419.8</ele><time>2026-04-06T07:08:39Z</time></trkpt><trkpt lat="40.95835243043351" lon="15.814596936835581"><ele>419.6</ele><time>2026-04-06T07:08:40Z</time></trkpt><trkpt lat="40.95831085777455" lon="15.814714541694203"><ele>419.4</ele><time>2026-04-06T07:08:41Z</time></trkpt><trkpt lat="40.95824875144383" lon="15.814793936536887"><ele>419.2</ele><time>2026-04-06T07:08:42Z</time></trkpt><trkpt lat="40.95818805258996" lon="15.814903034720023"><ele>419.0</ele><time>2026-04-06T07:08:43Z</time></trkpt><trkpt lat="40.958135889490386" lon="15.81502225697177"><ele>419.0</ele><time>2026-04-06T07:08:44Z</time></trkpt><trkpt lat="40.9580816192494" lon="15.815127281537782"><ele>419.0</ele><time>2026-04-06T07:08:45Z</time></trkpt><trkpt lat="40.95803196476663" lon="15.815221023047178"><ele>419.0</ele><time>2026-04-06T07:08:46Z</time></trkpt><trkpt lat="40.957986780866264" lon="15.815310900094786"><ele>419.0</ele><time>2026-04-06T07:08:47Z</time></trkpt><trkpt lat="40.95794471008578" lon="15.81538489726408"><ele>419.0</ele><time>2026-04-06T07:08:48Z</time></trkpt><trkpt lat="40.95787784694521" lon="15.815525070485009"><ele>418.8333333333333</ele><time>2026-04-06T07:08:50Z</time></trkpt><trkpt lat="40.957829383443624" lon="15.815606993342477"><ele>418.66666666666663</ele><time>2026-04-06T07:08:52Z</time></trkpt><trkpt lat="40.95774209349559" lon="15.815651452989092"><ele>418.5</ele><time>2026-04-06T07:08:55Z</time></trkpt><trkpt lat="40.95764382497158" lon="15.815570766368594"><ele>418.33333333333337</ele><time>2026-04-06T07:08:57Z</time></trkpt><trkpt lat="40.9575784912267" lon="15.815537664122063"><ele>418.1666666666667</ele><time>2026-04-06T07:08:58Z</time></trkpt><trkpt lat="40.95750861447837" lon="15.815512417512451"><ele>418.0</ele><time>2026-04-06T07:08:59Z</time></trkpt><trkpt lat="40.957447065992504" lon="15.815493451532765"><ele>418.0</ele><time>2026-04-06T07:09:00Z</time></trkpt><trkpt lat="40.95737186547592" lon="15.815461974320701"><ele>418.0</ele><time>2026-04-06T07:09:02Z</time></trkpt><trkpt lat="40.95729201720458" lon="15.81543431536209"><ele>418.0</ele><time>2026-04-06T07:09:05Z</time></trkpt><trkpt lat="40.95722430795798" lon="15.815394450185797"><ele>418.0</ele><time>2026-04-06T07:09:08Z</time></trkpt><trkpt lat="40.95729854863289" lon="15.815480377196083"><ele>418.0</ele><time>2026-04-06T07:09:16Z</time></trkpt><trkpt lat="40.95741963441009" lon="15.815513426093226"><ele>418.00000000000006</ele><time>2026-04-06T07:09:18Z</time></trkpt><trkpt lat="40.95749463871665" lon="15.815545862404313"><ele>418.0</ele><time>2026-04-06T07:09:19Z</time></trkpt><trkpt lat="40.957572157631155" lon="15.815572267849051"><ele>418.0</ele><time>2026-04-06T07:09:20Z</time></trkpt><trkpt lat="40.9576560382518" lon="15.815616703718367"><ele>418.0</ele><time>2026-04-06T07:09:21Z</time></trkpt><trkpt lat="40.95772237671391" lon="15.815662458835735"><ele>418.00000000000006</ele><time>2026-04-06T07:09:22Z</time></trkpt><trkpt lat="40.9577993051152" lon="15.81571413962689"><ele>418.0</ele><time>2026-04-06T07:09:23Z</time></trkpt><trkpt lat="40.95790840704849" lon="15.815794267832182"><ele>418.00000000000006</ele><time>2026-04-06T07:09:25Z</time></trkpt><trkpt lat="40.95797416091248" lon="15.815847367989148"><ele>418.0</ele><time>2026-04-06T07:09:26Z</time></trkpt><trkpt lat="40.95804657030586" lon="15.815887670739713"><ele>418.0</ele><time>2026-04-06T07:09:27Z</time></trkpt><trkpt lat="40.95811199784832" lon="15.815939188280266"><ele>418.0</ele><time>2026-04-06T07:09:28Z</time></trkpt><trkpt lat="40.95818253201227" lon="15.816000971574576"><ele>418.00000000000006</ele><time>2026-04-06T07:09:29Z</time></trkpt><trkpt lat="40.958258893660734" lon="15.816058369006681"><ele>418.0</ele><time>2026-04-06T07:09:30Z</time></trkpt><trkpt lat="40.95833968230447" lon="15.816109413777761"><ele>418.2</ele><time>2026-04-06T07:09:31Z</time></trkpt><trkpt lat="40.958423171648064" lon="15.816160885086655"><ele>418.4</ele><time>2026-04-06T07:09:32Z</time></trkpt><trkpt lat="40.95850561392433" lon="15.81621192536846"><ele>418.59999999999997</ele><time>2026-04-06T07:09:33Z</time></trkpt><trkpt lat="40.95858623199727" lon="15.816257176173103"><ele>418.79999999999995</ele><time>2026-04-06T07:09:34Z</time></trkpt><trkpt lat="40.95866978210412" lon="15.816305165298239"><ele>419.0</ele><time>2026-04-06T07:09:35Z</time></trkpt><trkpt lat="40.95875180431516" lon="15.81636198975044"><ele>419.0</ele><time>2026-04-06T07:09:36Z</time></trkpt><trkpt lat="40.95882003227742" lon="15.816409752734023"><ele>419.0</ele><time>2026-04-06T07:09:37Z</time></trkpt><trkpt lat="40.958931132184034" lon="15.81634342213151"><ele>419.0</ele><time>2026-04-06T07:09:38Z</time></trkpt><trkpt lat="40.95903016201574" lon="15.816295818282217"><ele>419.0</ele><time>2026-04-06T07:09:39Z</time></trkpt><trkpt lat="40.95913057457361" lon="15.816236917454946"><ele>419.0</ele><time>2026-04-06T07:09:40Z</time></trkpt><trkpt lat="40.95923461349284" lon="15.816184493677541"><ele>419.0</ele><time>2026-04-06T07:09:41Z</time></trkpt><trkpt lat="40.95933557099114" lon="15.81612765036603"><ele>419.0</ele><time>2026-04-06T07:09:42Z</time></trkpt><trkpt lat="40.95943837341301" lon="15.816076447573636"><ele>419.0</ele><time>2026-04-06T07:09:43Z</time></trkpt><trkpt lat="40.9595306871476" lon="15.816050242730205"><ele>419.0</ele><time>2026-04-06T07:09:44Z</time></trkpt><trkpt lat="40.95960945963666" lon="15.81601368572895"><ele>419.0</ele><time>2026-04-06T07:09:45Z</time></trkpt><trkpt lat="40.959680103881354" lon="15.815981341587223"><ele>419.0</ele><time>2026-04-06T07:09:46Z</time></trkpt><trkpt lat="40.95977663744529" lon="15.815926351962917"><ele>419.0</ele><time>2026-04-06T07:09:48Z</time></trkpt><trkpt lat="40.95988287425854" lon="15.815894242027435"><ele>419.0</ele><time>2026-04-06T07:09:50Z</time></trkpt><trkpt lat="40.959964937732124" lon="15.815841354623714"><ele>419.0</ele><time>2026-04-06T07:09:52Z</time></trkpt><trkpt lat="40.96007563684696" lon="15.81582208198836"><ele>419.0</ele><time>2026-04-06T07:09:54Z</time></trkpt><trkpt lat="40.960170526725136" lon="15.815785996709913"><ele>418.8333333333333</ele><time>2026-04-06T07:09:56Z</time></trkpt><trkpt lat="40.960269299249724" lon="15.815731693493902"><ele>418.66666666666663</ele><time>2026-04-06T07:09:58Z</time></trkpt><trkpt lat="40.9603551973848" lon="15.815683703093407"><ele>418.5</ele><time>2026-04-06T07:10:00Z</time></trkpt><trkpt lat="40.96041775872497" lon="15.815632291789152"><ele>418.33333333333337</ele><time>2026-04-06T07:10:02Z</time></trkpt><trkpt lat="40.960486640342324" lon="15.815607964548752"><ele>418.1666666666667</ele><time>2026-04-06T07:10:05Z</time></trkpt><trkpt lat="40.9605470259745" lon="15.815554465396847"><ele>418.0</ele><time>2026-04-06T07:10:07Z</time></trkpt><trkpt lat="40.96063086706021" lon="15.815594980821208"><ele>418.0</ele><time>2026-04-06T07:10:09Z</time></trkpt><trkpt lat="40.96072038181515" lon="15.815676453112882"><ele>418.0</ele><time>2026-04-06T07:10:11Z</time></trkpt><trkpt lat="40.96069686450636" lon="15.815841535451954"><ele>418.0</ele><time>2026-04-06T07:10:12Z</time></trkpt><trkpt lat="40.960725592660104" lon="15.815930634003093"><ele>418.0</ele><time>2026-04-06T07:10:13Z</time></trkpt><trkpt lat="40.96075642803439" lon="15.816032227804957"><ele>418.0</ele><time>2026-04-06T07:10:14Z</time></trkpt><trkpt lat="40.960785747897994" lon="15.816151435924448"><ele>418.1666666666667</ele><time>2026-04-06T07:10:15Z</time></trkpt><trkpt lat="40.96081170932912" lon="15.816260176341192"><ele>418.33333333333337</ele><time>2026-04-06T07:10:16Z</time></trkpt><trkpt lat="40.96083705143995" lon="15.816348835774297"><ele>418.5</ele><time>2026-04-06T07:10:17Z</time></trkpt><trkpt lat="40.960861222970166" lon="15.81646028831256"><ele>418.66666666666663</ele><time>2026-04-06T07:10:18Z</time></trkpt><trkpt lat="40.960881225326496" lon="15.816580836651099"><ele>418.8333333333333</ele><time>2026-04-06T07:10:19Z</time></trkpt><trkpt lat="40.96094544752377" lon="15.816695516532906"><ele>419.0</ele><time>2026-04-06T07:10:21Z</time></trkpt><trkpt lat="40.96096813256154" lon="15.816776044199365"><ele>419.2</ele><time>2026-04-06T07:10:22Z</time></trkpt><trkpt lat="40.961015047964295" lon="15.816915938634944"><ele>419.4</ele><time>2026-04-06T07:10:24Z</time></trkpt><trkpt lat="40.96104253950496" lon="15.817034835618616"><ele>419.6</ele><time>2026-04-06T07:10:26Z</time></trkpt><trkpt lat="40.96106766333084" lon="15.817125238946153"><ele>419.8</ele><time>2026-04-06T07:10:28Z</time></trkpt><trkpt lat="40.96109884447249" lon="15.817225597318853"><ele>420.0</ele><time>2026-04-06T07:10:31Z</time></trkpt><trkpt lat="40.96124913326237" lon="15.81711818094064"><ele>420.0</ele><time>2026-04-06T07:10:33Z</time></trkpt><trkpt lat="40.96137273623896" lon="15.8170295419585"><ele>420.0</ele><time>2026-04-06T07:10:35Z</time></trkpt><trkpt lat="40.961464225296105" lon="15.816979423446181"><ele>420.0</ele><time>2026-04-06T07:10:36Z</time></trkpt><trkpt lat="40.961559680456084" lon="15.816921950606416"><ele>420.0</ele><time>2026-04-06T07:10:37Z</time></trkpt><trkpt lat="40.96164705328904" lon="15.816870800017696"><ele>420.0</ele><time>2026-04-06T07:10:38Z</time></trkpt><trkpt lat="40.96174299078933" lon="15.816853320766292"><ele>420.3333333333333</ele><time>2026-04-06T07:10:39Z</time></trkpt><trkpt lat="40.96182931884538" lon="15.816848120662877"><ele>420.66666666666663</ele><time>2026-04-06T07:10:40Z</time></trkpt><trkpt lat="40.96191120334881" lon="15.816875091823468"><ele>421.0</ele><time>2026-04-06T07:10:41Z</time></trkpt><trkpt lat="40.961986545970156" lon="15.816889214246912"><ele>421.3333333333333</ele><time>2026-04-06T07:10:42Z</time></trkpt><trkpt lat="40.962059239952815" lon="15.816938283525348"><ele>421.66666666666663</ele><time>2026-04-06T07:10:43Z</time></trkpt><trkpt lat="40.96212952647672" lon="15.817008552158192"><ele>422.0</ele><time>2026-04-06T07:10:44Z</time></trkpt><trkpt lat="40.96220044284256" lon="15.817053332152975"><ele>421.99999999999994</ele><time>2026-04-06T07:10:45Z</time></trkpt><trkpt lat="40.96228348283388" lon="15.817120267705555"><ele>422.0</ele><time>2026-04-06T07:10:47Z</time></trkpt><trkpt lat="40.962346948424916" lon="15.817172800845002"><ele>422.0</ele><time>2026-04-06T07:10:50Z</time></trkpt><trkpt lat="40.9624086286897" lon="15.81719766524526"><ele>422.0</ele><time>2026-04-06T07:10:51Z</time></trkpt><trkpt lat="40.96248923471918" lon="15.817214758293728"><ele>421.99999999999994</ele><time>2026-04-06T07:10:52Z</time></trkpt><trkpt lat="40.96258054736789" lon="15.817228572635594"><ele>422.0</ele><time>2026-04-06T07:10:53Z</time></trkpt><trkpt lat="40.962670113816635" lon="15.817220131134137"><ele>421.0</ele><time>2026-04-06T07:10:54Z</time></trkpt><trkpt lat="40.96276284842458" lon="15.817195437382198"><ele>420.0</ele><time>2026-04-06T07:10:55Z</time></trkpt><trkpt lat="40.962864013069705" lon="15.817164813921101"><ele>419.0</ele><time>2026-04-06T07:10:56Z</time></trkpt><trkpt lat="40.96296450780744" lon="15.817157825772275"><ele>418.0</ele><time>2026-04-06T07:10:57Z</time></trkpt><trkpt lat="40.96306355899543" lon="15.817163247942794"><ele>417.0</ele><time>2026-04-06T07:10:58Z</time></trkpt><trkpt lat="40.96314601950544" lon="15.81717435934793"><ele>417.0</ele><time>2026-04-06T07:10:59Z</time></trkpt><trkpt lat="40.96322371136875" lon="15.817192844073807"><ele>417.0</ele><time>2026-04-06T07:11:00Z</time></trkpt><trkpt lat="40.96330776346687" lon="15.81719051158536"><ele>417.0</ele><time>2026-04-06T07:11:02Z</time></trkpt><trkpt lat="40.96340556162918" lon="15.817278919769604"><ele>417.0</ele><time>2026-04-06T07:11:03Z</time></trkpt><trkpt lat="40.96347451471822" lon="15.817327645883418"><ele>417.0</ele><time>2026-04-06T07:11:04Z</time></trkpt><trkpt lat="40.96359374484655" lon="15.817396405760775"><ele>415.40000000000003</ele><time>2026-04-06T07:11:06Z</time></trkpt><trkpt lat="40.96366525070765" lon="15.81743515580073"><ele>413.8</ele><time>2026-04-06T07:11:07Z</time></trkpt><trkpt lat="40.963727852169455" lon="15.817513363247516"><ele>412.2</ele><time>2026-04-06T07:11:08Z</time></trkpt><trkpt lat="40.96380208959943" lon="15.817555090657974"><ele>410.6</ele><time>2026-04-06T07:11:09Z</time></trkpt><trkpt lat="40.9639053082535" lon="15.817675663040019"><ele>409.0</ele><time>2026-04-06T07:11:11Z</time></trkpt><trkpt lat="40.963952718210706" lon="15.817765711705196"><ele>409.0</ele><time>2026-04-06T07:11:12Z</time></trkpt><trkpt lat="40.96397425359129" lon="15.81788770077626"><ele>409.0</ele><time>2026-04-06T07:11:13Z</time></trkpt><trkpt lat="40.96403572329999" lon="15.81798555323982"><ele>409.0</ele><time>2026-04-06T07:11:14Z</time></trkpt><trkpt lat="40.96407958060259" lon="15.818084859506865"><ele>409.0</ele><time>2026-04-06T07:11:15Z</time></trkpt><trkpt lat="40.96409923478667" lon="15.818194178746605"><ele>409.0</ele><time>2026-04-06T07:11:16Z</time></trkpt><trkpt lat="40.964093703732246" lon="15.81831799057119"><ele>409.00000000000006</ele><time>2026-04-06T07:11:17Z</time></trkpt><trkpt lat="40.9640679112602" lon="15.818432630400416"><ele>409.0</ele><time>2026-04-06T07:11:18Z</time></trkpt><trkpt lat="40.96404541691791" lon="15.818547745297531"><ele>409.0</ele><time>2026-04-06T07:11:19Z</time></trkpt><trkpt lat="40.96404991134248" lon="15.818651028192203"><ele>409.0</ele><time>2026-04-06T07:11:20Z</time></trkpt><trkpt lat="40.96408231514581" lon="15.818742792473609"><ele>409.00000000000006</ele><time>2026-04-06T07:11:21Z</time></trkpt><trkpt lat="40.96413522829186" lon="15.818821449891892"><ele>409.0</ele><time>2026-04-06T07:11:22Z</time></trkpt><trkpt lat="40.964214840462304" lon="15.818913596174179"><ele>409.5</ele><time>2026-04-06T07:11:23Z</time></trkpt><trkpt lat="40.96429571766272" lon="15.819012890055886"><ele>410.0</ele><time>2026-04-06T07:11:24Z</time></trkpt><trkpt lat="40.96438139651753" lon="15.819125139923155"><ele>410.5</ele><time>2026-04-06T07:11:25Z</time></trkpt><trkpt lat="40.964461037274994" lon="15.819258027580318"><ele>411.0</ele><time>2026-04-06T07:11:26Z</time></trkpt><trkpt lat="40.96452623135263" lon="15.819407045809978"><ele>411.0</ele><time>2026-04-06T07:11:27Z</time></trkpt><trkpt lat="40.9645958002551" lon="15.819555760486331"><ele>411.0</ele><time>2026-04-06T07:11:28Z</time></trkpt><trkpt lat="40.964664502641845" lon="15.819676003231685"><ele>411.0</ele><time>2026-04-06T07:11:29Z</time></trkpt><trkpt lat="40.964717351218546" lon="15.819757509087463"><ele>411.0</ele><time>2026-04-06T07:11:30Z</time></trkpt><trkpt lat="40.96479949693608" lon="15.81984444547049"><ele>411.0</ele><time>2026-04-06T07:11:32Z</time></trkpt><trkpt lat="40.9648507977152" lon="15.819899983143976"><ele>411.0</ele><time>2026-04-06T07:11:33Z</time></trkpt><trkpt lat="40.9649124928226" lon="15.81996042653186"><ele>411.0</ele><time>2026-04-06T07:11:34Z</time></trkpt><trkpt lat="40.964983173121965" lon="15.820037332395144"><ele>411.0</ele><time>2026-04-06T07:11:35Z</time></trkpt><trkpt lat="40.965051113682584" lon="15.820123231770488"><ele>411.0</ele><time>2026-04-06T07:11:36Z</time></trkpt><trkpt lat="40.96511332447792" lon="15.820194848459165"><ele>411.0</ele><time>2026-04-06T07:11:37Z</time></trkpt><trkpt lat="40.96516234230705" lon="15.820256865398093"><ele>411.0</ele><time>2026-04-06T07:11:38Z</time></trkpt><trkpt lat="40.96520306883455" lon="15.820324144815105"><ele>411.1666666666667</ele><time>2026-04-06T07:11:39Z</time></trkpt><trkpt lat="40.965265084752104" lon="15.820464500141945"><ele>411.33333333333337</ele><time>2026-04-06T07:11:41Z</time></trkpt><trkpt lat="40.96529756542439" lon="15.820547551059283"><ele>411.5</ele><time>2026-04-06T07:11:42Z</time></trkpt><trkpt lat="40.965314262028" lon="15.820650332392939"><ele>411.6666666666667</ele><time>2026-04-06T07:11:43Z</time></trkpt><trkpt lat="40.96532865830071" lon="15.820763467570528"><ele>411.83333333333337</ele><time>2026-04-06T07:11:44Z</time></trkpt><trkpt lat="40.96534176461976" lon="15.820868244033415"><ele>412.0</ele><time>2026-04-06T07:11:45Z</time></trkpt><trkpt lat="40.965352475263" lon="15.820953868522826"><ele>412.0</ele><time>2026-04-06T07:11:46Z</time></trkpt><trkpt lat="40.965368898107094" lon="15.821096113145126"><ele>412.0</ele><time>2026-04-06T07:11:48Z</time></trkpt><trkpt lat="40.96538917447751" lon="15.821267126812506"><ele>412.0</ele><time>2026-04-06T07:11:50Z</time></trkpt><trkpt lat="40.96540765536771" lon="15.821424293283085"><ele>412.0</ele><time>2026-04-06T07:11:52Z</time></trkpt><trkpt lat="40.965419600195105" lon="15.821526382296204"><ele>412.0</ele><time>2026-04-06T07:11:53Z</time></trkpt><trkpt lat="40.96544640236905" lon="15.821615363448238"><ele>411.99999999999994</ele><time>2026-04-06T07:11:54Z</time></trkpt><trkpt lat="40.965456172619824" lon="15.821718431640024"><ele>412.0</ele><time>2026-04-06T07:11:55Z</time></trkpt><trkpt lat="40.96545033182972" lon="15.82182080405892"><ele>412.0</ele><time>2026-04-06T07:11:56Z</time></trkpt><trkpt lat="40.96546263422097" lon="15.821927605119674"><ele>412.0</ele><time>2026-04-06T07:11:57Z</time></trkpt><trkpt lat="40.96548918848946" lon="15.822021596997653"><ele>412.0</ele><time>2026-04-06T07:11:58Z</time></trkpt><trkpt lat="40.96550027497115" lon="15.822105200037871"><ele>411.99999999999994</ele><time>2026-04-06T07:11:59Z</time></trkpt><trkpt lat="40.96551472980061" lon="15.82219838151531"><ele>412.0</ele><time>2026-04-06T07:12:00Z</time></trkpt><trkpt lat="40.96554278331373" lon="15.822368344529837"><ele>411.1666666666667</ele><time>2026-04-06T07:12:02Z</time></trkpt><trkpt lat="40.96555367015193" lon="15.822462866261844"><ele>410.33333333333337</ele><time>2026-04-06T07:12:03Z</time></trkpt><trkpt lat="40.96556649318755" lon="15.822553639770032"><ele>409.5</ele><time>2026-04-06T07:12:04Z</time></trkpt><trkpt lat="40.96557955966078" lon="15.822643073886137"><ele>408.66666666666663</ele><time>2026-04-06T07:12:05Z</time></trkpt><trkpt lat="40.96559565267106" lon="15.822725183171132"><ele>407.8333333333333</ele><time>2026-04-06T07:12:06Z</time></trkpt><trkpt lat="40.965627978676984" lon="15.822835136318597"><ele>407.0</ele><time>2026-04-06T07:12:07Z</time></trkpt><trkpt lat="40.96564833834116" lon="15.822968995970761"><ele>407.0</ele><time>2026-04-06T07:12:08Z</time></trkpt><trkpt lat="40.965688561988614" lon="15.823089489079418"><ele>407.0</ele><time>2026-04-06T07:12:09Z</time></trkpt><trkpt lat="40.965745697569275" lon="15.823204044813084"><ele>407.0</ele><time>2026-04-06T07:12:10Z</time></trkpt><trkpt lat="40.965771314934905" lon="15.823329425981605"><ele>407.0</ele><time>2026-04-06T07:12:11Z</time></trkpt><trkpt lat="40.96580429060907" lon="15.823425034262684"><ele>407.0</ele><time>2026-04-06T07:12:12Z</time></trkpt><trkpt lat="40.96583934777042" lon="15.823521064787466"><ele>407.3333333333333</ele><time>2026-04-06T07:12:13Z</time></trkpt><trkpt lat="40.96587128704661" lon="15.823609023383884"><ele>407.66666666666663</ele><time>2026-04-06T07:12:14Z</time></trkpt><trkpt lat="40.96589990972513" lon="15.823686988629177"><ele>408.0</ele><time>2026-04-06T07:12:15Z</time></trkpt><trkpt lat="40.96596531984042" lon="15.82381590995621"><ele>408.33333333333337</ele><time>2026-04-06T07:12:17Z</time></trkpt><trkpt lat="40.96600343944226" lon="15.823964106743354"><ele>408.6666666666667</ele><time>2026-04-06T07:12:19Z</time></trkpt><trkpt lat="40.96603245120071" lon="15.8240409162818"><ele>409.0</ele><time>2026-04-06T07:12:20Z</time></trkpt><trkpt lat="40.96607517457689" lon="15.824103750199333"><ele>409.0</ele><time>2026-04-06T07:12:21Z</time></trkpt><trkpt lat="40.9661268348653" lon="15.82424153507037"><ele>409.0</ele><time>2026-04-06T07:12:23Z</time></trkpt><trkpt lat="40.966183223102696" lon="15.824383371005881"><ele>409.0</ele><time>2026-04-06T07:12:25Z</time></trkpt><trkpt lat="40.96623245614223" lon="15.82451819322334"><ele>409.0</ele><time>2026-04-06T07:12:27Z</time></trkpt><trkpt lat="40.96627942269024" lon="15.824643441292757"><ele>408.83333333333337</ele><time>2026-04-06T07:12:29Z</time></trkpt><trkpt lat="40.96632479185404" lon="15.824739119783267"><ele>408.6666666666667</ele><time>2026-04-06T07:12:31Z</time></trkpt><trkpt lat="40.966358012795645" lon="15.824812897791432"><ele>408.5</ele><time>2026-04-06T07:12:32Z</time></trkpt><trkpt lat="40.9663999608185" lon="15.824915390916038"><ele>408.33333333333337</ele><time>2026-04-06T07:12:33Z</time></trkpt><trkpt lat="40.96645529670523" lon="15.825018352407195"><ele>408.1666666666667</ele><time>2026-04-06T07:12:34Z</time></trkpt><trkpt lat="40.96651223031129" lon="15.825109764058993"><ele>408.0</ele><time>2026-04-06T07:12:35Z</time></trkpt><trkpt lat="40.96656711949909" lon="15.825214037602711"><ele>408.0</ele><time>2026-04-06T07:12:36Z</time></trkpt><trkpt lat="40.96663374244099" lon="15.825324477788342"><ele>408.0</ele><time>2026-04-06T07:12:37Z</time></trkpt><trkpt lat="40.96670626317869" lon="15.825436366585897"><ele>408.0</ele><time>2026-04-06T07:12:38Z</time></trkpt><trkpt lat="40.96677493738548" lon="15.825541671544173"><ele>408.0</ele><time>2026-04-06T07:12:39Z</time></trkpt><trkpt lat="40.96683256014903" lon="15.825641461064432"><ele>408.0</ele><time>2026-04-06T07:12:40Z</time></trkpt><trkpt lat="40.966878275069504" lon="15.82573382548347"><ele>408.0</ele><time>2026-04-06T07:12:41Z</time></trkpt><trkpt lat="40.96692328857646" lon="15.82580943548433"><ele>408.0</ele><time>2026-04-06T07:12:42Z</time></trkpt><trkpt lat="40.96699380046582" lon="15.825904414807253"><ele>408.0</ele><time>2026-04-06T07:12:44Z</time></trkpt><trkpt lat="40.96708876414499" lon="15.825915836863592"><ele>408.0</ele><time>2026-04-06T07:12:46Z</time></trkpt><trkpt lat="40.96716662952625" lon="15.825902715713235"><ele>408.0</ele><time>2026-04-06T07:12:47Z</time></trkpt><trkpt lat="40.96726240020613" lon="15.82591686678001"><ele>408.0</ele><time>2026-04-06T07:12:48Z</time></trkpt><trkpt lat="40.967363206378394" lon="15.825960525929645"><ele>408.0</ele><time>2026-04-06T07:12:49Z</time></trkpt><trkpt lat="40.96745737569155" lon="15.826015186601138"><ele>408.0</ele><time>2026-04-06T07:12:50Z</time></trkpt><trkpt lat="40.96752819312416" lon="15.826060456737045"><ele>408.0</ele><time>2026-04-06T07:12:51Z</time></trkpt><trkpt lat="40.96759159121203" lon="15.826097430901854"><ele>408.0</ele><time>2026-04-06T07:12:53Z</time></trkpt><trkpt lat="40.96766427523762" lon="15.826144045175914"><ele>408.0</ele><time>2026-04-06T07:12:55Z</time></trkpt><trkpt lat="40.96773264857787" lon="15.826182991177257"><ele>408.0</ele><time>2026-04-06T07:12:56Z</time></trkpt><trkpt lat="40.96782120994422" lon="15.826222682779878"><ele>408.0</ele><time>2026-04-06T07:12:57Z</time></trkpt><trkpt lat="40.96790926197223" lon="15.82627477128365"><ele>408.0</ele><time>2026-04-06T07:12:58Z</time></trkpt><trkpt lat="40.96799626503672" lon="15.826326554271759"><ele>408.0</ele><time>2026-04-06T07:12:59Z</time></trkpt><trkpt lat="40.96808824905455" lon="15.826372455440186"><ele>408.0</ele><time>2026-04-06T07:13:00Z</time></trkpt><trkpt lat="40.96818114116498" lon="15.826425299801413"><ele>408.0</ele><time>2026-04-06T07:13:01Z</time></trkpt><trkpt lat="40.96827352716839" lon="15.826476779160245"><ele>406.25</ele><time>2026-04-06T07:13:02Z</time></trkpt><trkpt lat="40.96838269830399" lon="15.826540534950752"><ele>404.5</ele><time>2026-04-06T07:13:03Z</time></trkpt><trkpt lat="40.96850053130019" lon="15.82660929955759"><ele>402.75</ele><time>2026-04-06T07:13:04Z</time></trkpt><trkpt lat="40.968622116312105" lon="15.82667807002926"><ele>401.0</ele><time>2026-04-06T07:13:05Z</time></trkpt><trkpt lat="40.96874166859998" lon="15.826743322526223"><ele>401.0</ele><time>2026-04-06T07:13:06Z</time></trkpt><trkpt lat="40.9688460644376" lon="15.826803933876759"><ele>401.0</ele><time>2026-04-06T07:13:07Z</time></trkpt><trkpt lat="40.96895300646444" lon="15.826859246381922"><ele>401.0</ele><time>2026-04-06T07:13:08Z</time></trkpt><trkpt lat="40.96905013655888" lon="15.826918086602372"><ele>401.0</ele><time>2026-04-06T07:13:09Z</time></trkpt><trkpt lat="40.96913993570146" lon="15.826966848846633"><ele>401.0</ele><time>2026-04-06T07:13:10Z</time></trkpt><trkpt lat="40.96922741947167" lon="15.827017650353632"><ele>400.8</ele><time>2026-04-06T07:13:11Z</time></trkpt><trkpt lat="40.96932082148387" lon="15.827071181430556"><ele>400.6</ele><time>2026-04-06T07:13:12Z</time></trkpt><trkpt lat="40.969409760822494" lon="15.827130598263675"><ele>400.4</ele><time>2026-04-06T07:13:13Z</time></trkpt><trkpt lat="40.969469516917975" lon="15.827171415101782"><ele>400.2</ele><time>2026-04-06T07:13:14Z</time></trkpt><trkpt lat="40.969587238274165" lon="15.827253817800498"><ele>400.0</ele><time>2026-04-06T07:13:16Z</time></trkpt><trkpt lat="40.969656229378" lon="15.827318747818925"><ele>400.0</ele><time>2026-04-06T07:13:17Z</time></trkpt><trkpt lat="40.96974157284217" lon="15.827414015152575"><ele>400.0</ele><time>2026-04-06T07:13:18Z</time></trkpt><trkpt lat="40.96983469245917" lon="15.827526456723316"><ele>400.0</ele><time>2026-04-06T07:13:19Z</time></trkpt><trkpt lat="40.969937418963276" lon="15.827665084208844"><ele>400.0</ele><time>2026-04-06T07:13:20Z</time></trkpt><trkpt lat="40.97004256831043" lon="15.827816078528848"><ele>398.33333333333337</ele><time>2026-04-06T07:13:21Z</time></trkpt><trkpt lat="40.970143570772535" lon="15.827967990181648"><ele>396.66666666666663</ele><time>2026-04-06T07:13:22Z</time></trkpt><trkpt lat="40.97024869431573" lon="15.828111420537873"><ele>395.0</ele><time>2026-04-06T07:13:23Z</time></trkpt><trkpt lat="40.970352350441594" lon="15.82825123755325"><ele>395.0</ele><time>2026-04-06T07:13:24Z</time></trkpt><trkpt lat="40.970446431270986" lon="15.828388342652236"><ele>395.0</ele><time>2026-04-06T07:13:25Z</time></trkpt><trkpt lat="40.970537734997436" lon="15.828519950307145"><ele>395.0</ele><time>2026-04-06T07:13:26Z</time></trkpt><trkpt lat="40.9706297836359" lon="15.828643817624016"><ele>395.0</ele><time>2026-04-06T07:13:27Z</time></trkpt><trkpt lat="40.97072357774349" lon="15.828767861553418"><ele>393.8</ele><time>2026-04-06T07:13:28Z</time></trkpt><trkpt lat="40.97080920642074" lon="15.828891111038326"><ele>392.6</ele><time>2026-04-06T07:13:29Z</time></trkpt><trkpt lat="40.97088851614466" lon="15.82900317994451"><ele>391.4</ele><time>2026-04-06T07:13:30Z</time></trkpt><trkpt lat="40.97095925484034" lon="15.829102503899346"><ele>390.2</ele><time>2026-04-06T07:13:31Z</time></trkpt><trkpt lat="40.97102942750638" lon="15.829192306788423"><ele>389.0</ele><time>2026-04-06T07:13:32Z</time></trkpt><trkpt lat="40.971090979673555" lon="15.829280266358515"><ele>386.49999999999994</ele><time>2026-04-06T07:13:33Z</time></trkpt><trkpt lat="40.97113785301381" lon="15.829366731811481"><ele>384.0</ele><time>2026-04-06T07:13:34Z</time></trkpt><trkpt lat="40.97116840974899" lon="15.829454698521063"><ele>381.5</ele><time>2026-04-06T07:13:35Z</time></trkpt><trkpt lat="40.97117476850114" lon="15.829542531765691"><ele>379.0</ele><time>2026-04-06T07:13:36Z</time></trkpt><trkpt lat="40.971159659828004" lon="15.82965853500898"><ele>376.5</ele><time>2026-04-06T07:13:37Z</time></trkpt><trkpt lat="40.971125236729634" lon="15.829785652051266"><ele>374.0</ele><time>2026-04-06T07:13:38Z</time></trkpt><trkpt lat="40.97107850200779" lon="15.829902259677006"><ele>374.0</ele><time>2026-04-06T07:13:39Z</time></trkpt><trkpt lat="40.971035118232074" lon="15.830023654509043"><ele>374.0</ele><time>2026-04-06T07:13:40Z</time></trkpt><trkpt lat="40.97100728172053" lon="15.830124477563873"><ele>374.0</ele><time>2026-04-06T07:13:41Z</time></trkpt><trkpt lat="40.970998855639834" lon="15.830261635432247"><ele>374.0</ele><time>2026-04-06T07:13:43Z</time></trkpt><trkpt lat="40.97107287623534" lon="15.830324047488281"><ele>374.0</ele><time>2026-04-06T07:13:45Z</time></trkpt><trkpt lat="40.971186075423276" lon="15.83026803841461"><ele>374.0</ele><time>2026-04-06T07:13:47Z</time></trkpt><trkpt lat="40.97124338874626" lon="15.830185118261657"><ele>374.0</ele><time>2026-04-06T07:13:48Z</time></trkpt><trkpt lat="40.9712839344462" lon="15.830090708714"><ele>374.0</ele><time>2026-04-06T07:13:49Z</time></trkpt><trkpt lat="40.97133686033846" lon="15.830005176152097"><ele>374.0</ele><time>2026-04-06T07:13:50Z</time></trkpt><trkpt lat="40.971413033617814" lon="15.829889194191939"><ele>374.0</ele><time>2026-04-06T07:13:52Z</time></trkpt><trkpt lat="40.97152083602276" lon="15.829913093627086"><ele>374.0</ele><time>2026-04-06T07:13:54Z</time></trkpt><trkpt lat="40.97156594296203" lon="15.829992596000565"><ele>374.0</ele><time>2026-04-06T07:13:55Z</time></trkpt><trkpt lat="40.97159666029513" lon="15.83010562903821"><ele>374.0</ele><time>2026-04-06T07:13:56Z</time></trkpt><trkpt lat="40.97162159534226" lon="15.830237004819743"><ele>374.0</ele><time>2026-04-06T07:13:57Z</time></trkpt><trkpt lat="40.971651265708836" lon="15.830391762372235"><ele>374.0</ele><time>2026-04-06T07:13:58Z</time></trkpt><trkpt lat="40.97167025798505" lon="15.830554971260602"><ele>372.75</ele><time>2026-04-06T07:13:59Z</time></trkpt><trkpt lat="40.971681821089" lon="15.830731811304789"><ele>371.5</ele><time>2026-04-06T07:14:00Z</time></trkpt><trkpt lat="40.97168544436169" lon="15.830905037596759"><ele>370.25</ele><time>2026-04-06T07:14:01Z</time></trkpt><trkpt lat="40.971688803967396" lon="15.831087973212703"><ele>369.0</ele><time>2026-04-06T07:14:02Z</time></trkpt><trkpt lat="40.97169614621889" lon="15.831265030700294"><ele>366.0</ele><time>2026-04-06T07:14:03Z</time></trkpt><trkpt lat="40.97169136721012" lon="15.831430638219055"><ele>363.0</ele><time>2026-04-06T07:14:04Z</time></trkpt><trkpt lat="40.97169856394707" lon="15.83158226390293"><ele>360.0</ele><time>2026-04-06T07:14:05Z</time></trkpt><trkpt lat="40.97171539327586" lon="15.831717157099417"><ele>357.0</ele><time>2026-04-06T07:14:06Z</time></trkpt><trkpt lat="40.97171059050038" lon="15.831838813233363"><ele>354.0</ele><time>2026-04-06T07:14:07Z</time></trkpt><trkpt lat="40.97171294961246" lon="15.831954830100411"><ele>354.0</ele><time>2026-04-06T07:14:08Z</time></trkpt><trkpt lat="40.97172598660945" lon="15.832067259358864"><ele>354.0</ele><time>2026-04-06T07:14:09Z</time></trkpt><trkpt lat="40.97175870067786" lon="15.832154319667971"><ele>354.0</ele><time>2026-04-06T07:14:10Z</time></trkpt><trkpt lat="40.97181206707535" lon="15.832227087426674"><ele>354.0</ele><time>2026-04-06T07:14:11Z</time></trkpt><trkpt lat="40.97187553935036" lon="15.832263852849914"><ele>354.0</ele><time>2026-04-06T07:14:12Z</time></trkpt><trkpt lat="40.97194923437392" lon="15.832265021654527"><ele>354.0</ele><time>2026-04-06T07:14:13Z</time></trkpt><trkpt lat="40.972050881674434" lon="15.832235079306013"><ele>354.0</ele><time>2026-04-06T07:14:14Z</time></trkpt><trkpt lat="40.97217637709584" lon="15.832184171544844"><ele>354.0</ele><time>2026-04-06T07:14:15Z</time></trkpt><trkpt lat="40.97231428820176" lon="15.832126693891906"><ele>354.0</ele><time>2026-04-06T07:14:16Z</time></trkpt><trkpt lat="40.972460011208064" lon="15.832064513473002"><ele>354.0</ele><time>2026-04-06T07:14:17Z</time></trkpt><trkpt lat="40.97259447378703" lon="15.832007088451492"><ele>352.4</ele><time>2026-04-06T07:14:18Z</time></trkpt><trkpt lat="40.97270628426875" lon="15.831943076205762"><ele>350.79999999999995</ele><time>2026-04-06T07:14:19Z</time></trkpt><trkpt lat="40.972811324118254" lon="15.831931857930975"><ele>349.20000000000005</ele><time>2026-04-06T07:14:20Z</time></trkpt><trkpt lat="40.97290048331559" lon="15.831949827290215"><ele>347.6</ele><time>2026-04-06T07:14:21Z</time></trkpt><trkpt lat="40.972982964429434" lon="15.83200204196852"><ele>346.0</ele><time>2026-04-06T07:14:22Z</time></trkpt><trkpt lat="40.97305555537261" lon="15.832114407972387"><ele>346.0</ele><time>2026-04-06T07:14:23Z</time></trkpt><trkpt lat="40.973155866407446" lon="15.832224261124761"><ele>346.0</ele><time>2026-04-06T07:14:24Z</time></trkpt><trkpt lat="40.97326197318601" lon="15.832358362834224"><ele>346.0</ele><time>2026-04-06T07:14:25Z</time></trkpt><trkpt lat="40.97337746382807" lon="15.832490324641665"><ele>346.0</ele><time>2026-04-06T07:14:26Z</time></trkpt><trkpt lat="40.97350440516268" lon="15.83263087575738"><ele>345.66666666666663</ele><time>2026-04-06T07:14:27Z</time></trkpt><trkpt lat="40.97363440892142" lon="15.832778655683335"><ele>345.3333333333333</ele><time>2026-04-06T07:14:28Z</time></trkpt><trkpt lat="40.97377107498806" lon="15.83293440460198"><ele>345.0</ele><time>2026-04-06T07:14:29Z</time></trkpt><trkpt lat="40.9739144073153" lon="15.833095167081163"><ele>345.0</ele><time>2026-04-06T07:14:30Z</time></trkpt><trkpt lat="40.974058692555914" lon="15.833261725587972"><ele>345.0</ele><time>2026-04-06T07:14:31Z</time></trkpt><trkpt lat="40.97420877683568" lon="15.833435620696205"><ele>345.0</ele><time>2026-04-06T07:14:32Z</time></trkpt><trkpt lat="40.97436280591134" lon="15.833609886579675"><ele>344.3333333333333</ele><time>2026-04-06T07:14:33Z</time></trkpt><trkpt lat="40.97451830923349" lon="15.833787669051596"><ele>343.66666666666663</ele><time>2026-04-06T07:14:34Z</time></trkpt><trkpt lat="40.97466926295162" lon="15.833961197873208"><ele>343.0</ele><time>2026-04-06T07:14:35Z</time></trkpt><trkpt lat="40.97482257100066" lon="15.834139334075989"><ele>342.66666666666663</ele><time>2026-04-06T07:14:36Z</time></trkpt><trkpt lat="40.97497462566659" lon="15.834313791570162"><ele>342.3333333333333</ele><time>2026-04-06T07:14:37Z</time></trkpt><trkpt lat="40.97512215669591" lon="15.834481429728852"><ele>342.0</ele><time>2026-04-06T07:14:38Z</time></trkpt><trkpt lat="40.97525829439941" lon="15.834637420329727"><ele>341.3333333333333</ele><time>2026-04-06T07:14:39Z</time></trkpt><trkpt lat="40.975390736628476" lon="15.834790093768303"><ele>340.66666666666663</ele><time>2026-04-06T07:14:40Z</time></trkpt><trkpt lat="40.975521526923764" lon="15.834939575531237"><ele>340.0</ele><time>2026-04-06T07:14:41Z</time></trkpt><trkpt lat="40.97564627691017" lon="15.835082593965973"><ele>340.3333333333333</ele><time>2026-04-06T07:14:42Z</time></trkpt><trkpt lat="40.975768608884366" lon="15.835219016625802"><ele>340.6666666666667</ele><time>2026-04-06T07:14:43Z</time></trkpt><trkpt lat="40.97588206153366" lon="15.835349963343829"><ele>341.0</ele><time>2026-04-06T07:14:44Z</time></trkpt><trkpt lat="40.97599113291213" lon="15.835478753815881"><ele>341.0</ele><time>2026-04-06T07:14:45Z</time></trkpt><trkpt lat="40.97609621385922" lon="15.83561641752246"><ele>341.0</ele><time>2026-04-06T07:14:46Z</time></trkpt><trkpt lat="40.97619485262069" lon="15.835770820429355"><ele>341.0</ele><time>2026-04-06T07:14:47Z</time></trkpt><trkpt lat="40.97628864011813" lon="15.835945702206912"><ele>339.0</ele><time>2026-04-06T07:14:48Z</time></trkpt><trkpt lat="40.97637123207077" lon="15.83614041137468"><ele>337.0</ele><time>2026-04-06T07:14:49Z</time></trkpt><trkpt lat="40.97644122861822" lon="15.836327980987255"><ele>335.0</ele><time>2026-04-06T07:14:50Z</time></trkpt><trkpt lat="40.97650768938698" lon="15.836498374184261"><ele>335.0</ele><time>2026-04-06T07:14:51Z</time></trkpt><trkpt lat="40.976562330577906" lon="15.836651254468626"><ele>335.0</ele><time>2026-04-06T07:14:52Z</time></trkpt><trkpt lat="40.97659738654674" lon="15.836784879427075"><ele>335.0</ele><time>2026-04-06T07:14:53Z</time></trkpt><trkpt lat="40.97659956882365" lon="15.836907135794368"><ele>335.0</ele><time>2026-04-06T07:14:54Z</time></trkpt><trkpt lat="40.97658042773648" lon="15.837018544718747"><ele>335.0</ele><time>2026-04-06T07:14:55Z</time></trkpt><trkpt lat="40.976536614306866" lon="15.83709901563447"><ele>333.0</ele><time>2026-04-06T07:14:56Z</time></trkpt><trkpt lat="40.97647205134208" lon="15.837143509821043"><ele>331.0</ele><time>2026-04-06T07:14:57Z</time></trkpt><trkpt lat="40.976382744368976" lon="15.837141292643466"><ele>329.0</ele><time>2026-04-06T07:14:58Z</time></trkpt><trkpt lat="40.97632333016146" lon="15.837189286390023"><ele>327.0</ele><time>2026-04-06T07:14:59Z</time></trkpt><trkpt lat="40.9762816830696" lon="15.837328987130755"><ele>325.0</ele><time>2026-04-06T07:15:01Z</time></trkpt><trkpt lat="40.97631537917442" lon="15.837401531630622"><ele>323.0</ele><time>2026-04-06T07:15:02Z</time></trkpt><trkpt lat="40.97638881503601" lon="15.837465877892084"><ele>323.0</ele><time>2026-04-06T07:15:03Z</time></trkpt><trkpt lat="40.976485838145926" lon="15.837537506427516"><ele>323.0</ele><time>2026-04-06T07:15:04Z</time></trkpt><trkpt lat="40.97659130726519" lon="15.837637708332627"><ele>323.0</ele><time>2026-04-06T07:15:05Z</time></trkpt><trkpt lat="40.976700608524204" lon="15.83776726548011"><ele>323.0</ele><time>2026-04-06T07:15:06Z</time></trkpt><trkpt lat="40.97681872599672" lon="15.837918960116964"><ele>320.6666666666667</ele><time>2026-04-06T07:15:07Z</time></trkpt><trkpt lat="40.97693872465184" lon="15.83807887392676"><ele>318.3333333333333</ele><time>2026-04-06T07:15:08Z</time></trkpt><trkpt lat="40.97705972579969" lon="15.838250114630485"><ele>316.0</ele><time>2026-04-06T07:15:09Z</time></trkpt><trkpt lat="40.977184391610145" lon="15.838427446195427"><ele>316.3333333333333</ele><time>2026-04-06T07:15:10Z</time></trkpt><trkpt lat="40.97731648599934" lon="15.838610549613211"><ele>316.6666666666667</ele><time>2026-04-06T07:15:11Z</time></trkpt><trkpt lat="40.97745066915815" lon="15.83880729599019"><ele>317.0</ele><time>2026-04-06T07:15:12Z</time></trkpt><trkpt lat="40.97758939973511" lon="15.839008777938545"><ele>317.0</ele><time>2026-04-06T07:15:13Z</time></trkpt><trkpt lat="40.97773476785001" lon="15.839205056622925"><ele>317.0</ele><time>2026-04-06T07:15:14Z</time></trkpt><trkpt lat="40.97788451125564" lon="15.839405227024898"><ele>317.0</ele><time>2026-04-06T07:15:15Z</time></trkpt><trkpt lat="40.97802203976902" lon="15.839602321694686"><ele>313.6666666666667</ele><time>2026-04-06T07:15:16Z</time></trkpt><trkpt lat="40.9781550271473" lon="15.839792305602002"><ele>310.3333333333333</ele><time>2026-04-06T07:15:17Z</time></trkpt><trkpt lat="40.97828659605945" lon="15.83997342878838"><ele>307.0</ele><time>2026-04-06T07:15:18Z</time></trkpt><trkpt lat="40.97841595924634" lon="15.840148561351302"><ele>307.0</ele><time>2026-04-06T07:15:19Z</time></trkpt><trkpt lat="40.97854024952293" lon="15.840321194089407"><ele>307.0</ele><time>2026-04-06T07:15:20Z</time></trkpt><trkpt lat="40.97866197601326" lon="15.840494610678636"><ele>307.0</ele><time>2026-04-06T07:15:21Z</time></trkpt><trkpt lat="40.978777915744566" lon="15.84066367169636"><ele>307.0</ele><time>2026-04-06T07:15:22Z</time></trkpt><trkpt lat="40.97888571740124" lon="15.840824040008282"><ele>307.0</ele><time>2026-04-06T07:15:23Z</time></trkpt><trkpt lat="40.97898965029585" lon="15.840970319646745"><ele>307.0</ele><time>2026-04-06T07:15:24Z</time></trkpt><trkpt lat="40.97907846684203" lon="15.841095802880062"><ele>307.0</ele><time>2026-04-06T07:15:25Z</time></trkpt><trkpt lat="40.979150924780505" lon="15.841201207936892"><ele>303.8</ele><time>2026-04-06T07:15:26Z</time></trkpt><trkpt lat="40.979218958949424" lon="15.841298674826355"><ele>300.6</ele><time>2026-04-06T07:15:27Z</time></trkpt><trkpt lat="40.97927458705653" lon="15.841377026630969"><ele>297.40000000000003</ele><time>2026-04-06T07:15:28Z</time></trkpt><trkpt lat="40.97929715183978" lon="15.841509825531022"><ele>294.2</ele><time>2026-04-06T07:15:30Z</time></trkpt><trkpt lat="40.979217634658134" lon="15.841598653211735"><ele>291.0</ele><time>2026-04-06T07:15:32Z</time></trkpt><trkpt lat="40.97911961940011" lon="15.8415520865851"><ele>290.8333333333333</ele><time>2026-04-06T07:15:33Z</time></trkpt><trkpt lat="40.979025067888806" lon="15.841559505502635"><ele>290.6666666666667</ele><time>2026-04-06T07:15:34Z</time></trkpt><trkpt lat="40.97893355388809" lon="15.84154749252602"><ele>290.5</ele><time>2026-04-06T07:15:35Z</time></trkpt><trkpt lat="40.97886244122504" lon="15.841584362881777"><ele>290.33333333333337</ele><time>2026-04-06T07:15:36Z</time></trkpt><trkpt lat="40.978806609354734" lon="15.841673720157745"><ele>290.1666666666667</ele><time>2026-04-06T07:15:37Z</time></trkpt><trkpt lat="40.97877644508013" lon="15.841788492525062"><ele>290.0</ele><time>2026-04-06T07:15:38Z</time></trkpt><trkpt lat="40.97878195436087" lon="15.84191962258612"><ele>288.25</ele><time>2026-04-06T07:15:39Z</time></trkpt><trkpt lat="40.97881642175312" lon="15.842057282506216"><ele>286.5</ele><time>2026-04-06T07:15:40Z</time></trkpt><trkpt lat="40.97886610148098" lon="15.842212954868604"><ele>284.75</ele><time>2026-04-06T07:15:41Z</time></trkpt><trkpt lat="40.97891560531905" lon="15.842389252738727"><ele>283.0</ele><time>2026-04-06T07:15:42Z</time></trkpt><trkpt lat="40.97895967506592" lon="15.842579439871963"><ele>283.3333333333333</ele><time>2026-04-06T07:15:43Z</time></trkpt><trkpt lat="40.97901401855985" lon="15.842780312506486"><ele>283.6666666666667</ele><time>2026-04-06T07:15:44Z</time></trkpt><trkpt lat="40.97904949936077" lon="15.842987033709276"><ele>284.0</ele><time>2026-04-06T07:15:45Z</time></trkpt><trkpt lat="40.979098050716956" lon="15.843193741004837"><ele>284.0</ele><time>2026-04-06T07:15:46Z</time></trkpt><trkpt lat="40.97915355219186" lon="15.843394363587235"><ele>284.0</ele><time>2026-04-06T07:15:47Z</time></trkpt><trkpt lat="40.979189114835954" lon="15.843583009245686"><ele>284.0</ele><time>2026-04-06T07:15:48Z</time></trkpt><trkpt lat="40.97923203683845" lon="15.843757866534505"><ele>284.0</ele><time>2026-04-06T07:15:49Z</time></trkpt><trkpt lat="40.97926831536263" lon="15.843913683268141"><ele>283.5</ele><time>2026-04-06T07:15:50Z</time></trkpt><trkpt lat="40.97929292648275" lon="15.844065398489033"><ele>283.0</ele><time>2026-04-06T07:15:51Z</time></trkpt><trkpt lat="40.97929178520452" lon="15.844218717992964"><ele>282.5</ele><time>2026-04-06T07:15:52Z</time></trkpt><trkpt lat="40.97924947192313" lon="15.844383613295905"><ele>282.0</ele><time>2026-04-06T07:15:53Z</time></trkpt><trkpt lat="40.97919673050521" lon="15.844556353768578"><ele>282.0</ele><time>2026-04-06T07:15:54Z</time></trkpt><trkpt lat="40.979136591937824" lon="15.844742874617"><ele>282.0</ele><time>2026-04-06T07:15:55Z</time></trkpt><trkpt lat="40.97907354494769" lon="15.844940044437879"><ele>282.0</ele><time>2026-04-06T07:15:56Z</time></trkpt><trkpt lat="40.97900238799964" lon="15.84513332493923"><ele>281.3333333333333</ele><time>2026-04-06T07:15:57Z</time></trkpt><trkpt lat="40.97892627824926" lon="15.845334868609234"><ele>280.66666666666663</ele><time>2026-04-06T07:15:58Z</time></trkpt><trkpt lat="40.97885536095497" lon="15.845544230006482"><ele>280.0</ele><time>2026-04-06T07:15:59Z</time></trkpt><trkpt lat="40.97879736746326" lon="15.845752734567872"><ele>280.0</ele><time>2026-04-06T07:16:00Z</time></trkpt><trkpt lat="40.97875632574964" lon="15.845964605299686"><ele>280.0</ele><time>2026-04-06T07:16:01Z</time></trkpt><trkpt lat="40.97871980063812" lon="15.846192032217932"><ele>280.0</ele><time>2026-04-06T07:16:02Z</time></trkpt><trkpt lat="40.978676487233784" lon="15.846421827902116"><ele>280.0</ele><time>2026-04-06T07:16:03Z</time></trkpt><trkpt lat="40.97862578312125" lon="15.846641253973194"><ele>280.0</ele><time>2026-04-06T07:16:04Z</time></trkpt><trkpt lat="40.978567085036374" lon="15.846859090758407"><ele>280.0</ele><time>2026-04-06T07:16:05Z</time></trkpt><trkpt lat="40.97851177049478" lon="15.847053987964943"><ele>280.0</ele><time>2026-04-06T07:16:06Z</time></trkpt><trkpt lat="40.978466141291634" lon="15.847220433888731"><ele>280.0</ele><time>2026-04-06T07:16:07Z</time></trkpt><trkpt lat="40.97842892692566" lon="15.847356864199861"><ele>280.0</ele><time>2026-04-06T07:16:08Z</time></trkpt><trkpt lat="40.9783938147941" lon="15.847482080481639"><ele>280.0</ele><time>2026-04-06T07:16:09Z</time></trkpt><trkpt lat="40.97836837747005" lon="15.84761208233208"><ele>280.0</ele><time>2026-04-06T07:16:10Z</time></trkpt><trkpt lat="40.978328750917825" lon="15.847724946003577"><ele>280.4</ele><time>2026-04-06T07:16:11Z</time></trkpt><trkpt lat="40.978300552874565" lon="15.847829758102852"><ele>280.8</ele><time>2026-04-06T07:16:12Z</time></trkpt><trkpt lat="40.97828825322101" lon="15.847930625250394"><ele>281.2</ele><time>2026-04-06T07:16:13Z</time></trkpt><trkpt lat="40.97826463262653" lon="15.848016525696561"><ele>281.6</ele><time>2026-04-06T07:16:14Z</time></trkpt><trkpt lat="40.978214155789026" lon="15.848150897061187"><ele>282.0</ele><time>2026-04-06T07:16:16Z</time></trkpt><trkpt lat="40.97827688818266" lon="15.848334513071531"><ele>282.0</ele><time>2026-04-06T07:16:18Z</time></trkpt><trkpt lat="40.97832897494666" lon="15.848459182990657"><ele>282.0</ele><time>2026-04-06T07:16:20Z</time></trkpt><trkpt lat="40.978369074368814" lon="15.84856661102449"><ele>282.0</ele><time>2026-04-06T07:16:23Z</time></trkpt><trkpt lat="40.978382795045874" lon="15.848735581667514"><ele>282.0</ele><time>2026-04-06T07:16:25Z</time></trkpt><trkpt lat="40.978361823261" lon="15.84884391345632"><ele>282.0</ele><time>2026-04-06T07:16:26Z</time></trkpt><trkpt lat="40.978313881771996" lon="15.848972190516072"><ele>281.5</ele><time>2026-04-06T07:16:27Z</time></trkpt><trkpt lat="40.978255157512685" lon="15.849108494250027"><ele>281.0</ele><time>2026-04-06T07:16:28Z</time></trkpt><trkpt lat="40.978197974437094" lon="15.849269951892497"><ele>280.5</ele><time>2026-04-06T07:16:29Z</time></trkpt><trkpt lat="40.97814409131259" lon="15.849445576788073"><ele>280.0</ele><time>2026-04-06T07:16:30Z</time></trkpt><trkpt lat="40.97808244276506" lon="15.849631474054625"><ele>279.66666666666663</ele><time>2026-04-06T07:16:31Z</time></trkpt><trkpt lat="40.97801563364177" lon="15.849821329419015"><ele>279.3333333333333</ele><time>2026-04-06T07:16:32Z</time></trkpt><trkpt lat="40.97795087951493" lon="15.850022528335058"><ele>279.0</ele><time>2026-04-06T07:16:33Z</time></trkpt><trkpt lat="40.97788843115171" lon="15.850230118190344"><ele>278.6666666666667</ele><time>2026-04-06T07:16:34Z</time></trkpt><trkpt lat="40.977821024024436" lon="15.850443344237084"><ele>278.33333333333337</ele><time>2026-04-06T07:16:35Z</time></trkpt><trkpt lat="40.97775273615017" lon="15.850658473639422"><ele>278.0</ele><time>2026-04-06T07:16:36Z</time></trkpt><trkpt lat="40.977687622250365" lon="15.850879364972215"><ele>276.6666666666667</ele><time>2026-04-06T07:16:37Z</time></trkpt><trkpt lat="40.977629734725745" lon="15.85109783068015"><ele>275.3333333333333</ele><time>2026-04-06T07:16:38Z</time></trkpt><trkpt lat="40.977575238566075" lon="15.851309514940507"><ele>274.0</ele><time>2026-04-06T07:16:39Z</time></trkpt><trkpt lat="40.97752086415033" lon="15.851514480302274"><ele>275.0</ele><time>2026-04-06T07:16:40Z</time></trkpt><trkpt lat="40.977463316061716" lon="15.85172756086814"><ele>276.0</ele><time>2026-04-06T07:16:41Z</time></trkpt><trkpt lat="40.97740628610178" lon="15.85191802488641"><ele>277.0</ele><time>2026-04-06T07:16:42Z</time></trkpt><trkpt lat="40.97735598324341" lon="15.852124543887909"><ele>277.0</ele><time>2026-04-06T07:16:43Z</time></trkpt><trkpt lat="40.9773053054793" lon="15.85233071711076"><ele>277.0</ele><time>2026-04-06T07:16:44Z</time></trkpt><trkpt lat="40.97724453567641" lon="15.852536249407011"><ele>277.0</ele><time>2026-04-06T07:16:45Z</time></trkpt><trkpt lat="40.977185928623186" lon="15.85274460282475"><ele>277.5</ele><time>2026-04-06T07:16:46Z</time></trkpt><trkpt lat="40.977134570375654" lon="15.852943875647439"><ele>278.0</ele><time>2026-04-06T07:16:47Z</time></trkpt><trkpt lat="40.97709361082293" lon="15.853120226459287"><ele>278.5</ele><time>2026-04-06T07:16:48Z</time></trkpt><trkpt lat="40.97706724190103" lon="15.853263670427692"><ele>279.0</ele><time>2026-04-06T07:16:49Z</time></trkpt><trkpt lat="40.97705615810965" lon="15.853385315340645"><ele>279.5</ele><time>2026-04-06T07:16:50Z</time></trkpt><trkpt lat="40.977067695661" lon="15.853518127335986"><ele>280.0</ele><time>2026-04-06T07:16:51Z</time></trkpt><trkpt lat="40.97710151293845" lon="15.85365965731625"><ele>280.5</ele><time>2026-04-06T07:16:52Z</time></trkpt><trkpt lat="40.977152445645025" lon="15.853822947662708"><ele>281.0</ele><time>2026-04-06T07:16:53Z</time></trkpt><trkpt lat="40.97720525963058" lon="15.853998683605845"><ele>281.0</ele><time>2026-04-06T07:16:54Z</time></trkpt><trkpt lat="40.97725294793499" lon="15.854187248425879"><ele>281.0</ele><time>2026-04-06T07:16:55Z</time></trkpt><trkpt lat="40.977301365607566" lon="15.8543874627083"><ele>281.0</ele><time>2026-04-06T07:16:56Z</time></trkpt><trkpt lat="40.97735460295589" lon="15.854598228611296"><ele>280.6666666666667</ele><time>2026-04-06T07:16:57Z</time></trkpt><trkpt lat="40.97740793083233" lon="15.85480938008272"><ele>280.3333333333333</ele><time>2026-04-06T07:16:58Z</time></trkpt><trkpt lat="40.977460095726485" lon="15.855025687291949"><ele>280.0</ele><time>2026-04-06T07:16:59Z</time></trkpt><trkpt lat="40.977511906571976" lon="15.855249752072323"><ele>279.0</ele><time>2026-04-06T07:17:00Z</time></trkpt><trkpt lat="40.97757149364606" lon="15.855478570754912"><ele>278.0</ele><time>2026-04-06T07:17:01Z</time></trkpt><trkpt lat="40.97763261538292" lon="15.855710494103636"><ele>277.0</ele><time>2026-04-06T07:17:02Z</time></trkpt><trkpt lat="40.97769518924319" lon="15.855948465046614"><ele>278.0</ele><time>2026-04-06T07:17:03Z</time></trkpt><trkpt lat="40.97775188436291" lon="15.856185434312506"><ele>279.0</ele><time>2026-04-06T07:17:04Z</time></trkpt><trkpt lat="40.97780465645552" lon="15.85642695923894"><ele>280.0</ele><time>2026-04-06T07:17:05Z</time></trkpt><trkpt lat="40.97785585874683" lon="15.856669253624224"><ele>280.66666666666663</ele><time>2026-04-06T07:17:06Z</time></trkpt><trkpt lat="40.97791322009464" lon="15.85691455073369"><ele>281.3333333333333</ele><time>2026-04-06T07:17:07Z</time></trkpt><trkpt lat="40.97797267773266" lon="15.857160965318924"><ele>282.0</ele><time>2026-04-06T07:17:08Z</time></trkpt><trkpt lat="40.97803358864321" lon="15.857410406376845"><ele>283.0</ele><time>2026-04-06T07:17:09Z</time></trkpt><trkpt lat="40.978095172740524" lon="15.857658490391257"><ele>284.0</ele><time>2026-04-06T07:17:10Z</time></trkpt><trkpt lat="40.97815455223853" lon="15.857906829909524"><ele>285.0</ele><time>2026-04-06T07:17:11Z</time></trkpt><trkpt lat="40.97821196177019" lon="15.858156346578063"><ele>285.0</ele><time>2026-04-06T07:17:12Z</time></trkpt><trkpt lat="40.97827114126763" lon="15.858406122025393"><ele>285.0</ele><time>2026-04-06T07:17:13Z</time></trkpt><trkpt lat="40.978331043037976" lon="15.85865308159131"><ele>285.0</ele><time>2026-04-06T07:17:14Z</time></trkpt><trkpt lat="40.978391801184564" lon="15.858898762613615"><ele>288.6666666666667</ele><time>2026-04-06T07:17:15Z</time></trkpt><trkpt lat="40.978451843512865" lon="15.859147685267864"><ele>292.33333333333337</ele><time>2026-04-06T07:17:16Z</time></trkpt><trkpt lat="40.97850669513757" lon="15.859390473671198"><ele>296.0</ele><time>2026-04-06T07:17:17Z</time></trkpt><trkpt lat="40.97856478856297" lon="15.859631743251999"><ele>297.33333333333337</ele><time>2026-04-06T07:17:18Z</time></trkpt><trkpt lat="40.9786212259468" lon="15.859868017445027"><ele>298.6666666666667</ele><time>2026-04-06T07:17:19Z</time></trkpt><trkpt lat="40.97868228386579" lon="15.860101549739069"><ele>300.0</ele><time>2026-04-06T07:17:20Z</time></trkpt><trkpt lat="40.97874551258029" lon="15.860333229116367"><ele>301.0</ele><time>2026-04-06T07:17:21Z</time></trkpt><trkpt lat="40.978806242908284" lon="15.860560748885257"><ele>302.0</ele><time>2026-04-06T07:17:22Z</time></trkpt><trkpt lat="40.97886144821544" lon="15.860776686873962"><ele>303.0</ele><time>2026-04-06T07:17:23Z</time></trkpt><trkpt lat="40.97892129005027" lon="15.860985917110316"><ele>303.6</ele><time>2026-04-06T07:17:24Z</time></trkpt><trkpt lat="40.978972732755004" lon="15.861148774167072"><ele>304.20000000000005</ele><time>2026-04-06T07:17:25Z</time></trkpt><trkpt lat="40.979005291116344" lon="15.861275697799702"><ele>304.8</ele><time>2026-04-06T07:17:26Z</time></trkpt><trkpt lat="40.97900664867142" lon="15.861375669502229"><ele>305.40000000000003</ele><time>2026-04-06T07:17:27Z</time></trkpt><trkpt lat="40.97897288652409" lon="15.86146599857713"><ele>306.0</ele><time>2026-04-06T07:17:28Z</time></trkpt><trkpt lat="40.97890369805652" lon="15.861561605284802"><ele>306.0</ele><time>2026-04-06T07:17:29Z</time></trkpt><trkpt lat="40.97881753791582" lon="15.861645437898142"><ele>306.0</ele><time>2026-04-06T07:17:30Z</time></trkpt><trkpt lat="40.978728343788546" lon="15.86175118542602"><ele>306.0</ele><time>2026-04-06T07:17:31Z</time></trkpt><trkpt lat="40.97865276547045" lon="15.86188396192416"><ele>306.0</ele><time>2026-04-06T07:17:32Z</time></trkpt><trkpt lat="40.97859107887387" lon="15.86204342907249"><ele>309.25</ele><time>2026-04-06T07:17:33Z</time></trkpt><trkpt lat="40.97854496738193" lon="15.862218545014139"><ele>312.5</ele><time>2026-04-06T07:17:34Z</time></trkpt><trkpt lat="40.978514843471295" lon="15.8624049521155"><ele>315.75</ele><time>2026-04-06T07:17:35Z</time></trkpt><trkpt lat="40.978500471027616" lon="15.862602977014532"><ele>319.0</ele><time>2026-04-06T07:17:36Z</time></trkpt><trkpt lat="40.978502879645134" lon="15.86280441863042"><ele>321.66666666666663</ele><time>2026-04-06T07:17:37Z</time></trkpt><trkpt lat="40.97851626349294" lon="15.863005288646754"><ele>324.3333333333333</ele><time>2026-04-06T07:17:38Z</time></trkpt><trkpt lat="40.97853534425447" lon="15.863210106129621"><ele>327.0</ele><time>2026-04-06T07:17:39Z</time></trkpt><trkpt lat="40.97855351736293" lon="15.863412543758052"><ele>327.0</ele><time>2026-04-06T07:17:40Z</time></trkpt><trkpt lat="40.97857016788941" lon="15.86360125737122"><ele>327.0</ele><time>2026-04-06T07:17:41Z</time></trkpt><trkpt lat="40.978599545398986" lon="15.863783905871628"><ele>327.0</ele><time>2026-04-06T07:17:42Z</time></trkpt><trkpt lat="40.97862838337381" lon="15.863962442267201"><ele>327.0</ele><time>2026-04-06T07:17:43Z</time></trkpt><trkpt lat="40.97862956311176" lon="15.8641432624745"><ele>330.6666666666667</ele><time>2026-04-06T07:17:44Z</time></trkpt><trkpt lat="40.978572039176626" lon="15.864328878598048"><ele>334.33333333333337</ele><time>2026-04-06T07:17:45Z</time></trkpt><trkpt lat="40.97855592695451" lon="15.86452737240194"><ele>338.0</ele><time>2026-04-06T07:17:46Z</time></trkpt><trkpt lat="40.9785274815523" lon="15.864729587404856"><ele>338.0</ele><time>2026-04-06T07:17:47Z</time></trkpt><trkpt lat="40.97851639191811" lon="15.864938055739563"><ele>338.0</ele><time>2026-04-06T07:17:48Z</time></trkpt><trkpt lat="40.978495245521835" lon="15.865147240626758"><ele>338.0</ele><time>2026-04-06T07:17:49Z</time></trkpt><trkpt lat="40.97844589576431" lon="15.865352749538925"><ele>340.0</ele><time>2026-04-06T07:17:50Z</time></trkpt><trkpt lat="40.97837984407565" lon="15.865528403871917"><ele>342.0</ele><time>2026-04-06T07:17:51Z</time></trkpt><trkpt lat="40.978314089778614" lon="15.8657014248567"><ele>344.0</ele><time>2026-04-06T07:17:52Z</time></trkpt><trkpt lat="40.97826819392225" lon="15.865885825541337"><ele>346.0</ele><time>2026-04-06T07:17:53Z</time></trkpt><trkpt lat="40.97825503911195" lon="15.866086669510542"><ele>338.3333333333333</ele><time>2026-04-06T07:17:54Z</time></trkpt><trkpt lat="40.9782671276279" lon="15.866297179464539"><ele>330.6666666666667</ele><time>2026-04-06T07:17:55Z</time></trkpt><trkpt lat="40.97829765789623" lon="15.866507781370892"><ele>323.0</ele><time>2026-04-06T07:17:56Z</time></trkpt><trkpt lat="40.978334461737404" lon="15.866714074764587"><ele>330.6666666666667</ele><time>2026-04-06T07:17:57Z</time></trkpt><trkpt lat="40.97837315813778" lon="15.866922411941397"><ele>338.3333333333333</ele><time>2026-04-06T07:17:58Z</time></trkpt><trkpt lat="40.97840626675659" lon="15.867129561658281"><ele>346.0</ele><time>2026-04-06T07:17:59Z</time></trkpt><trkpt lat="40.97844438160653" lon="15.86733862629475"><ele>346.0</ele><time>2026-04-06T07:18:00Z</time></trkpt><trkpt lat="40.97849706806412" lon="15.867542807429224"><ele>346.0</ele><time>2026-04-06T07:18:01Z</time></trkpt><trkpt lat="40.97855803669779" lon="15.867748237156578"><ele>346.0</ele><time>2026-04-06T07:18:02Z</time></trkpt><trkpt lat="40.978616443282625" lon="15.86795685911887"><ele>344.0</ele><time>2026-04-06T07:18:03Z</time></trkpt><trkpt lat="40.97867767172015" lon="15.868158109765098"><ele>342.0</ele><time>2026-04-06T07:18:04Z</time></trkpt><trkpt lat="40.978754225326824" lon="15.868356406470884"><ele>340.0</ele><time>2026-04-06T07:18:05Z</time></trkpt><trkpt lat="40.978845543638016" lon="15.868546735095968"><ele>337.0</ele><time>2026-04-06T07:18:06Z</time></trkpt><trkpt lat="40.978941940523015" lon="15.868716804905706"><ele>334.0</ele><time>2026-04-06T07:18:07Z</time></trkpt><trkpt lat="40.97902676313453" lon="15.868881821847138"><ele>331.0</ele><time>2026-04-06T07:18:08Z</time></trkpt><trkpt lat="40.9790974541201" lon="15.869030810076634"><ele>328.0</ele><time>2026-04-06T07:18:09Z</time></trkpt><trkpt lat="40.979164698052735" lon="15.869160427761521"><ele>329.25</ele><time>2026-04-06T07:18:10Z</time></trkpt><trkpt lat="40.97925064290788" lon="15.869266469770833"><ele>330.5</ele><time>2026-04-06T07:18:11Z</time></trkpt><trkpt lat="40.97936305837318" lon="15.869335930029244"><ele>331.75</ele><time>2026-04-06T07:18:12Z</time></trkpt><trkpt lat="40.97948640014471" lon="15.869374920859663"><ele>333.0</ele><time>2026-04-06T07:18:13Z</time></trkpt><trkpt lat="40.97960783737075" lon="15.869431124547773"><ele>333.0</ele><time>2026-04-06T07:18:14Z</time></trkpt><trkpt lat="40.97969037485902" lon="15.869525060692318"><ele>333.0</ele><time>2026-04-06T07:18:15Z</time></trkpt><trkpt lat="40.97973480940997" lon="15.869644142361684"><ele>333.0</ele><time>2026-04-06T07:18:16Z</time></trkpt><trkpt lat="40.9797736846004" lon="15.869767461464942"><ele>333.0</ele><time>2026-04-06T07:18:17Z</time></trkpt><trkpt lat="40.97984751081329" lon="15.869864257558454"><ele>333.0</ele><time>2026-04-06T07:18:18Z</time></trkpt><trkpt lat="40.97994874979224" lon="15.86991388011138"><ele>333.5</ele><time>2026-04-06T07:18:19Z</time></trkpt><trkpt lat="40.98005424451428" lon="15.869905619415297"><ele>334.0</ele><time>2026-04-06T07:18:20Z</time></trkpt><trkpt lat="40.98016093541391" lon="15.869849879739924"><ele>334.5</ele><time>2026-04-06T07:18:21Z</time></trkpt><trkpt lat="40.980275853082134" lon="15.869759739524879"><ele>335.0</ele><time>2026-04-06T07:18:22Z</time></trkpt><trkpt lat="40.98040194767974" lon="15.869707544452293"><ele>335.0</ele><time>2026-04-06T07:18:23Z</time></trkpt><trkpt lat="40.980537855010546" lon="15.869635459860527"><ele>335.0</ele><time>2026-04-06T07:18:24Z</time></trkpt><trkpt lat="40.98066912492743" lon="15.869545691351531"><ele>335.0</ele><time>2026-04-06T07:18:25Z</time></trkpt><trkpt lat="40.98082290969229" lon="15.869479610144348"><ele>337.0</ele><time>2026-04-06T07:18:26Z</time></trkpt><trkpt lat="40.980974764776256" lon="15.869427067356236"><ele>339.0</ele><time>2026-04-06T07:18:27Z</time></trkpt><trkpt lat="40.98113301951798" lon="15.869405846679232"><ele>341.0</ele><time>2026-04-06T07:18:28Z</time></trkpt><trkpt lat="40.98129819181471" lon="15.869423177279424"><ele>341.0</ele><time>2026-04-06T07:18:29Z</time></trkpt><trkpt lat="40.98146218866659" lon="15.869478447404504"><ele>341.0</ele><time>2026-04-06T07:18:30Z</time></trkpt><trkpt lat="40.981608130801995" lon="15.86957097214448"><ele>341.0</ele><time>2026-04-06T07:18:31Z</time></trkpt><trkpt lat="40.98174193438235" lon="15.869696005815902"><ele>340.6666666666667</ele><time>2026-04-06T07:18:32Z</time></trkpt><trkpt lat="40.981864170285625" lon="15.869844143453253"><ele>340.3333333333333</ele><time>2026-04-06T07:18:33Z</time></trkpt><trkpt lat="40.98196055180805" lon="15.87000041655092"><ele>340.0</ele><time>2026-04-06T07:18:34Z</time></trkpt><trkpt lat="40.98206871121318" lon="15.870138128627067"><ele>340.0</ele><time>2026-04-06T07:18:35Z</time></trkpt><trkpt lat="40.98221184190219" lon="15.870235406485307"><ele>340.0</ele><time>2026-04-06T07:18:36Z</time></trkpt><trkpt lat="40.98237774863906" lon="15.870289607185002"><ele>340.0</ele><time>2026-04-06T07:18:37Z</time></trkpt><trkpt lat="40.982552933926584" lon="15.870320147516113"><ele>342.0</ele><time>2026-04-06T07:18:38Z</time></trkpt><trkpt lat="40.98273395498145" lon="15.870346851452041"><ele>344.0</ele><time>2026-04-06T07:18:39Z</time></trkpt><trkpt lat="40.982907758443915" lon="15.870377962252816"><ele>346.0</ele><time>2026-04-06T07:18:40Z</time></trkpt><trkpt lat="40.98308900633692" lon="15.870414864373158"><ele>346.0</ele><time>2026-04-06T07:18:41Z</time></trkpt><trkpt lat="40.98326765590658" lon="15.870461102955536"><ele>346.0</ele><time>2026-04-06T07:18:42Z</time></trkpt><trkpt lat="40.983441475443605" lon="15.870509686397574"><ele>346.0</ele><time>2026-04-06T07:18:43Z</time></trkpt><trkpt lat="40.98360974625117" lon="15.870565940290764"><ele>347.3333333333333</ele><time>2026-04-06T07:18:44Z</time></trkpt><trkpt lat="40.983778211724015" lon="15.870643903780948"><ele>348.6666666666667</ele><time>2026-04-06T07:18:45Z</time></trkpt><trkpt lat="40.98394092755353" lon="15.870755949685865"><ele>350.0</ele><time>2026-04-06T07:18:46Z</time></trkpt><trkpt lat="40.98409988327152" lon="15.870888482602274"><ele>350.33333333333337</ele><time>2026-04-06T07:18:47Z</time></trkpt><trkpt lat="40.984264063523874" lon="15.871019999786807"><ele>350.6666666666667</ele><time>2026-04-06T07:18:48Z</time></trkpt><trkpt lat="40.984425989099044" lon="15.871146031403148"><ele>351.0</ele><time>2026-04-06T07:18:49Z</time></trkpt><trkpt lat="40.98457920885164" lon="15.871269811988101"><ele>351.0</ele><time>2026-04-06T07:18:50Z</time></trkpt><trkpt lat="40.98472292367584" lon="15.871384940257713"><ele>351.0</ele><time>2026-04-06T07:18:51Z</time></trkpt><trkpt lat="40.9848486900561" lon="15.871501306265026"><ele>351.0</ele><time>2026-04-06T07:18:52Z</time></trkpt><trkpt lat="40.98496047561913" lon="15.871643737487279"><ele>349.3333333333333</ele><time>2026-04-06T07:18:53Z</time></trkpt><trkpt lat="40.98506279292214" lon="15.87181649082588"><ele>347.66666666666663</ele><time>2026-04-06T07:18:54Z</time></trkpt><trkpt lat="40.985143647467346" lon="15.872019698703806"><ele>346.0</ele><time>2026-04-06T07:18:55Z</time></trkpt><trkpt lat="40.98517518478147" lon="15.872247795689352"><ele>346.0</ele><time>2026-04-06T07:18:56Z</time></trkpt><trkpt lat="40.9852235033519" lon="15.87247544668094"><ele>346.0</ele><time>2026-04-06T07:18:57Z</time></trkpt><trkpt lat="40.985244986930994" lon="15.872705428198234"><ele>346.0</ele><time>2026-04-06T07:18:58Z</time></trkpt><trkpt lat="40.98527379378417" lon="15.87294563745284"><ele>346.3333333333333</ele><time>2026-04-06T07:18:59Z</time></trkpt><trkpt lat="40.985306732792296" lon="15.873187401218082"><ele>346.6666666666667</ele><time>2026-04-06T07:19:00Z</time></trkpt><trkpt lat="40.985340391497694" lon="15.873433703914689"><ele>347.0</ele><time>2026-04-06T07:19:01Z</time></trkpt><trkpt lat="40.9853732361083" lon="15.873676907212243"><ele>348.33333333333337</ele><time>2026-04-06T07:19:02Z</time></trkpt><trkpt lat="40.98541474440614" lon="15.873919975520323"><ele>349.6666666666667</ele><time>2026-04-06T07:19:03Z</time></trkpt><trkpt lat="40.98546240086319" lon="15.874162823848245"><ele>351.0</ele><time>2026-04-06T07:19:04Z</time></trkpt><trkpt lat="40.98551674504609" lon="15.87440490479321"><ele>352.6666666666667</ele><time>2026-04-06T07:19:05Z</time></trkpt><trkpt lat="40.98558300582339" lon="15.874634309191363"><ele>354.33333333333337</ele><time>2026-04-06T07:19:06Z</time></trkpt><trkpt lat="40.98566385448792" lon="15.874853283225537"><ele>356.0</ele><time>2026-04-06T07:19:07Z</time></trkpt><trkpt lat="40.9857623771782" lon="15.875069514751177"><ele>357.0</ele><time>2026-04-06T07:19:08Z</time></trkpt><trkpt lat="40.98587287088645" lon="15.87527679050706"><ele>358.0</ele><time>2026-04-06T07:19:09Z</time></trkpt><trkpt lat="40.98599065003237" lon="15.875473031102898"><ele>359.0</ele><time>2026-04-06T07:19:10Z</time></trkpt><trkpt lat="40.98611580033651" lon="15.875660746515575"><ele>359.0</ele><time>2026-04-06T07:19:11Z</time></trkpt><trkpt lat="40.98624605496345" lon="15.87583611549161"><ele>359.0</ele><time>2026-04-06T07:19:12Z</time></trkpt><trkpt lat="40.98638166398975" lon="15.876010003272635"><ele>359.0</ele><time>2026-04-06T07:19:13Z</time></trkpt><trkpt lat="40.98651254184948" lon="15.876174852206043"><ele>358.6666666666667</ele><time>2026-04-06T07:19:14Z</time></trkpt><trkpt lat="40.986646419589086" lon="15.876337083637576"><ele>358.3333333333333</ele><time>2026-04-06T07:19:15Z</time></trkpt><trkpt lat="40.98678345806601" lon="15.87649806428344"><ele>358.0</ele><time>2026-04-06T07:19:16Z</time></trkpt><trkpt lat="40.986922381241676" lon="15.876665442481583"><ele>360.3333333333333</ele><time>2026-04-06T07:19:17Z</time></trkpt><trkpt lat="40.98705696741765" lon="15.87682975495992"><ele>362.6666666666667</ele><time>2026-04-06T07:19:18Z</time></trkpt><trkpt lat="40.98719434401605" lon="15.876998890954681"><ele>365.0</ele><time>2026-04-06T07:19:19Z</time></trkpt><trkpt lat="40.987333675998244" lon="15.877162344480844"><ele>365.0</ele><time>2026-04-06T07:19:20Z</time></trkpt><trkpt lat="40.98747584062467" lon="15.877322595440765"><ele>365.0</ele><time>2026-04-06T07:19:21Z</time></trkpt><trkpt lat="40.987613486866316" lon="15.877487829112876"><ele>365.0</ele><time>2026-04-06T07:19:22Z</time></trkpt><trkpt lat="40.987744903305746" lon="15.877652843386707"><ele>364.6666666666667</ele><time>2026-04-06T07:19:23Z</time></trkpt><trkpt lat="40.987884040450545" lon="15.877825975901576"><ele>364.3333333333333</ele><time>2026-04-06T07:19:24Z</time></trkpt><trkpt lat="40.98802369308863" lon="15.877988718129856"><ele>364.0</ele><time>2026-04-06T07:19:25Z</time></trkpt><trkpt lat="40.988165277584066" lon="15.87815210231487"><ele>364.0</ele><time>2026-04-06T07:19:26Z</time></trkpt><trkpt lat="40.988302714838845" lon="15.878317245876362"><ele>364.0</ele><time>2026-04-06T07:19:27Z</time></trkpt><trkpt lat="40.988415216040664" lon="15.878488622731096"><ele>364.0</ele><time>2026-04-06T07:19:28Z</time></trkpt><trkpt lat="40.9885028828453" lon="15.87866921520833"><ele>365.0</ele><time>2026-04-06T07:19:29Z</time></trkpt><trkpt lat="40.98857099891704" lon="15.878868856110614"><ele>366.0</ele><time>2026-04-06T07:19:30Z</time></trkpt><trkpt lat="40.98862366726967" lon="15.879089618941169"><ele>367.0</ele><time>2026-04-06T07:19:31Z</time></trkpt><trkpt lat="40.98866589321639" lon="15.879315517523942"><ele>368.3333333333333</ele><time>2026-04-06T07:19:32Z</time></trkpt><trkpt lat="40.98870399079157" lon="15.87954475639596"><ele>369.6666666666667</ele><time>2026-04-06T07:19:33Z</time></trkpt><trkpt lat="40.98875779745941" lon="15.879767785754714"><ele>371.0</ele><time>2026-04-06T07:19:34Z</time></trkpt><trkpt lat="40.98883753641599" lon="15.879981740560094"><ele>371.0</ele><time>2026-04-06T07:19:35Z</time></trkpt><trkpt lat="40.98894339572748" lon="15.880178146541661"><ele>371.0</ele><time>2026-04-06T07:19:36Z</time></trkpt><trkpt lat="40.98906388919124" lon="15.880369786216388"><ele>371.0</ele><time>2026-04-06T07:19:37Z</time></trkpt><trkpt lat="40.989186175297746" lon="15.880552997621052"><ele>371.0</ele><time>2026-04-06T07:19:38Z</time></trkpt><trkpt lat="40.989307531951034" lon="15.880748446741615"><ele>371.0</ele><time>2026-04-06T07:19:39Z</time></trkpt><trkpt lat="40.98941905098112" lon="15.880945553791493"><ele>371.0</ele><time>2026-04-06T07:19:40Z</time></trkpt><trkpt lat="40.989532474436636" lon="15.881142348743873"><ele>373.33333333333337</ele><time>2026-04-06T07:19:41Z</time></trkpt><trkpt lat="40.98965232838109" lon="15.88134029956221"><ele>375.6666666666667</ele><time>2026-04-06T07:19:42Z</time></trkpt><trkpt lat="40.989764685107126" lon="15.881533169606957"><ele>378.0</ele><time>2026-04-06T07:19:43Z</time></trkpt><trkpt lat="40.98987623343671" lon="15.881730241647613"><ele>378.3333333333333</ele><time>2026-04-06T07:19:44Z</time></trkpt><trkpt lat="40.989988342222205" lon="15.881922508090076"><ele>378.66666666666663</ele><time>2026-04-06T07:19:45Z</time></trkpt><trkpt lat="40.99010420596079" lon="15.882118584023392"><ele>379.0</ele><time>2026-04-06T07:19:46Z</time></trkpt><trkpt lat="40.99021846189127" lon="15.88231505589394"><ele>379.0</ele><time>2026-04-06T07:19:47Z</time></trkpt><trkpt lat="40.990333654272305" lon="15.882514125192682"><ele>379.0</ele><time>2026-04-06T07:19:48Z</time></trkpt><trkpt lat="40.99045218502725" lon="15.882709724770502"><ele>379.0</ele><time>2026-04-06T07:19:49Z</time></trkpt><trkpt lat="40.9905709919522" lon="15.88291273298382"><ele>379.66666666666663</ele><time>2026-04-06T07:19:50Z</time></trkpt><trkpt lat="40.99068499111465" lon="15.88311346526745"><ele>380.3333333333333</ele><time>2026-04-06T07:19:51Z</time></trkpt><trkpt lat="40.99080321712562" lon="15.883317024540645"><ele>381.0</ele><time>2026-04-06T07:19:52Z</time></trkpt><trkpt lat="40.990920752490354" lon="15.883510946272825"><ele>382.0</ele><time>2026-04-06T07:19:53Z</time></trkpt><trkpt lat="40.991043744598144" lon="15.88371161673198"><ele>383.0</ele><time>2026-04-06T07:19:54Z</time></trkpt><trkpt lat="40.991163412064054" lon="15.883916417570672"><ele>384.0</ele><time>2026-04-06T07:19:55Z</time></trkpt><trkpt lat="40.991278793005996" lon="15.884111194034604"><ele>383.6666666666667</ele><time>2026-04-06T07:19:56Z</time></trkpt><trkpt lat="40.991394441027154" lon="15.884306038136687"><ele>383.33333333333337</ele><time>2026-04-06T07:19:57Z</time></trkpt><trkpt lat="40.99150003761447" lon="15.884478614231968"><ele>383.0</ele><time>2026-04-06T07:19:58Z</time></trkpt><trkpt lat="40.99160069311565" lon="15.884646430027177"><ele>382.75</ele><time>2026-04-06T07:19:59Z</time></trkpt><trkpt lat="40.99169391159328" lon="15.884802152506456"><ele>382.5</ele><time>2026-04-06T07:20:00Z</time></trkpt><trkpt lat="40.99178605450242" lon="15.884956750708934"><ele>382.25</ele><time>2026-04-06T07:20:01Z</time></trkpt><trkpt lat="40.991879320586975" lon="15.885106351593654"><ele>382.0</ele><time>2026-04-06T07:20:02Z</time></trkpt><trkpt lat="40.991978010044306" lon="15.885254507819148"><ele>382.0</ele><time>2026-04-06T07:20:03Z</time></trkpt><trkpt lat="40.9920820661778" lon="15.885390894174153"><ele>382.0</ele><time>2026-04-06T07:20:04Z</time></trkpt><trkpt lat="40.99218472611882" lon="15.885511814824373"><ele>382.0</ele><time>2026-04-06T07:20:05Z</time></trkpt><trkpt lat="40.99228591130536" lon="15.885617214977357"><ele>382.0</ele><time>2026-04-06T07:20:06Z</time></trkpt><trkpt lat="40.99238607302052" lon="15.88572098850872"><ele>382.0</ele><time>2026-04-06T07:20:07Z</time></trkpt><trkpt lat="40.992491103517615" lon="15.885827186171008"><ele>382.0</ele><time>2026-04-06T07:20:08Z</time></trkpt><trkpt lat="40.99260364226948" lon="15.885931464232058"><ele>382.0</ele><time>2026-04-06T07:20:09Z</time></trkpt><trkpt lat="40.992717855634794" lon="15.886033583946979"><ele>382.0</ele><time>2026-04-06T07:20:10Z</time></trkpt><trkpt lat="40.99282816076472" lon="15.886127991431612"><ele>382.6</ele><time>2026-04-06T07:20:11Z</time></trkpt><trkpt lat="40.992934616004916" lon="15.8862284467264"><ele>383.20000000000005</ele><time>2026-04-06T07:20:12Z</time></trkpt><trkpt lat="40.99302478154182" lon="15.886317500727595"><ele>383.8</ele><time>2026-04-06T07:20:13Z</time></trkpt><trkpt lat="40.99310191554286" lon="15.886391499091504"><ele>384.4</ele><time>2026-04-06T07:20:14Z</time></trkpt><trkpt lat="40.993164382815465" lon="15.886450060175388"><ele>385.0</ele><time>2026-04-06T07:20:15Z</time></trkpt><trkpt lat="40.99323745427132" lon="15.886525376065062"><ele>385.2</ele><time>2026-04-06T07:20:17Z</time></trkpt><trkpt lat="40.99334233634807" lon="15.88639816417106"><ele>385.4</ele><time>2026-04-06T07:20:19Z</time></trkpt><trkpt lat="40.993388351364416" lon="15.886300402307356"><ele>385.6</ele><time>2026-04-06T07:20:20Z</time></trkpt><trkpt lat="40.993435774690305" lon="15.886190261449869"><ele>385.8</ele><time>2026-04-06T07:20:21Z</time></trkpt><trkpt lat="40.993487600343144" lon="15.886081693547396"><ele>386.0</ele><time>2026-04-06T07:20:22Z</time></trkpt><trkpt lat="40.9935481339766" lon="15.885990552843605"><ele>385.8</ele><time>2026-04-06T07:20:23Z</time></trkpt><trkpt lat="40.993623685540456" lon="15.885915775053299"><ele>385.6</ele><time>2026-04-06T07:20:24Z</time></trkpt><trkpt lat="40.99372088051817" lon="15.885861693896363"><ele>385.4</ele><time>2026-04-06T07:20:25Z</time></trkpt><trkpt lat="40.99383268513028" lon="15.885833627483905"><ele>385.2</ele><time>2026-04-06T07:20:26Z</time></trkpt><trkpt lat="40.99394029776142" lon="15.885846106028424"><ele>385.0</ele><time>2026-04-06T07:20:27Z</time></trkpt><trkpt lat="40.99403069338894" lon="15.885897895345906"><ele>385.2</ele><time>2026-04-06T07:20:28Z</time></trkpt><trkpt lat="40.99410960106661" lon="15.885986292682768"><ele>385.4</ele><time>2026-04-06T07:20:29Z</time></trkpt><trkpt lat="40.99417717415076" lon="15.88610843217708"><ele>385.6</ele><time>2026-04-06T07:20:30Z</time></trkpt><trkpt lat="40.99421741450432" lon="15.886249766016993"><ele>385.8</ele><time>2026-04-06T07:20:31Z</time></trkpt><trkpt lat="40.99422618264896" lon="15.886394563274221"><ele>386.0</ele><time>2026-04-06T07:20:32Z</time></trkpt><trkpt lat="40.994202148216594" lon="15.886532071965135"><ele>386.0</ele><time>2026-04-06T07:20:33Z</time></trkpt><trkpt lat="40.99415931513311" lon="15.886677546190903"><ele>386.0</ele><time>2026-04-06T07:20:34Z</time></trkpt><trkpt lat="40.994092798512604" lon="15.886824603094981"><ele>386.0</ele><time>2026-04-06T07:20:35Z</time></trkpt><trkpt lat="40.994046409978324" lon="15.886992734339685"><ele>386.0</ele><time>2026-04-06T07:20:36Z</time></trkpt><trkpt lat="40.9939997297733" lon="15.8871631780738"><ele>385.66666666666663</ele><time>2026-04-06T07:20:37Z</time></trkpt><trkpt lat="40.99394869265316" lon="15.8873441773913"><ele>385.33333333333337</ele><time>2026-04-06T07:20:38Z</time></trkpt><trkpt lat="40.99389773005646" lon="15.887538120250301"><ele>385.0</ele><time>2026-04-06T07:20:39Z</time></trkpt><trkpt lat="40.99384544803944" lon="15.887738935353331"><ele>384.6666666666667</ele><time>2026-04-06T07:20:40Z</time></trkpt><trkpt lat="40.99378857932467" lon="15.887947097531248"><ele>384.33333333333337</ele><time>2026-04-06T07:20:41Z</time></trkpt><trkpt lat="40.99372639652835" lon="15.888162927726976"><ele>384.0</ele><time>2026-04-06T07:20:42Z</time></trkpt><trkpt lat="40.99366268187996" lon="15.888386079338188"><ele>384.66666666666663</ele><time>2026-04-06T07:20:43Z</time></trkpt><trkpt lat="40.99359594536383" lon="15.888614170895657"><ele>385.3333333333333</ele><time>2026-04-06T07:20:44Z</time></trkpt><trkpt lat="40.993528303751496" lon="15.888846690051755"><ele>386.0</ele><time>2026-04-06T07:20:45Z</time></trkpt><trkpt lat="40.993456882926246" lon="15.889081741128265"><ele>385.66666666666663</ele><time>2026-04-06T07:20:46Z</time></trkpt><trkpt lat="40.99338458181412" lon="15.889324965299908"><ele>385.33333333333337</ele><time>2026-04-06T07:20:47Z</time></trkpt><trkpt lat="40.99331090511335" lon="15.889572026876333"><ele>385.0</ele><time>2026-04-06T07:20:48Z</time></trkpt><trkpt lat="40.9932393577017" lon="15.88981925979173"><ele>385.0</ele><time>2026-04-06T07:20:49Z</time></trkpt><trkpt lat="40.993169599328304" lon="15.89007298375498"><ele>385.0</ele><time>2026-04-06T07:20:50Z</time></trkpt><trkpt lat="40.99309714389679" lon="15.890323968381473"><ele>385.0</ele><time>2026-04-06T07:20:51Z</time></trkpt><trkpt lat="40.99301947536521" lon="15.890571347101181"><ele>385.33333333333337</ele><time>2026-04-06T07:20:52Z</time></trkpt><trkpt lat="40.99294304898043" lon="15.890820140206626"><ele>385.66666666666663</ele><time>2026-04-06T07:20:53Z</time></trkpt><trkpt lat="40.99286773973925" lon="15.89107296903529"><ele>386.0</ele><time>2026-04-06T07:20:54Z</time></trkpt><trkpt lat="40.99279399874908" lon="15.891331276734663"><ele>386.0</ele><time>2026-04-06T07:20:55Z</time></trkpt><trkpt lat="40.992720870661174" lon="15.891589082020321"><ele>386.0</ele><time>2026-04-06T07:20:56Z</time></trkpt><trkpt lat="40.992645285384604" lon="15.891845417380093"><ele>386.0</ele><time>2026-04-06T07:20:57Z</time></trkpt><trkpt lat="40.99256895264892" lon="15.892103694224675"><ele>385.66666666666663</ele><time>2026-04-06T07:20:58Z</time></trkpt><trkpt lat="40.992492198606755" lon="15.89236154513279"><ele>385.33333333333337</ele><time>2026-04-06T07:20:59Z</time></trkpt><trkpt lat="40.992415921930274" lon="15.892619703648988"><ele>385.0</ele><time>2026-04-06T07:21:00Z</time></trkpt><trkpt lat="40.99233991761031" lon="15.892879030330416"><ele>385.0</ele><time>2026-04-06T07:21:01Z</time></trkpt><trkpt lat="40.99226182363622" lon="15.893139901775848"><ele>385.0</ele><time>2026-04-06T07:21:02Z</time></trkpt><trkpt lat="40.99218441853735" lon="15.893403280606336"><ele>385.0</ele><time>2026-04-06T07:21:03Z</time></trkpt><trkpt lat="40.992106722657006" lon="15.89366754681689"><ele>384.6666666666667</ele><time>2026-04-06T07:21:04Z</time></trkpt><trkpt lat="40.99202857916299" lon="15.893934149066707"><ele>384.33333333333337</ele><time>2026-04-06T07:21:05Z</time></trkpt><trkpt lat="40.99194962236164" lon="15.89420121634199"><ele>384.0</ele><time>2026-04-06T07:21:06Z</time></trkpt><trkpt lat="40.991870212363644" lon="15.89446768142529"><ele>384.0</ele><time>2026-04-06T07:21:07Z</time></trkpt><trkpt lat="40.99178902205503" lon="15.894738248755969"><ele>384.0</ele><time>2026-04-06T07:21:08Z</time></trkpt><trkpt lat="40.99170762321081" lon="15.895011025166472"><ele>384.0</ele><time>2026-04-06T07:21:09Z</time></trkpt><trkpt lat="40.99162778925104" lon="15.89528443480117"><ele>384.33333333333337</ele><time>2026-04-06T07:21:10Z</time></trkpt><trkpt lat="40.991547901304195" lon="15.89556222122672"><ele>384.6666666666667</ele><time>2026-04-06T07:21:11Z</time></trkpt><trkpt lat="40.99146749859049" lon="15.895836970662184"><ele>385.0</ele><time>2026-04-06T07:21:12Z</time></trkpt><trkpt lat="40.99138620603032" lon="15.896111910941926"><ele>385.0</ele><time>2026-04-06T07:21:13Z</time></trkpt><trkpt lat="40.991304823873385" lon="15.896386661393297"><ele>385.0</ele><time>2026-04-06T07:21:14Z</time></trkpt><trkpt lat="40.99122223989138" lon="15.896663718996189"><ele>385.0</ele><time>2026-04-06T07:21:15Z</time></trkpt><trkpt lat="40.99114033551481" lon="15.896941054541202"><ele>385.0</ele><time>2026-04-06T07:21:16Z</time></trkpt><trkpt lat="40.99105545545533" lon="15.897222016949994"><ele>385.0</ele><time>2026-04-06T07:21:17Z</time></trkpt><trkpt lat="40.99097068546657" lon="15.897503093293924"><ele>385.5</ele><time>2026-04-06T07:21:18Z</time></trkpt><trkpt lat="40.990887414990105" lon="15.897782271737658"><ele>386.0</ele><time>2026-04-06T07:21:19Z</time></trkpt><trkpt lat="40.990803726129855" lon="15.898066167364549"><ele>386.0</ele><time>2026-04-06T07:21:20Z</time></trkpt><trkpt lat="40.990722615281335" lon="15.898348030114402"><ele>386.0</ele><time>2026-04-06T07:21:21Z</time></trkpt><trkpt lat="40.990637299399445" lon="15.898638499712654"><ele>385.5</ele><time>2026-04-06T07:21:22Z</time></trkpt><trkpt lat="40.990554662696816" lon="15.898925878202178"><ele>385.0</ele><time>2026-04-06T07:21:23Z</time></trkpt><trkpt lat="40.990474834747666" lon="15.899213190845845"><ele>384.5</ele><time>2026-04-06T07:21:24Z</time></trkpt><trkpt lat="40.9903950197672" lon="15.899501028647983"><ele>384.0</ele><time>2026-04-06T07:21:25Z</time></trkpt><trkpt lat="40.990312961875254" lon="15.899789982225018"><ele>384.0</ele><time>2026-04-06T07:21:26Z</time></trkpt><trkpt lat="40.990229805006" lon="15.900076239410398"><ele>384.0</ele><time>2026-04-06T07:21:27Z</time></trkpt><trkpt lat="40.99014673923246" lon="15.900361488374461"><ele>384.0</ele><time>2026-04-06T07:21:28Z</time></trkpt><trkpt lat="40.99006303672581" lon="15.900652207962096"><ele>384.0</ele><time>2026-04-06T07:21:29Z</time></trkpt><trkpt lat="40.989979865836496" lon="15.900939629279984"><ele>383.5</ele><time>2026-04-06T07:21:30Z</time></trkpt><trkpt lat="40.98989732018991" lon="15.901225406854516"><ele>383.0</ele><time>2026-04-06T07:21:31Z</time></trkpt><trkpt lat="40.98981190631048" lon="15.901515274588359"><ele>383.5</ele><time>2026-04-06T07:21:32Z</time></trkpt><trkpt lat="40.98972987641597" lon="15.901802401998856"><ele>384.0</ele><time>2026-04-06T07:21:33Z</time></trkpt><trkpt lat="40.98964863319951" lon="15.902091322849005"><ele>384.0</ele><time>2026-04-06T07:21:34Z</time></trkpt><trkpt lat="40.98956634720644" lon="15.902383335137298"><ele>384.0</ele><time>2026-04-06T07:21:35Z</time></trkpt><trkpt lat="40.98948101543353" lon="15.902672559964714"><ele>383.5</ele><time>2026-04-06T07:21:36Z</time></trkpt><trkpt lat="40.9893947201901" lon="15.902961033025935"><ele>383.0</ele><time>2026-04-06T07:21:37Z</time></trkpt><trkpt lat="40.989306332237625" lon="15.903253116638828"><ele>383.5</ele><time>2026-04-06T07:21:38Z</time></trkpt><trkpt lat="40.98921867259915" lon="15.903545710135631"><ele>384.0</ele><time>2026-04-06T07:21:39Z</time></trkpt><trkpt lat="40.989134711892774" lon="15.903837686348355"><ele>384.0</ele><time>2026-04-06T07:21:40Z</time></trkpt><trkpt lat="40.98905083592626" lon="15.904134460869969"><ele>384.0</ele><time>2026-04-06T07:21:41Z</time></trkpt><trkpt lat="40.988968400377075" lon="15.904426830285578"><ele>383.0</ele><time>2026-04-06T07:21:42Z</time></trkpt><trkpt lat="40.98888325900275" lon="15.904718383913135"><ele>382.0</ele><time>2026-04-06T07:21:43Z</time></trkpt><trkpt lat="40.988796508875645" lon="15.905011824014569"><ele>381.0</ele><time>2026-04-06T07:21:44Z</time></trkpt><trkpt lat="40.988712250652824" lon="15.90530025251456"><ele>380.0</ele><time>2026-04-06T07:21:45Z</time></trkpt><trkpt lat="40.98862625213889" lon="15.905592666547346"><ele>380.0</ele><time>2026-04-06T07:21:46Z</time></trkpt><trkpt lat="40.98854249972492" lon="15.905879076338012"><ele>380.0</ele><time>2026-04-06T07:21:47Z</time></trkpt><trkpt lat="40.988459119494074" lon="15.906165472523515"><ele>379.0</ele><time>2026-04-06T07:21:48Z</time></trkpt><trkpt lat="40.98837831225945" lon="15.906448213321804"><ele>378.0</ele><time>2026-04-06T07:21:49Z</time></trkpt><trkpt lat="40.98829809557081" lon="15.906735307496199"><ele>379.0</ele><time>2026-04-06T07:21:50Z</time></trkpt><trkpt lat="40.98821485793666" lon="15.907024358974077"><ele>380.0</ele><time>2026-04-06T07:21:51Z</time></trkpt><trkpt lat="40.988139371369655" lon="15.907303505306302"><ele>379.0</ele><time>2026-04-06T07:21:52Z</time></trkpt><trkpt lat="40.98805885642298" lon="15.90759082968851"><ele>378.0</ele><time>2026-04-06T07:21:53Z</time></trkpt><trkpt lat="40.98798032352673" lon="15.90787307496464"><ele>378.0</ele><time>2026-04-06T07:21:54Z</time></trkpt><trkpt lat="40.9878950155815" lon="15.908163232785137"><ele>378.0</ele><time>2026-04-06T07:21:55Z</time></trkpt><trkpt lat="40.98782022992029" lon="15.908432735263302"><ele>378.0</ele><time>2026-04-06T07:21:56Z</time></trkpt><trkpt lat="40.98773364382396" lon="15.908719805079542"><ele>378.0</ele><time>2026-04-06T07:21:57Z</time></trkpt><trkpt lat="40.98765523400424" lon="15.908985118706179"><ele>378.0</ele><time>2026-04-06T07:21:58Z</time></trkpt><trkpt lat="40.98757212983652" lon="15.90926296216851"><ele>377.6666666666667</ele><time>2026-04-06T07:21:59Z</time></trkpt><trkpt lat="40.987487509872906" lon="15.909546244463026"><ele>377.33333333333337</ele><time>2026-04-06T07:22:00Z</time></trkpt><trkpt lat="40.987403739045924" lon="15.909812648231878"><ele>377.0</ele><time>2026-04-06T07:22:01Z</time></trkpt><trkpt lat="40.9873187324933" lon="15.910086473032587"><ele>377.0</ele><time>2026-04-06T07:22:02Z</time></trkpt><trkpt lat="40.987235375246776" lon="15.910361258335502"><ele>377.0</ele><time>2026-04-06T07:22:03Z</time></trkpt><trkpt lat="40.9871509720138" lon="15.910634404062877"><ele>377.0</ele><time>2026-04-06T07:22:04Z</time></trkpt><trkpt lat="40.9870670702829" lon="15.910905222829642"><ele>377.0</ele><time>2026-04-06T07:22:05Z</time></trkpt><trkpt lat="40.9869843832612" lon="15.911181886575257"><ele>377.0</ele><time>2026-04-06T07:22:06Z</time></trkpt><trkpt lat="40.98690479353793" lon="15.911457359396243"><ele>377.0</ele><time>2026-04-06T07:22:07Z</time></trkpt><trkpt lat="40.98682099949076" lon="15.911732103175266"><ele>377.6666666666667</ele><time>2026-04-06T07:22:08Z</time></trkpt><trkpt lat="40.98673971896628" lon="15.91200500083317"><ele>378.3333333333333</ele><time>2026-04-06T07:22:09Z</time></trkpt><trkpt lat="40.9866516608499" lon="15.912281633511089"><ele>379.0</ele><time>2026-04-06T07:22:10Z</time></trkpt><trkpt lat="40.98656584869411" lon="15.912553106023392"><ele>379.66666666666663</ele><time>2026-04-06T07:22:11Z</time></trkpt><trkpt lat="40.98647888061484" lon="15.912825430208754"><ele>380.3333333333333</ele><time>2026-04-06T07:22:12Z</time></trkpt><trkpt lat="40.98639301836638" lon="15.913097109470128"><ele>381.0</ele><time>2026-04-06T07:22:13Z</time></trkpt><trkpt lat="40.986307199858565" lon="15.913369883823343"><ele>380.3333333333333</ele><time>2026-04-06T07:22:14Z</time></trkpt><trkpt lat="40.986221139001145" lon="15.913643232309726"><ele>379.66666666666663</ele><time>2026-04-06T07:22:15Z</time></trkpt><trkpt lat="40.986135428069105" lon="15.913913721890685"><ele>379.0</ele><time>2026-04-06T07:22:16Z</time></trkpt><trkpt lat="40.98604860894445" lon="15.914185279448398"><ele>378.66666666666663</ele><time>2026-04-06T07:22:17Z</time></trkpt><trkpt lat="40.98596148928498" lon="15.91445765141146"><ele>378.3333333333333</ele><time>2026-04-06T07:22:18Z</time></trkpt><trkpt lat="40.98587594109364" lon="15.91473104665849"><ele>378.0</ele><time>2026-04-06T07:22:19Z</time></trkpt><trkpt lat="40.98579114950808" lon="15.91500501347401"><ele>380.0</ele><time>2026-04-06T07:22:20Z</time></trkpt><trkpt lat="40.985705315979345" lon="15.915277980379544"><ele>382.0</ele><time>2026-04-06T07:22:21Z</time></trkpt><trkpt lat="40.98561675132831" lon="15.915554227698436"><ele>382.0</ele><time>2026-04-06T07:22:22Z</time></trkpt><trkpt lat="40.985529978704044" lon="15.915829354885908"><ele>382.0</ele><time>2026-04-06T07:22:23Z</time></trkpt><trkpt lat="40.985446766332025" lon="15.916103084311047"><ele>382.0</ele><time>2026-04-06T07:22:24Z</time></trkpt><trkpt lat="40.98536461259659" lon="15.916375159643422"><ele>381.0</ele><time>2026-04-06T07:22:25Z</time></trkpt><trkpt lat="40.98527614961388" lon="15.916651405482423"><ele>380.0</ele><time>2026-04-06T07:22:26Z</time></trkpt><trkpt lat="40.985187354704166" lon="15.916929908402436"><ele>380.0</ele><time>2026-04-06T07:22:27Z</time></trkpt><trkpt lat="40.98510640379754" lon="15.917200529526381"><ele>380.0</ele><time>2026-04-06T07:22:28Z</time></trkpt><trkpt lat="40.985016210394534" lon="15.917479072004488"><ele>380.0</ele><time>2026-04-06T07:22:29Z</time></trkpt><trkpt lat="40.98493793280772" lon="15.917748432868725"><ele>381.0</ele><time>2026-04-06T07:22:30Z</time></trkpt><trkpt lat="40.98484906199479" lon="15.91802750369226"><ele>382.0</ele><time>2026-04-06T07:22:31Z</time></trkpt><trkpt lat="40.98476313774669" lon="15.918304112199257"><ele>382.0</ele><time>2026-04-06T07:22:32Z</time></trkpt><trkpt lat="40.98467860027263" lon="15.918578905025583"><ele>382.0</ele><time>2026-04-06T07:22:33Z</time></trkpt><trkpt lat="40.984596543208816" lon="15.918855009939145"><ele>382.0</ele><time>2026-04-06T07:22:34Z</time></trkpt><trkpt lat="40.98451004125069" lon="15.919129679359155"><ele>381.66666666666663</ele><time>2026-04-06T07:22:35Z</time></trkpt><trkpt lat="40.98442571830383" lon="15.9194005360268"><ele>381.3333333333333</ele><time>2026-04-06T07:22:36Z</time></trkpt><trkpt lat="40.98433457406292" lon="15.919676877827516"><ele>381.0</ele><time>2026-04-06T07:22:37Z</time></trkpt><trkpt lat="40.98424576906438" lon="15.919948926109615"><ele>382.33333333333337</ele><time>2026-04-06T07:22:38Z</time></trkpt><trkpt lat="40.98415962370598" lon="15.92022355707593"><ele>383.6666666666667</ele><time>2026-04-06T07:22:39Z</time></trkpt><trkpt lat="40.98407300503829" lon="15.920495672943225"><ele>385.0</ele><time>2026-04-06T07:22:40Z</time></trkpt><trkpt lat="40.9839866264698" lon="15.920768994000637"><ele>385.0</ele><time>2026-04-06T07:22:41Z</time></trkpt><trkpt lat="40.983898749322535" lon="15.921044612209867"><ele>385.0</ele><time>2026-04-06T07:22:42Z</time></trkpt><trkpt lat="40.983815376187366" lon="15.9213164545347"><ele>385.0</ele><time>2026-04-06T07:22:43Z</time></trkpt><trkpt lat="40.98373209108485" lon="15.921590051229513"><ele>384.6666666666667</ele><time>2026-04-06T07:22:44Z</time></trkpt><trkpt lat="40.98365100723176" lon="15.921865482896665"><ele>384.33333333333337</ele><time>2026-04-06T07:22:45Z</time></trkpt><trkpt lat="40.98357816846779" lon="15.92214369391871"><ele>384.0</ele><time>2026-04-06T07:22:46Z</time></trkpt><trkpt lat="40.983513116167494" lon="15.922424148792548"><ele>384.0</ele><time>2026-04-06T07:22:47Z</time></trkpt><trkpt lat="40.983450213400495" lon="15.922704130300646"><ele>384.0</ele><time>2026-04-06T07:22:48Z</time></trkpt><trkpt lat="40.983387834493996" lon="15.92298471795762"><ele>384.0</ele><time>2026-04-06T07:22:49Z</time></trkpt><trkpt lat="40.98332857715984" lon="15.923262900265575"><ele>384.66666666666663</ele><time>2026-04-06T07:22:50Z</time></trkpt><trkpt lat="40.983271009156894" lon="15.923543073477369"><ele>385.3333333333333</ele><time>2026-04-06T07:22:51Z</time></trkpt><trkpt lat="40.98322150090324" lon="15.92382130752594"><ele>386.0</ele><time>2026-04-06T07:22:52Z</time></trkpt><trkpt lat="40.98317073251487" lon="15.924102526802063"><ele>386.3333333333333</ele><time>2026-04-06T07:22:53Z</time></trkpt><trkpt lat="40.98311870244423" lon="15.924384227587897"><ele>386.66666666666663</ele><time>2026-04-06T07:22:54Z</time></trkpt><trkpt lat="40.983068469522294" lon="15.924666050299898"><ele>387.0</ele><time>2026-04-06T07:22:55Z</time></trkpt><trkpt lat="40.983022247432345" lon="15.924949661879126"><ele>387.33333333333337</ele><time>2026-04-06T07:22:56Z</time></trkpt><trkpt lat="40.982977689645764" lon="15.925234993482508"><ele>387.6666666666667</ele><time>2026-04-06T07:22:57Z</time></trkpt><trkpt lat="40.98293353709808" lon="15.925521375901864"><ele>388.0</ele><time>2026-04-06T07:22:58Z</time></trkpt><trkpt lat="40.982887737877626" lon="15.92580714051646"><ele>387.6666666666667</ele><time>2026-04-06T07:22:59Z</time></trkpt><trkpt lat="40.98284083472761" lon="15.926093234654669"><ele>387.33333333333337</ele><time>2026-04-06T07:23:00Z</time></trkpt><trkpt lat="40.98279606302897" lon="15.926377823895937"><ele>387.0</ele><time>2026-04-06T07:23:01Z</time></trkpt><trkpt lat="40.98275018302776" lon="15.92666327051169"><ele>387.0</ele><time>2026-04-06T07:23:02Z</time></trkpt><trkpt lat="40.98270415809805" lon="15.926948560004819"><ele>387.0</ele><time>2026-04-06T07:23:03Z</time></trkpt><trkpt lat="40.982656989150044" lon="15.927232674827836"><ele>387.0</ele><time>2026-04-06T07:23:04Z</time></trkpt><trkpt lat="40.982613008442186" lon="15.92751658163994"><ele>386.66666666666663</ele><time>2026-04-06T07:23:05Z</time></trkpt><trkpt lat="40.982567574714146" lon="15.927802317684371"><ele>386.3333333333333</ele><time>2026-04-06T07:23:06Z</time></trkpt><trkpt lat="40.9825227702175" lon="15.928089934293798"><ele>386.0</ele><time>2026-04-06T07:23:07Z</time></trkpt><trkpt lat="40.98247529939529" lon="15.928374240000627"><ele>387.0</ele><time>2026-04-06T07:23:08Z</time></trkpt><trkpt lat="40.98242702347325" lon="15.928653596402842"><ele>388.0</ele><time>2026-04-06T07:23:09Z</time></trkpt><trkpt lat="40.98237911171312" lon="15.928936367091765"><ele>389.0</ele><time>2026-04-06T07:23:10Z</time></trkpt><trkpt lat="40.98233402479377" lon="15.929219780012142"><ele>389.3333333333333</ele><time>2026-04-06T07:23:11Z</time></trkpt><trkpt lat="40.98228562278015" lon="15.929503967313844"><ele>389.66666666666663</ele><time>2026-04-06T07:23:12Z</time></trkpt><trkpt lat="40.98224013934394" lon="15.929787938497878"><ele>390.0</ele><time>2026-04-06T07:23:13Z</time></trkpt><trkpt lat="40.98219117180653" lon="15.930073896356799"><ele>390.0</ele><time>2026-04-06T07:23:14Z</time></trkpt><trkpt lat="40.982138935765654" lon="15.930355608137516"><ele>390.0</ele><time>2026-04-06T07:23:15Z</time></trkpt><trkpt lat="40.98208581876573" lon="15.93064031445461"><ele>390.0</ele><time>2026-04-06T07:23:16Z</time></trkpt><trkpt lat="40.98203317080916" lon="15.930922750771575"><ele>389.33333333333337</ele><time>2026-04-06T07:23:17Z</time></trkpt><trkpt lat="40.98197434200375" lon="15.931204938667905"><ele>388.6666666666667</ele><time>2026-04-06T07:23:18Z</time></trkpt><trkpt lat="40.98191001754978" lon="15.931480165681378"><ele>388.0</ele><time>2026-04-06T07:23:19Z</time></trkpt><trkpt lat="40.9818393825839" lon="15.931757866177179"><ele>388.0</ele><time>2026-04-06T07:23:20Z</time></trkpt><trkpt lat="40.98177063076088" lon="15.932027619947622"><ele>388.0</ele><time>2026-04-06T07:23:21Z</time></trkpt><trkpt lat="40.9816969221863" lon="15.93230194155875"><ele>388.0</ele><time>2026-04-06T07:23:22Z</time></trkpt><trkpt lat="40.98162141643215" lon="15.932572262588936"><ele>389.0</ele><time>2026-04-06T07:23:23Z</time></trkpt><trkpt lat="40.981540400166004" lon="15.932843474965766"><ele>390.0</ele><time>2026-04-06T07:23:24Z</time></trkpt><trkpt lat="40.98145924426578" lon="15.933109584903871"><ele>391.0</ele><time>2026-04-06T07:23:25Z</time></trkpt><trkpt lat="40.981375655213355" lon="15.933373781260736"><ele>390.33333333333337</ele><time>2026-04-06T07:23:26Z</time></trkpt><trkpt lat="40.98128794337957" lon="15.933633859330117"><ele>389.66666666666663</ele><time>2026-04-06T07:23:27Z</time></trkpt><trkpt lat="40.98119355181669" lon="15.93389858158889"><ele>389.0</ele><time>2026-04-06T07:23:28Z</time></trkpt><trkpt lat="40.98110111504066" lon="15.93415607620421"><ele>389.0</ele><time>2026-04-06T07:23:29Z</time></trkpt><trkpt lat="40.98100889172736" lon="15.934411217802706"><ele>389.0</ele><time>2026-04-06T07:23:30Z</time></trkpt><trkpt lat="40.980919191484" lon="15.934671075099939"><ele>389.0</ele><time>2026-04-06T07:23:31Z</time></trkpt><trkpt lat="40.98082942591226" lon="15.934930359466529"><ele>390.0</ele><time>2026-04-06T07:23:32Z</time></trkpt><trkpt lat="40.98073899491913" lon="15.935186460689035"><ele>391.0</ele><time>2026-04-06T07:23:33Z</time></trkpt><trkpt lat="40.98064557597186" lon="15.935449555043046"><ele>392.0</ele><time>2026-04-06T07:23:34Z</time></trkpt><trkpt lat="40.980554834639136" lon="15.935702492589643"><ele>391.66666666666663</ele><time>2026-04-06T07:23:35Z</time></trkpt><trkpt lat="40.98046221433149" lon="15.935962917059094"><ele>391.33333333333337</ele><time>2026-04-06T07:23:36Z</time></trkpt><trkpt lat="40.98037048270055" lon="15.936223514519602"><ele>391.0</ele><time>2026-04-06T07:23:37Z</time></trkpt><trkpt lat="40.9802786923085" lon="15.936480735234753"><ele>391.33333333333337</ele><time>2026-04-06T07:23:38Z</time></trkpt><trkpt lat="40.98018221737781" lon="15.936752488429416"><ele>391.66666666666663</ele><time>2026-04-06T07:23:39Z</time></trkpt><trkpt lat="40.9800926753847" lon="15.937008269900298"><ele>392.0</ele><time>2026-04-06T07:23:40Z</time></trkpt><trkpt lat="40.980000602796565" lon="15.937268381456146"><ele>392.66666666666663</ele><time>2026-04-06T07:23:41Z</time></trkpt><trkpt lat="40.979908231937245" lon="15.937530238233286"><ele>393.33333333333337</ele><time>2026-04-06T07:23:42Z</time></trkpt><trkpt lat="40.97981582767017" lon="15.937792636706659"><ele>394.0</ele><time>2026-04-06T07:23:43Z</time></trkpt><trkpt lat="40.97972514969552" lon="15.938053413912236"><ele>394.0</ele><time>2026-04-06T07:23:44Z</time></trkpt><trkpt lat="40.97963251018301" lon="15.93831533594912"><ele>394.0</ele><time>2026-04-06T07:23:45Z</time></trkpt><trkpt lat="40.97953951053482" lon="15.938575350835132"><ele>394.0</ele><time>2026-04-06T07:23:46Z</time></trkpt><trkpt lat="40.97944972477044" lon="15.93883565284485"><ele>394.0</ele><time>2026-04-06T07:23:47Z</time></trkpt><trkpt lat="40.979359300127385" lon="15.939096479307638"><ele>394.0</ele><time>2026-04-06T07:23:48Z</time></trkpt><trkpt lat="40.97926855802145" lon="15.939354363165409"><ele>394.0</ele><time>2026-04-06T07:23:49Z</time></trkpt><trkpt lat="40.979173260037264" lon="15.939617398173944"><ele>394.6666666666667</ele><time>2026-04-06T07:23:50Z</time></trkpt><trkpt lat="40.979077703346505" lon="15.93987913678644"><ele>395.33333333333337</ele><time>2026-04-06T07:23:51Z</time></trkpt><trkpt lat="40.97898694912227" lon="15.940139554117687"><ele>396.0</ele><time>2026-04-06T07:23:52Z</time></trkpt><trkpt lat="40.97889698236544" lon="15.940403088188782"><ele>396.0</ele><time>2026-04-06T07:23:53Z</time></trkpt><trkpt lat="40.97880480375905" lon="15.940664634907405"><ele>396.0</ele><time>2026-04-06T07:23:54Z</time></trkpt><trkpt lat="40.9787100621462" lon="15.94092723992758"><ele>396.0</ele><time>2026-04-06T07:23:55Z</time></trkpt><trkpt lat="40.97861632479501" lon="15.941186472155842"><ele>396.0</ele><time>2026-04-06T07:23:56Z</time></trkpt><trkpt lat="40.97852228384383" lon="15.94145180823005"><ele>396.0</ele><time>2026-04-06T07:23:57Z</time></trkpt><trkpt lat="40.97843051785983" lon="15.941713508979111"><ele>396.0</ele><time>2026-04-06T07:23:58Z</time></trkpt><trkpt lat="40.97833887500212" lon="15.941975943577102"><ele>396.66666666666663</ele><time>2026-04-06T07:23:59Z</time></trkpt><trkpt lat="40.978245235997335" lon="15.94224032440159"><ele>397.3333333333333</ele><time>2026-04-06T07:24:00Z</time></trkpt><trkpt lat="40.97815267170109" lon="15.942501102688846"><ele>398.0</ele><time>2026-04-06T07:24:01Z</time></trkpt><trkpt lat="40.9780609653503" lon="15.942764034564377"><ele>398.0</ele><time>2026-04-06T07:24:02Z</time></trkpt><trkpt lat="40.97797031964662" lon="15.943027917767257"><ele>398.0</ele><time>2026-04-06T07:24:03Z</time></trkpt><trkpt lat="40.9778777774551" lon="15.943289746536955"><ele>398.0</ele><time>2026-04-06T07:24:04Z</time></trkpt><trkpt lat="40.977782879136335" lon="15.943552082879435"><ele>398.0</ele><time>2026-04-06T07:24:05Z</time></trkpt><trkpt lat="40.977690120219115" lon="15.943811925784013"><ele>398.0</ele><time>2026-04-06T07:24:06Z</time></trkpt><trkpt lat="40.977600299438706" lon="15.944074135863357"><ele>398.0</ele><time>2026-04-06T07:24:07Z</time></trkpt><trkpt lat="40.97750916737039" lon="15.944336549503273"><ele>399.0</ele><time>2026-04-06T07:24:08Z</time></trkpt><trkpt lat="40.97741592893911" lon="15.944597267763282"><ele>400.0</ele><time>2026-04-06T07:24:09Z</time></trkpt><trkpt lat="40.977322425423864" lon="15.94486166085102"><ele>401.0</ele><time>2026-04-06T07:24:10Z</time></trkpt><trkpt lat="40.977231036856054" lon="15.945126526993489"><ele>401.0</ele><time>2026-04-06T07:24:11Z</time></trkpt><trkpt lat="40.9771399848924" lon="15.94538725011803"><ele>401.0</ele><time>2026-04-06T07:24:12Z</time></trkpt><trkpt lat="40.97705082315667" lon="15.945653987208875"><ele>401.0</ele><time>2026-04-06T07:24:13Z</time></trkpt><trkpt lat="40.97696116789209" lon="15.945920450558152"><ele>400.66666666666663</ele><time>2026-04-06T07:24:14Z</time></trkpt><trkpt lat="40.976870725305" lon="15.946184620726495"><ele>400.33333333333337</ele><time>2026-04-06T07:24:15Z</time></trkpt><trkpt lat="40.97678098053307" lon="15.946455298633488"><ele>400.0</ele><time>2026-04-06T07:24:16Z</time></trkpt><trkpt lat="40.976696602499274" lon="15.946723985516732"><ele>400.6666666666667</ele><time>2026-04-06T07:24:17Z</time></trkpt><trkpt lat="40.976613336522455" lon="15.946997554884442"><ele>401.33333333333337</ele><time>2026-04-06T07:24:18Z</time></trkpt><trkpt lat="40.976531763729454" lon="15.947269982327455"><ele>402.0</ele><time>2026-04-06T07:24:19Z</time></trkpt><trkpt lat="40.97645313599126" lon="15.947542739779088"><ele>402.0</ele><time>2026-04-06T07:24:20Z</time></trkpt><trkpt lat="40.976377728564024" lon="15.94782151133571"><ele>402.0</ele><time>2026-04-06T07:24:21Z</time></trkpt><trkpt lat="40.976305861757304" lon="15.94810169155124"><ele>402.0</ele><time>2026-04-06T07:24:22Z</time></trkpt><trkpt lat="40.976236933594805" lon="15.948382250319861"><ele>402.0</ele><time>2026-04-06T07:24:23Z</time></trkpt><trkpt lat="40.97617281221516" lon="15.948662083355842"><ele>402.0</ele><time>2026-04-06T07:24:24Z</time></trkpt><trkpt lat="40.97611070014964" lon="15.948944097830438"><ele>402.0</ele><time>2026-04-06T07:24:25Z</time></trkpt><trkpt lat="40.976049255261394" lon="15.949227366411076"><ele>402.0</ele><time>2026-04-06T07:24:26Z</time></trkpt><trkpt lat="40.97598916817772" lon="15.949508265407944"><ele>402.0</ele><time>2026-04-06T07:24:27Z</time></trkpt><trkpt lat="40.975932670456096" lon="15.949791647113853"><ele>402.0</ele><time>2026-04-06T07:24:28Z</time></trkpt><trkpt lat="40.975878851520825" lon="15.950073374345742"><ele>402.33333333333337</ele><time>2026-04-06T07:24:29Z</time></trkpt><trkpt lat="40.97582716352157" lon="15.950356295742827"><ele>402.6666666666667</ele><time>2026-04-06T07:24:30Z</time></trkpt><trkpt lat="40.975779956500425" lon="15.950650235252422"><ele>403.0</ele><time>2026-04-06T07:24:31Z</time></trkpt><trkpt lat="40.97573543311821" lon="15.950932902879847"><ele>402.6666666666667</ele><time>2026-04-06T07:24:32Z</time></trkpt><trkpt lat="40.97569417673324" lon="15.951219405966771"><ele>402.33333333333337</ele><time>2026-04-06T07:24:33Z</time></trkpt><trkpt lat="40.97565721469158" lon="15.951503003660505"><ele>402.0</ele><time>2026-04-06T07:24:34Z</time></trkpt><trkpt lat="40.97562109231122" lon="15.951787228779944"><ele>402.0</ele><time>2026-04-06T07:24:35Z</time></trkpt><trkpt lat="40.975588517708076" lon="15.95207200817239"><ele>402.0</ele><time>2026-04-06T07:24:36Z</time></trkpt><trkpt lat="40.975555361540934" lon="15.95235750433553"><ele>402.0</ele><time>2026-04-06T07:24:37Z</time></trkpt><trkpt lat="40.975525769154174" lon="15.95264172092738"><ele>402.66666666666663</ele><time>2026-04-06T07:24:38Z</time></trkpt><trkpt lat="40.97549832317232" lon="15.952931207358567"><ele>403.3333333333333</ele><time>2026-04-06T07:24:39Z</time></trkpt><trkpt lat="40.97547356143233" lon="15.953221482178245"><ele>404.0</ele><time>2026-04-06T07:24:40Z</time></trkpt><trkpt lat="40.975448132416595" lon="15.95350873589604"><ele>404.0</ele><time>2026-04-06T07:24:41Z</time></trkpt><trkpt lat="40.9754214234367" lon="15.95380580136567"><ele>404.0</ele><time>2026-04-06T07:24:42Z</time></trkpt><trkpt lat="40.97539640912987" lon="15.954088194309898"><ele>404.0</ele><time>2026-04-06T07:24:43Z</time></trkpt><trkpt lat="40.97537203926962" lon="15.954383264243523"><ele>403.66666666666663</ele><time>2026-04-06T07:24:44Z</time></trkpt><trkpt lat="40.97534658914126" lon="15.954673525715059"><ele>403.33333333333337</ele><time>2026-04-06T07:24:45Z</time></trkpt><trkpt lat="40.97531940958517" lon="15.954965189485442"><ele>403.0</ele><time>2026-04-06T07:24:46Z</time></trkpt><trkpt lat="40.97529246476252" lon="15.955256326667584"><ele>402.6666666666667</ele><time>2026-04-06T07:24:47Z</time></trkpt><trkpt lat="40.97525941266016" lon="15.955541909054482"><ele>402.33333333333337</ele><time>2026-04-06T07:24:48Z</time></trkpt><trkpt lat="40.975242925786844" lon="15.955835286356754"><ele>402.0</ele><time>2026-04-06T07:24:49Z</time></trkpt><trkpt lat="40.975220042674174" lon="15.956125811075083"><ele>402.0</ele><time>2026-04-06T07:24:50Z</time></trkpt><trkpt lat="40.975195262764146" lon="15.956415251884579"><ele>402.0</ele><time>2026-04-06T07:24:51Z</time></trkpt><trkpt lat="40.97516705654421" lon="15.956703201095364"><ele>402.0</ele><time>2026-04-06T07:24:52Z</time></trkpt><trkpt lat="40.97514023646183" lon="15.956990223623613"><ele>402.0</ele><time>2026-04-06T07:24:53Z</time></trkpt><trkpt lat="40.97511750380587" lon="15.957277450130345"><ele>402.0</ele><time>2026-04-06T07:24:54Z</time></trkpt><trkpt lat="40.975096056712964" lon="15.95756073564574"><ele>402.0</ele><time>2026-04-06T07:24:55Z</time></trkpt><trkpt lat="40.97507606698119" lon="15.957848097619902"><ele>402.0</ele><time>2026-04-06T07:24:56Z</time></trkpt><trkpt lat="40.97505432474936" lon="15.958130626568147"><ele>402.0</ele><time>2026-04-06T07:24:57Z</time></trkpt><trkpt lat="40.975031226226335" lon="15.95841210773426"><ele>402.0</ele><time>2026-04-06T07:24:58Z</time></trkpt><trkpt lat="40.97500739935715" lon="15.958696002544949"><ele>403.0</ele><time>2026-04-06T07:24:59Z</time></trkpt><trkpt lat="40.97498277145076" lon="15.958978439088389"><ele>404.0</ele><time>2026-04-06T07:25:00Z</time></trkpt><trkpt lat="40.97495826795746" lon="15.959258543181605"><ele>405.0</ele><time>2026-04-06T07:25:01Z</time></trkpt><trkpt lat="40.97493356761148" lon="15.95953864806004"><ele>405.0</ele><time>2026-04-06T07:25:02Z</time></trkpt><trkpt lat="40.97490992599287" lon="15.95981878846286"><ele>405.0</ele><time>2026-04-06T07:25:03Z</time></trkpt><trkpt lat="40.974888268744394" lon="15.960097010766754"><ele>405.0</ele><time>2026-04-06T07:25:04Z</time></trkpt><trkpt lat="40.97486386685948" lon="15.960376684469681"><ele>405.0</ele><time>2026-04-06T07:25:05Z</time></trkpt><trkpt lat="40.97483834457555" lon="15.960655082585427"><ele>405.0</ele><time>2026-04-06T07:25:06Z</time></trkpt><trkpt lat="40.97481343860346" lon="15.960933585811084"><ele>405.0</ele><time>2026-04-06T07:25:07Z</time></trkpt><trkpt lat="40.974791705288624" lon="15.96120949814911"><ele>406.0</ele><time>2026-04-06T07:25:08Z</time></trkpt><trkpt lat="40.974769092588936" lon="15.961485764073235"><ele>407.0</ele><time>2026-04-06T07:25:09Z</time></trkpt><trkpt lat="40.97474451602102" lon="15.96176228415921"><ele>408.0</ele><time>2026-04-06T07:25:10Z</time></trkpt><trkpt lat="40.97472029986781" lon="15.962041096819997"><ele>408.66666666666663</ele><time>2026-04-06T07:25:11Z</time></trkpt><trkpt lat="40.974697623678665" lon="15.962315793214097"><ele>409.3333333333333</ele><time>2026-04-06T07:25:12Z</time></trkpt><trkpt lat="40.974674787612585" lon="15.96259724816939"><ele>410.0</ele><time>2026-04-06T07:25:13Z</time></trkpt><trkpt lat="40.97465189233125" lon="15.962874355302803"><ele>411.0</ele><time>2026-04-06T07:25:14Z</time></trkpt><trkpt lat="40.97462744350551" lon="15.963152537624277"><ele>412.0</ele><time>2026-04-06T07:25:15Z</time></trkpt><trkpt lat="40.97460282708529" lon="15.963431080397132"><ele>413.0</ele><time>2026-04-06T07:25:16Z</time></trkpt><trkpt lat="40.97457882573029" lon="15.9637100061212"><ele>414.3333333333333</ele><time>2026-04-06T07:25:17Z</time></trkpt><trkpt lat="40.974554834079676" lon="15.963986753548427"><ele>415.66666666666663</ele><time>2026-04-06T07:25:18Z</time></trkpt><trkpt lat="40.97453222071456" lon="15.96426597769174"><ele>417.0</ele><time>2026-04-06T07:25:19Z</time></trkpt><trkpt lat="40.97451001181867" lon="15.964542980443618"><ele>417.33333333333337</ele><time>2026-04-06T07:25:20Z</time></trkpt><trkpt lat="40.97448757353248" lon="15.964820346271896"><ele>417.6666666666667</ele><time>2026-04-06T07:25:21Z</time></trkpt><trkpt lat="40.97446236531823" lon="15.965098899358827"><ele>418.0</ele><time>2026-04-06T07:25:22Z</time></trkpt><trkpt lat="40.97443632979607" lon="15.965374442999885"><ele>418.0</ele><time>2026-04-06T07:25:23Z</time></trkpt><trkpt lat="40.97441028679503" lon="15.965649864610079"><ele>418.0</ele><time>2026-04-06T07:25:24Z</time></trkpt><trkpt lat="40.97438739146287" lon="15.965926082708046"><ele>418.0</ele><time>2026-04-06T07:25:25Z</time></trkpt><trkpt lat="40.9743648952491" lon="15.966205790569246"><ele>418.0</ele><time>2026-04-06T07:25:26Z</time></trkpt><trkpt lat="40.9743430755888" lon="15.966479836646409"><ele>418.0</ele><time>2026-04-06T07:25:27Z</time></trkpt><trkpt lat="40.97432242465205" lon="15.966757712330375"><ele>418.0</ele><time>2026-04-06T07:25:28Z</time></trkpt><trkpt lat="40.97430330988603" lon="15.967034119913588"><ele>418.0</ele><time>2026-04-06T07:25:29Z</time></trkpt><trkpt lat="40.97428089924043" lon="15.967312636663046"><ele>418.0</ele><time>2026-04-06T07:25:30Z</time></trkpt><trkpt lat="40.974254827595246" lon="15.967588655410653"><ele>418.0</ele><time>2026-04-06T07:25:31Z</time></trkpt><trkpt lat="40.974227365284655" lon="15.967871066646685"><ele>418.0</ele><time>2026-04-06T07:25:32Z</time></trkpt><trkpt lat="40.974202358949576" lon="15.968147936207002"><ele>418.0</ele><time>2026-04-06T07:25:33Z</time></trkpt><trkpt lat="40.97418172734286" lon="15.968428146973116"><ele>418.0</ele><time>2026-04-06T07:25:34Z</time></trkpt><trkpt lat="40.97416045511959" lon="15.968710921145062"><ele>418.0</ele><time>2026-04-06T07:25:35Z</time></trkpt><trkpt lat="40.97413482752418" lon="15.968994794230314"><ele>418.0</ele><time>2026-04-06T07:25:36Z</time></trkpt><trkpt lat="40.974101484289136" lon="15.969279562509712"><ele>418.0</ele><time>2026-04-06T07:25:37Z</time></trkpt><trkpt lat="40.97406475534071" lon="15.969561966874686"><ele>418.0</ele><time>2026-04-06T07:25:38Z</time></trkpt><trkpt lat="40.97403034976231" lon="15.96984831265287"><ele>418.0</ele><time>2026-04-06T07:25:39Z</time></trkpt><trkpt lat="40.973997540342005" lon="15.970133579259478"><ele>418.0</ele><time>2026-04-06T07:25:40Z</time></trkpt><trkpt lat="40.97395655715114" lon="15.970426057975285"><ele>417.6666666666667</ele><time>2026-04-06T07:25:41Z</time></trkpt><trkpt lat="40.97391395199625" lon="15.970717881276173"><ele>417.33333333333337</ele><time>2026-04-06T07:25:42Z</time></trkpt><trkpt lat="40.97386837026608" lon="15.971006713756442"><ele>417.0</ele><time>2026-04-06T07:25:43Z</time></trkpt><trkpt lat="40.97382386028325" lon="15.971299625954757"><ele>417.0</ele><time>2026-04-06T07:25:44Z</time></trkpt><trkpt lat="40.97377476851515" lon="15.97159866226298"><ele>417.0</ele><time>2026-04-06T07:25:45Z</time></trkpt><trkpt lat="40.9737214860781" lon="15.971890987037407"><ele>417.5</ele><time>2026-04-06T07:25:46Z</time></trkpt><trkpt lat="40.97366903191293" lon="15.972188484663652"><ele>418.0</ele><time>2026-04-06T07:25:47Z</time></trkpt><trkpt lat="40.9736177874241" lon="15.972489531705696"><ele>417.0</ele><time>2026-04-06T07:25:48Z</time></trkpt><trkpt lat="40.97356555720911" lon="15.972786626466844"><ele>416.0</ele><time>2026-04-06T07:25:49Z</time></trkpt><trkpt lat="40.97351268218327" lon="15.973085121993513"><ele>414.5</ele><time>2026-04-06T07:25:50Z</time></trkpt><trkpt lat="40.97346117791812" lon="15.973382362004271"><ele>413.0</ele><time>2026-04-06T07:25:51Z</time></trkpt><trkpt lat="40.9734149219372" lon="15.973681588833994"><ele>413.0</ele><time>2026-04-06T07:25:52Z</time></trkpt><trkpt lat="40.973370119320236" lon="15.973978864612468"><ele>413.0</ele><time>2026-04-06T07:25:53Z</time></trkpt><trkpt lat="40.973322476328434" lon="15.974272055344052"><ele>414.5</ele><time>2026-04-06T07:25:54Z</time></trkpt><trkpt lat="40.97327400539921" lon="15.97456670909709"><ele>416.0</ele><time>2026-04-06T07:25:55Z</time></trkpt><trkpt lat="40.97322483641917" lon="15.974857954274812"><ele>416.0</ele><time>2026-04-06T07:25:56Z</time></trkpt><trkpt lat="40.97317732214024" lon="15.975148680985225"><ele>416.0</ele><time>2026-04-06T07:25:57Z</time></trkpt><trkpt lat="40.97313039583439" lon="15.975441994579498"><ele>416.0</ele><time>2026-04-06T07:25:58Z</time></trkpt><trkpt lat="40.97308060824843" lon="15.975735585291329"><ele>416.0</ele><time>2026-04-06T07:25:59Z</time></trkpt><trkpt lat="40.97303125327848" lon="15.976017729217673"><ele>416.0</ele><time>2026-04-06T07:26:00Z</time></trkpt><trkpt lat="40.97298501374199" lon="15.976298861712921"><ele>416.0</ele><time>2026-04-06T07:26:01Z</time></trkpt><trkpt lat="40.97293829990957" lon="15.976579210090396"><ele>416.0</ele><time>2026-04-06T07:26:02Z</time></trkpt><trkpt lat="40.972888916429255" lon="15.976855367167325"><ele>416.0</ele><time>2026-04-06T07:26:03Z</time></trkpt><trkpt lat="40.9728383791426" lon="15.977132964317828"><ele>416.0</ele><time>2026-04-06T07:26:04Z</time></trkpt><trkpt lat="40.97278979891755" lon="15.977409581653538"><ele>416.0</ele><time>2026-04-06T07:26:05Z</time></trkpt><trkpt lat="40.972747093470595" lon="15.977689028447292"><ele>416.0</ele><time>2026-04-06T07:26:06Z</time></trkpt><trkpt lat="40.97270950618691" lon="15.977969980368096"><ele>415.0</ele><time>2026-04-06T07:26:07Z</time></trkpt><trkpt lat="40.97267496013749" lon="15.978253185241371"><ele>414.0</ele><time>2026-04-06T07:26:08Z</time></trkpt><trkpt lat="40.972639849049074" lon="15.978529975032512"><ele>413.0</ele><time>2026-04-06T07:26:09Z</time></trkpt><trkpt lat="40.972607463484444" lon="15.978810930836156"><ele>413.0</ele><time>2026-04-06T07:26:10Z</time></trkpt><trkpt lat="40.972575863246725" lon="15.97908880218131"><ele>413.0</ele><time>2026-04-06T07:26:11Z</time></trkpt><trkpt lat="40.97254787559969" lon="15.979366641258668"><ele>413.0</ele><time>2026-04-06T07:26:12Z</time></trkpt><trkpt lat="40.97252153915975" lon="15.979650419495238"><ele>414.0</ele><time>2026-04-06T07:26:13Z</time></trkpt><trkpt lat="40.97249492529051" lon="15.979923148714553"><ele>415.0</ele><time>2026-04-06T07:26:14Z</time></trkpt><trkpt lat="40.972469696223996" lon="15.98020317574039"><ele>416.0</ele><time>2026-04-06T07:26:15Z</time></trkpt><trkpt lat="40.97244311855157" lon="15.980479579060427"><ele>416.3333333333333</ele><time>2026-04-06T07:26:16Z</time></trkpt><trkpt lat="40.97241488644663" lon="15.980754555209055"><ele>416.66666666666663</ele><time>2026-04-06T07:26:17Z</time></trkpt><trkpt lat="40.972383789730074" lon="15.981033692606262"><ele>417.0</ele><time>2026-04-06T07:26:18Z</time></trkpt><trkpt lat="40.972353052262996" lon="15.981309457627567"><ele>417.0</ele><time>2026-04-06T07:26:19Z</time></trkpt><trkpt lat="40.97232173674869" lon="15.981586852921735"><ele>417.0</ele><time>2026-04-06T07:26:20Z</time></trkpt><trkpt lat="40.972291048667145" lon="15.981860423012515"><ele>417.0</ele><time>2026-04-06T07:26:21Z</time></trkpt><trkpt lat="40.97226418034265" lon="15.982141979729054"><ele>417.0</ele><time>2026-04-06T07:26:22Z</time></trkpt><trkpt lat="40.97223846407482" lon="15.98241948057382"><ele>417.0</ele><time>2026-04-06T07:26:23Z</time></trkpt><trkpt lat="40.972211798378176" lon="15.982697810085739"><ele>417.0</ele><time>2026-04-06T07:26:24Z</time></trkpt><trkpt lat="40.97218504356367" lon="15.982977563104136"><ele>416.66666666666663</ele><time>2026-04-06T07:26:25Z</time></trkpt><trkpt lat="40.97215780388646" lon="15.98325135681593"><ele>416.3333333333333</ele><time>2026-04-06T07:26:26Z</time></trkpt><trkpt lat="40.972128950359334" lon="15.983529308638653"><ele>416.0</ele><time>2026-04-06T07:26:27Z</time></trkpt><trkpt lat="40.972099780057356" lon="15.983803532174147"><ele>416.0</ele><time>2026-04-06T07:26:28Z</time></trkpt><trkpt lat="40.972072233353735" lon="15.98408129035215"><ele>416.0</ele><time>2026-04-06T07:26:29Z</time></trkpt><trkpt lat="40.972044956752946" lon="15.98435653189712"><ele>416.0</ele><time>2026-04-06T07:26:30Z</time></trkpt><trkpt lat="40.97201776464319" lon="15.984633959685647"><ele>416.3333333333333</ele><time>2026-04-06T07:26:31Z</time></trkpt><trkpt lat="40.97198933930129" lon="15.984908648830146"><ele>416.66666666666663</ele><time>2026-04-06T07:26:32Z</time></trkpt><trkpt lat="40.9719585210516" lon="15.985182253541486"><ele>417.0</ele><time>2026-04-06T07:26:33Z</time></trkpt><trkpt lat="40.971929082685534" lon="15.9854563895083"><ele>416.66666666666663</ele><time>2026-04-06T07:26:34Z</time></trkpt><trkpt lat="40.97190059411074" lon="15.985733496703384"><ele>416.3333333333333</ele><time>2026-04-06T07:26:35Z</time></trkpt><trkpt lat="40.97187435761969" lon="15.986009120914039"><ele>416.0</ele><time>2026-04-06T07:26:36Z</time></trkpt><trkpt lat="40.97184758468953" lon="15.986287191647946"><ele>416.0</ele><time>2026-04-06T07:26:37Z</time></trkpt><trkpt lat="40.971819939092455" lon="15.986565671887965"><ele>416.0</ele><time>2026-04-06T07:26:38Z</time></trkpt><trkpt lat="40.97179093448729" lon="15.986846031161594"><ele>416.0</ele><time>2026-04-06T07:26:39Z</time></trkpt><trkpt lat="40.97176269088912" lon="15.987124023998144"><ele>416.3333333333333</ele><time>2026-04-06T07:26:40Z</time></trkpt><trkpt lat="40.97173452748161" lon="15.98740442169952"><ele>416.66666666666663</ele><time>2026-04-06T07:26:41Z</time></trkpt><trkpt lat="40.9717038723829" lon="15.987684003201222"><ele>417.0</ele><time>2026-04-06T07:26:42Z</time></trkpt><trkpt lat="40.97167236544409" lon="15.987966607534196"><ele>417.0</ele><time>2026-04-06T07:26:43Z</time></trkpt><trkpt lat="40.971644146895976" lon="15.988244625193527"><ele>417.0</ele><time>2026-04-06T07:26:44Z</time></trkpt><trkpt lat="40.97161697359624" lon="15.98852402168655"><ele>417.0</ele><time>2026-04-06T07:26:45Z</time></trkpt><trkpt lat="40.971588630666375" lon="15.988804593472803"><ele>417.0</ele><time>2026-04-06T07:26:46Z</time></trkpt><trkpt lat="40.97155973001664" lon="15.989087047247125"><ele>417.0</ele><time>2026-04-06T07:26:47Z</time></trkpt><trkpt lat="40.97153071452205" lon="15.989365561005311"><ele>417.0</ele><time>2026-04-06T07:26:48Z</time></trkpt><trkpt lat="40.97150188549521" lon="15.989649981140468"><ele>417.0</ele><time>2026-04-06T07:26:49Z</time></trkpt><trkpt lat="40.971473882359646" lon="15.989937186062049"><ele>417.0</ele><time>2026-04-06T07:26:50Z</time></trkpt><trkpt lat="40.97144533660168" lon="15.99022591788925"><ele>417.0</ele><time>2026-04-06T07:26:51Z</time></trkpt><trkpt lat="40.97141641293846" lon="15.990513964981734"><ele>417.0</ele><time>2026-04-06T07:26:52Z</time></trkpt><trkpt lat="40.971386602692945" lon="15.990805862981588"><ele>417.0</ele><time>2026-04-06T07:26:53Z</time></trkpt><trkpt lat="40.97135645323614" lon="15.991095538381083"><ele>417.0</ele><time>2026-04-06T07:26:54Z</time></trkpt><trkpt lat="40.97132465896976" lon="15.991389243141503"><ele>416.33333333333337</ele><time>2026-04-06T07:26:55Z</time></trkpt><trkpt lat="40.97129308339263" lon="15.991680732622294"><ele>415.6666666666667</ele><time>2026-04-06T07:26:56Z</time></trkpt><trkpt lat="40.971263292415536" lon="15.99197203765675"><ele>415.0</ele><time>2026-04-06T07:26:57Z</time></trkpt><trkpt lat="40.971233907920116" lon="15.992266914888559"><ele>415.6666666666667</ele><time>2026-04-06T07:26:58Z</time></trkpt><trkpt lat="40.97120614273793" lon="15.992558107262347"><ele>416.33333333333337</ele><time>2026-04-06T07:26:59Z</time></trkpt><trkpt lat="40.971179351614595" lon="15.992850850316422"><ele>417.0</ele><time>2026-04-06T07:27:00Z</time></trkpt><trkpt lat="40.971152479494" lon="15.993142171726754"><ele>417.66666666666663</ele><time>2026-04-06T07:27:01Z</time></trkpt><trkpt lat="40.97112248205594" lon="15.993433706906643"><ele>418.3333333333333</ele><time>2026-04-06T07:27:02Z</time></trkpt><trkpt lat="40.97109006997991" lon="15.99372432983567"><ele>419.0</ele><time>2026-04-06T07:27:03Z</time></trkpt><trkpt lat="40.97105804113675" lon="15.994015087162209"><ele>418.3333333333333</ele><time>2026-04-06T07:27:04Z</time></trkpt><trkpt lat="40.971027772479154" lon="15.994302624758902"><ele>417.66666666666663</ele><time>2026-04-06T07:27:05Z</time></trkpt><trkpt lat="40.970996205603335" lon="15.994587790968826"><ele>417.0</ele><time>2026-04-06T07:27:06Z</time></trkpt><trkpt lat="40.970965763760056" lon="15.994874888206686"><ele>417.0</ele><time>2026-04-06T07:27:07Z</time></trkpt><trkpt lat="40.97093433755609" lon="15.99515438020064"><ele>417.0</ele><time>2026-04-06T07:27:08Z</time></trkpt><trkpt lat="40.9709020819597" lon="15.995435259569117"><ele>417.0</ele><time>2026-04-06T07:27:09Z</time></trkpt><trkpt lat="40.970868918483134" lon="15.995712418440833"><ele>418.0</ele><time>2026-04-06T07:27:10Z</time></trkpt><trkpt lat="40.97083175174768" lon="15.995987037091105"><ele>419.0</ele><time>2026-04-06T07:27:11Z</time></trkpt><trkpt lat="40.97079157118769" lon="15.996255048560354"><ele>420.0</ele><time>2026-04-06T07:27:12Z</time></trkpt><trkpt lat="40.97074722662432" lon="15.996529301751801"><ele>419.66666666666663</ele><time>2026-04-06T07:27:13Z</time></trkpt><trkpt lat="40.97070402600573" lon="15.996797888984375"><ele>419.3333333333333</ele><time>2026-04-06T07:27:14Z</time></trkpt><trkpt lat="40.97065842217372" lon="15.99706611714511"><ele>419.0</ele><time>2026-04-06T07:27:15Z</time></trkpt><trkpt lat="40.97061115845652" lon="15.997334180613207"><ele>419.0</ele><time>2026-04-06T07:27:16Z</time></trkpt><trkpt lat="40.970559240718174" lon="15.997603305690035"><ele>419.0</ele><time>2026-04-06T07:27:17Z</time></trkpt><trkpt lat="40.97050091266896" lon="15.997863824715775"><ele>419.0</ele><time>2026-04-06T07:27:18Z</time></trkpt><trkpt lat="40.970440662976856" lon="15.99812797999334"><ele>419.0</ele><time>2026-04-06T07:27:19Z</time></trkpt><trkpt lat="40.97037772281892" lon="15.998390754714704"><ele>419.0</ele><time>2026-04-06T07:27:20Z</time></trkpt><trkpt lat="40.97031636433569" lon="15.998654470207574"><ele>419.0</ele><time>2026-04-06T07:27:21Z</time></trkpt><trkpt lat="40.97025214369209" lon="15.99891864836233"><ele>419.3333333333333</ele><time>2026-04-06T07:27:22Z</time></trkpt><trkpt lat="40.97018930483313" lon="15.99917719978172"><ele>419.66666666666663</ele><time>2026-04-06T07:27:23Z</time></trkpt><trkpt lat="40.970120485873345" lon="15.999441154601344"><ele>420.0</ele><time>2026-04-06T07:27:24Z</time></trkpt><trkpt lat="40.97004626379119" lon="15.999705303399512"><ele>420.0</ele><time>2026-04-06T07:27:25Z</time></trkpt><trkpt lat="40.9699671854073" lon="15.999967143650615"><ele>420.0</ele><time>2026-04-06T07:27:26Z</time></trkpt><trkpt lat="40.96988775452098" lon="16.00022682291397"><ele>420.0</ele><time>2026-04-06T07:27:27Z</time></trkpt><trkpt lat="40.96980728460265" lon="16.000488682807408"><ele>420.0</ele><time>2026-04-06T07:27:28Z</time></trkpt><trkpt lat="40.96972339698167" lon="16.000748954748666"><ele>420.0</ele><time>2026-04-06T07:27:29Z</time></trkpt><trkpt lat="40.96963378980696" lon="16.00101045739569"><ele>420.0</ele><time>2026-04-06T07:27:30Z</time></trkpt><trkpt lat="40.969542959099996" lon="16.001268205832144"><ele>419.0</ele><time>2026-04-06T07:27:31Z</time></trkpt><trkpt lat="40.96945086901569" lon="16.001529253002357"><ele>418.0</ele><time>2026-04-06T07:27:32Z</time></trkpt><trkpt lat="40.969356732938316" lon="16.001784337610506"><ele>417.0</ele><time>2026-04-06T07:27:33Z</time></trkpt><trkpt lat="40.969256508308135" lon="16.00204185556429"><ele>417.66666666666663</ele><time>2026-04-06T07:27:34Z</time></trkpt><trkpt lat="40.96915345941008" lon="16.002298065731583"><ele>418.3333333333333</ele><time>2026-04-06T07:27:35Z</time></trkpt><trkpt lat="40.96904714828359" lon="16.00256297907372"><ele>419.0</ele><time>2026-04-06T07:27:36Z</time></trkpt><trkpt lat="40.96895159390998" lon="16.002818638409774"><ele>419.0</ele><time>2026-04-06T07:27:37Z</time></trkpt><trkpt lat="40.96884921896554" lon="16.00306756920183"><ele>419.0</ele><time>2026-04-06T07:27:38Z</time></trkpt><trkpt lat="40.96873565510855" lon="16.003312754305263"><ele>419.0</ele><time>2026-04-06T07:27:39Z</time></trkpt><trkpt lat="40.96861802390579" lon="16.003555130364344"><ele>419.0</ele><time>2026-04-06T07:27:40Z</time></trkpt><trkpt lat="40.96850417788213" lon="16.003800731017602"><ele>419.0</ele><time>2026-04-06T07:27:41Z</time></trkpt><trkpt lat="40.968390003595516" lon="16.00404650321668"><ele>419.0</ele><time>2026-04-06T07:27:42Z</time></trkpt><trkpt lat="40.96827342267964" lon="16.00429108941311"><ele>419.0</ele><time>2026-04-06T07:27:43Z</time></trkpt><trkpt lat="40.968153584036756" lon="16.004533118884105"><ele>419.0</ele><time>2026-04-06T07:27:44Z</time></trkpt><trkpt lat="40.9680309015496" lon="16.00477058227455"><ele>419.0</ele><time>2026-04-06T07:27:45Z</time></trkpt><trkpt lat="40.96790453812833" lon="16.00500581928663"><ele>418.3333333333333</ele><time>2026-04-06T07:27:46Z</time></trkpt><trkpt lat="40.96777990619689" lon="16.005238889738127"><ele>417.66666666666663</ele><time>2026-04-06T07:27:47Z</time></trkpt><trkpt lat="40.96765275917614" lon="16.005472656016025"><ele>417.0</ele><time>2026-04-06T07:27:48Z</time></trkpt><trkpt lat="40.96752269700565" lon="16.005699369465823"><ele>416.0</ele><time>2026-04-06T07:27:49Z</time></trkpt><trkpt lat="40.96739063987651" lon="16.005923809131396"><ele>415.0</ele><time>2026-04-06T07:27:50Z</time></trkpt><trkpt lat="40.967253508831554" lon="16.0061487897325"><ele>414.0</ele><time>2026-04-06T07:27:51Z</time></trkpt><trkpt lat="40.967115078603435" lon="16.00636907264602"><ele>414.0</ele><time>2026-04-06T07:27:52Z</time></trkpt><trkpt lat="40.96697422857391" lon="16.006587465425806"><ele>414.0</ele><time>2026-04-06T07:27:53Z</time></trkpt><trkpt lat="40.96683304036637" lon="16.006802537549333"><ele>414.0</ele><time>2026-04-06T07:27:54Z</time></trkpt><trkpt lat="40.96668895899809" lon="16.007018161136152"><ele>411.0</ele><time>2026-04-06T07:27:55Z</time></trkpt><trkpt lat="40.966544558937194" lon="16.0072306509915"><ele>408.0</ele><time>2026-04-06T07:27:56Z</time></trkpt><trkpt lat="40.96639916733109" lon="16.007441762453006"><ele>405.0</ele><time>2026-04-06T07:27:57Z</time></trkpt><trkpt lat="40.966250884381125" lon="16.007652677727346"><ele>405.0</ele><time>2026-04-06T07:27:58Z</time></trkpt><trkpt lat="40.96610173681001" lon="16.007855034485875"><ele>405.0</ele><time>2026-04-06T07:27:59Z</time></trkpt><trkpt lat="40.96594703673327" lon="16.008053001168122"><ele>405.0</ele><time>2026-04-06T07:28:00Z</time></trkpt><trkpt lat="40.965787219270425" lon="16.008249633153977"><ele>404.66666666666663</ele><time>2026-04-06T07:28:01Z</time></trkpt><trkpt lat="40.96562862520595" lon="16.00844221387617"><ele>404.3333333333333</ele><time>2026-04-06T07:28:02Z</time></trkpt><trkpt lat="40.96546871318482" lon="16.00863503226857"><ele>404.0</ele><time>2026-04-06T07:28:03Z</time></trkpt><trkpt lat="40.965309288399745" lon="16.00882629663169"><ele>404.0</ele><time>2026-04-06T07:28:04Z</time></trkpt><trkpt lat="40.965150256873635" lon="16.009014842747924"><ele>404.0</ele><time>2026-04-06T07:28:05Z</time></trkpt><trkpt lat="40.964985380083235" lon="16.0092014295733"><ele>404.0</ele><time>2026-04-06T07:28:06Z</time></trkpt><trkpt lat="40.96482204646324" lon="16.0093831518892"><ele>404.3333333333333</ele><time>2026-04-06T07:28:07Z</time></trkpt><trkpt lat="40.96465180275648" lon="16.009563406758176"><ele>404.66666666666663</ele><time>2026-04-06T07:28:08Z</time></trkpt><trkpt lat="40.96448272414608" lon="16.009737866438172"><ele>405.0</ele><time>2026-04-06T07:28:09Z</time></trkpt><trkpt lat="40.964311869572335" lon="16.009912309976396"><ele>403.0</ele><time>2026-04-06T07:28:10Z</time></trkpt><trkpt lat="40.964140624471305" lon="16.01008447162158"><ele>401.0</ele><time>2026-04-06T07:28:11Z</time></trkpt><trkpt lat="40.96396908983937" lon="16.01025299950163"><ele>399.0</ele><time>2026-04-06T07:28:12Z</time></trkpt><trkpt lat="40.96379499366796" lon="16.010411809126868"><ele>399.0</ele><time>2026-04-06T07:28:13Z</time></trkpt><trkpt lat="40.963620741054164" lon="16.01058194596669"><ele>399.0</ele><time>2026-04-06T07:28:14Z</time></trkpt><trkpt lat="40.96344498251268" lon="16.01074397342277"><ele>399.0</ele><time>2026-04-06T07:28:15Z</time></trkpt><trkpt lat="40.9632704072894" lon="16.010896809868413"><ele>397.0</ele><time>2026-04-06T07:28:16Z</time></trkpt><trkpt lat="40.963094178258444" lon="16.01104770654846"><ele>395.0</ele><time>2026-04-06T07:28:17Z</time></trkpt><trkpt lat="40.96291904041618" lon="16.011196626946873"><ele>393.0</ele><time>2026-04-06T07:28:18Z</time></trkpt><trkpt lat="40.9627430321167" lon="16.011350720797697"><ele>393.0</ele><time>2026-04-06T07:28:19Z</time></trkpt><trkpt lat="40.96256773945759" lon="16.011499037803507"><ele>393.0</ele><time>2026-04-06T07:28:20Z</time></trkpt><trkpt lat="40.96238573723685" lon="16.011640848427053"><ele>393.0</ele><time>2026-04-06T07:28:21Z</time></trkpt><trkpt lat="40.96221233108032" lon="16.011786103165157"><ele>393.0</ele><time>2026-04-06T07:28:22Z</time></trkpt><trkpt lat="40.962034729087385" lon="16.011928650496436"><ele>393.0</ele><time>2026-04-06T07:28:23Z</time></trkpt><trkpt lat="40.961859526771796" lon="16.012074992350215"><ele>393.0</ele><time>2026-04-06T07:28:24Z</time></trkpt><trkpt lat="40.96168647949775" lon="16.012223848378532"><ele>393.0</ele><time>2026-04-06T07:28:25Z</time></trkpt><trkpt lat="40.961514120661825" lon="16.012366403383496"><ele>393.0</ele><time>2026-04-06T07:28:26Z</time></trkpt><trkpt lat="40.961342079800986" lon="16.0125183520316"><ele>393.0</ele><time>2026-04-06T07:28:27Z</time></trkpt><trkpt lat="40.961172054031756" lon="16.01266593027376"><ele>393.66666666666663</ele><time>2026-04-06T07:28:28Z</time></trkpt><trkpt lat="40.96100456519629" lon="16.012812918075372"><ele>394.3333333333333</ele><time>2026-04-06T07:28:29Z</time></trkpt><trkpt lat="40.9608377988518" lon="16.01295708369041"><ele>395.0</ele><time>2026-04-06T07:28:30Z</time></trkpt><trkpt lat="40.96066978782207" lon="16.013099612596516"><ele>395.0</ele><time>2026-04-06T07:28:31Z</time></trkpt><trkpt lat="40.96049941387437" lon="16.013238818579467"><ele>395.0</ele><time>2026-04-06T07:28:32Z</time></trkpt><trkpt lat="40.96032707683677" lon="16.013379193186484"><ele>395.0</ele><time>2026-04-06T07:28:33Z</time></trkpt><trkpt lat="40.96015580490086" lon="16.01352221702482"><ele>396.66666666666663</ele><time>2026-04-06T07:28:34Z</time></trkpt><trkpt lat="40.959983620269604" lon="16.013665902998124"><ele>398.33333333333337</ele><time>2026-04-06T07:28:35Z</time></trkpt><trkpt lat="40.9598133969588" lon="16.013804578981933"><ele>400.0</ele><time>2026-04-06T07:28:36Z</time></trkpt><trkpt lat="40.9596428097069" lon="16.013954045489562"><ele>400.0</ele><time>2026-04-06T07:28:37Z</time></trkpt><trkpt lat="40.95947291201821" lon="16.014094444108576"><ele>400.0</ele><time>2026-04-06T07:28:38Z</time></trkpt><trkpt lat="40.959301815999034" lon="16.014235613340414"><ele>400.0</ele><time>2026-04-06T07:28:39Z</time></trkpt><trkpt lat="40.95913057462599" lon="16.01437448007509"><ele>399.33333333333337</ele><time>2026-04-06T07:28:40Z</time></trkpt><trkpt lat="40.958960285216804" lon="16.014517543656524"><ele>398.66666666666663</ele><time>2026-04-06T07:28:41Z</time></trkpt><trkpt lat="40.958791782199725" lon="16.014664267046495"><ele>398.0</ele><time>2026-04-06T07:28:42Z</time></trkpt><trkpt lat="40.95862308104755" lon="16.01480517907399"><ele>398.0</ele><time>2026-04-06T07:28:43Z</time></trkpt><trkpt lat="40.95845149874044" lon="16.014943795282942"><ele>398.0</ele><time>2026-04-06T07:28:44Z</time></trkpt><trkpt lat="40.958283544568545" lon="16.015088573881705"><ele>398.0</ele><time>2026-04-06T07:28:45Z</time></trkpt><trkpt lat="40.95811443960705" lon="16.015231990545853"><ele>396.66666666666663</ele><time>2026-04-06T07:28:46Z</time></trkpt><trkpt lat="40.957945332556854" lon="16.015374866383038"><ele>395.33333333333337</ele><time>2026-04-06T07:28:47Z</time></trkpt><trkpt lat="40.957774240553576" lon="16.015515855531344"><ele>394.0</ele><time>2026-04-06T07:28:48Z</time></trkpt><trkpt lat="40.95760056098668" lon="16.01566729269709"><ele>394.33333333333337</ele><time>2026-04-06T07:28:49Z</time></trkpt><trkpt lat="40.95742757462792" lon="16.01581581220561"><ele>394.66666666666663</ele><time>2026-04-06T07:28:50Z</time></trkpt><trkpt lat="40.95725469181092" lon="16.015961488867823"><ele>395.0</ele><time>2026-04-06T07:28:51Z</time></trkpt><trkpt lat="40.95708101472499" lon="16.016112339775464"><ele>395.0</ele><time>2026-04-06T07:28:52Z</time></trkpt><trkpt lat="40.956906653156274" lon="16.016259134256654"><ele>395.0</ele><time>2026-04-06T07:28:53Z</time></trkpt><trkpt lat="40.95673352223919" lon="16.01640809876096"><ele>395.0</ele><time>2026-04-06T07:28:54Z</time></trkpt><trkpt lat="40.95656170713413" lon="16.01655811632164"><ele>394.66666666666663</ele><time>2026-04-06T07:28:55Z</time></trkpt><trkpt lat="40.95639192319683" lon="16.016713464897233"><ele>394.33333333333337</ele><time>2026-04-06T07:28:56Z</time></trkpt><trkpt lat="40.956223729147254" lon="16.016870233836553"><ele>394.0</ele><time>2026-04-06T07:28:57Z</time></trkpt><trkpt lat="40.95605832170742" lon="16.017033859366872"><ele>394.0</ele><time>2026-04-06T07:28:58Z</time></trkpt><trkpt lat="40.95589394048473" lon="16.01720154496533"><ele>394.0</ele><time>2026-04-06T07:28:59Z</time></trkpt><trkpt lat="40.95572960436644" lon="16.017371922417723"><ele>394.0</ele><time>2026-04-06T07:29:00Z</time></trkpt><trkpt lat="40.95556690781085" lon="16.017547032138943"><ele>392.6666666666667</ele><time>2026-04-06T07:29:01Z</time></trkpt><trkpt lat="40.955407412318245" lon="16.017725837216176"><ele>391.33333333333337</ele><time>2026-04-06T07:29:02Z</time></trkpt><trkpt lat="40.95525370815088" lon="16.01791328021703"><ele>390.0</ele><time>2026-04-06T07:29:03Z</time></trkpt><trkpt lat="40.95510319452479" lon="16.01810822521624"><ele>389.33333333333337</ele><time>2026-04-06T07:29:04Z</time></trkpt><trkpt lat="40.95495637720231" lon="16.01830624600806"><ele>388.6666666666667</ele><time>2026-04-06T07:29:05Z</time></trkpt><trkpt lat="40.954812894823384" lon="16.018511205694"><ele>388.0</ele><time>2026-04-06T07:29:06Z</time></trkpt><trkpt lat="40.954674248647265" lon="16.01871932089074"><ele>388.0</ele><time>2026-04-06T07:29:07Z</time></trkpt><trkpt lat="40.95453719596882" lon="16.01893152117182"><ele>388.0</ele><time>2026-04-06T07:29:08Z</time></trkpt><trkpt lat="40.954404375015265" lon="16.019144528525775"><ele>388.0</ele><time>2026-04-06T07:29:09Z</time></trkpt><trkpt lat="40.954273235987415" lon="16.0193600151594"><ele>387.33333333333337</ele><time>2026-04-06T07:29:10Z</time></trkpt><trkpt lat="40.95414533388309" lon="16.019579554112475"><ele>386.66666666666663</ele><time>2026-04-06T07:29:11Z</time></trkpt><trkpt lat="40.954020320005775" lon="16.019804144346523"><ele>386.0</ele><time>2026-04-06T07:29:12Z</time></trkpt><trkpt lat="40.95389981378468" lon="16.020034305781987"><ele>385.3333333333333</ele><time>2026-04-06T07:29:13Z</time></trkpt><trkpt lat="40.95378108208993" lon="16.020262407962303"><ele>384.66666666666663</ele><time>2026-04-06T07:29:14Z</time></trkpt><trkpt lat="40.95366259856175" lon="16.020497283874008"><ele>384.0</ele><time>2026-04-06T07:29:15Z</time></trkpt><trkpt lat="40.95354179339452" lon="16.020728928721685"><ele>384.33333333333337</ele><time>2026-04-06T07:29:16Z</time></trkpt><trkpt lat="40.95341802434858" lon="16.020962174265186"><ele>384.6666666666667</ele><time>2026-04-06T07:29:17Z</time></trkpt><trkpt lat="40.95329229293389" lon="16.02119413522713"><ele>385.0</ele><time>2026-04-06T07:29:18Z</time></trkpt><trkpt lat="40.953167401123544" lon="16.0214296308172"><ele>384.33333333333337</ele><time>2026-04-06T07:29:19Z</time></trkpt><trkpt lat="40.953045991344716" lon="16.021665555586708"><ele>383.6666666666667</ele><time>2026-04-06T07:29:20Z</time></trkpt><trkpt lat="40.952923154191176" lon="16.02190417445648"><ele>383.0</ele><time>2026-04-06T07:29:21Z</time></trkpt><trkpt lat="40.95280021085407" lon="16.022144664471757"><ele>383.0</ele><time>2026-04-06T07:29:22Z</time></trkpt><trkpt lat="40.9526749550499" lon="16.02238531423573"><ele>383.0</ele><time>2026-04-06T07:29:23Z</time></trkpt><trkpt lat="40.952549512272455" lon="16.02262434529333"><ele>383.0</ele><time>2026-04-06T07:29:24Z</time></trkpt><trkpt lat="40.95242395636239" lon="16.022864473185848"><ele>382.33333333333337</ele><time>2026-04-06T07:29:25Z</time></trkpt><trkpt lat="40.952298092322344" lon="16.02310445674269"><ele>381.6666666666667</ele><time>2026-04-06T07:29:26Z</time></trkpt><trkpt lat="40.95217480698965" lon="16.023345870458158"><ele>381.0</ele><time>2026-04-06T07:29:27Z</time></trkpt><trkpt lat="40.95205104702049" lon="16.02359047706399"><ele>381.0</ele><time>2026-04-06T07:29:28Z</time></trkpt><trkpt lat="40.951925766163626" lon="16.023829225027654"><ele>381.0</ele><time>2026-04-06T07:29:29Z</time></trkpt><trkpt lat="40.95179949749997" lon="16.024065790833582"><ele>381.0</ele><time>2026-04-06T07:29:30Z</time></trkpt><trkpt lat="40.95167360961883" lon="16.02430562813852"><ele>381.0</ele><time>2026-04-06T07:29:31Z</time></trkpt><trkpt lat="40.951545199724265" lon="16.024545211509718"><ele>381.0</ele><time>2026-04-06T07:29:32Z</time></trkpt><trkpt lat="40.95141769903943" lon="16.024778455113974"><ele>381.0</ele><time>2026-04-06T07:29:33Z</time></trkpt><trkpt lat="40.95128889151401" lon="16.025010656168167"><ele>381.0</ele><time>2026-04-06T07:29:34Z</time></trkpt><trkpt lat="40.95115306105604" lon="16.025238192268176"><ele>381.0</ele><time>2026-04-06T07:29:35Z</time></trkpt><trkpt lat="40.95101462572132" lon="16.025463207887032"><ele>381.0</ele><time>2026-04-06T07:29:36Z</time></trkpt><trkpt lat="40.950882303542826" lon="16.02568227946757"><ele>381.0</ele><time>2026-04-06T07:29:37Z</time></trkpt><trkpt lat="40.950742801836554" lon="16.025900521849447"><ele>381.0</ele><time>2026-04-06T07:29:38Z</time></trkpt><trkpt lat="40.95060737986465" lon="16.02612450267077"><ele>381.0</ele><time>2026-04-06T07:29:39Z</time></trkpt><trkpt lat="40.95047057510544" lon="16.026333291091458"><ele>381.0</ele><time>2026-04-06T07:29:40Z</time></trkpt><trkpt lat="40.95033068758223" lon="16.026540914522336"><ele>381.0</ele><time>2026-04-06T07:29:41Z</time></trkpt><trkpt lat="40.95019903727181" lon="16.026728991327964"><ele>381.0</ele><time>2026-04-06T07:29:42Z</time></trkpt><trkpt lat="40.95006545950487" lon="16.026913849871775"><ele>380.3333333333333</ele><time>2026-04-06T07:29:43Z</time></trkpt><trkpt lat="40.94993189852271" lon="16.02709301195144"><ele>379.66666666666663</ele><time>2026-04-06T07:29:44Z</time></trkpt><trkpt lat="40.94979972279247" lon="16.027267123071066"><ele>379.0</ele><time>2026-04-06T07:29:45Z</time></trkpt><trkpt lat="40.94966815636799" lon="16.027434017104294"><ele>380.0</ele><time>2026-04-06T07:29:46Z</time></trkpt><trkpt lat="40.949540579571135" lon="16.027596865272365"><ele>381.0</ele><time>2026-04-06T07:29:47Z</time></trkpt><trkpt lat="40.94941921453989" lon="16.027738101823566"><ele>382.0</ele><time>2026-04-06T07:29:48Z</time></trkpt><trkpt lat="40.94929634742793" lon="16.027862957854648"><ele>381.3333333333333</ele><time>2026-04-06T07:29:49Z</time></trkpt><trkpt lat="40.94917055378554" lon="16.027969629705847"><ele>380.6666666666667</ele><time>2026-04-06T07:29:50Z</time></trkpt><trkpt lat="40.949056074356314" lon="16.028081229732596"><ele>380.0</ele><time>2026-04-06T07:29:51Z</time></trkpt><trkpt lat="40.94889114754849" lon="16.028114984724905"><ele>380.0</ele><time>2026-04-06T07:29:52Z</time></trkpt><trkpt lat="40.94874540924548" lon="16.028145243098912"><ele>380.0</ele><time>2026-04-06T07:29:53Z</time></trkpt><trkpt lat="40.94860575190589" lon="16.02813830298771"><ele>380.0</ele><time>2026-04-06T07:29:54Z</time></trkpt><trkpt lat="40.9484686063887" lon="16.02810415069308"><ele>380.0</ele><time>2026-04-06T07:29:55Z</time></trkpt><trkpt lat="40.94833307327978" lon="16.028048257488013"><ele>379.25</ele><time>2026-04-06T07:29:56Z</time></trkpt><trkpt lat="40.9482089627768" lon="16.028000714002292"><ele>378.5</ele><time>2026-04-06T07:29:57Z</time></trkpt><trkpt lat="40.94809225399331" lon="16.027987508749305"><ele>377.75</ele><time>2026-04-06T07:29:58Z</time></trkpt><trkpt lat="40.947974187579504" lon="16.028017436293386"><ele>377.0</ele><time>2026-04-06T07:29:59Z</time></trkpt><trkpt lat="40.94786874526513" lon="16.0280843970713"><ele>377.0</ele><time>2026-04-06T07:30:00Z</time></trkpt><trkpt lat="40.947792712963796" lon="16.02818314216024"><ele>377.0</ele><time>2026-04-06T07:30:01Z</time></trkpt><trkpt lat="40.94774090689422" lon="16.028307907498967"><ele>377.0</ele><time>2026-04-06T07:30:02Z</time></trkpt><trkpt lat="40.947711645633284" lon="16.0284542112083"><ele>377.0</ele><time>2026-04-06T07:30:03Z</time></trkpt><trkpt lat="40.947709313476444" lon="16.028608036697047"><ele>377.0</ele><time>2026-04-06T07:30:04Z</time></trkpt><trkpt lat="40.94773994560822" lon="16.02876886604628"><ele>377.25</ele><time>2026-04-06T07:30:05Z</time></trkpt><trkpt lat="40.94780216913743" lon="16.028930054520192"><ele>377.5</ele><time>2026-04-06T07:30:06Z</time></trkpt><trkpt lat="40.94789152911549" lon="16.0290776041909"><ele>377.75</ele><time>2026-04-06T07:30:07Z</time></trkpt><trkpt lat="40.94800462677851" lon="16.029220311091365"><ele>378.0</ele><time>2026-04-06T07:30:08Z</time></trkpt><trkpt lat="40.948113033408916" lon="16.029355759566982"><ele>378.3333333333333</ele><time>2026-04-06T07:30:09Z</time></trkpt><trkpt lat="40.94821877630241" lon="16.02952162452578"><ele>378.66666666666663</ele><time>2026-04-06T07:30:10Z</time></trkpt><trkpt lat="40.948322231131776" lon="16.029680628047807"><ele>379.0</ele><time>2026-04-06T07:30:11Z</time></trkpt><trkpt lat="40.94842721395715" lon="16.02984157699159"><ele>380.0</ele><time>2026-04-06T07:30:12Z</time></trkpt><trkpt lat="40.94854040775731" lon="16.030011524269767"><ele>381.0</ele><time>2026-04-06T07:30:13Z</time></trkpt><trkpt lat="40.948650039439855" lon="16.03018242446665"><ele>382.0</ele><time>2026-04-06T07:30:14Z</time></trkpt><trkpt lat="40.94876499872003" lon="16.03035171565406"><ele>382.0</ele><time>2026-04-06T07:30:15Z</time></trkpt><trkpt lat="40.94886843469212" lon="16.03050421123303"><ele>382.0</ele><time>2026-04-06T07:30:16Z</time></trkpt><trkpt lat="40.94898088608027" lon="16.03063695208402"><ele>382.0</ele><time>2026-04-06T07:30:17Z</time></trkpt><trkpt lat="40.949107942667744" lon="16.03074262907792"><ele>382.3333333333333</ele><time>2026-04-06T07:30:18Z</time></trkpt><trkpt lat="40.949247241068775" lon="16.030836420421895"><ele>382.6666666666667</ele><time>2026-04-06T07:30:19Z</time></trkpt><trkpt lat="40.949398338741574" lon="16.030917173798052"><ele>383.0</ele><time>2026-04-06T07:30:20Z</time></trkpt><trkpt lat="40.94955560076431" lon="16.03098049215328"><ele>383.0</ele><time>2026-04-06T07:30:21Z</time></trkpt><trkpt lat="40.949716199809146" lon="16.031008975700697"><ele>383.0</ele><time>2026-04-06T07:30:22Z</time></trkpt><trkpt lat="40.949882245125536" lon="16.0310067062904"><ele>383.0</ele><time>2026-04-06T07:30:23Z</time></trkpt><trkpt lat="40.950044615529045" lon="16.030977657801884"><ele>383.33333333333337</ele><time>2026-04-06T07:30:24Z</time></trkpt><trkpt lat="40.95020943108787" lon="16.03092634616392"><ele>383.6666666666667</ele><time>2026-04-06T07:30:25Z</time></trkpt><trkpt lat="40.950360109204574" lon="16.0308543727369"><ele>384.0</ele><time>2026-04-06T07:30:26Z</time></trkpt><trkpt lat="40.950497823427824" lon="16.030760017154392"><ele>384.0</ele><time>2026-04-06T07:30:27Z</time></trkpt><trkpt lat="40.950609122035445" lon="16.03065885881034"><ele>384.0</ele><time>2026-04-06T07:30:28Z</time></trkpt><trkpt lat="40.95071242950412" lon="16.030567069390152"><ele>384.0</ele><time>2026-04-06T07:30:29Z</time></trkpt><trkpt lat="40.950798610697376" lon="16.03051187706314"><ele>384.0</ele><time>2026-04-06T07:30:30Z</time></trkpt><trkpt lat="40.95089387662422" lon="16.030478922884345"><ele>384.6</ele><time>2026-04-06T07:30:31Z</time></trkpt><trkpt lat="40.95099015763301" lon="16.03048116951299"><ele>385.2</ele><time>2026-04-06T07:30:32Z</time></trkpt><trkpt lat="40.95108078579243" lon="16.030514567555194"><ele>385.8</ele><time>2026-04-06T07:30:33Z</time></trkpt><trkpt lat="40.95116600564206" lon="16.03058831999158"><ele>386.40000000000003</ele><time>2026-04-06T07:30:34Z</time></trkpt><trkpt lat="40.95125174965961" lon="16.03069168344288"><ele>387.0</ele><time>2026-04-06T07:30:35Z</time></trkpt><trkpt lat="40.951334996484206" lon="16.03082026480843"><ele>387.0</ele><time>2026-04-06T07:30:36Z</time></trkpt><trkpt lat="40.95141461884228" lon="16.030951634200218"><ele>387.0</ele><time>2026-04-06T07:30:37Z</time></trkpt><trkpt lat="40.95150157041904" lon="16.031101346596202"><ele>387.0</ele><time>2026-04-06T07:30:38Z</time></trkpt><trkpt lat="40.95159291743725" lon="16.031255199664823"><ele>387.0</ele><time>2026-04-06T07:30:39Z</time></trkpt><trkpt lat="40.951688850161936" lon="16.031422564834603"><ele>388.66666666666663</ele><time>2026-04-06T07:30:40Z</time></trkpt><trkpt lat="40.95177670780016" lon="16.03158737154192"><ele>390.3333333333333</ele><time>2026-04-06T07:30:41Z</time></trkpt><trkpt lat="40.951862141009414" lon="16.031759161509665"><ele>392.0</ele><time>2026-04-06T07:30:42Z</time></trkpt><trkpt lat="40.95195155992102" lon="16.031942641508035"><ele>392.66666666666663</ele><time>2026-04-06T07:30:43Z</time></trkpt><trkpt lat="40.95204672568379" lon="16.03212447746235"><ele>393.33333333333337</ele><time>2026-04-06T07:30:44Z</time></trkpt><trkpt lat="40.952143888563185" lon="16.032309112559233"><ele>394.0</ele><time>2026-04-06T07:30:45Z</time></trkpt><trkpt lat="40.95223696674129" lon="16.032491044438064"><ele>394.0</ele><time>2026-04-06T07:30:46Z</time></trkpt><trkpt lat="40.95232838358261" lon="16.032677806033984"><ele>394.0</ele><time>2026-04-06T07:30:47Z</time></trkpt><trkpt lat="40.95242823152153" lon="16.032867311034053"><ele>394.0</ele><time>2026-04-06T07:30:48Z</time></trkpt><trkpt lat="40.95252818807909" lon="16.03305203313374"><ele>395.33333333333337</ele><time>2026-04-06T07:30:49Z</time></trkpt><trkpt lat="40.952623252986996" lon="16.033241519268415"><ele>396.66666666666663</ele><time>2026-04-06T07:30:50Z</time></trkpt><trkpt lat="40.95272390366886" lon="16.03343568706622"><ele>398.0</ele><time>2026-04-06T07:30:51Z</time></trkpt><trkpt lat="40.95282553076125" lon="16.033630714939484"><ele>398.0</ele><time>2026-04-06T07:30:52Z</time></trkpt><trkpt lat="40.95292472438547" lon="16.03382852119248"><ele>398.0</ele><time>2026-04-06T07:30:53Z</time></trkpt><trkpt lat="40.95302099170897" lon="16.03401311948762"><ele>398.0</ele><time>2026-04-06T07:30:54Z</time></trkpt><trkpt lat="40.95312147789677" lon="16.03419177116846"><ele>396.66666666666663</ele><time>2026-04-06T07:30:55Z</time></trkpt><trkpt lat="40.95320898426113" lon="16.03438432120453"><ele>395.33333333333337</ele><time>2026-04-06T07:30:56Z</time></trkpt><trkpt lat="40.953302822249356" lon="16.034566363845315"><ele>394.0</ele><time>2026-04-06T07:30:57Z</time></trkpt><trkpt lat="40.95339440853012" lon="16.03474485746096"><ele>394.0</ele><time>2026-04-06T07:30:58Z</time></trkpt><trkpt lat="40.953485466679695" lon="16.034922321800536"><ele>394.0</ele><time>2026-04-06T07:30:59Z</time></trkpt><trkpt lat="40.95358656650911" lon="16.035084664279367"><ele>394.0</ele><time>2026-04-06T07:31:00Z</time></trkpt><trkpt lat="40.95367709028116" lon="16.03525557184995"><ele>394.6666666666667</ele><time>2026-04-06T07:31:01Z</time></trkpt><trkpt lat="40.95376835770644" lon="16.03544274096012"><ele>395.33333333333337</ele><time>2026-04-06T07:31:02Z</time></trkpt><trkpt lat="40.95385773334421" lon="16.035625665938216"><ele>396.0</ele><time>2026-04-06T07:31:03Z</time></trkpt><trkpt lat="40.95395070239054" lon="16.035819322822164"><ele>397.0</ele><time>2026-04-06T07:31:04Z</time></trkpt><trkpt lat="40.95404387628239" lon="16.036014108015724"><ele>398.0</ele><time>2026-04-06T07:31:05Z</time></trkpt><trkpt lat="40.954122432861794" lon="16.036179780753255"><ele>399.0</ele><time>2026-04-06T07:31:06Z</time></trkpt><trkpt lat="40.95418234616046" lon="16.036364417637376"><ele>400.33333333333337</ele><time>2026-04-06T07:31:07Z</time></trkpt><trkpt lat="40.95421471665259" lon="16.03655164852481"><ele>401.6666666666667</ele><time>2026-04-06T07:31:08Z</time></trkpt><trkpt lat="40.954221890820584" lon="16.036762593963797"><ele>403.0</ele><time>2026-04-06T07:31:09Z</time></trkpt><trkpt lat="40.95421224134419" lon="16.036958204120115"><ele>403.0</ele><time>2026-04-06T07:31:10Z</time></trkpt><trkpt lat="40.954206713652844" lon="16.03717400339923"><ele>403.0</ele><time>2026-04-06T07:31:11Z</time></trkpt><trkpt lat="40.95419840094383" lon="16.037391883469535"><ele>403.0</ele><time>2026-04-06T07:31:12Z</time></trkpt><trkpt lat="40.95418499850869" lon="16.037611933889195"><ele>403.0</ele><time>2026-04-06T07:31:13Z</time></trkpt><trkpt lat="40.95416971016042" lon="16.037831836241637"><ele>403.0</ele><time>2026-04-06T07:31:14Z</time></trkpt><trkpt lat="40.95415535123583" lon="16.038060590127657"><ele>403.0</ele><time>2026-04-06T07:31:15Z</time></trkpt><trkpt lat="40.95414149843322" lon="16.038289128761644"><ele>405.0</ele><time>2026-04-06T07:31:16Z</time></trkpt><trkpt lat="40.95412222372877" lon="16.038526132602136"><ele>407.0</ele><time>2026-04-06T07:31:17Z</time></trkpt><trkpt lat="40.95411087573405" lon="16.038749722814853"><ele>409.0</ele><time>2026-04-06T07:31:18Z</time></trkpt><trkpt lat="40.95409702547941" lon="16.038971757622562"><ele>409.6666666666667</ele><time>2026-04-06T07:31:19Z</time></trkpt><trkpt lat="40.95407797241668" lon="16.039204112208473"><ele>410.33333333333337</ele><time>2026-04-06T07:31:20Z</time></trkpt><trkpt lat="40.954063125318775" lon="16.03942496137539"><ele>411.0</ele><time>2026-04-06T07:31:21Z</time></trkpt><trkpt lat="40.95405802406426" lon="16.039648876038832"><ele>411.0</ele><time>2026-04-06T07:31:22Z</time></trkpt><trkpt lat="40.954060150876934" lon="16.039876017548305"><ele>411.0</ele><time>2026-04-06T07:31:23Z</time></trkpt><trkpt lat="40.9540759002537" lon="16.04010294483476"><ele>411.0</ele><time>2026-04-06T07:31:24Z</time></trkpt><trkpt lat="40.95410832912217" lon="16.040325685051695"><ele>411.33333333333337</ele><time>2026-04-06T07:31:25Z</time></trkpt><trkpt lat="40.954148070991906" lon="16.040558462313324"><ele>411.6666666666667</ele><time>2026-04-06T07:31:26Z</time></trkpt><trkpt lat="40.95419076240076" lon="16.040789666160833"><ele>412.0</ele><time>2026-04-06T07:31:27Z</time></trkpt><trkpt lat="40.95423850386396" lon="16.041026015698407"><ele>413.33333333333337</ele><time>2026-04-06T07:31:28Z</time></trkpt><trkpt lat="40.9542974998806" lon="16.041255586397273"><ele>414.66666666666663</ele><time>2026-04-06T07:31:29Z</time></trkpt><trkpt lat="40.954360012560215" lon="16.041489141431843"><ele>416.0</ele><time>2026-04-06T07:31:30Z</time></trkpt><trkpt lat="40.954424402707886" lon="16.041733143447864"><ele>416.0</ele><time>2026-04-06T07:31:31Z</time></trkpt><trkpt lat="40.95448857555963" lon="16.04197234143305"><ele>416.0</ele><time>2026-04-06T07:31:32Z</time></trkpt><trkpt lat="40.95455378013216" lon="16.042222170616448"><ele>416.0</ele><time>2026-04-06T07:31:33Z</time></trkpt><trkpt lat="40.95461664557116" lon="16.042465311543502"><ele>414.3333333333333</ele><time>2026-04-06T07:31:34Z</time></trkpt><trkpt lat="40.954679846741605" lon="16.042709047120276"><ele>412.66666666666663</ele><time>2026-04-06T07:31:35Z</time></trkpt><trkpt lat="40.95474251140692" lon="16.042956279458835"><ele>411.0</ele><time>2026-04-06T07:31:36Z</time></trkpt><trkpt lat="40.9548056204224" lon="16.043198662988953"><ele>410.0</ele><time>2026-04-06T07:31:37Z</time></trkpt><trkpt lat="40.95486977863633" lon="16.0434333565732"><ele>409.0</ele><time>2026-04-06T07:31:38Z</time></trkpt><trkpt lat="40.954944744766586" lon="16.043664747080353"><ele>408.0</ele><time>2026-04-06T07:31:39Z</time></trkpt><trkpt lat="40.95502445428497" lon="16.0438684127861"><ele>408.0</ele><time>2026-04-06T07:31:40Z</time></trkpt><trkpt lat="40.955099710761644" lon="16.044045921675718"><ele>408.0</ele><time>2026-04-06T07:31:41Z</time></trkpt><trkpt lat="40.955255273922546" lon="16.044273063479288"><ele>408.0</ele><time>2026-04-06T07:31:42Z</time></trkpt><trkpt lat="40.95538334559766" lon="16.044465672229887"><ele>408.0</ele><time>2026-04-06T07:31:43Z</time></trkpt><trkpt lat="40.955500083668404" lon="16.04465141646828"><ele>408.0</ele><time>2026-04-06T07:31:44Z</time></trkpt><trkpt lat="40.95560525112443" lon="16.044833255208324"><ele>408.0</ele><time>2026-04-06T07:31:45Z</time></trkpt><trkpt lat="40.955699376745045" lon="16.045032928744444"><ele>407.33333333333337</ele><time>2026-04-06T07:31:46Z</time></trkpt><trkpt lat="40.95577008523274" lon="16.04524833985605"><ele>406.6666666666667</ele><time>2026-04-06T07:31:47Z</time></trkpt><trkpt lat="40.95580772041192" lon="16.045462679726626"><ele>406.0</ele><time>2026-04-06T07:31:48Z</time></trkpt><trkpt lat="40.95583012027635" lon="16.045694954095257"><ele>405.6666666666667</ele><time>2026-04-06T07:31:49Z</time></trkpt><trkpt lat="40.95583539865434" lon="16.045930583716352"><ele>405.33333333333337</ele><time>2026-04-06T07:31:50Z</time></trkpt><trkpt lat="40.95583743588355" lon="16.04616270793326"><ele>405.0</ele><time>2026-04-06T07:31:51Z</time></trkpt><trkpt lat="40.95584649000308" lon="16.04639902135553"><ele>406.0</ele><time>2026-04-06T07:31:52Z</time></trkpt><trkpt lat="40.955853851595954" lon="16.046645901334777"><ele>407.0</ele><time>2026-04-06T07:31:53Z</time></trkpt><trkpt lat="40.955856734763394" lon="16.046888109511446"><ele>408.0</ele><time>2026-04-06T07:31:54Z</time></trkpt><trkpt lat="40.955867555487536" lon="16.047114942902738"><ele>410.0</ele><time>2026-04-06T07:31:55Z</time></trkpt><trkpt lat="40.95588591650196" lon="16.047324023930443"><ele>412.0</ele><time>2026-04-06T07:31:56Z</time></trkpt><trkpt lat="40.9559032161324" lon="16.047512106600607"><ele>414.0</ele><time>2026-04-06T07:31:57Z</time></trkpt><trkpt lat="40.95593213132451" lon="16.047693664925166"><ele>416.0</ele><time>2026-04-06T07:31:58Z</time></trkpt><trkpt lat="40.9559785825416" lon="16.04783823783059"><ele>415.75</ele><time>2026-04-06T07:31:59Z</time></trkpt><trkpt lat="40.95604322086202" lon="16.04796857357476"><ele>415.5</ele><time>2026-04-06T07:32:00Z</time></trkpt><trkpt lat="40.95611394346344" lon="16.048081914380965"><ele>415.25</ele><time>2026-04-06T07:32:01Z</time></trkpt><trkpt lat="40.95619393635403" lon="16.04819809714555"><ele>415.0</ele><time>2026-04-06T07:32:02Z</time></trkpt><trkpt lat="40.95628393510502" lon="16.04831732248924"><ele>415.0</ele><time>2026-04-06T07:32:03Z</time></trkpt><trkpt lat="40.95638813212062" lon="16.048427034409873"><ele>415.0</ele><time>2026-04-06T07:32:04Z</time></trkpt><trkpt lat="40.95650518681356" lon="16.048525740588204"><ele>415.0</ele><time>2026-04-06T07:32:05Z</time></trkpt><trkpt lat="40.95663126193843" lon="16.048624823369927"><ele>415.0</ele><time>2026-04-06T07:32:06Z</time></trkpt><trkpt lat="40.95675519699763" lon="16.048723651135916"><ele>416.25</ele><time>2026-04-06T07:32:07Z</time></trkpt><trkpt lat="40.956870517823646" lon="16.048827082606607"><ele>417.5</ele><time>2026-04-06T07:32:08Z</time></trkpt><trkpt lat="40.95697518841982" lon="16.048954106850456"><ele>418.75</ele><time>2026-04-06T07:32:09Z</time></trkpt><trkpt lat="40.95706573489168" lon="16.049099046326543"><ele>420.0</ele><time>2026-04-06T07:32:10Z</time></trkpt><trkpt lat="40.95714071694176" lon="16.04926777428168"><ele>420.0</ele><time>2026-04-06T07:32:11Z</time></trkpt><trkpt lat="40.95718934012676" lon="16.049454301164737"><ele>420.0</ele><time>2026-04-06T07:32:12Z</time></trkpt><trkpt lat="40.95721490105626" lon="16.049656087325044"><ele>420.0</ele><time>2026-04-06T07:32:13Z</time></trkpt><trkpt lat="40.95722215605192" lon="16.049870254800368"><ele>420.5</ele><time>2026-04-06T07:32:14Z</time></trkpt><trkpt lat="40.95721246294778" lon="16.05007768195625"><ele>421.0</ele><time>2026-04-06T07:32:15Z</time></trkpt><trkpt lat="40.957183170460816" lon="16.050265996005244"><ele>421.5</ele><time>2026-04-06T07:32:16Z</time></trkpt><trkpt lat="40.95713871451562" lon="16.050446087661214"><ele>422.0</ele><time>2026-04-06T07:32:17Z</time></trkpt><trkpt lat="40.95710348024803" lon="16.05062598879638"><ele>423.0</ele><time>2026-04-06T07:32:18Z</time></trkpt><trkpt lat="40.95710112787286" lon="16.05081323616263"><ele>424.0</ele><time>2026-04-06T07:32:19Z</time></trkpt><trkpt lat="40.95712763803446" lon="16.051011234256325"><ele>425.0</ele><time>2026-04-06T07:32:20Z</time></trkpt><trkpt lat="40.957173059851726" lon="16.051220635456925"><ele>425.0</ele><time>2026-04-06T07:32:21Z</time></trkpt><trkpt lat="40.95721731906827" lon="16.051411161631698"><ele>425.0</ele><time>2026-04-06T07:32:22Z</time></trkpt><trkpt lat="40.95726304798085" lon="16.051618030640473"><ele>425.0</ele><time>2026-04-06T07:32:23Z</time></trkpt><trkpt lat="40.9573022700972" lon="16.051828888985114"><ele>425.3333333333333</ele><time>2026-04-06T07:32:24Z</time></trkpt><trkpt lat="40.95733962910099" lon="16.05204036095375"><ele>425.66666666666663</ele><time>2026-04-06T07:32:25Z</time></trkpt><trkpt lat="40.95736548594876" lon="16.052260437742916"><ele>426.0</ele><time>2026-04-06T07:32:26Z</time></trkpt><trkpt lat="40.95735960545759" lon="16.05248114741025"><ele>427.0</ele><time>2026-04-06T07:32:27Z</time></trkpt><trkpt lat="40.957325797423486" lon="16.05270805898243"><ele>428.0</ele><time>2026-04-06T07:32:28Z</time></trkpt><trkpt lat="40.95727974770581" lon="16.05293562896051"><ele>429.0</ele><time>2026-04-06T07:32:29Z</time></trkpt><trkpt lat="40.95723302723246" lon="16.053140388760895"><ele>429.0</ele><time>2026-04-06T07:32:30Z</time></trkpt><trkpt lat="40.95718378705345" lon="16.053400683122618"><ele>429.0</ele><time>2026-04-06T07:32:31Z</time></trkpt><trkpt lat="40.957130136246754" lon="16.053642812824645"><ele>429.0</ele><time>2026-04-06T07:32:32Z</time></trkpt><trkpt lat="40.95707119450372" lon="16.053887867351364"><ele>429.33333333333337</ele><time>2026-04-06T07:32:33Z</time></trkpt><trkpt lat="40.957014793400305" lon="16.054121771191113"><ele>429.6666666666667</ele><time>2026-04-06T07:32:34Z</time></trkpt><trkpt lat="40.956961008133746" lon="16.054366310580267"><ele>430.0</ele><time>2026-04-06T07:32:35Z</time></trkpt><trkpt lat="40.95691202205178" lon="16.054610669634098"><ele>430.0</ele><time>2026-04-06T07:32:36Z</time></trkpt><trkpt lat="40.95686264342035" lon="16.054856513080164"><ele>430.0</ele><time>2026-04-06T07:32:37Z</time></trkpt><trkpt lat="40.95681140699602" lon="16.055089708518953"><ele>430.0</ele><time>2026-04-06T07:32:38Z</time></trkpt><trkpt lat="40.95675464710883" lon="16.05532396178806"><ele>430.0</ele><time>2026-04-06T07:32:39Z</time></trkpt><trkpt lat="40.95669892302531" lon="16.05555815372197"><ele>430.0</ele><time>2026-04-06T07:32:40Z</time></trkpt><trkpt lat="40.95664659726023" lon="16.055786986655757"><ele>430.0</ele><time>2026-04-06T07:32:41Z</time></trkpt><trkpt lat="40.95659645683136" lon="16.056017451335112"><ele>430.0</ele><time>2026-04-06T07:32:42Z</time></trkpt><trkpt lat="40.95653776886236" lon="16.056239970022975"><ele>430.0</ele><time>2026-04-06T07:32:43Z</time></trkpt><trkpt lat="40.95646649225048" lon="16.056467072456435"><ele>430.0</ele><time>2026-04-06T07:32:44Z</time></trkpt><trkpt lat="40.95639367433173" lon="16.05669642991971"><ele>431.0</ele><time>2026-04-06T07:32:45Z</time></trkpt><trkpt lat="40.95631812308775" lon="16.056919718816435"><ele>432.0</ele><time>2026-04-06T07:32:46Z</time></trkpt><trkpt lat="40.956235690348244" lon="16.057139739089518"><ele>433.0</ele><time>2026-04-06T07:32:47Z</time></trkpt><trkpt lat="40.956143129851405" lon="16.05736212717777"><ele>432.6666666666667</ele><time>2026-04-06T07:32:48Z</time></trkpt><trkpt lat="40.95604491795265" lon="16.05757021129294"><ele>432.33333333333337</ele><time>2026-04-06T07:32:49Z</time></trkpt><trkpt lat="40.95594668538371" lon="16.057780089309112"><ele>432.0</ele><time>2026-04-06T07:32:50Z</time></trkpt><trkpt lat="40.9558520301817" lon="16.057990123378257"><ele>432.66666666666663</ele><time>2026-04-06T07:32:51Z</time></trkpt><trkpt lat="40.955754977918666" lon="16.05820146779487"><ele>433.3333333333333</ele><time>2026-04-06T07:32:52Z</time></trkpt><trkpt lat="40.95565553711106" lon="16.05841498361617"><ele>434.0</ele><time>2026-04-06T07:32:53Z</time></trkpt><trkpt lat="40.955556594824714" lon="16.058628040708317"><ele>434.0</ele><time>2026-04-06T07:32:54Z</time></trkpt><trkpt lat="40.95545508883471" lon="16.058848481608695"><ele>434.0</ele><time>2026-04-06T07:32:55Z</time></trkpt><trkpt lat="40.95535340864256" lon="16.059064304577035"><ele>434.0</ele><time>2026-04-06T07:32:56Z</time></trkpt><trkpt lat="40.955250955321844" lon="16.059282695655654"><ele>434.0</ele><time>2026-04-06T07:32:57Z</time></trkpt><trkpt lat="40.95514479862116" lon="16.059507455019812"><ele>434.0</ele><time>2026-04-06T07:32:58Z</time></trkpt><trkpt lat="40.95504252416438" lon="16.059719886050278"><ele>434.0</ele><time>2026-04-06T07:32:59Z</time></trkpt><trkpt lat="40.95493637144" lon="16.05994760555341"><ele>435.0</ele><time>2026-04-06T07:33:00Z</time></trkpt><trkpt lat="40.95483353246475" lon="16.060161481548388"><ele>436.0</ele><time>2026-04-06T07:33:01Z</time></trkpt><trkpt lat="40.95472474598268" lon="16.0603957125878"><ele>437.0</ele><time>2026-04-06T07:33:02Z</time></trkpt><trkpt lat="40.9546244087326" lon="16.060616116180665"><ele>436.66666666666663</ele><time>2026-04-06T07:33:03Z</time></trkpt><trkpt lat="40.95452803995776" lon="16.06083591163708"><ele>436.33333333333337</ele><time>2026-04-06T07:33:04Z</time></trkpt><trkpt lat="40.954421142426845" lon="16.06107195510023"><ele>436.0</ele><time>2026-04-06T07:33:05Z</time></trkpt><trkpt lat="40.95431749859565" lon="16.061288802158572"><ele>436.0</ele><time>2026-04-06T07:33:06Z</time></trkpt><trkpt lat="40.95420985641031" lon="16.061516194044856"><ele>436.0</ele><time>2026-04-06T07:33:07Z</time></trkpt><trkpt lat="40.954104351033386" lon="16.06173537928825"><ele>436.0</ele><time>2026-04-06T07:33:08Z</time></trkpt><trkpt lat="40.95400156970845" lon="16.061953458069397"><ele>436.0</ele><time>2026-04-06T07:33:09Z</time></trkpt><trkpt lat="40.9538988353111" lon="16.06218045512773"><ele>436.0</ele><time>2026-04-06T07:33:10Z</time></trkpt><trkpt lat="40.95379905415941" lon="16.06240222009658"><ele>436.0</ele><time>2026-04-06T07:33:11Z</time></trkpt><trkpt lat="40.95369860862003" lon="16.06262199057842"><ele>437.0</ele><time>2026-04-06T07:33:12Z</time></trkpt><trkpt lat="40.953593697797736" lon="16.062844366028408"><ele>438.0</ele><time>2026-04-06T07:33:13Z</time></trkpt><trkpt lat="40.95347572071252" lon="16.063054247616332"><ele>439.0</ele><time>2026-04-06T07:33:14Z</time></trkpt><trkpt lat="40.95338272743416" lon="16.06327001936983"><ele>439.6666666666667</ele><time>2026-04-06T07:33:15Z</time></trkpt><trkpt lat="40.9532848202084" lon="16.063482704484887"><ele>440.33333333333337</ele><time>2026-04-06T07:33:16Z</time></trkpt><trkpt lat="40.95318805373535" lon="16.06369703787437"><ele>441.0</ele><time>2026-04-06T07:33:17Z</time></trkpt><trkpt lat="40.95309129858885" lon="16.063906030462782"><ele>440.66666666666663</ele><time>2026-04-06T07:33:18Z</time></trkpt><trkpt lat="40.95300815451497" lon="16.06412426914796"><ele>440.3333333333333</ele><time>2026-04-06T07:33:19Z</time></trkpt><trkpt lat="40.952936875305994" lon="16.06435232956814"><ele>440.0</ele><time>2026-04-06T07:33:20Z</time></trkpt><trkpt lat="40.9528704650118" lon="16.064578632268933"><ele>440.0</ele><time>2026-04-06T07:33:21Z</time></trkpt><trkpt lat="40.952810391127464" lon="16.064808658056016"><ele>440.0</ele><time>2026-04-06T07:33:22Z</time></trkpt><trkpt lat="40.952752894630386" lon="16.06504101345745"><ele>440.0</ele><time>2026-04-06T07:33:23Z</time></trkpt><trkpt lat="40.95268856883189" lon="16.065267838407042"><ele>440.0</ele><time>2026-04-06T07:33:24Z</time></trkpt><trkpt lat="40.95262203155776" lon="16.065494897053373"><ele>440.0</ele><time>2026-04-06T07:33:25Z</time></trkpt><trkpt lat="40.95255380301224" lon="16.065720535312888"><ele>440.0</ele><time>2026-04-06T07:33:26Z</time></trkpt><trkpt lat="40.952492175962696" lon="16.065956195556534"><ele>440.3333333333333</ele><time>2026-04-06T07:33:27Z</time></trkpt><trkpt lat="40.95243212634372" lon="16.066191922930937"><ele>440.66666666666663</ele><time>2026-04-06T07:33:28Z</time></trkpt><trkpt lat="40.95236931698073" lon="16.066424417279755"><ele>441.0</ele><time>2026-04-06T07:33:29Z</time></trkpt><trkpt lat="40.9523066396526" lon="16.066658948044154"><ele>441.33333333333337</ele><time>2026-04-06T07:33:30Z</time></trkpt><trkpt lat="40.95223995161552" lon="16.066891492992383"><ele>441.6666666666667</ele><time>2026-04-06T07:33:31Z</time></trkpt><trkpt lat="40.95217948536901" lon="16.067128274829045"><ele>442.0</ele><time>2026-04-06T07:33:32Z</time></trkpt><trkpt lat="40.952113484347414" lon="16.067361578120146"><ele>441.33333333333337</ele><time>2026-04-06T07:33:33Z</time></trkpt><trkpt lat="40.952052345587205" lon="16.06759768782111"><ele>440.66666666666663</ele><time>2026-04-06T07:33:34Z</time></trkpt><trkpt lat="40.951990204645256" lon="16.067833310407842"><ele>440.0</ele><time>2026-04-06T07:33:35Z</time></trkpt><trkpt lat="40.95194155643652" lon="16.06807462696443"><ele>440.3333333333333</ele><time>2026-04-06T07:33:36Z</time></trkpt><trkpt lat="40.95189306281982" lon="16.068313705976802"><ele>440.66666666666663</ele><time>2026-04-06T07:33:37Z</time></trkpt><trkpt lat="40.951875225523274" lon="16.06856673860404"><ele>441.0</ele><time>2026-04-06T07:33:38Z</time></trkpt><trkpt lat="40.951868959148946" lon="16.06882307045561"><ele>441.0</ele><time>2026-04-06T07:33:39Z</time></trkpt><trkpt lat="40.95187875016008" lon="16.06907651924936"><ele>441.0</ele><time>2026-04-06T07:33:40Z</time></trkpt><trkpt lat="40.951885040153165" lon="16.069327664143785"><ele>441.0</ele><time>2026-04-06T07:33:41Z</time></trkpt><trkpt lat="40.951883621601766" lon="16.06957540911481"><ele>439.66666666666663</ele><time>2026-04-06T07:33:42Z</time></trkpt><trkpt lat="40.95189121673791" lon="16.069831963436876"><ele>438.3333333333333</ele><time>2026-04-06T07:33:43Z</time></trkpt><trkpt lat="40.951892979706564" lon="16.07008383930162"><ele>437.0</ele><time>2026-04-06T07:33:44Z</time></trkpt><trkpt lat="40.95189576736479" lon="16.07033929708717"><ele>437.0</ele><time>2026-04-06T07:33:45Z</time></trkpt><trkpt lat="40.95189264907451" lon="16.070584505173933"><ele>437.0</ele><time>2026-04-06T07:33:46Z</time></trkpt><trkpt lat="40.951891616391976" lon="16.07083908026341"><ele>437.0</ele><time>2026-04-06T07:33:47Z</time></trkpt><trkpt lat="40.95189313652033" lon="16.071094495512096"><ele>438.3333333333333</ele><time>2026-04-06T07:33:48Z</time></trkpt><trkpt lat="40.95189689057532" lon="16.071343609751544"><ele>439.66666666666663</ele><time>2026-04-06T07:33:49Z</time></trkpt><trkpt lat="40.9518988941626" lon="16.071590434808584"><ele>441.0</ele><time>2026-04-06T07:33:50Z</time></trkpt><trkpt lat="40.95189732593328" lon="16.07183798856078"><ele>441.33333333333337</ele><time>2026-04-06T07:33:51Z</time></trkpt><trkpt lat="40.95189486643236" lon="16.07208181834318"><ele>441.6666666666667</ele><time>2026-04-06T07:33:52Z</time></trkpt><trkpt lat="40.9518978081365" lon="16.07232665680761"><ele>442.0</ele><time>2026-04-06T07:33:53Z</time></trkpt><trkpt lat="40.951902145925146" lon="16.07257043602735"><ele>442.0</ele><time>2026-04-06T07:33:54Z</time></trkpt><trkpt lat="40.95190663557126" lon="16.07281992872797"><ele>442.0</ele><time>2026-04-06T07:33:55Z</time></trkpt><trkpt lat="40.95190791303686" lon="16.073066316245523"><ele>442.0</ele><time>2026-04-06T07:33:56Z</time></trkpt><trkpt lat="40.95190932744999" lon="16.07331615937926"><ele>441.6666666666667</ele><time>2026-04-06T07:33:57Z</time></trkpt><trkpt lat="40.95191144263776" lon="16.07356230335245"><ele>441.33333333333337</ele><time>2026-04-06T07:33:58Z</time></trkpt><trkpt lat="40.95191272454908" lon="16.07381583141135"><ele>441.0</ele><time>2026-04-06T07:33:59Z</time></trkpt><trkpt lat="40.95191524965469" lon="16.074073395967623"><ele>441.0</ele><time>2026-04-06T07:34:00Z</time></trkpt><trkpt lat="40.95191526064178" lon="16.074330396153712"><ele>441.0</ele><time>2026-04-06T07:34:01Z</time></trkpt><trkpt lat="40.95191361956251" lon="16.074588747908486"><ele>441.0</ele><time>2026-04-06T07:34:02Z</time></trkpt><trkpt lat="40.95191581043907" lon="16.07484473369624"><ele>441.33333333333337</ele><time>2026-04-06T07:34:03Z</time></trkpt><trkpt lat="40.95192003843136" lon="16.075105517554633"><ele>441.6666666666667</ele><time>2026-04-06T07:34:04Z</time></trkpt><trkpt lat="40.95192313143247" lon="16.0753665881673"><ele>442.0</ele><time>2026-04-06T07:34:05Z</time></trkpt><trkpt lat="40.95192317503736" lon="16.07563013300141"><ele>442.33333333333337</ele><time>2026-04-06T07:34:06Z</time></trkpt><trkpt lat="40.951920759695874" lon="16.07588896559365"><ele>442.66666666666663</ele><time>2026-04-06T07:34:07Z</time></trkpt><trkpt lat="40.95192117669648" lon="16.076150734314314"><ele>443.0</ele><time>2026-04-06T07:34:08Z</time></trkpt><trkpt lat="40.951924479438745" lon="16.076416394573876"><ele>443.0</ele><time>2026-04-06T07:34:09Z</time></trkpt><trkpt lat="40.95192666146626" lon="16.07667319521329"><ele>443.0</ele><time>2026-04-06T07:34:10Z</time></trkpt><trkpt lat="40.951928571186535" lon="16.07692680034704"><ele>443.0</ele><time>2026-04-06T07:34:11Z</time></trkpt><trkpt lat="40.95192826658285" lon="16.077187920003276"><ele>443.0</ele><time>2026-04-06T07:34:12Z</time></trkpt><trkpt lat="40.951932614423775" lon="16.077438481801693"><ele>443.0</ele><time>2026-04-06T07:34:13Z</time></trkpt><trkpt lat="40.951934608531694" lon="16.07769203313743"><ele>443.0</ele><time>2026-04-06T07:34:14Z</time></trkpt><trkpt lat="40.95192018395737" lon="16.077945947922746"><ele>443.0</ele><time>2026-04-06T07:34:15Z</time></trkpt><trkpt lat="40.951893932854325" lon="16.07820246223201"><ele>443.0</ele><time>2026-04-06T07:34:16Z</time></trkpt><trkpt lat="40.9518481637029" lon="16.078461575760503"><ele>443.0</ele><time>2026-04-06T07:34:17Z</time></trkpt><trkpt lat="40.95191626625916" lon="16.078712028037387"><ele>443.0</ele><time>2026-04-06T07:34:18Z</time></trkpt><trkpt lat="40.951925025963845" lon="16.078961097396924"><ele>443.0</ele><time>2026-04-06T07:34:19Z</time></trkpt><trkpt lat="40.95193068922527" lon="16.07921790202938"><ele>443.0</ele><time>2026-04-06T07:34:20Z</time></trkpt><trkpt lat="40.951937868187855" lon="16.079461882596135"><ele>442.0</ele><time>2026-04-06T07:34:21Z</time></trkpt><trkpt lat="40.95193722360777" lon="16.0797188876795"><ele>441.0</ele><time>2026-04-06T07:34:22Z</time></trkpt><trkpt lat="40.95193986735009" lon="16.079968870324585"><ele>440.0</ele><time>2026-04-06T07:34:23Z</time></trkpt><trkpt lat="40.95194113982909" lon="16.08021885789427"><ele>440.0</ele><time>2026-04-06T07:34:24Z</time></trkpt><trkpt lat="40.951945460243465" lon="16.08046419439381"><ele>440.0</ele><time>2026-04-06T07:34:25Z</time></trkpt><trkpt lat="40.951943408164446" lon="16.080719625617483"><ele>440.0</ele><time>2026-04-06T07:34:26Z</time></trkpt><trkpt lat="40.95194396192264" lon="16.08096908443897"><ele>439.3333333333333</ele><time>2026-04-06T07:34:27Z</time></trkpt><trkpt lat="40.95194593589491" lon="16.081220151759315"><ele>438.66666666666663</ele><time>2026-04-06T07:34:28Z</time></trkpt><trkpt lat="40.95194996214213" lon="16.08147473961589"><ele>438.0</ele><time>2026-04-06T07:34:29Z</time></trkpt><trkpt lat="40.951954421116824" lon="16.081725622479524"><ele>438.0</ele><time>2026-04-06T07:34:30Z</time></trkpt><trkpt lat="40.95195466002789" lon="16.08197843076199"><ele>438.0</ele><time>2026-04-06T07:34:31Z</time></trkpt><trkpt lat="40.9519542790012" lon="16.082234730492008"><ele>438.0</ele><time>2026-04-06T07:34:32Z</time></trkpt><trkpt lat="40.9519526114592" lon="16.082488463706635"><ele>437.66666666666663</ele><time>2026-04-06T07:34:33Z</time></trkpt><trkpt lat="40.95195284503868" lon="16.082740442224505"><ele>437.3333333333333</ele><time>2026-04-06T07:34:34Z</time></trkpt><trkpt lat="40.951956031497694" lon="16.08298933902554"><ele>437.0</ele><time>2026-04-06T07:34:35Z</time></trkpt><trkpt lat="40.95195896001198" lon="16.08324006636596"><ele>437.3333333333333</ele><time>2026-04-06T07:34:36Z</time></trkpt><trkpt lat="40.95195857244218" lon="16.08349311223431"><ele>437.66666666666663</ele><time>2026-04-06T07:34:37Z</time></trkpt><trkpt lat="40.95196316811564" lon="16.083741205580598"><ele>438.0</ele><time>2026-04-06T07:34:38Z</time></trkpt><trkpt lat="40.95196775505735" lon="16.083979734394507"><ele>437.66666666666663</ele><time>2026-04-06T07:34:39Z</time></trkpt><trkpt lat="40.9519666031815" lon="16.084236745670466"><ele>437.3333333333333</ele><time>2026-04-06T07:34:40Z</time></trkpt><trkpt lat="40.951966264152446" lon="16.084479709125166"><ele>437.0</ele><time>2026-04-06T07:34:41Z</time></trkpt><trkpt lat="40.95197044865852" lon="16.08472322811718"><ele>437.0</ele><time>2026-04-06T07:34:42Z</time></trkpt><trkpt lat="40.951973467318595" lon="16.08496495615424"><ele>437.0</ele><time>2026-04-06T07:34:43Z</time></trkpt><trkpt lat="40.95197273122923" lon="16.08520615063205"><ele>437.0</ele><time>2026-04-06T07:34:44Z</time></trkpt><trkpt lat="40.95197432509933" lon="16.085451502798954"><ele>437.0</ele><time>2026-04-06T07:34:45Z</time></trkpt><trkpt lat="40.9519753885437" lon="16.085695575637768"><ele>437.0</ele><time>2026-04-06T07:34:46Z</time></trkpt><trkpt lat="40.95198104636863" lon="16.08594533708072"><ele>437.0</ele><time>2026-04-06T07:34:47Z</time></trkpt><trkpt lat="40.951979318403446" lon="16.086187410866508"><ele>437.0</ele><time>2026-04-06T07:34:48Z</time></trkpt><trkpt lat="40.95197842719077" lon="16.086427228001686"><ele>437.0</ele><time>2026-04-06T07:34:49Z</time></trkpt><trkpt lat="40.95198292448436" lon="16.08667860477604"><ele>437.0</ele><time>2026-04-06T07:34:50Z</time></trkpt><trkpt lat="40.951988562544486" lon="16.08692645270181"><ele>437.66666666666663</ele><time>2026-04-06T07:34:51Z</time></trkpt><trkpt lat="40.95198279894189" lon="16.087163087799315"><ele>438.33333333333337</ele><time>2026-04-06T07:34:52Z</time></trkpt><trkpt lat="40.951984102871734" lon="16.087410723734447"><ele>439.0</ele><time>2026-04-06T07:34:53Z</time></trkpt><trkpt lat="40.95198456594975" lon="16.087655271028435"><ele>439.6666666666667</ele><time>2026-04-06T07:34:54Z</time></trkpt><trkpt lat="40.95198203163298" lon="16.087900136213538"><ele>440.33333333333337</ele><time>2026-04-06T07:34:55Z</time></trkpt><trkpt lat="40.951982962995906" lon="16.088152366660537"><ele>441.0</ele><time>2026-04-06T07:34:56Z</time></trkpt><trkpt lat="40.951981013034285" lon="16.088404524394043"><ele>441.66666666666663</ele><time>2026-04-06T07:34:57Z</time></trkpt><trkpt lat="40.95197711306684" lon="16.088651537578297"><ele>442.3333333333333</ele><time>2026-04-06T07:34:58Z</time></trkpt><trkpt lat="40.951984442378766" lon="16.08891080792716"><ele>443.0</ele><time>2026-04-06T07:34:59Z</time></trkpt><trkpt lat="40.951985252243674" lon="16.08915995851882"><ele>443.3333333333333</ele><time>2026-04-06T07:35:00Z</time></trkpt><trkpt lat="40.95198615068227" lon="16.08941086442279"><ele>443.66666666666663</ele><time>2026-04-06T07:35:01Z</time></trkpt><trkpt lat="40.95199993301439" lon="16.089669402366916"><ele>444.0</ele><time>2026-04-06T07:35:02Z</time></trkpt><trkpt lat="40.95199943730127" lon="16.089918102429912"><ele>443.66666666666663</ele><time>2026-04-06T07:35:03Z</time></trkpt><trkpt lat="40.95199629284647" lon="16.090168823898043"><ele>443.3333333333333</ele><time>2026-04-06T07:35:04Z</time></trkpt><trkpt lat="40.951997097653994" lon="16.09042217625489"><ele>443.0</ele><time>2026-04-06T07:35:05Z</time></trkpt><trkpt lat="40.95200217623513" lon="16.090678426901768"><ele>442.66666666666663</ele><time>2026-04-06T07:35:06Z</time></trkpt><trkpt lat="40.95200062531847" lon="16.090929818156955"><ele>442.33333333333337</ele><time>2026-04-06T07:35:07Z</time></trkpt><trkpt lat="40.95199840739231" lon="16.09118246709436"><ele>442.0</ele><time>2026-04-06T07:35:08Z</time></trkpt><trkpt lat="40.952000000466256" lon="16.09143524663746"><ele>442.6666666666667</ele><time>2026-04-06T07:35:09Z</time></trkpt><trkpt lat="40.952008240946824" lon="16.09169217593277"><ele>443.33333333333337</ele><time>2026-04-06T07:35:10Z</time></trkpt><trkpt lat="40.9520097803502" lon="16.091941377819207"><ele>444.0</ele><time>2026-04-06T07:35:11Z</time></trkpt><trkpt lat="40.95200586117551" lon="16.09218291026565"><ele>444.0</ele><time>2026-04-06T07:35:12Z</time></trkpt><trkpt lat="40.951987242043565" lon="16.092411076499435"><ele>444.0</ele><time>2026-04-06T07:35:13Z</time></trkpt><trkpt lat="40.95200720660848" lon="16.092683383518548"><ele>444.0</ele><time>2026-04-06T07:35:14Z</time></trkpt><trkpt lat="40.9520136712673" lon="16.092939968986403"><ele>444.0</ele><time>2026-04-06T07:35:15Z</time></trkpt><trkpt lat="40.95202479103196" lon="16.093197356318118"><ele>444.0</ele><time>2026-04-06T07:35:16Z</time></trkpt><trkpt lat="40.95201274678494" lon="16.093436922205402"><ele>444.0</ele><time>2026-04-06T07:35:17Z</time></trkpt><trkpt lat="40.952015657641184" lon="16.09368704257643"><ele>444.0</ele><time>2026-04-06T07:35:18Z</time></trkpt><trkpt lat="40.95201163040578" lon="16.093925135930316"><ele>444.0</ele><time>2026-04-06T07:35:19Z</time></trkpt><trkpt lat="40.95201539600058" lon="16.094146727482695"><ele>444.0</ele><time>2026-04-06T07:35:20Z</time></trkpt><trkpt lat="40.9520166941239" lon="16.09435849888083"><ele>443.25</ele><time>2026-04-06T07:35:21Z</time></trkpt><trkpt lat="40.95201488351723" lon="16.0945623737093"><ele>442.5</ele><time>2026-04-06T07:35:22Z</time></trkpt><trkpt lat="40.952017860968425" lon="16.094749055678363"><ele>441.75</ele><time>2026-04-06T07:35:23Z</time></trkpt><trkpt lat="40.9520176529467" lon="16.09494029507662"><ele>441.0</ele><time>2026-04-06T07:35:24Z</time></trkpt><trkpt lat="40.95201988103663" lon="16.09513153657572"><ele>441.0</ele><time>2026-04-06T07:35:25Z</time></trkpt><trkpt lat="40.95201773386777" lon="16.0953193753019"><ele>441.0</ele><time>2026-04-06T07:35:26Z</time></trkpt><trkpt lat="40.952018578774776" lon="16.09550820908023"><ele>441.0</ele><time>2026-04-06T07:35:27Z</time></trkpt><trkpt lat="40.95202037366898" lon="16.095700747370167"><ele>441.0</ele><time>2026-04-06T07:35:28Z</time></trkpt><trkpt lat="40.952019680924344" lon="16.09590142229951"><ele>440.66666666666663</ele><time>2026-04-06T07:35:29Z</time></trkpt><trkpt lat="40.9520271109356" lon="16.096106453599155"><ele>440.3333333333333</ele><time>2026-04-06T07:35:30Z</time></trkpt><trkpt lat="40.95202191025928" lon="16.09631339197619"><ele>440.0</ele><time>2026-04-06T07:35:31Z</time></trkpt><trkpt lat="40.9520227794675" lon="16.096513681009387"><ele>440.5</ele><time>2026-04-06T07:35:32Z</time></trkpt><trkpt lat="40.95201740207608" lon="16.09670019787302"><ele>441.0</ele><time>2026-04-06T07:35:33Z</time></trkpt><trkpt lat="40.9520176186238" lon="16.096867609662848"><ele>441.5</ele><time>2026-04-06T07:35:34Z</time></trkpt><trkpt lat="40.95202334053817" lon="16.09703199793743"><ele>442.0</ele><time>2026-04-06T07:35:35Z</time></trkpt><trkpt lat="40.95202870981242" lon="16.09718407859306"><ele>442.00000000000006</ele><time>2026-04-06T07:35:36Z</time></trkpt><trkpt lat="40.952032815675274" lon="16.097330931973968"><ele>442.0</ele><time>2026-04-06T07:35:37Z</time></trkpt><trkpt lat="40.95203445786869" lon="16.0974641535973"><ele>442.0</ele><time>2026-04-06T07:35:38Z</time></trkpt><trkpt lat="40.952034129140124" lon="16.09757074537585"><ele>442.0</ele><time>2026-04-06T07:35:39Z</time></trkpt><trkpt lat="40.95203408687719" lon="16.097677625151295"><ele>442.00000000000006</ele><time>2026-04-06T07:35:40Z</time></trkpt><trkpt lat="40.95203367598784" lon="16.097763593969248"><ele>442.0</ele><time>2026-04-06T07:35:41Z</time></trkpt><trkpt lat="40.952038104515424" lon="16.09789006734616"><ele>442.50000000000006</ele><time>2026-04-06T07:35:43Z</time></trkpt><trkpt lat="40.95203490401394" lon="16.097993993003804"><ele>443.0</ele><time>2026-04-06T07:35:45Z</time></trkpt><trkpt lat="40.95215282993801" lon="16.098001313471507"><ele>443.5</ele><time>2026-04-06T07:35:46Z</time></trkpt><trkpt lat="40.952220204461824" lon="16.098002126033315"><ele>444.0</ele><time>2026-04-06T07:35:47Z</time></trkpt><trkpt lat="40.95229900636116" lon="16.09799533723398"><ele>444.50000000000006</ele><time>2026-04-06T07:35:48Z</time></trkpt><trkpt lat="40.95237507486202" lon="16.097994727039733"><ele>445.0</ele><time>2026-04-06T07:35:49Z</time></trkpt><trkpt lat="40.95257956868287" lon="16.098028994713932"><ele>445.5</ele><time>2026-04-06T07:35:51Z</time></trkpt><trkpt lat="40.95268934109032" lon="16.09804124525648"><ele>446.0</ele><time>2026-04-06T07:35:52Z</time></trkpt><trkpt lat="40.95280246959964" lon="16.098053870331224"><ele>446.5</ele><time>2026-04-06T07:35:53Z</time></trkpt><trkpt lat="40.952923271786986" lon="16.098067351771192"><ele>447.0</ele><time>2026-04-06T07:35:54Z</time></trkpt><trkpt lat="40.953047784726785" lon="16.098081247354692"><ele>447.0</ele><time>2026-04-06T07:35:55Z</time></trkpt><trkpt lat="40.953176083783845" lon="16.09809556546592"><ele>447.0</ele><time>2026-04-06T07:35:56Z</time></trkpt><trkpt lat="40.95330810285878" lon="16.098110933134237"><ele>447.0</ele><time>2026-04-06T07:35:57Z</time></trkpt><trkpt lat="40.95343682143671" lon="16.098126103833323"><ele>447.0</ele><time>2026-04-06T07:35:58Z</time></trkpt><trkpt lat="40.953575430515315" lon="16.09814244020737"><ele>446.0</ele><time>2026-04-06T07:35:59Z</time></trkpt><trkpt lat="40.95371342987543" lon="16.098139126295695"><ele>445.0</ele><time>2026-04-06T07:36:00Z</time></trkpt><trkpt lat="40.95384400006037" lon="16.098158511045014"><ele>444.0</ele><time>2026-04-06T07:36:01Z</time></trkpt><trkpt lat="40.95397723735243" lon="16.098170404987947"><ele>443.0</ele><time>2026-04-06T07:36:02Z</time></trkpt><trkpt lat="40.95410546074332" lon="16.098181591724277"><ele>442.5</ele><time>2026-04-06T07:36:03Z</time></trkpt><trkpt lat="40.95423563049254" lon="16.098198740354682"><ele>442.0</ele><time>2026-04-06T07:36:04Z</time></trkpt><trkpt lat="40.9543664268888" lon="16.098214565363506"><ele>441.5</ele><time>2026-04-06T07:36:05Z</time></trkpt><trkpt lat="40.95449108566064" lon="16.09822691079619"><ele>441.0</ele><time>2026-04-06T07:36:06Z</time></trkpt><trkpt lat="40.954610239120285" lon="16.098239679960994"><ele>441.5</ele><time>2026-04-06T07:36:07Z</time></trkpt><trkpt lat="40.95473442758577" lon="16.098252066427957"><ele>442.0</ele><time>2026-04-06T07:36:08Z</time></trkpt><trkpt lat="40.95486234684962" lon="16.09826968904969"><ele>442.5</ele><time>2026-04-06T07:36:09Z</time></trkpt><trkpt lat="40.954990449657636" lon="16.09828858037163"><ele>443.0</ele><time>2026-04-06T07:36:10Z</time></trkpt><trkpt lat="40.95511879959931" lon="16.098303675957947"><ele>443.0</ele><time>2026-04-06T07:36:11Z</time></trkpt><trkpt lat="40.95524589011892" lon="16.09831259912963"><ele>443.0</ele><time>2026-04-06T07:36:12Z</time></trkpt><trkpt lat="40.95537925388024" lon="16.098352635909546"><ele>443.0</ele><time>2026-04-06T07:36:13Z</time></trkpt><trkpt lat="40.955514568771186" lon="16.09835144732593"><ele>443.0</ele><time>2026-04-06T07:36:14Z</time></trkpt><trkpt lat="40.95564540687174" lon="16.09837118052425"><ele>443.0</ele><time>2026-04-06T07:36:15Z</time></trkpt><trkpt lat="40.95578429678795" lon="16.098387646664644"><ele>443.0</ele><time>2026-04-06T07:36:16Z</time></trkpt><trkpt lat="40.95591940107619" lon="16.09840853220152"><ele>443.0</ele><time>2026-04-06T07:36:17Z</time></trkpt><trkpt lat="40.95605995247802" lon="16.098441725893323"><ele>443.0</ele><time>2026-04-06T07:36:18Z</time></trkpt><trkpt lat="40.95619573226678" lon="16.098484148867552"><ele>442.75</ele><time>2026-04-06T07:36:19Z</time></trkpt><trkpt lat="40.956334890912075" lon="16.098533951747683"><ele>442.5</ele><time>2026-04-06T07:36:20Z</time></trkpt><trkpt lat="40.95646192070708" lon="16.098578257038614"><ele>442.25</ele><time>2026-04-06T07:36:21Z</time></trkpt><trkpt lat="40.95658207874838" lon="16.098612775664463"><ele>442.0</ele><time>2026-04-06T07:36:22Z</time></trkpt><trkpt lat="40.95668506034903" lon="16.098616009814787"><ele>441.8</ele><time>2026-04-06T07:36:23Z</time></trkpt><trkpt lat="40.956782780309396" lon="16.098590205819477"><ele>441.6</ele><time>2026-04-06T07:36:24Z</time></trkpt><trkpt lat="40.956880814395866" lon="16.098529841134543"><ele>441.40000000000003</ele><time>2026-04-06T07:36:25Z</time></trkpt><trkpt lat="40.95696894571316" lon="16.098449267297056"><ele>441.20000000000005</ele><time>2026-04-06T07:36:26Z</time></trkpt><trkpt lat="40.95704190174655" lon="16.09835444594692"><ele>441.0</ele><time>2026-04-06T07:36:27Z</time></trkpt><trkpt lat="40.95710580256324" lon="16.09825558346835"><ele>441.0</ele><time>2026-04-06T07:36:28Z</time></trkpt><trkpt lat="40.957179903854346" lon="16.0981744128722"><ele>441.0</ele><time>2026-04-06T07:36:29Z</time></trkpt><trkpt lat="40.957276976015514" lon="16.098118775944037"><ele>441.0</ele><time>2026-04-06T07:36:30Z</time></trkpt><trkpt lat="40.95739321002897" lon="16.098081286398088"><ele>441.0</ele><time>2026-04-06T07:36:31Z</time></trkpt><trkpt lat="40.95751426526871" lon="16.098046999360033"><ele>441.0</ele><time>2026-04-06T07:36:32Z</time></trkpt><trkpt lat="40.95764099616842" lon="16.098001371907404"><ele>440.25</ele><time>2026-04-06T07:36:33Z</time></trkpt><trkpt lat="40.95776797070247" lon="16.097954637588984"><ele>439.5</ele><time>2026-04-06T07:36:34Z</time></trkpt><trkpt lat="40.95790023560344" lon="16.097904927645295"><ele>438.75</ele><time>2026-04-06T07:36:35Z</time></trkpt><trkpt lat="40.95802703429101" lon="16.0978446051254"><ele>438.0</ele><time>2026-04-06T07:36:36Z</time></trkpt><trkpt lat="40.95815957899529" lon="16.097759350020155"><ele>438.0</ele><time>2026-04-06T07:36:37Z</time></trkpt><trkpt lat="40.95829662051387" lon="16.097648910107495"><ele>438.0</ele><time>2026-04-06T07:36:38Z</time></trkpt><trkpt lat="40.958429407176375" lon="16.0975345914502"><ele>438.0</ele><time>2026-04-06T07:36:39Z</time></trkpt><trkpt lat="40.95855868812938" lon="16.097422280451617"><ele>437.33333333333337</ele><time>2026-04-06T07:36:40Z</time></trkpt><trkpt lat="40.95869504509647" lon="16.09733622547372"><ele>436.6666666666667</ele><time>2026-04-06T07:36:41Z</time></trkpt><trkpt lat="40.95881834023966" lon="16.097218677939924"><ele>436.0</ele><time>2026-04-06T07:36:42Z</time></trkpt><trkpt lat="40.95895298502191" lon="16.097116239501624"><ele>436.0</ele><time>2026-04-06T07:36:43Z</time></trkpt><trkpt lat="40.95909069267819" lon="16.09700068089686"><ele>436.0</ele><time>2026-04-06T07:36:44Z</time></trkpt><trkpt lat="40.95920115376863" lon="16.09691152465343"><ele>436.0</ele><time>2026-04-06T07:36:45Z</time></trkpt><trkpt lat="40.95930885697587" lon="16.096818743267864"><ele>436.0</ele><time>2026-04-06T07:36:46Z</time></trkpt><trkpt lat="40.95942071855086" lon="16.096729830403387"><ele>436.75</ele><time>2026-04-06T07:36:47Z</time></trkpt><trkpt lat="40.95952593307556" lon="16.096644865880464"><ele>437.5</ele><time>2026-04-06T07:36:48Z</time></trkpt><trkpt lat="40.95963197593851" lon="16.096564418863892"><ele>438.25</ele><time>2026-04-06T07:36:49Z</time></trkpt><trkpt lat="40.95974022801205" lon="16.09649171530129"><ele>439.0</ele><time>2026-04-06T07:36:50Z</time></trkpt><trkpt lat="40.95984796309731" lon="16.09642173693961"><ele>438.0</ele><time>2026-04-06T07:36:51Z</time></trkpt><trkpt lat="40.95996748396779" lon="16.096354519130152"><ele>437.0</ele><time>2026-04-06T07:36:52Z</time></trkpt><trkpt lat="40.96008151880555" lon="16.0963006264424"><ele>436.0</ele><time>2026-04-06T07:36:53Z</time></trkpt><trkpt lat="40.96019092438594" lon="16.096255074950854"><ele>435.0</ele><time>2026-04-06T07:36:54Z</time></trkpt><trkpt lat="40.9602984680073" lon="16.09621396133089"><ele>435.0</ele><time>2026-04-06T07:36:55Z</time></trkpt><trkpt lat="40.9604079980969" lon="16.096174925229164"><ele>435.0</ele><time>2026-04-06T07:36:56Z</time></trkpt><trkpt lat="40.960515965197736" lon="16.096122053123455"><ele>435.0</ele><time>2026-04-06T07:36:57Z</time></trkpt><trkpt lat="40.960625965480475" lon="16.09606204343076"><ele>435.0</ele><time>2026-04-06T07:36:58Z</time></trkpt><trkpt lat="40.960737630422535" lon="16.096004137603515"><ele>435.0</ele><time>2026-04-06T07:36:59Z</time></trkpt><trkpt lat="40.96085459506245" lon="16.095934478343445"><ele>435.0</ele><time>2026-04-06T07:37:00Z</time></trkpt><trkpt lat="40.96096925906052" lon="16.09585216380987"><ele>435.0</ele><time>2026-04-06T07:37:01Z</time></trkpt><trkpt lat="40.96108549595735" lon="16.095762728401983"><ele>435.0</ele><time>2026-04-06T07:37:02Z</time></trkpt><trkpt lat="40.961202617039056" lon="16.095674493225896"><ele>435.0</ele><time>2026-04-06T07:37:03Z</time></trkpt><trkpt lat="40.96132278485294" lon="16.095584754115794"><ele>435.0</ele><time>2026-04-06T07:37:04Z</time></trkpt><trkpt lat="40.96144264521817" lon="16.095492908025236"><ele>435.0</ele><time>2026-04-06T07:37:05Z</time></trkpt><trkpt lat="40.96156576504177" lon="16.095397294171722"><ele>435.0</ele><time>2026-04-06T07:37:06Z</time></trkpt><trkpt lat="40.96169840366761" lon="16.095302338001968"><ele>436.66666666666663</ele><time>2026-04-06T07:37:07Z</time></trkpt><trkpt lat="40.96183051446272" lon="16.095202896940116"><ele>438.3333333333333</ele><time>2026-04-06T07:37:08Z</time></trkpt><trkpt lat="40.961964680144135" lon="16.095094784174123"><ele>440.0</ele><time>2026-04-06T07:37:09Z</time></trkpt><trkpt lat="40.96209378156233" lon="16.094998423741533"><ele>440.25</ele><time>2026-04-06T07:37:10Z</time></trkpt><trkpt lat="40.962216434927214" lon="16.094906153621604"><ele>440.5</ele><time>2026-04-06T07:37:11Z</time></trkpt><trkpt lat="40.96233405037553" lon="16.09481602150325"><ele>440.75</ele><time>2026-04-06T07:37:12Z</time></trkpt><trkpt lat="40.962439876871095" lon="16.094733427002364"><ele>441.0</ele><time>2026-04-06T07:37:13Z</time></trkpt><trkpt lat="40.962538027189595" lon="16.094657481516748"><ele>441.0</ele><time>2026-04-06T07:37:14Z</time></trkpt><trkpt lat="40.96263887313781" lon="16.094578572045336"><ele>441.0</ele><time>2026-04-06T07:37:15Z</time></trkpt><trkpt lat="40.96274822494468" lon="16.09449208911989"><ele>441.0</ele><time>2026-04-06T07:37:16Z</time></trkpt><trkpt lat="40.96284640694678" lon="16.094412940542703"><ele>441.0</ele><time>2026-04-06T07:37:17Z</time></trkpt><trkpt lat="40.96295072026285" lon="16.094334724427608"><ele>441.0</ele><time>2026-04-06T07:37:18Z</time></trkpt><trkpt lat="40.96305111799245" lon="16.094255766912827"><ele>441.0</ele><time>2026-04-06T07:37:19Z</time></trkpt><trkpt lat="40.96314680390103" lon="16.094183654258867"><ele>441.0</ele><time>2026-04-06T07:37:20Z</time></trkpt><trkpt lat="40.96323289217282" lon="16.094120978193345"><ele>441.0</ele><time>2026-04-06T07:37:21Z</time></trkpt><trkpt lat="40.96330953518409" lon="16.09406560082307"><ele>441.0</ele><time>2026-04-06T07:37:22Z</time></trkpt><trkpt lat="40.963381943956975" lon="16.094010290647283"><ele>440.0</ele><time>2026-04-06T07:37:23Z</time></trkpt><trkpt lat="40.96344317454006" lon="16.093960213005506"><ele>439.0</ele><time>2026-04-06T07:37:24Z</time></trkpt><trkpt lat="40.96352992984522" lon="16.09389520373147"><ele>438.0</ele><time>2026-04-06T07:37:26Z</time></trkpt><trkpt lat="40.96359586191074" lon="16.093840852906297"><ele>437.0</ele><time>2026-04-06T07:37:27Z</time></trkpt><trkpt lat="40.9636723097144" lon="16.093781080138218"><ele>436.0</ele><time>2026-04-06T07:37:28Z</time></trkpt><trkpt lat="40.96372918416408" lon="16.093730176243827"><ele>435.0</ele><time>2026-04-06T07:37:29Z</time></trkpt><trkpt lat="40.963812912588956" lon="16.093669481837463"><ele>435.0</ele><time>2026-04-06T07:37:30Z</time></trkpt><trkpt lat="40.963875601852855" lon="16.093623511872117"><ele>435.0</ele><time>2026-04-06T07:37:31Z</time></trkpt><trkpt lat="40.963940172758704" lon="16.093574040078796"><ele>435.0</ele><time>2026-04-06T07:37:32Z</time></trkpt><trkpt lat="40.96399629866477" lon="16.093532180101576"><ele>435.0</ele><time>2026-04-06T07:37:33Z</time></trkpt><trkpt lat="40.96409309779795" lon="16.093476966947538"><ele>435.0</ele><time>2026-04-06T07:37:35Z</time></trkpt><trkpt lat="40.96415269510362" lon="16.0934092119944"><ele>435.0</ele><time>2026-04-06T07:37:36Z</time></trkpt><trkpt lat="40.96423592923196" lon="16.09334890992611"><ele>435.0</ele><time>2026-04-06T07:37:37Z</time></trkpt><trkpt lat="40.96432412506987" lon="16.09327820437819"><ele>435.0</ele><time>2026-04-06T07:37:38Z</time></trkpt><trkpt lat="40.96441615188975" lon="16.093233106363627"><ele>435.0</ele><time>2026-04-06T07:37:39Z</time></trkpt><trkpt lat="40.964498542385584" lon="16.09317045016035"><ele>435.0</ele><time>2026-04-06T07:37:40Z</time></trkpt><trkpt lat="40.964570483621" lon="16.093114660067275"><ele>435.0</ele><time>2026-04-06T07:37:41Z</time></trkpt><trkpt lat="40.9646396966588" lon="16.09306094376634"><ele>435.00000000000006</ele><time>2026-04-06T07:37:42Z</time></trkpt><trkpt lat="40.96470237986605" lon="16.093012295286318"><ele>435.0</ele><time>2026-04-06T07:37:43Z</time></trkpt><trkpt lat="40.96476128171723" lon="16.09296658153165"><ele>435.0</ele><time>2026-04-06T07:37:44Z</time></trkpt><trkpt lat="40.96481806866059" lon="16.092922509147574"><ele>435.0</ele><time>2026-04-06T07:37:45Z</time></trkpt><trkpt lat="40.964875357280796" lon="16.092876699504405"><ele>435.0</ele><time>2026-04-06T07:37:46Z</time></trkpt><trkpt lat="40.96493787134641" lon="16.092826672568233"><ele>435.00000000000006</ele><time>2026-04-06T07:37:47Z</time></trkpt><trkpt lat="40.96499364714992" lon="16.09278203792825"><ele>435.0</ele><time>2026-04-06T07:37:48Z</time></trkpt><trkpt lat="40.96505102625089" lon="16.0927361202938"><ele>435.1666666666667</ele><time>2026-04-06T07:37:49Z</time></trkpt><trkpt lat="40.96515362630963" lon="16.092654014554544"><ele>435.33333333333337</ele><time>2026-04-06T07:37:51Z</time></trkpt><trkpt lat="40.96520085535865" lon="16.092591738325297"><ele>435.5</ele><time>2026-04-06T07:37:52Z</time></trkpt><trkpt lat="40.96527636785057" lon="16.092554579113084"><ele>435.6666666666667</ele><time>2026-04-06T07:37:53Z</time></trkpt><trkpt lat="40.96533019734842" lon="16.092510370769567"><ele>435.83333333333337</ele><time>2026-04-06T07:37:54Z</time></trkpt><trkpt lat="40.96541176859836" lon="16.092420584824385"><ele>436.0</ele><time>2026-04-06T07:37:56Z</time></trkpt><trkpt lat="40.965471767803976" lon="16.09239435242846"><ele>435.6666666666667</ele><time>2026-04-06T07:37:57Z</time></trkpt><trkpt lat="40.96552201061395" lon="16.092331355298008"><ele>435.33333333333337</ele><time>2026-04-06T07:37:58Z</time></trkpt><trkpt lat="40.965592384058596" lon="16.092295835026196"><ele>435.0</ele><time>2026-04-06T07:37:59Z</time></trkpt><trkpt lat="40.96565750906177" lon="16.092224677155375"><ele>434.66666666666663</ele><time>2026-04-06T07:38:00Z</time></trkpt><trkpt lat="40.965729391096964" lon="16.09216632429177"><ele>434.3333333333333</ele><time>2026-04-06T07:38:01Z</time></trkpt><trkpt lat="40.96581872563994" lon="16.09212846199706"><ele>434.0</ele><time>2026-04-06T07:38:02Z</time></trkpt><trkpt lat="40.96590098106996" lon="16.09207649779658"><ele>434.0</ele><time>2026-04-06T07:38:03Z</time></trkpt><trkpt lat="40.965992662721575" lon="16.092020414672618"><ele>434.0</ele><time>2026-04-06T07:38:04Z</time></trkpt><trkpt lat="40.96607997640708" lon="16.091970912207355"><ele>434.0</ele><time>2026-04-06T07:38:05Z</time></trkpt><trkpt lat="40.966162538213126" lon="16.091924231228717"><ele>434.0</ele><time>2026-04-06T07:38:06Z</time></trkpt><trkpt lat="40.96624309341568" lon="16.09188656282986"><ele>434.0</ele><time>2026-04-06T07:38:07Z</time></trkpt><trkpt lat="40.96632069872478" lon="16.091836652125924"><ele>433.99999999999994</ele><time>2026-04-06T07:38:08Z</time></trkpt><trkpt lat="40.96639982538013" lon="16.091800832057704"><ele>434.0</ele><time>2026-04-06T07:38:09Z</time></trkpt><trkpt lat="40.9664764704276" lon="16.091755600440077"><ele>434.0</ele><time>2026-04-06T07:38:10Z</time></trkpt><trkpt lat="40.96655046510675" lon="16.091721683695166"><ele>434.0</ele><time>2026-04-06T07:38:11Z</time></trkpt><trkpt lat="40.96662972176214" lon="16.091684819507464"><ele>433.99999999999994</ele><time>2026-04-06T07:38:12Z</time></trkpt><trkpt lat="40.9666947084621" lon="16.091646881405985"><ele>434.0</ele><time>2026-04-06T07:38:13Z</time></trkpt><trkpt lat="40.96675962571245" lon="16.091603627180152"><ele>434.66666666666663</ele><time>2026-04-06T07:38:14Z</time></trkpt><trkpt lat="40.96682769679885" lon="16.09155442423837"><ele>435.3333333333333</ele><time>2026-04-06T07:38:15Z</time></trkpt><trkpt lat="40.966898170758476" lon="16.09150228845073"><ele>436.0</ele><time>2026-04-06T07:38:16Z</time></trkpt><trkpt lat="40.96697619245756" lon="16.09145872046443"><ele>436.66666666666663</ele><time>2026-04-06T07:38:17Z</time></trkpt><trkpt lat="40.967058935601905" lon="16.09142089332964"><ele>437.3333333333333</ele><time>2026-04-06T07:38:18Z</time></trkpt><trkpt lat="40.967136449878375" lon="16.09139492463936"><ele>438.0</ele><time>2026-04-06T07:38:19Z</time></trkpt><trkpt lat="40.967211930516854" lon="16.091363898115823"><ele>438.0</ele><time>2026-04-06T07:38:20Z</time></trkpt><trkpt lat="40.96727786279025" lon="16.091311599081166"><ele>438.0</ele><time>2026-04-06T07:38:21Z</time></trkpt><trkpt lat="40.967341154691105" lon="16.091262811794348"><ele>438.0</ele><time>2026-04-06T07:38:22Z</time></trkpt><trkpt lat="40.96740026115928" lon="16.091213369688873"><ele>438.0</ele><time>2026-04-06T07:38:23Z</time></trkpt><trkpt lat="40.9674603188856" lon="16.09117172780745"><ele>438.0</ele><time>2026-04-06T07:38:24Z</time></trkpt><trkpt lat="40.967533174104624" lon="16.091100562698127"><ele>438.0</ele><time>2026-04-06T07:38:26Z</time></trkpt><trkpt lat="40.967593226084986" lon="16.09106055277412"><ele>438.0</ele><time>2026-04-06T07:38:30Z</time></trkpt><trkpt lat="40.96765347685195" lon="16.091119423693307"><ele>438.79999999999995</ele><time>2026-04-06T07:38:32Z</time></trkpt><trkpt lat="40.9677184116904" lon="16.09117370990684"><ele>439.59999999999997</ele><time>2026-04-06T07:38:36Z</time></trkpt><trkpt lat="40.96780572550333" lon="16.09112820521236"><ele>440.40000000000003</ele><time>2026-04-06T07:38:38Z</time></trkpt><trkpt lat="40.96787138755606" lon="16.090995317853157"><ele>441.20000000000005</ele><time>2026-04-06T07:38:40Z</time></trkpt><trkpt lat="40.967914658870676" lon="16.09091208080257"><ele>442.0</ele><time>2026-04-06T07:38:41Z</time></trkpt><trkpt lat="40.96796532456379" lon="16.09082119632018"><ele>441.83333333333337</ele><time>2026-04-06T07:38:42Z</time></trkpt><trkpt lat="40.96802102107989" lon="16.090732051246693"><ele>441.6666666666667</ele><time>2026-04-06T07:38:43Z</time></trkpt><trkpt lat="40.968076432048086" lon="16.090641815987453"><ele>441.5</ele><time>2026-04-06T07:38:44Z</time></trkpt><trkpt lat="40.96812727354663" lon="16.09055471964613"><ele>441.33333333333337</ele><time>2026-04-06T07:38:45Z</time></trkpt><trkpt lat="40.96817334361493" lon="16.090466660639734"><ele>441.1666666666667</ele><time>2026-04-06T07:38:46Z</time></trkpt><trkpt lat="40.96821806828921" lon="16.090368659862563"><ele>441.0</ele><time>2026-04-06T07:38:47Z</time></trkpt><trkpt lat="40.96825861745774" lon="16.090287242476215"><ele>441.0</ele><time>2026-04-06T07:38:48Z</time></trkpt><trkpt lat="40.96829178163327" lon="16.090209073352778"><ele>441.0</ele><time>2026-04-06T07:38:49Z</time></trkpt><trkpt lat="40.968343267158254" lon="16.090111943377657"><ele>441.0</ele><time>2026-04-06T07:38:51Z</time></trkpt><trkpt lat="40.968367914205224" lon="16.08999644451411"><ele>441.0</ele><time>2026-04-06T07:38:53Z</time></trkpt><trkpt lat="40.96843627090894" lon="16.089833345955228"><ele>441.0</ele><time>2026-04-06T07:38:55Z</time></trkpt><trkpt lat="40.96846570268095" lon="16.089741305241716"><ele>441.1666666666667</ele><time>2026-04-06T07:38:56Z</time></trkpt><trkpt lat="40.96849655816648" lon="16.08964246305431"><ele>441.33333333333337</ele><time>2026-04-06T07:38:57Z</time></trkpt><trkpt lat="40.968522609813135" lon="16.089559009854458"><ele>441.5</ele><time>2026-04-06T07:38:58Z</time></trkpt><trkpt lat="40.968546450746445" lon="16.08948157802873"><ele>441.6666666666667</ele><time>2026-04-06T07:38:59Z</time></trkpt><trkpt lat="40.96859734286524" lon="16.08931665453716"><ele>441.83333333333337</ele><time>2026-04-06T07:39:01Z</time></trkpt><trkpt lat="40.96863150379036" lon="16.08920597808945"><ele>442.0</ele><time>2026-04-06T07:39:02Z</time></trkpt><trkpt lat="40.96866903428981" lon="16.089084467174523"><ele>440.8</ele><time>2026-04-06T07:39:03Z</time></trkpt><trkpt lat="40.96870821328735" lon="16.088957991979697"><ele>439.6</ele><time>2026-04-06T07:39:04Z</time></trkpt><trkpt lat="40.968741190062914" lon="16.08882325097355"><ele>438.40000000000003</ele><time>2026-04-06T07:39:05Z</time></trkpt><trkpt lat="40.968778296893404" lon="16.0886926218954"><ele>437.20000000000005</ele><time>2026-04-06T07:39:06Z</time></trkpt><trkpt lat="40.96881802551094" lon="16.088561744873473"><ele>436.0</ele><time>2026-04-06T07:39:07Z</time></trkpt><trkpt lat="40.96885115701358" lon="16.08843533311469"><ele>436.00000000000006</ele><time>2026-04-06T07:39:08Z</time></trkpt><trkpt lat="40.96887724014989" lon="16.08832591603513"><ele>436.0</ele><time>2026-04-06T07:39:09Z</time></trkpt><trkpt lat="40.96890532015549" lon="16.088214137594857"><ele>436.0</ele><time>2026-04-06T07:39:10Z</time></trkpt><trkpt lat="40.96893146658718" lon="16.088106091844637"><ele>436.0</ele><time>2026-04-06T07:39:11Z</time></trkpt><trkpt lat="40.968962899697466" lon="16.088001827061913"><ele>436.00000000000006</ele><time>2026-04-06T07:39:12Z</time></trkpt><trkpt lat="40.96899213219361" lon="16.087890845613963"><ele>436.0</ele><time>2026-04-06T07:39:13Z</time></trkpt><trkpt lat="40.96901314329422" lon="16.087778267279862"><ele>436.1666666666667</ele><time>2026-04-06T07:39:14Z</time></trkpt><trkpt lat="40.96902623426095" lon="16.087668303554462"><ele>436.33333333333337</ele><time>2026-04-06T07:39:15Z</time></trkpt><trkpt lat="40.96905063664952" lon="16.08756145587015"><ele>436.5</ele><time>2026-04-06T07:39:16Z</time></trkpt><trkpt lat="40.96908130787927" lon="16.08745388008787"><ele>436.66666666666663</ele><time>2026-04-06T07:39:17Z</time></trkpt><trkpt lat="40.96915514319974" lon="16.087367430569092"><ele>436.8333333333333</ele><time>2026-04-06T07:39:18Z</time></trkpt><trkpt lat="40.9692259179066" lon="16.087304278410738"><ele>437.0</ele><time>2026-04-06T07:39:19Z</time></trkpt><trkpt lat="40.96929893255145" lon="16.08722935342943"><ele>437.16666666666663</ele><time>2026-04-06T07:39:20Z</time></trkpt><trkpt lat="40.969397971080646" lon="16.087185687004293"><ele>437.3333333333333</ele><time>2026-04-06T07:39:21Z</time></trkpt><trkpt lat="40.96946848027543" lon="16.087139801933123"><ele>437.5</ele><time>2026-04-06T07:39:22Z</time></trkpt><trkpt lat="40.969551356302404" lon="16.08708783694521"><ele>437.66666666666663</ele><time>2026-04-06T07:39:23Z</time></trkpt><trkpt lat="40.96963213471344" lon="16.08703612203437"><ele>437.8333333333333</ele><time>2026-04-06T07:39:24Z</time></trkpt><trkpt lat="40.969707424691485" lon="16.086987801597964"><ele>438.0</ele><time>2026-04-06T07:39:25Z</time></trkpt><trkpt lat="40.969784478042676" lon="16.08693834944808"><ele>438.0</ele><time>2026-04-06T07:39:26Z</time></trkpt><trkpt lat="40.9698578964728" lon="16.086891230807478"><ele>438.0</ele><time>2026-04-06T07:39:27Z</time></trkpt><trkpt lat="40.96993241730755" lon="16.086842754430283"><ele>438.0</ele><time>2026-04-06T07:39:28Z</time></trkpt><trkpt lat="40.96999831354814" lon="16.08679846362417"><ele>438.0</ele><time>2026-04-06T07:39:29Z</time></trkpt><trkpt lat="40.970064976226105" lon="16.08675403496024"><ele>438.0</ele><time>2026-04-06T07:39:30Z</time></trkpt><trkpt lat="40.970132339886796" lon="16.086704471300127"><ele>438.0</ele><time>2026-04-06T07:39:31Z</time></trkpt><trkpt lat="40.97019136033757" lon="16.086659639532897"><ele>437.6666666666667</ele><time>2026-04-06T07:39:32Z</time></trkpt><trkpt lat="40.970254385569575" lon="16.086606173121687"><ele>437.33333333333337</ele><time>2026-04-06T07:39:33Z</time></trkpt><trkpt lat="40.97031006645043" lon="16.086553968633826"><ele>437.0</ele><time>2026-04-06T07:39:34Z</time></trkpt><trkpt lat="40.970407472612884" lon="16.086443057892804"><ele>436.6666666666667</ele><time>2026-04-06T07:39:36Z</time></trkpt><trkpt lat="40.970462359513874" lon="16.086377695493827"><ele>436.33333333333337</ele><time>2026-04-06T07:39:37Z</time></trkpt><trkpt lat="40.97051793617707" lon="16.086310707224435"><ele>436.0</ele><time>2026-04-06T07:39:38Z</time></trkpt><trkpt lat="40.97057849578322" lon="16.086235424927892"><ele>436.00000000000006</ele><time>2026-04-06T07:39:39Z</time></trkpt><trkpt lat="40.9706341844326" lon="16.08616586324946"><ele>436.0</ele><time>2026-04-06T07:39:40Z</time></trkpt><trkpt lat="40.970711529522994" lon="16.08606756325301"><ele>436.0</ele><time>2026-04-06T07:39:42Z</time></trkpt><trkpt lat="40.970783559231734" lon="16.08597331757363"><ele>436.0</ele><time>2026-04-06T07:39:44Z</time></trkpt><trkpt lat="40.97084634759567" lon="16.085890150146806"><ele>436.00000000000006</ele><time>2026-04-06T07:39:47Z</time></trkpt><trkpt lat="40.97089236332475" lon="16.085828215913548"><ele>436.0</ele><time>2026-04-06T07:39:49Z</time></trkpt><trkpt lat="40.97098117912044" lon="16.085725623220167"><ele>435.8</ele><time>2026-04-06T07:39:51Z</time></trkpt><trkpt lat="40.97104231069728" lon="16.08565781040748"><ele>435.6</ele><time>2026-04-06T07:39:52Z</time></trkpt><trkpt lat="40.97111792811096" lon="16.08558279444532"><ele>435.4</ele><time>2026-04-06T07:39:53Z</time></trkpt><trkpt lat="40.97121272643896" lon="16.085501312205572"><ele>435.2</ele><time>2026-04-06T07:39:54Z</time></trkpt><trkpt lat="40.97131860719274" lon="16.085424146507744"><ele>435.0</ele><time>2026-04-06T07:39:55Z</time></trkpt><trkpt lat="40.971434185239914" lon="16.085344596455634"><ele>435.0</ele><time>2026-04-06T07:39:56Z</time></trkpt><trkpt lat="40.9715555605981" lon="16.085266874358446"><ele>435.0</ele><time>2026-04-06T07:39:57Z</time></trkpt><trkpt lat="40.97167018401204" lon="16.08519271739495"><ele>435.0</ele><time>2026-04-06T07:39:58Z</time></trkpt><trkpt lat="40.97176901067291" lon="16.085130553524404"><ele>435.0</ele><time>2026-04-06T07:39:59Z</time></trkpt><trkpt lat="40.9718539195562" lon="16.08507714440207"><ele>435.4</ele><time>2026-04-06T07:40:00Z</time></trkpt><trkpt lat="40.971932031032736" lon="16.08502801077259"><ele>435.8</ele><time>2026-04-06T07:40:01Z</time></trkpt><trkpt lat="40.9720116742498" lon="16.084978033225628"><ele>436.20000000000005</ele><time>2026-04-06T07:40:02Z</time></trkpt><trkpt lat="40.97209687322839" lon="16.084922035033905"><ele>436.6</ele><time>2026-04-06T07:40:03Z</time></trkpt><trkpt lat="40.972197750555665" lon="16.084853969470657"><ele>437.0</ele><time>2026-04-06T07:40:04Z</time></trkpt><trkpt lat="40.97230695005746" lon="16.084779045573207"><ele>437.0</ele><time>2026-04-06T07:40:05Z</time></trkpt><trkpt lat="40.97241722544563" lon="16.08470338388401"><ele>437.0</ele><time>2026-04-06T07:40:06Z</time></trkpt><trkpt lat="40.972528162944776" lon="16.084627424096176"><ele>437.0</ele><time>2026-04-06T07:40:07Z</time></trkpt><trkpt lat="40.97264346464829" lon="16.084548917313775"><ele>437.0</ele><time>2026-04-06T07:40:08Z</time></trkpt><trkpt lat="40.972764336920456" lon="16.084466562486174"><ele>437.0</ele><time>2026-04-06T07:40:09Z</time></trkpt><trkpt lat="40.97288555102998" lon="16.084383984074815"><ele>437.0</ele><time>2026-04-06T07:40:10Z</time></trkpt><trkpt lat="40.97300168978085" lon="16.084303939741833"><ele>437.0</ele><time>2026-04-06T07:40:11Z</time></trkpt><trkpt lat="40.97312324022747" lon="16.084221452954978"><ele>437.0</ele><time>2026-04-06T07:40:12Z</time></trkpt><trkpt lat="40.97324441102296" lon="16.08414259747117"><ele>436.75</ele><time>2026-04-06T07:40:13Z</time></trkpt><trkpt lat="40.97336434841074" lon="16.084064545344777"><ele>436.5</ele><time>2026-04-06T07:40:14Z</time></trkpt><trkpt lat="40.973471910330474" lon="16.083946327197086"><ele>436.25</ele><time>2026-04-06T07:40:15Z</time></trkpt><trkpt lat="40.97359658526706" lon="16.08386436870531"><ele>436.0</ele><time>2026-04-06T07:40:16Z</time></trkpt><trkpt lat="40.97371647449905" lon="16.08378566889333"><ele>436.0</ele><time>2026-04-06T07:40:17Z</time></trkpt><trkpt lat="40.97383460731261" lon="16.083709436605922"><ele>436.0</ele><time>2026-04-06T07:40:18Z</time></trkpt><trkpt lat="40.973972337490046" lon="16.08365561044952"><ele>436.0</ele><time>2026-04-06T07:40:19Z</time></trkpt><trkpt lat="40.974086533886336" lon="16.083580275956237"><ele>436.0</ele><time>2026-04-06T07:40:20Z</time></trkpt><trkpt lat="40.97421631684999" lon="16.083494659899515"><ele>435.75</ele><time>2026-04-06T07:40:21Z</time></trkpt><trkpt lat="40.9743463534731" lon="16.083407739503045"><ele>435.5</ele><time>2026-04-06T07:40:22Z</time></trkpt><trkpt lat="40.974476378944196" lon="16.083321094992368"><ele>435.25</ele><time>2026-04-06T07:40:23Z</time></trkpt><trkpt lat="40.97460484782315" lon="16.08323064880557"><ele>435.0</ele><time>2026-04-06T07:40:24Z</time></trkpt><trkpt lat="40.97472115294143" lon="16.083110854179626"><ele>435.0</ele><time>2026-04-06T07:40:25Z</time></trkpt><trkpt lat="40.97485721393757" lon="16.083020337133124"><ele>435.0</ele><time>2026-04-06T07:40:26Z</time></trkpt><trkpt lat="40.974982635757826" lon="16.082898804697738"><ele>435.0</ele><time>2026-04-06T07:40:27Z</time></trkpt><trkpt lat="40.975091751654546" lon="16.08275260853765"><ele>435.0</ele><time>2026-04-06T07:40:28Z</time></trkpt><trkpt lat="40.97521721842298" lon="16.082642205963804"><ele>435.0</ele><time>2026-04-06T07:40:29Z</time></trkpt><trkpt lat="40.97532125175851" lon="16.082528206910297"><ele>435.0</ele><time>2026-04-06T07:40:30Z</time></trkpt><trkpt lat="40.97541969087253" lon="16.082415054982814"><ele>435.0</ele><time>2026-04-06T07:40:31Z</time></trkpt><trkpt lat="40.975519891170386" lon="16.0823011851541"><ele>435.0</ele><time>2026-04-06T07:40:32Z</time></trkpt><trkpt lat="40.975623331225215" lon="16.082185528792813"><ele>435.0</ele><time>2026-04-06T07:40:33Z</time></trkpt><trkpt lat="40.97573295613031" lon="16.082065353175803"><ele>435.0</ele><time>2026-04-06T07:40:34Z</time></trkpt><trkpt lat="40.97584395838512" lon="16.08194431438854"><ele>435.0</ele><time>2026-04-06T07:40:35Z</time></trkpt><trkpt lat="40.975961348971275" lon="16.081812884496077"><ele>435.0</ele><time>2026-04-06T07:40:36Z</time></trkpt><trkpt lat="40.976078548580375" lon="16.081680668862525"><ele>435.0</ele><time>2026-04-06T07:40:37Z</time></trkpt><trkpt lat="40.976203231961776" lon="16.081541421166644"><ele>435.0</ele><time>2026-04-06T07:40:38Z</time></trkpt><trkpt lat="40.97633166305434" lon="16.081398812281122"><ele>435.0</ele><time>2026-04-06T07:40:39Z</time></trkpt><trkpt lat="40.976463217322" lon="16.08125210281541"><ele>435.0</ele><time>2026-04-06T07:40:40Z</time></trkpt><trkpt lat="40.97659069677369" lon="16.08110950022734"><ele>435.0</ele><time>2026-04-06T07:40:41Z</time></trkpt><trkpt lat="40.976710488900224" lon="16.080974915417766"><ele>432.66666666666663</ele><time>2026-04-06T07:40:42Z</time></trkpt><trkpt lat="40.976830468021035" lon="16.08084019065692"><ele>430.3333333333333</ele><time>2026-04-06T07:40:43Z</time></trkpt><trkpt lat="40.97694976384151" lon="16.08070627526707"><ele>428.0</ele><time>2026-04-06T07:40:44Z</time></trkpt><trkpt lat="40.977068679180505" lon="16.08057303203751"><ele>427.66666666666663</ele><time>2026-04-06T07:40:45Z</time></trkpt><trkpt lat="40.977170803524395" lon="16.08043303174666"><ele>427.33333333333337</ele><time>2026-04-06T07:40:46Z</time></trkpt><trkpt lat="40.97729381931058" lon="16.08029976264947"><ele>427.0</ele><time>2026-04-06T07:40:47Z</time></trkpt><trkpt lat="40.97742714935276" lon="16.08018252189855"><ele>424.6666666666667</ele><time>2026-04-06T07:40:48Z</time></trkpt><trkpt lat="40.977556517442075" lon="16.080038286450353"><ele>422.33333333333337</ele><time>2026-04-06T07:40:49Z</time></trkpt><trkpt lat="40.977687626847974" lon="16.079890666979832"><ele>420.0</ele><time>2026-04-06T07:40:50Z</time></trkpt><trkpt lat="40.97782540142781" lon="16.079736301325802"><ele>419.33333333333337</ele><time>2026-04-06T07:40:51Z</time></trkpt><trkpt lat="40.97796066184024" lon="16.079556718338388"><ele>418.6666666666667</ele><time>2026-04-06T07:40:52Z</time></trkpt><trkpt lat="40.978106019204084" lon="16.079396017266667"><ele>418.0</ele><time>2026-04-06T07:40:53Z</time></trkpt><trkpt lat="40.97826847498107" lon="16.079242258300283"><ele>417.0</ele><time>2026-04-06T07:40:54Z</time></trkpt><trkpt lat="40.97841889387182" lon="16.079074321707033"><ele>416.0</ele><time>2026-04-06T07:40:55Z</time></trkpt><trkpt lat="40.97856245802712" lon="16.07891371039909"><ele>415.0</ele><time>2026-04-06T07:40:56Z</time></trkpt><trkpt lat="40.97869658068223" lon="16.078763323578503"><ele>415.0</ele><time>2026-04-06T07:40:57Z</time></trkpt><trkpt lat="40.97883212965636" lon="16.078610420892403"><ele>415.0</ele><time>2026-04-06T07:40:58Z</time></trkpt><trkpt lat="40.978964281562966" lon="16.078461111219127"><ele>415.0</ele><time>2026-04-06T07:40:59Z</time></trkpt><trkpt lat="40.97908809502561" lon="16.078295814951158"><ele>415.33333333333337</ele><time>2026-04-06T07:41:00Z</time></trkpt><trkpt lat="40.97922477868231" lon="16.078145791011075"><ele>415.66666666666663</ele><time>2026-04-06T07:41:01Z</time></trkpt><trkpt lat="40.97935831374215" lon="16.077992879002004"><ele>416.0</ele><time>2026-04-06T07:41:02Z</time></trkpt><trkpt lat="40.97948862988546" lon="16.077842985806118"><ele>416.0</ele><time>2026-04-06T07:41:03Z</time></trkpt><trkpt lat="40.97960954178531" lon="16.077705665238728"><ele>416.0</ele><time>2026-04-06T07:41:04Z</time></trkpt><trkpt lat="40.97972687452597" lon="16.07757292559898"><ele>416.0</ele><time>2026-04-06T07:41:05Z</time></trkpt><trkpt lat="40.97983636642584" lon="16.077452577551895"><ele>414.66666666666663</ele><time>2026-04-06T07:41:06Z</time></trkpt><trkpt lat="40.97994998964119" lon="16.077327170130737"><ele>413.33333333333337</ele><time>2026-04-06T07:41:07Z</time></trkpt><trkpt lat="40.980069716680894" lon="16.077196092392608"><ele>412.0</ele><time>2026-04-06T07:41:08Z</time></trkpt><trkpt lat="40.98019244969002" lon="16.077060556198443"><ele>412.0</ele><time>2026-04-06T07:41:09Z</time></trkpt><trkpt lat="40.980312906493566" lon="16.076923232904583"><ele>412.0</ele><time>2026-04-06T07:41:10Z</time></trkpt><trkpt lat="40.98042865669492" lon="16.07678982553694"><ele>412.0</ele><time>2026-04-06T07:41:11Z</time></trkpt><trkpt lat="40.98054865822898" lon="16.076681247246057"><ele>411.0</ele><time>2026-04-06T07:41:12Z</time></trkpt><trkpt lat="40.980656207617514" lon="16.076560775517844"><ele>410.0</ele><time>2026-04-06T07:41:13Z</time></trkpt><trkpt lat="40.98076394208509" lon="16.076440265637885"><ele>409.0</ele><time>2026-04-06T07:41:14Z</time></trkpt><trkpt lat="40.98087557496012" lon="16.07631539516775"><ele>408.0</ele><time>2026-04-06T07:41:15Z</time></trkpt><trkpt lat="40.98099097315482" lon="16.076189781671058"><ele>407.5</ele><time>2026-04-06T07:41:16Z</time></trkpt><trkpt lat="40.981108451907254" lon="16.07606837896098"><ele>407.0</ele><time>2026-04-06T07:41:17Z</time></trkpt><trkpt lat="40.981217982397176" lon="16.075942295003212"><ele>406.5</ele><time>2026-04-06T07:41:18Z</time></trkpt><trkpt lat="40.98133820443614" lon="16.075852990362634"><ele>406.0</ele><time>2026-04-06T07:41:19Z</time></trkpt><trkpt lat="40.98144619127132" lon="16.07579022956126"><ele>406.0</ele><time>2026-04-06T07:41:20Z</time></trkpt><trkpt lat="40.981542021160635" lon="16.075749873459674"><ele>406.0</ele><time>2026-04-06T07:41:21Z</time></trkpt><trkpt lat="40.98161629366291" lon="16.075729673304274"><ele>406.0</ele><time>2026-04-06T07:41:22Z</time></trkpt><trkpt lat="40.98174512926578" lon="16.07573469013949"><ele>406.0</ele><time>2026-04-06T07:41:24Z</time></trkpt><trkpt lat="40.98183383402774" lon="16.075741828020643"><ele>406.0</ele><time>2026-04-06T07:41:25Z</time></trkpt><trkpt lat="40.981936595567966" lon="16.07579231184237"><ele>406.0</ele><time>2026-04-06T07:41:26Z</time></trkpt><trkpt lat="40.98205612282091" lon="16.075830201440986"><ele>406.0</ele><time>2026-04-06T07:41:27Z</time></trkpt><trkpt lat="40.982175154246676" lon="16.075914371736534"><ele>406.0</ele><time>2026-04-06T07:41:28Z</time></trkpt><trkpt lat="40.98229256166125" lon="16.076002647013674"><ele>406.0</ele><time>2026-04-06T07:41:29Z</time></trkpt><trkpt lat="40.98240115389208" lon="16.076106729256082"><ele>406.0</ele><time>2026-04-06T07:41:30Z</time></trkpt><trkpt lat="40.98248502299683" lon="16.076260838956713"><ele>406.0</ele><time>2026-04-06T07:41:31Z</time></trkpt><trkpt lat="40.982561522088936" lon="16.076427311839453"><ele>406.0</ele><time>2026-04-06T07:41:32Z</time></trkpt><trkpt lat="40.98264615116174" lon="16.07660914945529"><ele>406.33333333333337</ele><time>2026-04-06T07:41:33Z</time></trkpt><trkpt lat="40.98270784157093" lon="16.0768047375788"><ele>406.66666666666663</ele><time>2026-04-06T07:41:34Z</time></trkpt><trkpt lat="40.982773227728096" lon="16.07698159658136"><ele>407.0</ele><time>2026-04-06T07:41:35Z</time></trkpt><trkpt lat="40.98284056594352" lon="16.077149172466264"><ele>407.0</ele><time>2026-04-06T07:41:36Z</time></trkpt><trkpt lat="40.982903354972635" lon="16.077319275168357"><ele>407.0</ele><time>2026-04-06T07:41:37Z</time></trkpt><trkpt lat="40.98295156275895" lon="16.07748457961214"><ele>407.0</ele><time>2026-04-06T07:41:38Z</time></trkpt><trkpt lat="40.98300108484826" lon="16.077646204469467"><ele>407.0</ele><time>2026-04-06T07:41:39Z</time></trkpt><trkpt lat="40.98305524274033" lon="16.077808618260544"><ele>406.5</ele><time>2026-04-06T07:41:40Z</time></trkpt><trkpt lat="40.98311940903723" lon="16.07795769566606"><ele>406.0</ele><time>2026-04-06T07:41:41Z</time></trkpt><trkpt lat="40.983190274822654" lon="16.078104102175278"><ele>405.5</ele><time>2026-04-06T07:41:42Z</time></trkpt><trkpt lat="40.98326344480281" lon="16.07824843676337"><ele>405.0</ele><time>2026-04-06T07:41:43Z</time></trkpt><trkpt lat="40.98332681310099" lon="16.07839355629095"><ele>405.0</ele><time>2026-04-06T07:41:44Z</time></trkpt><trkpt lat="40.98337735668347" lon="16.078537092808478"><ele>405.0</ele><time>2026-04-06T07:41:45Z</time></trkpt><trkpt lat="40.983430297459826" lon="16.078685625441555"><ele>405.0</ele><time>2026-04-06T07:41:46Z</time></trkpt><trkpt lat="40.98347848893885" lon="16.078836835341832"><ele>405.0</ele><time>2026-04-06T07:41:47Z</time></trkpt><trkpt lat="40.983518020073" lon="16.07901396108896"><ele>404.0</ele><time>2026-04-06T07:41:48Z</time></trkpt><trkpt lat="40.98354525634219" lon="16.079204353757554"><ele>403.0</ele><time>2026-04-06T07:41:49Z</time></trkpt><trkpt lat="40.98356398661204" lon="16.079399558929097"><ele>402.0</ele><time>2026-04-06T07:41:50Z</time></trkpt><trkpt lat="40.983585866731" lon="16.07960715168423"><ele>402.0</ele><time>2026-04-06T07:41:51Z</time></trkpt><trkpt lat="40.98361029741344" lon="16.07982052800984"><ele>402.0</ele><time>2026-04-06T07:41:52Z</time></trkpt><trkpt lat="40.98363482846483" lon="16.08002675241137"><ele>402.0</ele><time>2026-04-06T07:41:53Z</time></trkpt><trkpt lat="40.98366022100981" lon="16.080221826895436"><ele>401.0</ele><time>2026-04-06T07:41:54Z</time></trkpt><trkpt lat="40.98368211141414" lon="16.080403203965606"><ele>400.0</ele><time>2026-04-06T07:41:55Z</time></trkpt><trkpt lat="40.98370583948241" lon="16.08056828475034"><ele>399.0</ele><time>2026-04-06T07:41:56Z</time></trkpt><trkpt lat="40.98374030958345" lon="16.080722233237605"><ele>398.0</ele><time>2026-04-06T07:41:57Z</time></trkpt><trkpt lat="40.983788260981434" lon="16.08085565947734"><ele>397.75</ele><time>2026-04-06T07:41:58Z</time></trkpt><trkpt lat="40.9838635374474" lon="16.080979797277262"><ele>397.5</ele><time>2026-04-06T07:41:59Z</time></trkpt><trkpt lat="40.98396129183511" lon="16.081078458615725"><ele>397.25</ele><time>2026-04-06T07:42:00Z</time></trkpt><trkpt lat="40.98407842117507" lon="16.08115544070109"><ele>397.0</ele><time>2026-04-06T07:42:01Z</time></trkpt><trkpt lat="40.98420268455256" lon="16.08123640107891"><ele>397.0</ele><time>2026-04-06T07:42:02Z</time></trkpt><trkpt lat="40.98434472854641" lon="16.08132381615883"><ele>397.0</ele><time>2026-04-06T07:42:03Z</time></trkpt><trkpt lat="40.98448877036385" lon="16.081407868517765"><ele>397.0</ele><time>2026-04-06T07:42:04Z</time></trkpt><trkpt lat="40.98463456154852" lon="16.08150345957646"><ele>394.0</ele><time>2026-04-06T07:42:05Z</time></trkpt><trkpt lat="40.98477201010757" lon="16.081614275844586"><ele>391.0</ele><time>2026-04-06T07:42:06Z</time></trkpt><trkpt lat="40.9849047915935" lon="16.08172479304433"><ele>388.0</ele><time>2026-04-06T07:42:07Z</time></trkpt><trkpt lat="40.985030720170585" lon="16.08182923578129"><ele>387.25</ele><time>2026-04-06T07:42:08Z</time></trkpt><trkpt lat="40.98514585859293" lon="16.0819386909"><ele>386.5</ele><time>2026-04-06T07:42:09Z</time></trkpt><trkpt lat="40.98525338404601" lon="16.082051155893907"><ele>385.75</ele><time>2026-04-06T07:42:10Z</time></trkpt><trkpt lat="40.98536249558374" lon="16.082172322487732"><ele>385.0</ele><time>2026-04-06T07:42:11Z</time></trkpt><trkpt lat="40.98546715306013" lon="16.08230757242756"><ele>383.6666666666667</ele><time>2026-04-06T07:42:12Z</time></trkpt><trkpt lat="40.98556506284005" lon="16.082455821881343"><ele>382.33333333333337</ele><time>2026-04-06T07:42:13Z</time></trkpt><trkpt lat="40.98567156759563" lon="16.082600760553905"><ele>381.0</ele><time>2026-04-06T07:42:14Z</time></trkpt><trkpt lat="40.98580000374534" lon="16.08273509014684"><ele>378.3333333333333</ele><time>2026-04-06T07:42:15Z</time></trkpt><trkpt lat="40.98594623510158" lon="16.0828674593948"><ele>375.66666666666663</ele><time>2026-04-06T07:42:16Z</time></trkpt><trkpt lat="40.98608635025539" lon="16.082987658909204"><ele>373.0</ele><time>2026-04-06T07:42:17Z</time></trkpt><trkpt lat="40.986220555813986" lon="16.08310163019009"><ele>373.0</ele><time>2026-04-06T07:42:18Z</time></trkpt><trkpt lat="40.98635040815774" lon="16.083211834407408"><ele>373.0</ele><time>2026-04-06T07:42:19Z</time></trkpt><trkpt lat="40.986480540491364" lon="16.083327987894812"><ele>373.0</ele><time>2026-04-06T07:42:20Z</time></trkpt><trkpt lat="40.98660624154295" lon="16.083440082413777"><ele>368.25</ele><time>2026-04-06T07:42:21Z</time></trkpt><trkpt lat="40.986721425332604" lon="16.08353808905528"><ele>363.5</ele><time>2026-04-06T07:42:22Z</time></trkpt><trkpt lat="40.98682869102394" lon="16.083626190152042"><ele>358.75</ele><time>2026-04-06T07:42:23Z</time></trkpt><trkpt lat="40.98692249965426" lon="16.08371487942869"><ele>354.0</ele><time>2026-04-06T07:42:24Z</time></trkpt><trkpt lat="40.987003065411315" lon="16.08381078448631"><ele>354.0</ele><time>2026-04-06T07:42:25Z</time></trkpt><trkpt lat="40.98706450552244" lon="16.08391708161251"><ele>354.0</ele><time>2026-04-06T07:42:26Z</time></trkpt><trkpt lat="40.98710126041489" lon="16.084038620944536"><ele>354.0</ele><time>2026-04-06T07:42:27Z</time></trkpt><trkpt lat="40.987111620417615" lon="16.08418400703465"><ele>354.0</ele><time>2026-04-06T07:42:28Z</time></trkpt><trkpt lat="40.987100277033285" lon="16.08434758529431"><ele>354.0</ele><time>2026-04-06T07:42:29Z</time></trkpt><trkpt lat="40.98708707715542" lon="16.08450962466163"><ele>353.79999999999995</ele><time>2026-04-06T07:42:30Z</time></trkpt><trkpt lat="40.987074321211104" lon="16.084653773088366"><ele>353.59999999999997</ele><time>2026-04-06T07:42:31Z</time></trkpt><trkpt lat="40.98705053781508" lon="16.08477918748272"><ele>353.4</ele><time>2026-04-06T07:42:32Z</time></trkpt><trkpt lat="40.987008344282415" lon="16.08487487353"><ele>353.2</ele><time>2026-04-06T07:42:33Z</time></trkpt><trkpt lat="40.98694255633049" lon="16.08494257891124"><ele>353.0</ele><time>2026-04-06T07:42:34Z</time></trkpt><trkpt lat="40.9868641564987" lon="16.0849772357975"><ele>352.59999999999997</ele><time>2026-04-06T07:42:35Z</time></trkpt><trkpt lat="40.986772611533404" lon="16.08497775725455"><ele>352.2</ele><time>2026-04-06T07:42:36Z</time></trkpt><trkpt lat="40.9866701554024" lon="16.08495841252176"><ele>351.8</ele><time>2026-04-06T07:42:37Z</time></trkpt><trkpt lat="40.986557186225745" lon="16.08491524786103"><ele>351.4</ele><time>2026-04-06T07:42:38Z</time></trkpt><trkpt lat="40.98643999319627" lon="16.084847697721344"><ele>351.0</ele><time>2026-04-06T07:42:39Z</time></trkpt><trkpt lat="40.986316579799755" lon="16.08475286543356"><ele>358.6666666666667</ele><time>2026-04-06T07:42:40Z</time></trkpt><trkpt lat="40.98619961553341" lon="16.084630499457703"><ele>366.33333333333337</ele><time>2026-04-06T07:42:41Z</time></trkpt><trkpt lat="40.986087492464065" lon="16.08447745949504"><ele>374.0</ele><time>2026-04-06T07:42:42Z</time></trkpt><trkpt lat="40.985975326393046" lon="16.084317267167968"><ele>374.0</ele><time>2026-04-06T07:42:43Z</time></trkpt><trkpt lat="40.9858514547049" lon="16.084172962995453"><ele>374.0</ele><time>2026-04-06T07:42:44Z</time></trkpt><trkpt lat="40.98571506620985" lon="16.084047590531963"><ele>374.0</ele><time>2026-04-06T07:42:45Z</time></trkpt><trkpt lat="40.9855752723796" lon="16.083933681360044"><ele>374.6666666666667</ele><time>2026-04-06T07:42:46Z</time></trkpt><trkpt lat="40.98543694372615" lon="16.08383623365452"><ele>375.3333333333333</ele><time>2026-04-06T07:42:47Z</time></trkpt><trkpt lat="40.985291184906494" lon="16.083763130337804"><ele>376.0</ele><time>2026-04-06T07:42:48Z</time></trkpt><trkpt lat="40.985132719018026" lon="16.08370734646158"><ele>371.66666666666663</ele><time>2026-04-06T07:42:49Z</time></trkpt><trkpt lat="40.98495810341673" lon="16.083669492594424"><ele>367.3333333333333</ele><time>2026-04-06T07:42:50Z</time></trkpt><trkpt lat="40.98477574439552" lon="16.083644216048597"><ele>363.0</ele><time>2026-04-06T07:42:51Z</time></trkpt><trkpt lat="40.98458829950271" lon="16.083619085018587"><ele>363.0</ele><time>2026-04-06T07:42:52Z</time></trkpt><trkpt lat="40.98440205217838" lon="16.083590082788284"><ele>363.0</ele><time>2026-04-06T07:42:53Z</time></trkpt><trkpt lat="40.98422075357595" lon="16.08356440837839"><ele>363.0</ele><time>2026-04-06T07:42:54Z</time></trkpt><trkpt lat="40.98404322693097" lon="16.083544729678984"><ele>360.3333333333333</ele><time>2026-04-06T07:42:55Z</time></trkpt><trkpt lat="40.98387730616605" lon="16.08353175603562"><ele>357.66666666666663</ele><time>2026-04-06T07:42:56Z</time></trkpt><trkpt lat="40.983709917845324" lon="16.083522509767104"><ele>355.0</ele><time>2026-04-06T07:42:57Z</time></trkpt><trkpt lat="40.9835474680637" lon="16.083513125758444"><ele>355.0</ele><time>2026-04-06T07:42:58Z</time></trkpt><trkpt lat="40.98339229477561" lon="16.083509711822774"><ele>355.0</ele><time>2026-04-06T07:42:59Z</time></trkpt><trkpt lat="40.983254743493056" lon="16.083523447585083"><ele>355.0</ele><time>2026-04-06T07:43:00Z</time></trkpt><trkpt lat="40.98314189502231" lon="16.08355825997885"><ele>355.0</ele><time>2026-04-06T07:43:01Z</time></trkpt><trkpt lat="40.98304436114336" lon="16.083615950774476"><ele>354.0</ele><time>2026-04-06T07:43:02Z</time></trkpt><trkpt lat="40.98296843346961" lon="16.083719527379696"><ele>353.0</ele><time>2026-04-06T07:43:03Z</time></trkpt><trkpt lat="40.98290659210178" lon="16.083839355843963"><ele>352.0</ele><time>2026-04-06T07:43:04Z</time></trkpt><trkpt lat="40.98286906341938" lon="16.083989114365437"><ele>351.0</ele><time>2026-04-06T07:43:05Z</time></trkpt><trkpt lat="40.982847398645" lon="16.084168712086786"><ele>349.0</ele><time>2026-04-06T07:43:06Z</time></trkpt><trkpt lat="40.98284017937815" lon="16.084356601924107"><ele>347.0</ele><time>2026-04-06T07:43:07Z</time></trkpt><trkpt lat="40.98283197095291" lon="16.084548960395736"><ele>345.0</ele><time>2026-04-06T07:43:08Z</time></trkpt><trkpt lat="40.98280932857722" lon="16.08475210974195"><ele>343.0</ele><time>2026-04-06T07:43:09Z</time></trkpt><trkpt lat="40.98276649191291" lon="16.08494420027996"><ele>340.75</ele><time>2026-04-06T07:43:10Z</time></trkpt><trkpt lat="40.98271770510288" lon="16.085133430552137"><ele>338.5</ele><time>2026-04-06T07:43:11Z</time></trkpt><trkpt lat="40.98266544905658" lon="16.085306564227157"><ele>336.25</ele><time>2026-04-06T07:43:12Z</time></trkpt><trkpt lat="40.98261029206671" lon="16.08544759260249"><ele>334.0</ele><time>2026-04-06T07:43:13Z</time></trkpt><trkpt lat="40.982554082095035" lon="16.085569102219797"><ele>334.79999999999995</ele><time>2026-04-06T07:43:14Z</time></trkpt><trkpt lat="40.9825061515916" lon="16.085693671822522"><ele>335.59999999999997</ele><time>2026-04-06T07:43:15Z</time></trkpt><trkpt lat="40.98245583487974" lon="16.08583274158679"><ele>336.4</ele><time>2026-04-06T07:43:16Z</time></trkpt><trkpt lat="40.98242505121955" lon="16.08598427138226"><ele>337.2</ele><time>2026-04-06T07:43:17Z</time></trkpt><trkpt lat="40.982388671019045" lon="16.086118460356452"><ele>338.0</ele><time>2026-04-06T07:43:18Z</time></trkpt><trkpt lat="40.98235175313172" lon="16.086250202600386"><ele>338.0</ele><time>2026-04-06T07:43:19Z</time></trkpt><trkpt lat="40.98231835317946" lon="16.086377743786297"><ele>338.0</ele><time>2026-04-06T07:43:20Z</time></trkpt><trkpt lat="40.98228821335489" lon="16.08649168585536"><ele>338.0</ele><time>2026-04-06T07:43:21Z</time></trkpt><trkpt lat="40.98226198329858" lon="16.086584376241863"><ele>338.0</ele><time>2026-04-06T07:43:22Z</time></trkpt><trkpt lat="40.98224211665071" lon="16.086678172233807"><ele>338.0</ele><time>2026-04-06T07:43:23Z</time></trkpt><trkpt lat="40.98224537990969" lon="16.086773312358297"><ele>338.0</ele><time>2026-04-06T07:43:24Z</time></trkpt><trkpt lat="40.98227440099104" lon="16.086901993039515"><ele>335.5</ele><time>2026-04-06T07:43:25Z</time></trkpt><trkpt lat="40.982309220671794" lon="16.0870623850433"><ele>333.0</ele><time>2026-04-06T07:43:26Z</time></trkpt><trkpt lat="40.98239002076735" lon="16.087213224246018"><ele>330.5</ele><time>2026-04-06T07:43:27Z</time></trkpt><trkpt lat="40.982469150577295" lon="16.0873746642189"><ele>328.0</ele><time>2026-04-06T07:43:28Z</time></trkpt><trkpt lat="40.982552044027244" lon="16.0875191670317"><ele>325.4</ele><time>2026-04-06T07:43:29Z</time></trkpt><trkpt lat="40.98263803466192" lon="16.087649519520173"><ele>322.79999999999995</ele><time>2026-04-06T07:43:30Z</time></trkpt><trkpt lat="40.98271525744045" lon="16.087770606877715"><ele>320.2</ele><time>2026-04-06T07:43:31Z</time></trkpt><trkpt lat="40.98278002540025" lon="16.087877038843985"><ele>317.6</ele><time>2026-04-06T07:43:32Z</time></trkpt><trkpt lat="40.9828333061717" lon="16.08797367233798"><ele>315.0</ele><time>2026-04-06T07:43:33Z</time></trkpt><trkpt lat="40.98288104748688" lon="16.08806453293641"><ele>315.0</ele><time>2026-04-06T07:43:34Z</time></trkpt><trkpt lat="40.982931099798435" lon="16.088170945309464"><ele>315.0</ele><time>2026-04-06T07:43:35Z</time></trkpt><trkpt lat="40.982972016079614" lon="16.088281636088315"><ele>315.0</ele><time>2026-04-06T07:43:36Z</time></trkpt><trkpt lat="40.98302123531038" lon="16.08839212110465"><ele>315.0</ele><time>2026-04-06T07:43:37Z</time></trkpt><trkpt lat="40.983088405462915" lon="16.08850470269392"><ele>315.0</ele><time>2026-04-06T07:43:38Z</time></trkpt><trkpt lat="40.983174135844536" lon="16.088617588773275"><ele>315.75</ele><time>2026-04-06T07:43:39Z</time></trkpt><trkpt lat="40.98327908901736" lon="16.088721279881902"><ele>316.5</ele><time>2026-04-06T07:43:40Z</time></trkpt><trkpt lat="40.98339827809594" lon="16.088825375119278"><ele>317.25</ele><time>2026-04-06T07:43:41Z</time></trkpt><trkpt lat="40.983515287632805" lon="16.088935690803716"><ele>318.0</ele><time>2026-04-06T07:43:42Z</time></trkpt><trkpt lat="40.98361977783208" lon="16.089064587279452"><ele>316.25</ele><time>2026-04-06T07:43:43Z</time></trkpt><trkpt lat="40.98372482087477" lon="16.089202725179923"><ele>314.5</ele><time>2026-04-06T07:43:44Z</time></trkpt><trkpt lat="40.98383273951265" lon="16.089331126721085"><ele>312.75</ele><time>2026-04-06T07:43:45Z</time></trkpt><trkpt lat="40.98394985408841" lon="16.089453821414192"><ele>311.0</ele><time>2026-04-06T07:43:46Z</time></trkpt><trkpt lat="40.98407613423431" lon="16.089569662521843"><ele>308.0</ele><time>2026-04-06T07:43:47Z</time></trkpt><trkpt lat="40.98421133333906" lon="16.089668324692717"><ele>305.0</ele><time>2026-04-06T07:43:48Z</time></trkpt><trkpt lat="40.98435848792604" lon="16.089768296358713"><ele>302.0</ele><time>2026-04-06T07:43:49Z</time></trkpt><trkpt lat="40.984501469442925" lon="16.08986634645786"><ele>304.6666666666667</ele><time>2026-04-06T07:43:50Z</time></trkpt><trkpt lat="40.98464543184397" lon="16.089963069523986"><ele>307.3333333333333</ele><time>2026-04-06T07:43:51Z</time></trkpt><trkpt lat="40.98478058275876" lon="16.090057650767143"><ele>310.0</ele><time>2026-04-06T07:43:52Z</time></trkpt><trkpt lat="40.98491676227199" lon="16.09015334321748"><ele>307.75</ele><time>2026-04-06T07:43:53Z</time></trkpt><trkpt lat="40.985047845496496" lon="16.090234966203948"><ele>305.5</ele><time>2026-04-06T07:43:54Z</time></trkpt><trkpt lat="40.985174107850476" lon="16.090310780059063"><ele>303.25</ele><time>2026-04-06T07:43:55Z</time></trkpt><trkpt lat="40.98530462077885" lon="16.090378651145315"><ele>301.0</ele><time>2026-04-06T07:43:56Z</time></trkpt><trkpt lat="40.985426468900606" lon="16.090434048645594"><ele>301.0</ele><time>2026-04-06T07:43:57Z</time></trkpt><trkpt lat="40.985528292461524" lon="16.090491691204384"><ele>301.0</ele><time>2026-04-06T07:43:58Z</time></trkpt><trkpt lat="40.985639894230914" lon="16.090519985655533"><ele>301.0</ele><time>2026-04-06T07:43:59Z</time></trkpt><trkpt lat="40.9857633566557" lon="16.090540101200734"><ele>301.0</ele><time>2026-04-06T07:44:00Z</time></trkpt><trkpt lat="40.98590002509814" lon="16.090531001723644"><ele>300.0</ele><time>2026-04-06T07:44:01Z</time></trkpt><trkpt lat="40.986052507876956" lon="16.09050747752728"><ele>299.0</ele><time>2026-04-06T07:44:02Z</time></trkpt><trkpt lat="40.98620652268635" lon="16.090484474261157"><ele>298.0</ele><time>2026-04-06T07:44:03Z</time></trkpt><trkpt lat="40.98634989707408" lon="16.090471920705173"><ele>298.0</ele><time>2026-04-06T07:44:04Z</time></trkpt><trkpt lat="40.98648712948872" lon="16.090455815392016"><ele>298.0</ele><time>2026-04-06T07:44:05Z</time></trkpt><trkpt lat="40.9866218310076" lon="16.09044825672319"><ele>298.0</ele><time>2026-04-06T07:44:06Z</time></trkpt><trkpt lat="40.986756869999645" lon="16.090453224530474"><ele>298.0</ele><time>2026-04-06T07:44:07Z</time></trkpt><trkpt lat="40.98690012328367" lon="16.090478124660315"><ele>295.0</ele><time>2026-04-06T07:44:08Z</time></trkpt><trkpt lat="40.9870440177984" lon="16.090516464894982"><ele>292.0</ele><time>2026-04-06T07:44:09Z</time></trkpt><trkpt lat="40.98718531292772" lon="16.09056881013216"><ele>289.0</ele><time>2026-04-06T07:44:10Z</time></trkpt><trkpt lat="40.98733658844019" lon="16.090633369013638"><ele>289.0</ele><time>2026-04-06T07:44:11Z</time></trkpt><trkpt lat="40.98747820955827" lon="16.09072048287993"><ele>289.0</ele><time>2026-04-06T07:44:12Z</time></trkpt><trkpt lat="40.987625524248834" lon="16.090827106273508"><ele>289.0</ele><time>2026-04-06T07:44:13Z</time></trkpt><trkpt lat="40.98777135674674" lon="16.09095808538164"><ele>288.0</ele><time>2026-04-06T07:44:14Z</time></trkpt><trkpt lat="40.987904865284015" lon="16.091103248775365"><ele>287.0</ele><time>2026-04-06T07:44:15Z</time></trkpt><trkpt lat="40.98803416938141" lon="16.09124309047257"><ele>286.0</ele><time>2026-04-06T07:44:16Z</time></trkpt><trkpt lat="40.98815834698847" lon="16.091376588807826"><ele>286.0</ele><time>2026-04-06T07:44:17Z</time></trkpt><trkpt lat="40.98826928273226" lon="16.091510981633217"><ele>286.0</ele><time>2026-04-06T07:44:18Z</time></trkpt><trkpt lat="40.98836824678463" lon="16.091662398989932"><ele>286.0</ele><time>2026-04-06T07:44:19Z</time></trkpt><trkpt lat="40.988454662092366" lon="16.091842025869617"><ele>283.66666666666663</ele><time>2026-04-06T07:44:20Z</time></trkpt><trkpt lat="40.98851541385053" lon="16.09204693255808"><ele>281.3333333333333</ele><time>2026-04-06T07:44:21Z</time></trkpt><trkpt lat="40.988548704052995" lon="16.09225904832741"><ele>279.0</ele><time>2026-04-06T07:44:22Z</time></trkpt><trkpt lat="40.98856413961817" lon="16.092461002841397"><ele>278.0</ele><time>2026-04-06T07:44:23Z</time></trkpt><trkpt lat="40.98857125588339" lon="16.092647481797773"><ele>277.0</ele><time>2026-04-06T07:44:24Z</time></trkpt><trkpt lat="40.98858601895699" lon="16.092844899992905"><ele>276.0</ele><time>2026-04-06T07:44:25Z</time></trkpt><trkpt lat="40.98860842716203" lon="16.093053395670772"><ele>275.3333333333333</ele><time>2026-04-06T07:44:26Z</time></trkpt><trkpt lat="40.98863607571292" lon="16.093293690705973"><ele>274.66666666666663</ele><time>2026-04-06T07:44:27Z</time></trkpt><trkpt lat="40.98865999077167" lon="16.093521174041395"><ele>274.0</ele><time>2026-04-06T07:44:28Z</time></trkpt><trkpt lat="40.98868417688057" lon="16.093741685600946"><ele>274.0</ele><time>2026-04-06T07:44:29Z</time></trkpt><trkpt lat="40.98870371493374" lon="16.093945625948802"><ele>274.0</ele><time>2026-04-06T07:44:30Z</time></trkpt><trkpt lat="40.98871380351462" lon="16.094145548668628"><ele>274.0</ele><time>2026-04-06T07:44:31Z</time></trkpt><trkpt lat="40.98870130212587" lon="16.094351256352294"><ele>273.66666666666663</ele><time>2026-04-06T07:44:32Z</time></trkpt><trkpt lat="40.98866464718363" lon="16.094568596316844"><ele>273.3333333333333</ele><time>2026-04-06T07:44:33Z</time></trkpt><trkpt lat="40.98862325643529" lon="16.094801531991838"><ele>273.0</ele><time>2026-04-06T07:44:34Z</time></trkpt><trkpt lat="40.98858317973552" lon="16.095032208227014"><ele>272.6666666666667</ele><time>2026-04-06T07:44:35Z</time></trkpt><trkpt lat="40.98853932286389" lon="16.095268239352805"><ele>272.33333333333337</ele><time>2026-04-06T07:44:36Z</time></trkpt><trkpt lat="40.98849574431971" lon="16.095502125980886"><ele>272.0</ele><time>2026-04-06T07:44:37Z</time></trkpt><trkpt lat="40.98846151818436" lon="16.095732153529166"><ele>272.33333333333337</ele><time>2026-04-06T07:44:38Z</time></trkpt><trkpt lat="40.98844312197968" lon="16.095951130119545"><ele>272.6666666666667</ele><time>2026-04-06T07:44:39Z</time></trkpt><trkpt lat="40.988446648691884" lon="16.09616279862147"><ele>273.0</ele><time>2026-04-06T07:44:40Z</time></trkpt><trkpt lat="40.9884672355713" lon="16.096372408359485"><ele>273.0</ele><time>2026-04-06T07:44:41Z</time></trkpt><trkpt lat="40.98849861458368" lon="16.09658103570718"><ele>273.0</ele><time>2026-04-06T07:44:42Z</time></trkpt><trkpt lat="40.988541800833985" lon="16.09677319171105"><ele>273.0</ele><time>2026-04-06T07:44:43Z</time></trkpt><trkpt lat="40.98860426966976" lon="16.096934845105164"><ele>273.0</ele><time>2026-04-06T07:44:44Z</time></trkpt><trkpt lat="40.98868824731067" lon="16.097061039987363"><ele>273.0</ele><time>2026-04-06T07:44:45Z</time></trkpt><trkpt lat="40.98879274925855" lon="16.097159055884507"><ele>273.0</ele><time>2026-04-06T07:44:46Z</time></trkpt><trkpt lat="40.988917234195554" lon="16.097226580413896"><ele>273.0</ele><time>2026-04-06T07:44:47Z</time></trkpt><trkpt lat="40.98905906005468" lon="16.097276417690345"><ele>273.0</ele><time>2026-04-06T07:44:48Z</time></trkpt><trkpt lat="40.98921533670432" lon="16.09731822223081"><ele>273.0</ele><time>2026-04-06T07:44:49Z</time></trkpt><trkpt lat="40.989366274596804" lon="16.097355976549398"><ele>273.0</ele><time>2026-04-06T07:44:50Z</time></trkpt><trkpt lat="40.9895320076449" lon="16.097399167028875"><ele>273.0</ele><time>2026-04-06T07:44:51Z</time></trkpt><trkpt lat="40.98969712359346" lon="16.097449025146066"><ele>273.75</ele><time>2026-04-06T07:44:52Z</time></trkpt><trkpt lat="40.98985292505794" lon="16.09749414004307"><ele>274.5</ele><time>2026-04-06T07:44:53Z</time></trkpt><trkpt lat="40.989990231687266" lon="16.09753424028828"><ele>275.25</ele><time>2026-04-06T07:44:54Z</time></trkpt><trkpt lat="40.99011328787306" lon="16.097567872680127"><ele>276.0</ele><time>2026-04-06T07:44:55Z</time></trkpt><trkpt lat="40.99022391946295" lon="16.097596267090395"><ele>277.75</ele><time>2026-04-06T07:44:56Z</time></trkpt><trkpt lat="40.99033628741591" lon="16.097612663715655"><ele>279.5</ele><time>2026-04-06T07:44:57Z</time></trkpt><trkpt lat="40.99045861417015" lon="16.097606131449176"><ele>281.25</ele><time>2026-04-06T07:44:58Z</time></trkpt><trkpt lat="40.99058278988577" lon="16.0975708110394"><ele>283.0</ele><time>2026-04-06T07:44:59Z</time></trkpt><trkpt lat="40.99071209829064" lon="16.09754341821278"><ele>283.0</ele><time>2026-04-06T07:45:00Z</time></trkpt><trkpt lat="40.990839455703416" lon="16.09747978030239"><ele>283.0</ele><time>2026-04-06T07:45:01Z</time></trkpt><trkpt lat="40.99095327343247" lon="16.097397895443336"><ele>283.0</ele><time>2026-04-06T07:45:02Z</time></trkpt><trkpt lat="40.991058577332616" lon="16.097286361738544"><ele>283.0</ele><time>2026-04-06T07:45:03Z</time></trkpt><trkpt lat="40.991159297887705" lon="16.097143638243416"><ele>284.0</ele><time>2026-04-06T07:45:04Z</time></trkpt><trkpt lat="40.99124576111588" lon="16.096983666353804"><ele>285.0</ele><time>2026-04-06T07:45:05Z</time></trkpt><trkpt lat="40.991304039265955" lon="16.09679379299973"><ele>286.0</ele><time>2026-04-06T07:45:06Z</time></trkpt><trkpt lat="40.99132861619783" lon="16.096590940759256"><ele>285.3333333333333</ele><time>2026-04-06T07:45:07Z</time></trkpt><trkpt lat="40.99136425765454" lon="16.09637879047246"><ele>284.6666666666667</ele><time>2026-04-06T07:45:08Z</time></trkpt><trkpt lat="40.991393773921175" lon="16.09616588272813"><ele>284.0</ele><time>2026-04-06T07:45:09Z</time></trkpt><trkpt lat="40.99143787721193" lon="16.09594102830374"><ele>283.33333333333337</ele><time>2026-04-06T07:45:10Z</time></trkpt><trkpt lat="40.99146871466533" lon="16.095719371149986"><ele>282.6666666666667</ele><time>2026-04-06T07:45:11Z</time></trkpt><trkpt lat="40.99149832444" lon="16.095507178303297"><ele>282.0</ele><time>2026-04-06T07:45:12Z</time></trkpt><trkpt lat="40.9915279314586" lon="16.095295005328076"><ele>282.0</ele><time>2026-04-06T07:45:13Z</time></trkpt><trkpt lat="40.99155550448069" lon="16.095109798235725"><ele>282.0</ele><time>2026-04-06T07:45:14Z</time></trkpt><trkpt lat="40.991594870553456" lon="16.094946526483337"><ele>282.0</ele><time>2026-04-06T07:45:15Z</time></trkpt><trkpt lat="40.99165378142262" lon="16.0948133009435"><ele>282.0</ele><time>2026-04-06T07:45:16Z</time></trkpt><trkpt lat="40.9917362017544" lon="16.09469370119627"><ele>282.5</ele><time>2026-04-06T07:45:17Z</time></trkpt><trkpt lat="40.9918417391516" lon="16.0945983055759"><ele>283.0</ele><time>2026-04-06T07:45:18Z</time></trkpt><trkpt lat="40.99195794934554" lon="16.0945157379144"><ele>283.5</ele><time>2026-04-06T07:45:19Z</time></trkpt><trkpt lat="40.992088229944" lon="16.094494383485195"><ele>284.0</ele><time>2026-04-06T07:45:20Z</time></trkpt><trkpt lat="40.99220895446072" lon="16.09454560664201"><ele>284.0</ele><time>2026-04-06T07:45:21Z</time></trkpt><trkpt lat="40.99232696197407" lon="16.09460065832634"><ele>284.0</ele><time>2026-04-06T07:45:22Z</time></trkpt><trkpt lat="40.99244944249028" lon="16.094662176036408"><ele>284.0</ele><time>2026-04-06T07:45:23Z</time></trkpt><trkpt lat="40.992575370534404" lon="16.094743549961656"><ele>284.0</ele><time>2026-04-06T07:45:24Z</time></trkpt><trkpt lat="40.99269965688423" lon="16.094777880208465"><ele>285.75</ele><time>2026-04-06T07:45:25Z</time></trkpt><trkpt lat="40.992826760891724" lon="16.09477011833369"><ele>287.5</ele><time>2026-04-06T07:45:26Z</time></trkpt><trkpt lat="40.9929566465355" lon="16.09471503275991"><ele>289.25</ele><time>2026-04-06T07:45:27Z</time></trkpt><trkpt lat="40.99308197973338" lon="16.094619573797058"><ele>291.0</ele><time>2026-04-06T07:45:28Z</time></trkpt><trkpt lat="40.99319881950764" lon="16.09451422108759"><ele>291.0</ele><time>2026-04-06T07:45:29Z</time></trkpt><trkpt lat="40.99332139065316" lon="16.094419382417144"><ele>291.0</ele><time>2026-04-06T07:45:30Z</time></trkpt><trkpt lat="40.99345093448265" lon="16.09436277332999"><ele>291.0</ele><time>2026-04-06T07:45:31Z</time></trkpt><trkpt lat="40.993570968454385" lon="16.094309544375346"><ele>291.0</ele><time>2026-04-06T07:45:32Z</time></trkpt><trkpt lat="40.993697211547115" lon="16.094293002405205"><ele>293.25</ele><time>2026-04-06T07:45:33Z</time></trkpt><trkpt lat="40.993828473937384" lon="16.094288160043252"><ele>295.5</ele><time>2026-04-06T07:45:34Z</time></trkpt><trkpt lat="40.99394618941322" lon="16.094251940742357"><ele>297.75</ele><time>2026-04-06T07:45:35Z</time></trkpt><trkpt lat="40.99405813111688" lon="16.09419751019442"><ele>300.0</ele><time>2026-04-06T07:45:36Z</time></trkpt><trkpt lat="40.994160082995286" lon="16.09410177073202"><ele>301.0</ele><time>2026-04-06T07:45:37Z</time></trkpt><trkpt lat="40.99425748052326" lon="16.093971172017472"><ele>302.0</ele><time>2026-04-06T07:45:38Z</time></trkpt><trkpt lat="40.99434672906665" lon="16.093831775324286"><ele>303.0</ele><time>2026-04-06T07:45:39Z</time></trkpt><trkpt lat="40.994455280438885" lon="16.093720575476393"><ele>304.0</ele><time>2026-04-06T07:45:40Z</time></trkpt><trkpt lat="40.99456506186954" lon="16.09360306427915"><ele>304.0</ele><time>2026-04-06T07:45:41Z</time></trkpt><trkpt lat="40.994681586829294" lon="16.093480808426236"><ele>304.0</ele><time>2026-04-06T07:45:42Z</time></trkpt><trkpt lat="40.994794182912344" lon="16.093355333648805"><ele>304.0</ele><time>2026-04-06T07:45:43Z</time></trkpt><trkpt lat="40.99490173818149" lon="16.09321700467453"><ele>304.0</ele><time>2026-04-06T07:45:44Z</time></trkpt><trkpt lat="40.99499203071837" lon="16.093065138097685"><ele>305.5</ele><time>2026-04-06T07:45:45Z</time></trkpt><trkpt lat="40.99508061674222" lon="16.09293932463286"><ele>307.0</ele><time>2026-04-06T07:45:46Z</time></trkpt><trkpt lat="40.99518811595411" lon="16.092835796833107"><ele>308.5</ele><time>2026-04-06T07:45:47Z</time></trkpt><trkpt lat="40.9953050768596" lon="16.09274513123869"><ele>310.0</ele><time>2026-04-06T07:45:48Z</time></trkpt><trkpt lat="40.995432497574846" lon="16.09265326980754"><ele>310.0</ele><time>2026-04-06T07:45:49Z</time></trkpt><trkpt lat="40.9955581061003" lon="16.09255303346087"><ele>310.0</ele><time>2026-04-06T07:45:50Z</time></trkpt><trkpt lat="40.995655475839186" lon="16.09239360457459"><ele>310.0</ele><time>2026-04-06T07:45:51Z</time></trkpt><trkpt lat="40.99574809248832" lon="16.092226515092378"><ele>312.3333333333333</ele><time>2026-04-06T07:45:52Z</time></trkpt><trkpt lat="40.995846628750606" lon="16.092064895164516"><ele>314.6666666666667</ele><time>2026-04-06T07:45:53Z</time></trkpt><trkpt lat="40.99593574523503" lon="16.09189847757892"><ele>317.0</ele><time>2026-04-06T07:45:54Z</time></trkpt><trkpt lat="40.99601253203126" lon="16.09173939385061"><ele>317.0</ele><time>2026-04-06T07:45:55Z</time></trkpt><trkpt lat="40.99611016197556" lon="16.091641391726483"><ele>317.0</ele><time>2026-04-06T07:45:56Z</time></trkpt><trkpt lat="40.99620598385124" lon="16.091548892940345"><ele>317.0</ele><time>2026-04-06T07:45:57Z</time></trkpt><trkpt lat="40.996309421202426" lon="16.091458806403416"><ele>317.0</ele><time>2026-04-06T07:45:58Z</time></trkpt><trkpt lat="40.99643056205084" lon="16.09138060989766"><ele>316.25</ele><time>2026-04-06T07:45:59Z</time></trkpt><trkpt lat="40.996563809650404" lon="16.091329533989207"><ele>315.5</ele><time>2026-04-06T07:46:00Z</time></trkpt><trkpt lat="40.99669772174419" lon="16.091303312471275"><ele>314.75</ele><time>2026-04-06T07:46:01Z</time></trkpt><trkpt lat="40.99685605090722" lon="16.091303238719924"><ele>314.0</ele><time>2026-04-06T07:46:02Z</time></trkpt><trkpt lat="40.99702989339782" lon="16.091291560884333"><ele>314.0</ele><time>2026-04-06T07:46:03Z</time></trkpt><trkpt lat="40.997151327214134" lon="16.09128155480991"><ele>314.0</ele><time>2026-04-06T07:46:04Z</time></trkpt><trkpt lat="40.997303212460096" lon="16.091265831499076"><ele>314.0</ele><time>2026-04-06T07:46:05Z</time></trkpt><trkpt lat="40.99744516455059" lon="16.091259300028028"><ele>314.0</ele><time>2026-04-06T07:46:06Z</time></trkpt><trkpt lat="40.997566819244064" lon="16.091259817302024"><ele>317.25</ele><time>2026-04-06T07:46:07Z</time></trkpt><trkpt lat="40.99768115055588" lon="16.091258598168938"><ele>320.5</ele><time>2026-04-06T07:46:08Z</time></trkpt><trkpt lat="40.99779793226584" lon="16.091259796926582"><ele>323.75</ele><time>2026-04-06T07:46:09Z</time></trkpt><trkpt lat="40.99791852832504" lon="16.09124668188634"><ele>327.0</ele><time>2026-04-06T07:46:10Z</time></trkpt><trkpt lat="40.99803828982603" lon="16.091215678164847"><ele>327.0</ele><time>2026-04-06T07:46:11Z</time></trkpt><trkpt lat="40.99815389744378" lon="16.09114774580849"><ele>327.0</ele><time>2026-04-06T07:46:12Z</time></trkpt><trkpt lat="40.99825403323042" lon="16.091031597214258"><ele>327.0</ele><time>2026-04-06T07:46:13Z</time></trkpt><trkpt lat="40.99832549765944" lon="16.09089130476782"><ele>327.0</ele><time>2026-04-06T07:46:14Z</time></trkpt><trkpt lat="40.99836067078656" lon="16.090735600590264"><ele>330.5</ele><time>2026-04-06T07:46:15Z</time></trkpt><trkpt lat="40.998361317729085" lon="16.09056220423841"><ele>334.0</ele><time>2026-04-06T07:46:16Z</time></trkpt><trkpt lat="40.99833576920079" lon="16.090394775137273"><ele>337.5</ele><time>2026-04-06T07:46:17Z</time></trkpt><trkpt lat="40.998335576470716" lon="16.090222170274707"><ele>341.0</ele><time>2026-04-06T07:46:18Z</time></trkpt><trkpt lat="40.998346080019985" lon="16.090079447481386"><ele>341.0</ele><time>2026-04-06T07:46:19Z</time></trkpt><trkpt lat="40.99837674374369" lon="16.089962704506668"><ele>341.0</ele><time>2026-04-06T07:46:20Z</time></trkpt><trkpt lat="40.99843131595942" lon="16.089896154442435"><ele>341.0</ele><time>2026-04-06T07:46:21Z</time></trkpt><trkpt lat="40.99850174602772" lon="16.089831009768"><ele>341.0</ele><time>2026-04-06T07:46:22Z</time></trkpt><trkpt lat="40.99859581149778" lon="16.089755681219785"><ele>341.0</ele><time>2026-04-06T07:46:23Z</time></trkpt><trkpt lat="40.99871795050326" lon="16.089713111065873"><ele>338.25</ele><time>2026-04-06T07:46:24Z</time></trkpt><trkpt lat="40.998846120211525" lon="16.08966738656703"><ele>335.5</ele><time>2026-04-06T07:46:25Z</time></trkpt><trkpt lat="40.99898053159838" lon="16.08961465480119"><ele>332.75</ele><time>2026-04-06T07:46:26Z</time></trkpt><trkpt lat="40.99912484990194" lon="16.08956665315756"><ele>330.0</ele><time>2026-04-06T07:46:27Z</time></trkpt><trkpt lat="40.99926454828872" lon="16.08953356174886"><ele>330.0</ele><time>2026-04-06T07:46:28Z</time></trkpt><trkpt lat="40.99941717164065" lon="16.08951937500833"><ele>330.0</ele><time>2026-04-06T07:46:29Z</time></trkpt><trkpt lat="40.999573404689166" lon="16.089535954832083"><ele>330.0</ele><time>2026-04-06T07:46:30Z</time></trkpt><trkpt lat="40.99973631912392" lon="16.089572548079797"><ele>330.0</ele><time>2026-04-06T07:46:31Z</time></trkpt><trkpt lat="40.99989894263083" lon="16.089622586527014"><ele>330.0</ele><time>2026-04-06T07:46:32Z</time></trkpt><trkpt lat="41.00006122311994" lon="16.089665990012744"><ele>330.0</ele><time>2026-04-06T07:46:33Z</time></trkpt><trkpt lat="41.00021875546874" lon="16.08969328368443"><ele>330.0</ele><time>2026-04-06T07:46:34Z</time></trkpt><trkpt lat="41.00036870706723" lon="16.089704668532892"><ele>330.0</ele><time>2026-04-06T07:46:35Z</time></trkpt><trkpt lat="41.00052686247093" lon="16.089695714577836"><ele>330.0</ele><time>2026-04-06T07:46:36Z</time></trkpt><trkpt lat="41.000691699402886" lon="16.089676794254988"><ele>331.6666666666667</ele><time>2026-04-06T07:46:37Z</time></trkpt><trkpt lat="41.00084398009727" lon="16.08965656136815"><ele>333.33333333333337</ele><time>2026-04-06T07:46:38Z</time></trkpt><trkpt lat="41.00099338372002" lon="16.089623978652106"><ele>335.0</ele><time>2026-04-06T07:46:39Z</time></trkpt><trkpt lat="41.00114207771391" lon="16.08956562894502"><ele>335.0</ele><time>2026-04-06T07:46:40Z</time></trkpt><trkpt lat="41.00129778687965" lon="16.089484192251582"><ele>335.0</ele><time>2026-04-06T07:46:41Z</time></trkpt><trkpt lat="41.00144557429448" lon="16.089384203943084"><ele>335.0</ele><time>2026-04-06T07:46:42Z</time></trkpt><trkpt lat="41.001586636643616" lon="16.089253618219054"><ele>335.6666666666667</ele><time>2026-04-06T07:46:43Z</time></trkpt><trkpt lat="41.00171834191739" lon="16.089101730304968"><ele>336.3333333333333</ele><time>2026-04-06T07:46:44Z</time></trkpt><trkpt lat="41.00184499810779" lon="16.088937065560515"><ele>337.0</ele><time>2026-04-06T07:46:45Z</time></trkpt><trkpt lat="41.00198217114381" lon="16.088806603205057"><ele>337.0</ele><time>2026-04-06T07:46:46Z</time></trkpt><trkpt lat="41.00211052700592" lon="16.088667164336332"><ele>337.0</ele><time>2026-04-06T07:46:47Z</time></trkpt><trkpt lat="41.00225428491845" lon="16.0885529136169"><ele>337.0</ele><time>2026-04-06T07:46:48Z</time></trkpt><trkpt lat="41.002393968581885" lon="16.088436000747826"><ele>339.0</ele><time>2026-04-06T07:46:49Z</time></trkpt><trkpt lat="41.00253264225177" lon="16.08833544555519"><ele>341.0</ele><time>2026-04-06T07:46:50Z</time></trkpt><trkpt lat="41.00267323677805" lon="16.08823874300233"><ele>343.0</ele><time>2026-04-06T07:46:51Z</time></trkpt><trkpt lat="41.002815389657435" lon="16.08815656097273"><ele>343.0</ele><time>2026-04-06T07:46:52Z</time></trkpt><trkpt lat="41.00296390888217" lon="16.088093320505365"><ele>343.0</ele><time>2026-04-06T07:46:53Z</time></trkpt><trkpt lat="41.00310700490792" lon="16.08805107956564"><ele>343.0</ele><time>2026-04-06T07:46:54Z</time></trkpt><trkpt lat="41.00325005123998" lon="16.088017502481385"><ele>343.0</ele><time>2026-04-06T07:46:55Z</time></trkpt><trkpt lat="41.00338742110826" lon="16.087999061870732"><ele>345.0</ele><time>2026-04-06T07:46:56Z</time></trkpt><trkpt lat="41.003529108525406" lon="16.08801238424951"><ele>347.0</ele><time>2026-04-06T07:46:57Z</time></trkpt><trkpt lat="41.00367114276687" lon="16.088050496262028"><ele>349.0</ele><time>2026-04-06T07:46:58Z</time></trkpt><trkpt lat="41.003810208702895" lon="16.08810660392765"><ele>351.0</ele><time>2026-04-06T07:46:59Z</time></trkpt><trkpt lat="41.003949529223114" lon="16.088173729774923"><ele>355.0</ele><time>2026-04-06T07:47:00Z</time></trkpt><trkpt lat="41.004084223561314" lon="16.08826291542146"><ele>359.0</ele><time>2026-04-06T07:47:01Z</time></trkpt><trkpt lat="41.00421677952369" lon="16.088372763690586"><ele>363.0</ele><time>2026-04-06T07:47:02Z</time></trkpt><trkpt lat="41.00435070683023" lon="16.088503273799308"><ele>363.0</ele><time>2026-04-06T07:47:03Z</time></trkpt><trkpt lat="41.004485218764266" lon="16.088618161730906"><ele>363.0</ele><time>2026-04-06T07:47:04Z</time></trkpt><trkpt lat="41.00461701807769" lon="16.088731722565782"><ele>363.0</ele><time>2026-04-06T07:47:05Z</time></trkpt><trkpt lat="41.00474722688265" lon="16.08883849954932"><ele>363.0</ele><time>2026-04-06T07:47:06Z</time></trkpt><trkpt lat="41.004874826318925" lon="16.08894297670184"><ele>363.0</ele><time>2026-04-06T07:47:07Z</time></trkpt><trkpt lat="41.0050173726347" lon="16.089031600384867"><ele>363.0</ele><time>2026-04-06T07:47:08Z</time></trkpt><trkpt lat="41.005174407504825" lon="16.089083833775607"><ele>362.6666666666667</ele><time>2026-04-06T07:47:09Z</time></trkpt><trkpt lat="41.005345046469856" lon="16.089095772952902"><ele>362.33333333333337</ele><time>2026-04-06T07:47:10Z</time></trkpt><trkpt lat="41.005517486722" lon="16.08907036181552"><ele>362.0</ele><time>2026-04-06T07:47:11Z</time></trkpt><trkpt lat="41.00568632012213" lon="16.089015261730015"><ele>363.6666666666667</ele><time>2026-04-06T07:47:12Z</time></trkpt><trkpt lat="41.005851594724795" lon="16.088935969179122"><ele>365.3333333333333</ele><time>2026-04-06T07:47:13Z</time></trkpt><trkpt lat="41.006015045909514" lon="16.08883714500524"><ele>367.0</ele><time>2026-04-06T07:47:14Z</time></trkpt><trkpt lat="41.006175703694396" lon="16.088736034735874"><ele>367.0</ele><time>2026-04-06T07:47:15Z</time></trkpt><trkpt lat="41.00634271538028" lon="16.08864348689852"><ele>367.0</ele><time>2026-04-06T07:47:16Z</time></trkpt><trkpt lat="41.00650643492753" lon="16.08855497997903"><ele>367.0</ele><time>2026-04-06T07:47:17Z</time></trkpt><trkpt lat="41.00667801018456" lon="16.088461611958113"><ele>367.3333333333333</ele><time>2026-04-06T07:47:18Z</time></trkpt><trkpt lat="41.006839699141004" lon="16.088376437588188"><ele>367.6666666666667</ele><time>2026-04-06T07:47:19Z</time></trkpt><trkpt lat="41.007005175023025" lon="16.08828762380519"><ele>368.0</ele><time>2026-04-06T07:47:20Z</time></trkpt><trkpt lat="41.007171339391114" lon="16.088216017977395"><ele>368.0</ele><time>2026-04-06T07:47:21Z</time></trkpt><trkpt lat="41.00733264871484" lon="16.088104281509747"><ele>368.0</ele><time>2026-04-06T07:47:22Z</time></trkpt><trkpt lat="41.00748777372225" lon="16.088018497552124"><ele>368.0</ele><time>2026-04-06T07:47:23Z</time></trkpt><trkpt lat="41.00763194405304" lon="16.08793148200975"><ele>371.6666666666667</ele><time>2026-04-06T07:47:24Z</time></trkpt><trkpt lat="41.00777559572545" lon="16.087831959122422"><ele>375.3333333333333</ele><time>2026-04-06T07:47:25Z</time></trkpt><trkpt lat="41.007915561335736" lon="16.08772144321693"><ele>379.0</ele><time>2026-04-06T07:47:26Z</time></trkpt><trkpt lat="41.008055696547146" lon="16.08760338704779"><ele>379.0</ele><time>2026-04-06T07:47:27Z</time></trkpt><trkpt lat="41.00819397089023" lon="16.087477101003817"><ele>379.0</ele><time>2026-04-06T07:47:28Z</time></trkpt><trkpt lat="41.008329971882006" lon="16.087346080292477"><ele>379.0</ele><time>2026-04-06T07:47:29Z</time></trkpt><trkpt lat="41.00846104432289" lon="16.087204862278096"><ele>381.3333333333333</ele><time>2026-04-06T07:47:30Z</time></trkpt><trkpt lat="41.008596941502226" lon="16.087055823570427"><ele>383.66666666666663</ele><time>2026-04-06T07:47:31Z</time></trkpt><trkpt lat="41.00872874064678" lon="16.08691313405898"><ele>386.0</ele><time>2026-04-06T07:47:32Z</time></trkpt><trkpt lat="41.00886026846792" lon="16.086772077174356"><ele>386.0</ele><time>2026-04-06T07:47:33Z</time></trkpt><trkpt lat="41.00899376823421" lon="16.086629748383707"><ele>386.0</ele><time>2026-04-06T07:47:34Z</time></trkpt><trkpt lat="41.00913528558044" lon="16.086483048169843"><ele>386.0</ele><time>2026-04-06T07:47:35Z</time></trkpt><trkpt lat="41.00927417553555" lon="16.08633964526667"><ele>389.66666666666663</ele><time>2026-04-06T07:47:36Z</time></trkpt><trkpt lat="41.009405832152574" lon="16.08619374965643"><ele>393.33333333333337</ele><time>2026-04-06T07:47:37Z</time></trkpt><trkpt lat="41.0095394488046" lon="16.08604858364392"><ele>397.0</ele><time>2026-04-06T07:47:38Z</time></trkpt><trkpt lat="41.00966119049369" lon="16.085921206983333"><ele>397.0</ele><time>2026-04-06T07:47:39Z</time></trkpt><trkpt lat="41.009787086927865" lon="16.085804840136742"><ele>397.0</ele><time>2026-04-06T07:47:40Z</time></trkpt><trkpt lat="41.009922739005624" lon="16.085702001569377"><ele>397.0</ele><time>2026-04-06T07:47:41Z</time></trkpt><trkpt lat="41.01006704054772" lon="16.085609600728567"><ele>395.33333333333337</ele><time>2026-04-06T07:47:42Z</time></trkpt><trkpt lat="41.010235673614034" lon="16.085558511225795"><ele>393.66666666666663</ele><time>2026-04-06T07:47:43Z</time></trkpt><trkpt lat="41.010396741956846" lon="16.085520193315986"><ele>392.0</ele><time>2026-04-06T07:47:44Z</time></trkpt><trkpt lat="41.01057652390483" lon="16.085481206154633"><ele>392.0</ele><time>2026-04-06T07:47:45Z</time></trkpt><trkpt lat="41.01075245528827" lon="16.085436824740704"><ele>392.0</ele><time>2026-04-06T07:47:46Z</time></trkpt><trkpt lat="41.010942336454605" lon="16.08540047284769"><ele>392.0</ele><time>2026-04-06T07:47:47Z</time></trkpt><trkpt lat="41.01113717065968" lon="16.085355096773817"><ele>390.66666666666663</ele><time>2026-04-06T07:47:48Z</time></trkpt><trkpt lat="41.01133715722321" lon="16.085304858153343"><ele>389.33333333333337</ele><time>2026-04-06T07:47:49Z</time></trkpt><trkpt lat="41.01153715607765" lon="16.085255358263733"><ele>388.0</ele><time>2026-04-06T07:47:50Z</time></trkpt><trkpt lat="41.011738196055944" lon="16.085206888623524"><ele>388.0</ele><time>2026-04-06T07:47:51Z</time></trkpt><trkpt lat="41.01194681600236" lon="16.085160327471485"><ele>388.0</ele><time>2026-04-06T07:47:52Z</time></trkpt><trkpt lat="41.01215630260768" lon="16.08511208465725"><ele>388.0</ele><time>2026-04-06T07:47:53Z</time></trkpt><trkpt lat="41.01236145609718" lon="16.08506236165099"><ele>387.33333333333337</ele><time>2026-04-06T07:47:54Z</time></trkpt><trkpt lat="41.01257973816432" lon="16.085032008855723"><ele>386.66666666666663</ele><time>2026-04-06T07:47:55Z</time></trkpt><trkpt lat="41.01278234133355" lon="16.084986490762653"><ele>386.0</ele><time>2026-04-06T07:47:56Z</time></trkpt><trkpt lat="41.01299771841818" lon="16.0849381027136"><ele>386.0</ele><time>2026-04-06T07:47:57Z</time></trkpt><trkpt lat="41.01320601008526" lon="16.08489147654519"><ele>386.0</ele><time>2026-04-06T07:47:58Z</time></trkpt><trkpt lat="41.01342283641937" lon="16.084823652999745"><ele>386.0</ele><time>2026-04-06T07:47:59Z</time></trkpt><trkpt lat="41.01363890532583" lon="16.0847771030404"><ele>385.66666666666663</ele><time>2026-04-06T07:48:00Z</time></trkpt><trkpt lat="41.01385159011513" lon="16.084746766295737"><ele>385.33333333333337</ele><time>2026-04-06T07:48:01Z</time></trkpt><trkpt lat="41.01406032853814" lon="16.08469989300655"><ele>385.0</ele><time>2026-04-06T07:48:02Z</time></trkpt><trkpt lat="41.0142705220847" lon="16.08465199937363"><ele>383.6666666666667</ele><time>2026-04-06T07:48:03Z</time></trkpt><trkpt lat="41.01448286215185" lon="16.084583772597007"><ele>382.33333333333337</ele><time>2026-04-06T07:48:04Z</time></trkpt><trkpt lat="41.01469218380165" lon="16.084534135528298"><ele>381.0</ele><time>2026-04-06T07:48:05Z</time></trkpt><trkpt lat="41.01490778638731" lon="16.084485160918465"><ele>380.6666666666667</ele><time>2026-04-06T07:48:06Z</time></trkpt><trkpt lat="41.01511551896468" lon="16.084439423989178"><ele>380.33333333333337</ele><time>2026-04-06T07:48:07Z</time></trkpt><trkpt lat="41.01532320321773" lon="16.08439378098916"><ele>380.0</ele><time>2026-04-06T07:48:08Z</time></trkpt><trkpt lat="41.01553167529963" lon="16.08434556283287"><ele>380.0</ele><time>2026-04-06T07:48:09Z</time></trkpt><trkpt lat="41.01574234845157" lon="16.084296567248863"><ele>380.0</ele><time>2026-04-06T07:48:10Z</time></trkpt><trkpt lat="41.01594842031956" lon="16.08425035536917"><ele>380.0</ele><time>2026-04-06T07:48:11Z</time></trkpt><trkpt lat="41.01615375257691" lon="16.084205685044438"><ele>379.6666666666667</ele><time>2026-04-06T07:48:12Z</time></trkpt><trkpt lat="41.01636028258112" lon="16.084157090959653"><ele>379.3333333333333</ele><time>2026-04-06T07:48:13Z</time></trkpt><trkpt lat="41.01656636154999" lon="16.08410758047442"><ele>379.0</ele><time>2026-04-06T07:48:14Z</time></trkpt><trkpt lat="41.016775316867076" lon="16.084066451538"><ele>378.66666666666663</ele><time>2026-04-06T07:48:15Z</time></trkpt><trkpt lat="41.01698267456561" lon="16.084018141892464"><ele>378.3333333333333</ele><time>2026-04-06T07:48:16Z</time></trkpt><trkpt lat="41.0171922140639" lon="16.083971513862092"><ele>378.0</ele><time>2026-04-06T07:48:17Z</time></trkpt><trkpt lat="41.017399950999824" lon="16.083922614792435"><ele>377.0</ele><time>2026-04-06T07:48:18Z</time></trkpt><trkpt lat="41.01761323816085" lon="16.08387688497675"><ele>376.0</ele><time>2026-04-06T07:48:19Z</time></trkpt><trkpt lat="41.017820596300965" lon="16.08382973080294"><ele>375.0</ele><time>2026-04-06T07:48:20Z</time></trkpt><trkpt lat="41.018030932548434" lon="16.083784664770267"><ele>375.0</ele><time>2026-04-06T07:48:21Z</time></trkpt><trkpt lat="41.018240939865855" lon="16.08373805027272"><ele>375.0</ele><time>2026-04-06T07:48:22Z</time></trkpt><trkpt lat="41.01845434688018" lon="16.08369070183467"><ele>375.0</ele><time>2026-04-06T07:48:23Z</time></trkpt><trkpt lat="41.01866453217757" lon="16.08364107700738"><ele>375.0</ele><time>2026-04-06T07:48:24Z</time></trkpt><trkpt lat="41.01887632195919" lon="16.083593503540452"><ele>375.0</ele><time>2026-04-06T07:48:25Z</time></trkpt><trkpt lat="41.01908807750688" lon="16.083549109089034"><ele>375.0</ele><time>2026-04-06T07:48:26Z</time></trkpt><trkpt lat="41.01930174399207" lon="16.08350311343138"><ele>374.6666666666667</ele><time>2026-04-06T07:48:27Z</time></trkpt><trkpt lat="41.01951248081078" lon="16.083454447565245"><ele>374.33333333333337</ele><time>2026-04-06T07:48:28Z</time></trkpt><trkpt lat="41.019722361055074" lon="16.083403063605125"><ele>374.0</ele><time>2026-04-06T07:48:29Z</time></trkpt><trkpt lat="41.01993343582522" lon="16.083351579052398"><ele>374.33333333333337</ele><time>2026-04-06T07:48:30Z</time></trkpt><trkpt lat="41.020143464657565" lon="16.08330045716135"><ele>374.6666666666667</ele><time>2026-04-06T07:48:31Z</time></trkpt><trkpt lat="41.02034803970208" lon="16.08327436805322"><ele>375.0</ele><time>2026-04-06T07:48:32Z</time></trkpt><trkpt lat="41.02055501001668" lon="16.08322778694739"><ele>374.3333333333333</ele><time>2026-04-06T07:48:33Z</time></trkpt><trkpt lat="41.02075526154631" lon="16.08318271649888"><ele>373.66666666666663</ele><time>2026-04-06T07:48:34Z</time></trkpt><trkpt lat="41.02095668609811" lon="16.08313738203245"><ele>373.0</ele><time>2026-04-06T07:48:35Z</time></trkpt><trkpt lat="41.02115622825571" lon="16.083070499702835"><ele>373.0</ele><time>2026-04-06T07:48:36Z</time></trkpt><trkpt lat="41.02135250255292" lon="16.083025997119098"><ele>373.0</ele><time>2026-04-06T07:48:37Z</time></trkpt><trkpt lat="41.02155133998706" lon="16.082984787125422"><ele>373.0</ele><time>2026-04-06T07:48:38Z</time></trkpt><trkpt lat="41.021752137691024" lon="16.082943728222087"><ele>373.66666666666663</ele><time>2026-04-06T07:48:39Z</time></trkpt><trkpt lat="41.02195378978381" lon="16.08289800067463"><ele>374.3333333333333</ele><time>2026-04-06T07:48:40Z</time></trkpt><trkpt lat="41.022152212781464" lon="16.0828495228449"><ele>375.0</ele><time>2026-04-06T07:48:41Z</time></trkpt><trkpt lat="41.02235365593126" lon="16.0828045683179"><ele>375.3333333333333</ele><time>2026-04-06T07:48:42Z</time></trkpt><trkpt lat="41.02255471887468" lon="16.08276307260148"><ele>375.66666666666663</ele><time>2026-04-06T07:48:43Z</time></trkpt><trkpt lat="41.02275445966028" lon="16.08272290349962"><ele>376.0</ele><time>2026-04-06T07:48:44Z</time></trkpt><trkpt lat="41.02294926735749" lon="16.08267684032551"><ele>376.0</ele><time>2026-04-06T07:48:45Z</time></trkpt><trkpt lat="41.02314183065142" lon="16.082627577137625"><ele>376.0</ele><time>2026-04-06T07:48:46Z</time></trkpt><trkpt lat="41.023333918536245" lon="16.082576513883996"><ele>376.0</ele><time>2026-04-06T07:48:47Z</time></trkpt><trkpt lat="41.023525150686616" lon="16.082532340256172"><ele>376.66666666666663</ele><time>2026-04-06T07:48:48Z</time></trkpt><trkpt lat="41.023708429844916" lon="16.082493063599415"><ele>377.3333333333333</ele><time>2026-04-06T07:48:49Z</time></trkpt><trkpt lat="41.023898516709615" lon="16.08245478325036"><ele>378.0</ele><time>2026-04-06T07:48:50Z</time></trkpt><trkpt lat="41.02408692083065" lon="16.082415587956987"><ele>379.6666666666667</ele><time>2026-04-06T07:48:51Z</time></trkpt><trkpt lat="41.02427073616774" lon="16.08237219702543"><ele>381.33333333333337</ele><time>2026-04-06T07:48:52Z</time></trkpt><trkpt lat="41.02446134302507" lon="16.082331396086268"><ele>383.0</ele><time>2026-04-06T07:48:53Z</time></trkpt><trkpt lat="41.02465211219052" lon="16.082284068413703"><ele>383.0</ele><time>2026-04-06T07:48:54Z</time></trkpt><trkpt lat="41.024839985285226" lon="16.08224201384466"><ele>383.0</ele><time>2026-04-06T07:48:55Z</time></trkpt><trkpt lat="41.02502813873475" lon="16.082206522121346"><ele>383.0</ele><time>2026-04-06T07:48:56Z</time></trkpt><trkpt lat="41.025213124911595" lon="16.082174942222103"><ele>385.33333333333337</ele><time>2026-04-06T07:48:57Z</time></trkpt><trkpt lat="41.02540713103026" lon="16.082135058558777"><ele>387.6666666666667</ele><time>2026-04-06T07:48:58Z</time></trkpt><trkpt lat="41.02558937642515" lon="16.082073044243046"><ele>390.0</ele><time>2026-04-06T07:48:59Z</time></trkpt><trkpt lat="41.02576395476301" lon="16.0820333205026"><ele>390.0</ele><time>2026-04-06T07:49:00Z</time></trkpt><trkpt lat="41.025949223571295" lon="16.081998984350037"><ele>390.0</ele><time>2026-04-06T07:49:01Z</time></trkpt><trkpt lat="41.026126120124246" lon="16.081960673788902"><ele>390.0</ele><time>2026-04-06T07:49:02Z</time></trkpt><trkpt lat="41.02629984033892" lon="16.081919389576864"><ele>390.0</ele><time>2026-04-06T07:49:03Z</time></trkpt><trkpt lat="41.02648000568369" lon="16.081875833426885"><ele>390.0</ele><time>2026-04-06T07:49:04Z</time></trkpt><trkpt lat="41.026665852689796" lon="16.08183351636017"><ele>390.0</ele><time>2026-04-06T07:49:05Z</time></trkpt><trkpt lat="41.02685840802436" lon="16.081789818081813"><ele>389.33333333333337</ele><time>2026-04-06T07:49:06Z</time></trkpt><trkpt lat="41.02705462934356" lon="16.08174773535873"><ele>388.6666666666667</ele><time>2026-04-06T07:49:07Z</time></trkpt><trkpt lat="41.02723951774965" lon="16.081710313571968"><ele>388.0</ele><time>2026-04-06T07:49:08Z</time></trkpt><trkpt lat="41.027417675076855" lon="16.081673150668713"><ele>388.33333333333337</ele><time>2026-04-06T07:49:09Z</time></trkpt><trkpt lat="41.02760016456529" lon="16.08163351365886"><ele>388.66666666666663</ele><time>2026-04-06T07:49:10Z</time></trkpt><trkpt lat="41.02778037211675" lon="16.081601262323225"><ele>389.0</ele><time>2026-04-06T07:49:11Z</time></trkpt><trkpt lat="41.0279617342398" lon="16.081566405125038"><ele>389.0</ele><time>2026-04-06T07:49:12Z</time></trkpt><trkpt lat="41.028148760134755" lon="16.08152593476173"><ele>389.0</ele><time>2026-04-06T07:49:13Z</time></trkpt><trkpt lat="41.0283326195137" lon="16.08148317170469"><ele>389.0</ele><time>2026-04-06T07:49:14Z</time></trkpt><trkpt lat="41.02849629244844" lon="16.081446860527866"><ele>389.3333333333333</ele><time>2026-04-06T07:49:15Z</time></trkpt><trkpt lat="41.02865221081269" lon="16.081415904687912"><ele>389.66666666666663</ele><time>2026-04-06T07:49:16Z</time></trkpt><trkpt lat="41.02880249919738" lon="16.081388638811433"><ele>390.0</ele><time>2026-04-06T07:49:17Z</time></trkpt><trkpt lat="41.02895806519283" lon="16.081353706946178"><ele>390.0</ele><time>2026-04-06T07:49:18Z</time></trkpt><trkpt lat="41.02909785453827" lon="16.081325514947345"><ele>390.0</ele><time>2026-04-06T07:49:19Z</time></trkpt><trkpt lat="41.02924406167965" lon="16.081284650842512"><ele>390.0</ele><time>2026-04-06T07:49:20Z</time></trkpt><trkpt lat="41.02940275548254" lon="16.081249721249048"><ele>389.66666666666663</ele><time>2026-04-06T07:49:21Z</time></trkpt><trkpt lat="41.02956113779505" lon="16.08121722517865"><ele>389.3333333333333</ele><time>2026-04-06T07:49:22Z</time></trkpt><trkpt lat="41.029725071483625" lon="16.08118288724336"><ele>389.0</ele><time>2026-04-06T07:49:23Z</time></trkpt><trkpt lat="41.02989220816189" lon="16.081147247969948"><ele>389.66666666666663</ele><time>2026-04-06T07:49:24Z</time></trkpt><trkpt lat="41.030063130534245" lon="16.08111240311436"><ele>390.33333333333337</ele><time>2026-04-06T07:49:25Z</time></trkpt><trkpt lat="41.030241575280606" lon="16.081080623170998"><ele>391.0</ele><time>2026-04-06T07:49:26Z</time></trkpt><trkpt lat="41.03040999044684" lon="16.081041636107386"><ele>391.0</ele><time>2026-04-06T07:49:27Z</time></trkpt><trkpt lat="41.03057588740752" lon="16.080999603929797"><ele>391.0</ele><time>2026-04-06T07:49:28Z</time></trkpt><trkpt lat="41.03075137153534" lon="16.080961143758078"><ele>391.0</ele><time>2026-04-06T07:49:29Z</time></trkpt><trkpt lat="41.03092120140492" lon="16.080918258936457"><ele>391.0</ele><time>2026-04-06T07:49:30Z</time></trkpt><trkpt lat="41.03108029287214" lon="16.08087881416481"><ele>391.0</ele><time>2026-04-06T07:49:31Z</time></trkpt><trkpt lat="41.031256426490195" lon="16.080857763209767"><ele>391.0</ele><time>2026-04-06T07:49:32Z</time></trkpt><trkpt lat="41.031410335786695" lon="16.08082656706523"><ele>391.0</ele><time>2026-04-06T07:49:33Z</time></trkpt><trkpt lat="41.03155172304994" lon="16.080792425591248"><ele>391.0</ele><time>2026-04-06T07:49:34Z</time></trkpt><trkpt lat="41.031682421140346" lon="16.08075507208475"><ele>391.0</ele><time>2026-04-06T07:49:35Z</time></trkpt><trkpt lat="41.0318056938286" lon="16.080718077179764"><ele>391.0</ele><time>2026-04-06T07:49:36Z</time></trkpt><trkpt lat="41.031918085554175" lon="16.080691178846088"><ele>390.6</ele><time>2026-04-06T07:49:37Z</time></trkpt><trkpt lat="41.03202856986917" lon="16.080673404494245"><ele>390.20000000000005</ele><time>2026-04-06T07:49:38Z</time></trkpt><trkpt lat="41.032129141924436" lon="16.08066711501646"><ele>389.79999999999995</ele><time>2026-04-06T07:49:39Z</time></trkpt><trkpt lat="41.03222584985443" lon="16.080653762219672"><ele>389.4</ele><time>2026-04-06T07:49:40Z</time></trkpt><trkpt lat="41.03230772755105" lon="16.08063919352096"><ele>389.0</ele><time>2026-04-06T07:49:41Z</time></trkpt><trkpt lat="41.03237071708024" lon="16.080625509639958"><ele>389.0</ele><time>2026-04-06T07:49:42Z</time></trkpt><trkpt lat="41.03246767467565" lon="16.08059262878973"><ele>389.0</ele><time>2026-04-06T07:49:58Z</time></trkpt><trkpt lat="41.03254773441085" lon="16.08057768686997"><ele>389.0</ele><time>2026-04-06T07:49:59Z</time></trkpt><trkpt lat="41.032652036062444" lon="16.080560798321883"><ele>389.0</ele><time>2026-04-06T07:50:00Z</time></trkpt><trkpt lat="41.0327595738556" lon="16.08053621247978"><ele>389.0</ele><time>2026-04-06T07:50:01Z</time></trkpt><trkpt lat="41.032875156084046" lon="16.080509179366235"><ele>389.0</ele><time>2026-04-06T07:50:02Z</time></trkpt><trkpt lat="41.03300304007401" lon="16.080479072421916"><ele>389.0</ele><time>2026-04-06T07:50:03Z</time></trkpt><trkpt lat="41.03314189275493" lon="16.08044785758199"><ele>389.0</ele><time>2026-04-06T07:50:04Z</time></trkpt><trkpt lat="41.03328823964025" lon="16.080418110985466"><ele>389.0</ele><time>2026-04-06T07:50:05Z</time></trkpt><trkpt lat="41.0334455703714" lon="16.080386782396037"><ele>389.3333333333333</ele><time>2026-04-06T07:50:06Z</time></trkpt><trkpt lat="41.033612446670894" lon="16.08034880646465"><ele>389.66666666666663</ele><time>2026-04-06T07:50:07Z</time></trkpt><trkpt lat="41.033773917192015" lon="16.08030869065382"><ele>390.0</ele><time>2026-04-06T07:50:08Z</time></trkpt><trkpt lat="41.03394557025118" lon="16.08026895475762"><ele>390.0</ele><time>2026-04-06T07:50:09Z</time></trkpt><trkpt lat="41.034119997152004" lon="16.08023073401895"><ele>390.0</ele><time>2026-04-06T07:50:10Z</time></trkpt><trkpt lat="41.0342991486611" lon="16.08019247365026"><ele>390.0</ele><time>2026-04-06T07:50:11Z</time></trkpt><trkpt lat="41.034477968403635" lon="16.080172297474753"><ele>390.66666666666663</ele><time>2026-04-06T07:50:12Z</time></trkpt><trkpt lat="41.0346614657195" lon="16.080132927359543"><ele>391.3333333333333</ele><time>2026-04-06T07:50:13Z</time></trkpt><trkpt lat="41.03484839165861" lon="16.08007646158665"><ele>392.0</ele><time>2026-04-06T07:50:14Z</time></trkpt><trkpt lat="41.0350377875644" lon="16.08003986856985"><ele>391.66666666666663</ele><time>2026-04-06T07:50:15Z</time></trkpt><trkpt lat="41.035231862836135" lon="16.079997183734868"><ele>391.33333333333337</ele><time>2026-04-06T07:50:16Z</time></trkpt><trkpt lat="41.035429800210046" lon="16.079954629024915"><ele>391.0</ele><time>2026-04-06T07:50:17Z</time></trkpt><trkpt lat="41.035630589418986" lon="16.079910747415706"><ele>389.6666666666667</ele><time>2026-04-06T07:50:18Z</time></trkpt><trkpt lat="41.035831274142694" lon="16.079863457239245"><ele>388.33333333333337</ele><time>2026-04-06T07:50:19Z</time></trkpt><trkpt lat="41.03603256462615" lon="16.07981842898118"><ele>387.0</ele><time>2026-04-06T07:50:20Z</time></trkpt><trkpt lat="41.03623528387827" lon="16.079778066291322"><ele>387.0</ele><time>2026-04-06T07:50:21Z</time></trkpt><trkpt lat="41.03643349689984" lon="16.079738041066356"><ele>387.0</ele><time>2026-04-06T07:50:22Z</time></trkpt><trkpt lat="41.036631382634845" lon="16.079694617397653"><ele>387.0</ele><time>2026-04-06T07:50:23Z</time></trkpt><trkpt lat="41.03683043013511" lon="16.079648965413227"><ele>388.0</ele><time>2026-04-06T07:50:24Z</time></trkpt><trkpt lat="41.03702839600796" lon="16.079606550947396"><ele>389.0</ele><time>2026-04-06T07:50:25Z</time></trkpt><trkpt lat="41.037227202840235" lon="16.07956881199224"><ele>390.0</ele><time>2026-04-06T07:50:26Z</time></trkpt><trkpt lat="41.03742756212481" lon="16.079527660867367"><ele>390.0</ele><time>2026-04-06T07:50:27Z</time></trkpt><trkpt lat="41.03762924417389" lon="16.079478857243014"><ele>390.0</ele><time>2026-04-06T07:50:28Z</time></trkpt><trkpt lat="41.03782568178823" lon="16.07944102221378"><ele>390.0</ele><time>2026-04-06T07:50:29Z</time></trkpt><trkpt lat="41.03803109111449" lon="16.079400134287535"><ele>390.0</ele><time>2026-04-06T07:50:30Z</time></trkpt><trkpt lat="41.03823502172667" lon="16.079357470920318"><ele>390.0</ele><time>2026-04-06T07:50:31Z</time></trkpt><trkpt lat="41.038438510343525" lon="16.079314281324717"><ele>390.0</ele><time>2026-04-06T07:50:32Z</time></trkpt><trkpt lat="41.038646775027324" lon="16.079267494764434"><ele>389.66666666666663</ele><time>2026-04-06T07:50:33Z</time></trkpt><trkpt lat="41.03885653883219" lon="16.079220143808183"><ele>389.3333333333333</ele><time>2026-04-06T07:50:34Z</time></trkpt><trkpt lat="41.039058186405" lon="16.07917844096623"><ele>389.0</ele><time>2026-04-06T07:50:35Z</time></trkpt><trkpt lat="41.03927811092962" lon="16.079133354410793"><ele>387.3333333333333</ele><time>2026-04-06T07:50:36Z</time></trkpt><trkpt lat="41.03947960128753" lon="16.079096165057248"><ele>385.66666666666663</ele><time>2026-04-06T07:50:37Z</time></trkpt><trkpt lat="41.03968959072346" lon="16.079048961650628"><ele>384.0</ele><time>2026-04-06T07:50:38Z</time></trkpt><trkpt lat="41.03990313126643" lon="16.07899796642521"><ele>384.0</ele><time>2026-04-06T07:50:39Z</time></trkpt><trkpt lat="41.040110439420964" lon="16.078950206563285"><ele>384.0</ele><time>2026-04-06T07:50:40Z</time></trkpt><trkpt lat="41.04031767583191" lon="16.07890602703869"><ele>384.0</ele><time>2026-04-06T07:50:41Z</time></trkpt><trkpt lat="41.04053002701742" lon="16.078858451522798"><ele>384.0</ele><time>2026-04-06T07:50:42Z</time></trkpt><trkpt lat="41.04073634827999" lon="16.078813412113018"><ele>384.0</ele><time>2026-04-06T07:50:43Z</time></trkpt><trkpt lat="41.04094200316361" lon="16.07877085737094"><ele>384.0</ele><time>2026-04-06T07:50:44Z</time></trkpt><trkpt lat="41.04114838821025" lon="16.078732673580532"><ele>383.0</ele><time>2026-04-06T07:50:45Z</time></trkpt><trkpt lat="41.04135221609697" lon="16.078689194836986"><ele>382.0</ele><time>2026-04-06T07:50:46Z</time></trkpt><trkpt lat="41.04155536711021" lon="16.078642089448284"><ele>381.0</ele><time>2026-04-06T07:50:47Z</time></trkpt><trkpt lat="41.041758251413725" lon="16.078598500915476"><ele>381.0</ele><time>2026-04-06T07:50:48Z</time></trkpt><trkpt lat="41.041965824406695" lon="16.07855205598833"><ele>381.0</ele><time>2026-04-06T07:50:49Z</time></trkpt><trkpt lat="41.04216443233951" lon="16.078504729881505"><ele>381.0</ele><time>2026-04-06T07:50:50Z</time></trkpt><trkpt lat="41.042370373546724" lon="16.078477823353793"><ele>381.3333333333333</ele><time>2026-04-06T07:50:51Z</time></trkpt><trkpt lat="41.04257463248213" lon="16.078433923502942"><ele>381.66666666666663</ele><time>2026-04-06T07:50:52Z</time></trkpt><trkpt lat="41.042775578912135" lon="16.078390735582815"><ele>382.0</ele><time>2026-04-06T07:50:53Z</time></trkpt><trkpt lat="41.04297780843223" lon="16.078330007484066"><ele>382.0</ele><time>2026-04-06T07:50:54Z</time></trkpt><trkpt lat="41.04317780920357" lon="16.078292642128897"><ele>382.0</ele><time>2026-04-06T07:50:55Z</time></trkpt><trkpt lat="41.04338324638676" lon="16.078253716529577"><ele>382.0</ele><time>2026-04-06T07:50:56Z</time></trkpt><trkpt lat="41.04357976440821" lon="16.078211782084658"><ele>380.3333333333333</ele><time>2026-04-06T07:50:57Z</time></trkpt><trkpt lat="41.04377973628702" lon="16.078165973831815"><ele>378.6666666666667</ele><time>2026-04-06T07:50:58Z</time></trkpt><trkpt lat="41.043979105095794" lon="16.07811463882636"><ele>377.0</ele><time>2026-04-06T07:50:59Z</time></trkpt><trkpt lat="41.04417896404719" lon="16.0780708071531"><ele>377.0</ele><time>2026-04-06T07:51:00Z</time></trkpt><trkpt lat="41.04437477606631" lon="16.078029846613298"><ele>377.0</ele><time>2026-04-06T07:51:01Z</time></trkpt><trkpt lat="41.04457927546673" lon="16.0779897807267"><ele>377.0</ele><time>2026-04-06T07:51:02Z</time></trkpt><trkpt lat="41.04477570711059" lon="16.07794353904327"><ele>377.33333333333337</ele><time>2026-04-06T07:51:03Z</time></trkpt><trkpt lat="41.044972777830395" lon="16.077895157868994"><ele>377.6666666666667</ele><time>2026-04-06T07:51:04Z</time></trkpt><trkpt lat="41.045167374877295" lon="16.077853740538327"><ele>378.0</ele><time>2026-04-06T07:51:05Z</time></trkpt><trkpt lat="41.04536755229894" lon="16.077813332323437"><ele>378.0</ele><time>2026-04-06T07:51:06Z</time></trkpt><trkpt lat="41.045559373565595" lon="16.077769807852956"><ele>378.0</ele><time>2026-04-06T07:51:07Z</time></trkpt><trkpt lat="41.045751287931665" lon="16.0777277942423"><ele>378.0</ele><time>2026-04-06T07:51:08Z</time></trkpt><trkpt lat="41.04594545960436" lon="16.077688437515203"><ele>378.6666666666667</ele><time>2026-04-06T07:51:09Z</time></trkpt><trkpt lat="41.04613841329937" lon="16.077645475186497"><ele>379.33333333333337</ele><time>2026-04-06T07:51:10Z</time></trkpt><trkpt lat="41.04633556653268" lon="16.077602101891028"><ele>380.0</ele><time>2026-04-06T07:51:11Z</time></trkpt><trkpt lat="41.046529429736616" lon="16.077561350272656"><ele>380.0</ele><time>2026-04-06T07:51:12Z</time></trkpt><trkpt lat="41.04673132942047" lon="16.07752242656399"><ele>380.0</ele><time>2026-04-06T07:51:13Z</time></trkpt><trkpt lat="41.046924488253254" lon="16.077479720603666"><ele>380.0</ele><time>2026-04-06T07:51:14Z</time></trkpt><trkpt lat="41.04712291543275" lon="16.077439034148824"><ele>378.6666666666667</ele><time>2026-04-06T07:51:15Z</time></trkpt><trkpt lat="41.04731696714991" lon="16.07739863129582"><ele>377.3333333333333</ele><time>2026-04-06T07:51:16Z</time></trkpt><trkpt lat="41.04750911916624" lon="16.0773560251718"><ele>376.0</ele><time>2026-04-06T07:51:17Z</time></trkpt><trkpt lat="41.047702087494955" lon="16.07731162990733"><ele>375.66666666666663</ele><time>2026-04-06T07:51:18Z</time></trkpt><trkpt lat="41.04789282123438" lon="16.07727144285305"><ele>375.3333333333333</ele><time>2026-04-06T07:51:19Z</time></trkpt><trkpt lat="41.04808159448895" lon="16.077232212575613"><ele>375.0</ele><time>2026-04-06T07:51:20Z</time></trkpt><trkpt lat="41.048269348310384" lon="16.077190813217257"><ele>376.6666666666667</ele><time>2026-04-06T07:51:21Z</time></trkpt><trkpt lat="41.04845869817853" lon="16.077149606785458"><ele>378.33333333333337</ele><time>2026-04-06T07:51:22Z</time></trkpt><trkpt lat="41.04864793634942" lon="16.077111677426764"><ele>380.0</ele><time>2026-04-06T07:51:23Z</time></trkpt><trkpt lat="41.04883549128274" lon="16.077073025171604"><ele>380.0</ele><time>2026-04-06T07:51:24Z</time></trkpt><trkpt lat="41.04900850192303" lon="16.077032608273836"><ele>380.0</ele><time>2026-04-06T07:51:25Z</time></trkpt><trkpt lat="41.04918222079502" lon="16.076991883966656"><ele>380.0</ele><time>2026-04-06T07:51:26Z</time></trkpt><trkpt lat="41.04935295613872" lon="16.076952944341706"><ele>380.75</ele><time>2026-04-06T07:51:27Z</time></trkpt><trkpt lat="41.04950681707515" lon="16.076921062680956"><ele>381.5</ele><time>2026-04-06T07:51:28Z</time></trkpt><trkpt lat="41.049652523873576" lon="16.0768807405069"><ele>382.25</ele><time>2026-04-06T07:51:29Z</time></trkpt><trkpt lat="41.04979045121691" lon="16.076838531275452"><ele>383.0</ele><time>2026-04-06T07:51:30Z</time></trkpt><trkpt lat="41.049938012288855" lon="16.076802504040273"><ele>383.33333333333337</ele><time>2026-04-06T07:51:31Z</time></trkpt><trkpt lat="41.05008831735796" lon="16.076778887680025"><ele>383.6666666666667</ele><time>2026-04-06T07:51:32Z</time></trkpt><trkpt lat="41.05024470825812" lon="16.07675472881443"><ele>384.0</ele><time>2026-04-06T07:51:33Z</time></trkpt><trkpt lat="41.05039809642857" lon="16.076734346831927"><ele>384.0</ele><time>2026-04-06T07:51:34Z</time></trkpt><trkpt lat="41.05055527306473" lon="16.076709908360293"><ele>384.0</ele><time>2026-04-06T07:51:35Z</time></trkpt><trkpt lat="41.05071177933761" lon="16.07668011836908"><ele>384.0</ele><time>2026-04-06T07:51:36Z</time></trkpt><trkpt lat="41.0508694281418" lon="16.076642101427666"><ele>383.0</ele><time>2026-04-06T07:51:37Z</time></trkpt><trkpt lat="41.051019034851656" lon="16.076602616151998"><ele>382.0</ele><time>2026-04-06T07:51:38Z</time></trkpt><trkpt lat="41.05118265811731" lon="16.07656592261344"><ele>381.0</ele><time>2026-04-06T07:51:39Z</time></trkpt><trkpt lat="41.05133918996354" lon="16.07653406523087"><ele>381.0</ele><time>2026-04-06T07:51:40Z</time></trkpt><trkpt lat="41.051499039858946" lon="16.07650137826175"><ele>381.0</ele><time>2026-04-06T07:51:41Z</time></trkpt><trkpt lat="41.05166259342964" lon="16.076463967203864"><ele>381.0</ele><time>2026-04-06T07:51:42Z</time></trkpt><trkpt lat="41.05182725219885" lon="16.076427415844925"><ele>381.6666666666667</ele><time>2026-04-06T07:51:43Z</time></trkpt><trkpt lat="41.052000549702925" lon="16.076391173511904"><ele>382.33333333333337</ele><time>2026-04-06T07:51:44Z</time></trkpt><trkpt lat="41.052173115571364" lon="16.076356455838063"><ele>383.0</ele><time>2026-04-06T07:51:45Z</time></trkpt><trkpt lat="41.05235016202545" lon="16.076316896057893"><ele>383.0</ele><time>2026-04-06T07:51:46Z</time></trkpt><trkpt lat="41.052520078470394" lon="16.07628776529453"><ele>383.0</ele><time>2026-04-06T07:51:47Z</time></trkpt><trkpt lat="41.05269851411545" lon="16.076243264512616"><ele>383.0</ele><time>2026-04-06T07:51:48Z</time></trkpt><trkpt lat="41.05287050838878" lon="16.076205251372762"><ele>383.0</ele><time>2026-04-06T07:51:49Z</time></trkpt><trkpt lat="41.053037118126674" lon="16.07616674946212"><ele>383.0</ele><time>2026-04-06T07:51:50Z</time></trkpt><trkpt lat="41.05321454845809" lon="16.07612376647533"><ele>383.0</ele><time>2026-04-06T07:51:51Z</time></trkpt><trkpt lat="41.05338344351605" lon="16.076096506747866"><ele>383.33333333333337</ele><time>2026-04-06T07:51:52Z</time></trkpt><trkpt lat="41.053561451516245" lon="16.076057474047083"><ele>383.6666666666667</ele><time>2026-04-06T07:51:53Z</time></trkpt><trkpt lat="41.053735730982254" lon="16.076015282033147"><ele>384.0</ele><time>2026-04-06T07:51:54Z</time></trkpt><trkpt lat="41.05392077800513" lon="16.075970500801645"><ele>384.0</ele><time>2026-04-06T07:51:55Z</time></trkpt><trkpt lat="41.05410617402061" lon="16.07593317385133"><ele>384.0</ele><time>2026-04-06T07:51:56Z</time></trkpt><trkpt lat="41.05429275959139" lon="16.07589583661249"><ele>384.0</ele><time>2026-04-06T07:51:57Z</time></trkpt><trkpt lat="41.05447844959884" lon="16.075853478738445"><ele>384.0</ele><time>2026-04-06T07:51:58Z</time></trkpt><trkpt lat="41.05466839961382" lon="16.07581123164246"><ele>384.0</ele><time>2026-04-06T07:51:59Z</time></trkpt><trkpt lat="41.054860421303076" lon="16.07576680342133"><ele>384.0</ele><time>2026-04-06T07:52:00Z</time></trkpt><trkpt lat="41.055048156316836" lon="16.075729799104803"><ele>382.3333333333333</ele><time>2026-04-06T07:52:01Z</time></trkpt><trkpt lat="41.05524926295878" lon="16.075682258218386"><ele>380.66666666666663</ele><time>2026-04-06T07:52:02Z</time></trkpt><trkpt lat="41.05544561392206" lon="16.07565192517711"><ele>379.0</ele><time>2026-04-06T07:52:03Z</time></trkpt><trkpt lat="41.05563534025868" lon="16.075619562248626"><ele>378.66666666666663</ele><time>2026-04-06T07:52:04Z</time></trkpt><trkpt lat="41.0558303631774" lon="16.075574480765127"><ele>378.3333333333333</ele><time>2026-04-06T07:52:05Z</time></trkpt><trkpt lat="41.05601603537144" lon="16.075532255747145"><ele>378.0</ele><time>2026-04-06T07:52:06Z</time></trkpt><trkpt lat="41.056200615165565" lon="16.075490428762162"><ele>378.0</ele><time>2026-04-06T07:52:07Z</time></trkpt><trkpt lat="41.05638532373983" lon="16.075446835677617"><ele>378.0</ele><time>2026-04-06T07:52:08Z</time></trkpt><trkpt lat="41.05657170690144" lon="16.075401984828854"><ele>378.0</ele><time>2026-04-06T07:52:09Z</time></trkpt><trkpt lat="41.05675124614121" lon="16.075356631972294"><ele>377.6666666666667</ele><time>2026-04-06T07:52:10Z</time></trkpt><trkpt lat="41.056933688944696" lon="16.075318934345994"><ele>377.33333333333337</ele><time>2026-04-06T07:52:11Z</time></trkpt><trkpt lat="41.05710676724501" lon="16.07529072436591"><ele>377.0</ele><time>2026-04-06T07:52:12Z</time></trkpt><trkpt lat="41.0572892844618" lon="16.07526235626818"><ele>377.33333333333337</ele><time>2026-04-06T07:52:13Z</time></trkpt><trkpt lat="41.057464469639676" lon="16.07522327941389"><ele>377.6666666666667</ele><time>2026-04-06T07:52:14Z</time></trkpt><trkpt lat="41.05764504866364" lon="16.075184910085145"><ele>378.0</ele><time>2026-04-06T07:52:15Z</time></trkpt><trkpt lat="41.057825236254" lon="16.07514535121401"><ele>378.0</ele><time>2026-04-06T07:52:16Z</time></trkpt><trkpt lat="41.058005198785345" lon="16.07510728123428"><ele>378.0</ele><time>2026-04-06T07:52:17Z</time></trkpt><trkpt lat="41.058184967717494" lon="16.075063629625674"><ele>378.0</ele><time>2026-04-06T07:52:18Z</time></trkpt><trkpt lat="41.05835978730909" lon="16.0750475067711"><ele>378.0</ele><time>2026-04-06T07:52:19Z</time></trkpt><trkpt lat="41.05853155635388" lon="16.074990355882296"><ele>378.0</ele><time>2026-04-06T07:52:20Z</time></trkpt><trkpt lat="41.058706213475574" lon="16.07495540536677"><ele>378.0</ele><time>2026-04-06T07:52:21Z</time></trkpt><trkpt lat="41.05887789994687" lon="16.07491484606395"><ele>378.0</ele><time>2026-04-06T07:52:22Z</time></trkpt><trkpt lat="41.059053575625754" lon="16.07489764976602"><ele>378.0</ele><time>2026-04-06T07:52:23Z</time></trkpt><trkpt lat="41.05923119423235" lon="16.074859195017865"><ele>378.0</ele><time>2026-04-06T07:52:24Z</time></trkpt><trkpt lat="41.05939804423496" lon="16.074823116665197"><ele>379.3333333333333</ele><time>2026-04-06T07:52:25Z</time></trkpt><trkpt lat="41.05957382862802" lon="16.07476674788617"><ele>380.66666666666663</ele><time>2026-04-06T07:52:26Z</time></trkpt><trkpt lat="41.059753518120736" lon="16.074727005987"><ele>382.0</ele><time>2026-04-06T07:52:27Z</time></trkpt><trkpt lat="41.059934156307236" lon="16.07470860680826"><ele>382.66666666666663</ele><time>2026-04-06T07:52:28Z</time></trkpt><trkpt lat="41.06012231927996" lon="16.074668416491708"><ele>383.3333333333333</ele><time>2026-04-06T07:52:29Z</time></trkpt><trkpt lat="41.06031028647336" lon="16.074607782203095"><ele>384.0</ele><time>2026-04-06T07:52:30Z</time></trkpt><trkpt lat="41.06049971282556" lon="16.074565915936635"><ele>384.0</ele><time>2026-04-06T07:52:31Z</time></trkpt><trkpt lat="41.06069250731477" lon="16.074525628664336"><ele>384.0</ele><time>2026-04-06T07:52:32Z</time></trkpt><trkpt lat="41.060881695357985" lon="16.074484497906475"><ele>384.0</ele><time>2026-04-06T07:52:33Z</time></trkpt><trkpt lat="41.06108492488513" lon="16.074443910589515"><ele>383.0</ele><time>2026-04-06T07:52:34Z</time></trkpt><trkpt lat="41.06127458044997" lon="16.074401296473116"><ele>382.0</ele><time>2026-04-06T07:52:35Z</time></trkpt><trkpt lat="41.06146577983855" lon="16.07438146245899"><ele>381.0</ele><time>2026-04-06T07:52:36Z</time></trkpt><trkpt lat="41.061662236366246" lon="16.07432308951259"><ele>381.0</ele><time>2026-04-06T07:52:37Z</time></trkpt><trkpt lat="41.0618544296526" lon="16.074284235143242"><ele>381.0</ele><time>2026-04-06T07:52:38Z</time></trkpt><trkpt lat="41.06204354202292" lon="16.07423765293598"><ele>381.0</ele><time>2026-04-06T07:52:39Z</time></trkpt><trkpt lat="41.06224109757379" lon="16.074212095676703"><ele>381.0</ele><time>2026-04-06T07:52:40Z</time></trkpt><trkpt lat="41.06242962008629" lon="16.074170556773897"><ele>381.0</ele><time>2026-04-06T07:52:41Z</time></trkpt><trkpt lat="41.062624926922155" lon="16.074127524670974"><ele>381.0</ele><time>2026-04-06T07:52:42Z</time></trkpt><trkpt lat="41.06281596852552" lon="16.074063785085954"><ele>379.0</ele><time>2026-04-06T07:52:43Z</time></trkpt><trkpt lat="41.06300756424271" lon="16.074044969460317"><ele>377.0</ele><time>2026-04-06T07:52:44Z</time></trkpt><trkpt lat="41.06319940804123" lon="16.073982026643243"><ele>375.0</ele><time>2026-04-06T07:52:45Z</time></trkpt><trkpt lat="41.06339167030836" lon="16.07396365898744"><ele>374.6666666666667</ele><time>2026-04-06T07:52:46Z</time></trkpt><trkpt lat="41.06358256464458" lon="16.0739234547271"><ele>374.33333333333337</ele><time>2026-04-06T07:52:47Z</time></trkpt><trkpt lat="41.06377309075744" lon="16.073883327997297"><ele>374.0</ele><time>2026-04-06T07:52:48Z</time></trkpt><trkpt lat="41.06394775629023" lon="16.07384654168315"><ele>374.6666666666667</ele><time>2026-04-06T07:52:49Z</time></trkpt><trkpt lat="41.06414863452126" lon="16.073804234692357"><ele>375.3333333333333</ele><time>2026-04-06T07:52:50Z</time></trkpt><trkpt lat="41.06433673854521" lon="16.073742748698912"><ele>376.0</ele><time>2026-04-06T07:52:51Z</time></trkpt><trkpt lat="41.06452900700257" lon="16.073722712899006"><ele>376.0</ele><time>2026-04-06T07:52:52Z</time></trkpt><trkpt lat="41.06472042795946" lon="16.07366059652131"><ele>376.0</ele><time>2026-04-06T07:52:53Z</time></trkpt><trkpt lat="41.06491161955798" lon="16.073619046048215"><ele>376.0</ele><time>2026-04-06T07:52:54Z</time></trkpt><trkpt lat="41.065103606426376" lon="16.073577160830478"><ele>375.66666666666663</ele><time>2026-04-06T07:52:55Z</time></trkpt><trkpt lat="41.0652961884908" lon="16.073536390248268"><ele>375.3333333333333</ele><time>2026-04-06T07:52:56Z</time></trkpt><trkpt lat="41.0654923186953" lon="16.07349659216144"><ele>375.0</ele><time>2026-04-06T07:52:57Z</time></trkpt><trkpt lat="41.065684689357944" lon="16.073473108674943"><ele>374.3333333333333</ele><time>2026-04-06T07:52:58Z</time></trkpt><trkpt lat="41.06588152411619" lon="16.07343018511839"><ele>373.66666666666663</ele><time>2026-04-06T07:52:59Z</time></trkpt><trkpt lat="41.066073356921265" lon="16.073388379987787"><ele>373.0</ele><time>2026-04-06T07:53:00Z</time></trkpt><trkpt lat="41.06626957534028" lon="16.073329266929886"><ele>373.0</ele><time>2026-04-06T07:53:01Z</time></trkpt><trkpt lat="41.06646302849494" lon="16.073288199059707"><ele>373.0</ele><time>2026-04-06T07:53:02Z</time></trkpt><trkpt lat="41.06666076081452" lon="16.073244460757238"><ele>373.0</ele><time>2026-04-06T07:53:03Z</time></trkpt><trkpt lat="41.06685789104855" lon="16.07319690546954"><ele>370.3333333333333</ele><time>2026-04-06T07:53:04Z</time></trkpt><trkpt lat="41.067059333658754" lon="16.073153041888652"><ele>367.6666666666667</ele><time>2026-04-06T07:53:05Z</time></trkpt><trkpt lat="41.06725918510189" lon="16.07313085376229"><ele>365.0</ele><time>2026-04-06T07:53:06Z</time></trkpt><trkpt lat="41.067452721904445" lon="16.07308789153244"><ele>364.6666666666667</ele><time>2026-04-06T07:53:07Z</time></trkpt><trkpt lat="41.06764795137428" lon="16.073024251547555"><ele>364.3333333333333</ele><time>2026-04-06T07:53:08Z</time></trkpt><trkpt lat="41.06784627563376" lon="16.072984901524016"><ele>364.0</ele><time>2026-04-06T07:53:09Z</time></trkpt><trkpt lat="41.06803764101165" lon="16.07295955585273"><ele>364.0</ele><time>2026-04-06T07:53:10Z</time></trkpt><trkpt lat="41.06822929423486" lon="16.072917147092"><ele>364.0</ele><time>2026-04-06T07:53:11Z</time></trkpt><trkpt lat="41.06841422054036" lon="16.072876327627263"><ele>364.0</ele><time>2026-04-06T07:53:12Z</time></trkpt><trkpt lat="41.068611676553495" lon="16.072832963876223"><ele>364.0</ele><time>2026-04-06T07:53:13Z</time></trkpt><trkpt lat="41.06879945787219" lon="16.07277612149558"><ele>364.0</ele><time>2026-04-06T07:53:14Z</time></trkpt><trkpt lat="41.068970340671164" lon="16.072741096051097"><ele>364.0</ele><time>2026-04-06T07:53:15Z</time></trkpt><trkpt lat="41.06914094249173" lon="16.07271016761275"><ele>364.0</ele><time>2026-04-06T07:53:16Z</time></trkpt><trkpt lat="41.06931123864772" lon="16.072714209690023"><ele>364.0</ele><time>2026-04-06T07:53:17Z</time></trkpt><trkpt lat="41.06948630031026" lon="16.0727247643384"><ele>364.0</ele><time>2026-04-06T07:53:18Z</time></trkpt><trkpt lat="41.069654744848336" lon="16.07275106138947"><ele>364.0</ele><time>2026-04-06T07:53:19Z</time></trkpt><trkpt lat="41.069816110349734" lon="16.072809892791504"><ele>364.0</ele><time>2026-04-06T07:53:20Z</time></trkpt><trkpt lat="41.06996924619153" lon="16.07289978339668"><ele>364.0</ele><time>2026-04-06T07:53:21Z</time></trkpt><trkpt lat="41.070126446503274" lon="16.072998953634126"><ele>364.0</ele><time>2026-04-06T07:53:22Z</time></trkpt><trkpt lat="41.070282894057215" lon="16.073099424770522"><ele>364.0</ele><time>2026-04-06T07:53:23Z</time></trkpt><trkpt lat="41.070443849363805" lon="16.073186108400392"><ele>364.0</ele><time>2026-04-06T07:53:24Z</time></trkpt><trkpt lat="41.070599610333744" lon="16.07328828673275"><ele>365.0</ele><time>2026-04-06T07:53:25Z</time></trkpt><trkpt lat="41.070753062724364" lon="16.073400603755875"><ele>366.0</ele><time>2026-04-06T07:53:26Z</time></trkpt><trkpt lat="41.070918042016146" lon="16.073480593908034"><ele>367.0</ele><time>2026-04-06T07:53:27Z</time></trkpt><trkpt lat="41.07106757828405" lon="16.073587300382826"><ele>367.0</ele><time>2026-04-06T07:53:28Z</time></trkpt><trkpt lat="41.07122565923286" lon="16.073690691320135"><ele>367.0</ele><time>2026-04-06T07:53:29Z</time></trkpt><trkpt lat="41.071382881082776" lon="16.073794342356337"><ele>367.0</ele><time>2026-04-06T07:53:30Z</time></trkpt><trkpt lat="41.07154451732276" lon="16.073899962452863"><ele>367.3333333333333</ele><time>2026-04-06T07:53:31Z</time></trkpt><trkpt lat="41.07170980074246" lon="16.074001791413465"><ele>367.6666666666667</ele><time>2026-04-06T07:53:32Z</time></trkpt><trkpt lat="41.071875274404235" lon="16.074101835483443"><ele>368.0</ele><time>2026-04-06T07:53:33Z</time></trkpt><trkpt lat="41.07204105699784" lon="16.074204910178867"><ele>368.0</ele><time>2026-04-06T07:53:34Z</time></trkpt><trkpt lat="41.07220248196772" lon="16.074311377987367"><ele>368.0</ele><time>2026-04-06T07:53:35Z</time></trkpt><trkpt lat="41.07236614778598" lon="16.074415196378244"><ele>368.0</ele><time>2026-04-06T07:53:36Z</time></trkpt><trkpt lat="41.07252902007342" lon="16.074517633125982"><ele>366.6666666666667</ele><time>2026-04-06T07:53:37Z</time></trkpt><trkpt lat="41.072694008189494" lon="16.074630149462795"><ele>365.3333333333333</ele><time>2026-04-06T07:53:38Z</time></trkpt><trkpt lat="41.072850082536334" lon="16.074732558052418"><ele>364.0</ele><time>2026-04-06T07:53:39Z</time></trkpt><trkpt lat="41.07301346440901" lon="16.074836729913024"><ele>364.66666666666663</ele><time>2026-04-06T07:53:40Z</time></trkpt><trkpt lat="41.07317934094647" lon="16.07494512845135"><ele>365.3333333333333</ele><time>2026-04-06T07:53:41Z</time></trkpt><trkpt lat="41.07333717836269" lon="16.0750531083442"><ele>366.0</ele><time>2026-04-06T07:53:42Z</time></trkpt><trkpt lat="41.073498118905945" lon="16.07516180812682"><ele>366.0</ele><time>2026-04-06T07:53:43Z</time></trkpt><trkpt lat="41.07365735351434" lon="16.07525962783178"><ele>366.0</ele><time>2026-04-06T07:53:44Z</time></trkpt><trkpt lat="41.07382293239941" lon="16.075352973923483"><ele>366.0</ele><time>2026-04-06T07:53:45Z</time></trkpt><trkpt lat="41.07397389174561" lon="16.075440116668148"><ele>365.6666666666667</ele><time>2026-04-06T07:53:46Z</time></trkpt><trkpt lat="41.07414466351592" lon="16.075550435093096"><ele>365.33333333333337</ele><time>2026-04-06T07:53:47Z</time></trkpt><trkpt lat="41.07430262160509" lon="16.075654157324088"><ele>365.0</ele><time>2026-04-06T07:53:48Z</time></trkpt><trkpt lat="41.074471808519355" lon="16.075754609946017"><ele>366.6666666666667</ele><time>2026-04-06T07:53:49Z</time></trkpt><trkpt lat="41.07462396485896" lon="16.075858298697767"><ele>368.3333333333333</ele><time>2026-04-06T07:53:50Z</time></trkpt><trkpt lat="41.07478322227256" lon="16.075961848791565"><ele>370.0</ele><time>2026-04-06T07:53:51Z</time></trkpt><trkpt lat="41.074938757123114" lon="16.07606206031886"><ele>370.0</ele><time>2026-04-06T07:53:52Z</time></trkpt><trkpt lat="41.075098843544126" lon="16.076170221698042"><ele>370.0</ele><time>2026-04-06T07:53:53Z</time></trkpt><trkpt lat="41.07525647579087" lon="16.076275418340252"><ele>370.0</ele><time>2026-04-06T07:53:54Z</time></trkpt><trkpt lat="41.075417536290395" lon="16.076376231814603"><ele>370.0</ele><time>2026-04-06T07:53:55Z</time></trkpt><trkpt lat="41.07558236836151" lon="16.076473906301608"><ele>370.0</ele><time>2026-04-06T07:53:56Z</time></trkpt><trkpt lat="41.07574176639543" lon="16.076570682028546"><ele>370.0</ele><time>2026-04-06T07:53:57Z</time></trkpt><trkpt lat="41.07590316809326" lon="16.076669017791733"><ele>372.0</ele><time>2026-04-06T07:53:58Z</time></trkpt><trkpt lat="41.07605855451106" lon="16.076772348554286"><ele>374.0</ele><time>2026-04-06T07:53:59Z</time></trkpt><trkpt lat="41.07621055807727" lon="16.076875888240572"><ele>376.0</ele><time>2026-04-06T07:54:00Z</time></trkpt><trkpt lat="41.07636371396241" lon="16.07697610450129"><ele>376.0</ele><time>2026-04-06T07:54:01Z</time></trkpt><trkpt lat="41.0765138424484" lon="16.07707095798854"><ele>376.0</ele><time>2026-04-06T07:54:02Z</time></trkpt><trkpt lat="41.07667170712583" lon="16.07717841116752"><ele>376.0</ele><time>2026-04-06T07:54:03Z</time></trkpt><trkpt lat="41.07681797698215" lon="16.07727592170956"><ele>375.3333333333333</ele><time>2026-04-06T07:54:04Z</time></trkpt><trkpt lat="41.07696568035441" lon="16.077376802791438"><ele>374.6666666666667</ele><time>2026-04-06T07:54:05Z</time></trkpt><trkpt lat="41.07711924633868" lon="16.07747360044919"><ele>374.0</ele><time>2026-04-06T07:54:06Z</time></trkpt><trkpt lat="41.077273816206386" lon="16.077583310460845"><ele>374.0</ele><time>2026-04-06T07:54:07Z</time></trkpt><trkpt lat="41.077415264311334" lon="16.077688232048153"><ele>374.0</ele><time>2026-04-06T07:54:08Z</time></trkpt><trkpt lat="41.07755837360845" lon="16.077787621882038"><ele>374.0</ele><time>2026-04-06T07:54:09Z</time></trkpt><trkpt lat="41.07768709145526" lon="16.077874554090595"><ele>374.0</ele><time>2026-04-06T07:54:10Z</time></trkpt><trkpt lat="41.07780508823058" lon="16.077959405338333"><ele>374.0</ele><time>2026-04-06T07:54:11Z</time></trkpt><trkpt lat="41.077916369071474" lon="16.07804098874441"><ele>374.0</ele><time>2026-04-06T07:54:12Z</time></trkpt><trkpt lat="41.078020003687236" lon="16.078112536817383"><ele>374.0</ele><time>2026-04-06T07:54:13Z</time></trkpt><trkpt lat="41.07811871363783" lon="16.078179187415543"><ele>374.0</ele><time>2026-04-06T07:54:14Z</time></trkpt><trkpt lat="41.078211938265" lon="16.078237952248063"><ele>374.0</ele><time>2026-04-06T07:54:15Z</time></trkpt><trkpt lat="41.07829464856475" lon="16.0782872197676"><ele>374.0</ele><time>2026-04-06T07:54:16Z</time></trkpt><trkpt lat="41.07836802383748" lon="16.078340216861502"><ele>374.0</ele><time>2026-04-06T07:54:17Z</time></trkpt><trkpt lat="41.078452719104185" lon="16.078412220821775"><ele>374.0</ele><time>2026-04-06T07:54:19Z</time></trkpt><trkpt lat="41.07855630026773" lon="16.07845519738398"><ele>375.6</ele><time>2026-04-06T07:56:03Z</time></trkpt><trkpt lat="41.078635371900305" lon="16.07852663487151"><ele>377.2</ele><time>2026-04-06T07:56:05Z</time></trkpt><trkpt lat="41.07872819383411" lon="16.078458895453757"><ele>378.8</ele><time>2026-04-06T07:56:06Z</time></trkpt><trkpt lat="41.078806490232736" lon="16.078433243529282"><ele>380.40000000000003</ele><time>2026-04-06T07:56:07Z</time></trkpt><trkpt lat="41.07888549042483" lon="16.07841242914904"><ele>382.0</ele><time>2026-04-06T07:56:08Z</time></trkpt><trkpt lat="41.07897580133055" lon="16.078412250186393"><ele>382.0</ele><time>2026-04-06T07:56:09Z</time></trkpt><trkpt lat="41.07907682258588" lon="16.078437063581045"><ele>382.0</ele><time>2026-04-06T07:56:10Z</time></trkpt><trkpt lat="41.079184265167186" lon="16.078466914982894"><ele>382.0</ele><time>2026-04-06T07:56:11Z</time></trkpt><trkpt lat="41.079288636209874" lon="16.07849466723469"><ele>382.0</ele><time>2026-04-06T07:56:12Z</time></trkpt><trkpt lat="41.079387277280986" lon="16.078521868795704"><ele>382.0</ele><time>2026-04-06T07:56:13Z</time></trkpt><trkpt lat="41.07948695356259" lon="16.07855606544649"><ele>381.20000000000005</ele><time>2026-04-06T07:56:14Z</time></trkpt><trkpt lat="41.07958729594034" lon="16.078581159354204"><ele>380.4</ele><time>2026-04-06T07:56:15Z</time></trkpt><trkpt lat="41.07969411410925" lon="16.078597204509354"><ele>379.6</ele><time>2026-04-06T07:56:16Z</time></trkpt><trkpt lat="41.07980532448015" lon="16.07859773652835"><ele>378.79999999999995</ele><time>2026-04-06T07:56:17Z</time></trkpt><trkpt lat="41.079916949324954" lon="16.078586605907702"><ele>378.0</ele><time>2026-04-06T07:56:18Z</time></trkpt><trkpt lat="41.0800321052888" lon="16.07855241093884"><ele>377.25</ele><time>2026-04-06T07:56:19Z</time></trkpt><trkpt lat="41.08014811824219" lon="16.078499529922265"><ele>376.5</ele><time>2026-04-06T07:56:20Z</time></trkpt><trkpt lat="41.08026694523773" lon="16.078433282117015"><ele>375.75</ele><time>2026-04-06T07:56:21Z</time></trkpt><trkpt lat="41.08038343654329" lon="16.078359482080668"><ele>375.0</ele><time>2026-04-06T07:56:22Z</time></trkpt><trkpt lat="41.08049275549898" lon="16.07827987976824"><ele>373.25</ele><time>2026-04-06T07:56:23Z</time></trkpt><trkpt lat="41.08060723432752" lon="16.078194753564514"><ele>371.5</ele><time>2026-04-06T07:56:24Z</time></trkpt><trkpt lat="41.08071526589461" lon="16.078106470780284"><ele>369.75</ele><time>2026-04-06T07:56:25Z</time></trkpt><trkpt lat="41.080829111265146" lon="16.078013984680346"><ele>368.0</ele><time>2026-04-06T07:56:26Z</time></trkpt><trkpt lat="41.080939332730686" lon="16.077924390037104"><ele>367.0</ele><time>2026-04-06T07:56:27Z</time></trkpt><trkpt lat="41.08105327679727" lon="16.077834625494397"><ele>366.0</ele><time>2026-04-06T07:56:28Z</time></trkpt><trkpt lat="41.08116565631723" lon="16.077742992598196"><ele>365.0</ele><time>2026-04-06T07:56:29Z</time></trkpt><trkpt lat="41.08127832959538" lon="16.077653320163602"><ele>364.0</ele><time>2026-04-06T07:56:30Z</time></trkpt><trkpt lat="41.081388389019764" lon="16.077566715189484"><ele>364.0</ele><time>2026-04-06T07:56:31Z</time></trkpt><trkpt lat="41.08150138687834" lon="16.077482901748365"><ele>364.0</ele><time>2026-04-06T07:56:32Z</time></trkpt><trkpt lat="41.08160891872311" lon="16.07739671948733"><ele>364.0</ele><time>2026-04-06T07:56:33Z</time></trkpt><trkpt lat="41.0817083748094" lon="16.07731952523605"><ele>364.0</ele><time>2026-04-06T07:56:34Z</time></trkpt><trkpt lat="41.081797915536235" lon="16.077251539958556"><ele>362.2</ele><time>2026-04-06T07:56:35Z</time></trkpt><trkpt lat="41.081872846394965" lon="16.077197524807882"><ele>360.4</ele><time>2026-04-06T07:56:36Z</time></trkpt><trkpt lat="41.08194969254481" lon="16.07714988627293"><ele>358.6</ele><time>2026-04-06T07:56:37Z</time></trkpt><trkpt lat="41.08203133985286" lon="16.077088781909975"><ele>356.8</ele><time>2026-04-06T07:56:38Z</time></trkpt><trkpt lat="41.082126762114335" lon="16.07702611260584"><ele>355.0</ele><time>2026-04-06T07:56:39Z</time></trkpt><trkpt lat="41.08224028072345" lon="16.07697391696724"><ele>355.0</ele><time>2026-04-06T07:56:40Z</time></trkpt><trkpt lat="41.08236294033582" lon="16.07693431986873"><ele>355.0</ele><time>2026-04-06T07:56:41Z</time></trkpt><trkpt lat="41.08249072635732" lon="16.076894550342107"><ele>355.0</ele><time>2026-04-06T07:56:42Z</time></trkpt><trkpt lat="41.08262126244938" lon="16.076863644120895"><ele>355.0</ele><time>2026-04-06T07:56:43Z</time></trkpt><trkpt lat="41.08274950963142" lon="16.076838285493846"><ele>355.75</ele><time>2026-04-06T07:56:44Z</time></trkpt><trkpt lat="41.08287850448937" lon="16.076802330910887"><ele>356.5</ele><time>2026-04-06T07:56:45Z</time></trkpt><trkpt lat="41.08301002116954" lon="16.076764085516256"><ele>357.25</ele><time>2026-04-06T07:56:46Z</time></trkpt><trkpt lat="41.083144402520645" lon="16.07673265596884"><ele>358.0</ele><time>2026-04-06T07:56:47Z</time></trkpt><trkpt lat="41.08327820624208" lon="16.07669648562138"><ele>358.75</ele><time>2026-04-06T07:56:48Z</time></trkpt><trkpt lat="41.08341028681948" lon="16.076669809824427"><ele>359.5</ele><time>2026-04-06T07:56:49Z</time></trkpt><trkpt lat="41.08354449182785" lon="16.076645352586834"><ele>360.25</ele><time>2026-04-06T07:56:50Z</time></trkpt><trkpt lat="41.083677335704834" lon="16.07661228785472"><ele>361.0</ele><time>2026-04-06T07:56:51Z</time></trkpt><trkpt lat="41.0838083614948" lon="16.076581975811237"><ele>359.4</ele><time>2026-04-06T07:56:52Z</time></trkpt><trkpt lat="41.083931455899695" lon="16.076550847648193"><ele>357.8</ele><time>2026-04-06T07:56:53Z</time></trkpt><trkpt lat="41.084037720221005" lon="16.076528040844728"><ele>356.2</ele><time>2026-04-06T07:56:54Z</time></trkpt><trkpt lat="41.08412876023235" lon="16.076512430493977"><ele>354.59999999999997</ele><time>2026-04-06T07:56:55Z</time></trkpt><trkpt lat="41.084212365478095" lon="16.076497503319434"><ele>353.0</ele><time>2026-04-06T07:56:56Z</time></trkpt><trkpt lat="41.08429172125595" lon="16.076474491188467"><ele>353.0</ele><time>2026-04-06T07:56:57Z</time></trkpt><trkpt lat="41.08436569883795" lon="16.07643904446731"><ele>353.0</ele><time>2026-04-06T07:56:58Z</time></trkpt><trkpt lat="41.08445530389534" lon="16.076419986303605"><ele>353.0</ele><time>2026-04-06T07:56:59Z</time></trkpt><trkpt lat="41.0845450892668" lon="16.076406680279707"><ele>353.0</ele><time>2026-04-06T07:57:00Z</time></trkpt><trkpt lat="41.084659989549515" lon="16.076398089926215"><ele>353.0</ele><time>2026-04-06T07:57:01Z</time></trkpt><trkpt lat="41.084789630594784" lon="16.07638854272876"><ele>352.5</ele><time>2026-04-06T07:57:02Z</time></trkpt><trkpt lat="41.08493125503896" lon="16.07636978211036"><ele>352.0</ele><time>2026-04-06T07:57:03Z</time></trkpt><trkpt lat="41.08507047745375" lon="16.07634256077642"><ele>351.5</ele><time>2026-04-06T07:57:04Z</time></trkpt><trkpt lat="41.085219617681936" lon="16.07632198047118"><ele>351.0</ele><time>2026-04-06T07:57:05Z</time></trkpt><trkpt lat="41.08537259481822" lon="16.07630306778364"><ele>351.0</ele><time>2026-04-06T07:57:06Z</time></trkpt><trkpt lat="41.085532716522074" lon="16.07628341539584"><ele>351.0</ele><time>2026-04-06T07:57:07Z</time></trkpt><trkpt lat="41.08568221856813" lon="16.0762641504922"><ele>351.0</ele><time>2026-04-06T07:57:08Z</time></trkpt><trkpt lat="41.08582083407703" lon="16.07623936754514"><ele>350.75</ele><time>2026-04-06T07:57:09Z</time></trkpt><trkpt lat="41.085960021489186" lon="16.07621499631424"><ele>350.5</ele><time>2026-04-06T07:57:10Z</time></trkpt><trkpt lat="41.08610033316668" lon="16.07619455051744"><ele>350.25</ele><time>2026-04-06T07:57:11Z</time></trkpt><trkpt lat="41.08623737333199" lon="16.076174855897122"><ele>350.0</ele><time>2026-04-06T07:57:12Z</time></trkpt><trkpt lat="41.08638369571268" lon="16.076154533247927"><ele>350.0</ele><time>2026-04-06T07:57:13Z</time></trkpt><trkpt lat="41.0865238627246" lon="16.07612903038872"><ele>350.0</ele><time>2026-04-06T07:57:14Z</time></trkpt><trkpt lat="41.086678404161184" lon="16.076105543135167"><ele>350.0</ele><time>2026-04-06T07:57:15Z</time></trkpt><trkpt lat="41.08684015574766" lon="16.07608467917289"><ele>349.75</ele><time>2026-04-06T07:57:16Z</time></trkpt><trkpt lat="41.08699096111435" lon="16.076065023367804"><ele>349.5</ele><time>2026-04-06T07:57:17Z</time></trkpt><trkpt lat="41.08713456884812" lon="16.076043280881873"><ele>349.25</ele><time>2026-04-06T07:57:18Z</time></trkpt><trkpt lat="41.08727216303143" lon="16.07602847359842"><ele>349.0</ele><time>2026-04-06T07:57:19Z</time></trkpt><trkpt lat="41.087405107923864" lon="16.076015426331107"><ele>349.0</ele><time>2026-04-06T07:57:20Z</time></trkpt><trkpt lat="41.087543671089385" lon="16.07601459380024"><ele>349.0</ele><time>2026-04-06T07:57:21Z</time></trkpt><trkpt lat="41.08767757295791" lon="16.076016159517064"><ele>349.0</ele><time>2026-04-06T07:57:22Z</time></trkpt><trkpt lat="41.08781131267974" lon="16.076001432162393"><ele>349.0</ele><time>2026-04-06T07:57:23Z</time></trkpt><trkpt lat="41.087950806605974" lon="16.07596835616585"><ele>349.0</ele><time>2026-04-06T07:57:24Z</time></trkpt><trkpt lat="41.08809352817042" lon="16.075934419502342"><ele>349.0</ele><time>2026-04-06T07:57:25Z</time></trkpt><trkpt lat="41.08822142203429" lon="16.07590321940344"><ele>349.0</ele><time>2026-04-06T07:57:26Z</time></trkpt><trkpt lat="41.08833586844831" lon="16.07587537996558"><ele>349.0</ele><time>2026-04-06T07:57:27Z</time></trkpt><trkpt lat="41.08846338845271" lon="16.07585318234952"><ele>348.5</ele><time>2026-04-06T07:57:28Z</time></trkpt><trkpt lat="41.08859999754746" lon="16.07583283772267"><ele>348.0</ele><time>2026-04-06T07:57:29Z</time></trkpt><trkpt lat="41.08875175461277" lon="16.07581667575918"><ele>347.5</ele><time>2026-04-06T07:57:30Z</time></trkpt><trkpt lat="41.08890342148903" lon="16.075793170168367"><ele>347.0</ele><time>2026-04-06T07:57:31Z</time></trkpt><trkpt lat="41.08905132983986" lon="16.075762521931956"><ele>346.0</ele><time>2026-04-06T07:57:32Z</time></trkpt><trkpt lat="41.08920051034733" lon="16.07572867132769"><ele>345.0</ele><time>2026-04-06T07:57:33Z</time></trkpt><trkpt lat="41.089345605824256" lon="16.07568711759998"><ele>344.0</ele><time>2026-04-06T07:57:34Z</time></trkpt><trkpt lat="41.089496495551444" lon="16.07563661814516"><ele>344.0</ele><time>2026-04-06T07:57:35Z</time></trkpt><trkpt lat="41.08964526602086" lon="16.075582919833415"><ele>344.0</ele><time>2026-04-06T07:57:36Z</time></trkpt><trkpt lat="41.08979494768474" lon="16.07552593051278"><ele>344.0</ele><time>2026-04-06T07:57:37Z</time></trkpt><trkpt lat="41.08993732087126" lon="16.075471800701397"><ele>344.5</ele><time>2026-04-06T07:57:38Z</time></trkpt><trkpt lat="41.09008229984453" lon="16.0754221378734"><ele>345.0</ele><time>2026-04-06T07:57:39Z</time></trkpt><trkpt lat="41.09021428629575" lon="16.075378372272656"><ele>345.5</ele><time>2026-04-06T07:57:40Z</time></trkpt><trkpt lat="41.09034690168506" lon="16.075330527378096"><ele>346.0</ele><time>2026-04-06T07:57:41Z</time></trkpt><trkpt lat="41.090479161475436" lon="16.075282373580325"><ele>346.0</ele><time>2026-04-06T07:57:42Z</time></trkpt><trkpt lat="41.09060095391258" lon="16.075243444513053"><ele>346.0</ele><time>2026-04-06T07:57:43Z</time></trkpt><trkpt lat="41.09070439530872" lon="16.075206384387222"><ele>346.0</ele><time>2026-04-06T07:57:44Z</time></trkpt><trkpt lat="41.090792911643724" lon="16.075183237742483"><ele>346.0</ele><time>2026-04-06T07:57:45Z</time></trkpt><trkpt lat="41.090872570103805" lon="16.075144123383236"><ele>346.0</ele><time>2026-04-06T07:57:46Z</time></trkpt><trkpt lat="41.09102297047084" lon="16.075258654030986"><ele>346.0</ele><time>2026-04-06T07:57:48Z</time></trkpt><trkpt lat="41.09110091248966" lon="16.075337496521797"><ele>346.0</ele><time>2026-04-06T07:57:49Z</time></trkpt><trkpt lat="41.09119493740404" lon="16.075413659639526"><ele>346.0</ele><time>2026-04-06T07:57:50Z</time></trkpt><trkpt lat="41.09128024182975" lon="16.0755251149407"><ele>346.0</ele><time>2026-04-06T07:57:51Z</time></trkpt><trkpt lat="41.09137112770612" lon="16.07561655046149"><ele>346.0</ele><time>2026-04-06T07:57:52Z</time></trkpt><trkpt lat="41.091455480529454" lon="16.075704007828758"><ele>347.8</ele><time>2026-04-06T07:57:53Z</time></trkpt><trkpt lat="41.091533006866065" lon="16.075782143776046"><ele>349.6</ele><time>2026-04-06T07:57:54Z</time></trkpt><trkpt lat="41.091597130354124" lon="16.075847012011113"><ele>351.4</ele><time>2026-04-06T07:57:55Z</time></trkpt><trkpt lat="41.09164786380386" lon="16.0759044271144"><ele>353.2</ele><time>2026-04-06T07:57:56Z</time></trkpt><trkpt lat="41.0917176245975" lon="16.07598320667873"><ele>355.0</ele><time>2026-04-06T07:57:58Z</time></trkpt><trkpt lat="41.09183766152453" lon="16.075944340157495"><ele>355.66666666666663</ele><time>2026-04-06T07:58:06Z</time></trkpt><trkpt lat="41.0918855106304" lon="16.075873746932945"><ele>356.3333333333333</ele><time>2026-04-06T07:58:07Z</time></trkpt><trkpt lat="41.091938908363296" lon="16.07579292584382"><ele>357.0</ele><time>2026-04-06T07:58:08Z</time></trkpt><trkpt lat="41.09198552649822" lon="16.075707550461733"><ele>357.6666666666667</ele><time>2026-04-06T07:58:09Z</time></trkpt><trkpt lat="41.09203984873543" lon="16.075618544039372"><ele>358.33333333333337</ele><time>2026-04-06T07:58:10Z</time></trkpt><trkpt lat="41.092096523349014" lon="16.07553006701429"><ele>359.0</ele><time>2026-04-06T07:58:11Z</time></trkpt><trkpt lat="41.092168407628094" lon="16.075449858216587"><ele>358.0</ele><time>2026-04-06T07:58:12Z</time></trkpt><trkpt lat="41.09222627630414" lon="16.0753628545295"><ele>357.0</ele><time>2026-04-06T07:58:13Z</time></trkpt><trkpt lat="41.09226778837846" lon="16.07528408423364"><ele>356.0</ele><time>2026-04-06T07:58:14Z</time></trkpt><trkpt lat="41.092333269967355" lon="16.075207302700548"><ele>355.0</ele><time>2026-04-06T07:58:15Z</time></trkpt><trkpt lat="41.0923872247487" lon="16.07512534379361"><ele>354.0</ele><time>2026-04-06T07:58:16Z</time></trkpt><trkpt lat="41.09243973315866" lon="16.07504769825262"><ele>353.0</ele><time>2026-04-06T07:58:17Z</time></trkpt><trkpt lat="41.092488584407896" lon="16.074982417307577"><ele>352.6666666666667</ele><time>2026-04-06T07:58:18Z</time></trkpt><trkpt lat="41.09253715848801" lon="16.074926941386583"><ele>352.33333333333337</ele><time>2026-04-06T07:58:19Z</time></trkpt><trkpt lat="41.09258695782684" lon="16.074866672256235"><ele>352.0</ele><time>2026-04-06T07:58:20Z</time></trkpt><trkpt lat="41.0926448218708" lon="16.07479841348437"><ele>351.6666666666667</ele><time>2026-04-06T07:58:21Z</time></trkpt><trkpt lat="41.09272165015335" lon="16.07473309749492"><ele>351.3333333333333</ele><time>2026-04-06T07:58:22Z</time></trkpt><trkpt lat="41.09283562443894" lon="16.074700331701546"><ele>351.0</ele><time>2026-04-06T07:58:23Z</time></trkpt><trkpt lat="41.09296272676215" lon="16.074671860661343"><ele>351.0</ele><time>2026-04-06T07:58:24Z</time></trkpt><trkpt lat="41.09310775379032" lon="16.074642475106586"><ele>351.0</ele><time>2026-04-06T07:58:25Z</time></trkpt><trkpt lat="41.09325367685765" lon="16.074593217810097"><ele>351.0</ele><time>2026-04-06T07:58:26Z</time></trkpt><trkpt lat="41.09339522627394" lon="16.07456584255488"><ele>351.0</ele><time>2026-04-06T07:58:27Z</time></trkpt><trkpt lat="41.09352391303654" lon="16.07453814082077"><ele>350.5</ele><time>2026-04-06T07:58:28Z</time></trkpt><trkpt lat="41.093650650427705" lon="16.07451243886968"><ele>350.0</ele><time>2026-04-06T07:58:29Z</time></trkpt><trkpt lat="41.09377283883294" lon="16.074488237863143"><ele>349.5</ele><time>2026-04-06T07:58:30Z</time></trkpt><trkpt lat="41.093892639281336" lon="16.074453586786532"><ele>349.0</ele><time>2026-04-06T07:58:31Z</time></trkpt><trkpt lat="41.09402148643854" lon="16.074442846747633"><ele>347.25</ele><time>2026-04-06T07:58:32Z</time></trkpt><trkpt lat="41.09413909893206" lon="16.07441576322774"><ele>345.5</ele><time>2026-04-06T07:58:33Z</time></trkpt><trkpt lat="41.09424378878057" lon="16.0743633404954"><ele>343.75</ele><time>2026-04-06T07:58:34Z</time></trkpt><trkpt lat="41.09436176689508" lon="16.074336633357024"><ele>342.0</ele><time>2026-04-06T07:58:35Z</time></trkpt><trkpt lat="41.09448911889197" lon="16.07430033373028"><ele>342.0</ele><time>2026-04-06T07:58:36Z</time></trkpt><trkpt lat="41.094606921638565" lon="16.074258698737218"><ele>342.0</ele><time>2026-04-06T07:58:37Z</time></trkpt><trkpt lat="41.09471710408549" lon="16.07422563453148"><ele>342.0</ele><time>2026-04-06T07:58:38Z</time></trkpt><trkpt lat="41.09482328520925" lon="16.074185392842605"><ele>342.0</ele><time>2026-04-06T07:58:39Z</time></trkpt><trkpt lat="41.09492034454708" lon="16.074142334375697"><ele>342.0</ele><time>2026-04-06T07:58:40Z</time></trkpt><trkpt lat="41.095019040572865" lon="16.07409509754931"><ele>341.6</ele><time>2026-04-06T07:58:41Z</time></trkpt><trkpt lat="41.09512278388447" lon="16.074036961453103"><ele>341.20000000000005</ele><time>2026-04-06T07:58:42Z</time></trkpt><trkpt lat="41.09522163679409" lon="16.073971205560305"><ele>340.8</ele><time>2026-04-06T07:58:43Z</time></trkpt><trkpt lat="41.09531506993203" lon="16.07390102711416"><ele>340.4</ele><time>2026-04-06T07:58:44Z</time></trkpt><trkpt lat="41.09540749120184" lon="16.07381445786177"><ele>340.0</ele><time>2026-04-06T07:58:45Z</time></trkpt><trkpt lat="41.0954934854499" lon="16.073737377381093"><ele>340.0</ele><time>2026-04-06T07:58:46Z</time></trkpt><trkpt lat="41.095581022072096" lon="16.07366130801687"><ele>340.0</ele><time>2026-04-06T07:58:47Z</time></trkpt><trkpt lat="41.09566278855855" lon="16.073586106129007"><ele>340.0</ele><time>2026-04-06T07:58:48Z</time></trkpt><trkpt lat="41.09574846387016" lon="16.073508584175777"><ele>340.0</ele><time>2026-04-06T07:58:49Z</time></trkpt><trkpt lat="41.0958318870108" lon="16.073427829988123"><ele>340.0</ele><time>2026-04-06T07:58:50Z</time></trkpt><trkpt lat="41.09593348206577" lon="16.073345700723312"><ele>338.5</ele><time>2026-04-06T07:58:51Z</time></trkpt><trkpt lat="41.096032522635866" lon="16.073213671397905"><ele>337.0</ele><time>2026-04-06T07:58:52Z</time></trkpt><trkpt lat="41.09612538802858" lon="16.07306899518934"><ele>335.5</ele><time>2026-04-06T07:58:53Z</time></trkpt><trkpt lat="41.09620932762356" lon="16.072917482267833"><ele>334.0</ele><time>2026-04-06T07:58:54Z</time></trkpt><trkpt lat="41.09628028403493" lon="16.07277779046552"><ele>334.0</ele><time>2026-04-06T07:58:55Z</time></trkpt><trkpt lat="41.0963404429056" lon="16.072632501478726"><ele>334.0</ele><time>2026-04-06T07:58:56Z</time></trkpt><trkpt lat="41.09641841177066" lon="16.072515685660147"><ele>334.0</ele><time>2026-04-06T07:58:57Z</time></trkpt><trkpt lat="41.0965113493422" lon="16.07240256169973"><ele>334.0</ele><time>2026-04-06T07:58:58Z</time></trkpt><trkpt lat="41.09663984083553" lon="16.0723199452976"><ele>331.66666666666663</ele><time>2026-04-06T07:58:59Z</time></trkpt><trkpt lat="41.09678168014612" lon="16.07222504939686"><ele>329.3333333333333</ele><time>2026-04-06T07:59:00Z</time></trkpt><trkpt lat="41.0969345537955" lon="16.07213430759246"><ele>327.0</ele><time>2026-04-06T07:59:01Z</time></trkpt><trkpt lat="41.097091428272904" lon="16.072042670960617"><ele>327.0</ele><time>2026-04-06T07:59:02Z</time></trkpt><trkpt lat="41.09726196519455" lon="16.071943053533545"><ele>327.0</ele><time>2026-04-06T07:59:03Z</time></trkpt><trkpt lat="41.09742791691107" lon="16.07184430033617"><ele>327.0</ele><time>2026-04-06T07:59:04Z</time></trkpt><trkpt lat="41.09759380740928" lon="16.07172132724991"><ele>322.6666666666667</ele><time>2026-04-06T07:59:05Z</time></trkpt><trkpt lat="41.09777269523654" lon="16.07163398898116"><ele>318.33333333333337</ele><time>2026-04-06T07:59:06Z</time></trkpt><trkpt lat="41.09795045579101" lon="16.071528675364856"><ele>314.0</ele><time>2026-04-06T07:59:07Z</time></trkpt><trkpt lat="41.098129865761926" lon="16.071415608483846"><ele>315.33333333333337</ele><time>2026-04-06T07:59:08Z</time></trkpt><trkpt lat="41.098306802867604" lon="16.071308484455955"><ele>316.6666666666667</ele><time>2026-04-06T07:59:09Z</time></trkpt><trkpt lat="41.098482224765014" lon="16.071202364276324"><ele>318.0</ele><time>2026-04-06T07:59:10Z</time></trkpt><trkpt lat="41.098661247513384" lon="16.071096339091493"><ele>318.0</ele><time>2026-04-06T07:59:11Z</time></trkpt><trkpt lat="41.098834711168045" lon="16.07100255833435"><ele>318.0</ele><time>2026-04-06T07:59:12Z</time></trkpt><trkpt lat="41.09899784918485" lon="16.0709300139038"><ele>318.0</ele><time>2026-04-06T07:59:13Z</time></trkpt><trkpt lat="41.09916390448545" lon="16.07087896590671"><ele>319.6666666666667</ele><time>2026-04-06T07:59:14Z</time></trkpt><trkpt lat="41.099338489846375" lon="16.070853906177337"><ele>321.33333333333337</ele><time>2026-04-06T07:59:15Z</time></trkpt><trkpt lat="41.09951730043285" lon="16.07085419958501"><ele>323.0</ele><time>2026-04-06T07:59:16Z</time></trkpt><trkpt lat="41.09970222438004" lon="16.070877328194147"><ele>323.0</ele><time>2026-04-06T07:59:17Z</time></trkpt><trkpt lat="41.09988836114691" lon="16.07091295998881"><ele>323.0</ele><time>2026-04-06T07:59:18Z</time></trkpt><trkpt lat="41.10007929147297" lon="16.07094728329758"><ele>323.0</ele><time>2026-04-06T07:59:19Z</time></trkpt><trkpt lat="41.10027509800468" lon="16.070980617695668"><ele>322.0</ele><time>2026-04-06T07:59:20Z</time></trkpt><trkpt lat="41.10047273364891" lon="16.071013730685287"><ele>321.0</ele><time>2026-04-06T07:59:21Z</time></trkpt><trkpt lat="41.1006686600972" lon="16.071044938911296"><ele>320.0</ele><time>2026-04-06T07:59:22Z</time></trkpt><trkpt lat="41.10087878211999" lon="16.071080088450778"><ele>319.33333333333337</ele><time>2026-04-06T07:59:23Z</time></trkpt><trkpt lat="41.10107869068851" lon="16.071108978250894"><ele>318.6666666666667</ele><time>2026-04-06T07:59:24Z</time></trkpt><trkpt lat="41.101284667927104" lon="16.07114356172154"><ele>318.0</ele><time>2026-04-06T07:59:25Z</time></trkpt><trkpt lat="41.10147672035383" lon="16.07117526171563"><ele>317.3333333333333</ele><time>2026-04-06T07:59:26Z</time></trkpt><trkpt lat="41.101653129333805" lon="16.071203712030467"><ele>316.66666666666663</ele><time>2026-04-06T07:59:27Z</time></trkpt><trkpt lat="41.10181875227294" lon="16.071226810077462"><ele>316.0</ele><time>2026-04-06T07:59:28Z</time></trkpt><trkpt lat="41.10199086908537" lon="16.071254218310642"><ele>316.0</ele><time>2026-04-06T07:59:29Z</time></trkpt><trkpt lat="41.10214320584432" lon="16.07127780461259"><ele>316.0</ele><time>2026-04-06T07:59:30Z</time></trkpt><trkpt lat="41.10230577698917" lon="16.071298293296024"><ele>316.0</ele><time>2026-04-06T07:59:31Z</time></trkpt><trkpt lat="41.1024658184156" lon="16.0713193522649"><ele>315.66666666666663</ele><time>2026-04-06T07:59:32Z</time></trkpt><trkpt lat="41.102634296192164" lon="16.071343364261956"><ele>315.3333333333333</ele><time>2026-04-06T07:59:33Z</time></trkpt><trkpt lat="41.10278954802101" lon="16.07136891673491"><ele>315.0</ele><time>2026-04-06T07:59:34Z</time></trkpt><trkpt lat="41.1029624056218" lon="16.071404474659637"><ele>315.0</ele><time>2026-04-06T07:59:35Z</time></trkpt><trkpt lat="41.103128304740245" lon="16.071438696266597"><ele>315.0</ele><time>2026-04-06T07:59:36Z</time></trkpt><trkpt lat="41.103299332464914" lon="16.071467653906215"><ele>315.0</ele><time>2026-04-06T07:59:37Z</time></trkpt><trkpt lat="41.103466933462926" lon="16.071493620652788"><ele>314.6666666666667</ele><time>2026-04-06T07:59:38Z</time></trkpt><trkpt lat="41.10362650466633" lon="16.071520772639907"><ele>314.33333333333337</ele><time>2026-04-06T07:59:39Z</time></trkpt><trkpt lat="41.103774086236534" lon="16.071544691528665"><ele>314.0</ele><time>2026-04-06T07:59:40Z</time></trkpt><trkpt lat="41.103917030887814" lon="16.071564288524236"><ele>314.0</ele><time>2026-04-06T07:59:41Z</time></trkpt><trkpt lat="41.1040553009449" lon="16.071582163234492"><ele>314.0</ele><time>2026-04-06T07:59:42Z</time></trkpt><trkpt lat="41.10418821180062" lon="16.07159675076294"><ele>314.0</ele><time>2026-04-06T07:59:43Z</time></trkpt><trkpt lat="41.10431933143415" lon="16.07160322663723"><ele>314.0</ele><time>2026-04-06T07:59:44Z</time></trkpt><trkpt lat="41.104437743742395" lon="16.071607375276734"><ele>314.33333333333337</ele><time>2026-04-06T07:59:45Z</time></trkpt><trkpt lat="41.10454493547435" lon="16.071618755442174"><ele>314.6666666666667</ele><time>2026-04-06T07:59:46Z</time></trkpt><trkpt lat="41.10464011786136" lon="16.071657133158286"><ele>315.0</ele><time>2026-04-06T07:59:47Z</time></trkpt><trkpt lat="41.104719641138196" lon="16.071719888992405"><ele>315.3333333333333</ele><time>2026-04-06T07:59:48Z</time></trkpt><trkpt lat="41.104782880126166" lon="16.071775226810363"><ele>315.66666666666663</ele><time>2026-04-06T07:59:49Z</time></trkpt><trkpt lat="41.104854108984654" lon="16.07179674184462"><ele>316.0</ele><time>2026-04-06T07:59:50Z</time></trkpt><trkpt lat="41.104954707152324" lon="16.071731580665947"><ele>315.2</ele><time>2026-04-06T07:59:52Z</time></trkpt><trkpt lat="41.10500196131093" lon="16.07163902704497"><ele>314.40000000000003</ele><time>2026-04-06T07:59:54Z</time></trkpt><trkpt lat="41.10499765100026" lon="16.071432716547513"><ele>313.6</ele><time>2026-04-06T07:59:56Z</time></trkpt><trkpt lat="41.10501034084854" lon="16.071335398382313"><ele>312.8</ele><time>2026-04-06T07:59:57Z</time></trkpt><trkpt lat="41.1050348958961" lon="16.07123348314402"><ele>312.0</ele><time>2026-04-06T07:59:58Z</time></trkpt><trkpt lat="41.10508092106112" lon="16.071114439942072"><ele>311.4</ele><time>2026-04-06T07:59:59Z</time></trkpt><trkpt lat="41.105150153988326" lon="16.071026772149835"><ele>310.79999999999995</ele><time>2026-04-06T08:00:00Z</time></trkpt><trkpt lat="41.10525500175035" lon="16.070994387206877"><ele>310.2</ele><time>2026-04-06T08:00:01Z</time></trkpt><trkpt lat="41.10533989749575" lon="16.07093252332307"><ele>309.59999999999997</ele><time>2026-04-06T08:00:02Z</time></trkpt><trkpt lat="41.10542128484169" lon="16.070868053692013"><ele>309.0</ele><time>2026-04-06T08:00:03Z</time></trkpt><trkpt lat="41.105515430208165" lon="16.070836807427366"><ele>309.0</ele><time>2026-04-06T08:00:04Z</time></trkpt><trkpt lat="41.10562719537319" lon="16.070817208002552"><ele>309.0</ele><time>2026-04-06T08:00:05Z</time></trkpt><trkpt lat="41.10575258688497" lon="16.07081162413322"><ele>309.0</ele><time>2026-04-06T08:00:06Z</time></trkpt><trkpt lat="41.10589906162409" lon="16.070809383015565"><ele>309.0</ele><time>2026-04-06T08:00:07Z</time></trkpt><trkpt lat="41.106051173665776" lon="16.070824224977414"><ele>309.6666666666667</ele><time>2026-04-06T08:00:08Z</time></trkpt><trkpt lat="41.106215238879976" lon="16.07084688810117"><ele>310.33333333333337</ele><time>2026-04-06T08:00:09Z</time></trkpt><trkpt lat="41.106380102445236" lon="16.070880442967535"><ele>311.0</ele><time>2026-04-06T08:00:10Z</time></trkpt><trkpt lat="41.10654332261038" lon="16.070918630584153"><ele>309.6666666666667</ele><time>2026-04-06T08:00:11Z</time></trkpt><trkpt lat="41.10669353812877" lon="16.07096386775815"><ele>308.3333333333333</ele><time>2026-04-06T08:00:12Z</time></trkpt><trkpt lat="41.1068379772752" lon="16.071021216583485"><ele>307.0</ele><time>2026-04-06T08:00:13Z</time></trkpt><trkpt lat="41.106994413057656" lon="16.07109145543268"><ele>307.0</ele><time>2026-04-06T08:00:14Z</time></trkpt><trkpt lat="41.10715015777495" lon="16.071168327090717"><ele>307.0</ele><time>2026-04-06T08:00:15Z</time></trkpt><trkpt lat="41.10731507700344" lon="16.07125765136704"><ele>307.0</ele><time>2026-04-06T08:00:16Z</time></trkpt><trkpt lat="41.10748422683456" lon="16.07135302759655"><ele>306.66666666666663</ele><time>2026-04-06T08:00:17Z</time></trkpt><trkpt lat="41.10765834943992" lon="16.071449939361617"><ele>306.3333333333333</ele><time>2026-04-06T08:00:18Z</time></trkpt><trkpt lat="41.107843635681995" lon="16.071542680734776"><ele>306.0</ele><time>2026-04-06T08:00:19Z</time></trkpt><trkpt lat="41.108033845768944" lon="16.071630257813716"><ele>307.3333333333333</ele><time>2026-04-06T08:00:20Z</time></trkpt><trkpt lat="41.108231165273395" lon="16.071717824213867"><ele>308.66666666666663</ele><time>2026-04-06T08:00:21Z</time></trkpt><trkpt lat="41.10842790805051" lon="16.07180465075246"><ele>310.0</ele><time>2026-04-06T08:00:22Z</time></trkpt><trkpt lat="41.108637826907675" lon="16.071888705922103"><ele>310.0</ele><time>2026-04-06T08:00:23Z</time></trkpt><trkpt lat="41.108844538358646" lon="16.071965848597607"><ele>310.0</ele><time>2026-04-06T08:00:24Z</time></trkpt><trkpt lat="41.10906074563394" lon="16.072034886282065"><ele>310.0</ele><time>2026-04-06T08:00:25Z</time></trkpt><trkpt lat="41.109274376026896" lon="16.072096996954663"><ele>310.0</ele><time>2026-04-06T08:00:26Z</time></trkpt><trkpt lat="41.1094950617739" lon="16.072153152982903"><ele>310.0</ele><time>2026-04-06T08:00:27Z</time></trkpt><trkpt lat="41.10971583665972" lon="16.072204321432643"><ele>310.0</ele><time>2026-04-06T08:00:28Z</time></trkpt><trkpt lat="41.10994142738329" lon="16.072249344981895"><ele>309.5</ele><time>2026-04-06T08:00:29Z</time></trkpt><trkpt lat="41.110169256562834" lon="16.07228920162799"><ele>309.0</ele><time>2026-04-06T08:00:30Z</time></trkpt><trkpt lat="41.110395131753556" lon="16.072326550172956"><ele>309.0</ele><time>2026-04-06T08:00:31Z</time></trkpt><trkpt lat="41.11061856311255" lon="16.07236091258852"><ele>309.0</ele><time>2026-04-06T08:00:32Z</time></trkpt><trkpt lat="41.11084423165353" lon="16.072397145194437"><ele>309.5</ele><time>2026-04-06T08:00:33Z</time></trkpt><trkpt lat="41.1110692515" lon="16.072435495046335"><ele>310.0</ele><time>2026-04-06T08:00:34Z</time></trkpt><trkpt lat="41.11129589896958" lon="16.072479895438846"><ele>310.0</ele><time>2026-04-06T08:00:35Z</time></trkpt><trkpt lat="41.111520288651036" lon="16.072522516174107"><ele>310.0</ele><time>2026-04-06T08:00:36Z</time></trkpt><trkpt lat="41.1117508605889" lon="16.072561645624624"><ele>310.0</ele><time>2026-04-06T08:00:37Z</time></trkpt><trkpt lat="41.1119700954426" lon="16.072597341868377"><ele>310.0</ele><time>2026-04-06T08:00:38Z</time></trkpt><trkpt lat="41.112196341876036" lon="16.072630781450876"><ele>310.0</ele><time>2026-04-06T08:00:39Z</time></trkpt><trkpt lat="41.112423626890404" lon="16.072669444904722"><ele>309.3333333333333</ele><time>2026-04-06T08:00:40Z</time></trkpt><trkpt lat="41.11264296352117" lon="16.072703810821096"><ele>308.6666666666667</ele><time>2026-04-06T08:00:41Z</time></trkpt><trkpt lat="41.112868000225966" lon="16.072746253269614"><ele>308.0</ele><time>2026-04-06T08:00:42Z</time></trkpt><trkpt lat="41.113091934058275" lon="16.07278754150603"><ele>307.6666666666667</ele><time>2026-04-06T08:00:43Z</time></trkpt><trkpt lat="41.113307901405285" lon="16.072820521683823"><ele>307.3333333333333</ele><time>2026-04-06T08:00:44Z</time></trkpt><trkpt lat="41.113531467857634" lon="16.07285575612419"><ele>307.0</ele><time>2026-04-06T08:00:45Z</time></trkpt><trkpt lat="41.11375186398587" lon="16.072889766284423"><ele>307.0</ele><time>2026-04-06T08:00:46Z</time></trkpt><trkpt lat="41.11396320528287" lon="16.07291565110882"><ele>307.0</ele><time>2026-04-06T08:00:47Z</time></trkpt><trkpt lat="41.11418783354822" lon="16.07295495059446"><ele>307.0</ele><time>2026-04-06T08:00:48Z</time></trkpt><trkpt lat="41.11440609347423" lon="16.072987490258736"><ele>306.3333333333333</ele><time>2026-04-06T08:00:49Z</time></trkpt><trkpt lat="41.11462185475011" lon="16.073017462493"><ele>305.6666666666667</ele><time>2026-04-06T08:00:50Z</time></trkpt><trkpt lat="41.11484080225835" lon="16.07305092243959"><ele>305.0</ele><time>2026-04-06T08:00:51Z</time></trkpt><trkpt lat="41.11505672966093" lon="16.073079645505327"><ele>303.33333333333337</ele><time>2026-04-06T08:00:52Z</time></trkpt><trkpt lat="41.11527396374199" lon="16.073110930375183"><ele>301.6666666666667</ele><time>2026-04-06T08:00:53Z</time></trkpt><trkpt lat="41.1154900700093" lon="16.073141641086803"><ele>300.0</ele><time>2026-04-06T08:00:54Z</time></trkpt><trkpt lat="41.11570465522848" lon="16.0731745888297"><ele>300.0</ele><time>2026-04-06T08:00:55Z</time></trkpt><trkpt lat="41.115920867738076" lon="16.07320768855542"><ele>300.0</ele><time>2026-04-06T08:00:56Z</time></trkpt><trkpt lat="41.11613341573067" lon="16.073234935523555"><ele>300.0</ele><time>2026-04-06T08:00:57Z</time></trkpt><trkpt lat="41.11635005939985" lon="16.07327266049242"><ele>300.0</ele><time>2026-04-06T08:00:58Z</time></trkpt><trkpt lat="41.11655736902105" lon="16.07331318637801"><ele>300.0</ele><time>2026-04-06T08:00:59Z</time></trkpt><trkpt lat="41.1167762636333" lon="16.073349286342285"><ele>300.0</ele><time>2026-04-06T08:01:00Z</time></trkpt><trkpt lat="41.116990535998184" lon="16.073384354339126"><ele>299.6666666666667</ele><time>2026-04-06T08:01:01Z</time></trkpt><trkpt lat="41.11720524640484" lon="16.073420055212267"><ele>299.33333333333337</ele><time>2026-04-06T08:01:02Z</time></trkpt><trkpt lat="41.11742002705127" lon="16.073457657641157"><ele>299.0</ele><time>2026-04-06T08:01:03Z</time></trkpt><trkpt lat="41.117625523195024" lon="16.073485881862588"><ele>298.6666666666667</ele><time>2026-04-06T08:01:04Z</time></trkpt><trkpt lat="41.1178432237759" lon="16.073527710315986"><ele>298.3333333333333</ele><time>2026-04-06T08:01:05Z</time></trkpt><trkpt lat="41.11805584139626" lon="16.073566462193586"><ele>298.0</ele><time>2026-04-06T08:01:06Z</time></trkpt><trkpt lat="41.11826557968377" lon="16.073602280965524"><ele>297.66666666666663</ele><time>2026-04-06T08:01:07Z</time></trkpt><trkpt lat="41.11847678643752" lon="16.07363224410922"><ele>297.3333333333333</ele><time>2026-04-06T08:01:08Z</time></trkpt><trkpt lat="41.1186883528555" lon="16.073664739258625"><ele>297.0</ele><time>2026-04-06T08:01:09Z</time></trkpt><trkpt lat="41.11890241325382" lon="16.073706604826846"><ele>297.6666666666667</ele><time>2026-04-06T08:01:10Z</time></trkpt><trkpt lat="41.11911297277405" lon="16.073748472303638"><ele>298.33333333333337</ele><time>2026-04-06T08:01:11Z</time></trkpt><trkpt lat="41.11932550029467" lon="16.073794756433244"><ele>299.0</ele><time>2026-04-06T08:01:12Z</time></trkpt><trkpt lat="41.119534223984004" lon="16.07383911443115"><ele>299.0</ele><time>2026-04-06T08:01:13Z</time></trkpt><trkpt lat="41.11975331618159" lon="16.073887907248743"><ele>299.0</ele><time>2026-04-06T08:01:14Z</time></trkpt><trkpt lat="41.11996718949465" lon="16.07392815982481"><ele>299.0</ele><time>2026-04-06T08:01:15Z</time></trkpt><trkpt lat="41.120186506344126" lon="16.073972269886458"><ele>299.0</ele><time>2026-04-06T08:01:16Z</time></trkpt><trkpt lat="41.12039868138961" lon="16.07401027519507"><ele>299.0</ele><time>2026-04-06T08:01:17Z</time></trkpt><trkpt lat="41.12061367318493" lon="16.07404660457808"><ele>299.0</ele><time>2026-04-06T08:01:18Z</time></trkpt><trkpt lat="41.12083058505251" lon="16.074082489936362"><ele>300.33333333333337</ele><time>2026-04-06T08:01:19Z</time></trkpt><trkpt lat="41.12105013038428" lon="16.074122632560773"><ele>301.6666666666667</ele><time>2026-04-06T08:01:20Z</time></trkpt><trkpt lat="41.12126561360939" lon="16.07415703548567"><ele>303.0</ele><time>2026-04-06T08:01:21Z</time></trkpt><trkpt lat="41.121484237419565" lon="16.074189300782706"><ele>302.3333333333333</ele><time>2026-04-06T08:01:22Z</time></trkpt><trkpt lat="41.121703349749225" lon="16.074220868842847"><ele>301.66666666666663</ele><time>2026-04-06T08:01:23Z</time></trkpt><trkpt lat="41.121922907051584" lon="16.074252293953478"><ele>301.0</ele><time>2026-04-06T08:01:24Z</time></trkpt><trkpt lat="41.122144210079924" lon="16.074290843254037"><ele>301.0</ele><time>2026-04-06T08:01:25Z</time></trkpt><trkpt lat="41.1223613875935" lon="16.074327280373964"><ele>301.0</ele><time>2026-04-06T08:01:26Z</time></trkpt><trkpt lat="41.122579991249594" lon="16.074367850177893"><ele>301.0</ele><time>2026-04-06T08:01:27Z</time></trkpt><trkpt lat="41.122799684545434" lon="16.074400942091508"><ele>300.0</ele><time>2026-04-06T08:01:28Z</time></trkpt><trkpt lat="41.123010482786746" lon="16.074429056221526"><ele>299.0</ele><time>2026-04-06T08:01:29Z</time></trkpt><trkpt lat="41.12322496673596" lon="16.07446597904515"><ele>298.0</ele><time>2026-04-06T08:01:30Z</time></trkpt><trkpt lat="41.12344062417257" lon="16.074510162947032"><ele>297.3333333333333</ele><time>2026-04-06T08:01:31Z</time></trkpt><trkpt lat="41.12365078562141" lon="16.07454976407874"><ele>296.6666666666667</ele><time>2026-04-06T08:01:32Z</time></trkpt><trkpt lat="41.12385115075318" lon="16.07459348646211"><ele>296.0</ele><time>2026-04-06T08:01:33Z</time></trkpt><trkpt lat="41.124044278016235" lon="16.07461389406071"><ele>295.0</ele><time>2026-04-06T08:01:34Z</time></trkpt><trkpt lat="41.12425189403441" lon="16.074643927606836"><ele>294.0</ele><time>2026-04-06T08:01:35Z</time></trkpt><trkpt lat="41.124468796656686" lon="16.074683371528277"><ele>293.0</ele><time>2026-04-06T08:01:36Z</time></trkpt><trkpt lat="41.12466709828438" lon="16.07471265787567"><ele>293.0</ele><time>2026-04-06T08:01:37Z</time></trkpt><trkpt lat="41.124874472919" lon="16.074749140523274"><ele>293.0</ele><time>2026-04-06T08:01:38Z</time></trkpt><trkpt lat="41.125098530682685" lon="16.074790704815463"><ele>293.0</ele><time>2026-04-06T08:01:39Z</time></trkpt><trkpt lat="41.12532891658335" lon="16.074834100414233"><ele>292.0</ele><time>2026-04-06T08:01:40Z</time></trkpt><trkpt lat="41.1254953251094" lon="16.074842316265528"><ele>291.0</ele><time>2026-04-06T08:01:41Z</time></trkpt><trkpt lat="41.12569729375364" lon="16.074877591144734"><ele>290.0</ele><time>2026-04-06T08:01:42Z</time></trkpt><trkpt lat="41.12589087722588" lon="16.074907596053382"><ele>289.6666666666667</ele><time>2026-04-06T08:01:43Z</time></trkpt><trkpt lat="41.12608836079042" lon="16.07493896800017"><ele>289.3333333333333</ele><time>2026-04-06T08:01:44Z</time></trkpt><trkpt lat="41.12628882247491" lon="16.074974814907915"><ele>289.0</ele><time>2026-04-06T08:01:45Z</time></trkpt><trkpt lat="41.126493434815444" lon="16.075010002140427"><ele>288.0</ele><time>2026-04-06T08:01:46Z</time></trkpt><trkpt lat="41.12670084498037" lon="16.075045176674394"><ele>287.0</ele><time>2026-04-06T08:01:47Z</time></trkpt><trkpt lat="41.12690717455371" lon="16.075078195826894"><ele>286.0</ele><time>2026-04-06T08:01:48Z</time></trkpt><trkpt lat="41.12711173019373" lon="16.07511227599255"><ele>286.0</ele><time>2026-04-06T08:01:49Z</time></trkpt><trkpt lat="41.12731659353209" lon="16.075148650739084"><ele>286.0</ele><time>2026-04-06T08:01:50Z</time></trkpt><trkpt lat="41.12751833539015" lon="16.07518518909444"><ele>286.0</ele><time>2026-04-06T08:01:51Z</time></trkpt><trkpt lat="41.12772118718539" lon="16.07521904738549"><ele>285.66666666666663</ele><time>2026-04-06T08:01:52Z</time></trkpt><trkpt lat="41.127930466613485" lon="16.075250421767862"><ele>285.3333333333333</ele><time>2026-04-06T08:01:53Z</time></trkpt><trkpt lat="41.128135355197614" lon="16.075281579108793"><ele>285.0</ele><time>2026-04-06T08:01:54Z</time></trkpt><trkpt lat="41.12834297312873" lon="16.075313995551888"><ele>284.6666666666667</ele><time>2026-04-06T08:01:55Z</time></trkpt><trkpt lat="41.128552557674766" lon="16.075353455870896"><ele>284.33333333333337</ele><time>2026-04-06T08:01:56Z</time></trkpt><trkpt lat="41.12876423633465" lon="16.075388464578165"><ele>284.0</ele><time>2026-04-06T08:01:57Z</time></trkpt><trkpt lat="41.128977314030216" lon="16.075424914309888"><ele>284.0</ele><time>2026-04-06T08:01:58Z</time></trkpt><trkpt lat="41.129188522903604" lon="16.075462453458645"><ele>284.0</ele><time>2026-04-06T08:01:59Z</time></trkpt><trkpt lat="41.129401025262865" lon="16.075512484835286"><ele>284.0</ele><time>2026-04-06T08:02:00Z</time></trkpt><trkpt lat="41.12962021241509" lon="16.075537339761016"><ele>284.0</ele><time>2026-04-06T08:02:01Z</time></trkpt><trkpt lat="41.129837339376444" lon="16.07556764261228"><ele>284.0</ele><time>2026-04-06T08:02:02Z</time></trkpt><trkpt lat="41.130052583211494" lon="16.075601530561723"><ele>284.0</ele><time>2026-04-06T08:02:03Z</time></trkpt><trkpt lat="41.13027207551498" lon="16.075640184447966"><ele>284.0</ele><time>2026-04-06T08:02:04Z</time></trkpt><trkpt lat="41.1304927381203" lon="16.07568192298744"><ele>284.0</ele><time>2026-04-06T08:02:05Z</time></trkpt><trkpt lat="41.13070482367862" lon="16.07571681138565"><ele>284.0</ele><time>2026-04-06T08:02:06Z</time></trkpt><trkpt lat="41.13092057320569" lon="16.075754381422904"><ele>285.0</ele><time>2026-04-06T08:02:07Z</time></trkpt><trkpt lat="41.131138679108446" lon="16.075789436353283"><ele>286.0</ele><time>2026-04-06T08:02:08Z</time></trkpt><trkpt lat="41.13134877622078" lon="16.075819022352494"><ele>287.0</ele><time>2026-04-06T08:02:09Z</time></trkpt><trkpt lat="41.1315657065237" lon="16.075854438983303"><ele>287.0</ele><time>2026-04-06T08:02:10Z</time></trkpt><trkpt lat="41.13177274426789" lon="16.075889283693275"><ele>287.0</ele><time>2026-04-06T08:02:11Z</time></trkpt><trkpt lat="41.13199052242092" lon="16.07592502581211"><ele>287.0</ele><time>2026-04-06T08:02:12Z</time></trkpt><trkpt lat="41.13218843080445" lon="16.075950376674484"><ele>287.33333333333337</ele><time>2026-04-06T08:02:13Z</time></trkpt><trkpt lat="41.13239668381722" lon="16.07598530717992"><ele>287.6666666666667</ele><time>2026-04-06T08:02:14Z</time></trkpt><trkpt lat="41.13261108595362" lon="16.076024883411208"><ele>288.0</ele><time>2026-04-06T08:02:15Z</time></trkpt><trkpt lat="41.13281911482017" lon="16.076064785518458"><ele>288.0</ele><time>2026-04-06T08:02:16Z</time></trkpt><trkpt lat="41.133021578248176" lon="16.07610520969681"><ele>288.0</ele><time>2026-04-06T08:02:17Z</time></trkpt><trkpt lat="41.133232556141465" lon="16.076142364759644"><ele>288.0</ele><time>2026-04-06T08:02:18Z</time></trkpt><trkpt lat="41.133440724775824" lon="16.076176392941445"><ele>288.0</ele><time>2026-04-06T08:02:19Z</time></trkpt><trkpt lat="41.133654171246235" lon="16.07621273745854"><ele>288.0</ele><time>2026-04-06T08:02:20Z</time></trkpt><trkpt lat="41.13386351469298" lon="16.076247670072867"><ele>288.0</ele><time>2026-04-06T08:02:21Z</time></trkpt><trkpt lat="41.13407998074618" lon="16.07628561285836"><ele>287.6666666666667</ele><time>2026-04-06T08:02:22Z</time></trkpt><trkpt lat="41.13429359686995" lon="16.076323391552997"><ele>287.33333333333337</ele><time>2026-04-06T08:02:23Z</time></trkpt><trkpt lat="41.13449702275472" lon="16.076351202952768"><ele>287.0</ele><time>2026-04-06T08:02:24Z</time></trkpt><trkpt lat="41.13469005205808" lon="16.076374451593303"><ele>286.6666666666667</ele><time>2026-04-06T08:02:25Z</time></trkpt><trkpt lat="41.1348913548317" lon="16.076407052172065"><ele>286.3333333333333</ele><time>2026-04-06T08:02:26Z</time></trkpt><trkpt lat="41.1350929018301" lon="16.07644101276576"><ele>286.0</ele><time>2026-04-06T08:02:27Z</time></trkpt><trkpt lat="41.135314732991326" lon="16.07648214180595"><ele>286.0</ele><time>2026-04-06T08:02:28Z</time></trkpt><trkpt lat="41.13547308347952" lon="16.076492657503394"><ele>286.0</ele><time>2026-04-06T08:02:29Z</time></trkpt><trkpt lat="41.13566063987587" lon="16.07651283125979"><ele>286.0</ele><time>2026-04-06T08:02:30Z</time></trkpt><trkpt lat="41.135863025361154" lon="16.076560077545363"><ele>288.0</ele><time>2026-04-06T08:02:31Z</time></trkpt><trkpt lat="41.1360580472954" lon="16.076611948682196"><ele>290.0</ele><time>2026-04-06T08:02:32Z</time></trkpt><trkpt lat="41.13625409947095" lon="16.076666209721004"><ele>292.0</ele><time>2026-04-06T08:02:33Z</time></trkpt><trkpt lat="41.136442644881036" lon="16.076702849818044"><ele>292.0</ele><time>2026-04-06T08:02:34Z</time></trkpt><trkpt lat="41.136636754774955" lon="16.076736050256365"><ele>292.0</ele><time>2026-04-06T08:02:35Z</time></trkpt><trkpt lat="41.13682996325293" lon="16.07676583944641"><ele>292.0</ele><time>2026-04-06T08:02:36Z</time></trkpt><trkpt lat="41.13703678548531" lon="16.076799863325967"><ele>292.0</ele><time>2026-04-06T08:02:37Z</time></trkpt><trkpt lat="41.13723356955868" lon="16.076824282787925"><ele>292.0</ele><time>2026-04-06T08:02:38Z</time></trkpt><trkpt lat="41.137439081810285" lon="16.076859196136535"><ele>292.0</ele><time>2026-04-06T08:02:39Z</time></trkpt><trkpt lat="41.137637993567424" lon="16.076909160930374"><ele>290.66666666666663</ele><time>2026-04-06T08:02:40Z</time></trkpt><trkpt lat="41.1378524714832" lon="16.07697406310838"><ele>289.3333333333333</ele><time>2026-04-06T08:02:41Z</time></trkpt><trkpt lat="41.13805806575359" lon="16.07703230924948"><ele>288.0</ele><time>2026-04-06T08:02:42Z</time></trkpt><trkpt lat="41.13826681389373" lon="16.077083323971895"><ele>288.0</ele><time>2026-04-06T08:02:43Z</time></trkpt><trkpt lat="41.13848241522779" lon="16.077132504746146"><ele>288.0</ele><time>2026-04-06T08:02:44Z</time></trkpt><trkpt lat="41.1386923055922" lon="16.07719061749508"><ele>288.0</ele><time>2026-04-06T08:02:45Z</time></trkpt><trkpt lat="41.13890259726482" lon="16.07725493943298"><ele>287.3333333333333</ele><time>2026-04-06T08:02:46Z</time></trkpt><trkpt lat="41.13912022032587" lon="16.077320460323325"><ele>286.66666666666663</ele><time>2026-04-06T08:02:47Z</time></trkpt><trkpt lat="41.139328549815325" lon="16.077381798873418"><ele>286.0</ele><time>2026-04-06T08:02:48Z</time></trkpt><trkpt lat="41.13955318817986" lon="16.077455008596587"><ele>288.0</ele><time>2026-04-06T08:02:49Z</time></trkpt><trkpt lat="41.139757585325135" lon="16.07752874686342"><ele>290.0</ele><time>2026-04-06T08:02:50Z</time></trkpt><trkpt lat="41.1399831970543" lon="16.0776213994418"><ele>292.0</ele><time>2026-04-06T08:02:51Z</time></trkpt><trkpt lat="41.14017131008949" lon="16.0776959418733"><ele>292.0</ele><time>2026-04-06T08:02:52Z</time></trkpt><trkpt lat="41.140379719121185" lon="16.077781847232405"><ele>292.0</ele><time>2026-04-06T08:02:53Z</time></trkpt><trkpt lat="41.14059230225474" lon="16.077868115073183"><ele>292.0</ele><time>2026-04-06T08:02:54Z</time></trkpt><trkpt lat="41.14080161408663" lon="16.077951968312174"><ele>291.0</ele><time>2026-04-06T08:02:55Z</time></trkpt><trkpt lat="41.14101624057735" lon="16.07804333235866"><ele>290.0</ele><time>2026-04-06T08:02:56Z</time></trkpt><trkpt lat="41.14122262653148" lon="16.078147948602684"><ele>289.0</ele><time>2026-04-06T08:02:57Z</time></trkpt><trkpt lat="41.141434569133025" lon="16.078248079988754"><ele>292.0</ele><time>2026-04-06T08:02:58Z</time></trkpt><trkpt lat="41.141643524541884" lon="16.078354629347317"><ele>295.0</ele><time>2026-04-06T08:02:59Z</time></trkpt><trkpt lat="41.141850759138364" lon="16.078466841768563"><ele>298.0</ele><time>2026-04-06T08:03:00Z</time></trkpt><trkpt lat="41.14205747239463" lon="16.078578307504543"><ele>298.0</ele><time>2026-04-06T08:03:01Z</time></trkpt><trkpt lat="41.142265284387875" lon="16.078686912872037"><ele>298.0</ele><time>2026-04-06T08:03:02Z</time></trkpt><trkpt lat="41.14247458549082" lon="16.078800167425417"><ele>298.0</ele><time>2026-04-06T08:03:03Z</time></trkpt><trkpt lat="41.142681046037936" lon="16.078914448049137"><ele>299.0</ele><time>2026-04-06T08:03:04Z</time></trkpt><trkpt lat="41.142887644799046" lon="16.079035009541727"><ele>300.0</ele><time>2026-04-06T08:03:05Z</time></trkpt><trkpt lat="41.14309787036517" lon="16.07915424662092"><ele>299.0</ele><time>2026-04-06T08:03:06Z</time></trkpt><trkpt lat="41.143305620394344" lon="16.079278714696674"><ele>298.0</ele><time>2026-04-06T08:03:07Z</time></trkpt><trkpt lat="41.14350876728033" lon="16.079405945895743"><ele>298.0</ele><time>2026-04-06T08:03:08Z</time></trkpt><trkpt lat="41.14371843291584" lon="16.079534078860497"><ele>298.0</ele><time>2026-04-06T08:03:09Z</time></trkpt><trkpt lat="41.143924651585074" lon="16.079672385798307"><ele>297.0</ele><time>2026-04-06T08:03:10Z</time></trkpt><trkpt lat="41.14412949224383" lon="16.079813117430692"><ele>296.0</ele><time>2026-04-06T08:03:11Z</time></trkpt><trkpt lat="41.14433439133564" lon="16.079951059542665"><ele>296.0</ele><time>2026-04-06T08:03:12Z</time></trkpt><trkpt lat="41.14453758325904" lon="16.08008293703349"><ele>296.0</ele><time>2026-04-06T08:03:13Z</time></trkpt><trkpt lat="41.14473681915469" lon="16.08021677381113"><ele>296.0</ele><time>2026-04-06T08:03:14Z</time></trkpt><trkpt lat="41.144928652046374" lon="16.080341007986057"><ele>295.5</ele><time>2026-04-06T08:03:15Z</time></trkpt><trkpt lat="41.14512964830825" lon="16.080486630366146"><ele>295.0</ele><time>2026-04-06T08:03:16Z</time></trkpt><trkpt lat="41.145325614315844" lon="16.08062407032595"><ele>295.0</ele><time>2026-04-06T08:03:17Z</time></trkpt><trkpt lat="41.14552153617998" lon="16.080737494610926"><ele>295.0</ele><time>2026-04-06T08:03:18Z</time></trkpt><trkpt lat="41.145713688120956" lon="16.080873998341982"><ele>295.0</ele><time>2026-04-06T08:03:19Z</time></trkpt><trkpt lat="41.145905473963566" lon="16.08100454474745"><ele>293.0</ele><time>2026-04-06T08:03:20Z</time></trkpt><trkpt lat="41.146101001676975" lon="16.08113440764858"><ele>291.0</ele><time>2026-04-06T08:03:21Z</time></trkpt><trkpt lat="41.14629799524584" lon="16.081258213079046"><ele>289.0</ele><time>2026-04-06T08:03:22Z</time></trkpt><trkpt lat="41.14649819155497" lon="16.08138276145507"><ele>287.0</ele><time>2026-04-06T08:03:23Z</time></trkpt><trkpt lat="41.14669812219794" lon="16.081522306285752"><ele>285.0</ele><time>2026-04-06T08:03:24Z</time></trkpt><trkpt lat="41.14690035465037" lon="16.08166016604632"><ele>284.5</ele><time>2026-04-06T08:03:25Z</time></trkpt><trkpt lat="41.147104578461146" lon="16.0817909645764"><ele>284.0</ele><time>2026-04-06T08:03:26Z</time></trkpt><trkpt lat="41.14731195235665" lon="16.081917867692457"><ele>283.0</ele><time>2026-04-06T08:03:27Z</time></trkpt><trkpt lat="41.14751872995798" lon="16.08204712181515"><ele>282.0</ele><time>2026-04-06T08:03:28Z</time></trkpt><trkpt lat="41.147735736480115" lon="16.08216247667477"><ele>282.0</ele><time>2026-04-06T08:03:29Z</time></trkpt><trkpt lat="41.14795773996164" lon="16.082280756434475"><ele>282.0</ele><time>2026-04-06T08:03:30Z</time></trkpt><trkpt lat="41.148159634634226" lon="16.082427353032383"><ele>281.5</ele><time>2026-04-06T08:03:31Z</time></trkpt><trkpt lat="41.148370514650914" lon="16.082558847046414"><ele>281.0</ele><time>2026-04-06T08:03:32Z</time></trkpt><trkpt lat="41.14857769876694" lon="16.082687690187324"><ele>281.0</ele><time>2026-04-06T08:03:33Z</time></trkpt><trkpt lat="41.14877895193261" lon="16.08282331033417"><ele>281.0</ele><time>2026-04-06T08:03:34Z</time></trkpt><trkpt lat="41.148969861860635" lon="16.082971436699182"><ele>281.0</ele><time>2026-04-06T08:03:35Z</time></trkpt><trkpt lat="41.14916411275014" lon="16.083101797931327"><ele>281.33333333333337</ele><time>2026-04-06T08:03:36Z</time></trkpt><trkpt lat="41.14936169997341" lon="16.08321858997335"><ele>281.6666666666667</ele><time>2026-04-06T08:03:37Z</time></trkpt><trkpt lat="41.149557131103116" lon="16.083335329544273"><ele>282.0</ele><time>2026-04-06T08:03:38Z</time></trkpt><trkpt lat="41.149751710199965" lon="16.083452071625757"><ele>282.3333333333333</ele><time>2026-04-06T08:03:39Z</time></trkpt><trkpt lat="41.14994894653046" lon="16.083561054174037"><ele>282.66666666666663</ele><time>2026-04-06T08:03:40Z</time></trkpt><trkpt lat="41.1501444614457" lon="16.08366401316149"><ele>283.0</ele><time>2026-04-06T08:03:41Z</time></trkpt><trkpt lat="41.15033848525607" lon="16.08376868185251"><ele>283.0</ele><time>2026-04-06T08:03:42Z</time></trkpt><trkpt lat="41.150528566330046" lon="16.083867040368943"><ele>283.0</ele><time>2026-04-06T08:03:43Z</time></trkpt><trkpt lat="41.15071969203249" lon="16.08396787761351"><ele>283.0</ele><time>2026-04-06T08:03:44Z</time></trkpt><trkpt lat="41.15091372428563" lon="16.08407060693442"><ele>283.3333333333333</ele><time>2026-04-06T08:03:45Z</time></trkpt><trkpt lat="41.15110822082357" lon="16.084163796803814"><ele>283.6666666666667</ele><time>2026-04-06T08:03:46Z</time></trkpt><trkpt lat="41.151303016886324" lon="16.08425610926396"><ele>284.0</ele><time>2026-04-06T08:03:47Z</time></trkpt><trkpt lat="41.151495157119705" lon="16.084347231651982"><ele>283.6666666666667</ele><time>2026-04-06T08:03:48Z</time></trkpt><trkpt lat="41.1516881284865" lon="16.08444119175255"><ele>283.3333333333333</ele><time>2026-04-06T08:03:49Z</time></trkpt><trkpt lat="41.15188420467011" lon="16.084538994255475"><ele>283.0</ele><time>2026-04-06T08:03:50Z</time></trkpt><trkpt lat="41.15208747416009" lon="16.08463398919105"><ele>283.0</ele><time>2026-04-06T08:03:51Z</time></trkpt><trkpt lat="41.15226845751729" lon="16.084757410715078"><ele>283.0</ele><time>2026-04-06T08:03:52Z</time></trkpt><trkpt lat="41.15248063756034" lon="16.084838212068746"><ele>283.0</ele><time>2026-04-06T08:03:53Z</time></trkpt><trkpt lat="41.15269484531366" lon="16.084922580461477"><ele>283.3333333333333</ele><time>2026-04-06T08:03:54Z</time></trkpt><trkpt lat="41.15290266606833" lon="16.085023102505158"><ele>283.6666666666667</ele><time>2026-04-06T08:03:55Z</time></trkpt><trkpt lat="41.15310838551687" lon="16.085115987191067"><ele>284.0</ele><time>2026-04-06T08:03:56Z</time></trkpt><trkpt lat="41.15331791314014" lon="16.085210976901816"><ele>284.0</ele><time>2026-04-06T08:03:57Z</time></trkpt><trkpt lat="41.1535294198232" lon="16.085297456016"><ele>284.0</ele><time>2026-04-06T08:03:58Z</time></trkpt><trkpt lat="41.153739010615745" lon="16.085386955532933"><ele>284.0</ele><time>2026-04-06T08:03:59Z</time></trkpt><trkpt lat="41.15395650375582" lon="16.085472348475946"><ele>283.0</ele><time>2026-04-06T08:04:00Z</time></trkpt><trkpt lat="41.154169303967414" lon="16.085555959411057"><ele>282.0</ele><time>2026-04-06T08:04:01Z</time></trkpt><trkpt lat="41.15438137371516" lon="16.08564668601002"><ele>281.0</ele><time>2026-04-06T08:04:02Z</time></trkpt><trkpt lat="41.1545907825673" lon="16.085726350688443"><ele>280.6666666666667</ele><time>2026-04-06T08:04:03Z</time></trkpt><trkpt lat="41.15479982645732" lon="16.085818364000307"><ele>280.3333333333333</ele><time>2026-04-06T08:04:04Z</time></trkpt><trkpt lat="41.15501257364687" lon="16.085899164408115"><ele>280.0</ele><time>2026-04-06T08:04:05Z</time></trkpt><trkpt lat="41.15522942672782" lon="16.085978858935775"><ele>280.0</ele><time>2026-04-06T08:04:06Z</time></trkpt><trkpt lat="41.15544191896617" lon="16.086066149737455"><ele>280.0</ele><time>2026-04-06T08:04:07Z</time></trkpt><trkpt lat="41.15565715821941" lon="16.08614991059499"><ele>280.0</ele><time>2026-04-06T08:04:08Z</time></trkpt><trkpt lat="41.15587381487908" lon="16.086235565727446"><ele>277.5</ele><time>2026-04-06T08:04:09Z</time></trkpt><trkpt lat="41.15609054122043" lon="16.086305821058325"><ele>275.0</ele><time>2026-04-06T08:04:10Z</time></trkpt><trkpt lat="41.156307189823586" lon="16.086397953219183"><ele>275.0</ele><time>2026-04-06T08:04:11Z</time></trkpt><trkpt lat="41.15652257867714" lon="16.086490148562337"><ele>275.0</ele><time>2026-04-06T08:04:12Z</time></trkpt><trkpt lat="41.15673952042927" lon="16.08657567852616"><ele>274.0</ele><time>2026-04-06T08:04:13Z</time></trkpt><trkpt lat="41.15695574295534" lon="16.086668075050778"><ele>273.0</ele><time>2026-04-06T08:04:14Z</time></trkpt><trkpt lat="41.157171902498895" lon="16.08675664745845"><ele>270.0</ele><time>2026-04-06T08:04:15Z</time></trkpt><trkpt lat="41.15738942718887" lon="16.08684573479913"><ele>267.0</ele><time>2026-04-06T08:04:16Z</time></trkpt><trkpt lat="41.157606710107856" lon="16.08693757342448"><ele>267.0</ele><time>2026-04-06T08:04:17Z</time></trkpt><trkpt lat="41.15782489941821" lon="16.08702461303536"><ele>267.0</ele><time>2026-04-06T08:04:18Z</time></trkpt><trkpt lat="41.15804058922338" lon="16.087121774274568"><ele>265.5</ele><time>2026-04-06T08:04:19Z</time></trkpt><trkpt lat="41.15825540451594" lon="16.08721520478156"><ele>264.0</ele><time>2026-04-06T08:04:20Z</time></trkpt><trkpt lat="41.158474684040534" lon="16.087303577089358"><ele>264.0</ele><time>2026-04-06T08:04:21Z</time></trkpt><trkpt lat="41.158691059276414" lon="16.08739768314298"><ele>264.0</ele><time>2026-04-06T08:04:22Z</time></trkpt><trkpt lat="41.158910839746405" lon="16.08748309117785"><ele>262.5</ele><time>2026-04-06T08:04:23Z</time></trkpt><trkpt lat="41.15912467150647" lon="16.08758002908822"><ele>261.0</ele><time>2026-04-06T08:04:24Z</time></trkpt><trkpt lat="41.15934681486851" lon="16.087667981760326"><ele>261.0</ele><time>2026-04-06T08:04:25Z</time></trkpt><trkpt lat="41.159566443069856" lon="16.08775816623583"><ele>261.0</ele><time>2026-04-06T08:04:26Z</time></trkpt><trkpt lat="41.159781270197286" lon="16.087855183740274"><ele>259.5</ele><time>2026-04-06T08:04:27Z</time></trkpt><trkpt lat="41.16000100758538" lon="16.087944564849497"><ele>258.0</ele><time>2026-04-06T08:04:28Z</time></trkpt><trkpt lat="41.160221849181326" lon="16.088036871481492"><ele>258.0</ele><time>2026-04-06T08:04:29Z</time></trkpt><trkpt lat="41.16043474682546" lon="16.08814106284697"><ele>258.0</ele><time>2026-04-06T08:04:30Z</time></trkpt><trkpt lat="41.16064904644019" lon="16.088244089353143"><ele>257.0</ele><time>2026-04-06T08:04:31Z</time></trkpt><trkpt lat="41.160865995337474" lon="16.088345782192945"><ele>256.0</ele><time>2026-04-06T08:04:32Z</time></trkpt><trkpt lat="41.161079058640574" lon="16.088451741200256"><ele>256.0</ele><time>2026-04-06T08:04:33Z</time></trkpt><trkpt lat="41.16128923474103" lon="16.088556653150725"><ele>256.0</ele><time>2026-04-06T08:04:34Z</time></trkpt><trkpt lat="41.16150289910037" lon="16.088657422367202"><ele>254.5</ele><time>2026-04-06T08:04:35Z</time></trkpt><trkpt lat="41.16171645059661" lon="16.08876160663538"><ele>253.0</ele><time>2026-04-06T08:04:36Z</time></trkpt><trkpt lat="41.16192792050424" lon="16.0888653616059"><ele>253.0</ele><time>2026-04-06T08:04:37Z</time></trkpt><trkpt lat="41.162136501136956" lon="16.088971549528015"><ele>253.0</ele><time>2026-04-06T08:04:38Z</time></trkpt><trkpt lat="41.16234931664556" lon="16.089075543086704"><ele>253.0</ele><time>2026-04-06T08:04:39Z</time></trkpt><trkpt lat="41.16255927667846" lon="16.089181866699263"><ele>253.0</ele><time>2026-04-06T08:04:40Z</time></trkpt><trkpt lat="41.16276155807591" lon="16.089292877837554"><ele>253.0</ele><time>2026-04-06T08:04:41Z</time></trkpt><trkpt lat="41.162971187760505" lon="16.08939830654304"><ele>253.0</ele><time>2026-04-06T08:04:42Z</time></trkpt><trkpt lat="41.163170696151454" lon="16.089508515413872"><ele>253.0</ele><time>2026-04-06T08:04:43Z</time></trkpt><trkpt lat="41.16337902402048" lon="16.089615985980664"><ele>253.0</ele><time>2026-04-06T08:04:44Z</time></trkpt><trkpt lat="41.16358017928004" lon="16.089728029602277"><ele>253.0</ele><time>2026-04-06T08:04:45Z</time></trkpt><trkpt lat="41.16378018837617" lon="16.089843370998647"><ele>253.0</ele><time>2026-04-06T08:04:46Z</time></trkpt><trkpt lat="41.16398270700722" lon="16.08995522503801"><ele>253.0</ele><time>2026-04-06T08:04:47Z</time></trkpt><trkpt lat="41.16418166458794" lon="16.09006938934688"><ele>252.0</ele><time>2026-04-06T08:04:48Z</time></trkpt><trkpt lat="41.16438238213189" lon="16.090181520357934"><ele>251.0</ele><time>2026-04-06T08:04:49Z</time></trkpt><trkpt lat="41.1645829722864" lon="16.090289588844534"><ele>250.0</ele><time>2026-04-06T08:04:50Z</time></trkpt><trkpt lat="41.164787879579684" lon="16.09039102296445"><ele>249.0</ele><time>2026-04-06T08:04:51Z</time></trkpt><trkpt lat="41.16499634496095" lon="16.090492342379815"><ele>248.0</ele><time>2026-04-06T08:04:52Z</time></trkpt><trkpt lat="41.16520420628945" lon="16.090596233341863"><ele>247.0</ele><time>2026-04-06T08:04:53Z</time></trkpt><trkpt lat="41.16541574891718" lon="16.09070098129586"><ele>247.0</ele><time>2026-04-06T08:04:54Z</time></trkpt><trkpt lat="41.16562407407736" lon="16.090809165203947"><ele>247.0</ele><time>2026-04-06T08:04:55Z</time></trkpt><trkpt lat="41.16583895492881" lon="16.090912897444955"><ele>246.0</ele><time>2026-04-06T08:04:56Z</time></trkpt><trkpt lat="41.16605403373109" lon="16.091020849281858"><ele>245.0</ele><time>2026-04-06T08:04:57Z</time></trkpt><trkpt lat="41.16626723399518" lon="16.091124496190318"><ele>245.0</ele><time>2026-04-06T08:04:58Z</time></trkpt><trkpt lat="41.16647013987556" lon="16.091234147444332"><ele>245.0</ele><time>2026-04-06T08:04:59Z</time></trkpt><trkpt lat="41.1666837669107" lon="16.09133637060945"><ele>245.0</ele><time>2026-04-06T08:05:00Z</time></trkpt><trkpt lat="41.166888444201085" lon="16.091448334276333"><ele>245.0</ele><time>2026-04-06T08:05:01Z</time></trkpt><trkpt lat="41.167104755093895" lon="16.091554399214598"><ele>245.0</ele><time>2026-04-06T08:05:02Z</time></trkpt><trkpt lat="41.167298669385666" lon="16.091667176373605"><ele>245.0</ele><time>2026-04-06T08:05:03Z</time></trkpt><trkpt lat="41.16750465301337" lon="16.091773765733322"><ele>245.0</ele><time>2026-04-06T08:05:04Z</time></trkpt><trkpt lat="41.16771310814504" lon="16.091876652616534"><ele>245.0</ele><time>2026-04-06T08:05:05Z</time></trkpt><trkpt lat="41.167916672774126" lon="16.091979912236138"><ele>245.0</ele><time>2026-04-06T08:05:06Z</time></trkpt><trkpt lat="41.168117375802" lon="16.092089918539592"><ele>244.33333333333334</ele><time>2026-04-06T08:05:07Z</time></trkpt><trkpt lat="41.168321972699395" lon="16.092194246805047"><ele>243.66666666666669</ele><time>2026-04-06T08:05:08Z</time></trkpt><trkpt lat="41.16853128441549" lon="16.092295774095902"><ele>243.0</ele><time>2026-04-06T08:05:09Z</time></trkpt><trkpt lat="41.168736907809716" lon="16.092402648694378"><ele>242.5</ele><time>2026-04-06T08:05:10Z</time></trkpt><trkpt lat="41.1689480511437" lon="16.09250861328363"><ele>242.0</ele><time>2026-04-06T08:05:11Z</time></trkpt><trkpt lat="41.16915762649031" lon="16.092621252000768"><ele>242.0</ele><time>2026-04-06T08:05:12Z</time></trkpt><trkpt lat="41.16937103853408" lon="16.092727650105385"><ele>242.0</ele><time>2026-04-06T08:05:13Z</time></trkpt><trkpt lat="41.16957620222728" lon="16.0928460041051"><ele>242.0</ele><time>2026-04-06T08:05:14Z</time></trkpt><trkpt lat="41.16979344273501" lon="16.092950061024247"><ele>242.0</ele><time>2026-04-06T08:05:15Z</time></trkpt><trkpt lat="41.16999376099604" lon="16.093073175315602"><ele>240.5</ele><time>2026-04-06T08:05:16Z</time></trkpt><trkpt lat="41.17020515171068" lon="16.09317936192041"><ele>239.0</ele><time>2026-04-06T08:05:17Z</time></trkpt><trkpt lat="41.17041405379968" lon="16.09328676213501"><ele>239.0</ele><time>2026-04-06T08:05:18Z</time></trkpt><trkpt lat="41.17062414774333" lon="16.093386832017355"><ele>239.0</ele><time>2026-04-06T08:05:19Z</time></trkpt><trkpt lat="41.170828343539604" lon="16.09350607129776"><ele>239.0</ele><time>2026-04-06T08:05:20Z</time></trkpt><trkpt lat="41.17103678989799" lon="16.093611482811614"><ele>238.33333333333334</ele><time>2026-04-06T08:05:21Z</time></trkpt><trkpt lat="41.171244541764466" lon="16.093711554912705"><ele>237.66666666666669</ele><time>2026-04-06T08:05:22Z</time></trkpt><trkpt lat="41.171448018552105" lon="16.093825550322563"><ele>237.0</ele><time>2026-04-06T08:05:23Z</time></trkpt><trkpt lat="41.17165508727297" lon="16.093932528424194"><ele>236.33333333333331</ele><time>2026-04-06T08:05:24Z</time></trkpt><trkpt lat="41.17186442438367" lon="16.094032998696996"><ele>235.66666666666666</ele><time>2026-04-06T08:05:25Z</time></trkpt><trkpt lat="41.17207740272822" lon="16.0941322365158"><ele>235.0</ele><time>2026-04-06T08:05:26Z</time></trkpt><trkpt lat="41.17228247321036" lon="16.094246222000866"><ele>235.0</ele><time>2026-04-06T08:05:27Z</time></trkpt><trkpt lat="41.17249481675946" lon="16.094350825880564"><ele>235.0</ele><time>2026-04-06T08:05:28Z</time></trkpt><trkpt lat="41.172702546142595" lon="16.094460307550207"><ele>235.0</ele><time>2026-04-06T08:05:29Z</time></trkpt><trkpt lat="41.17291032505484" lon="16.094569203513693"><ele>235.0</ele><time>2026-04-06T08:05:30Z</time></trkpt><trkpt lat="41.17311705680596" lon="16.094681200891547"><ele>235.0</ele><time>2026-04-06T08:05:31Z</time></trkpt><trkpt lat="41.17332618491932" lon="16.09478299335056"><ele>234.33333333333331</ele><time>2026-04-06T08:05:32Z</time></trkpt><trkpt lat="41.17353367052129" lon="16.094890890991618"><ele>233.66666666666669</ele><time>2026-04-06T08:05:33Z</time></trkpt><trkpt lat="41.17373852480939" lon="16.094997994690164"><ele>233.0</ele><time>2026-04-06T08:05:34Z</time></trkpt><trkpt lat="41.173942526982756" lon="16.09510718922268"><ele>232.0</ele><time>2026-04-06T08:05:35Z</time></trkpt><trkpt lat="41.17414774707018" lon="16.095212917833162"><ele>231.0</ele><time>2026-04-06T08:05:36Z</time></trkpt><trkpt lat="41.174354346539594" lon="16.09530551182542"><ele>230.0</ele><time>2026-04-06T08:05:37Z</time></trkpt><trkpt lat="41.1745569730466" lon="16.095417427774883"><ele>230.0</ele><time>2026-04-06T08:05:38Z</time></trkpt><trkpt lat="41.17476551462326" lon="16.09551381069474"><ele>230.0</ele><time>2026-04-06T08:05:39Z</time></trkpt><trkpt lat="41.17497254304991" lon="16.095628643282016"><ele>230.0</ele><time>2026-04-06T08:05:40Z</time></trkpt><trkpt lat="41.17518003198369" lon="16.09573770756611"><ele>229.33333333333334</ele><time>2026-04-06T08:05:41Z</time></trkpt><trkpt lat="41.175391446244696" lon="16.09583250929212"><ele>228.66666666666669</ele><time>2026-04-06T08:05:42Z</time></trkpt><trkpt lat="41.175601401394" lon="16.095940598560976"><ele>228.0</ele><time>2026-04-06T08:05:43Z</time></trkpt><trkpt lat="41.1758120814046" lon="16.096047835864038"><ele>227.5</ele><time>2026-04-06T08:05:44Z</time></trkpt><trkpt lat="41.17602528324107" lon="16.096156467030717"><ele>227.0</ele><time>2026-04-06T08:05:45Z</time></trkpt><trkpt lat="41.17623916261797" lon="16.096273637766277"><ele>227.0</ele><time>2026-04-06T08:05:46Z</time></trkpt><trkpt lat="41.176458151056394" lon="16.09638652991964"><ele>227.0</ele><time>2026-04-06T08:05:47Z</time></trkpt><trkpt lat="41.17667603805803" lon="16.096501976575013"><ele>227.0</ele><time>2026-04-06T08:05:48Z</time></trkpt><trkpt lat="41.17689881340925" lon="16.096611666087142"><ele>227.0</ele><time>2026-04-06T08:05:49Z</time></trkpt><trkpt lat="41.17712385031713" lon="16.09671865031759"><ele>227.0</ele><time>2026-04-06T08:05:50Z</time></trkpt><trkpt lat="41.177346316710675" lon="16.096836898832592"><ele>227.0</ele><time>2026-04-06T08:05:51Z</time></trkpt><trkpt lat="41.17756627210935" lon="16.096958358649633"><ele>228.0</ele><time>2026-04-06T08:05:52Z</time></trkpt><trkpt lat="41.17778427196989" lon="16.09708024549495"><ele>229.0</ele><time>2026-04-06T08:05:53Z</time></trkpt><trkpt lat="41.17800084676283" lon="16.09719834847377"><ele>228.5</ele><time>2026-04-06T08:05:54Z</time></trkpt><trkpt lat="41.17822140079209" lon="16.097302414317042"><ele>228.0</ele><time>2026-04-06T08:05:55Z</time></trkpt><trkpt lat="41.17843740597008" lon="16.0974051816049"><ele>228.0</ele><time>2026-04-06T08:05:56Z</time></trkpt><trkpt lat="41.17864672157592" lon="16.097520382090448"><ele>228.0</ele><time>2026-04-06T08:05:57Z</time></trkpt><trkpt lat="41.178859026530766" lon="16.09762747297342"><ele>227.66666666666669</ele><time>2026-04-06T08:05:58Z</time></trkpt><trkpt lat="41.17907282158161" lon="16.097726762308383"><ele>227.33333333333334</ele><time>2026-04-06T08:05:59Z</time></trkpt><trkpt lat="41.17927602035262" lon="16.09783591108517"><ele>227.0</ele><time>2026-04-06T08:06:00Z</time></trkpt><trkpt lat="41.179488404795464" lon="16.097933194054633"><ele>227.0</ele><time>2026-04-06T08:06:01Z</time></trkpt><trkpt lat="41.1796848647711" lon="16.09804798785801"><ele>227.0</ele><time>2026-04-06T08:06:02Z</time></trkpt><trkpt lat="41.17988776055557" lon="16.098156966553894"><ele>227.0</ele><time>2026-04-06T08:06:03Z</time></trkpt><trkpt lat="41.18008454718548" lon="16.098264489872406"><ele>226.66666666666669</ele><time>2026-04-06T08:06:04Z</time></trkpt><trkpt lat="41.180292691112825" lon="16.098372520529704"><ele>226.33333333333331</ele><time>2026-04-06T08:06:05Z</time></trkpt><trkpt lat="41.180488729083436" lon="16.098474153020625"><ele>226.0</ele><time>2026-04-06T08:06:06Z</time></trkpt><trkpt lat="41.18069363319068" lon="16.09857402776962"><ele>226.0</ele><time>2026-04-06T08:06:07Z</time></trkpt><trkpt lat="41.18089782808599" lon="16.098678733279158"><ele>226.0</ele><time>2026-04-06T08:06:08Z</time></trkpt><trkpt lat="41.18109663487738" lon="16.098783796412704"><ele>226.0</ele><time>2026-04-06T08:06:09Z</time></trkpt><trkpt lat="41.18129888284122" lon="16.098888516286767"><ele>226.0</ele><time>2026-04-06T08:06:10Z</time></trkpt><trkpt lat="41.1815038652863" lon="16.098996539642908"><ele>226.0</ele><time>2026-04-06T08:06:11Z</time></trkpt><trkpt lat="41.181706722365384" lon="16.099103030069987"><ele>226.0</ele><time>2026-04-06T08:06:12Z</time></trkpt><trkpt lat="41.18191460589135" lon="16.099210346220218"><ele>226.0</ele><time>2026-04-06T08:06:13Z</time></trkpt><trkpt lat="41.182126214161144" lon="16.0993077333836"><ele>226.0</ele><time>2026-04-06T08:06:14Z</time></trkpt><trkpt lat="41.18232770203317" lon="16.099404913012016"><ele>226.0</ele><time>2026-04-06T08:06:15Z</time></trkpt><trkpt lat="41.182534047550476" lon="16.099501624246216"><ele>225.0</ele><time>2026-04-06T08:06:16Z</time></trkpt><trkpt lat="41.182753766412" lon="16.099603491552667"><ele>224.0</ele><time>2026-04-06T08:06:17Z</time></trkpt><trkpt lat="41.18296363874375" lon="16.09970537870124"><ele>224.0</ele><time>2026-04-06T08:06:18Z</time></trkpt><trkpt lat="41.18316564986806" lon="16.099807877678572"><ele>224.0</ele><time>2026-04-06T08:06:19Z</time></trkpt><trkpt lat="41.18338539176106" lon="16.099908276851348"><ele>224.0</ele><time>2026-04-06T08:06:20Z</time></trkpt><trkpt lat="41.183595503660335" lon="16.100010706048828"><ele>224.0</ele><time>2026-04-06T08:06:21Z</time></trkpt><trkpt lat="41.18380146741899" lon="16.100123656806012"><ele>224.0</ele><time>2026-04-06T08:06:22Z</time></trkpt><trkpt lat="41.18401468120718" lon="16.100233961285376"><ele>224.0</ele><time>2026-04-06T08:06:23Z</time></trkpt><trkpt lat="41.18422211163695" lon="16.100343828318717"><ele>224.0</ele><time>2026-04-06T08:06:24Z</time></trkpt><trkpt lat="41.18443255558363" lon="16.1004491358242"><ele>224.0</ele><time>2026-04-06T08:06:25Z</time></trkpt><trkpt lat="41.18465196069886" lon="16.100555746389478"><ele>223.5</ele><time>2026-04-06T08:06:26Z</time></trkpt><trkpt lat="41.18486914823032" lon="16.100667612769573"><ele>223.0</ele><time>2026-04-06T08:06:27Z</time></trkpt><trkpt lat="41.185082983576294" lon="16.10078229617905"><ele>222.5</ele><time>2026-04-06T08:06:28Z</time></trkpt><trkpt lat="41.18530588515519" lon="16.100898181179808"><ele>222.0</ele><time>2026-04-06T08:06:29Z</time></trkpt><trkpt lat="41.18550552384124" lon="16.101003629525223"><ele>221.33333333333331</ele><time>2026-04-06T08:06:30Z</time></trkpt><trkpt lat="41.18569926687832" lon="16.10110380109118"><ele>220.66666666666666</ele><time>2026-04-06T08:06:31Z</time></trkpt><trkpt lat="41.185881982152644" lon="16.101205135723703"><ele>220.0</ele><time>2026-04-06T08:06:32Z</time></trkpt><trkpt lat="41.18606380925682" lon="16.10131517598789"><ele>220.0</ele><time>2026-04-06T08:06:33Z</time></trkpt><trkpt lat="41.18625132980358" lon="16.101425178987753"><ele>220.0</ele><time>2026-04-06T08:06:34Z</time></trkpt><trkpt lat="41.18643214456782" lon="16.101526595748986"><ele>220.0</ele><time>2026-04-06T08:06:35Z</time></trkpt><trkpt lat="41.18660791021623" lon="16.101622400410886"><ele>220.0</ele><time>2026-04-06T08:06:36Z</time></trkpt><trkpt lat="41.186796624112404" lon="16.101718371415306"><ele>220.0</ele><time>2026-04-06T08:06:37Z</time></trkpt><trkpt lat="41.18697483147991" lon="16.101805528296843"><ele>220.0</ele><time>2026-04-06T08:06:38Z</time></trkpt><trkpt lat="41.18713806120915" lon="16.101882024900522"><ele>220.0</ele><time>2026-04-06T08:06:39Z</time></trkpt><trkpt lat="41.18729611904027" lon="16.101956215339946"><ele>220.0</ele><time>2026-04-06T08:06:40Z</time></trkpt><trkpt lat="41.18745212786787" lon="16.10203485920834"><ele>220.0</ele><time>2026-04-06T08:06:41Z</time></trkpt><trkpt lat="41.18759376895247" lon="16.102107829710906"><ele>220.5</ele><time>2026-04-06T08:06:42Z</time></trkpt><trkpt lat="41.18773225936068" lon="16.10218507552671"><ele>221.0</ele><time>2026-04-06T08:06:43Z</time></trkpt><trkpt lat="41.187863410165924" lon="16.102255277318825"><ele>221.5</ele><time>2026-04-06T08:06:44Z</time></trkpt><trkpt lat="41.18798828822511" lon="16.102319977378684"><ele>222.0</ele><time>2026-04-06T08:06:45Z</time></trkpt><trkpt lat="41.188107988071124" lon="16.102381506292172"><ele>221.75</ele><time>2026-04-06T08:06:46Z</time></trkpt><trkpt lat="41.18822296921079" lon="16.102444258805857"><ele>221.5</ele><time>2026-04-06T08:06:47Z</time></trkpt><trkpt lat="41.188337650179676" lon="16.102506214427414"><ele>221.25</ele><time>2026-04-06T08:06:48Z</time></trkpt><trkpt lat="41.188461249788475" lon="16.102575351387873"><ele>221.0</ele><time>2026-04-06T08:06:49Z</time></trkpt><trkpt lat="41.18858264179195" lon="16.102638633189276"><ele>221.0</ele><time>2026-04-06T08:06:50Z</time></trkpt><trkpt lat="41.188702236327124" lon="16.102702107685122"><ele>221.0</ele><time>2026-04-06T08:06:51Z</time></trkpt><trkpt lat="41.188814921175734" lon="16.102760104416525"><ele>221.0</ele><time>2026-04-06T08:06:52Z</time></trkpt><trkpt lat="41.18892052576749" lon="16.102811799017168"><ele>221.0</ele><time>2026-04-06T08:06:53Z</time></trkpt><trkpt lat="41.189020625846574" lon="16.102859096156905"><ele>221.4</ele><time>2026-04-06T08:06:54Z</time></trkpt><trkpt lat="41.1891201413154" lon="16.102905419148666"><ele>221.8</ele><time>2026-04-06T08:06:55Z</time></trkpt><trkpt lat="41.1892094103814" lon="16.10295256093367"><ele>222.20000000000002</ele><time>2026-04-06T08:06:56Z</time></trkpt><trkpt lat="41.18929970303026" lon="16.102999107164305"><ele>222.60000000000002</ele><time>2026-04-06T08:06:57Z</time></trkpt><trkpt lat="41.189386436334686" lon="16.103047814832713"><ele>223.0</ele><time>2026-04-06T08:06:58Z</time></trkpt><trkpt lat="41.189470125682824" lon="16.103101012581632"><ele>222.99999999999997</ele><time>2026-04-06T08:06:59Z</time></trkpt><trkpt lat="41.18954118518085" lon="16.1031347490429"><ele>223.0</ele><time>2026-04-06T08:07:00Z</time></trkpt><trkpt lat="41.18961400969221" lon="16.103172478906988"><ele>223.0</ele><time>2026-04-06T08:07:01Z</time></trkpt><trkpt lat="41.189683085165" lon="16.103212601649222"><ele>223.0</ele><time>2026-04-06T08:07:02Z</time></trkpt><trkpt lat="41.18974597045661" lon="16.103245184803956"><ele>222.99999999999997</ele><time>2026-04-06T08:07:03Z</time></trkpt><trkpt lat="41.189805388033896" lon="16.103275335715136"><ele>223.0</ele><time>2026-04-06T08:07:04Z</time></trkpt><trkpt lat="41.18991630708462" lon="16.10332690915862"><ele>222.75</ele><time>2026-04-06T08:07:06Z</time></trkpt><trkpt lat="41.19000985424124" lon="16.10337583772072"><ele>222.5</ele><time>2026-04-06T08:07:08Z</time></trkpt><trkpt lat="41.19013758959383" lon="16.103440354147935"><ele>222.25</ele><time>2026-04-06T08:07:10Z</time></trkpt><trkpt lat="41.190239832841556" lon="16.103489070910392"><ele>222.0</ele><time>2026-04-06T08:07:11Z</time></trkpt><trkpt lat="41.190359570190935" lon="16.10354623289259"><ele>222.0</ele><time>2026-04-06T08:07:12Z</time></trkpt><trkpt lat="41.19049205509066" lon="16.10361147471486"><ele>222.0</ele><time>2026-04-06T08:07:13Z</time></trkpt><trkpt lat="41.19062968717619" lon="16.103675455957585"><ele>222.0</ele><time>2026-04-06T08:07:14Z</time></trkpt><trkpt lat="41.190765332272186" lon="16.103724221085155"><ele>222.0</ele><time>2026-04-06T08:07:15Z</time></trkpt><trkpt lat="41.190881507513744" lon="16.10377908492703"><ele>221.39999999999998</ele><time>2026-04-06T08:07:16Z</time></trkpt><trkpt lat="41.19098546116711" lon="16.103792085084766"><ele>220.79999999999998</ele><time>2026-04-06T08:07:17Z</time></trkpt><trkpt lat="41.19106004690929" lon="16.103876762323434"><ele>220.2</ele><time>2026-04-06T08:07:18Z</time></trkpt><trkpt lat="41.19113811061188" lon="16.103917520929542"><ele>219.6</ele><time>2026-04-06T08:07:19Z</time></trkpt><trkpt lat="41.19120427154167" lon="16.103945523608534"><ele>219.0</ele><time>2026-04-06T08:07:20Z</time></trkpt><trkpt lat="41.191312026230854" lon="16.104005722139732"><ele>219.0</ele><time>2026-04-06T08:07:22Z</time></trkpt><trkpt lat="41.19136994142331" lon="16.10404584470079"><ele>219.0</ele><time>2026-04-06T08:07:23Z</time></trkpt><trkpt lat="41.19144018385375" lon="16.104089052390155"><ele>219.0</ele><time>2026-04-06T08:07:24Z</time></trkpt><trkpt lat="41.19152048275472" lon="16.104126952548853"><ele>219.0</ele><time>2026-04-06T08:07:25Z</time></trkpt><trkpt lat="41.191606616021524" lon="16.104166903026847"><ele>219.0</ele><time>2026-04-06T08:07:26Z</time></trkpt><trkpt lat="41.19170013521853" lon="16.10420847016132"><ele>219.0</ele><time>2026-04-06T08:07:27Z</time></trkpt><trkpt lat="41.19180049651386" lon="16.104258984348764"><ele>217.75</ele><time>2026-04-06T08:07:28Z</time></trkpt><trkpt lat="41.19190379866722" lon="16.104304993482884"><ele>216.5</ele><time>2026-04-06T08:07:29Z</time></trkpt><trkpt lat="41.19201558455489" lon="16.10435596229672"><ele>215.25</ele><time>2026-04-06T08:07:30Z</time></trkpt><trkpt lat="41.192128626911796" lon="16.10440989317259"><ele>214.0</ele><time>2026-04-06T08:07:31Z</time></trkpt><trkpt lat="41.19225222039302" lon="16.10446717353671"><ele>213.5</ele><time>2026-04-06T08:07:32Z</time></trkpt><trkpt lat="41.192377478791435" lon="16.104528786167"><ele>213.0</ele><time>2026-04-06T08:07:33Z</time></trkpt><trkpt lat="41.19250650163304" lon="16.104590361120252"><ele>212.5</ele><time>2026-04-06T08:07:34Z</time></trkpt><trkpt lat="41.19264484279303" lon="16.104653400589893"><ele>212.0</ele><time>2026-04-06T08:07:35Z</time></trkpt><trkpt lat="41.192793292798456" lon="16.104723741149897"><ele>212.0</ele><time>2026-04-06T08:07:36Z</time></trkpt><trkpt lat="41.192942972444065" lon="16.104794169994705"><ele>212.0</ele><time>2026-04-06T08:07:37Z</time></trkpt><trkpt lat="41.19309709238036" lon="16.104864931847885"><ele>212.0</ele><time>2026-04-06T08:07:38Z</time></trkpt><trkpt lat="41.19326056636302" lon="16.10493963569068"><ele>211.33333333333334</ele><time>2026-04-06T08:07:39Z</time></trkpt><trkpt lat="41.1934276923296" lon="16.10501339777204"><ele>210.66666666666669</ele><time>2026-04-06T08:07:40Z</time></trkpt><trkpt lat="41.19360199566273" lon="16.105091891939722"><ele>210.0</ele><time>2026-04-06T08:07:41Z</time></trkpt><trkpt lat="41.193775693167105" lon="16.105175753003405"><ele>210.0</ele><time>2026-04-06T08:07:42Z</time></trkpt><trkpt lat="41.19394937262075" lon="16.10526476204192"><ele>210.0</ele><time>2026-04-06T08:07:43Z</time></trkpt><trkpt lat="41.194125927906114" lon="16.105351948125392"><ele>210.0</ele><time>2026-04-06T08:07:44Z</time></trkpt><trkpt lat="41.19430534163831" lon="16.105438821030596"><ele>209.0</ele><time>2026-04-06T08:07:45Z</time></trkpt><trkpt lat="41.194484467145685" lon="16.105524997844977"><ele>208.0</ele><time>2026-04-06T08:07:46Z</time></trkpt><trkpt lat="41.194666932452506" lon="16.10560665994822"><ele>207.0</ele><time>2026-04-06T08:07:47Z</time></trkpt><trkpt lat="41.194847558425415" lon="16.105689477235458"><ele>206.0</ele><time>2026-04-06T08:07:48Z</time></trkpt><trkpt lat="41.19503148744889" lon="16.105777459644308"><ele>205.0</ele><time>2026-04-06T08:07:49Z</time></trkpt><trkpt lat="41.195215476611416" lon="16.105862167970255"><ele>204.0</ele><time>2026-04-06T08:07:50Z</time></trkpt><trkpt lat="41.19540215178034" lon="16.105948682124005"><ele>204.0</ele><time>2026-04-06T08:07:51Z</time></trkpt><trkpt lat="41.19559119672471" lon="16.106033385129702"><ele>204.0</ele><time>2026-04-06T08:07:52Z</time></trkpt><trkpt lat="41.19578147611237" lon="16.106116266360733"><ele>204.0</ele><time>2026-04-06T08:07:53Z</time></trkpt><trkpt lat="41.195968592443364" lon="16.106204026186756"><ele>203.0</ele><time>2026-04-06T08:07:54Z</time></trkpt><trkpt lat="41.19615335860762" lon="16.106294744117374"><ele>202.0</ele><time>2026-04-06T08:07:55Z</time></trkpt><trkpt lat="41.19633908238478" lon="16.106382693974503"><ele>201.0</ele><time>2026-04-06T08:07:56Z</time></trkpt><trkpt lat="41.19652565606376" lon="16.10646790088151"><ele>200.66666666666669</ele><time>2026-04-06T08:07:57Z</time></trkpt><trkpt lat="41.1967095392738" lon="16.106558678741127"><ele>200.33333333333334</ele><time>2026-04-06T08:07:58Z</time></trkpt><trkpt lat="41.19689862787979" lon="16.106643286058507"><ele>200.0</ele><time>2026-04-06T08:07:59Z</time></trkpt><trkpt lat="41.197074512565614" lon="16.10672429819168"><ele>199.75</ele><time>2026-04-06T08:08:00Z</time></trkpt><trkpt lat="41.197214590382764" lon="16.106792000250888"><ele>199.5</ele><time>2026-04-06T08:08:01Z</time></trkpt><trkpt lat="41.197330692951866" lon="16.10684864643618"><ele>199.25</ele><time>2026-04-06T08:08:02Z</time></trkpt><trkpt lat="41.197421303057354" lon="16.106893333586548"><ele>199.0</ele><time>2026-04-06T08:08:03Z</time></trkpt><trkpt lat="41.19753912955283" lon="16.106917203002833"><ele>198.49999999999997</ele><time>2026-04-06T08:08:05Z</time></trkpt><trkpt lat="41.197601625949595" lon="16.106944756811476"><ele>198.0</ele><time>2026-04-06T08:08:06Z</time></trkpt><trkpt lat="41.19766883481339" lon="16.107007703533434"><ele>197.5</ele><time>2026-04-06T08:08:07Z</time></trkpt><trkpt lat="41.197728295761664" lon="16.10703749802356"><ele>197.0</ele><time>2026-04-06T08:08:08Z</time></trkpt><trkpt lat="41.197792598755825" lon="16.10706126606922"><ele>196.49999999999997</ele><time>2026-04-06T08:08:09Z</time></trkpt><trkpt lat="41.197878121280596" lon="16.107098137070583"><ele>196.0</ele><time>2026-04-06T08:08:10Z</time></trkpt><trkpt lat="41.19796738604129" lon="16.107157276888596"><ele>196.0</ele><time>2026-04-06T08:08:11Z</time></trkpt><trkpt lat="41.19807730856925" lon="16.107213305303084"><ele>196.0</ele><time>2026-04-06T08:08:12Z</time></trkpt><trkpt lat="41.198196588237025" lon="16.107266915603883"><ele>196.0</ele><time>2026-04-06T08:08:13Z</time></trkpt><trkpt lat="41.198324556694864" lon="16.107318928613388"><ele>196.0</ele><time>2026-04-06T08:08:14Z</time></trkpt><trkpt lat="41.19846351666698" lon="16.10737467207172"><ele>195.66666666666666</ele><time>2026-04-06T08:08:15Z</time></trkpt><trkpt lat="41.19861094595064" lon="16.107435286734077"><ele>195.33333333333331</ele><time>2026-04-06T08:08:16Z</time></trkpt><trkpt lat="41.19876612228589" lon="16.107499045398058"><ele>195.0</ele><time>2026-04-06T08:08:17Z</time></trkpt><trkpt lat="41.19893546417153" lon="16.10757283820463"><ele>194.0</ele><time>2026-04-06T08:08:18Z</time></trkpt><trkpt lat="41.19910335108598" lon="16.107656944613545"><ele>193.0</ele><time>2026-04-06T08:08:19Z</time></trkpt><trkpt lat="41.19927560491431" lon="16.107751611806385"><ele>192.0</ele><time>2026-04-06T08:08:20Z</time></trkpt><trkpt lat="41.199443237911986" lon="16.107840420444333"><ele>192.0</ele><time>2026-04-06T08:08:21Z</time></trkpt><trkpt lat="41.19963537019468" lon="16.107936830451713"><ele>192.0</ele><time>2026-04-06T08:08:22Z</time></trkpt><trkpt lat="41.19983055475734" lon="16.10803583494497"><ele>192.0</ele><time>2026-04-06T08:08:23Z</time></trkpt><trkpt lat="41.20002128248637" lon="16.10812589283248"><ele>191.0</ele><time>2026-04-06T08:08:24Z</time></trkpt><trkpt lat="41.200209928546286" lon="16.10821186343561"><ele>190.0</ele><time>2026-04-06T08:08:25Z</time></trkpt><trkpt lat="41.20040654192029" lon="16.108304039840622"><ele>189.0</ele><time>2026-04-06T08:08:26Z</time></trkpt><trkpt lat="41.20060242221441" lon="16.10839381320609"><ele>188.0</ele><time>2026-04-06T08:08:27Z</time></trkpt><trkpt lat="41.20080713457556" lon="16.1084996505213"><ele>187.0</ele><time>2026-04-06T08:08:28Z</time></trkpt><trkpt lat="41.201001856041266" lon="16.108584508364626"><ele>186.0</ele><time>2026-04-06T08:08:29Z</time></trkpt><trkpt lat="41.201203335431565" lon="16.1086789057138"><ele>186.0</ele><time>2026-04-06T08:08:30Z</time></trkpt><trkpt lat="41.20140451735978" lon="16.108769502346956"><ele>186.0</ele><time>2026-04-06T08:08:31Z</time></trkpt><trkpt lat="41.201604382091865" lon="16.108858975614634"><ele>186.0</ele><time>2026-04-06T08:08:32Z</time></trkpt><trkpt lat="41.20180837219904" lon="16.108949378512907"><ele>185.66666666666666</ele><time>2026-04-06T08:08:33Z</time></trkpt><trkpt lat="41.2020123021888" lon="16.109040467907658"><ele>185.33333333333331</ele><time>2026-04-06T08:08:34Z</time></trkpt><trkpt lat="41.202214371592696" lon="16.109131108942016"><ele>185.0</ele><time>2026-04-06T08:08:35Z</time></trkpt><trkpt lat="41.20241442075098" lon="16.109232994562603"><ele>185.0</ele><time>2026-04-06T08:08:36Z</time></trkpt><trkpt lat="41.202616742438856" lon="16.109349444033526"><ele>185.0</ele><time>2026-04-06T08:08:37Z</time></trkpt><trkpt lat="41.20281187643193" lon="16.109431199711384"><ele>185.0</ele><time>2026-04-06T08:08:38Z</time></trkpt><trkpt lat="41.20300628717525" lon="16.10951660483814"><ele>186.33333333333331</ele><time>2026-04-06T08:08:39Z</time></trkpt><trkpt lat="41.2031789214693" lon="16.109603418848433"><ele>187.66666666666666</ele><time>2026-04-06T08:08:40Z</time></trkpt><trkpt lat="41.203340993887274" lon="16.109681873067892"><ele>189.0</ele><time>2026-04-06T08:08:41Z</time></trkpt><trkpt lat="41.20349987236582" lon="16.109766675056512"><ele>189.0</ele><time>2026-04-06T08:08:42Z</time></trkpt><trkpt lat="41.203656362129244" lon="16.109852633164383"><ele>189.0</ele><time>2026-04-06T08:08:43Z</time></trkpt><trkpt lat="41.203819329333555" lon="16.109942429135884"><ele>189.0</ele><time>2026-04-06T08:08:44Z</time></trkpt><trkpt lat="41.203989391310245" lon="16.110019920071956"><ele>191.0</ele><time>2026-04-06T08:08:45Z</time></trkpt><trkpt lat="41.20416453226892" lon="16.110100181290942"><ele>193.0</ele><time>2026-04-06T08:08:46Z</time></trkpt><trkpt lat="41.20434146239434" lon="16.11018121908471"><ele>195.0</ele><time>2026-04-06T08:08:47Z</time></trkpt><trkpt lat="41.20452566294528" lon="16.110265451986844"><ele>195.0</ele><time>2026-04-06T08:08:48Z</time></trkpt><trkpt lat="41.20471026678326" lon="16.110357180823556"><ele>195.0</ele><time>2026-04-06T08:08:49Z</time></trkpt><trkpt lat="41.20489848255239" lon="16.110449046056253"><ele>195.0</ele><time>2026-04-06T08:08:50Z</time></trkpt><trkpt lat="41.20509582367535" lon="16.110531704568583"><ele>195.33333333333331</ele><time>2026-04-06T08:08:51Z</time></trkpt><trkpt lat="41.20529581819209" lon="16.110619939959022"><ele>195.66666666666666</ele><time>2026-04-06T08:08:52Z</time></trkpt><trkpt lat="41.20549538127927" lon="16.110712407945243"><ele>196.0</ele><time>2026-04-06T08:08:53Z</time></trkpt><trkpt lat="41.20569270244583" lon="16.11080916133431"><ele>195.0</ele><time>2026-04-06T08:08:54Z</time></trkpt><trkpt lat="41.2058924144205" lon="16.110903473295902"><ele>194.0</ele><time>2026-04-06T08:08:55Z</time></trkpt><trkpt lat="41.20609351658498" lon="16.11099799225712"><ele>193.0</ele><time>2026-04-06T08:08:56Z</time></trkpt><trkpt lat="41.206296598854244" lon="16.11109653391414"><ele>192.0</ele><time>2026-04-06T08:08:57Z</time></trkpt><trkpt lat="41.20650134647656" lon="16.11119561747221"><ele>191.0</ele><time>2026-04-06T08:08:58Z</time></trkpt><trkpt lat="41.20670826716614" lon="16.111294877105816"><ele>190.0</ele><time>2026-04-06T08:08:59Z</time></trkpt><trkpt lat="41.20691029013805" lon="16.111397215394508"><ele>190.0</ele><time>2026-04-06T08:09:00Z</time></trkpt><trkpt lat="41.207114266004496" lon="16.111496340851257"><ele>190.0</ele><time>2026-04-06T08:09:01Z</time></trkpt><trkpt lat="41.207320380996194" lon="16.111593399397986"><ele>190.0</ele><time>2026-04-06T08:09:02Z</time></trkpt><trkpt lat="41.20753779395083" lon="16.111695195333503"><ele>189.33333333333334</ele><time>2026-04-06T08:09:03Z</time></trkpt><trkpt lat="41.20773498860664" lon="16.111794200052646"><ele>188.66666666666666</ele><time>2026-04-06T08:09:04Z</time></trkpt><trkpt lat="41.207941917838454" lon="16.111888598956135"><ele>188.0</ele><time>2026-04-06T08:09:05Z</time></trkpt><trkpt lat="41.208147502865934" lon="16.1119787057446"><ele>187.0</ele><time>2026-04-06T08:09:06Z</time></trkpt><trkpt lat="41.20835511296196" lon="16.112073843412727"><ele>186.0</ele><time>2026-04-06T08:09:07Z</time></trkpt><trkpt lat="41.20856628483946" lon="16.11217052179688"><ele>185.0</ele><time>2026-04-06T08:09:08Z</time></trkpt><trkpt lat="41.20876127293321" lon="16.112264119440837"><ele>185.0</ele><time>2026-04-06T08:09:09Z</time></trkpt><trkpt lat="41.2089713995235" lon="16.112357621399966"><ele>185.0</ele><time>2026-04-06T08:09:10Z</time></trkpt><trkpt lat="41.20917361379411" lon="16.112454314427982"><ele>185.0</ele><time>2026-04-06T08:09:11Z</time></trkpt><trkpt lat="41.20936963200787" lon="16.112554591231227"><ele>185.33333333333331</ele><time>2026-04-06T08:09:12Z</time></trkpt><trkpt lat="41.20956689909836" lon="16.112650177843523"><ele>185.66666666666666</ele><time>2026-04-06T08:09:13Z</time></trkpt><trkpt lat="41.20977086695242" lon="16.112742164131546"><ele>186.0</ele><time>2026-04-06T08:09:14Z</time></trkpt><trkpt lat="41.20996861934729" lon="16.11283844745573"><ele>185.0</ele><time>2026-04-06T08:09:15Z</time></trkpt><trkpt lat="41.2101686358405" lon="16.11293300380084"><ele>184.0</ele><time>2026-04-06T08:09:16Z</time></trkpt><trkpt lat="41.21037293912195" lon="16.1130257735174"><ele>183.0</ele><time>2026-04-06T08:09:17Z</time></trkpt><trkpt lat="41.21057242141954" lon="16.11312015625273"><ele>183.66666666666666</ele><time>2026-04-06T08:09:18Z</time></trkpt><trkpt lat="41.21077328149832" lon="16.11321408894275"><ele>184.33333333333331</ele><time>2026-04-06T08:09:19Z</time></trkpt><trkpt lat="41.21097135216802" lon="16.113307792248364"><ele>185.0</ele><time>2026-04-06T08:09:20Z</time></trkpt><trkpt lat="41.21117459444949" lon="16.113388859153815"><ele>185.66666666666666</ele><time>2026-04-06T08:09:21Z</time></trkpt><trkpt lat="41.21136245263477" lon="16.11347902291363"><ele>186.33333333333334</ele><time>2026-04-06T08:09:22Z</time></trkpt><trkpt lat="41.21156116315381" lon="16.113567349748035"><ele>187.0</ele><time>2026-04-06T08:09:23Z</time></trkpt><trkpt lat="41.211767883789214" lon="16.113650592890277"><ele>187.66666666666669</ele><time>2026-04-06T08:09:24Z</time></trkpt><trkpt lat="41.211947224917736" lon="16.113752615074176"><ele>188.33333333333334</ele><time>2026-04-06T08:09:25Z</time></trkpt><trkpt lat="41.21214236417018" lon="16.113846099452733"><ele>189.0</ele><time>2026-04-06T08:09:26Z</time></trkpt><trkpt lat="41.21234538138462" lon="16.113941704617435"><ele>189.66666666666666</ele><time>2026-04-06T08:09:27Z</time></trkpt><trkpt lat="41.21252894276509" lon="16.114049834948784"><ele>190.33333333333331</ele><time>2026-04-06T08:09:28Z</time></trkpt><trkpt lat="41.21271729485034" lon="16.114151907979167"><ele>191.0</ele><time>2026-04-06T08:09:29Z</time></trkpt><trkpt lat="41.21291655495856" lon="16.114249041304642"><ele>191.0</ele><time>2026-04-06T08:09:30Z</time></trkpt><trkpt lat="41.21311843789983" lon="16.114344023942213"><ele>191.0</ele><time>2026-04-06T08:09:31Z</time></trkpt><trkpt lat="41.213310789328936" lon="16.114439662417023"><ele>191.0</ele><time>2026-04-06T08:09:32Z</time></trkpt><trkpt lat="41.21351432052178" lon="16.11453356533933"><ele>191.0</ele><time>2026-04-06T08:09:33Z</time></trkpt><trkpt lat="41.21372240706589" lon="16.114629968607815"><ele>191.0</ele><time>2026-04-06T08:09:34Z</time></trkpt><trkpt lat="41.21392834083672" lon="16.114726306731633"><ele>191.0</ele><time>2026-04-06T08:09:35Z</time></trkpt><trkpt lat="41.21413461282773" lon="16.11482215595987"><ele>189.66666666666666</ele><time>2026-04-06T08:09:36Z</time></trkpt><trkpt lat="41.21434596705261" lon="16.114919539247882"><ele>188.33333333333334</ele><time>2026-04-06T08:09:37Z</time></trkpt><trkpt lat="41.21454312600784" lon="16.115014787616538"><ele>187.0</ele><time>2026-04-06T08:09:38Z</time></trkpt><trkpt lat="41.21473094866397" lon="16.11511496109174"><ele>186.0</ele><time>2026-04-06T08:09:39Z</time></trkpt><trkpt lat="41.21491336238066" lon="16.115210075495934"><ele>185.0</ele><time>2026-04-06T08:09:40Z</time></trkpt><trkpt lat="41.21509180891371" lon="16.115300841931948"><ele>184.0</ele><time>2026-04-06T08:09:41Z</time></trkpt><trkpt lat="41.21527916597037" lon="16.115378688270336"><ele>184.0</ele><time>2026-04-06T08:09:42Z</time></trkpt><trkpt lat="41.21547299733935" lon="16.115457189751556"><ele>184.0</ele><time>2026-04-06T08:09:43Z</time></trkpt><trkpt lat="41.21566403689284" lon="16.115540886290155"><ele>184.0</ele><time>2026-04-06T08:09:44Z</time></trkpt><trkpt lat="41.215848753415344" lon="16.115627098116008"><ele>183.33333333333334</ele><time>2026-04-06T08:09:45Z</time></trkpt><trkpt lat="41.21604111876992" lon="16.115709189014012"><ele>182.66666666666666</ele><time>2026-04-06T08:09:46Z</time></trkpt><trkpt lat="41.216238229016795" lon="16.115790283291965"><ele>182.0</ele><time>2026-04-06T08:09:47Z</time></trkpt><trkpt lat="41.21644467931351" lon="16.11586714511746"><ele>180.33333333333331</ele><time>2026-04-06T08:09:48Z</time></trkpt><trkpt lat="41.216645941470425" lon="16.115931044439858"><ele>178.66666666666666</ele><time>2026-04-06T08:09:49Z</time></trkpt><trkpt lat="41.21685961853746" lon="16.115988774869347"><ele>177.0</ele><time>2026-04-06T08:09:50Z</time></trkpt><trkpt lat="41.217074439164755" lon="16.116047637487544"><ele>177.0</ele><time>2026-04-06T08:09:51Z</time></trkpt><trkpt lat="41.217276857996" lon="16.116092255750882"><ele>177.0</ele><time>2026-04-06T08:09:52Z</time></trkpt><trkpt lat="41.21746241174102" lon="16.116121819898375"><ele>177.0</ele><time>2026-04-06T08:09:53Z</time></trkpt><trkpt lat="41.21771324441944" lon="16.11617820373203"><ele>176.33333333333334</ele><time>2026-04-06T08:09:54Z</time></trkpt><trkpt lat="41.21792389359817" lon="16.11620721389747"><ele>175.66666666666669</ele><time>2026-04-06T08:09:55Z</time></trkpt><trkpt lat="41.21813959342101" lon="16.116229780558236"><ele>175.0</ele><time>2026-04-06T08:09:56Z</time></trkpt><trkpt lat="41.21836262019901" lon="16.116250209222407"><ele>173.33333333333334</ele><time>2026-04-06T08:09:57Z</time></trkpt><trkpt lat="41.21857733976817" lon="16.116256750456703"><ele>171.66666666666666</ele><time>2026-04-06T08:09:58Z</time></trkpt><trkpt lat="41.21879485648982" lon="16.116256269097946"><ele>170.0</ele><time>2026-04-06T08:09:59Z</time></trkpt><trkpt lat="41.21901439313903" lon="16.11625007093017"><ele>169.33333333333331</ele><time>2026-04-06T08:10:00Z</time></trkpt><trkpt lat="41.21923330435733" lon="16.116236435616145"><ele>168.66666666666666</ele><time>2026-04-06T08:10:01Z</time></trkpt><trkpt lat="41.219458279229165" lon="16.11621970134989"><ele>168.0</ele><time>2026-04-06T08:10:02Z</time></trkpt><trkpt lat="41.219666857230756" lon="16.116192273867693"><ele>167.33333333333334</ele><time>2026-04-06T08:10:03Z</time></trkpt><trkpt lat="41.21988671334141" lon="16.116163556340627"><ele>166.66666666666669</ele><time>2026-04-06T08:10:04Z</time></trkpt><trkpt lat="41.22011080928595" lon="16.116125779771618"><ele>166.0</ele><time>2026-04-06T08:10:05Z</time></trkpt><trkpt lat="41.22032157388868" lon="16.11607593631145"><ele>166.0</ele><time>2026-04-06T08:10:06Z</time></trkpt><trkpt lat="41.220543112234886" lon="16.116020244518094"><ele>166.0</ele><time>2026-04-06T08:10:07Z</time></trkpt><trkpt lat="41.22075140453923" lon="16.115959778841262"><ele>166.0</ele><time>2026-04-06T08:10:08Z</time></trkpt><trkpt lat="41.22096977161531" lon="16.11589016692953"><ele>165.33333333333334</ele><time>2026-04-06T08:10:09Z</time></trkpt><trkpt lat="41.22118445518657" lon="16.115816581392284"><ele>164.66666666666666</ele><time>2026-04-06T08:10:10Z</time></trkpt><trkpt lat="41.221397252757455" lon="16.11573625239329"><ele>164.0</ele><time>2026-04-06T08:10:11Z</time></trkpt><trkpt lat="41.22160497228735" lon="16.115643541386305"><ele>162.66666666666666</ele><time>2026-04-06T08:10:12Z</time></trkpt><trkpt lat="41.22181340600649" lon="16.115542534465277"><ele>161.33333333333334</ele><time>2026-04-06T08:10:13Z</time></trkpt><trkpt lat="41.2220177920195" lon="16.115440374391397"><ele>160.0</ele><time>2026-04-06T08:10:14Z</time></trkpt><trkpt lat="41.22222350170417" lon="16.115330079973194"><ele>159.66666666666669</ele><time>2026-04-06T08:10:15Z</time></trkpt><trkpt lat="41.222427615461356" lon="16.115217591612247"><ele>159.33333333333334</ele><time>2026-04-06T08:10:16Z</time></trkpt><trkpt lat="41.22262640761747" lon="16.115097483933365"><ele>159.0</ele><time>2026-04-06T08:10:17Z</time></trkpt><trkpt lat="41.22282888716192" lon="16.11497315672979"><ele>159.33333333333334</ele><time>2026-04-06T08:10:18Z</time></trkpt><trkpt lat="41.22302545884501" lon="16.114848815894653"><ele>159.66666666666669</ele><time>2026-04-06T08:10:19Z</time></trkpt><trkpt lat="41.223222876899314" lon="16.1147213645645"><ele>160.0</ele><time>2026-04-06T08:10:20Z</time></trkpt><trkpt lat="41.22341760614689" lon="16.114590344805872"><ele>159.33333333333334</ele><time>2026-04-06T08:10:21Z</time></trkpt><trkpt lat="41.22361021449219" lon="16.11446161503898"><ele>158.66666666666666</ele><time>2026-04-06T08:10:22Z</time></trkpt><trkpt lat="41.223795716561646" lon="16.114334707829297"><ele>158.0</ele><time>2026-04-06T08:10:23Z</time></trkpt><trkpt lat="41.22399376228222" lon="16.114208799068006"><ele>157.66666666666666</ele><time>2026-04-06T08:10:24Z</time></trkpt><trkpt lat="41.22418633822148" lon="16.114085720035163"><ele>157.33333333333334</ele><time>2026-04-06T08:10:25Z</time></trkpt><trkpt lat="41.22437328374058" lon="16.113961460228417"><ele>157.0</ele><time>2026-04-06T08:10:26Z</time></trkpt><trkpt lat="41.22456067114205" lon="16.11383907232884"><ele>157.0</ele><time>2026-04-06T08:10:27Z</time></trkpt><trkpt lat="41.22475194199156" lon="16.113713443922865"><ele>157.0</ele><time>2026-04-06T08:10:28Z</time></trkpt><trkpt lat="41.224926615516495" lon="16.113597810996932"><ele>157.0</ele><time>2026-04-06T08:10:29Z</time></trkpt><trkpt lat="41.22511327961985" lon="16.113479474614522"><ele>156.66666666666669</ele><time>2026-04-06T08:10:30Z</time></trkpt><trkpt lat="41.22527991883588" lon="16.113361175353347"><ele>156.33333333333334</ele><time>2026-04-06T08:10:31Z</time></trkpt><trkpt lat="41.225450337565064" lon="16.113239872831233"><ele>156.0</ele><time>2026-04-06T08:10:32Z</time></trkpt><trkpt lat="41.225628906486655" lon="16.1131133129331"><ele>154.33333333333334</ele><time>2026-04-06T08:10:33Z</time></trkpt><trkpt lat="41.22580115256002" lon="16.112999747504055"><ele>152.66666666666669</ele><time>2026-04-06T08:10:34Z</time></trkpt><trkpt lat="41.225977479188295" lon="16.112883376164273"><ele>151.0</ele><time>2026-04-06T08:10:35Z</time></trkpt><trkpt lat="41.22614600472857" lon="16.11277917875284"><ele>151.0</ele><time>2026-04-06T08:10:36Z</time></trkpt><trkpt lat="41.22630192720967" lon="16.112655858341725"><ele>151.0</ele><time>2026-04-06T08:10:37Z</time></trkpt><trkpt lat="41.22645274762869" lon="16.112524734453228"><ele>151.0</ele><time>2026-04-06T08:10:38Z</time></trkpt><trkpt lat="41.226608469594254" lon="16.112387688514136"><ele>151.0</ele><time>2026-04-06T08:10:39Z</time></trkpt><trkpt lat="41.22677326607625" lon="16.112255483745418"><ele>151.0</ele><time>2026-04-06T08:10:40Z</time></trkpt><trkpt lat="41.22694466201567" lon="16.11212915772129"><ele>151.0</ele><time>2026-04-06T08:10:41Z</time></trkpt><trkpt lat="41.22711581030979" lon="16.111997995331382"><ele>151.0</ele><time>2026-04-06T08:10:42Z</time></trkpt><trkpt lat="41.22728514062926" lon="16.111869317388614"><ele>151.0</ele><time>2026-04-06T08:10:43Z</time></trkpt><trkpt lat="41.227461459884196" lon="16.111727697181127"><ele>151.0</ele><time>2026-04-06T08:10:44Z</time></trkpt><trkpt lat="41.22762909699946" lon="16.111598429059317"><ele>150.0</ele><time>2026-04-06T08:10:45Z</time></trkpt><trkpt lat="41.22779567628545" lon="16.111468084256984"><ele>149.0</ele><time>2026-04-06T08:10:46Z</time></trkpt><trkpt lat="41.22797030401086" lon="16.111336975718718"><ele>148.0</ele><time>2026-04-06T08:10:47Z</time></trkpt><trkpt lat="41.22812959608282" lon="16.111191305612476"><ele>148.33333333333334</ele><time>2026-04-06T08:10:48Z</time></trkpt><trkpt lat="41.22828780476247" lon="16.11103700350849"><ele>148.66666666666666</ele><time>2026-04-06T08:10:49Z</time></trkpt><trkpt lat="41.228451366225805" lon="16.1108921005975"><ele>149.0</ele><time>2026-04-06T08:10:50Z</time></trkpt><trkpt lat="41.228606404572375" lon="16.11076052983824"><ele>149.0</ele><time>2026-04-06T08:10:51Z</time></trkpt><trkpt lat="41.228745375133876" lon="16.11063419779849"><ele>149.0</ele><time>2026-04-06T08:10:52Z</time></trkpt><trkpt lat="41.22887967608003" lon="16.11051473832444"><ele>149.0</ele><time>2026-04-06T08:10:53Z</time></trkpt><trkpt lat="41.22899645132684" lon="16.110414183910542"><ele>148.0</ele><time>2026-04-06T08:10:54Z</time></trkpt><trkpt lat="41.22910618229089" lon="16.110304591715963"><ele>147.0</ele><time>2026-04-06T08:10:55Z</time></trkpt><trkpt lat="41.22923499577111" lon="16.110178680775547"><ele>146.0</ele><time>2026-04-06T08:10:56Z</time></trkpt><trkpt lat="41.229376166824125" lon="16.110051536259224"><ele>146.0</ele><time>2026-04-06T08:10:57Z</time></trkpt><trkpt lat="41.229519145626995" lon="16.1099248251336"><ele>146.0</ele><time>2026-04-06T08:10:58Z</time></trkpt><trkpt lat="41.22967705012942" lon="16.10978156174637"><ele>146.0</ele><time>2026-04-06T08:10:59Z</time></trkpt><trkpt lat="41.22982776658445" lon="16.109653601317014"><ele>147.33333333333331</ele><time>2026-04-06T08:11:00Z</time></trkpt><trkpt lat="41.22998834878397" lon="16.109514527620945"><ele>148.66666666666666</ele><time>2026-04-06T08:11:01Z</time></trkpt><trkpt lat="41.23014871483114" lon="16.109369893206008"><ele>150.0</ele><time>2026-04-06T08:11:02Z</time></trkpt><trkpt lat="41.230309296557024" lon="16.109220082576165"><ele>150.66666666666666</ele><time>2026-04-06T08:11:03Z</time></trkpt><trkpt lat="41.23046819036002" lon="16.10907063883033"><ele>151.33333333333331</ele><time>2026-04-06T08:11:04Z</time></trkpt><trkpt lat="41.230645524829534" lon="16.108918263245968"><ele>152.0</ele><time>2026-04-06T08:11:05Z</time></trkpt><trkpt lat="41.23081328097767" lon="16.108770061599902"><ele>152.66666666666666</ele><time>2026-04-06T08:11:06Z</time></trkpt><trkpt lat="41.23097323172594" lon="16.10862516968423"><ele>153.33333333333334</ele><time>2026-04-06T08:11:07Z</time></trkpt><trkpt lat="41.23113676395881" lon="16.108482950132228"><ele>154.0</ele><time>2026-04-06T08:11:08Z</time></trkpt><trkpt lat="41.23129901768584" lon="16.10833785621388"><ele>154.66666666666669</ele><time>2026-04-06T08:11:09Z</time></trkpt><trkpt lat="41.23146854368562" lon="16.10819171991411"><ele>155.33333333333334</ele><time>2026-04-06T08:11:10Z</time></trkpt><trkpt lat="41.231626340818465" lon="16.108037873357972"><ele>156.0</ele><time>2026-04-06T08:11:11Z</time></trkpt><trkpt lat="41.231783175107616" lon="16.1078777596615"><ele>156.66666666666666</ele><time>2026-04-06T08:11:12Z</time></trkpt><trkpt lat="41.23196841698159" lon="16.10772971881179"><ele>157.33333333333331</ele><time>2026-04-06T08:11:13Z</time></trkpt><trkpt lat="41.2321716872209" lon="16.107589065163257"><ele>158.0</ele><time>2026-04-06T08:11:14Z</time></trkpt><trkpt lat="41.232304792137626" lon="16.10741902846715"><ele>158.33333333333331</ele><time>2026-04-06T08:11:15Z</time></trkpt><trkpt lat="41.23247631054258" lon="16.107265876352862"><ele>158.66666666666666</ele><time>2026-04-06T08:11:16Z</time></trkpt><trkpt lat="41.23264602532602" lon="16.10711210481721"><ele>159.0</ele><time>2026-04-06T08:11:17Z</time></trkpt><trkpt lat="41.232814469659694" lon="16.106958021317396"><ele>159.0</ele><time>2026-04-06T08:11:18Z</time></trkpt><trkpt lat="41.23298615194838" lon="16.106805073922654"><ele>159.0</ele><time>2026-04-06T08:11:19Z</time></trkpt><trkpt lat="41.233162011044165" lon="16.10666433174827"><ele>159.0</ele><time>2026-04-06T08:11:20Z</time></trkpt><trkpt lat="41.23332548740029" lon="16.106502148996555"><ele>158.66666666666666</ele><time>2026-04-06T08:11:21Z</time></trkpt><trkpt lat="41.23348982753518" lon="16.106360079089473"><ele>158.33333333333331</ele><time>2026-04-06T08:11:22Z</time></trkpt><trkpt lat="41.23364827910427" lon="16.10621769174617"><ele>158.0</ele><time>2026-04-06T08:11:23Z</time></trkpt><trkpt lat="41.23380403666389" lon="16.106076543318483"><ele>158.0</ele><time>2026-04-06T08:11:24Z</time></trkpt><trkpt lat="41.233951898679024" lon="16.105932280412187"><ele>158.0</ele><time>2026-04-06T08:11:25Z</time></trkpt><trkpt lat="41.23409049159068" lon="16.10580755316646"><ele>158.0</ele><time>2026-04-06T08:11:26Z</time></trkpt><trkpt lat="41.23422553169723" lon="16.105692711812512"><ele>157.75</ele><time>2026-04-06T08:11:27Z</time></trkpt><trkpt lat="41.23435835562127" lon="16.105591735683745"><ele>157.5</ele><time>2026-04-06T08:11:28Z</time></trkpt><trkpt lat="41.23448477923267" lon="16.105504023317938"><ele>157.25</ele><time>2026-04-06T08:11:29Z</time></trkpt><trkpt lat="41.23461580463277" lon="16.105437679063886"><ele>157.0</ele><time>2026-04-06T08:11:30Z</time></trkpt><trkpt lat="41.23477008598733" lon="16.10539360936757"><ele>156.0</ele><time>2026-04-06T08:11:31Z</time></trkpt><trkpt lat="41.23492370419301" lon="16.105371211799035"><ele>155.0</ele><time>2026-04-06T08:11:32Z</time></trkpt><trkpt lat="41.23507926828093" lon="16.10540151833822"><ele>154.0</ele><time>2026-04-06T08:11:33Z</time></trkpt><trkpt lat="41.23523082476822" lon="16.105438393020844"><ele>154.0</ele><time>2026-04-06T08:11:34Z</time></trkpt><trkpt lat="41.23538300286632" lon="16.105504425468865"><ele>154.0</ele><time>2026-04-06T08:11:35Z</time></trkpt><trkpt lat="41.235527685438754" lon="16.10559013092864"><ele>154.0</ele><time>2026-04-06T08:11:36Z</time></trkpt><trkpt lat="41.23567304920053" lon="16.105666825351275"><ele>154.0</ele><time>2026-04-06T08:11:37Z</time></trkpt><trkpt lat="41.235790111765354" lon="16.105796190805236"><ele>154.0</ele><time>2026-04-06T08:11:38Z</time></trkpt><trkpt lat="41.23587984165751" lon="16.105926319046226"><ele>154.0</ele><time>2026-04-06T08:11:39Z</time></trkpt><trkpt lat="41.235941327594475" lon="16.106058730522086"><ele>154.0</ele><time>2026-04-06T08:11:40Z</time></trkpt><trkpt lat="41.235974889305204" lon="16.106202632753003"><ele>154.0</ele><time>2026-04-06T08:11:41Z</time></trkpt><trkpt lat="41.23597552737689" lon="16.106337415154947"><ele>154.0</ele><time>2026-04-06T08:11:42Z</time></trkpt><trkpt lat="41.23594330544265" lon="16.106450371004623"><ele>154.0</ele><time>2026-04-06T08:11:43Z</time></trkpt><trkpt lat="41.23589276583433" lon="16.106555654056287"><ele>154.0</ele><time>2026-04-06T08:11:44Z</time></trkpt><trkpt lat="41.23582118077036" lon="16.106644454071052"><ele>154.0</ele><time>2026-04-06T08:11:45Z</time></trkpt><trkpt lat="41.23573711696489" lon="16.106703871245237"><ele>154.0</ele><time>2026-04-06T08:11:46Z</time></trkpt><trkpt lat="41.23564754385382" lon="16.10672543773572"><ele>154.0</ele><time>2026-04-06T08:11:47Z</time></trkpt><trkpt lat="41.23556049657126" lon="16.106720069701712"><ele>154.0</ele><time>2026-04-06T08:11:48Z</time></trkpt><trkpt lat="41.23547853470202" lon="16.10668844720241"><ele>154.0</ele><time>2026-04-06T08:11:49Z</time></trkpt><trkpt lat="41.23539123839961" lon="16.106623116144164"><ele>154.0</ele><time>2026-04-06T08:11:50Z</time></trkpt><trkpt lat="41.23530309251438" lon="16.10654776319538"><ele>154.25</ele><time>2026-04-06T08:11:51Z</time></trkpt><trkpt lat="41.23521509570146" lon="16.10646840076304"><ele>154.5</ele><time>2026-04-06T08:11:52Z</time></trkpt><trkpt lat="41.23511946931142" lon="16.106382393331955"><ele>154.75</ele><time>2026-04-06T08:11:53Z</time></trkpt><trkpt lat="41.23501728050034" lon="16.10629757137028"><ele>155.0</ele><time>2026-04-06T08:11:54Z</time></trkpt><trkpt lat="41.23490982682292" lon="16.106213827279433"><ele>155.0</ele><time>2026-04-06T08:11:55Z</time></trkpt><trkpt lat="41.234798721794704" lon="16.10612706700241"><ele>155.0</ele><time>2026-04-06T08:11:56Z</time></trkpt><trkpt lat="41.23468368412721" lon="16.106035803667016"><ele>155.0</ele><time>2026-04-06T08:11:57Z</time></trkpt><trkpt lat="41.234560488083936" lon="16.105939446679862"><ele>155.0</ele><time>2026-04-06T08:11:58Z</time></trkpt><trkpt lat="41.23443439109368" lon="16.105844083702245"><ele>155.0</ele><time>2026-04-06T08:11:59Z</time></trkpt><trkpt lat="41.23430774229738" lon="16.10575062533265"><ele>155.0</ele><time>2026-04-06T08:12:00Z</time></trkpt><trkpt lat="41.23418351674807" lon="16.10565235780636"><ele>155.0</ele><time>2026-04-06T08:12:01Z</time></trkpt><trkpt lat="41.234063141585295" lon="16.105556580293126"><ele>155.0</ele><time>2026-04-06T08:12:02Z</time></trkpt><trkpt lat="41.23394003858407" lon="16.10546111972752"><ele>156.0</ele><time>2026-04-06T08:12:03Z</time></trkpt><trkpt lat="41.23381628144744" lon="16.105357209269243"><ele>157.0</ele><time>2026-04-06T08:12:04Z</time></trkpt><trkpt lat="41.23368984877539" lon="16.105250460377814"><ele>158.0</ele><time>2026-04-06T08:12:05Z</time></trkpt><trkpt lat="41.23356707600625" lon="16.105144308125492"><ele>159.0</ele><time>2026-04-06T08:12:06Z</time></trkpt><trkpt lat="41.23346897214026" lon="16.10504653860791"><ele>159.0</ele><time>2026-04-06T08:12:07Z</time></trkpt><trkpt lat="41.23339911577868" lon="16.1049486213733"><ele>159.0</ele><time>2026-04-06T08:12:08Z</time></trkpt><trkpt lat="41.23335334958398" lon="16.104844714814753"><ele>159.0</ele><time>2026-04-06T08:12:09Z</time></trkpt><trkpt lat="41.233330654879104" lon="16.10473054053976"><ele>159.0</ele><time>2026-04-06T08:12:10Z</time></trkpt><trkpt lat="41.23333015791733" lon="16.104609884946527"><ele>159.0</ele><time>2026-04-06T08:12:11Z</time></trkpt><trkpt lat="41.23335948637594" lon="16.10448536192888"><ele>159.2</ele><time>2026-04-06T08:12:12Z</time></trkpt><trkpt lat="41.2334119564441" lon="16.10437538864873"><ele>159.4</ele><time>2026-04-06T08:12:13Z</time></trkpt><trkpt lat="41.23348548016943" lon="16.104297706191883"><ele>159.6</ele><time>2026-04-06T08:12:14Z</time></trkpt><trkpt lat="41.233566250642696" lon="16.104258227322628"><ele>159.8</ele><time>2026-04-06T08:12:15Z</time></trkpt><trkpt lat="41.2336539674831" lon="16.104244268009044"><ele>160.0</ele><time>2026-04-06T08:12:16Z</time></trkpt><trkpt lat="41.233762131623536" lon="16.104242635257293"><ele>160.0</ele><time>2026-04-06T08:12:17Z</time></trkpt><trkpt lat="41.23387251340584" lon="16.104233414682795"><ele>160.0</ele><time>2026-04-06T08:12:18Z</time></trkpt><trkpt lat="41.23399675364273" lon="16.104221602392855"><ele>160.0</ele><time>2026-04-06T08:12:19Z</time></trkpt><trkpt lat="41.23413770787062" lon="16.104209379965745"><ele>160.0</ele><time>2026-04-06T08:12:20Z</time></trkpt><trkpt lat="41.23428818086557" lon="16.10419130641935"><ele>159.25</ele><time>2026-04-06T08:12:21Z</time></trkpt><trkpt lat="41.234450357197005" lon="16.10417367439613"><ele>158.5</ele><time>2026-04-06T08:12:22Z</time></trkpt><trkpt lat="41.234593306411824" lon="16.10416098802612"><ele>157.75</ele><time>2026-04-06T08:12:23Z</time></trkpt><trkpt lat="41.23469824891013" lon="16.104146221333213"><ele>157.0</ele><time>2026-04-06T08:12:24Z</time></trkpt><trkpt lat="41.234783170547324" lon="16.104137191010995"><ele>157.0</ele><time>2026-04-06T08:12:25Z</time></trkpt><trkpt lat="41.23488538884847" lon="16.10412368275223"><ele>157.0</ele><time>2026-04-06T08:12:26Z</time></trkpt><trkpt lat="41.234997589611204" lon="16.104111704372123"><ele>157.0</ele><time>2026-04-06T08:12:27Z</time></trkpt><trkpt lat="41.2351079062864" lon="16.10410960340625"><ele>157.0</ele><time>2026-04-06T08:12:28Z</time></trkpt><trkpt lat="41.235204381376185" lon="16.104134521529705"><ele>157.0</ele><time>2026-04-06T08:12:29Z</time></trkpt><trkpt lat="41.23528321240899" lon="16.104187319233375"><ele>157.0</ele><time>2026-04-06T08:12:30Z</time></trkpt><trkpt lat="41.23535733431808" lon="16.104273311868553"><ele>157.0</ele><time>2026-04-06T08:12:31Z</time></trkpt><trkpt lat="41.23541700428636" lon="16.10438706050902"><ele>157.0</ele><time>2026-04-06T08:12:32Z</time></trkpt><trkpt lat="41.23545613448547" lon="16.104508802443377"><ele>157.0</ele><time>2026-04-06T08:12:33Z</time></trkpt><trkpt lat="41.235466507082116" lon="16.104630066940558"><ele>157.0</ele><time>2026-04-06T08:12:34Z</time></trkpt><trkpt lat="41.23545118235033" lon="16.104764828439908"><ele>157.0</ele><time>2026-04-06T08:12:35Z</time></trkpt><trkpt lat="41.235419778778656" lon="16.104887001293825"><ele>157.0</ele><time>2026-04-06T08:12:36Z</time></trkpt><trkpt lat="41.23536321952464" lon="16.105001420812876"><ele>157.0</ele><time>2026-04-06T08:12:37Z</time></trkpt><trkpt lat="41.23528656037769" lon="16.105095348861976"><ele>157.0</ele><time>2026-04-06T08:12:38Z</time></trkpt><trkpt lat="41.23519455483218" lon="16.10516043041414"><ele>157.0</ele><time>2026-04-06T08:12:39Z</time></trkpt><trkpt lat="41.23509682907164" lon="16.105201360502978"><ele>157.0</ele><time>2026-04-06T08:12:40Z</time></trkpt><trkpt lat="41.23500022118318" lon="16.105224243646305"><ele>157.0</ele><time>2026-04-06T08:12:41Z</time></trkpt><trkpt lat="41.23492334750469" lon="16.10522246558389"><ele>157.0</ele><time>2026-04-06T08:12:42Z</time></trkpt><trkpt lat="41.2348212858247" lon="16.105220353967592"><ele>157.0</ele><time>2026-04-06T08:12:43Z</time></trkpt><trkpt lat="41.234706546712324" lon="16.10522445108231"><ele>157.0</ele><time>2026-04-06T08:12:44Z</time></trkpt><trkpt lat="41.234579603671854" lon="16.105259171982524"><ele>157.0</ele><time>2026-04-06T08:12:45Z</time></trkpt><trkpt lat="41.23444369695183" lon="16.105331764420065"><ele>157.0</ele><time>2026-04-06T08:12:46Z</time></trkpt><trkpt lat="41.23430811701474" lon="16.10543257370215"><ele>157.0</ele><time>2026-04-06T08:12:47Z</time></trkpt><trkpt lat="41.23416845729227" lon="16.105545744729792"><ele>157.0</ele><time>2026-04-06T08:12:48Z</time></trkpt><trkpt lat="41.2340237103443" lon="16.105666410105137"><ele>157.0</ele><time>2026-04-06T08:12:49Z</time></trkpt><trkpt lat="41.23388613385576" lon="16.105801793350285"><ele>157.0</ele><time>2026-04-06T08:12:50Z</time></trkpt><trkpt lat="41.23374318730194" lon="16.105928635524542"><ele>157.25</ele><time>2026-04-06T08:12:51Z</time></trkpt><trkpt lat="41.233616800890026" lon="16.106044128517105"><ele>157.5</ele><time>2026-04-06T08:12:52Z</time></trkpt><trkpt lat="41.23349333639253" lon="16.106146629278328"><ele>157.75</ele><time>2026-04-06T08:12:53Z</time></trkpt><trkpt lat="41.233374658453336" lon="16.106245779124617"><ele>158.0</ele><time>2026-04-06T08:12:54Z</time></trkpt><trkpt lat="41.2332680365048" lon="16.10633177150211"><ele>158.0</ele><time>2026-04-06T08:12:55Z</time></trkpt><trkpt lat="41.23317669379251" lon="16.106398150553574"><ele>158.0</ele><time>2026-04-06T08:12:56Z</time></trkpt><trkpt lat="41.233092105418336" lon="16.10644504783531"><ele>158.0</ele><time>2026-04-06T08:12:57Z</time></trkpt><trkpt lat="41.233034514063355" lon="16.106513204565722"><ele>158.0</ele><time>2026-04-06T08:12:58Z</time></trkpt><trkpt lat="41.23292480460648" lon="16.10645908582967"><ele>158.0</ele><time>2026-04-06T08:12:59Z</time></trkpt><trkpt lat="41.23283244804653" lon="16.106428101797118"><ele>158.5</ele><time>2026-04-06T08:13:00Z</time></trkpt><trkpt lat="41.23273039077647" lon="16.106369068871068"><ele>159.0</ele><time>2026-04-06T08:13:01Z</time></trkpt><trkpt lat="41.23262102302245" lon="16.106283520803654"><ele>159.5</ele><time>2026-04-06T08:13:02Z</time></trkpt><trkpt lat="41.23251679465667" lon="16.106169559410095"><ele>160.0</ele><time>2026-04-06T08:13:03Z</time></trkpt><trkpt lat="41.23243122318885" lon="16.10603098235677"><ele>160.0</ele><time>2026-04-06T08:13:04Z</time></trkpt><trkpt lat="41.23236641137321" lon="16.105868828744985"><ele>160.0</ele><time>2026-04-06T08:13:05Z</time></trkpt><trkpt lat="41.23230910192603" lon="16.10571214406787"><ele>160.0</ele><time>2026-04-06T08:13:06Z</time></trkpt><trkpt lat="41.2322965246077" lon="16.10554678595093"><ele>160.0</ele><time>2026-04-06T08:13:07Z</time></trkpt><trkpt lat="41.232297874054446" lon="16.105387073032478"><ele>160.25</ele><time>2026-04-06T08:13:08Z</time></trkpt><trkpt lat="41.232285296245045" lon="16.10521213340397"><ele>160.5</ele><time>2026-04-06T08:13:09Z</time></trkpt><trkpt lat="41.23233300496423" lon="16.10504651159989"><ele>160.75</ele><time>2026-04-06T08:13:10Z</time></trkpt><trkpt lat="41.232391444739584" lon="16.10490761046717"><ele>161.0</ele><time>2026-04-06T08:13:11Z</time></trkpt><trkpt lat="41.23246009809763" lon="16.10481090017327"><ele>161.16666666666666</ele><time>2026-04-06T08:13:12Z</time></trkpt><trkpt lat="41.232536841034424" lon="16.104742182058544"><ele>161.33333333333331</ele><time>2026-04-06T08:13:13Z</time></trkpt><trkpt lat="41.232625191002036" lon="16.104697400675573"><ele>161.5</ele><time>2026-04-06T08:13:14Z</time></trkpt><trkpt lat="41.232717306048784" lon="16.104677040034513"><ele>161.66666666666666</ele><time>2026-04-06T08:13:15Z</time></trkpt><trkpt lat="41.23279677829012" lon="16.1046831874042"><ele>161.83333333333334</ele><time>2026-04-06T08:13:16Z</time></trkpt><trkpt lat="41.23287504206461" lon="16.104709735595545"><ele>162.0</ele><time>2026-04-06T08:13:17Z</time></trkpt><trkpt lat="41.23296000122991" lon="16.10475751506402"><ele>162.0</ele><time>2026-04-06T08:13:18Z</time></trkpt><trkpt lat="41.23305455554872" lon="16.104826480848857"><ele>162.0</ele><time>2026-04-06T08:13:19Z</time></trkpt><trkpt lat="41.23316199591943" lon="16.104913878867798"><ele>162.0</ele><time>2026-04-06T08:13:20Z</time></trkpt><trkpt lat="41.23327320768113" lon="16.10501672552705"><ele>162.0</ele><time>2026-04-06T08:13:21Z</time></trkpt><trkpt lat="41.233396557413165" lon="16.105119257237714"><ele>161.0</ele><time>2026-04-06T08:13:22Z</time></trkpt><trkpt lat="41.23353200656033" lon="16.10522500991794"><ele>160.0</ele><time>2026-04-06T08:13:23Z</time></trkpt><trkpt lat="41.23366291152062" lon="16.105334465226427"><ele>159.0</ele><time>2026-04-06T08:13:24Z</time></trkpt><trkpt lat="41.233780932994115" lon="16.10543681605027"><ele>159.0</ele><time>2026-04-06T08:13:25Z</time></trkpt><trkpt lat="41.23389595949462" lon="16.105532344736908"><ele>159.0</ele><time>2026-04-06T08:13:26Z</time></trkpt><trkpt lat="41.233999172377224" lon="16.10561586917122"><ele>159.0</ele><time>2026-04-06T08:13:27Z</time></trkpt><trkpt lat="41.234086424848144" lon="16.105683266308247"><ele>159.0</ele><time>2026-04-06T08:13:28Z</time></trkpt><trkpt lat="41.23415792997337" lon="16.10574224124145"><ele>159.0</ele><time>2026-04-06T08:13:29Z</time></trkpt><trkpt lat="41.23421949903302" lon="16.10579391134197"><ele>158.33333333333334</ele><time>2026-04-06T08:13:30Z</time></trkpt><trkpt lat="41.234282302978826" lon="16.10585731789647"><ele>157.66666666666666</ele><time>2026-04-06T08:13:31Z</time></trkpt><trkpt lat="41.234340111284084" lon="16.105907360014523"><ele>157.0</ele><time>2026-04-06T08:13:32Z</time></trkpt><trkpt lat="41.23440879813223" lon="16.105966713864962"><ele>156.33333333333331</ele><time>2026-04-06T08:13:34Z</time></trkpt><trkpt lat="41.23448389567483" lon="16.106002900524572"><ele>155.66666666666666</ele><time>2026-04-06T08:13:41Z</time></trkpt><trkpt lat="41.23456144602775" lon="16.106088454220266"><ele>155.0</ele><time>2026-04-06T08:13:43Z</time></trkpt><trkpt lat="41.23461686790057" lon="16.106143995569855"><ele>155.0</ele><time>2026-04-06T08:13:46Z</time></trkpt><trkpt lat="41.23460458256112" lon="16.1060483823331"><ele>155.0</ele><time>2026-04-06T08:13:57Z</time></trkpt><trkpt lat="41.2345468428193" lon="16.105951710897102"><ele>155.0</ele><time>2026-04-06T08:13:58Z</time></trkpt><trkpt lat="41.23446461152356" lon="16.10587501336898"><ele>155.0</ele><time>2026-04-06T08:13:59Z</time></trkpt><trkpt lat="41.23437152623405" lon="16.105792894323084"><ele>155.0</ele><time>2026-04-06T08:14:00Z</time></trkpt><trkpt lat="41.23426588883596" lon="16.105714418100288"><ele>155.5</ele><time>2026-04-06T08:14:01Z</time></trkpt><trkpt lat="41.234151249476355" lon="16.105621780614445"><ele>156.0</ele><time>2026-04-06T08:14:02Z</time></trkpt><trkpt lat="41.234030603636" lon="16.105527814027763"><ele>156.5</ele><time>2026-04-06T08:14:03Z</time></trkpt><trkpt lat="41.23390421309819" lon="16.105424277856834"><ele>157.0</ele><time>2026-04-06T08:14:04Z</time></trkpt><trkpt lat="41.23376372463287" lon="16.105312800565233"><ele>157.66666666666669</ele><time>2026-04-06T08:14:05Z</time></trkpt><trkpt lat="41.23362434803574" lon="16.1052016606417"><ele>158.33333333333334</ele><time>2026-04-06T08:14:06Z</time></trkpt><trkpt lat="41.233483682737926" lon="16.105081629730616"><ele>159.0</ele><time>2026-04-06T08:14:07Z</time></trkpt><trkpt lat="41.23333794635515" lon="16.10495219563841"><ele>159.33333333333334</ele><time>2026-04-06T08:14:08Z</time></trkpt><trkpt lat="41.23318869269451" lon="16.104832747400202"><ele>159.66666666666669</ele><time>2026-04-06T08:14:09Z</time></trkpt><trkpt lat="41.23302973320129" lon="16.104707369679197"><ele>160.0</ele><time>2026-04-06T08:14:10Z</time></trkpt><trkpt lat="41.23286965203828" lon="16.104574363631336"><ele>160.66666666666669</ele><time>2026-04-06T08:14:11Z</time></trkpt><trkpt lat="41.23271089955209" lon="16.10444300150033"><ele>161.33333333333334</ele><time>2026-04-06T08:14:12Z</time></trkpt><trkpt lat="41.232545200572176" lon="16.104306122560754"><ele>162.0</ele><time>2026-04-06T08:14:13Z</time></trkpt><trkpt lat="41.23237929151897" lon="16.10416951901063"><ele>162.33333333333334</ele><time>2026-04-06T08:14:14Z</time></trkpt><trkpt lat="41.23221475645416" lon="16.104035714003228"><ele>162.66666666666669</ele><time>2026-04-06T08:14:15Z</time></trkpt><trkpt lat="41.23204381379381" lon="16.103897607661935"><ele>163.0</ele><time>2026-04-06T08:14:16Z</time></trkpt><trkpt lat="41.23187497395453" lon="16.10375964622291"><ele>163.0</ele><time>2026-04-06T08:14:17Z</time></trkpt><trkpt lat="41.23170352236049" lon="16.10361712535994"><ele>163.0</ele><time>2026-04-06T08:14:18Z</time></trkpt><trkpt lat="41.23153026161583" lon="16.103472903708873"><ele>163.0</ele><time>2026-04-06T08:14:19Z</time></trkpt><trkpt lat="41.23135430463518" lon="16.103326853914147"><ele>163.33333333333334</ele><time>2026-04-06T08:14:20Z</time></trkpt><trkpt lat="41.23117848649731" lon="16.10317868679582"><ele>163.66666666666666</ele><time>2026-04-06T08:14:21Z</time></trkpt><trkpt lat="41.23100037836764" lon="16.103029833177025"><ele>164.0</ele><time>2026-04-06T08:14:22Z</time></trkpt><trkpt lat="41.23081972356568" lon="16.102883427101627"><ele>163.66666666666666</ele><time>2026-04-06T08:14:23Z</time></trkpt><trkpt lat="41.23064070183874" lon="16.102734730863055"><ele>163.33333333333334</ele><time>2026-04-06T08:14:24Z</time></trkpt><trkpt lat="41.23045833508135" lon="16.10258483906799"><ele>163.0</ele><time>2026-04-06T08:14:25Z</time></trkpt><trkpt lat="41.23027734314117" lon="16.10243738095485"><ele>163.33333333333334</ele><time>2026-04-06T08:14:26Z</time></trkpt><trkpt lat="41.230094172324584" lon="16.102292828501774"><ele>163.66666666666666</ele><time>2026-04-06T08:14:27Z</time></trkpt><trkpt lat="41.229913924547006" lon="16.102143432233287"><ele>164.0</ele><time>2026-04-06T08:14:28Z</time></trkpt><trkpt lat="41.22973586986361" lon="16.10199396278637"><ele>164.33333333333331</ele><time>2026-04-06T08:14:29Z</time></trkpt><trkpt lat="41.22955185487323" lon="16.10184399677366"><ele>164.66666666666666</ele><time>2026-04-06T08:14:30Z</time></trkpt><trkpt lat="41.229369342074804" lon="16.101697862258366"><ele>165.0</ele><time>2026-04-06T08:14:31Z</time></trkpt><trkpt lat="41.22918934658728" lon="16.101550458879693"><ele>165.0</ele><time>2026-04-06T08:14:32Z</time></trkpt><trkpt lat="41.22900843558251" lon="16.101402737951993"><ele>165.0</ele><time>2026-04-06T08:14:33Z</time></trkpt><trkpt lat="41.22882483651146" lon="16.101250545074734"><ele>165.0</ele><time>2026-04-06T08:14:34Z</time></trkpt><trkpt lat="41.228644199104274" lon="16.101098531511642"><ele>165.0</ele><time>2026-04-06T08:14:35Z</time></trkpt><trkpt lat="41.228463521945606" lon="16.100944251873614"><ele>165.0</ele><time>2026-04-06T08:14:36Z</time></trkpt><trkpt lat="41.228283617315995" lon="16.100794972677893"><ele>165.0</ele><time>2026-04-06T08:14:37Z</time></trkpt><trkpt lat="41.228097897460295" lon="16.10064599934692"><ele>165.66666666666666</ele><time>2026-04-06T08:14:38Z</time></trkpt><trkpt lat="41.22791901867346" lon="16.100500303637837"><ele>166.33333333333331</ele><time>2026-04-06T08:14:39Z</time></trkpt><trkpt lat="41.227741901375694" lon="16.10035376946474"><ele>167.0</ele><time>2026-04-06T08:14:40Z</time></trkpt><trkpt lat="41.22757243888159" lon="16.10021755524942"><ele>167.0</ele><time>2026-04-06T08:14:41Z</time></trkpt><trkpt lat="41.22740931140639" lon="16.100086218875504"><ele>167.0</ele><time>2026-04-06T08:14:42Z</time></trkpt><trkpt lat="41.22725246943609" lon="16.099963119531747"><ele>167.0</ele><time>2026-04-06T08:14:43Z</time></trkpt><trkpt lat="41.227102959845055" lon="16.099834503384965"><ele>168.0</ele><time>2026-04-06T08:14:44Z</time></trkpt><trkpt lat="41.226945848475964" lon="16.099699663407034"><ele>169.0</ele><time>2026-04-06T08:14:45Z</time></trkpt><trkpt lat="41.22679300419752" lon="16.099575506848314"><ele>170.0</ele><time>2026-04-06T08:14:46Z</time></trkpt><trkpt lat="41.22664203140753" lon="16.09945423902693"><ele>170.0</ele><time>2026-04-06T08:14:47Z</time></trkpt><trkpt lat="41.226490304828246" lon="16.09933179277822"><ele>170.0</ele><time>2026-04-06T08:14:48Z</time></trkpt><trkpt lat="41.22634153910672" lon="16.09920564220098"><ele>170.0</ele><time>2026-04-06T08:14:49Z</time></trkpt><trkpt lat="41.22619532629837" lon="16.09908299680381"><ele>169.66666666666666</ele><time>2026-04-06T08:14:50Z</time></trkpt><trkpt lat="41.22605788082663" lon="16.0989588494227"><ele>169.33333333333334</ele><time>2026-04-06T08:14:51Z</time></trkpt><trkpt lat="41.225925754574135" lon="16.09882358381406"><ele>169.0</ele><time>2026-04-06T08:14:52Z</time></trkpt><trkpt lat="41.225795424013846" lon="16.098667233896727"><ele>169.0</ele><time>2026-04-06T08:14:53Z</time></trkpt><trkpt lat="41.22567676721694" lon="16.09850603853449"><ele>169.0</ele><time>2026-04-06T08:14:54Z</time></trkpt><trkpt lat="41.22557210051119" lon="16.098350935579496"><ele>169.0</ele><time>2026-04-06T08:14:55Z</time></trkpt><trkpt lat="41.22548409984421" lon="16.098184373450646"><ele>169.66666666666669</ele><time>2026-04-06T08:14:56Z</time></trkpt><trkpt lat="41.22541951788442" lon="16.098000513494647"><ele>170.33333333333334</ele><time>2026-04-06T08:14:57Z</time></trkpt><trkpt lat="41.22536145088027" lon="16.09779412679211"><ele>171.0</ele><time>2026-04-06T08:14:58Z</time></trkpt><trkpt lat="41.22531358328883" lon="16.097578326949"><ele>171.33333333333334</ele><time>2026-04-06T08:14:59Z</time></trkpt><trkpt lat="41.2252811170207" lon="16.097358369773705"><ele>171.66666666666669</ele><time>2026-04-06T08:15:00Z</time></trkpt><trkpt lat="41.2252653258649" lon="16.09713806644266"><ele>172.0</ele><time>2026-04-06T08:15:01Z</time></trkpt><trkpt lat="41.22526376704289" lon="16.096900498437506"><ele>172.0</ele><time>2026-04-06T08:15:02Z</time></trkpt><trkpt lat="41.225278116189266" lon="16.096656310571884"><ele>172.0</ele><time>2026-04-06T08:15:03Z</time></trkpt><trkpt lat="41.22530266790568" lon="16.096408303834515"><ele>172.0</ele><time>2026-04-06T08:15:04Z</time></trkpt><trkpt lat="41.22534073158235" lon="16.096156171064603"><ele>171.0</ele><time>2026-04-06T08:15:05Z</time></trkpt><trkpt lat="41.22537689248929" lon="16.095894172202403"><ele>170.0</ele><time>2026-04-06T08:15:06Z</time></trkpt><trkpt lat="41.225410567266664" lon="16.095626106878054"><ele>169.0</ele><time>2026-04-06T08:15:07Z</time></trkpt><trkpt lat="41.2254392705925" lon="16.095352805858237"><ele>168.33333333333334</ele><time>2026-04-06T08:15:08Z</time></trkpt><trkpt lat="41.22545920976929" lon="16.095074077172296"><ele>167.66666666666666</ele><time>2026-04-06T08:15:09Z</time></trkpt><trkpt lat="41.22546998916149" lon="16.094785658230812"><ele>167.0</ele><time>2026-04-06T08:15:10Z</time></trkpt><trkpt lat="41.225466951663634" lon="16.09449524972674"><ele>165.66666666666666</ele><time>2026-04-06T08:15:11Z</time></trkpt><trkpt lat="41.22544960257941" lon="16.094212063942482"><ele>164.33333333333334</ele><time>2026-04-06T08:15:12Z</time></trkpt><trkpt lat="41.22542911466087" lon="16.093942246887195"><ele>163.0</ele><time>2026-04-06T08:15:13Z</time></trkpt><trkpt lat="41.22541951810272" lon="16.093693891580852"><ele>159.66666666666669</ele><time>2026-04-06T08:15:14Z</time></trkpt><trkpt lat="41.22541280270925" lon="16.09344939337565"><ele>156.33333333333334</ele><time>2026-04-06T08:15:15Z</time></trkpt><trkpt lat="41.225404710715694" lon="16.093216589501612"><ele>153.0</ele><time>2026-04-06T08:15:16Z</time></trkpt><trkpt lat="41.225398216578164" lon="16.092983194190882"><ele>150.0</ele><time>2026-04-06T08:15:17Z</time></trkpt><trkpt lat="41.22539703004695" lon="16.092764401358327"><ele>147.0</ele><time>2026-04-06T08:15:18Z</time></trkpt><trkpt lat="41.22540544242786" lon="16.09253455602856"><ele>144.0</ele><time>2026-04-06T08:15:19Z</time></trkpt><trkpt lat="41.22542107770145" lon="16.092300318930405"><ele>141.66666666666666</ele><time>2026-04-06T08:15:20Z</time></trkpt><trkpt lat="41.22544597780409" lon="16.092067212311893"><ele>139.33333333333331</ele><time>2026-04-06T08:15:21Z</time></trkpt><trkpt lat="41.22547892876076" lon="16.09183705305054"><ele>137.0</ele><time>2026-04-06T08:15:22Z</time></trkpt><trkpt lat="41.225514946930375" lon="16.091613801470533"><ele>135.33333333333331</ele><time>2026-04-06T08:15:23Z</time></trkpt><trkpt lat="41.225549623411034" lon="16.091403951824788"><ele>133.66666666666666</ele><time>2026-04-06T08:15:24Z</time></trkpt><trkpt lat="41.22558114011053" lon="16.091199689812978"><ele>132.0</ele><time>2026-04-06T08:15:25Z</time></trkpt><trkpt lat="41.225611430126506" lon="16.090994752516043"><ele>132.0</ele><time>2026-04-06T08:15:26Z</time></trkpt><trkpt lat="41.22564374082367" lon="16.09080244488693"><ele>132.0</ele><time>2026-04-06T08:15:27Z</time></trkpt><trkpt lat="41.225677347910555" lon="16.090624547388728"><ele>132.0</ele><time>2026-04-06T08:15:28Z</time></trkpt><trkpt lat="41.22571657760208" lon="16.09046428821698"><ele>132.0</ele><time>2026-04-06T08:15:29Z</time></trkpt><trkpt lat="41.22577621072295" lon="16.090307956570978"><ele>131.25</ele><time>2026-04-06T08:15:30Z</time></trkpt><trkpt lat="41.225866746676495" lon="16.090156353374752"><ele>130.5</ele><time>2026-04-06T08:15:31Z</time></trkpt><trkpt lat="41.22597954896752" lon="16.090022510080548"><ele>129.75</ele><time>2026-04-06T08:15:32Z</time></trkpt><trkpt lat="41.22610015708856" lon="16.08992862912326"><ele>129.0</ele><time>2026-04-06T08:15:33Z</time></trkpt><trkpt lat="41.22623249297266" lon="16.089873691929938"><ele>129.0</ele><time>2026-04-06T08:15:34Z</time></trkpt><trkpt lat="41.22637579040443" lon="16.089850932222763"><ele>129.0</ele><time>2026-04-06T08:15:35Z</time></trkpt><trkpt lat="41.22651266478699" lon="16.08983859417197"><ele>129.0</ele><time>2026-04-06T08:15:36Z</time></trkpt><trkpt lat="41.2266266350843" lon="16.089803680381195"><ele>129.0</ele><time>2026-04-06T08:15:37Z</time></trkpt><trkpt lat="41.22671594960918" lon="16.0897218684326"><ele>130.75</ele><time>2026-04-06T08:15:38Z</time></trkpt><trkpt lat="41.226776387119735" lon="16.08959821377358"><ele>132.5</ele><time>2026-04-06T08:15:39Z</time></trkpt><trkpt lat="41.22679994144258" lon="16.089447175061945"><ele>134.25</ele><time>2026-04-06T08:15:40Z</time></trkpt><trkpt lat="41.226785814212754" lon="16.08927272310515"><ele>136.0</ele><time>2026-04-06T08:15:41Z</time></trkpt><trkpt lat="41.226753988690334" lon="16.089077768011325"><ele>136.0</ele><time>2026-04-06T08:15:42Z</time></trkpt><trkpt lat="41.22672679365417" lon="16.088885394891157"><ele>136.0</ele><time>2026-04-06T08:15:43Z</time></trkpt><trkpt lat="41.226727569058085" lon="16.08869969698319"><ele>136.0</ele><time>2026-04-06T08:15:44Z</time></trkpt><trkpt lat="41.22673450228942" lon="16.088508225057478"><ele>136.0</ele><time>2026-04-06T08:15:45Z</time></trkpt><trkpt lat="41.22675663056718" lon="16.088307720560135"><ele>133.33333333333334</ele><time>2026-04-06T08:15:46Z</time></trkpt><trkpt lat="41.226786324837654" lon="16.08809637472625"><ele>130.66666666666666</ele><time>2026-04-06T08:15:47Z</time></trkpt><trkpt lat="41.22681536318161" lon="16.087897738272485"><ele>128.0</ele><time>2026-04-06T08:15:48Z</time></trkpt><trkpt lat="41.22684477364719" lon="16.087701274796036"><ele>128.0</ele><time>2026-04-06T08:15:49Z</time></trkpt><trkpt lat="41.2268743250103" lon="16.0875177664868"><ele>128.0</ele><time>2026-04-06T08:15:50Z</time></trkpt><trkpt lat="41.226900950758235" lon="16.087349856335685"><ele>128.0</ele><time>2026-04-06T08:15:51Z</time></trkpt><trkpt lat="41.22692913340837" lon="16.08719164579894"><ele>128.0</ele><time>2026-04-06T08:15:52Z</time></trkpt><trkpt lat="41.22695957144662" lon="16.087027458002638"><ele>126.5</ele><time>2026-04-06T08:15:53Z</time></trkpt><trkpt lat="41.22699281146301" lon="16.086858786672625"><ele>125.0</ele><time>2026-04-06T08:15:54Z</time></trkpt><trkpt lat="41.227026402427306" lon="16.08668812832287"><ele>123.5</ele><time>2026-04-06T08:15:55Z</time></trkpt><trkpt lat="41.227082917813895" lon="16.08653262523285"><ele>122.0</ele><time>2026-04-06T08:15:56Z</time></trkpt><trkpt lat="41.2271256752705" lon="16.086373721344156"><ele>120.75</ele><time>2026-04-06T08:15:57Z</time></trkpt><trkpt lat="41.2271593553356" lon="16.086208883650297"><ele>119.5</ele><time>2026-04-06T08:15:58Z</time></trkpt><trkpt lat="41.22720889126445" lon="16.08605012419107"><ele>118.25</ele><time>2026-04-06T08:15:59Z</time></trkpt><trkpt lat="41.22725783689326" lon="16.085892811137477"><ele>117.0</ele><time>2026-04-06T08:16:00Z</time></trkpt><trkpt lat="41.22730308930877" lon="16.085742559642707"><ele>119.25</ele><time>2026-04-06T08:16:01Z</time></trkpt><trkpt lat="41.22734628721776" lon="16.08559471789193"><ele>121.5</ele><time>2026-04-06T08:16:02Z</time></trkpt><trkpt lat="41.22740332666805" lon="16.085463073877964"><ele>123.75</ele><time>2026-04-06T08:16:03Z</time></trkpt><trkpt lat="41.22742893631493" lon="16.085316220011805"><ele>126.0</ele><time>2026-04-06T08:16:04Z</time></trkpt><trkpt lat="41.22747466666" lon="16.08517347277683"><ele>126.0</ele><time>2026-04-06T08:16:05Z</time></trkpt><trkpt lat="41.2274646242886" lon="16.08501496485873"><ele>126.0</ele><time>2026-04-06T08:16:06Z</time></trkpt><trkpt lat="41.2274323519499" lon="16.084846938030864"><ele>126.0</ele><time>2026-04-06T08:16:07Z</time></trkpt><trkpt lat="41.22737533184943" lon="16.084685266088655"><ele>126.0</ele><time>2026-04-06T08:16:08Z</time></trkpt><trkpt lat="41.227346427420834" lon="16.084538517640784"><ele>123.19999999999999</ele><time>2026-04-06T08:16:09Z</time></trkpt><trkpt lat="41.22730737594542" lon="16.084409421934858"><ele>120.39999999999999</ele><time>2026-04-06T08:16:10Z</time></trkpt><trkpt lat="41.22725766135331" lon="16.084291626779606"><ele>117.6</ele><time>2026-04-06T08:16:11Z</time></trkpt><trkpt lat="41.22722964894187" lon="16.08418300775943"><ele>114.8</ele><time>2026-04-06T08:16:12Z</time></trkpt><trkpt lat="41.227197586200816" lon="16.084079376693428"><ele>112.0</ele><time>2026-04-06T08:16:13Z</time></trkpt><trkpt lat="41.22716225071267" lon="16.083979565497135"><ele>111.5</ele><time>2026-04-06T08:16:14Z</time></trkpt><trkpt lat="41.227123560601164" lon="16.083879092514263"><ele>111.0</ele><time>2026-04-06T08:16:15Z</time></trkpt><trkpt lat="41.227036163147" lon="16.083702643547447"><ele>110.5</ele><time>2026-04-06T08:16:17Z</time></trkpt><trkpt lat="41.22692406697699" lon="16.08360854925156"><ele>110.0</ele><time>2026-04-06T08:16:18Z</time></trkpt><trkpt lat="41.22678974382894" lon="16.083539008343898"><ele>110.0</ele><time>2026-04-06T08:16:19Z</time></trkpt><trkpt lat="41.22664570782647" lon="16.083479709364944"><ele>110.0</ele><time>2026-04-06T08:16:20Z</time></trkpt><trkpt lat="41.22651201276585" lon="16.08342682663656"><ele>110.0</ele><time>2026-04-06T08:16:21Z</time></trkpt><trkpt lat="41.22638692767404" lon="16.083366908817013"><ele>110.0</ele><time>2026-04-06T08:16:22Z</time></trkpt><trkpt lat="41.22627963940313" lon="16.083262790538846"><ele>109.4</ele><time>2026-04-06T08:16:23Z</time></trkpt><trkpt lat="41.22619334536974" lon="16.083150486536084"><ele>108.8</ele><time>2026-04-06T08:16:24Z</time></trkpt><trkpt lat="41.22613999495757" lon="16.083028183772935"><ele>108.19999999999999</ele><time>2026-04-06T08:16:25Z</time></trkpt><trkpt lat="41.22611987589028" lon="16.082891361412088"><ele>107.6</ele><time>2026-04-06T08:16:26Z</time></trkpt><trkpt lat="41.226135402821555" lon="16.08274401013286"><ele>107.0</ele><time>2026-04-06T08:16:27Z</time></trkpt><trkpt lat="41.22617490546549" lon="16.08258309020214"><ele>108.0</ele><time>2026-04-06T08:16:28Z</time></trkpt><trkpt lat="41.226218979134735" lon="16.082407994916025"><ele>109.0</ele><time>2026-04-06T08:16:29Z</time></trkpt><trkpt lat="41.226257574073934" lon="16.082217051569828"><ele>110.0</ele><time>2026-04-06T08:16:30Z</time></trkpt><trkpt lat="41.22629181701294" lon="16.082018820787855"><ele>111.0</ele><time>2026-04-06T08:16:31Z</time></trkpt><trkpt lat="41.22633038210213" lon="16.081812651298694"><ele>112.66666666666666</ele><time>2026-04-06T08:16:32Z</time></trkpt><trkpt lat="41.226373500659946" lon="16.08159821698778"><ele>114.33333333333333</ele><time>2026-04-06T08:16:33Z</time></trkpt><trkpt lat="41.22641801871037" lon="16.081375888267115"><ele>116.0</ele><time>2026-04-06T08:16:34Z</time></trkpt><trkpt lat="41.22646133864297" lon="16.081155814083832"><ele>115.0</ele><time>2026-04-06T08:16:35Z</time></trkpt><trkpt lat="41.226504148697934" lon="16.080939593891557"><ele>114.0</ele><time>2026-04-06T08:16:36Z</time></trkpt><trkpt lat="41.22654795638041" lon="16.08072193319769"><ele>113.0</ele><time>2026-04-06T08:16:37Z</time></trkpt><trkpt lat="41.22658853730576" lon="16.080516968232715"><ele>113.0</ele><time>2026-04-06T08:16:38Z</time></trkpt><trkpt lat="41.22663147345061" lon="16.080303299466753"><ele>113.0</ele><time>2026-04-06T08:16:39Z</time></trkpt><trkpt lat="41.22667441388874" lon="16.080098989396582"><ele>113.0</ele><time>2026-04-06T08:16:40Z</time></trkpt><trkpt lat="41.226720065734696" lon="16.079894328953454"><ele>114.0</ele><time>2026-04-06T08:16:41Z</time></trkpt><trkpt lat="41.22676489460582" lon="16.079693023163152"><ele>115.0</ele><time>2026-04-06T08:16:42Z</time></trkpt><trkpt lat="41.226809361834775" lon="16.079487624409005"><ele>116.0</ele><time>2026-04-06T08:16:43Z</time></trkpt><trkpt lat="41.22685165500612" lon="16.079277708052317"><ele>117.66666666666666</ele><time>2026-04-06T08:16:44Z</time></trkpt><trkpt lat="41.2268882571016" lon="16.079074759414414"><ele>119.33333333333334</ele><time>2026-04-06T08:16:45Z</time></trkpt><trkpt lat="41.22692751855442" lon="16.078866802532907"><ele>121.0</ele><time>2026-04-06T08:16:46Z</time></trkpt><trkpt lat="41.22696663256798" lon="16.078664308167937"><ele>121.0</ele><time>2026-04-06T08:16:47Z</time></trkpt><trkpt lat="41.2270031163399" lon="16.07845761628176"><ele>121.0</ele><time>2026-04-06T08:16:48Z</time></trkpt><trkpt lat="41.22702885538614" lon="16.07826274818779"><ele>121.0</ele><time>2026-04-06T08:16:49Z</time></trkpt><trkpt lat="41.22703903998207" lon="16.078074627223135"><ele>121.25</ele><time>2026-04-06T08:16:50Z</time></trkpt><trkpt lat="41.22702517521051" lon="16.07789005578932"><ele>121.5</ele><time>2026-04-06T08:16:51Z</time></trkpt><trkpt lat="41.226991775567264" lon="16.07771579830729"><ele>121.75</ele><time>2026-04-06T08:16:52Z</time></trkpt><trkpt lat="41.226938220102795" lon="16.077525476250642"><ele>122.0</ele><time>2026-04-06T08:16:53Z</time></trkpt><trkpt lat="41.226870016492995" lon="16.07734053150641"><ele>122.0</ele><time>2026-04-06T08:16:54Z</time></trkpt><trkpt lat="41.22679496078755" lon="16.077155048567313"><ele>122.0</ele><time>2026-04-06T08:16:55Z</time></trkpt><trkpt lat="41.22672135378817" lon="16.076971577059737"><ele>122.0</ele><time>2026-04-06T08:16:56Z</time></trkpt><trkpt lat="41.2266441265377" lon="16.076786562650916"><ele>122.0</ele><time>2026-04-06T08:16:57Z</time></trkpt><trkpt lat="41.2265718937762" lon="16.07661052006589"><ele>122.0</ele><time>2026-04-06T08:16:58Z</time></trkpt><trkpt lat="41.226499321941205" lon="16.076432303251234"><ele>122.0</ele><time>2026-04-06T08:16:59Z</time></trkpt><trkpt lat="41.22642543614004" lon="16.076250999070147"><ele>123.0</ele><time>2026-04-06T08:17:00Z</time></trkpt><trkpt lat="41.22635629358473" lon="16.076077447205797"><ele>124.0</ele><time>2026-04-06T08:17:01Z</time></trkpt><trkpt lat="41.22628752684616" lon="16.07589980440631"><ele>125.0</ele><time>2026-04-06T08:17:02Z</time></trkpt><trkpt lat="41.226214884681085" lon="16.075725253064082"><ele>126.0</ele><time>2026-04-06T08:17:03Z</time></trkpt><trkpt lat="41.226143960637465" lon="16.075548622667473"><ele>126.0</ele><time>2026-04-06T08:17:04Z</time></trkpt><trkpt lat="41.22608190428841" lon="16.075394055120743"><ele>126.0</ele><time>2026-04-06T08:17:05Z</time></trkpt><trkpt lat="41.22602857862054" lon="16.075253739975203"><ele>126.0</ele><time>2026-04-06T08:17:06Z</time></trkpt><trkpt lat="41.22597712882775" lon="16.075124589892713"><ele>126.0</ele><time>2026-04-06T08:17:07Z</time></trkpt><trkpt lat="41.22593319428035" lon="16.075008514493767"><ele>125.8</ele><time>2026-04-06T08:17:08Z</time></trkpt><trkpt lat="41.225894680529414" lon="16.074899781936256"><ele>125.6</ele><time>2026-04-06T08:17:09Z</time></trkpt><trkpt lat="41.22585974559125" lon="16.07479195839317"><ele>125.4</ele><time>2026-04-06T08:17:10Z</time></trkpt><trkpt lat="41.22582754960573" lon="16.074689659032924"><ele>125.2</ele><time>2026-04-06T08:17:11Z</time></trkpt><trkpt lat="41.225804175324974" lon="16.074600933214423"><ele>125.0</ele><time>2026-04-06T08:17:12Z</time></trkpt><trkpt lat="41.22577466474672" lon="16.074442672209972"><ele>125.0</ele><time>2026-04-06T08:17:14Z</time></trkpt><trkpt lat="41.22574488327041" lon="16.074298380398723"><ele>125.0</ele><time>2026-04-06T08:17:16Z</time></trkpt><trkpt lat="41.22571077635164" lon="16.074146037981706"><ele>125.0</ele><time>2026-04-06T08:17:18Z</time></trkpt><trkpt lat="41.225683189908175" lon="16.07398931114909"><ele>125.0</ele><time>2026-04-06T08:17:20Z</time></trkpt><trkpt lat="41.225658235563586" lon="16.07386214881007"><ele>125.16666666666666</ele><time>2026-04-06T08:17:22Z</time></trkpt><trkpt lat="41.22563836299702" lon="16.07377131752367"><ele>125.33333333333333</ele><time>2026-04-06T08:17:24Z</time></trkpt><trkpt lat="41.22561824989084" lon="16.073684466354532"><ele>125.5</ele><time>2026-04-06T08:17:26Z</time></trkpt><trkpt lat="41.22561064551234" lon="16.07358164542543"><ele>125.66666666666666</ele><time>2026-04-06T08:17:28Z</time></trkpt><trkpt lat="41.22549481468131" lon="16.073564062656544"><ele>125.83333333333333</ele><time>2026-04-06T08:17:29Z</time></trkpt><trkpt lat="41.22539144358993" lon="16.07353737525515"><ele>126.0</ele><time>2026-04-06T08:17:31Z</time></trkpt><trkpt lat="41.225328828017275" lon="16.073521208801072"><ele>126.0</ele><time>2026-04-06T08:17:32Z</time></trkpt><trkpt lat="41.225263495313456" lon="16.073504340851116"><ele>126.0</ele><time>2026-04-06T08:17:33Z</time></trkpt><trkpt lat="41.22516514750193" lon="16.07349401148024"><ele>126.0</ele><time>2026-04-06T08:17:35Z</time></trkpt><trkpt lat="41.22508443885997" lon="16.073467030305892"><ele>126.0</ele><time>2026-04-06T08:17:37Z</time></trkpt><trkpt lat="41.22501057944011" lon="16.07345186248931"><ele>126.0</ele><time>2026-04-06T08:17:39Z</time></trkpt><trkpt lat="41.2249266972786" lon="16.07341432625217"><ele>126.0</ele><time>2026-04-06T08:17:41Z</time></trkpt><trkpt lat="41.22486319730739" lon="16.07339632225736"><ele>127.25</ele><time>2026-04-06T08:17:42Z</time></trkpt><trkpt lat="41.224749113834655" lon="16.073374449741635"><ele>128.5</ele><time>2026-04-06T08:17:44Z</time></trkpt><trkpt lat="41.2246433951101" lon="16.073351886684076"><ele>129.75</ele><time>2026-04-06T08:17:46Z</time></trkpt><trkpt lat="41.22453055195385" lon="16.07329502692919"><ele>131.0</ele><time>2026-04-06T08:17:48Z</time></trkpt><trkpt lat="41.2243991086355" lon="16.07325437412014"><ele>131.0</ele><time>2026-04-06T08:17:50Z</time></trkpt><trkpt lat="41.22430195158661" lon="16.07322432536894"><ele>131.0</ele><time>2026-04-06T08:17:51Z</time></trkpt><trkpt lat="41.22419117257885" lon="16.073190643046047"><ele>131.0</ele><time>2026-04-06T08:17:52Z</time></trkpt><trkpt lat="41.224069389128346" lon="16.073155575664646"><ele>131.0</ele><time>2026-04-06T08:17:53Z</time></trkpt><trkpt lat="41.22395386966122" lon="16.07312271463377"><ele>131.16666666666666</ele><time>2026-04-06T08:17:54Z</time></trkpt><trkpt lat="41.22384846619938" lon="16.07311658297426"><ele>131.33333333333331</ele><time>2026-04-06T08:17:55Z</time></trkpt><trkpt lat="41.223765524301506" lon="16.073072073519054"><ele>131.5</ele><time>2026-04-06T08:17:56Z</time></trkpt><trkpt lat="41.223684724455886" lon="16.0730713642806"><ele>131.66666666666666</ele><time>2026-04-06T08:17:57Z</time></trkpt><trkpt lat="41.22361305158395" lon="16.073044432319524"><ele>131.83333333333334</ele><time>2026-04-06T08:17:58Z</time></trkpt><trkpt lat="41.22352901369501" lon="16.073020823478153"><ele>132.0</ele><time>2026-04-06T08:18:00Z</time></trkpt><trkpt lat="41.22343557468745" lon="16.0729963568887"><ele>132.0</ele><time>2026-04-06T08:18:03Z</time></trkpt><trkpt lat="41.22336806130492" lon="16.072980367022613"><ele>132.0</ele><time>2026-04-06T08:18:05Z</time></trkpt><trkpt lat="41.22329573630501" lon="16.07295774687186"><ele>132.0</ele><time>2026-04-06T08:18:07Z</time></trkpt><trkpt lat="41.22323311314078" lon="16.072939560072204"><ele>132.0</ele><time>2026-04-06T08:18:10Z</time></trkpt><trkpt lat="41.22317446473978" lon="16.07290628746589"><ele>132.0</ele><time>2026-04-06T08:18:12Z</time></trkpt><trkpt lat="41.22308658123836" lon="16.072880585292694"><ele>132.0</ele><time>2026-04-06T08:18:14Z</time></trkpt><trkpt lat="41.22297312239816" lon="16.072847468816928"><ele>132.5</ele><time>2026-04-06T08:18:16Z</time></trkpt><trkpt lat="41.22289633355801" lon="16.07282526700397"><ele>133.0</ele><time>2026-04-06T08:18:17Z</time></trkpt><trkpt lat="41.22281516500921" lon="16.072801798877222"><ele>133.5</ele><time>2026-04-06T08:18:18Z</time></trkpt><trkpt lat="41.222739628218015" lon="16.072779959038986"><ele>134.0</ele><time>2026-04-06T08:18:19Z</time></trkpt><trkpt lat="41.22266479886643" lon="16.072766322127436"><ele>134.5</ele><time>2026-04-06T08:18:20Z</time></trkpt><trkpt lat="41.222596429608046" lon="16.072733441494066"><ele>135.0</ele><time>2026-04-06T08:18:21Z</time></trkpt><trkpt lat="41.22247748592008" lon="16.072698840344053"><ele>135.0</ele><time>2026-04-06T08:18:22Z</time></trkpt><trkpt lat="41.22239911611265" lon="16.07268725232312"><ele>135.0</ele><time>2026-04-06T08:18:23Z</time></trkpt><trkpt lat="41.22231098598931" lon="16.07267361052222"><ele>135.0</ele><time>2026-04-06T08:18:24Z</time></trkpt><trkpt lat="41.22224011114494" lon="16.07265247701563"><ele>135.0</ele><time>2026-04-06T08:18:25Z</time></trkpt><trkpt lat="41.22215994636522" lon="16.07262431640815"><ele>135.0</ele><time>2026-04-06T08:18:26Z</time></trkpt><trkpt lat="41.22208879707911" lon="16.072609182494336"><ele>135.0</ele><time>2026-04-06T08:18:27Z</time></trkpt><trkpt lat="41.2220138471644" lon="16.0725847022625"><ele>135.33333333333334</ele><time>2026-04-06T08:18:28Z</time></trkpt><trkpt lat="41.221941060729684" lon="16.072561206585185"><ele>135.66666666666666</ele><time>2026-04-06T08:18:29Z</time></trkpt><trkpt lat="41.221836460356094" lon="16.072527455727826"><ele>136.0</ele><time>2026-04-06T08:18:31Z</time></trkpt><trkpt lat="41.22174836594688" lon="16.07251410319949"><ele>136.33333333333331</ele><time>2026-04-06T08:18:34Z</time></trkpt><trkpt lat="41.22167283456659" lon="16.0724723283315"><ele>136.66666666666666</ele><time>2026-04-06T08:18:36Z</time></trkpt><trkpt lat="41.22160244817947" lon="16.072452762847657"><ele>137.0</ele><time>2026-04-06T08:18:38Z</time></trkpt><trkpt lat="41.22152108158746" lon="16.072430128638615"><ele>137.5</ele><time>2026-04-06T08:18:41Z</time></trkpt><trkpt lat="41.22142951770741" lon="16.072419724033654"><ele>138.0</ele><time>2026-04-06T08:18:43Z</time></trkpt><trkpt lat="41.22132989512178" lon="16.072382672958746"><ele>138.5</ele><time>2026-04-06T08:18:45Z</time></trkpt><trkpt lat="41.221265840420855" lon="16.072369474201977"><ele>139.0</ele><time>2026-04-06T08:18:46Z</time></trkpt><trkpt lat="41.22119183938816" lon="16.072355432403985"><ele>139.5</ele><time>2026-04-06T08:18:47Z</time></trkpt><trkpt lat="41.22110662504573" lon="16.07232311835617"><ele>140.0</ele><time>2026-04-06T08:18:48Z</time></trkpt><trkpt lat="41.22101541591665" lon="16.072299394234065"><ele>140.0</ele><time>2026-04-06T08:18:49Z</time></trkpt><trkpt lat="41.2209135631631" lon="16.072272516385485"><ele>140.0</ele><time>2026-04-06T08:18:50Z</time></trkpt><trkpt lat="41.22078908707527" lon="16.072238324655846"><ele>140.0</ele><time>2026-04-06T08:18:51Z</time></trkpt><trkpt lat="41.220659012662274" lon="16.072200187706628"><ele>140.0</ele><time>2026-04-06T08:18:52Z</time></trkpt><trkpt lat="41.22053560180761" lon="16.0721560413912"><ele>139.6</ele><time>2026-04-06T08:18:53Z</time></trkpt><trkpt lat="41.22042972314854" lon="16.072122522033556"><ele>139.2</ele><time>2026-04-06T08:18:54Z</time></trkpt><trkpt lat="41.22032886384112" lon="16.07209405951851"><ele>138.8</ele><time>2026-04-06T08:18:55Z</time></trkpt><trkpt lat="41.22023468273312" lon="16.072065286587424"><ele>138.4</ele><time>2026-04-06T08:18:56Z</time></trkpt><trkpt lat="41.22014843255598" lon="16.07203464831596"><ele>138.0</ele><time>2026-04-06T08:18:57Z</time></trkpt><trkpt lat="41.22007042706573" lon="16.07200820299431"><ele>138.0</ele><time>2026-04-06T08:18:58Z</time></trkpt><trkpt lat="41.21999151369038" lon="16.07199148579108"><ele>138.0</ele><time>2026-04-06T08:18:59Z</time></trkpt><trkpt lat="41.21992592244555" lon="16.07197087932905"><ele>138.0</ele><time>2026-04-06T08:19:00Z</time></trkpt><trkpt lat="41.21985702916448" lon="16.071949007297974"><ele>138.0</ele><time>2026-04-06T08:19:01Z</time></trkpt><trkpt lat="41.21975785296871" lon="16.07192132662832"><ele>138.0</ele><time>2026-04-06T08:19:03Z</time></trkpt><trkpt lat="41.21967654112113" lon="16.071903257844365"><ele>138.0</ele><time>2026-04-06T08:19:05Z</time></trkpt><trkpt lat="41.21960173738507" lon="16.071892807455527"><ele>138.0</ele><time>2026-04-06T08:19:07Z</time></trkpt><trkpt lat="41.2195251801966" lon="16.071875573992056"><ele>138.0</ele><time>2026-04-06T08:19:09Z</time></trkpt><trkpt lat="41.21944369877159" lon="16.071854102119584"><ele>138.0</ele><time>2026-04-06T08:19:11Z</time></trkpt><trkpt lat="41.219405568480745" lon="16.07178406274991"><ele>138.0</ele><time>2026-04-06T08:19:13Z</time></trkpt><trkpt lat="41.21944723475693" lon="16.07165867603858"><ele>138.0</ele><time>2026-04-06T08:19:15Z</time></trkpt><trkpt lat="41.21949601197674" lon="16.071515222284077"><ele>138.0</ele><time>2026-04-06T08:19:17Z</time></trkpt><trkpt lat="41.21953801036083" lon="16.071399872969113"><ele>137.75</ele><time>2026-04-06T08:19:19Z</time></trkpt><trkpt lat="41.21958633849594" lon="16.071273955973712"><ele>137.5</ele><time>2026-04-06T08:19:21Z</time></trkpt><trkpt lat="41.2196351968233" lon="16.071188292410984"><ele>137.25</ele><time>2026-04-06T08:19:23Z</time></trkpt><trkpt lat="41.21965013706815" lon="16.070945007988996"><ele>137.0</ele><time>2026-04-06T08:19:33Z</time></trkpt><trkpt lat="41.21935625852332" lon="16.071011764170045"><ele>137.0</ele><time>2026-04-06T08:19:34Z</time></trkpt><trkpt lat="41.219501199000206" lon="16.07145367472868"><ele>137.0</ele><time>2026-04-06T08:19:35Z</time></trkpt><trkpt lat="41.21946840428719" lon="16.071546140105273"><ele>137.0</ele><time>2026-04-06T08:19:36Z</time></trkpt><trkpt lat="41.21943966001908" lon="16.071632211961422"><ele>137.2</ele><time>2026-04-06T08:19:37Z</time></trkpt><trkpt lat="41.21939359972593" lon="16.07175587661937"><ele>137.39999999999998</ele><time>2026-04-06T08:19:39Z</time></trkpt><trkpt lat="41.21934820369082" lon="16.07182083618244"><ele>137.60000000000002</ele><time>2026-04-06T08:19:42Z</time></trkpt><trkpt lat="41.21923217154695" lon="16.071786809865287"><ele>137.8</ele><time>2026-04-06T08:19:45Z</time></trkpt><trkpt lat="41.21916955008307" lon="16.071763917853477"><ele>138.0</ele><time>2026-04-06T08:19:46Z</time></trkpt><trkpt lat="41.21907135422787" lon="16.07171375474799"><ele>138.25</ele><time>2026-04-06T08:19:48Z</time></trkpt><trkpt lat="41.21896910067507" lon="16.071579195760098"><ele>138.5</ele><time>2026-04-06T08:19:50Z</time></trkpt><trkpt lat="41.21890109508496" lon="16.071480233725698"><ele>138.75</ele><time>2026-04-06T08:19:51Z</time></trkpt><trkpt lat="41.21883442028388" lon="16.07137270522835"><ele>139.0</ele><time>2026-04-06T08:19:52Z</time></trkpt><trkpt lat="41.21877096625436" lon="16.071249569978843"><ele>139.0</ele><time>2026-04-06T08:19:53Z</time></trkpt><trkpt lat="41.21872458843042" lon="16.07112630620546"><ele>139.0</ele><time>2026-04-06T08:19:54Z</time></trkpt><trkpt lat="41.21868557362251" lon="16.071013330897912"><ele>139.0</ele><time>2026-04-06T08:19:55Z</time></trkpt><trkpt lat="41.21865831122766" lon="16.070904292485093"><ele>139.0</ele><time>2026-04-06T08:19:56Z</time></trkpt><trkpt lat="41.21861587854342" lon="16.070814334619154"><ele>139.0</ele><time>2026-04-06T08:19:57Z</time></trkpt><trkpt lat="41.21859075347128" lon="16.07073093023197"><ele>139.0</ele><time>2026-04-06T08:19:58Z</time></trkpt><trkpt lat="41.21856034156788" lon="16.07062476624522"><ele>139.0</ele><time>2026-04-06T08:20:00Z</time></trkpt><trkpt lat="41.218365982815875" lon="16.070694402801358"><ele>139.0</ele><time>2026-04-06T08:20:05Z</time></trkpt><trkpt lat="41.218274341257455" lon="16.07078444741439"><ele>139.0</ele><time>2026-04-06T08:20:06Z</time></trkpt><trkpt lat="41.21818763209327" lon="16.070857133125156"><ele>139.0</ele><time>2026-04-06T08:20:07Z</time></trkpt><trkpt lat="41.2180968643293" lon="16.070922343730672"><ele>140.0</ele><time>2026-04-06T08:20:08Z</time></trkpt><trkpt lat="41.21800611838732" lon="16.070984215745728"><ele>141.0</ele><time>2026-04-06T08:20:09Z</time></trkpt><trkpt lat="41.21791971938515" lon="16.071052218287893"><ele>142.0</ele><time>2026-04-06T08:20:10Z</time></trkpt><trkpt lat="41.217838834911014" lon="16.07112183676179"><ele>143.0</ele><time>2026-04-06T08:20:11Z</time></trkpt><trkpt lat="41.21774549189677" lon="16.071167452265357"><ele>144.0</ele><time>2026-04-06T08:20:12Z</time></trkpt><trkpt lat="41.21765911972144" lon="16.071232634007863"><ele>144.0</ele><time>2026-04-06T08:20:13Z</time></trkpt><trkpt lat="41.21757542199599" lon="16.0713172961713"><ele>144.0</ele><time>2026-04-06T08:20:14Z</time></trkpt><trkpt lat="41.21749203998525" lon="16.071377574301927"><ele>144.0</ele><time>2026-04-06T08:20:15Z</time></trkpt><trkpt lat="41.21741803421352" lon="16.071428977783885"><ele>144.0</ele><time>2026-04-06T08:20:16Z</time></trkpt><trkpt lat="41.21734270477637" lon="16.071481039137957"><ele>144.0</ele><time>2026-04-06T08:20:17Z</time></trkpt><trkpt lat="41.21726768620666" lon="16.071537982351554"><ele>143.83333333333334</ele><time>2026-04-06T08:20:18Z</time></trkpt><trkpt lat="41.217189963018164" lon="16.071595318265814"><ele>143.66666666666666</ele><time>2026-04-06T08:20:19Z</time></trkpt><trkpt lat="41.21712085050014" lon="16.07164584393888"><ele>143.5</ele><time>2026-04-06T08:20:20Z</time></trkpt><trkpt lat="41.21705464502325" lon="16.071698057681424"><ele>143.33333333333331</ele><time>2026-04-06T08:20:21Z</time></trkpt><trkpt lat="41.21698149993906" lon="16.071758066791542"><ele>143.16666666666666</ele><time>2026-04-06T08:20:22Z</time></trkpt><trkpt lat="41.2169082468168" lon="16.071812027244942"><ele>143.0</ele><time>2026-04-06T08:20:23Z</time></trkpt><trkpt lat="41.216832397396736" lon="16.07186290611242"><ele>142.85714285714283</ele><time>2026-04-06T08:20:24Z</time></trkpt><trkpt lat="41.21676589436114" lon="16.071911723112972"><ele>142.71428571428572</ele><time>2026-04-06T08:20:25Z</time></trkpt><trkpt lat="41.21670510693215" lon="16.071958121203757"><ele>142.57142857142856</ele><time>2026-04-06T08:20:26Z</time></trkpt><trkpt lat="41.21664407748871" lon="16.07200317927141"><ele>142.42857142857142</ele><time>2026-04-06T08:20:27Z</time></trkpt><trkpt lat="41.21658070275307" lon="16.072054077260464"><ele>142.28571428571428</ele><time>2026-04-06T08:20:28Z</time></trkpt><trkpt lat="41.216518022238496" lon="16.07209739511673"><ele>142.14285714285714</ele><time>2026-04-06T08:20:29Z</time></trkpt><trkpt lat="41.216452341338886" lon="16.072141543203582"><ele>142.0</ele><time>2026-04-06T08:20:30Z</time></trkpt><trkpt lat="41.216387512121834" lon="16.07219767397474"><ele>142.66666666666669</ele><time>2026-04-06T08:20:31Z</time></trkpt><trkpt lat="41.21632446256865" lon="16.072230954538977"><ele>143.33333333333334</ele><time>2026-04-06T08:20:32Z</time></trkpt><trkpt lat="41.216261895788755" lon="16.072279661909306"><ele>144.0</ele><time>2026-04-06T08:20:33Z</time></trkpt><trkpt lat="41.21619683775983" lon="16.07233213012749"><ele>144.66666666666666</ele><time>2026-04-06T08:20:34Z</time></trkpt><trkpt lat="41.21612750005874" lon="16.072384940734555"><ele>145.33333333333331</ele><time>2026-04-06T08:20:35Z</time></trkpt><trkpt lat="41.2160553345441" lon="16.072441916961406"><ele>146.0</ele><time>2026-04-06T08:20:36Z</time></trkpt><trkpt lat="41.21597688547297" lon="16.072502964748825"><ele>146.0</ele><time>2026-04-06T08:20:37Z</time></trkpt><trkpt lat="41.21589962866024" lon="16.072561456747994"><ele>146.0</ele><time>2026-04-06T08:20:38Z</time></trkpt><trkpt lat="41.21582448976364" lon="16.072609470999808"><ele>146.0</ele><time>2026-04-06T08:20:39Z</time></trkpt><trkpt lat="41.215768033274664" lon="16.072649892718573"><ele>146.0</ele><time>2026-04-06T08:20:40Z</time></trkpt><trkpt lat="41.21570645851796" lon="16.07269021362033"><ele>146.0</ele><time>2026-04-06T08:20:41Z</time></trkpt><trkpt lat="41.21564497498661" lon="16.07273884608911"><ele>146.0</ele><time>2026-04-06T08:20:42Z</time></trkpt><trkpt lat="41.21557534542151" lon="16.072791293842226"><ele>147.0</ele><time>2026-04-06T08:20:43Z</time></trkpt><trkpt lat="41.21549716239852" lon="16.072851248748954"><ele>148.0</ele><time>2026-04-06T08:20:44Z</time></trkpt><trkpt lat="41.21541980869938" lon="16.072909082036198"><ele>149.0</ele><time>2026-04-06T08:20:45Z</time></trkpt><trkpt lat="41.215354853985325" lon="16.072954642358994"><ele>150.0</ele><time>2026-04-06T08:20:46Z</time></trkpt><trkpt lat="41.215295999871515" lon="16.072995604227962"><ele>151.0</ele><time>2026-04-06T08:20:47Z</time></trkpt><trkpt lat="41.21522977258734" lon="16.073048559438615"><ele>152.0</ele><time>2026-04-06T08:20:48Z</time></trkpt><trkpt lat="41.21515443527153" lon="16.07310650151863"><ele>152.0</ele><time>2026-04-06T08:20:49Z</time></trkpt><trkpt lat="41.21506179411183" lon="16.073176006608435"><ele>152.0</ele><time>2026-04-06T08:20:50Z</time></trkpt><trkpt lat="41.21497443794625" lon="16.073235733301424"><ele>152.0</ele><time>2026-04-06T08:20:51Z</time></trkpt><trkpt lat="41.21489548139573" lon="16.07329455517656"><ele>152.0</ele><time>2026-04-06T08:20:52Z</time></trkpt><trkpt lat="41.214818412303" lon="16.073352460349007"><ele>152.0</ele><time>2026-04-06T08:20:53Z</time></trkpt><trkpt lat="41.21474272046993" lon="16.073407170714205"><ele>152.57142857142856</ele><time>2026-04-06T08:20:54Z</time></trkpt><trkpt lat="41.214670305041764" lon="16.073463651019892"><ele>153.14285714285717</ele><time>2026-04-06T08:20:55Z</time></trkpt><trkpt lat="41.21460898380003" lon="16.07350726917131"><ele>153.71428571428572</ele><time>2026-04-06T08:20:56Z</time></trkpt><trkpt lat="41.21455149741762" lon="16.07354856788768"><ele>154.28571428571428</ele><time>2026-04-06T08:20:57Z</time></trkpt><trkpt lat="41.21449401332198" lon="16.073592830319274"><ele>154.85714285714283</ele><time>2026-04-06T08:20:58Z</time></trkpt><trkpt lat="41.21443647114063" lon="16.073634851871237"><ele>155.42857142857144</ele><time>2026-04-06T08:20:59Z</time></trkpt><trkpt lat="41.214376326362036" lon="16.073676420960624"><ele>156.0</ele><time>2026-04-06T08:21:00Z</time></trkpt><trkpt lat="41.21432205263645" lon="16.073719574255534"><ele>156.0</ele><time>2026-04-06T08:21:01Z</time></trkpt><trkpt lat="41.214219642594166" lon="16.07379945414793"><ele>156.0</ele><time>2026-04-06T08:21:03Z</time></trkpt><trkpt lat="41.21411601535679" lon="16.07388328907509"><ele>156.0</ele><time>2026-04-06T08:21:05Z</time></trkpt><trkpt lat="41.21405795436859" lon="16.073927285714632"><ele>156.0</ele><time>2026-04-06T08:21:06Z</time></trkpt><trkpt lat="41.21398852345565" lon="16.073974866562175"><ele>156.0</ele><time>2026-04-06T08:21:07Z</time></trkpt><trkpt lat="41.213917111026056" lon="16.07402369610008"><ele>156.5</ele><time>2026-04-06T08:21:08Z</time></trkpt><trkpt lat="41.21384553664821" lon="16.074075906211295"><ele>157.0</ele><time>2026-04-06T08:21:09Z</time></trkpt><trkpt lat="41.21377176726393" lon="16.074130199715484"><ele>157.5</ele><time>2026-04-06T08:21:10Z</time></trkpt><trkpt lat="41.21369212528358" lon="16.0741913924312"><ele>158.0</ele><time>2026-04-06T08:21:11Z</time></trkpt><trkpt lat="41.213623609208135" lon="16.074244653041987"><ele>158.5</ele><time>2026-04-06T08:21:12Z</time></trkpt><trkpt lat="41.213561232282814" lon="16.074293977319293"><ele>159.0</ele><time>2026-04-06T08:21:13Z</time></trkpt><trkpt lat="41.213500655165234" lon="16.07433730242224"><ele>159.0</ele><time>2026-04-06T08:21:14Z</time></trkpt><trkpt lat="41.21344379121017" lon="16.07438028527726"><ele>159.0</ele><time>2026-04-06T08:21:15Z</time></trkpt><trkpt lat="41.213383444925796" lon="16.07442303804222"><ele>159.0</ele><time>2026-04-06T08:21:16Z</time></trkpt><trkpt lat="41.21332466905003" lon="16.074471708020557"><ele>159.0</ele><time>2026-04-06T08:21:17Z</time></trkpt><trkpt lat="41.21326644381939" lon="16.07451711095009"><ele>159.0</ele><time>2026-04-06T08:21:18Z</time></trkpt><trkpt lat="41.213210411583525" lon="16.07455809552954"><ele>159.0</ele><time>2026-04-06T08:21:19Z</time></trkpt><trkpt lat="41.21315147008366" lon="16.07459902153992"><ele>159.0</ele><time>2026-04-06T08:21:20Z</time></trkpt><trkpt lat="41.21308932750083" lon="16.07464402586203"><ele>159.7142857142857</ele><time>2026-04-06T08:21:21Z</time></trkpt><trkpt lat="41.213028321535724" lon="16.074687376693337"><ele>160.42857142857144</ele><time>2026-04-06T08:21:22Z</time></trkpt><trkpt lat="41.212969043854805" lon="16.07473648184403"><ele>161.14285714285714</ele><time>2026-04-06T08:21:23Z</time></trkpt><trkpt lat="41.2129040276506" lon="16.074786096328552"><ele>161.85714285714283</ele><time>2026-04-06T08:21:24Z</time></trkpt><trkpt lat="41.212837539129524" lon="16.07483216922797"><ele>162.57142857142856</ele><time>2026-04-06T08:21:25Z</time></trkpt><trkpt lat="41.212770443303796" lon="16.074880693668934"><ele>163.28571428571428</ele><time>2026-04-06T08:21:26Z</time></trkpt><trkpt lat="41.212698617861086" lon="16.07493202728832"><ele>164.0</ele><time>2026-04-06T08:21:27Z</time></trkpt><trkpt lat="41.2126281394716" lon="16.074987291387494"><ele>164.0</ele><time>2026-04-06T08:21:28Z</time></trkpt><trkpt lat="41.212549667947656" lon="16.075055934643103"><ele>164.0</ele><time>2026-04-06T08:21:29Z</time></trkpt><trkpt lat="41.21245278712301" lon="16.075133470118814"><ele>164.0</ele><time>2026-04-06T08:21:30Z</time></trkpt><trkpt lat="41.21234478279698" lon="16.075216111359747"><ele>164.0</ele><time>2026-04-06T08:21:31Z</time></trkpt><trkpt lat="41.21222591314984" lon="16.075286708964317"><ele>165.5</ele><time>2026-04-06T08:21:32Z</time></trkpt><trkpt lat="41.21210870684519" lon="16.075365857861815"><ele>167.0</ele><time>2026-04-06T08:21:33Z</time></trkpt><trkpt lat="41.21199532251488" lon="16.075457219431065"><ele>168.5</ele><time>2026-04-06T08:21:34Z</time></trkpt><trkpt lat="41.21188221840844" lon="16.075549683439228"><ele>170.0</ele><time>2026-04-06T08:21:35Z</time></trkpt><trkpt lat="41.21176658475141" lon="16.07563419020502"><ele>170.0</ele><time>2026-04-06T08:21:36Z</time></trkpt><trkpt lat="41.21165704201978" lon="16.075716752076726"><ele>170.0</ele><time>2026-04-06T08:21:37Z</time></trkpt><trkpt lat="41.21154879153068" lon="16.075803873149475"><ele>170.0</ele><time>2026-04-06T08:21:38Z</time></trkpt><trkpt lat="41.21143944231479" lon="16.075884626819498"><ele>170.0</ele><time>2026-04-06T08:21:39Z</time></trkpt><trkpt lat="41.21132963953854" lon="16.07596837453716"><ele>171.25</ele><time>2026-04-06T08:21:40Z</time></trkpt><trkpt lat="41.211217806053966" lon="16.076055095174492"><ele>172.5</ele><time>2026-04-06T08:21:41Z</time></trkpt><trkpt lat="41.211093944931285" lon="16.076143896955852"><ele>173.75</ele><time>2026-04-06T08:21:42Z</time></trkpt><trkpt lat="41.21097569661185" lon="16.076220537193176"><ele>175.0</ele><time>2026-04-06T08:21:43Z</time></trkpt><trkpt lat="41.21086561753" lon="16.076315468402758"><ele>175.0</ele><time>2026-04-06T08:21:44Z</time></trkpt><trkpt lat="41.21074703770704" lon="16.07640011119534"><ele>175.0</ele><time>2026-04-06T08:21:45Z</time></trkpt><trkpt lat="41.21064317283072" lon="16.076478326084697"><ele>175.0</ele><time>2026-04-06T08:21:46Z</time></trkpt><trkpt lat="41.21055492526618" lon="16.07654678928166"><ele>175.0</ele><time>2026-04-06T08:21:47Z</time></trkpt><trkpt lat="41.210456970837846" lon="16.076613294437443"><ele>175.8</ele><time>2026-04-06T08:21:48Z</time></trkpt><trkpt lat="41.21035810791234" lon="16.076685191772622"><ele>176.6</ele><time>2026-04-06T08:21:49Z</time></trkpt><trkpt lat="41.21026416766005" lon="16.07674732419677"><ele>177.39999999999998</ele><time>2026-04-06T08:21:50Z</time></trkpt><trkpt lat="41.21019192135051" lon="16.076798489342288"><ele>178.2</ele><time>2026-04-06T08:21:51Z</time></trkpt><trkpt lat="41.2100872975193" lon="16.07686897520236"><ele>179.0</ele><time>2026-04-06T08:21:53Z</time></trkpt><trkpt lat="41.20995960641689" lon="16.076959729176476"><ele>179.0</ele><time>2026-04-06T08:21:55Z</time></trkpt><trkpt lat="41.209868885518986" lon="16.07703993408293"><ele>179.0</ele><time>2026-04-06T08:21:56Z</time></trkpt><trkpt lat="41.209765881802134" lon="16.077126463007406"><ele>179.0</ele><time>2026-04-06T08:21:57Z</time></trkpt><trkpt lat="41.20965114320764" lon="16.077200086835607"><ele>179.0</ele><time>2026-04-06T08:21:58Z</time></trkpt><trkpt lat="41.209524226835" lon="16.077287238735327"><ele>179.5</ele><time>2026-04-06T08:21:59Z</time></trkpt><trkpt lat="41.20940456200136" lon="16.077376487261773"><ele>180.0</ele><time>2026-04-06T08:22:00Z</time></trkpt><trkpt lat="41.20928131362008" lon="16.077471787521173"><ele>180.5</ele><time>2026-04-06T08:22:01Z</time></trkpt><trkpt lat="41.20915508793149" lon="16.07757046042316"><ele>181.0</ele><time>2026-04-06T08:22:02Z</time></trkpt><trkpt lat="41.20902186316227" lon="16.077669204056843"><ele>182.75</ele><time>2026-04-06T08:22:03Z</time></trkpt><trkpt lat="41.20888652910906" lon="16.077768535463637"><ele>184.5</ele><time>2026-04-06T08:22:04Z</time></trkpt><trkpt lat="41.20876554131801" lon="16.07786068176219"><ele>186.25</ele><time>2026-04-06T08:22:05Z</time></trkpt><trkpt lat="41.20865666121517" lon="16.07794356437289"><ele>188.0</ele><time>2026-04-06T08:22:06Z</time></trkpt><trkpt lat="41.20855816838685" lon="16.078017509377435"><ele>188.0</ele><time>2026-04-06T08:22:07Z</time></trkpt><trkpt lat="41.20847098128956" lon="16.078086445938215"><ele>188.0</ele><time>2026-04-06T08:22:08Z</time></trkpt><trkpt lat="41.20839170563558" lon="16.07814859898395"><ele>188.0</ele><time>2026-04-06T08:22:09Z</time></trkpt><trkpt lat="41.20831558530837" lon="16.078201746872377"><ele>188.0</ele><time>2026-04-06T08:22:10Z</time></trkpt><trkpt lat="41.208244926094586" lon="16.078247938458073"><ele>188.0</ele><time>2026-04-06T08:22:11Z</time></trkpt><trkpt lat="41.20817303041159" lon="16.078300856239732"><ele>188.0</ele><time>2026-04-06T08:22:12Z</time></trkpt><trkpt lat="41.20810283476718" lon="16.07835655054439"><ele>188.8</ele><time>2026-04-06T08:22:13Z</time></trkpt><trkpt lat="41.20799972643793" lon="16.078440682299238"><ele>189.60000000000002</ele><time>2026-04-06T08:22:15Z</time></trkpt><trkpt lat="41.207918278741175" lon="16.078498619910714"><ele>190.39999999999998</ele><time>2026-04-06T08:22:17Z</time></trkpt><trkpt lat="41.207839351577775" lon="16.07855525693393"><ele>191.2</ele><time>2026-04-06T08:22:20Z</time></trkpt><trkpt lat="41.20778075381675" lon="16.078601387285232"><ele>192.0</ele><time>2026-04-06T08:22:23Z</time></trkpt><trkpt lat="41.207709314829046" lon="16.078657109007565"><ele>192.0</ele><time>2026-04-06T08:22:41Z</time></trkpt><trkpt lat="41.207609208391574" lon="16.078735861045026"><ele>192.0</ele><time>2026-04-06T08:22:43Z</time></trkpt><trkpt lat="41.20752679935061" lon="16.078801005683417"><ele>192.0</ele><time>2026-04-06T08:22:45Z</time></trkpt><trkpt lat="41.20743095613485" lon="16.078872694389716"><ele>192.0</ele><time>2026-04-06T08:22:47Z</time></trkpt><trkpt lat="41.20731576146281" lon="16.078952736047633"><ele>192.83333333333334</ele><time>2026-04-06T08:22:49Z</time></trkpt><trkpt lat="41.20724738014633" lon="16.079004508545147"><ele>193.66666666666669</ele><time>2026-04-06T08:22:50Z</time></trkpt><trkpt lat="41.207172689684455" lon="16.079060440895542"><ele>194.5</ele><time>2026-04-06T08:22:51Z</time></trkpt><trkpt lat="41.207097231018516" lon="16.079117273258174"><ele>195.33333333333334</ele><time>2026-04-06T08:22:52Z</time></trkpt><trkpt lat="41.20701528401596" lon="16.079176128221032"><ele>196.16666666666669</ele><time>2026-04-06T08:22:53Z</time></trkpt><trkpt lat="41.206926527327944" lon="16.079241748546018"><ele>197.0</ele><time>2026-04-06T08:22:54Z</time></trkpt><trkpt lat="41.20683255497052" lon="16.079313318798263"><ele>197.2</ele><time>2026-04-06T08:22:55Z</time></trkpt><trkpt lat="41.20674375696208" lon="16.07938217678229"><ele>197.39999999999998</ele><time>2026-04-06T08:22:56Z</time></trkpt><trkpt lat="41.20665120403254" lon="16.079453820715354"><ele>197.60000000000002</ele><time>2026-04-06T08:22:57Z</time></trkpt><trkpt lat="41.206555079022344" lon="16.07952704971732"><ele>197.8</ele><time>2026-04-06T08:22:58Z</time></trkpt><trkpt lat="41.206460442294656" lon="16.079602742728103"><ele>198.0</ele><time>2026-04-06T08:22:59Z</time></trkpt><trkpt lat="41.20636396165539" lon="16.079676553878393"><ele>198.5</ele><time>2026-04-06T08:23:00Z</time></trkpt><trkpt lat="41.20626250126893" lon="16.079749566465612"><ele>199.0</ele><time>2026-04-06T08:23:01Z</time></trkpt><trkpt lat="41.206155022296294" lon="16.079832379247403"><ele>199.5</ele><time>2026-04-06T08:23:02Z</time></trkpt><trkpt lat="41.20605299374755" lon="16.07990281386004"><ele>200.0</ele><time>2026-04-06T08:23:03Z</time></trkpt><trkpt lat="41.205964302144565" lon="16.079975887421604"><ele>200.25</ele><time>2026-04-06T08:23:04Z</time></trkpt><trkpt lat="41.20586118788613" lon="16.08003360286103"><ele>200.5</ele><time>2026-04-06T08:23:05Z</time></trkpt><trkpt lat="41.20574924666647" lon="16.080116602206175"><ele>200.75</ele><time>2026-04-06T08:23:06Z</time></trkpt><trkpt lat="41.20562595073193" lon="16.080208020486545"><ele>201.0</ele><time>2026-04-06T08:23:07Z</time></trkpt><trkpt lat="41.20550266048783" lon="16.080321617540406"><ele>200.33333333333331</ele><time>2026-04-06T08:23:08Z</time></trkpt><trkpt lat="41.20536768107163" lon="16.080407076871445"><ele>199.66666666666666</ele><time>2026-04-06T08:23:09Z</time></trkpt><trkpt lat="41.205222371315074" lon="16.080516809818253"><ele>199.0</ele><time>2026-04-06T08:23:10Z</time></trkpt><trkpt lat="41.20508038813883" lon="16.08062186664324"><ele>199.0</ele><time>2026-04-06T08:23:11Z</time></trkpt><trkpt lat="41.204943340888335" lon="16.080722725117973"><ele>199.0</ele><time>2026-04-06T08:23:12Z</time></trkpt><trkpt lat="41.20480245559682" lon="16.080822123371057"><ele>199.0</ele><time>2026-04-06T08:23:13Z</time></trkpt><trkpt lat="41.20467141384161" lon="16.080922042623406"><ele>199.66666666666666</ele><time>2026-04-06T08:23:14Z</time></trkpt><trkpt lat="41.20452568343916" lon="16.08103471533682"><ele>200.33333333333331</ele><time>2026-04-06T08:23:15Z</time></trkpt><trkpt lat="41.20437661139026" lon="16.081141906789497"><ele>201.0</ele><time>2026-04-06T08:23:16Z</time></trkpt><trkpt lat="41.20422965088546" lon="16.08124975086856"><ele>201.0</ele><time>2026-04-06T08:23:17Z</time></trkpt><trkpt lat="41.20409327551352" lon="16.081352063114366"><ele>201.0</ele><time>2026-04-06T08:23:18Z</time></trkpt><trkpt lat="41.20396254149927" lon="16.08145343023911"><ele>201.0</ele><time>2026-04-06T08:23:19Z</time></trkpt><trkpt lat="41.20382002761752" lon="16.081556691605375"><ele>201.75</ele><time>2026-04-06T08:23:20Z</time></trkpt><trkpt lat="41.20369042334596" lon="16.08165212430522"><ele>202.5</ele><time>2026-04-06T08:23:21Z</time></trkpt><trkpt lat="41.20356211280568" lon="16.081749576691948"><ele>203.25</ele><time>2026-04-06T08:23:22Z</time></trkpt><trkpt lat="41.203441144679836" lon="16.08184196646505"><ele>204.0</ele><time>2026-04-06T08:23:23Z</time></trkpt><trkpt lat="41.20331788164506" lon="16.08193475413897"><ele>204.0</ele><time>2026-04-06T08:23:24Z</time></trkpt><trkpt lat="41.20319662596301" lon="16.082025072081226"><ele>204.0</ele><time>2026-04-06T08:23:25Z</time></trkpt><trkpt lat="41.20307672571734" lon="16.082116258453134"><ele>204.0</ele><time>2026-04-06T08:23:26Z</time></trkpt><trkpt lat="41.20295535730858" lon="16.082206394613628"><ele>204.0</ele><time>2026-04-06T08:23:27Z</time></trkpt><trkpt lat="41.202840817598116" lon="16.08230155584077"><ele>203.75</ele><time>2026-04-06T08:23:28Z</time></trkpt><trkpt lat="41.202738868479734" lon="16.082397805327727"><ele>203.5</ele><time>2026-04-06T08:23:29Z</time></trkpt><trkpt lat="41.20263775798545" lon="16.08251305402373"><ele>203.25</ele><time>2026-04-06T08:23:30Z</time></trkpt><trkpt lat="41.202543166285494" lon="16.082630917828514"><ele>203.0</ele><time>2026-04-06T08:23:31Z</time></trkpt><trkpt lat="41.20246264216872" lon="16.08274710441374"><ele>203.2</ele><time>2026-04-06T08:23:32Z</time></trkpt><trkpt lat="41.20238960587945" lon="16.08285644560291"><ele>203.4</ele><time>2026-04-06T08:23:33Z</time></trkpt><trkpt lat="41.20232317819314" lon="16.082957310604527"><ele>203.6</ele><time>2026-04-06T08:23:34Z</time></trkpt><trkpt lat="41.20225183596436" lon="16.08305022633902"><ele>203.79999999999998</ele><time>2026-04-06T08:23:35Z</time></trkpt><trkpt lat="41.20218777304903" lon="16.083135529339433"><ele>204.0</ele><time>2026-04-06T08:23:36Z</time></trkpt><trkpt lat="41.2021295601715" lon="16.08321349600338"><ele>203.79999999999998</ele><time>2026-04-06T08:23:37Z</time></trkpt><trkpt lat="41.202075136106224" lon="16.083293001421566"><ele>203.6</ele><time>2026-04-06T08:23:38Z</time></trkpt><trkpt lat="41.202012099265595" lon="16.083395070371356"><ele>203.4</ele><time>2026-04-06T08:23:39Z</time></trkpt><trkpt lat="41.201931904806194" lon="16.083513584535226"><ele>203.2</ele><time>2026-04-06T08:23:40Z</time></trkpt><trkpt lat="41.201837718815554" lon="16.08364555356074"><ele>203.0</ele><time>2026-04-06T08:23:41Z</time></trkpt><trkpt lat="41.20174094551586" lon="16.08378276630944"><ele>203.0</ele><time>2026-04-06T08:23:42Z</time></trkpt><trkpt lat="41.201644233852775" lon="16.083924655272906"><ele>203.0</ele><time>2026-04-06T08:23:43Z</time></trkpt><trkpt lat="41.20155325630369" lon="16.0840654449904"><ele>203.0</ele><time>2026-04-06T08:23:44Z</time></trkpt><trkpt lat="41.201464670238956" lon="16.084199335979083"><ele>203.0</ele><time>2026-04-06T08:23:45Z</time></trkpt><trkpt lat="41.201371296400005" lon="16.08430724373263"><ele>203.0</ele><time>2026-04-06T08:23:46Z</time></trkpt><trkpt lat="41.20128272682091" lon="16.084417186067025"><ele>203.0</ele><time>2026-04-06T08:23:47Z</time></trkpt><trkpt lat="41.20115184479937" lon="16.084454156862545"><ele>203.0</ele><time>2026-04-06T08:23:48Z</time></trkpt><trkpt lat="41.20103327127195" lon="16.08448692455091"><ele>203.0</ele><time>2026-04-06T08:23:49Z</time></trkpt><trkpt lat="41.200921860778756" lon="16.084488034147554"><ele>203.0</ele><time>2026-04-06T08:23:50Z</time></trkpt><trkpt lat="41.200814479630964" lon="16.08446182151891"><ele>203.0</ele><time>2026-04-06T08:23:51Z</time></trkpt><trkpt lat="41.20071996379983" lon="16.084410216920496"><ele>203.0</ele><time>2026-04-06T08:23:52Z</time></trkpt><trkpt lat="41.20063399157404" lon="16.08433009260216"><ele>203.0</ele><time>2026-04-06T08:23:53Z</time></trkpt><trkpt lat="41.20055855574776" lon="16.084236023910268"><ele>203.0</ele><time>2026-04-06T08:23:54Z</time></trkpt><trkpt lat="41.20049642393558" lon="16.084116234084714"><ele>203.5</ele><time>2026-04-06T08:23:55Z</time></trkpt><trkpt lat="41.2004624203106" lon="16.083973651512938"><ele>204.0</ele><time>2026-04-06T08:23:56Z</time></trkpt><trkpt lat="41.20045652797567" lon="16.08382180852144"><ele>204.5</ele><time>2026-04-06T08:23:57Z</time></trkpt><trkpt lat="41.200460263290594" lon="16.08366722581357"><ele>205.0</ele><time>2026-04-06T08:23:58Z</time></trkpt><trkpt lat="41.20046470069001" lon="16.08349470020384"><ele>205.0</ele><time>2026-04-06T08:23:59Z</time></trkpt><trkpt lat="41.20048421928493" lon="16.083310041468973"><ele>205.0</ele><time>2026-04-06T08:24:00Z</time></trkpt><trkpt lat="41.20051087965738" lon="16.083111167069358"><ele>205.0</ele><time>2026-04-06T08:24:01Z</time></trkpt><trkpt lat="41.200534995746864" lon="16.082899044084794"><ele>205.33333333333331</ele><time>2026-04-06T08:24:02Z</time></trkpt><trkpt lat="41.200547212204604" lon="16.08268152726817"><ele>205.66666666666669</ele><time>2026-04-06T08:24:03Z</time></trkpt><trkpt lat="41.200553306664276" lon="16.082451115408052"><ele>206.0</ele><time>2026-04-06T08:24:04Z</time></trkpt><trkpt lat="41.20057043880801" lon="16.082217987560472"><ele>206.0</ele><time>2026-04-06T08:24:05Z</time></trkpt><trkpt lat="41.200599061578544" lon="16.081971541099367"><ele>206.0</ele><time>2026-04-06T08:24:06Z</time></trkpt><trkpt lat="41.200639072430306" lon="16.081722040095865"><ele>206.0</ele><time>2026-04-06T08:24:07Z</time></trkpt><trkpt lat="41.200680030758654" lon="16.081472461071115"><ele>205.66666666666669</ele><time>2026-04-06T08:24:08Z</time></trkpt><trkpt lat="41.20071410129115" lon="16.081225835314257"><ele>205.33333333333331</ele><time>2026-04-06T08:24:09Z</time></trkpt><trkpt lat="41.200743057517904" lon="16.08097367744241"><ele>205.0</ele><time>2026-04-06T08:24:10Z</time></trkpt><trkpt lat="41.20077121207353" lon="16.080713278390387"><ele>203.0</ele><time>2026-04-06T08:24:11Z</time></trkpt><trkpt lat="41.20080352435858" lon="16.08045038123759"><ele>201.0</ele><time>2026-04-06T08:24:12Z</time></trkpt><trkpt lat="41.20083832364332" lon="16.080184750912704"><ele>199.0</ele><time>2026-04-06T08:24:13Z</time></trkpt><trkpt lat="41.20087681063312" lon="16.079916074494538"><ele>197.33333333333331</ele><time>2026-04-06T08:24:14Z</time></trkpt><trkpt lat="41.20092013141779" lon="16.079649334774015"><ele>195.66666666666669</ele><time>2026-04-06T08:24:15Z</time></trkpt><trkpt lat="41.20097000842246" lon="16.07937924930183"><ele>194.0</ele><time>2026-04-06T08:24:16Z</time></trkpt><trkpt lat="41.201026453412275" lon="16.0791013275277"><ele>192.66666666666669</ele><time>2026-04-06T08:24:17Z</time></trkpt><trkpt lat="41.20108109206415" lon="16.078831066649553"><ele>191.33333333333334</ele><time>2026-04-06T08:24:18Z</time></trkpt><trkpt lat="41.20113757929644" lon="16.078557748983815"><ele>190.0</ele><time>2026-04-06T08:24:19Z</time></trkpt><trkpt lat="41.20120267873918" lon="16.07828198311837"><ele>189.33333333333334</ele><time>2026-04-06T08:24:20Z</time></trkpt><trkpt lat="41.201276863776386" lon="16.078009823495172"><ele>188.66666666666666</ele><time>2026-04-06T08:24:21Z</time></trkpt><trkpt lat="41.20135897826872" lon="16.07774447841306"><ele>188.0</ele><time>2026-04-06T08:24:22Z</time></trkpt><trkpt lat="41.20145000308494" lon="16.077479160859205"><ele>188.33333333333331</ele><time>2026-04-06T08:24:23Z</time></trkpt><trkpt lat="41.20154551626993" lon="16.077216298199232"><ele>188.66666666666666</ele><time>2026-04-06T08:24:24Z</time></trkpt><trkpt lat="41.20164949924299" lon="16.076950035800948"><ele>189.0</ele><time>2026-04-06T08:24:25Z</time></trkpt><trkpt lat="41.20176416037382" lon="16.076697201634573"><ele>187.66666666666666</ele><time>2026-04-06T08:24:26Z</time></trkpt><trkpt lat="41.20188130363433" lon="16.076451054199314"><ele>186.33333333333331</ele><time>2026-04-06T08:24:27Z</time></trkpt><trkpt lat="41.202001884850056" lon="16.07619336329146"><ele>185.0</ele><time>2026-04-06T08:24:28Z</time></trkpt><trkpt lat="41.20212677868428" lon="16.07595293827537"><ele>182.66666666666666</ele><time>2026-04-06T08:24:29Z</time></trkpt><trkpt lat="41.20226378314309" lon="16.075703707792833"><ele>180.33333333333334</ele><time>2026-04-06T08:24:30Z</time></trkpt><trkpt lat="41.202402637768095" lon="16.075484306093223"><ele>178.0</ele><time>2026-04-06T08:24:31Z</time></trkpt><trkpt lat="41.20254251202408" lon="16.075265698642326"><ele>177.5</ele><time>2026-04-06T08:24:32Z</time></trkpt><trkpt lat="41.20269446866554" lon="16.07504405559555"><ele>177.0</ele><time>2026-04-06T08:24:33Z</time></trkpt><trkpt lat="41.20284623546331" lon="16.074823821052263"><ele>176.0</ele><time>2026-04-06T08:24:34Z</time></trkpt><trkpt lat="41.20299051056922" lon="16.074618302128762"><ele>175.0</ele><time>2026-04-06T08:24:35Z</time></trkpt><trkpt lat="41.203130789329094" lon="16.07442805993336"><ele>174.0</ele><time>2026-04-06T08:24:36Z</time></trkpt><trkpt lat="41.20327023175936" lon="16.074236311712646"><ele>172.33333333333334</ele><time>2026-04-06T08:24:37Z</time></trkpt><trkpt lat="41.20341059705942" lon="16.074039005295354"><ele>170.66666666666669</ele><time>2026-04-06T08:24:38Z</time></trkpt><trkpt lat="41.20354671244443" lon="16.073846845313376"><ele>169.0</ele><time>2026-04-06T08:24:39Z</time></trkpt><trkpt lat="41.20369051052054" lon="16.07364449402123"><ele>169.0</ele><time>2026-04-06T08:24:40Z</time></trkpt><trkpt lat="41.20384764888937" lon="16.073462801719593"><ele>169.0</ele><time>2026-04-06T08:24:41Z</time></trkpt><trkpt lat="41.203989293319374" lon="16.073277724055128"><ele>169.0</ele><time>2026-04-06T08:24:42Z</time></trkpt><trkpt lat="41.20413995355984" lon="16.073081567187703"><ele>167.66666666666669</ele><time>2026-04-06T08:24:43Z</time></trkpt><trkpt lat="41.20427394289812" lon="16.072867853472545"><ele>166.33333333333334</ele><time>2026-04-06T08:24:44Z</time></trkpt><trkpt lat="41.204427607093116" lon="16.072667045787657"><ele>165.0</ele><time>2026-04-06T08:24:45Z</time></trkpt><trkpt lat="41.204577925749476" lon="16.072455902959558"><ele>165.33333333333334</ele><time>2026-04-06T08:24:46Z</time></trkpt><trkpt lat="41.20472276677211" lon="16.07223601524707"><ele>165.66666666666669</ele><time>2026-04-06T08:24:47Z</time></trkpt><trkpt lat="41.204858753151015" lon="16.072011815337913"><ele>166.0</ele><time>2026-04-06T08:24:48Z</time></trkpt><trkpt lat="41.20498573977905" lon="16.071786660181544"><ele>165.0</ele><time>2026-04-06T08:24:49Z</time></trkpt><trkpt lat="41.20511695383143" lon="16.0715532296224"><ele>164.0</ele><time>2026-04-06T08:24:50Z</time></trkpt><trkpt lat="41.205244038297145" lon="16.071323408567082"><ele>163.0</ele><time>2026-04-06T08:24:51Z</time></trkpt><trkpt lat="41.205369525092145" lon="16.071090159857143"><ele>163.0</ele><time>2026-04-06T08:24:52Z</time></trkpt><trkpt lat="41.20550075256615" lon="16.070847600468937"><ele>163.0</ele><time>2026-04-06T08:24:53Z</time></trkpt><trkpt lat="41.205654358418336" lon="16.07060263121441"><ele>159.33333333333334</ele><time>2026-04-06T08:24:54Z</time></trkpt><trkpt lat="41.205729520929374" lon="16.070457536947895"><ele>155.66666666666666</ele><time>2026-04-06T08:24:55Z</time></trkpt><trkpt lat="41.20584839710106" lon="16.070248838356203"><ele>152.0</ele><time>2026-04-06T08:24:56Z</time></trkpt><trkpt lat="41.205954227567275" lon="16.07006271523034"><ele>152.0</ele><time>2026-04-06T08:24:57Z</time></trkpt><trkpt lat="41.20605775487668" lon="16.069876012763448"><ele>152.0</ele><time>2026-04-06T08:24:58Z</time></trkpt><trkpt lat="41.206158773175446" lon="16.069692103753574"><ele>152.0</ele><time>2026-04-06T08:24:59Z</time></trkpt><trkpt lat="41.20626193572067" lon="16.069497864011865"><ele>152.0</ele><time>2026-04-06T08:25:00Z</time></trkpt><trkpt lat="41.20637142404065" lon="16.069298939546687"><ele>152.0</ele><time>2026-04-06T08:25:01Z</time></trkpt><trkpt lat="41.206482659411" lon="16.069098830199113"><ele>152.0</ele><time>2026-04-06T08:25:02Z</time></trkpt><trkpt lat="41.206592611323764" lon="16.06889574827334"><ele>149.66666666666666</ele><time>2026-04-06T08:25:03Z</time></trkpt><trkpt lat="41.20670464562267" lon="16.0686938252689"><ele>147.33333333333334</ele><time>2026-04-06T08:25:04Z</time></trkpt><trkpt lat="41.20682005471467" lon="16.06849027876488"><ele>145.0</ele><time>2026-04-06T08:25:05Z</time></trkpt><trkpt lat="41.20693852305422" lon="16.068289336270215"><ele>144.0</ele><time>2026-04-06T08:25:06Z</time></trkpt><trkpt lat="41.207054176861654" lon="16.068091954456374"><ele>143.0</ele><time>2026-04-06T08:25:07Z</time></trkpt><trkpt lat="41.20716945680965" lon="16.067891178915044"><ele>142.0</ele><time>2026-04-06T08:25:08Z</time></trkpt><trkpt lat="41.207280196756365" lon="16.067696028831108"><ele>142.33333333333334</ele><time>2026-04-06T08:25:09Z</time></trkpt><trkpt lat="41.20738877486584" lon="16.067497488472892"><ele>142.66666666666666</ele><time>2026-04-06T08:25:10Z</time></trkpt><trkpt lat="41.20749904129779" lon="16.067291212159923"><ele>143.0</ele><time>2026-04-06T08:25:11Z</time></trkpt><trkpt lat="41.20760886494966" lon="16.067087762671274"><ele>141.33333333333331</ele><time>2026-04-06T08:25:12Z</time></trkpt><trkpt lat="41.207720395529286" lon="16.06688561762795"><ele>139.66666666666666</ele><time>2026-04-06T08:25:13Z</time></trkpt><trkpt lat="41.20781920151966" lon="16.06667211484267"><ele>138.0</ele><time>2026-04-06T08:25:14Z</time></trkpt><trkpt lat="41.20790392895119" lon="16.06644978792642"><ele>137.0</ele><time>2026-04-06T08:25:15Z</time></trkpt><trkpt lat="41.207968467287664" lon="16.066210170856717"><ele>136.0</ele><time>2026-04-06T08:25:16Z</time></trkpt><trkpt lat="41.20801646854473" lon="16.06596608432707"><ele>135.0</ele><time>2026-04-06T08:25:17Z</time></trkpt><trkpt lat="41.208055074329025" lon="16.065714643528718"><ele>133.33333333333334</ele><time>2026-04-06T08:25:18Z</time></trkpt><trkpt lat="41.20808063621953" lon="16.065464652285584"><ele>131.66666666666669</ele><time>2026-04-06T08:25:19Z</time></trkpt><trkpt lat="41.208086738336" lon="16.065221008456408"><ele>130.0</ele><time>2026-04-06T08:25:20Z</time></trkpt><trkpt lat="41.20808558232398" lon="16.064979346301545"><ele>129.33333333333334</ele><time>2026-04-06T08:25:21Z</time></trkpt><trkpt lat="41.20808079039175" lon="16.06473722002814"><ele>128.66666666666666</ele><time>2026-04-06T08:25:22Z</time></trkpt><trkpt lat="41.208070575359336" lon="16.064501455189596"><ele>128.0</ele><time>2026-04-06T08:25:23Z</time></trkpt><trkpt lat="41.208040194615606" lon="16.064262644587664"><ele>127.33333333333333</ele><time>2026-04-06T08:25:24Z</time></trkpt><trkpt lat="41.20799685469102" lon="16.064028597612985"><ele>126.66666666666666</ele><time>2026-04-06T08:25:25Z</time></trkpt><trkpt lat="41.207938447869225" lon="16.06379531130889"><ele>126.0</ele><time>2026-04-06T08:25:26Z</time></trkpt><trkpt lat="41.20786760441115" lon="16.06357055813119"><ele>126.0</ele><time>2026-04-06T08:25:27Z</time></trkpt><trkpt lat="41.20778400348914" lon="16.063358246999037"><ele>126.0</ele><time>2026-04-06T08:25:28Z</time></trkpt><trkpt lat="41.207692119744316" lon="16.063152964432444"><ele>126.0</ele><time>2026-04-06T08:25:29Z</time></trkpt><trkpt lat="41.207592248285664" lon="16.062956442022543"><ele>125.33333333333334</ele><time>2026-04-06T08:25:30Z</time></trkpt><trkpt lat="41.20748480369346" lon="16.0627684768928"><ele>124.66666666666667</ele><time>2026-04-06T08:25:31Z</time></trkpt><trkpt lat="41.207377101642784" lon="16.062578353681438"><ele>124.0</ele><time>2026-04-06T08:25:32Z</time></trkpt><trkpt lat="41.2072698475085" lon="16.062385659185818"><ele>122.33333333333334</ele><time>2026-04-06T08:25:33Z</time></trkpt><trkpt lat="41.20716384049701" lon="16.062186452127467"><ele>120.66666666666666</ele><time>2026-04-06T08:25:34Z</time></trkpt><trkpt lat="41.20706321926725" lon="16.061980665209383"><ele>119.0</ele><time>2026-04-06T08:25:35Z</time></trkpt><trkpt lat="41.20695698234606" lon="16.061780552984978"><ele>119.33333333333333</ele><time>2026-04-06T08:25:36Z</time></trkpt><trkpt lat="41.20685164411141" lon="16.061581968724223"><ele>119.66666666666666</ele><time>2026-04-06T08:25:37Z</time></trkpt><trkpt lat="41.20674657331449" lon="16.061379970564012"><ele>120.0</ele><time>2026-04-06T08:25:38Z</time></trkpt><trkpt lat="41.20664255544589" lon="16.06118274532869"><ele>120.0</ele><time>2026-04-06T08:25:39Z</time></trkpt><trkpt lat="41.20654706637932" lon="16.060997568231258"><ele>120.0</ele><time>2026-04-06T08:25:40Z</time></trkpt><trkpt lat="41.20645619673418" lon="16.06080427900987"><ele>120.0</ele><time>2026-04-06T08:25:41Z</time></trkpt><trkpt lat="41.20636977360779" lon="16.060608287153247"><ele>118.66666666666666</ele><time>2026-04-06T08:25:42Z</time></trkpt><trkpt lat="41.206298622108186" lon="16.060397886796185"><ele>117.33333333333333</ele><time>2026-04-06T08:25:43Z</time></trkpt><trkpt lat="41.20624406048912" lon="16.060175886073317"><ele>116.0</ele><time>2026-04-06T08:25:44Z</time></trkpt><trkpt lat="41.20620377079836" lon="16.059962683656394"><ele>115.0</ele><time>2026-04-06T08:25:45Z</time></trkpt><trkpt lat="41.20616879538947" lon="16.059762297593043"><ele>114.0</ele><time>2026-04-06T08:25:46Z</time></trkpt><trkpt lat="41.206140374596075" lon="16.05956148443388"><ele>113.0</ele><time>2026-04-06T08:25:47Z</time></trkpt><trkpt lat="41.206117882272636" lon="16.059354128497088"><ele>113.0</ele><time>2026-04-06T08:25:48Z</time></trkpt><trkpt lat="41.20610498428427" lon="16.059139688360567"><ele>113.0</ele><time>2026-04-06T08:25:49Z</time></trkpt><trkpt lat="41.20611721785297" lon="16.058919415921658"><ele>113.0</ele><time>2026-04-06T08:25:50Z</time></trkpt><trkpt lat="41.20612732238456" lon="16.058687714899506"><ele>112.0</ele><time>2026-04-06T08:25:51Z</time></trkpt><trkpt lat="41.2061374467653" lon="16.0584572980558"><ele>111.0</ele><time>2026-04-06T08:25:52Z</time></trkpt><trkpt lat="41.20614879889535" lon="16.05822054279481"><ele>110.0</ele><time>2026-04-06T08:25:53Z</time></trkpt><trkpt lat="41.206157386926876" lon="16.057975091306773"><ele>110.0</ele><time>2026-04-06T08:25:54Z</time></trkpt><trkpt lat="41.20616152548652" lon="16.057729001068466"><ele>110.0</ele><time>2026-04-06T08:25:55Z</time></trkpt><trkpt lat="41.206162611903295" lon="16.057485084834575"><ele>110.0</ele><time>2026-04-06T08:25:56Z</time></trkpt><trkpt lat="41.20616636699599" lon="16.05723920348414"><ele>110.0</ele><time>2026-04-06T08:25:57Z</time></trkpt><trkpt lat="41.20618154036787" lon="16.056993844364282"><ele>110.0</ele><time>2026-04-06T08:25:58Z</time></trkpt><trkpt lat="41.20619371255269" lon="16.056739277356176"><ele>110.0</ele><time>2026-04-06T08:25:59Z</time></trkpt><trkpt lat="41.20621615026697" lon="16.056481695966518"><ele>110.0</ele><time>2026-04-06T08:26:00Z</time></trkpt><trkpt lat="41.20624726879731" lon="16.05622024650222"><ele>110.0</ele><time>2026-04-06T08:26:01Z</time></trkpt><trkpt lat="41.206282423268945" lon="16.05596537276466"><ele>110.0</ele><time>2026-04-06T08:26:02Z</time></trkpt><trkpt lat="41.20633088952948" lon="16.055733488963057"><ele>111.33333333333333</ele><time>2026-04-06T08:26:03Z</time></trkpt><trkpt lat="41.20639011636687" lon="16.055516907092677"><ele>112.66666666666666</ele><time>2026-04-06T08:26:04Z</time></trkpt><trkpt lat="41.206469204738234" lon="16.055319153993874"><ele>114.0</ele><time>2026-04-06T08:26:05Z</time></trkpt><trkpt lat="41.2065603430868" lon="16.05513383670097"><ele>109.66666666666666</ele><time>2026-04-06T08:26:06Z</time></trkpt><trkpt lat="41.20666013164485" lon="16.05495304598637"><ele>105.33333333333333</ele><time>2026-04-06T08:26:07Z</time></trkpt><trkpt lat="41.20676642027715" lon="16.05477626885935"><ele>101.0</ele><time>2026-04-06T08:26:08Z</time></trkpt><trkpt lat="41.20687632702989" lon="16.0546039265627"><ele>101.0</ele><time>2026-04-06T08:26:09Z</time></trkpt><trkpt lat="41.20699410006194" lon="16.05444619898061"><ele>101.0</ele><time>2026-04-06T08:26:10Z</time></trkpt><trkpt lat="41.20713449585922" lon="16.054301911768206"><ele>101.0</ele><time>2026-04-06T08:26:11Z</time></trkpt><trkpt lat="41.20727481047723" lon="16.054175495267113"><ele>98.33333333333333</ele><time>2026-04-06T08:26:12Z</time></trkpt><trkpt lat="41.20742424463617" lon="16.054044621535965"><ele>95.66666666666666</ele><time>2026-04-06T08:26:13Z</time></trkpt><trkpt lat="41.20758622823256" lon="16.053939400222436"><ele>93.0</ele><time>2026-04-06T08:26:14Z</time></trkpt><trkpt lat="41.20776095114731" lon="16.053830443232286"><ele>93.0</ele><time>2026-04-06T08:26:15Z</time></trkpt><trkpt lat="41.20794403037042" lon="16.053741107193122"><ele>93.0</ele><time>2026-04-06T08:26:16Z</time></trkpt><trkpt lat="41.20813595748763" lon="16.05364206140277"><ele>93.0</ele><time>2026-04-06T08:26:17Z</time></trkpt><trkpt lat="41.20833225180535" lon="16.053539735296383"><ele>91.66666666666667</ele><time>2026-04-06T08:26:18Z</time></trkpt><trkpt lat="41.208528592834156" lon="16.053435950023754"><ele>90.33333333333334</ele><time>2026-04-06T08:26:19Z</time></trkpt><trkpt lat="41.20872502414411" lon="16.053323969404556"><ele>89.0</ele><time>2026-04-06T08:26:20Z</time></trkpt><trkpt lat="41.208919445377376" lon="16.053214227285782"><ele>88.66666666666667</ele><time>2026-04-06T08:26:21Z</time></trkpt><trkpt lat="41.2091128929525" lon="16.053105448010523"><ele>88.33333333333333</ele><time>2026-04-06T08:26:22Z</time></trkpt><trkpt lat="41.2092963244204" lon="16.052998748108735"><ele>88.0</ele><time>2026-04-06T08:26:23Z</time></trkpt><trkpt lat="41.20947887641815" lon="16.05289625265131"><ele>88.0</ele><time>2026-04-06T08:26:24Z</time></trkpt><trkpt lat="41.20966062441795" lon="16.052798507515696"><ele>88.0</ele><time>2026-04-06T08:26:25Z</time></trkpt><trkpt lat="41.20984287033674" lon="16.05269829948326"><ele>88.0</ele><time>2026-04-06T08:26:26Z</time></trkpt><trkpt lat="41.210027571316466" lon="16.052595442571118"><ele>87.33333333333333</ele><time>2026-04-06T08:26:27Z</time></trkpt><trkpt lat="41.2102072971888" lon="16.05250250901955"><ele>86.66666666666667</ele><time>2026-04-06T08:26:28Z</time></trkpt><trkpt lat="41.21039313862217" lon="16.052404737661398"><ele>86.0</ele><time>2026-04-06T08:26:29Z</time></trkpt><trkpt lat="41.210579972348924" lon="16.052306029981793"><ele>84.33333333333334</ele><time>2026-04-06T08:26:30Z</time></trkpt><trkpt lat="41.21076284903441" lon="16.052206767318076"><ele>82.66666666666667</ele><time>2026-04-06T08:26:31Z</time></trkpt><trkpt lat="41.21094631096956" lon="16.052108335018197"><ele>81.0</ele><time>2026-04-06T08:26:32Z</time></trkpt><trkpt lat="41.211127226732074" lon="16.052011710627326"><ele>81.0</ele><time>2026-04-06T08:26:33Z</time></trkpt><trkpt lat="41.21129471958876" lon="16.051928483566172"><ele>81.0</ele><time>2026-04-06T08:26:34Z</time></trkpt><trkpt lat="41.211456568965" lon="16.051845429651266"><ele>81.0</ele><time>2026-04-06T08:26:35Z</time></trkpt><trkpt lat="41.211622134334604" lon="16.05175592376597"><ele>81.33333333333333</ele><time>2026-04-06T08:26:36Z</time></trkpt><trkpt lat="41.211784207242346" lon="16.051669916899296"><ele>81.66666666666666</ele><time>2026-04-06T08:26:37Z</time></trkpt><trkpt lat="41.21195259965583" lon="16.051572862199684"><ele>82.0</ele><time>2026-04-06T08:26:38Z</time></trkpt><trkpt lat="41.21212257172797" lon="16.051477994935"><ele>81.0</ele><time>2026-04-06T08:26:39Z</time></trkpt><trkpt lat="41.21229428395601" lon="16.051390307941485"><ele>80.0</ele><time>2026-04-06T08:26:40Z</time></trkpt><trkpt lat="41.21246483508744" lon="16.051297025623146"><ele>79.0</ele><time>2026-04-06T08:26:41Z</time></trkpt><trkpt lat="41.212636894435114" lon="16.051201315275044"><ele>78.0</ele><time>2026-04-06T08:26:42Z</time></trkpt><trkpt lat="41.21281327023789" lon="16.05110579591909"><ele>77.0</ele><time>2026-04-06T08:26:43Z</time></trkpt><trkpt lat="41.212990340794555" lon="16.051013567281156"><ele>76.0</ele><time>2026-04-06T08:26:44Z</time></trkpt><trkpt lat="41.21316522250673" lon="16.050917906256714"><ele>75.66666666666666</ele><time>2026-04-06T08:26:45Z</time></trkpt><trkpt lat="41.21334161027359" lon="16.050822100817598"><ele>75.33333333333333</ele><time>2026-04-06T08:26:46Z</time></trkpt><trkpt lat="41.21351244185174" lon="16.050734237864788"><ele>75.0</ele><time>2026-04-06T08:26:47Z</time></trkpt><trkpt lat="41.21367589361814" lon="16.050647675124427"><ele>74.33333333333333</ele><time>2026-04-06T08:26:48Z</time></trkpt><trkpt lat="41.21383670054899" lon="16.050557252961124"><ele>73.66666666666666</ele><time>2026-04-06T08:26:49Z</time></trkpt><trkpt lat="41.21399382647894" lon="16.05046856411841"><ele>73.0</ele><time>2026-04-06T08:26:50Z</time></trkpt><trkpt lat="41.214152482104716" lon="16.05038513018899"><ele>73.0</ele><time>2026-04-06T08:26:51Z</time></trkpt><trkpt lat="41.21430925368676" lon="16.050309897742636"><ele>73.0</ele><time>2026-04-06T08:26:52Z</time></trkpt><trkpt lat="41.214465350257306" lon="16.05023016295541"><ele>73.0</ele><time>2026-04-06T08:26:53Z</time></trkpt><trkpt lat="41.2146173674729" lon="16.050147355369056"><ele>73.0</ele><time>2026-04-06T08:26:54Z</time></trkpt><trkpt lat="41.214765854225966" lon="16.050064964379086"><ele>73.0</ele><time>2026-04-06T08:26:55Z</time></trkpt><trkpt lat="41.21491775022911" lon="16.04998093923902"><ele>73.0</ele><time>2026-04-06T08:26:56Z</time></trkpt><trkpt lat="41.21505838720812" lon="16.049905341494313"><ele>73.0</ele><time>2026-04-06T08:26:57Z</time></trkpt><trkpt lat="41.215191163426795" lon="16.049829253865756"><ele>73.0</ele><time>2026-04-06T08:26:58Z</time></trkpt><trkpt lat="41.21531513239548" lon="16.049755913113806"><ele>73.0</ele><time>2026-04-06T08:26:59Z</time></trkpt><trkpt lat="41.215436970480376" lon="16.049685769091457"><ele>73.0</ele><time>2026-04-06T08:27:00Z</time></trkpt><trkpt lat="41.21555650135181" lon="16.04961972269102"><ele>72.8</ele><time>2026-04-06T08:27:01Z</time></trkpt><trkpt lat="41.215662582397925" lon="16.049564662944267"><ele>72.6</ele><time>2026-04-06T08:27:02Z</time></trkpt><trkpt lat="41.21575578566763" lon="16.04951563793252"><ele>72.4</ele><time>2026-04-06T08:27:03Z</time></trkpt><trkpt lat="41.215829325013" lon="16.049474539363093"><ele>72.2</ele><time>2026-04-06T08:27:04Z</time></trkpt><trkpt lat="41.21592724531422" lon="16.04942473917672"><ele>72.0</ele><time>2026-04-06T08:27:06Z</time></trkpt><trkpt lat="41.21600578855719" lon="16.049377253400362"><ele>72.0</ele><time>2026-04-06T08:27:12Z</time></trkpt><trkpt lat="41.21601177732208" lon="16.049174723270646"><ele>72.0</ele><time>2026-04-06T08:27:14Z</time></trkpt><trkpt lat="41.215984161237266" lon="16.049017588675923"><ele>72.0</ele><time>2026-04-06T08:27:15Z</time></trkpt><trkpt lat="41.21594083595813" lon="16.048855288886532"><ele>72.0</ele><time>2026-04-06T08:27:16Z</time></trkpt><trkpt lat="41.21591570663314" lon="16.048685841920065"><ele>72.0</ele><time>2026-04-06T08:27:17Z</time></trkpt><trkpt lat="41.2158944922189" lon="16.048499549013886"><ele>72.0</ele><time>2026-04-06T08:27:18Z</time></trkpt><trkpt lat="41.21586712727091" lon="16.048308296971932"><ele>72.0</ele><time>2026-04-06T08:27:19Z</time></trkpt><trkpt lat="41.215836074061635" lon="16.04811058204026"><ele>72.0</ele><time>2026-04-06T08:27:20Z</time></trkpt><trkpt lat="41.215801619408886" lon="16.047907431193096"><ele>71.66666666666667</ele><time>2026-04-06T08:27:21Z</time></trkpt><trkpt lat="41.215765482106086" lon="16.04769226895145"><ele>71.33333333333334</ele><time>2026-04-06T08:27:22Z</time></trkpt><trkpt lat="41.215736540949024" lon="16.04747691731384"><ele>71.0</ele><time>2026-04-06T08:27:23Z</time></trkpt><trkpt lat="41.21570266571653" lon="16.047257192677797"><ele>71.66666666666667</ele><time>2026-04-06T08:27:24Z</time></trkpt><trkpt lat="41.21567020380868" lon="16.047038515799965"><ele>72.33333333333333</ele><time>2026-04-06T08:27:25Z</time></trkpt><trkpt lat="41.21563541621366" lon="16.04681760348998"><ele>73.0</ele><time>2026-04-06T08:27:26Z</time></trkpt><trkpt lat="41.215593219761296" lon="16.046594368466618"><ele>73.66666666666666</ele><time>2026-04-06T08:27:27Z</time></trkpt><trkpt lat="41.21554209560101" lon="16.046370179307775"><ele>74.33333333333333</ele><time>2026-04-06T08:27:28Z</time></trkpt><trkpt lat="41.215486277924875" lon="16.04614623542781"><ele>75.0</ele><time>2026-04-06T08:27:29Z</time></trkpt><trkpt lat="41.21541581301628" lon="16.0459193848786"><ele>75.33333333333333</ele><time>2026-04-06T08:27:30Z</time></trkpt><trkpt lat="41.21533647067235" lon="16.04569681735641"><ele>75.66666666666666</ele><time>2026-04-06T08:27:31Z</time></trkpt><trkpt lat="41.215260428949826" lon="16.045472380014413"><ele>76.0</ele><time>2026-04-06T08:27:32Z</time></trkpt><trkpt lat="41.21517850242343" lon="16.045246868517054"><ele>76.0</ele><time>2026-04-06T08:27:33Z</time></trkpt><trkpt lat="41.215086218616946" lon="16.045030432448936"><ele>76.0</ele><time>2026-04-06T08:27:34Z</time></trkpt><trkpt lat="41.21498314953602" lon="16.044824276696648"><ele>76.0</ele><time>2026-04-06T08:27:35Z</time></trkpt><trkpt lat="41.21486987067097" lon="16.044626360338555"><ele>76.66666666666666</ele><time>2026-04-06T08:27:36Z</time></trkpt><trkpt lat="41.21476092965528" lon="16.044424423480034"><ele>77.33333333333333</ele><time>2026-04-06T08:27:37Z</time></trkpt><trkpt lat="41.21465621862526" lon="16.0442210493211"><ele>78.0</ele><time>2026-04-06T08:27:38Z</time></trkpt><trkpt lat="41.21455554634392" lon="16.04400418770106"><ele>78.66666666666667</ele><time>2026-04-06T08:27:39Z</time></trkpt><trkpt lat="41.21445064932461" lon="16.043796440334877"><ele>79.33333333333334</ele><time>2026-04-06T08:27:40Z</time></trkpt><trkpt lat="41.21434149133318" lon="16.043585625724592"><ele>80.0</ele><time>2026-04-06T08:27:41Z</time></trkpt><trkpt lat="41.21422953676153" lon="16.04338086778758"><ele>80.33333333333334</ele><time>2026-04-06T08:27:42Z</time></trkpt><trkpt lat="41.21412509037035" lon="16.04317153377635"><ele>80.66666666666667</ele><time>2026-04-06T08:27:43Z</time></trkpt><trkpt lat="41.214025646633964" lon="16.04296281092091"><ele>81.0</ele><time>2026-04-06T08:27:44Z</time></trkpt><trkpt lat="41.21392646890251" lon="16.042765949534182"><ele>81.0</ele><time>2026-04-06T08:27:45Z</time></trkpt><trkpt lat="41.21382332837746" lon="16.042563493459095"><ele>81.0</ele><time>2026-04-06T08:27:46Z</time></trkpt><trkpt lat="41.21372016813656" lon="16.04236400343317"><ele>81.0</ele><time>2026-04-06T08:27:47Z</time></trkpt><trkpt lat="41.21362133899508" lon="16.042158846387522"><ele>81.0</ele><time>2026-04-06T08:27:48Z</time></trkpt><trkpt lat="41.21352341584206" lon="16.04195364036726"><ele>81.0</ele><time>2026-04-06T08:27:49Z</time></trkpt><trkpt lat="41.21342295779342" lon="16.04174509152749"><ele>81.0</ele><time>2026-04-06T08:27:50Z</time></trkpt><trkpt lat="41.21331875212902" lon="16.041536525720087"><ele>81.33333333333333</ele><time>2026-04-06T08:27:51Z</time></trkpt><trkpt lat="41.21320911805082" lon="16.041334998407017"><ele>81.66666666666666</ele><time>2026-04-06T08:27:52Z</time></trkpt><trkpt lat="41.21310012793974" lon="16.041126914019912"><ele>82.0</ele><time>2026-04-06T08:27:53Z</time></trkpt><trkpt lat="41.21299388976622" lon="16.040918451885222"><ele>81.33333333333333</ele><time>2026-04-06T08:27:54Z</time></trkpt><trkpt lat="41.212886228810284" lon="16.040707195280838"><ele>80.66666666666667</ele><time>2026-04-06T08:27:55Z</time></trkpt><trkpt lat="41.21277818688532" lon="16.040495356501243"><ele>80.0</ele><time>2026-04-06T08:27:56Z</time></trkpt><trkpt lat="41.2126659731896" lon="16.040285717590315"><ele>80.0</ele><time>2026-04-06T08:27:57Z</time></trkpt><trkpt lat="41.21255744548354" lon="16.040076054003805"><ele>80.0</ele><time>2026-04-06T08:27:58Z</time></trkpt><trkpt lat="41.21245787438197" lon="16.039881244824745"><ele>80.0</ele><time>2026-04-06T08:27:59Z</time></trkpt><trkpt lat="41.212363331429" lon="16.03970865648159"><ele>80.25</ele><time>2026-04-06T08:28:00Z</time></trkpt><trkpt lat="41.21227572137749" lon="16.039541751336294"><ele>80.5</ele><time>2026-04-06T08:28:01Z</time></trkpt><trkpt lat="41.2121919474866" lon="16.039383235988577"><ele>80.75</ele><time>2026-04-06T08:28:02Z</time></trkpt><trkpt lat="41.212114850870776" lon="16.0392279318876"><ele>81.0</ele><time>2026-04-06T08:28:03Z</time></trkpt><trkpt lat="41.21204540786851" lon="16.03908358504602"><ele>81.0</ele><time>2026-04-06T08:28:04Z</time></trkpt><trkpt lat="41.21197954595309" lon="16.03894603636296"><ele>81.0</ele><time>2026-04-06T08:28:05Z</time></trkpt><trkpt lat="41.21191817176003" lon="16.038818581478775"><ele>81.0</ele><time>2026-04-06T08:28:06Z</time></trkpt><trkpt lat="41.21186618920337" lon="16.038696334620667"><ele>81.0</ele><time>2026-04-06T08:28:07Z</time></trkpt><trkpt lat="41.2118307490802" lon="16.038581988267836"><ele>81.0</ele><time>2026-04-06T08:28:08Z</time></trkpt><trkpt lat="41.21181457957161" lon="16.038480628618064"><ele>81.0</ele><time>2026-04-06T08:28:09Z</time></trkpt><trkpt lat="41.21182134134504" lon="16.038387361736277"><ele>81.0</ele><time>2026-04-06T08:28:10Z</time></trkpt><trkpt lat="41.211840292401064" lon="16.0383015151295"><ele>81.0</ele><time>2026-04-06T08:28:11Z</time></trkpt><trkpt lat="41.21184182732327" lon="16.03815385122283"><ele>81.0</ele><time>2026-04-06T08:28:13Z</time></trkpt><trkpt lat="41.21178680684966" lon="16.038067056267074"><ele>81.0</ele><time>2026-04-06T08:28:16Z</time></trkpt><trkpt lat="41.21172331567639" lon="16.038021030973226"><ele>81.0</ele><time>2026-04-06T08:28:19Z</time></trkpt><trkpt lat="41.21164258285327" lon="16.03800063608483"><ele>81.19999999999999</ele><time>2026-04-06T08:28:21Z</time></trkpt><trkpt lat="41.21151737296978" lon="16.037938407687637"><ele>81.39999999999999</ele><time>2026-04-06T08:28:23Z</time></trkpt><trkpt lat="41.211457022654145" lon="16.037870226942417"><ele>81.6</ele><time>2026-04-06T08:28:24Z</time></trkpt><trkpt lat="41.21138305107277" lon="16.037778060086293"><ele>81.8</ele><time>2026-04-06T08:28:25Z</time></trkpt><trkpt lat="41.21132080687387" lon="16.037674253231817"><ele>82.0</ele><time>2026-04-06T08:28:26Z</time></trkpt><trkpt lat="41.21126978234797" lon="16.037530886821337"><ele>82.0</ele><time>2026-04-06T08:28:27Z</time></trkpt><trkpt lat="41.21119718451485" lon="16.037388145040286"><ele>82.0</ele><time>2026-04-06T08:28:28Z</time></trkpt><trkpt lat="41.21111498083174" lon="16.037226516468348"><ele>82.0</ele><time>2026-04-06T08:28:29Z</time></trkpt><trkpt lat="41.211029853299" lon="16.03705997308554"><ele>82.0</ele><time>2026-04-06T08:28:30Z</time></trkpt><trkpt lat="41.2109393428841" lon="16.036883234542106"><ele>82.0</ele><time>2026-04-06T08:28:31Z</time></trkpt><trkpt lat="41.21084485792827" lon="16.036698734825826"><ele>82.0</ele><time>2026-04-06T08:28:32Z</time></trkpt><trkpt lat="41.21074716729175" lon="16.03650797548775"><ele>82.0</ele><time>2026-04-06T08:28:33Z</time></trkpt><trkpt lat="41.21064908161244" lon="16.03631510763242"><ele>82.33333333333333</ele><time>2026-04-06T08:28:34Z</time></trkpt><trkpt lat="41.21053239748917" lon="16.03612192546664"><ele>82.66666666666667</ele><time>2026-04-06T08:28:35Z</time></trkpt><trkpt lat="41.21043999345578" lon="16.03591463392388"><ele>83.0</ele><time>2026-04-06T08:28:36Z</time></trkpt><trkpt lat="41.210337518676525" lon="16.035697096240774"><ele>83.0</ele><time>2026-04-06T08:28:37Z</time></trkpt><trkpt lat="41.210234707707556" lon="16.035489596756783"><ele>83.0</ele><time>2026-04-06T08:28:38Z</time></trkpt><trkpt lat="41.21012419883146" lon="16.035278193077527"><ele>83.0</ele><time>2026-04-06T08:28:39Z</time></trkpt><trkpt lat="41.21001755861129" lon="16.03507259175604"><ele>83.33333333333334</ele><time>2026-04-06T08:28:40Z</time></trkpt><trkpt lat="41.209904739073444" lon="16.034854137212665"><ele>83.66666666666667</ele><time>2026-04-06T08:28:41Z</time></trkpt><trkpt lat="41.20979511843865" lon="16.03464281527381"><ele>84.0</ele><time>2026-04-06T08:28:42Z</time></trkpt><trkpt lat="41.20968215375609" lon="16.03442248652656"><ele>84.0</ele><time>2026-04-06T08:28:43Z</time></trkpt><trkpt lat="41.20957029414781" lon="16.03420320894897"><ele>84.0</ele><time>2026-04-06T08:28:44Z</time></trkpt><trkpt lat="41.20945796072665" lon="16.033985425168023"><ele>84.0</ele><time>2026-04-06T08:28:45Z</time></trkpt><trkpt lat="41.20934336436429" lon="16.033762237954726"><ele>84.0</ele><time>2026-04-06T08:28:46Z</time></trkpt><trkpt lat="41.20922812475573" lon="16.03354438927517"><ele>84.0</ele><time>2026-04-06T08:28:47Z</time></trkpt><trkpt lat="41.20911268827738" lon="16.033318695910776"><ele>84.0</ele><time>2026-04-06T08:28:48Z</time></trkpt><trkpt lat="41.20900397824865" lon="16.033096588101596"><ele>84.0</ele><time>2026-04-06T08:28:49Z</time></trkpt><trkpt lat="41.20889213072083" lon="16.032866143675683"><ele>84.0</ele><time>2026-04-06T08:28:50Z</time></trkpt><trkpt lat="41.20878281151311" lon="16.03263734565863"><ele>84.0</ele><time>2026-04-06T08:28:51Z</time></trkpt><trkpt lat="41.20867037988958" lon="16.0324103041856"><ele>84.0</ele><time>2026-04-06T08:28:52Z</time></trkpt><trkpt lat="41.20855510719017" lon="16.03218605192574"><ele>84.0</ele><time>2026-04-06T08:28:53Z</time></trkpt><trkpt lat="41.20844277530196" lon="16.031968803016305"><ele>84.0</ele><time>2026-04-06T08:28:54Z</time></trkpt><trkpt lat="41.208333125910954" lon="16.03175749454929"><ele>84.0</ele><time>2026-04-06T08:28:55Z</time></trkpt><trkpt lat="41.20822657896379" lon="16.03154749565886"><ele>84.0</ele><time>2026-04-06T08:28:56Z</time></trkpt><trkpt lat="41.20811940358838" lon="16.031335438062047"><ele>84.0</ele><time>2026-04-06T08:28:57Z</time></trkpt><trkpt lat="41.20801388270969" lon="16.031126012974866"><ele>84.0</ele><time>2026-04-06T08:28:58Z</time></trkpt><trkpt lat="41.20790630852167" lon="16.030913110269353"><ele>84.0</ele><time>2026-04-06T08:28:59Z</time></trkpt><trkpt lat="41.20779988484173" lon="16.030703985898377"><ele>84.0</ele><time>2026-04-06T08:29:00Z</time></trkpt><trkpt lat="41.20769054507827" lon="16.030495464336326"><ele>83.66666666666667</ele><time>2026-04-06T08:29:01Z</time></trkpt><trkpt lat="41.20758393068855" lon="16.030287112646164"><ele>83.33333333333334</ele><time>2026-04-06T08:29:02Z</time></trkpt><trkpt lat="41.20747839987533" lon="16.030080418281045"><ele>83.0</ele><time>2026-04-06T08:29:03Z</time></trkpt><trkpt lat="41.20737279463091" lon="16.02987073958167"><ele>82.66666666666667</ele><time>2026-04-06T08:29:04Z</time></trkpt><trkpt lat="41.20726641646733" lon="16.029658270293776"><ele>82.33333333333333</ele><time>2026-04-06T08:29:05Z</time></trkpt><trkpt lat="41.20716022496129" lon="16.02944435947139"><ele>82.0</ele><time>2026-04-06T08:29:06Z</time></trkpt><trkpt lat="41.20705014921238" lon="16.02922885207413"><ele>82.0</ele><time>2026-04-06T08:29:07Z</time></trkpt><trkpt lat="41.20693881252848" lon="16.029012236892502"><ele>82.0</ele><time>2026-04-06T08:29:08Z</time></trkpt><trkpt lat="41.206827232767914" lon="16.02879001974641"><ele>82.0</ele><time>2026-04-06T08:29:09Z</time></trkpt><trkpt lat="41.20671496637652" lon="16.02856850454822"><ele>82.0</ele><time>2026-04-06T08:29:10Z</time></trkpt><trkpt lat="41.20660401302409" lon="16.02834667274992"><ele>82.0</ele><time>2026-04-06T08:29:11Z</time></trkpt><trkpt lat="41.20648851042091" lon="16.028122497316403"><ele>82.0</ele><time>2026-04-06T08:29:12Z</time></trkpt><trkpt lat="41.206374556533774" lon="16.027900418708594"><ele>82.33333333333333</ele><time>2026-04-06T08:29:13Z</time></trkpt><trkpt lat="41.20625979095751" lon="16.027678614185525"><ele>82.66666666666667</ele><time>2026-04-06T08:29:14Z</time></trkpt><trkpt lat="41.20614370166411" lon="16.0274518287116"><ele>83.0</ele><time>2026-04-06T08:29:15Z</time></trkpt><trkpt lat="41.20602937985554" lon="16.027225954028918"><ele>82.33333333333334</ele><time>2026-04-06T08:29:16Z</time></trkpt><trkpt lat="41.20591336412655" lon="16.026997364825615"><ele>81.66666666666667</ele><time>2026-04-06T08:29:17Z</time></trkpt><trkpt lat="41.20579849667446" lon="16.0267730160314"><ele>81.0</ele><time>2026-04-06T08:29:18Z</time></trkpt><trkpt lat="41.20567958183708" lon="16.026542905849496"><ele>81.0</ele><time>2026-04-06T08:29:19Z</time></trkpt><trkpt lat="41.205565860883446" lon="16.026314634478904"><ele>81.0</ele><time>2026-04-06T08:29:20Z</time></trkpt><trkpt lat="41.20544729200228" lon="16.02608258800309"><ele>81.0</ele><time>2026-04-06T08:29:21Z</time></trkpt><trkpt lat="41.20533277726776" lon="16.0258556168726"><ele>80.0</ele><time>2026-04-06T08:29:22Z</time></trkpt><trkpt lat="41.20521743243006" lon="16.0256309071514"><ele>79.0</ele><time>2026-04-06T08:29:23Z</time></trkpt><trkpt lat="41.205101897389675" lon="16.0254060102404"><ele>78.0</ele><time>2026-04-06T08:29:24Z</time></trkpt><trkpt lat="41.204986496545715" lon="16.02518325543417"><ele>78.0</ele><time>2026-04-06T08:29:25Z</time></trkpt><trkpt lat="41.20487270054462" lon="16.02496045801911"><ele>78.0</ele><time>2026-04-06T08:29:26Z</time></trkpt><trkpt lat="41.20476075224653" lon="16.024737604557384"><ele>78.0</ele><time>2026-04-06T08:29:27Z</time></trkpt><trkpt lat="41.20464771169705" lon="16.024513531591538"><ele>78.66666666666667</ele><time>2026-04-06T08:29:28Z</time></trkpt><trkpt lat="41.20453519366668" lon="16.024290093363664"><ele>79.33333333333334</ele><time>2026-04-06T08:29:29Z</time></trkpt><trkpt lat="41.204422514743264" lon="16.024065135436853"><ele>80.0</ele><time>2026-04-06T08:29:30Z</time></trkpt><trkpt lat="41.20431122590571" lon="16.023845592586426"><ele>80.33333333333334</ele><time>2026-04-06T08:29:31Z</time></trkpt><trkpt lat="41.20419737598253" lon="16.0236221674494"><ele>80.66666666666667</ele><time>2026-04-06T08:29:32Z</time></trkpt><trkpt lat="41.20408523656343" lon="16.02339754125954"><ele>81.0</ele><time>2026-04-06T08:29:33Z</time></trkpt><trkpt lat="41.20397690810689" lon="16.02317641363556"><ele>81.0</ele><time>2026-04-06T08:29:34Z</time></trkpt><trkpt lat="41.20386323043334" lon="16.02295021528178"><ele>81.0</ele><time>2026-04-06T08:29:35Z</time></trkpt><trkpt lat="41.20375083304457" lon="16.022736074776493"><ele>81.0</ele><time>2026-04-06T08:29:36Z</time></trkpt><trkpt lat="41.20363864427884" lon="16.022517950784305"><ele>80.66666666666667</ele><time>2026-04-06T08:29:37Z</time></trkpt><trkpt lat="41.20352760189183" lon="16.02229617304941"><ele>80.33333333333334</ele><time>2026-04-06T08:29:38Z</time></trkpt><trkpt lat="41.2034173913528" lon="16.02207782975599"><ele>80.0</ele><time>2026-04-06T08:29:39Z</time></trkpt><trkpt lat="41.20331166029429" lon="16.021862636763267"><ele>80.0</ele><time>2026-04-06T08:29:40Z</time></trkpt><trkpt lat="41.203195752718045" lon="16.02164415825253"><ele>80.0</ele><time>2026-04-06T08:29:41Z</time></trkpt><trkpt lat="41.20308247212717" lon="16.021427296322024"><ele>80.0</ele><time>2026-04-06T08:29:42Z</time></trkpt><trkpt lat="41.20297163286952" lon="16.021207301683432"><ele>80.0</ele><time>2026-04-06T08:29:43Z</time></trkpt><trkpt lat="41.202863053930706" lon="16.020989423289027"><ele>80.0</ele><time>2026-04-06T08:29:44Z</time></trkpt><trkpt lat="41.202752707363125" lon="16.02076812994123"><ele>80.0</ele><time>2026-04-06T08:29:45Z</time></trkpt><trkpt lat="41.202641883473134" lon="16.020544559775082"><ele>80.0</ele><time>2026-04-06T08:29:46Z</time></trkpt><trkpt lat="41.20253351381343" lon="16.020323980501665"><ele>80.0</ele><time>2026-04-06T08:29:47Z</time></trkpt><trkpt lat="41.2024215719946" lon="16.020107319942802"><ele>80.0</ele><time>2026-04-06T08:29:48Z</time></trkpt><trkpt lat="41.20230980516828" lon="16.01988842055129"><ele>81.33333333333334</ele><time>2026-04-06T08:29:49Z</time></trkpt><trkpt lat="41.202199148811594" lon="16.019669546635303"><ele>82.66666666666667</ele><time>2026-04-06T08:29:50Z</time></trkpt><trkpt lat="41.20209118753112" lon="16.019447292204138"><ele>84.0</ele><time>2026-04-06T08:29:51Z</time></trkpt><trkpt lat="41.20198120371443" lon="16.01922431237212"><ele>83.33333333333333</ele><time>2026-04-06T08:29:52Z</time></trkpt><trkpt lat="41.20187115858226" lon="16.019008363558296"><ele>82.66666666666666</ele><time>2026-04-06T08:29:53Z</time></trkpt><trkpt lat="41.20175958848499" lon="16.018794719517576"><ele>82.0</ele><time>2026-04-06T08:29:54Z</time></trkpt><trkpt lat="41.20164692087915" lon="16.01857634499692"><ele>82.0</ele><time>2026-04-06T08:29:55Z</time></trkpt><trkpt lat="41.201537130855755" lon="16.01836208291868"><ele>82.0</ele><time>2026-04-06T08:29:56Z</time></trkpt><trkpt lat="41.20142703347746" lon="16.018152374035292"><ele>82.0</ele><time>2026-04-06T08:29:57Z</time></trkpt><trkpt lat="41.20131628956363" lon="16.017937808936264"><ele>82.33333333333333</ele><time>2026-04-06T08:29:58Z</time></trkpt><trkpt lat="41.20121002394833" lon="16.017725604869636"><ele>82.66666666666667</ele><time>2026-04-06T08:29:59Z</time></trkpt><trkpt lat="41.20110338049311" lon="16.01751104647761"><ele>83.0</ele><time>2026-04-06T08:30:00Z</time></trkpt><trkpt lat="41.2009942289524" lon="16.017295928484295"><ele>83.0</ele><time>2026-04-06T08:30:01Z</time></trkpt><trkpt lat="41.200885275708835" lon="16.017081765949953"><ele>83.0</ele><time>2026-04-06T08:30:02Z</time></trkpt><trkpt lat="41.200778078690014" lon="16.016867864115127"><ele>83.0</ele><time>2026-04-06T08:30:03Z</time></trkpt><trkpt lat="41.20066807374739" lon="16.01665187066693"><ele>83.0</ele><time>2026-04-06T08:30:04Z</time></trkpt><trkpt lat="41.200556399462016" lon="16.016437252353644"><ele>83.0</ele><time>2026-04-06T08:30:05Z</time></trkpt><trkpt lat="41.20044187960805" lon="16.016220338140382"><ele>83.0</ele><time>2026-04-06T08:30:06Z</time></trkpt><trkpt lat="41.20032919754606" lon="16.01600416348388"><ele>83.33333333333334</ele><time>2026-04-06T08:30:07Z</time></trkpt><trkpt lat="41.200215350911186" lon="16.015788229215982"><ele>83.66666666666667</ele><time>2026-04-06T08:30:08Z</time></trkpt><trkpt lat="41.20010149839253" lon="16.01556912710135"><ele>84.0</ele><time>2026-04-06T08:30:09Z</time></trkpt><trkpt lat="41.1999915877273" lon="16.015350058988204"><ele>84.0</ele><time>2026-04-06T08:30:10Z</time></trkpt><trkpt lat="41.19988155305124" lon="16.01512959633247"><ele>84.0</ele><time>2026-04-06T08:30:11Z</time></trkpt><trkpt lat="41.19976905201474" lon="16.014907036167916"><ele>84.0</ele><time>2026-04-06T08:30:12Z</time></trkpt><trkpt lat="41.19965593477731" lon="16.01468326742947"><ele>84.33333333333333</ele><time>2026-04-06T08:30:13Z</time></trkpt><trkpt lat="41.19954551494185" lon="16.01446607676273"><ele>84.66666666666666</ele><time>2026-04-06T08:30:14Z</time></trkpt><trkpt lat="41.19943116003204" lon="16.01424572064386"><ele>85.0</ele><time>2026-04-06T08:30:15Z</time></trkpt><trkpt lat="41.19931670949503" lon="16.0140218847032"><ele>85.0</ele><time>2026-04-06T08:30:16Z</time></trkpt><trkpt lat="41.199201628376066" lon="16.013797343931046"><ele>85.0</ele><time>2026-04-06T08:30:17Z</time></trkpt><trkpt lat="41.199086307415214" lon="16.013570285577043"><ele>85.0</ele><time>2026-04-06T08:30:18Z</time></trkpt><trkpt lat="41.198972387661456" lon="16.013346080824746"><ele>85.33333333333333</ele><time>2026-04-06T08:30:19Z</time></trkpt><trkpt lat="41.19885648266486" lon="16.01311514259822"><ele>85.66666666666667</ele><time>2026-04-06T08:30:20Z</time></trkpt><trkpt lat="41.198744727079905" lon="16.012885630979046"><ele>86.0</ele><time>2026-04-06T08:30:21Z</time></trkpt><trkpt lat="41.1986297943155" lon="16.01265625979562"><ele>86.0</ele><time>2026-04-06T08:30:22Z</time></trkpt><trkpt lat="41.19851344136947" lon="16.01243074842808"><ele>86.0</ele><time>2026-04-06T08:30:23Z</time></trkpt><trkpt lat="41.19839971495936" lon="16.01220501058084"><ele>86.0</ele><time>2026-04-06T08:30:24Z</time></trkpt><trkpt lat="41.19828362566646" lon="16.01197593253915"><ele>86.33333333333334</ele><time>2026-04-06T08:30:25Z</time></trkpt><trkpt lat="41.19816731412961" lon="16.01174757908447"><ele>86.66666666666667</ele><time>2026-04-06T08:30:26Z</time></trkpt><trkpt lat="41.19805200275961" lon="16.01151985525743"><ele>87.0</ele><time>2026-04-06T08:30:27Z</time></trkpt><trkpt lat="41.19793775140722" lon="16.0112923678984"><ele>87.0</ele><time>2026-04-06T08:30:28Z</time></trkpt><trkpt lat="41.19782232177375" lon="16.01106598276599"><ele>87.0</ele><time>2026-04-06T08:30:29Z</time></trkpt><trkpt lat="41.19770777212605" lon="16.010835486192374"><ele>87.0</ele><time>2026-04-06T08:30:30Z</time></trkpt><trkpt lat="41.19759341244561" lon="16.010607521842598"><ele>87.0</ele><time>2026-04-06T08:30:31Z</time></trkpt><trkpt lat="41.19747894984057" lon="16.010380332023647"><ele>87.0</ele><time>2026-04-06T08:30:32Z</time></trkpt><trkpt lat="41.19736314019755" lon="16.01015110093248"><ele>87.0</ele><time>2026-04-06T08:30:33Z</time></trkpt><trkpt lat="41.19724915206613" lon="16.00992371408195"><ele>88.0</ele><time>2026-04-06T08:30:34Z</time></trkpt><trkpt lat="41.197133821810255" lon="16.00969752991057"><ele>89.0</ele><time>2026-04-06T08:30:35Z</time></trkpt><trkpt lat="41.197016193184695" lon="16.009472859572696"><ele>90.0</ele><time>2026-04-06T08:30:36Z</time></trkpt><trkpt lat="41.19689989434732" lon="16.009248454501442"><ele>89.66666666666667</ele><time>2026-04-06T08:30:37Z</time></trkpt><trkpt lat="41.19678270973968" lon="16.009018141398823"><ele>89.33333333333334</ele><time>2026-04-06T08:30:38Z</time></trkpt><trkpt lat="41.19666546908712" lon="16.008790340160804"><ele>89.0</ele><time>2026-04-06T08:30:39Z</time></trkpt><trkpt lat="41.19654984827977" lon="16.008561735669893"><ele>89.0</ele><time>2026-04-06T08:30:40Z</time></trkpt><trkpt lat="41.19643651432777" lon="16.008333484781634"><ele>89.0</ele><time>2026-04-06T08:30:41Z</time></trkpt><trkpt lat="41.19632151978024" lon="16.0081025968821"><ele>89.0</ele><time>2026-04-06T08:30:42Z</time></trkpt><trkpt lat="41.19620398464229" lon="16.007875354960415"><ele>89.0</ele><time>2026-04-06T08:30:43Z</time></trkpt><trkpt lat="41.19608805177268" lon="16.007645655531466"><ele>89.0</ele><time>2026-04-06T08:30:44Z</time></trkpt><trkpt lat="41.19597188638798" lon="16.00741312420512"><ele>89.0</ele><time>2026-04-06T08:30:45Z</time></trkpt><trkpt lat="41.1958548959532" lon="16.00718279191447"><ele>89.0</ele><time>2026-04-06T08:30:46Z</time></trkpt><trkpt lat="41.19573745262135" lon="16.006952320733603"><ele>89.0</ele><time>2026-04-06T08:30:47Z</time></trkpt><trkpt lat="41.195619351215875" lon="16.00672169070559"><ele>89.0</ele><time>2026-04-06T08:30:48Z</time></trkpt><trkpt lat="41.19550053475855" lon="16.006493515979688"><ele>89.0</ele><time>2026-04-06T08:30:49Z</time></trkpt><trkpt lat="41.19538034479463" lon="16.00626098074633"><ele>89.0</ele><time>2026-04-06T08:30:50Z</time></trkpt><trkpt lat="41.195262749012265" lon="16.006032842562774"><ele>89.0</ele><time>2026-04-06T08:30:51Z</time></trkpt><trkpt lat="41.195146285708226" lon="16.005803509242046"><ele>88.66666666666667</ele><time>2026-04-06T08:30:52Z</time></trkpt><trkpt lat="41.195030419804354" lon="16.005573632870693"><ele>88.33333333333333</ele><time>2026-04-06T08:30:53Z</time></trkpt><trkpt lat="41.19491475886809" lon="16.00533992012488"><ele>88.0</ele><time>2026-04-06T08:30:54Z</time></trkpt><trkpt lat="41.194798044751586" lon="16.005112867233727"><ele>88.33333333333333</ele><time>2026-04-06T08:30:55Z</time></trkpt><trkpt lat="41.19468251751833" lon="16.004886541114477"><ele>88.66666666666667</ele><time>2026-04-06T08:30:56Z</time></trkpt><trkpt lat="41.194565202345" lon="16.004658252548523"><ele>89.0</ele><time>2026-04-06T08:30:57Z</time></trkpt><trkpt lat="41.19444862590609" lon="16.004430426546136"><ele>89.0</ele><time>2026-04-06T08:30:58Z</time></trkpt><trkpt lat="41.1943332935122" lon="16.00419901932271"><ele>89.0</ele><time>2026-04-06T08:30:59Z</time></trkpt><trkpt lat="41.19421932863663" lon="16.003970090970135"><ele>89.0</ele><time>2026-04-06T08:31:00Z</time></trkpt><trkpt lat="41.194105158575994" lon="16.003744348456976"><ele>89.0</ele><time>2026-04-06T08:31:01Z</time></trkpt><trkpt lat="41.19398803113928" lon="16.003517550079025"><ele>89.0</ele><time>2026-04-06T08:31:02Z</time></trkpt><trkpt lat="41.193868750643375" lon="16.003291360697855"><ele>89.0</ele><time>2026-04-06T08:31:03Z</time></trkpt><trkpt lat="41.19375196568509" lon="16.003065924972372"><ele>89.0</ele><time>2026-04-06T08:31:04Z</time></trkpt><trkpt lat="41.193636455173305" lon="16.002838588041573"><ele>89.0</ele><time>2026-04-06T08:31:05Z</time></trkpt><trkpt lat="41.19352365201861" lon="16.002611341207707"><ele>89.0</ele><time>2026-04-06T08:31:06Z</time></trkpt><trkpt lat="41.193411314605406" lon="16.002382099262906"><ele>88.66666666666667</ele><time>2026-04-06T08:31:07Z</time></trkpt><trkpt lat="41.19329740520913" lon="16.002154970212743"><ele>88.33333333333333</ele><time>2026-04-06T08:31:08Z</time></trkpt><trkpt lat="41.193183465239606" lon="16.00192575277604"><ele>88.0</ele><time>2026-04-06T08:31:09Z</time></trkpt><trkpt lat="41.193068055235834" lon="16.00169957775526"><ele>88.0</ele><time>2026-04-06T08:31:10Z</time></trkpt><trkpt lat="41.192951774759415" lon="16.001470468421584"><ele>88.0</ele><time>2026-04-06T08:31:11Z</time></trkpt><trkpt lat="41.19283412802406" lon="16.001245070354766"><ele>88.0</ele><time>2026-04-06T08:31:12Z</time></trkpt><trkpt lat="41.19271748480601" lon="16.001021231466282"><ele>86.66666666666666</ele><time>2026-04-06T08:31:13Z</time></trkpt><trkpt lat="41.19260214735675" lon="16.000801737493273"><ele>85.33333333333333</ele><time>2026-04-06T08:31:14Z</time></trkpt><trkpt lat="41.19248589448555" lon="16.00057393295688"><ele>84.0</ele><time>2026-04-06T08:31:15Z</time></trkpt><trkpt lat="41.192370535172785" lon="16.000344322337558"><ele>85.33333333333333</ele><time>2026-04-06T08:31:16Z</time></trkpt><trkpt lat="41.1922544828689" lon="16.00011661948706"><ele>86.66666666666666</ele><time>2026-04-06T08:31:17Z</time></trkpt><trkpt lat="41.19213805721818" lon="15.999889433262089"><ele>88.0</ele><time>2026-04-06T08:31:18Z</time></trkpt><trkpt lat="41.19202172317414" lon="15.999663570533205"><ele>88.0</ele><time>2026-04-06T08:31:19Z</time></trkpt><trkpt lat="41.19190738827308" lon="15.999435578676616"><ele>88.0</ele><time>2026-04-06T08:31:20Z</time></trkpt><trkpt lat="41.191795526068574" lon="15.999203228799686"><ele>88.0</ele><time>2026-04-06T08:31:21Z</time></trkpt><trkpt lat="41.191682859805475" lon="15.998976579612407"><ele>88.0</ele><time>2026-04-06T08:31:22Z</time></trkpt><trkpt lat="41.19156889742429" lon="15.998754550985995"><ele>88.0</ele><time>2026-04-06T08:31:23Z</time></trkpt><trkpt lat="41.19145366363126" lon="15.998528330066833"><ele>88.0</ele><time>2026-04-06T08:31:24Z</time></trkpt><trkpt lat="41.191338768659975" lon="15.998302737727656"><ele>88.0</ele><time>2026-04-06T08:31:25Z</time></trkpt><trkpt lat="41.19122398446604" lon="15.998083089771674"><ele>88.0</ele><time>2026-04-06T08:31:26Z</time></trkpt><trkpt lat="41.19110974648087" lon="15.997857997758095"><ele>88.0</ele><time>2026-04-06T08:31:27Z</time></trkpt><trkpt lat="41.19099515041031" lon="15.997637927563053"><ele>88.33333333333333</ele><time>2026-04-06T08:31:28Z</time></trkpt><trkpt lat="41.19088156470904" lon="15.997416066595134"><ele>88.66666666666667</ele><time>2026-04-06T08:31:29Z</time></trkpt><trkpt lat="41.19076880029959" lon="15.997192874044066"><ele>89.0</ele><time>2026-04-06T08:31:30Z</time></trkpt><trkpt lat="41.19065616287483" lon="15.996972528217007"><ele>89.0</ele><time>2026-04-06T08:31:31Z</time></trkpt><trkpt lat="41.19054134530511" lon="15.996745306751988"><ele>89.0</ele><time>2026-04-06T08:31:32Z</time></trkpt><trkpt lat="41.19042532122019" lon="15.996521413572347"><ele>89.0</ele><time>2026-04-06T08:31:33Z</time></trkpt><trkpt lat="41.19030822423847" lon="15.99629593222137"><ele>88.0</ele><time>2026-04-06T08:31:34Z</time></trkpt><trkpt lat="41.19019357253661" lon="15.996073553158626"><ele>87.0</ele><time>2026-04-06T08:31:35Z</time></trkpt><trkpt lat="41.19007868081868" lon="15.995843904438473"><ele>86.0</ele><time>2026-04-06T08:31:36Z</time></trkpt><trkpt lat="41.18996408598043" lon="15.995617830988412"><ele>86.0</ele><time>2026-04-06T08:31:37Z</time></trkpt><trkpt lat="41.18985230298492" lon="15.995392586595758"><ele>86.0</ele><time>2026-04-06T08:31:38Z</time></trkpt><trkpt lat="41.189738456139864" lon="15.995161331338045"><ele>86.0</ele><time>2026-04-06T08:31:39Z</time></trkpt><trkpt lat="41.1896218363095" lon="15.994938712460138"><ele>86.0</ele><time>2026-04-06T08:31:40Z</time></trkpt><trkpt lat="41.18950437267536" lon="15.994711087803779"><ele>86.0</ele><time>2026-04-06T08:31:41Z</time></trkpt><trkpt lat="41.189385893820806" lon="15.994485365282545"><ele>86.0</ele><time>2026-04-06T08:31:42Z</time></trkpt><trkpt lat="41.18926790793488" lon="15.994253951737623"><ele>86.0</ele><time>2026-04-06T08:31:43Z</time></trkpt><trkpt lat="41.18915212587562" lon="15.994020715670095"><ele>86.0</ele><time>2026-04-06T08:31:44Z</time></trkpt><trkpt lat="41.18903690883511" lon="15.993786514369026"><ele>86.0</ele><time>2026-04-06T08:31:45Z</time></trkpt><trkpt lat="41.188918733708995" lon="15.993554265756417"><ele>86.0</ele><time>2026-04-06T08:31:46Z</time></trkpt><trkpt lat="41.18879778059817" lon="15.993322382843882"><ele>86.0</ele><time>2026-04-06T08:31:47Z</time></trkpt><trkpt lat="41.18867534518645" lon="15.99309506042933"><ele>86.0</ele><time>2026-04-06T08:31:48Z</time></trkpt><trkpt lat="41.188556387832094" lon="15.9928611946428"><ele>86.0</ele><time>2026-04-06T08:31:49Z</time></trkpt><trkpt lat="41.18843775640797" lon="15.992629072542943"><ele>86.0</ele><time>2026-04-06T08:31:50Z</time></trkpt><trkpt lat="41.18831904433042" lon="15.99239769324026"><ele>86.0</ele><time>2026-04-06T08:31:51Z</time></trkpt><trkpt lat="41.188198963582536" lon="15.992166837970062"><ele>86.0</ele><time>2026-04-06T08:31:52Z</time></trkpt><trkpt lat="41.18807982564843" lon="15.99193358124783"><ele>86.0</ele><time>2026-04-06T08:31:53Z</time></trkpt><trkpt lat="41.18796255027927" lon="15.99169991671213"><ele>86.0</ele><time>2026-04-06T08:31:54Z</time></trkpt><trkpt lat="41.18784409925" lon="15.991464389074542"><ele>85.66666666666667</ele><time>2026-04-06T08:31:55Z</time></trkpt><trkpt lat="41.18772438544706" lon="15.991229555880816"><ele>85.33333333333333</ele><time>2026-04-06T08:31:56Z</time></trkpt><trkpt lat="41.18760518522007" lon="15.991000922746476"><ele>85.0</ele><time>2026-04-06T08:31:57Z</time></trkpt><trkpt lat="41.18749719275943" lon="15.990783480345948"><ele>84.66666666666666</ele><time>2026-04-06T08:31:58Z</time></trkpt><trkpt lat="41.18739222506531" lon="15.990580351556362"><ele>84.33333333333333</ele><time>2026-04-06T08:31:59Z</time></trkpt><trkpt lat="41.18729136583136" lon="15.990383833416072"><ele>84.0</ele><time>2026-04-06T08:32:00Z</time></trkpt><trkpt lat="41.187196322788665" lon="15.99020145506637"><ele>84.33333333333333</ele><time>2026-04-06T08:32:01Z</time></trkpt><trkpt lat="41.18710935558213" lon="15.990028762689825"><ele>84.66666666666666</ele><time>2026-04-06T08:32:02Z</time></trkpt><trkpt lat="41.187024523571715" lon="15.989856287769454"><ele>85.0</ele><time>2026-04-06T08:32:03Z</time></trkpt><trkpt lat="41.18694042526987" lon="15.989687865676478"><ele>85.0</ele><time>2026-04-06T08:32:04Z</time></trkpt><trkpt lat="41.186858336013586" lon="15.989527202107988"><ele>85.0</ele><time>2026-04-06T08:32:05Z</time></trkpt><trkpt lat="41.1867778458488" lon="15.98936896062484"><ele>85.0</ele><time>2026-04-06T08:32:06Z</time></trkpt><trkpt lat="41.18669754981035" lon="15.989212153544772"><ele>85.0</ele><time>2026-04-06T08:32:07Z</time></trkpt><trkpt lat="41.186622570028774" lon="15.989067467551866"><ele>85.0</ele><time>2026-04-06T08:32:08Z</time></trkpt><trkpt lat="41.186549095178236" lon="15.988926933455403"><ele>85.0</ele><time>2026-04-06T08:32:09Z</time></trkpt><trkpt lat="41.18647891069179" lon="15.988790278546986"><ele>85.0</ele><time>2026-04-06T08:32:10Z</time></trkpt><trkpt lat="41.18640878460878" lon="15.98865017038878"><ele>85.0</ele><time>2026-04-06T08:32:11Z</time></trkpt><trkpt lat="41.186342955144475" lon="15.988510137233266"><ele>85.25</ele><time>2026-04-06T08:32:12Z</time></trkpt><trkpt lat="41.18627344557429" lon="15.988371565231258"><ele>85.5</ele><time>2026-04-06T08:32:13Z</time></trkpt><trkpt lat="41.18620368665186" lon="15.988237917745712"><ele>85.75</ele><time>2026-04-06T08:32:14Z</time></trkpt><trkpt lat="41.186137969746504" lon="15.988103355766679"><ele>86.0</ele><time>2026-04-06T08:32:15Z</time></trkpt><trkpt lat="41.1860728534676" lon="15.98796954466494"><ele>86.0</ele><time>2026-04-06T08:32:16Z</time></trkpt><trkpt lat="41.186012814079824" lon="15.987841746013977"><ele>86.0</ele><time>2026-04-06T08:32:17Z</time></trkpt><trkpt lat="41.185945344635286" lon="15.987702889427487"><ele>86.0</ele><time>2026-04-06T08:32:18Z</time></trkpt><trkpt lat="41.18586124174592" lon="15.987548195028541"><ele>86.0</ele><time>2026-04-06T08:32:19Z</time></trkpt><trkpt lat="41.18577028864706" lon="15.987381239244073"><ele>86.0</ele><time>2026-04-06T08:32:20Z</time></trkpt><trkpt lat="41.18568252888369" lon="15.987202182215732"><ele>86.0</ele><time>2026-04-06T08:32:21Z</time></trkpt><trkpt lat="41.18559087439443" lon="15.987014514022842"><ele>86.0</ele><time>2026-04-06T08:32:22Z</time></trkpt><trkpt lat="41.18549475111076" lon="15.986831028573992"><ele>86.0</ele><time>2026-04-06T08:32:23Z</time></trkpt><trkpt lat="41.185392663535055" lon="15.986638705107653"><ele>86.0</ele><time>2026-04-06T08:32:24Z</time></trkpt><trkpt lat="41.18528990284167" lon="15.986440267382173"><ele>86.0</ele><time>2026-04-06T08:32:25Z</time></trkpt><trkpt lat="41.185185437123174" lon="15.986236334316693"><ele>86.0</ele><time>2026-04-06T08:32:26Z</time></trkpt><trkpt lat="41.18507966408007" lon="15.986028953989436"><ele>86.0</ele><time>2026-04-06T08:32:27Z</time></trkpt><trkpt lat="41.18497830343971" lon="15.98582661602803"><ele>86.0</ele><time>2026-04-06T08:32:28Z</time></trkpt><trkpt lat="41.184873301086476" lon="15.985623748408"><ele>86.33333333333334</ele><time>2026-04-06T08:32:29Z</time></trkpt><trkpt lat="41.18476822366416" lon="15.98541868102203"><ele>86.66666666666667</ele><time>2026-04-06T08:32:30Z</time></trkpt><trkpt lat="41.1846680510911" lon="15.985212072431214"><ele>87.0</ele><time>2026-04-06T08:32:31Z</time></trkpt><trkpt lat="41.18456366993871" lon="15.984997380087549"><ele>86.0</ele><time>2026-04-06T08:32:32Z</time></trkpt><trkpt lat="41.1844629454291" lon="15.984775883129213"><ele>85.0</ele><time>2026-04-06T08:32:33Z</time></trkpt><trkpt lat="41.18437005178702" lon="15.984545903887337"><ele>84.0</ele><time>2026-04-06T08:32:34Z</time></trkpt><trkpt lat="41.18428529870911" lon="15.984303288965977"><ele>82.66666666666667</ele><time>2026-04-06T08:32:35Z</time></trkpt><trkpt lat="41.18421608220136" lon="15.984051315448443"><ele>81.33333333333334</ele><time>2026-04-06T08:32:36Z</time></trkpt><trkpt lat="41.18416377403727" lon="15.983786105295769"><ele>80.0</ele><time>2026-04-06T08:32:37Z</time></trkpt><trkpt lat="41.184125222150875" lon="15.983514452100035"><ele>79.66666666666667</ele><time>2026-04-06T08:32:38Z</time></trkpt><trkpt lat="41.184082083459884" lon="15.9832445646756"><ele>79.33333333333333</ele><time>2026-04-06T08:32:39Z</time></trkpt><trkpt lat="41.18403146677618" lon="15.982980158157028"><ele>79.0</ele><time>2026-04-06T08:32:40Z</time></trkpt><trkpt lat="41.18397607954721" lon="15.982710333119913"><ele>78.66666666666666</ele><time>2026-04-06T08:32:41Z</time></trkpt><trkpt lat="41.183927032414914" lon="15.982446922421735"><ele>78.33333333333333</ele><time>2026-04-06T08:32:42Z</time></trkpt><trkpt lat="41.18387093300517" lon="15.982178560152217"><ele>78.0</ele><time>2026-04-06T08:32:43Z</time></trkpt><trkpt lat="41.183818919294566" lon="15.981914188651402"><ele>78.33333333333333</ele><time>2026-04-06T08:32:44Z</time></trkpt><trkpt lat="41.18376709085306" lon="15.981649880882994"><ele>78.66666666666666</ele><time>2026-04-06T08:32:45Z</time></trkpt><trkpt lat="41.18371606992605" lon="15.981382008600384"><ele>79.0</ele><time>2026-04-06T08:32:46Z</time></trkpt><trkpt lat="41.183668264685174" lon="15.981116163735877"><ele>78.33333333333333</ele><time>2026-04-06T08:32:47Z</time></trkpt><trkpt lat="41.18361932939073" lon="15.9808489805825"><ele>77.66666666666667</ele><time>2026-04-06T08:32:48Z</time></trkpt><trkpt lat="41.183567661196754" lon="15.980585703902136"><ele>77.0</ele><time>2026-04-06T08:32:49Z</time></trkpt><trkpt lat="41.18352030723326" lon="15.98032848927295"><ele>77.0</ele><time>2026-04-06T08:32:50Z</time></trkpt><trkpt lat="41.1834683165628" lon="15.980059656423272"><ele>77.0</ele><time>2026-04-06T08:32:51Z</time></trkpt><trkpt lat="41.18342071144665" lon="15.979795505915593"><ele>77.0</ele><time>2026-04-06T08:32:52Z</time></trkpt><trkpt lat="41.1833734612391" lon="15.979543819291088"><ele>76.66666666666667</ele><time>2026-04-06T08:32:53Z</time></trkpt><trkpt lat="41.18332774796307" lon="15.97930029875445"><ele>76.33333333333333</ele><time>2026-04-06T08:32:54Z</time></trkpt><trkpt lat="41.18328549879743" lon="15.979060150926442"><ele>76.0</ele><time>2026-04-06T08:32:55Z</time></trkpt><trkpt lat="41.18324175999306" lon="15.978822339006937"><ele>76.0</ele><time>2026-04-06T08:32:56Z</time></trkpt><trkpt lat="41.18318499700401" lon="15.978587167907591"><ele>76.0</ele><time>2026-04-06T08:32:57Z</time></trkpt><trkpt lat="41.18311088721968" lon="15.978365629648259"><ele>76.0</ele><time>2026-04-06T08:32:58Z</time></trkpt><trkpt lat="41.183013087810494" lon="15.978155124552432"><ele>78.0</ele><time>2026-04-06T08:32:59Z</time></trkpt><trkpt lat="41.18290064175989" lon="15.97798423879138"><ele>80.0</ele><time>2026-04-06T08:33:00Z</time></trkpt><trkpt lat="41.18275528902375" lon="15.977833490398265"><ele>82.0</ele><time>2026-04-06T08:33:01Z</time></trkpt><trkpt lat="41.182599250998436" lon="15.97770885682397"><ele>82.0</ele><time>2026-04-06T08:33:02Z</time></trkpt><trkpt lat="41.18243269940106" lon="15.977596724328645"><ele>82.0</ele><time>2026-04-06T08:33:03Z</time></trkpt><trkpt lat="41.18226492140979" lon="15.97747666384609"><ele>82.0</ele><time>2026-04-06T08:33:04Z</time></trkpt><trkpt lat="41.1821022338693" lon="15.977350788897386"><ele>83.66666666666666</ele><time>2026-04-06T08:33:05Z</time></trkpt><trkpt lat="41.18193567454286" lon="15.977218700337922"><ele>85.33333333333333</ele><time>2026-04-06T08:33:06Z</time></trkpt><trkpt lat="41.18176920258072" lon="15.977087172572292"><ele>87.0</ele><time>2026-04-06T08:33:07Z</time></trkpt><trkpt lat="41.181602617061166" lon="15.97695591683938"><ele>87.66666666666667</ele><time>2026-04-06T08:33:08Z</time></trkpt><trkpt lat="41.181434977379396" lon="15.9768216783517"><ele>88.33333333333334</ele><time>2026-04-06T08:33:09Z</time></trkpt><trkpt lat="41.181261421414554" lon="15.976683445035599"><ele>89.0</ele><time>2026-04-06T08:33:10Z</time></trkpt><trkpt lat="41.181089112307795" lon="15.976547773444953"><ele>89.0</ele><time>2026-04-06T08:33:11Z</time></trkpt><trkpt lat="41.1809104824405" lon="15.976411059703466"><ele>89.0</ele><time>2026-04-06T08:33:12Z</time></trkpt><trkpt lat="41.180738445856214" lon="15.976278136024243"><ele>89.0</ele><time>2026-04-06T08:33:13Z</time></trkpt><trkpt lat="41.18056340732125" lon="15.97614042978575"><ele>89.33333333333334</ele><time>2026-04-06T08:33:14Z</time></trkpt><trkpt lat="41.18038676048141" lon="15.976000486372552"><ele>89.66666666666667</ele><time>2026-04-06T08:33:15Z</time></trkpt><trkpt lat="41.180220594523156" lon="15.975833470641478"><ele>90.0</ele><time>2026-04-06T08:33:16Z</time></trkpt><trkpt lat="41.18006509369539" lon="15.975679032513366"><ele>90.0</ele><time>2026-04-06T08:33:17Z</time></trkpt><trkpt lat="41.17990812763169" lon="15.97550568364506"><ele>90.0</ele><time>2026-04-06T08:33:18Z</time></trkpt><trkpt lat="41.17973882468487" lon="15.97534044675699"><ele>90.0</ele><time>2026-04-06T08:33:19Z</time></trkpt><trkpt lat="41.17958613653389" lon="15.975154841918707"><ele>90.33333333333333</ele><time>2026-04-06T08:33:20Z</time></trkpt><trkpt lat="41.179436833152664" lon="15.974960375759686"><ele>90.66666666666666</ele><time>2026-04-06T08:33:21Z</time></trkpt><trkpt lat="41.179316625323594" lon="15.974739116338931"><ele>91.0</ele><time>2026-04-06T08:33:22Z</time></trkpt><trkpt lat="41.17917904604946" lon="15.974514914763331"><ele>91.0</ele><time>2026-04-06T08:33:23Z</time></trkpt><trkpt lat="41.179065807950295" lon="15.974281179158453"><ele>91.0</ele><time>2026-04-06T08:33:24Z</time></trkpt><trkpt lat="41.17895466597462" lon="15.974054110699274"><ele>91.0</ele><time>2026-04-06T08:33:25Z</time></trkpt><trkpt lat="41.17883399675308" lon="15.973820887954723"><ele>91.66666666666666</ele><time>2026-04-06T08:33:26Z</time></trkpt><trkpt lat="41.178715928580296" lon="15.973599656025064"><ele>92.33333333333333</ele><time>2026-04-06T08:33:27Z</time></trkpt><trkpt lat="41.17859576912867" lon="15.973365668131082"><ele>93.0</ele><time>2026-04-06T08:33:28Z</time></trkpt><trkpt lat="41.178479046426375" lon="15.973144647563183"><ele>93.0</ele><time>2026-04-06T08:33:29Z</time></trkpt><trkpt lat="41.17836200918542" lon="15.972917711579644"><ele>93.0</ele><time>2026-04-06T08:33:30Z</time></trkpt><trkpt lat="41.17824159179266" lon="15.97269834750048"><ele>93.0</ele><time>2026-04-06T08:33:31Z</time></trkpt><trkpt lat="41.17812254656719" lon="15.972476068384688"><ele>95.0</ele><time>2026-04-06T08:33:32Z</time></trkpt><trkpt lat="41.17800590235292" lon="15.9722492646025"><ele>97.0</ele><time>2026-04-06T08:33:33Z</time></trkpt><trkpt lat="41.17788934705997" lon="15.972025093440356"><ele>99.0</ele><time>2026-04-06T08:33:34Z</time></trkpt><trkpt lat="41.17777451436101" lon="15.97179182206446"><ele>97.33333333333333</ele><time>2026-04-06T08:33:35Z</time></trkpt><trkpt lat="41.17765457299764" lon="15.971565012749744"><ele>95.66666666666666</ele><time>2026-04-06T08:33:36Z</time></trkpt><trkpt lat="41.17753417493036" lon="15.9713304658118"><ele>94.0</ele><time>2026-04-06T08:33:37Z</time></trkpt><trkpt lat="41.17741412789743" lon="15.971101608572726"><ele>94.33333333333333</ele><time>2026-04-06T08:33:38Z</time></trkpt><trkpt lat="41.17729071208578" lon="15.970870712484642"><ele>94.66666666666667</ele><time>2026-04-06T08:33:39Z</time></trkpt><trkpt lat="41.17716764378025" lon="15.970639208705778"><ele>95.0</ele><time>2026-04-06T08:33:40Z</time></trkpt><trkpt lat="41.177047319559996" lon="15.970401076657778"><ele>95.0</ele><time>2026-04-06T08:33:41Z</time></trkpt><trkpt lat="41.17692480130276" lon="15.970166577054572"><ele>95.0</ele><time>2026-04-06T08:33:42Z</time></trkpt><trkpt lat="41.17680059321215" lon="15.969936390607515"><ele>95.0</ele><time>2026-04-06T08:33:43Z</time></trkpt><trkpt lat="41.17667750796501" lon="15.969701736352667"><ele>95.66666666666667</ele><time>2026-04-06T08:33:44Z</time></trkpt><trkpt lat="41.1765543147325" lon="15.969470281306535"><ele>96.33333333333334</ele><time>2026-04-06T08:33:45Z</time></trkpt><trkpt lat="41.176431717727574" lon="15.969236656390642"><ele>97.0</ele><time>2026-04-06T08:33:46Z</time></trkpt><trkpt lat="41.17631000084915" lon="15.96899910509804"><ele>95.66666666666667</ele><time>2026-04-06T08:33:47Z</time></trkpt><trkpt lat="41.17618637232608" lon="15.9687632870652"><ele>94.33333333333334</ele><time>2026-04-06T08:33:48Z</time></trkpt><trkpt lat="41.17606150872389" lon="15.968529750379618"><ele>93.0</ele><time>2026-04-06T08:33:49Z</time></trkpt><trkpt lat="41.175936015993535" lon="15.968294618851967"><ele>92.33333333333333</ele><time>2026-04-06T08:33:50Z</time></trkpt><trkpt lat="41.1758116110643" lon="15.968058320062411"><ele>91.66666666666666</ele><time>2026-04-06T08:33:51Z</time></trkpt><trkpt lat="41.175689976452965" lon="15.967818411993822"><ele>91.0</ele><time>2026-04-06T08:33:52Z</time></trkpt><trkpt lat="41.175569390597026" lon="15.967577208235904"><ele>91.66666666666666</ele><time>2026-04-06T08:33:53Z</time></trkpt><trkpt lat="41.17544660038149" lon="15.967339672525792"><ele>92.33333333333333</ele><time>2026-04-06T08:33:54Z</time></trkpt><trkpt lat="41.17532230771772" lon="15.96709761649635"><ele>93.0</ele><time>2026-04-06T08:33:55Z</time></trkpt><trkpt lat="41.175196143726744" lon="15.966863017271775"><ele>93.33333333333333</ele><time>2026-04-06T08:33:56Z</time></trkpt><trkpt lat="41.17507085691981" lon="15.966623110912561"><ele>93.66666666666666</ele><time>2026-04-06T08:33:57Z</time></trkpt><trkpt lat="41.17494523547163" lon="15.966382270329756"><ele>94.0</ele><time>2026-04-06T08:33:58Z</time></trkpt><trkpt lat="41.17481764705668" lon="15.96614104942833"><ele>94.0</ele><time>2026-04-06T08:33:59Z</time></trkpt><trkpt lat="41.174690144927254" lon="15.965902124696287"><ele>94.0</ele><time>2026-04-06T08:34:00Z</time></trkpt><trkpt lat="41.174560767462516" lon="15.965664577769635"><ele>94.0</ele><time>2026-04-06T08:34:01Z</time></trkpt><trkpt lat="41.17443226406974" lon="15.96542469784222"><ele>93.33333333333333</ele><time>2026-04-06T08:34:02Z</time></trkpt><trkpt lat="41.1743063378185" lon="15.965179201970628"><ele>92.66666666666667</ele><time>2026-04-06T08:34:03Z</time></trkpt><trkpt lat="41.17417987793097" lon="15.964936759929198"><ele>92.0</ele><time>2026-04-06T08:34:04Z</time></trkpt><trkpt lat="41.17405212258187" lon="15.964695366224975"><ele>92.0</ele><time>2026-04-06T08:34:05Z</time></trkpt><trkpt lat="41.17392233205612" lon="15.964441121560847"><ele>92.0</ele><time>2026-04-06T08:34:06Z</time></trkpt><trkpt lat="41.173796038171986" lon="15.964200870239766"><ele>90.0</ele><time>2026-04-06T08:34:07Z</time></trkpt><trkpt lat="41.17366448340942" lon="15.963949536345085"><ele>88.0</ele><time>2026-04-06T08:34:08Z</time></trkpt><trkpt lat="41.173535261065425" lon="15.963708841349511"><ele>88.0</ele><time>2026-04-06T08:34:09Z</time></trkpt><trkpt lat="41.173405463351195" lon="15.963464432885312"><ele>88.0</ele><time>2026-04-06T08:34:10Z</time></trkpt><trkpt lat="41.173281232943125" lon="15.963225273998969"><ele>88.0</ele><time>2026-04-06T08:34:11Z</time></trkpt><trkpt lat="41.17315494007492" lon="15.962983853660482"><ele>88.0</ele><time>2026-04-06T08:34:12Z</time></trkpt><trkpt lat="41.17303085748404" lon="15.962745147046792"><ele>88.0</ele><time>2026-04-06T08:34:13Z</time></trkpt><trkpt lat="41.17291044762883" lon="15.962507566575766"><ele>88.0</ele><time>2026-04-06T08:34:14Z</time></trkpt><trkpt lat="41.17279444028954" lon="15.962269540727837"><ele>87.66666666666666</ele><time>2026-04-06T08:34:15Z</time></trkpt><trkpt lat="41.17267909843338" lon="15.962034224099414"><ele>87.33333333333333</ele><time>2026-04-06T08:34:16Z</time></trkpt><trkpt lat="41.17255992995366" lon="15.961805208572644"><ele>87.0</ele><time>2026-04-06T08:34:17Z</time></trkpt><trkpt lat="41.17243939592259" lon="15.961582557226954"><ele>88.33333333333333</ele><time>2026-04-06T08:34:18Z</time></trkpt><trkpt lat="41.17232599550876" lon="15.961362843817092"><ele>89.66666666666666</ele><time>2026-04-06T08:34:19Z</time></trkpt><trkpt lat="41.17221198640901" lon="15.961139020305522"><ele>91.0</ele><time>2026-04-06T08:34:20Z</time></trkpt><trkpt lat="41.172097341937146" lon="15.960916293346926"><ele>91.66666666666666</ele><time>2026-04-06T08:34:21Z</time></trkpt><trkpt lat="41.171979566386504" lon="15.960702183734488"><ele>92.33333333333333</ele><time>2026-04-06T08:34:22Z</time></trkpt><trkpt lat="41.17186095351465" lon="15.960491484154186"><ele>93.0</ele><time>2026-04-06T08:34:23Z</time></trkpt><trkpt lat="41.171744661128194" lon="15.960272958323403"><ele>93.0</ele><time>2026-04-06T08:34:24Z</time></trkpt><trkpt lat="41.17163368626759" lon="15.960057629990505"><ele>93.0</ele><time>2026-04-06T08:34:25Z</time></trkpt><trkpt lat="41.1715188611156" lon="15.959836549511923"><ele>93.0</ele><time>2026-04-06T08:34:26Z</time></trkpt><trkpt lat="41.17140440031789" lon="15.959613869322022"><ele>93.0</ele><time>2026-04-06T08:34:27Z</time></trkpt><trkpt lat="41.17128984961427" lon="15.959390907680202"><ele>93.0</ele><time>2026-04-06T08:34:28Z</time></trkpt><trkpt lat="41.17117183626083" lon="15.959167171648915"><ele>93.0</ele><time>2026-04-06T08:34:29Z</time></trkpt><trkpt lat="41.17105273002268" lon="15.958944789156808"><ele>92.33333333333333</ele><time>2026-04-06T08:34:30Z</time></trkpt><trkpt lat="41.170931483770055" lon="15.958718833518226"><ele>91.66666666666666</ele><time>2026-04-06T08:34:31Z</time></trkpt><trkpt lat="41.1708105470578" lon="15.958490528639963"><ele>91.0</ele><time>2026-04-06T08:34:32Z</time></trkpt><trkpt lat="41.17069232673348" lon="15.95826200203263"><ele>91.0</ele><time>2026-04-06T08:34:33Z</time></trkpt><trkpt lat="41.17057341045529" lon="15.95803004012991"><ele>91.0</ele><time>2026-04-06T08:34:34Z</time></trkpt><trkpt lat="41.17045278885368" lon="15.957799695462986"><ele>91.0</ele><time>2026-04-06T08:34:35Z</time></trkpt><trkpt lat="41.17033109876948" lon="15.95757007416289"><ele>90.66666666666666</ele><time>2026-04-06T08:34:36Z</time></trkpt><trkpt lat="41.17021032972644" lon="15.95733981840168"><ele>90.33333333333333</ele><time>2026-04-06T08:34:37Z</time></trkpt><trkpt lat="41.17008863924339" lon="15.957106766348153"><ele>90.0</ele><time>2026-04-06T08:34:38Z</time></trkpt><trkpt lat="41.1699666284757" lon="15.956872859464795"><ele>90.33333333333333</ele><time>2026-04-06T08:34:39Z</time></trkpt><trkpt lat="41.16984567094164" lon="15.956639014946154"><ele>90.66666666666666</ele><time>2026-04-06T08:34:40Z</time></trkpt><trkpt lat="41.169722732470866" lon="15.956403312418365"><ele>91.0</ele><time>2026-04-06T08:34:41Z</time></trkpt><trkpt lat="41.169601490263524" lon="15.956169241319229"><ele>91.0</ele><time>2026-04-06T08:34:42Z</time></trkpt><trkpt lat="41.169477226734955" lon="15.95593334593773"><ele>91.0</ele><time>2026-04-06T08:34:43Z</time></trkpt><trkpt lat="41.169355217977106" lon="15.95569956650242"><ele>91.0</ele><time>2026-04-06T08:34:44Z</time></trkpt><trkpt lat="41.16923334041268" lon="15.955467245972631"><ele>91.0</ele><time>2026-04-06T08:34:45Z</time></trkpt><trkpt lat="41.16910985919701" lon="15.955236327897914"><ele>91.0</ele><time>2026-04-06T08:34:46Z</time></trkpt><trkpt lat="41.16898425496323" lon="15.954998594564808"><ele>91.0</ele><time>2026-04-06T08:34:47Z</time></trkpt><trkpt lat="41.168863255867464" lon="15.954766202283297"><ele>91.0</ele><time>2026-04-06T08:34:48Z</time></trkpt><trkpt lat="41.16874067658451" lon="15.95452777976689"><ele>91.0</ele><time>2026-04-06T08:34:49Z</time></trkpt><trkpt lat="41.168617661956844" lon="15.954293704900438"><ele>91.0</ele><time>2026-04-06T08:34:50Z</time></trkpt><trkpt lat="41.16849311006107" lon="15.954059158667683"><ele>90.66666666666666</ele><time>2026-04-06T08:34:51Z</time></trkpt><trkpt lat="41.1683695900959" lon="15.95382523429309"><ele>90.33333333333333</ele><time>2026-04-06T08:34:52Z</time></trkpt><trkpt lat="41.16824734435354" lon="15.95358967478534"><ele>90.0</ele><time>2026-04-06T08:34:53Z</time></trkpt><trkpt lat="41.16812386983531" lon="15.953355486192514"><ele>90.0</ele><time>2026-04-06T08:34:54Z</time></trkpt><trkpt lat="41.16800093310358" lon="15.953121191270174"><ele>90.0</ele><time>2026-04-06T08:34:55Z</time></trkpt><trkpt lat="41.167880475124306" lon="15.952886831824717"><ele>90.0</ele><time>2026-04-06T08:34:56Z</time></trkpt><trkpt lat="41.16775809778476" lon="15.952652281060677"><ele>90.0</ele><time>2026-04-06T08:34:57Z</time></trkpt><trkpt lat="41.167635587716106" lon="15.952421122064347"><ele>90.0</ele><time>2026-04-06T08:34:58Z</time></trkpt><trkpt lat="41.167514622845836" lon="15.952190356323962"><ele>90.0</ele><time>2026-04-06T08:34:59Z</time></trkpt><trkpt lat="41.16739021053907" lon="15.951954474864205"><ele>90.33333333333333</ele><time>2026-04-06T08:35:00Z</time></trkpt><trkpt lat="41.16726704411945" lon="15.95171997398376"><ele>90.66666666666666</ele><time>2026-04-06T08:35:01Z</time></trkpt><trkpt lat="41.167144174904514" lon="15.951485962120193"><ele>91.0</ele><time>2026-04-06T08:35:02Z</time></trkpt><trkpt lat="41.16702138549347" lon="15.951249952323664"><ele>91.0</ele><time>2026-04-06T08:35:03Z</time></trkpt><trkpt lat="41.16689912723175" lon="15.95101642761522"><ele>91.0</ele><time>2026-04-06T08:35:04Z</time></trkpt><trkpt lat="41.1667787729554" lon="15.950784514215611"><ele>91.0</ele><time>2026-04-06T08:35:05Z</time></trkpt><trkpt lat="41.166655978864014" lon="15.950547332709219"><ele>91.0</ele><time>2026-04-06T08:35:06Z</time></trkpt><trkpt lat="41.16653267187009" lon="15.9503158319312"><ele>91.0</ele><time>2026-04-06T08:35:07Z</time></trkpt><trkpt lat="41.16640926288814" lon="15.950086702219682"><ele>91.0</ele><time>2026-04-06T08:35:08Z</time></trkpt><trkpt lat="41.1662859141668" lon="15.949852265138398"><ele>90.33333333333333</ele><time>2026-04-06T08:35:09Z</time></trkpt><trkpt lat="41.16616020781581" lon="15.94961665622537"><ele>89.66666666666667</ele><time>2026-04-06T08:35:10Z</time></trkpt><trkpt lat="41.166038325186115" lon="15.949381926910442"><ele>89.0</ele><time>2026-04-06T08:35:11Z</time></trkpt><trkpt lat="41.16592148824153" lon="15.949161399054594"><ele>88.66666666666667</ele><time>2026-04-06T08:35:12Z</time></trkpt><trkpt lat="41.16580711543127" lon="15.948948285885374"><ele>88.33333333333333</ele><time>2026-04-06T08:35:13Z</time></trkpt><trkpt lat="41.16570004468032" lon="15.948745566844485"><ele>88.0</ele><time>2026-04-06T08:35:14Z</time></trkpt><trkpt lat="41.16560448262892" lon="15.948554252867174"><ele>88.66666666666666</ele><time>2026-04-06T08:35:15Z</time></trkpt><trkpt lat="41.16551347495365" lon="15.948377247252695"><ele>89.33333333333333</ele><time>2026-04-06T08:35:16Z</time></trkpt><trkpt lat="41.165418300288636" lon="15.948200978038129"><ele>90.0</ele><time>2026-04-06T08:35:17Z</time></trkpt><trkpt lat="41.16532358383485" lon="15.948029474824002"><ele>90.0</ele><time>2026-04-06T08:35:18Z</time></trkpt><trkpt lat="41.165244723593254" lon="15.94784201778237"><ele>90.0</ele><time>2026-04-06T08:35:19Z</time></trkpt><trkpt lat="41.1651547161243" lon="15.947670553226061"><ele>90.0</ele><time>2026-04-06T08:35:20Z</time></trkpt><trkpt lat="41.165067192463724" lon="15.947503625153551"><ele>89.66666666666667</ele><time>2026-04-06T08:35:21Z</time></trkpt><trkpt lat="41.164961131754204" lon="15.947334110580535"><ele>89.33333333333334</ele><time>2026-04-06T08:35:22Z</time></trkpt><trkpt lat="41.164869238004094" lon="15.947148895235447"><ele>89.0</ele><time>2026-04-06T08:35:23Z</time></trkpt><trkpt lat="41.16477251207767" lon="15.946956659514179"><ele>89.33333333333334</ele><time>2026-04-06T08:35:24Z</time></trkpt><trkpt lat="41.16467083971864" lon="15.946758990515487"><ele>89.66666666666667</ele><time>2026-04-06T08:35:25Z</time></trkpt><trkpt lat="41.16456253233896" lon="15.946553222390003"><ele>90.0</ele><time>2026-04-06T08:35:26Z</time></trkpt><trkpt lat="41.164449049207235" lon="15.94634295175272"><ele>90.0</ele><time>2026-04-06T08:35:27Z</time></trkpt><trkpt lat="41.16433599579423" lon="15.946135581730404"><ele>90.0</ele><time>2026-04-06T08:35:28Z</time></trkpt><trkpt lat="41.16422212755649" lon="15.9459176725246"><ele>90.0</ele><time>2026-04-06T08:35:29Z</time></trkpt><trkpt lat="41.164109102578564" lon="15.9456910420263"><ele>90.0</ele><time>2026-04-06T08:35:30Z</time></trkpt><trkpt lat="41.16399443113368" lon="15.945466161240832"><ele>90.0</ele><time>2026-04-06T08:35:31Z</time></trkpt><trkpt lat="41.16387677765746" lon="15.945244072817115"><ele>90.0</ele><time>2026-04-06T08:35:32Z</time></trkpt><trkpt lat="41.163756985359036" lon="15.945017920189462"><ele>90.0</ele><time>2026-04-06T08:35:33Z</time></trkpt><trkpt lat="41.16363625211928" lon="15.944788982697705"><ele>90.0</ele><time>2026-04-06T08:35:34Z</time></trkpt><trkpt lat="41.163516547430035" lon="15.944563260856901"><ele>90.0</ele><time>2026-04-06T08:35:35Z</time></trkpt><trkpt lat="41.1633951355119" lon="15.944332485976977"><ele>90.33333333333333</ele><time>2026-04-06T08:35:36Z</time></trkpt><trkpt lat="41.16327603683967" lon="15.94409706364916"><ele>90.66666666666666</ele><time>2026-04-06T08:35:37Z</time></trkpt><trkpt lat="41.163158695187086" lon="15.943862946962263"><ele>91.0</ele><time>2026-04-06T08:35:38Z</time></trkpt><trkpt lat="41.16303783985972" lon="15.943630965116157"><ele>91.0</ele><time>2026-04-06T08:35:39Z</time></trkpt><trkpt lat="41.16291779723802" lon="15.943406164519157"><ele>91.0</ele><time>2026-04-06T08:35:40Z</time></trkpt><trkpt lat="41.16280062202534" lon="15.94318261073804"><ele>91.0</ele><time>2026-04-06T08:35:41Z</time></trkpt><trkpt lat="41.162684803092276" lon="15.942956102429946"><ele>90.66666666666666</ele><time>2026-04-06T08:35:42Z</time></trkpt><trkpt lat="41.16257026721348" lon="15.942731995553775"><ele>90.33333333333333</ele><time>2026-04-06T08:35:43Z</time></trkpt><trkpt lat="41.16245197568302" lon="15.942503267574276"><ele>90.0</ele><time>2026-04-06T08:35:44Z</time></trkpt><trkpt lat="41.162334529875366" lon="15.94228631244009"><ele>90.66666666666667</ele><time>2026-04-06T08:35:45Z</time></trkpt><trkpt lat="41.162226357561686" lon="15.942088707943025"><ele>91.33333333333334</ele><time>2026-04-06T08:35:46Z</time></trkpt><trkpt lat="41.16212674729163" lon="15.9418952608457"><ele>92.0</ele><time>2026-04-06T08:35:47Z</time></trkpt><trkpt lat="41.16202507151619" lon="15.941695223186995"><ele>92.0</ele><time>2026-04-06T08:35:48Z</time></trkpt><trkpt lat="41.16192112316659" lon="15.941494829931788"><ele>92.0</ele><time>2026-04-06T08:35:49Z</time></trkpt><trkpt lat="41.161813899153046" lon="15.941291224152584"><ele>92.0</ele><time>2026-04-06T08:35:50Z</time></trkpt><trkpt lat="41.16170517345429" lon="15.941086780372585"><ele>92.0</ele><time>2026-04-06T08:35:51Z</time></trkpt><trkpt lat="41.16159406294068" lon="15.9408741097525"><ele>92.0</ele><time>2026-04-06T08:35:52Z</time></trkpt><trkpt lat="41.16149192430682" lon="15.940680057092393"><ele>92.0</ele><time>2026-04-06T08:35:53Z</time></trkpt><trkpt lat="41.16139539739997" lon="15.940500988086793"><ele>92.0</ele><time>2026-04-06T08:35:54Z</time></trkpt><trkpt lat="41.16130278863281" lon="15.940333358061485"><ele>92.0</ele><time>2026-04-06T08:35:55Z</time></trkpt><trkpt lat="41.16120846607576" lon="15.940159332595586"><ele>92.0</ele><time>2026-04-06T08:35:56Z</time></trkpt><trkpt lat="41.16111952261041" lon="15.93998519277754"><ele>91.5</ele><time>2026-04-06T08:35:57Z</time></trkpt><trkpt lat="41.1610359857945" lon="15.939820205843752"><ele>91.0</ele><time>2026-04-06T08:35:58Z</time></trkpt><trkpt lat="41.160962926563194" lon="15.939675275225929"><ele>90.5</ele><time>2026-04-06T08:35:59Z</time></trkpt><trkpt lat="41.160906896084" lon="15.939566235883147"><ele>90.0</ele><time>2026-04-06T08:36:00Z</time></trkpt><trkpt lat="41.16086138680527" lon="15.939478827909662"><ele>90.0</ele><time>2026-04-06T08:36:01Z</time></trkpt><trkpt lat="41.16079897934856" lon="15.939359458145287"><ele>90.0</ele><time>2026-04-06T08:36:03Z</time></trkpt><trkpt lat="41.16074584794706" lon="15.93926152662434"><ele>90.0</ele><time>2026-04-06T08:36:05Z</time></trkpt><trkpt lat="41.16070361526326" lon="15.939187566461818"><ele>90.0</ele><time>2026-04-06T08:36:06Z</time></trkpt><trkpt lat="41.160649714679266" lon="15.939094647648897"><ele>90.0</ele><time>2026-04-06T08:36:07Z</time></trkpt><trkpt lat="41.160598646943306" lon="15.93899230605311"><ele>90.66666666666667</ele><time>2026-04-06T08:36:08Z</time></trkpt><trkpt lat="41.16054195596533" lon="15.938879227418761"><ele>91.33333333333333</ele><time>2026-04-06T08:36:09Z</time></trkpt><trkpt lat="41.16048777120033" lon="15.938781960790285"><ele>92.0</ele><time>2026-04-06T08:36:10Z</time></trkpt><trkpt lat="41.16045142979586" lon="15.938710167792173"><ele>92.66666666666666</ele><time>2026-04-06T08:36:11Z</time></trkpt><trkpt lat="41.16041189276" lon="15.938633012866227"><ele>93.33333333333333</ele><time>2026-04-06T08:36:12Z</time></trkpt><trkpt lat="41.16036555740104" lon="15.938546745950239"><ele>94.0</ele><time>2026-04-06T08:36:13Z</time></trkpt><trkpt lat="41.160311438036885" lon="15.938451658077398"><ele>94.2</ele><time>2026-04-06T08:36:14Z</time></trkpt><trkpt lat="41.16025694158835" lon="15.938348047853381"><ele>94.4</ele><time>2026-04-06T08:36:15Z</time></trkpt><trkpt lat="41.16020323394334" lon="15.938242144693994"><ele>94.6</ele><time>2026-04-06T08:36:16Z</time></trkpt><trkpt lat="41.16014766396609" lon="15.938139088126645"><ele>94.8</ele><time>2026-04-06T08:36:17Z</time></trkpt><trkpt lat="41.16009551766682" lon="15.938041677905622"><ele>95.0</ele><time>2026-04-06T08:36:18Z</time></trkpt><trkpt lat="41.160038321963455" lon="15.93793476003359"><ele>95.0</ele><time>2026-04-06T08:36:19Z</time></trkpt><trkpt lat="41.159986133084665" lon="15.937827515759949"><ele>95.0</ele><time>2026-04-06T08:36:20Z</time></trkpt><trkpt lat="41.159930659935775" lon="15.937715721316248"><ele>95.0</ele><time>2026-04-06T08:36:21Z</time></trkpt><trkpt lat="41.159871655013404" lon="15.937600281757641"><ele>95.0</ele><time>2026-04-06T08:36:22Z</time></trkpt><trkpt lat="41.15980744953248" lon="15.93748297995461"><ele>95.0</ele><time>2026-04-06T08:36:23Z</time></trkpt><trkpt lat="41.15974114866383" lon="15.93732970927885"><ele>94.5</ele><time>2026-04-06T08:36:24Z</time></trkpt><trkpt lat="41.159664735648306" lon="15.93722163943247"><ele>94.0</ele><time>2026-04-06T08:36:25Z</time></trkpt><trkpt lat="41.15959143350406" lon="15.937081513299738"><ele>93.5</ele><time>2026-04-06T08:36:26Z</time></trkpt><trkpt lat="41.15952953759366" lon="15.936924565365768"><ele>93.0</ele><time>2026-04-06T08:36:27Z</time></trkpt><trkpt lat="41.15944808160317" lon="15.93676861656081"><ele>92.33333333333333</ele><time>2026-04-06T08:36:28Z</time></trkpt><trkpt lat="41.15935847192551" lon="15.936596948174552"><ele>91.66666666666666</ele><time>2026-04-06T08:36:29Z</time></trkpt><trkpt lat="41.1592642114673" lon="15.936416396015577"><ele>91.0</ele><time>2026-04-06T08:36:30Z</time></trkpt><trkpt lat="41.159167574859296" lon="15.936231292591685"><ele>91.0</ele><time>2026-04-06T08:36:31Z</time></trkpt><trkpt lat="41.15905461897612" lon="15.936050174503876"><ele>91.0</ele><time>2026-04-06T08:36:32Z</time></trkpt><trkpt lat="41.15896088314988" lon="15.935845691832887"><ele>91.0</ele><time>2026-04-06T08:36:33Z</time></trkpt><trkpt lat="41.15885664786839" lon="15.93564044082991"><ele>91.33333333333333</ele><time>2026-04-06T08:36:34Z</time></trkpt><trkpt lat="41.15875017132496" lon="15.935438151255639"><ele>91.66666666666667</ele><time>2026-04-06T08:36:35Z</time></trkpt><trkpt lat="41.1586338017799" lon="15.935228956572242"><ele>92.0</ele><time>2026-04-06T08:36:36Z</time></trkpt><trkpt lat="41.1585208621183" lon="15.93501868387257"><ele>92.0</ele><time>2026-04-06T08:36:37Z</time></trkpt><trkpt lat="41.15840719632017" lon="15.934805581733432"><ele>92.0</ele><time>2026-04-06T08:36:38Z</time></trkpt><trkpt lat="41.15829271721228" lon="15.9345886924927"><ele>92.0</ele><time>2026-04-06T08:36:39Z</time></trkpt><trkpt lat="41.15817674051711" lon="15.934365228011465"><ele>93.0</ele><time>2026-04-06T08:36:40Z</time></trkpt><trkpt lat="41.15806012799487" lon="15.934141612100962"><ele>94.0</ele><time>2026-04-06T08:36:41Z</time></trkpt><trkpt lat="41.15794453969975" lon="15.933917562453791"><ele>95.0</ele><time>2026-04-06T08:36:42Z</time></trkpt><trkpt lat="41.15782825940102" lon="15.933689758335497"><ele>95.0</ele><time>2026-04-06T08:36:43Z</time></trkpt><trkpt lat="41.15770866914707" lon="15.933458969197622"><ele>95.0</ele><time>2026-04-06T08:36:44Z</time></trkpt><trkpt lat="41.157590134239726" lon="15.933231173613624"><ele>95.0</ele><time>2026-04-06T08:36:45Z</time></trkpt><trkpt lat="41.157465360824204" lon="15.932998646207748"><ele>95.33333333333334</ele><time>2026-04-06T08:36:46Z</time></trkpt><trkpt lat="41.15734109546677" lon="15.932766867373978"><ele>95.66666666666667</ele><time>2026-04-06T08:36:47Z</time></trkpt><trkpt lat="41.15721510407208" lon="15.932534466290354"><ele>96.0</ele><time>2026-04-06T08:36:48Z</time></trkpt><trkpt lat="41.15709538555013" lon="15.932302746080092"><ele>95.33333333333333</ele><time>2026-04-06T08:36:49Z</time></trkpt><trkpt lat="41.15697069689348" lon="15.93206675564445"><ele>94.66666666666666</ele><time>2026-04-06T08:36:50Z</time></trkpt><trkpt lat="41.15684769165631" lon="15.931831864234308"><ele>94.0</ele><time>2026-04-06T08:36:51Z</time></trkpt><trkpt lat="41.15672985317077" lon="15.931592313017497"><ele>93.33333333333333</ele><time>2026-04-06T08:36:52Z</time></trkpt><trkpt lat="41.15660441172593" lon="15.931359343555533"><ele>92.66666666666667</ele><time>2026-04-06T08:36:53Z</time></trkpt><trkpt lat="41.156482412650384" lon="15.931124323963049"><ele>92.0</ele><time>2026-04-06T08:36:54Z</time></trkpt><trkpt lat="41.15636050344399" lon="15.930892557786335"><ele>92.66666666666667</ele><time>2026-04-06T08:36:55Z</time></trkpt><trkpt lat="41.15623150373016" lon="15.930655562253625"><ele>93.33333333333333</ele><time>2026-04-06T08:36:56Z</time></trkpt><trkpt lat="41.15611177601848" lon="15.930422042362705"><ele>94.0</ele><time>2026-04-06T08:36:57Z</time></trkpt><trkpt lat="41.15599058416241" lon="15.930186006481218"><ele>93.66666666666666</ele><time>2026-04-06T08:36:58Z</time></trkpt><trkpt lat="41.15586779122342" lon="15.929951054213866"><ele>93.33333333333333</ele><time>2026-04-06T08:36:59Z</time></trkpt><trkpt lat="41.15574559080984" lon="15.929722052295885"><ele>93.0</ele><time>2026-04-06T08:37:00Z</time></trkpt><trkpt lat="41.15562256892474" lon="15.929487836695548"><ele>94.33333333333334</ele><time>2026-04-06T08:37:01Z</time></trkpt><trkpt lat="41.15550321744585" lon="15.929257527086035"><ele>95.66666666666667</ele><time>2026-04-06T08:37:02Z</time></trkpt><trkpt lat="41.155384793384286" lon="15.929022218690228"><ele>97.0</ele><time>2026-04-06T08:37:03Z</time></trkpt><trkpt lat="41.15526610650334" lon="15.928790992194351"><ele>97.0</ele><time>2026-04-06T08:37:04Z</time></trkpt><trkpt lat="41.15514327684063" lon="15.928562125085076"><ele>97.0</ele><time>2026-04-06T08:37:05Z</time></trkpt><trkpt lat="41.15501995285443" lon="15.928331853337145"><ele>97.0</ele><time>2026-04-06T08:37:06Z</time></trkpt><trkpt lat="41.15489692872175" lon="15.92810004161414"><ele>97.0</ele><time>2026-04-06T08:37:07Z</time></trkpt><trkpt lat="41.15477283934128" lon="15.92787129006741"><ele>97.0</ele><time>2026-04-06T08:37:08Z</time></trkpt><trkpt lat="41.15464960850466" lon="15.927641064081223"><ele>97.0</ele><time>2026-04-06T08:37:09Z</time></trkpt><trkpt lat="41.1545290227192" lon="15.92740705381997"><ele>97.0</ele><time>2026-04-06T08:37:10Z</time></trkpt><trkpt lat="41.15441183684864" lon="15.927175010104763"><ele>97.0</ele><time>2026-04-06T08:37:11Z</time></trkpt><trkpt lat="41.15428752973049" lon="15.926941868777565"><ele>97.0</ele><time>2026-04-06T08:37:12Z</time></trkpt><trkpt lat="41.154160701886696" lon="15.926707440606094"><ele>96.66666666666667</ele><time>2026-04-06T08:37:13Z</time></trkpt><trkpt lat="41.15403898016105" lon="15.926476227213042"><ele>96.33333333333334</ele><time>2026-04-06T08:37:14Z</time></trkpt><trkpt lat="41.15391809951" lon="15.926241959779858"><ele>96.0</ele><time>2026-04-06T08:37:15Z</time></trkpt><trkpt lat="41.153799715104064" lon="15.926007007374986"><ele>96.33333333333334</ele><time>2026-04-06T08:37:16Z</time></trkpt><trkpt lat="41.15368033304066" lon="15.925774067967367"><ele>96.66666666666667</ele><time>2026-04-06T08:37:17Z</time></trkpt><trkpt lat="41.15355775811055" lon="15.92554254025483"><ele>97.0</ele><time>2026-04-06T08:37:18Z</time></trkpt><trkpt lat="41.15343488756739" lon="15.925315581045924"><ele>97.0</ele><time>2026-04-06T08:37:19Z</time></trkpt><trkpt lat="41.153312049092214" lon="15.925088653420826"><ele>97.0</ele><time>2026-04-06T08:37:20Z</time></trkpt><trkpt lat="41.153191230166414" lon="15.924862607373848"><ele>97.0</ele><time>2026-04-06T08:37:21Z</time></trkpt><trkpt lat="41.15307071866752" lon="15.9246320640701"><ele>98.0</ele><time>2026-04-06T08:37:22Z</time></trkpt><trkpt lat="41.152953628192975" lon="15.924402344191016"><ele>99.0</ele><time>2026-04-06T08:37:23Z</time></trkpt><trkpt lat="41.15283489864848" lon="15.924169458123819"><ele>100.0</ele><time>2026-04-06T08:37:24Z</time></trkpt><trkpt lat="41.152717684549614" lon="15.92394780518915"><ele>100.0</ele><time>2026-04-06T08:37:25Z</time></trkpt><trkpt lat="41.1525953550189" lon="15.923721400200282"><ele>100.0</ele><time>2026-04-06T08:37:26Z</time></trkpt><trkpt lat="41.1524780395381" lon="15.923494544216792"><ele>100.0</ele><time>2026-04-06T08:37:27Z</time></trkpt><trkpt lat="41.152362798811296" lon="15.923271031090849"><ele>101.66666666666667</ele><time>2026-04-06T08:37:28Z</time></trkpt><trkpt lat="41.152244069269464" lon="15.92304941940273"><ele>103.33333333333334</ele><time>2026-04-06T08:37:29Z</time></trkpt><trkpt lat="41.152121227278116" lon="15.922832894250366"><ele>105.0</ele><time>2026-04-06T08:37:30Z</time></trkpt><trkpt lat="41.15199161506619" lon="15.922626434319794"><ele>104.66666666666666</ele><time>2026-04-06T08:37:31Z</time></trkpt><trkpt lat="41.151849722567526" lon="15.922429329841009"><ele>104.33333333333333</ele><time>2026-04-06T08:37:32Z</time></trkpt><trkpt lat="41.15170426381329" lon="15.922240152675478"><ele>104.0</ele><time>2026-04-06T08:37:33Z</time></trkpt><trkpt lat="41.151562743668904" lon="15.922035621397999"><ele>104.0</ele><time>2026-04-06T08:37:34Z</time></trkpt><trkpt lat="41.15140677801143" lon="15.92186007822154"><ele>104.0</ele><time>2026-04-06T08:37:35Z</time></trkpt><trkpt lat="41.1512605246" lon="15.921670653880842"><ele>104.0</ele><time>2026-04-06T08:37:36Z</time></trkpt><trkpt lat="41.151112248767156" lon="15.921477188134071"><ele>104.0</ele><time>2026-04-06T08:37:37Z</time></trkpt><trkpt lat="41.1509663123632" lon="15.921287617230355"><ele>104.0</ele><time>2026-04-06T08:37:38Z</time></trkpt><trkpt lat="41.15081731475365" lon="15.921092278859238"><ele>104.0</ele><time>2026-04-06T08:37:39Z</time></trkpt><trkpt lat="41.150672929656885" lon="15.92090149137703"><ele>104.33333333333333</ele><time>2026-04-06T08:37:40Z</time></trkpt><trkpt lat="41.15052278009419" lon="15.920704003333679"><ele>104.66666666666666</ele><time>2026-04-06T08:37:41Z</time></trkpt><trkpt lat="41.15037257604143" lon="15.920511168410945"><ele>105.0</ele><time>2026-04-06T08:37:42Z</time></trkpt><trkpt lat="41.15022230486129" lon="15.920322085379572"><ele>105.0</ele><time>2026-04-06T08:37:43Z</time></trkpt><trkpt lat="41.150083759462746" lon="15.920113736429908"><ele>105.0</ele><time>2026-04-06T08:37:44Z</time></trkpt><trkpt lat="41.149933940701565" lon="15.919919936043975"><ele>105.0</ele><time>2026-04-06T08:37:45Z</time></trkpt><trkpt lat="41.149786938464736" lon="15.919730119862447"><ele>105.0</ele><time>2026-04-06T08:37:46Z</time></trkpt><trkpt lat="41.14962825067581" lon="15.919555492428639"><ele>105.0</ele><time>2026-04-06T08:37:47Z</time></trkpt><trkpt lat="41.14947882828592" lon="15.919362236633038"><ele>105.0</ele><time>2026-04-06T08:37:48Z</time></trkpt><trkpt lat="41.14933121873109" lon="15.919171649293054"><ele>105.0</ele><time>2026-04-06T08:37:49Z</time></trkpt><trkpt lat="41.149197412167766" lon="15.91896943468081"><ele>105.0</ele><time>2026-04-06T08:37:50Z</time></trkpt><trkpt lat="41.14905040798478" lon="15.91877974621703"><ele>105.0</ele><time>2026-04-06T08:37:51Z</time></trkpt><trkpt lat="41.14889180465034" lon="15.918603042251675"><ele>105.66666666666666</ele><time>2026-04-06T08:37:52Z</time></trkpt><trkpt lat="41.14874143460403" lon="15.918408099959509"><ele>106.33333333333333</ele><time>2026-04-06T08:37:53Z</time></trkpt><trkpt lat="41.14859785696653" lon="15.9182144305294"><ele>107.0</ele><time>2026-04-06T08:37:54Z</time></trkpt><trkpt lat="41.148449149565785" lon="15.918019644993205"><ele>107.0</ele><time>2026-04-06T08:37:55Z</time></trkpt><trkpt lat="41.14830276831547" lon="15.917824772967974"><ele>107.0</ele><time>2026-04-06T08:37:56Z</time></trkpt><trkpt lat="41.14815689765849" lon="15.917630063176071"><ele>107.0</ele><time>2026-04-06T08:37:57Z</time></trkpt><trkpt lat="41.14800899089163" lon="15.917436119769967"><ele>107.33333333333333</ele><time>2026-04-06T08:37:58Z</time></trkpt><trkpt lat="41.14785844340148" lon="15.917244036481726"><ele>107.66666666666666</ele><time>2026-04-06T08:37:59Z</time></trkpt><trkpt lat="41.14770349595881" lon="15.917054429496762"><ele>108.0</ele><time>2026-04-06T08:38:00Z</time></trkpt><trkpt lat="41.14755855332635" lon="15.916854481290578"><ele>108.0</ele><time>2026-04-06T08:38:01Z</time></trkpt><trkpt lat="41.147407419429804" lon="15.916658035360625"><ele>108.0</ele><time>2026-04-06T08:38:02Z</time></trkpt><trkpt lat="41.147254323240084" lon="15.916459456533916"><ele>108.0</ele><time>2026-04-06T08:38:03Z</time></trkpt><trkpt lat="41.14710168728013" lon="15.916261729614252"><ele>108.0</ele><time>2026-04-06T08:38:04Z</time></trkpt><trkpt lat="41.1469473540043" lon="15.9160632307007"><ele>108.0</ele><time>2026-04-06T08:38:05Z</time></trkpt><trkpt lat="41.1467921387107" lon="15.91586211955336"><ele>108.0</ele><time>2026-04-06T08:38:06Z</time></trkpt><trkpt lat="41.14663872513975" lon="15.915659026151806"><ele>108.0</ele><time>2026-04-06T08:38:07Z</time></trkpt><trkpt lat="41.14649337185496" lon="15.915454421760845"><ele>108.0</ele><time>2026-04-06T08:38:08Z</time></trkpt><trkpt lat="41.14633193268977" lon="15.915255474335806"><ele>108.0</ele><time>2026-04-06T08:38:09Z</time></trkpt><trkpt lat="41.14617999100244" lon="15.915051932447529"><ele>108.0</ele><time>2026-04-06T08:38:10Z</time></trkpt><trkpt lat="41.146026083126785" lon="15.914850154275308"><ele>108.0</ele><time>2026-04-06T08:38:11Z</time></trkpt><trkpt lat="41.145872365413624" lon="15.914647856271491"><ele>108.0</ele><time>2026-04-06T08:38:12Z</time></trkpt><trkpt lat="41.145719822202494" lon="15.914450765512907"><ele>108.66666666666666</ele><time>2026-04-06T08:38:13Z</time></trkpt><trkpt lat="41.145564213516856" lon="15.914253811544391"><ele>109.33333333333333</ele><time>2026-04-06T08:38:14Z</time></trkpt><trkpt lat="41.145413826323264" lon="15.914059177843072"><ele>110.0</ele><time>2026-04-06T08:38:15Z</time></trkpt><trkpt lat="41.14526466555939" lon="15.913865520738131"><ele>110.0</ele><time>2026-04-06T08:38:16Z</time></trkpt><trkpt lat="41.145115585762" lon="15.913672130584711"><ele>110.0</ele><time>2026-04-06T08:38:17Z</time></trkpt><trkpt lat="41.14496568551454" lon="15.913481857122981"><ele>110.0</ele><time>2026-04-06T08:38:18Z</time></trkpt><trkpt lat="41.14481621325613" lon="15.913293090387464"><ele>110.66666666666666</ele><time>2026-04-06T08:38:19Z</time></trkpt><trkpt lat="41.144669512772644" lon="15.91310278622384"><ele>111.33333333333334</ele><time>2026-04-06T08:38:20Z</time></trkpt><trkpt lat="41.14452388613056" lon="15.912913987276797"><ele>112.0</ele><time>2026-04-06T08:38:21Z</time></trkpt><trkpt lat="41.14437772907653" lon="15.912725685856394"><ele>112.0</ele><time>2026-04-06T08:38:22Z</time></trkpt><trkpt lat="41.14423215410458" lon="15.912532125020522"><ele>112.0</ele><time>2026-04-06T08:38:23Z</time></trkpt><trkpt lat="41.144087666976425" lon="15.91234274886704"><ele>112.0</ele><time>2026-04-06T08:38:24Z</time></trkpt><trkpt lat="41.14394485946698" lon="15.912156360578743"><ele>113.33333333333334</ele><time>2026-04-06T08:38:25Z</time></trkpt><trkpt lat="41.14380065157182" lon="15.911969114188967"><ele>114.66666666666666</ele><time>2026-04-06T08:38:26Z</time></trkpt><trkpt lat="41.14365755005794" lon="15.911782819791181"><ele>116.0</ele><time>2026-04-06T08:38:27Z</time></trkpt><trkpt lat="41.143517718357124" lon="15.911595661242805"><ele>116.0</ele><time>2026-04-06T08:38:28Z</time></trkpt><trkpt lat="41.14337782705677" lon="15.911409356398856"><ele>116.0</ele><time>2026-04-06T08:38:29Z</time></trkpt><trkpt lat="41.143233855959714" lon="15.911225285984958"><ele>116.0</ele><time>2026-04-06T08:38:30Z</time></trkpt><trkpt lat="41.143089754002176" lon="15.911042729777732"><ele>116.33333333333333</ele><time>2026-04-06T08:38:31Z</time></trkpt><trkpt lat="41.14294601775395" lon="15.910859714901239"><ele>116.66666666666666</ele><time>2026-04-06T08:38:32Z</time></trkpt><trkpt lat="41.1428056312848" lon="15.910671878671385"><ele>117.0</ele><time>2026-04-06T08:38:33Z</time></trkpt><trkpt lat="41.142659116180226" lon="15.910482626353481"><ele>117.0</ele><time>2026-04-06T08:38:34Z</time></trkpt><trkpt lat="41.14251339858438" lon="15.91029396776493"><ele>117.0</ele><time>2026-04-06T08:38:35Z</time></trkpt><trkpt lat="41.14236461400964" lon="15.910104303952412"><ele>117.0</ele><time>2026-04-06T08:38:36Z</time></trkpt><trkpt lat="41.142220966956735" lon="15.909914704104294"><ele>117.66666666666666</ele><time>2026-04-06T08:38:37Z</time></trkpt><trkpt lat="41.14207340440808" lon="15.909725331284767"><ele>118.33333333333333</ele><time>2026-04-06T08:38:38Z</time></trkpt><trkpt lat="41.14192365609212" lon="15.909536739361958"><ele>119.0</ele><time>2026-04-06T08:38:39Z</time></trkpt><trkpt lat="41.141775492892386" lon="15.909348522128152"><ele>119.0</ele><time>2026-04-06T08:38:40Z</time></trkpt><trkpt lat="41.14162623543569" lon="15.90915809990348"><ele>119.0</ele><time>2026-04-06T08:38:41Z</time></trkpt><trkpt lat="41.141482019729466" lon="15.90896546088716"><ele>119.0</ele><time>2026-04-06T08:38:42Z</time></trkpt><trkpt lat="41.14133643193495" lon="15.908771717823008"><ele>119.0</ele><time>2026-04-06T08:38:43Z</time></trkpt><trkpt lat="41.14118789214425" lon="15.90857877323408"><ele>119.0</ele><time>2026-04-06T08:38:44Z</time></trkpt><trkpt lat="41.141036600160795" lon="15.908386197702487"><ele>119.0</ele><time>2026-04-06T08:38:45Z</time></trkpt><trkpt lat="41.14088737785353" lon="15.908193395876646"><ele>119.33333333333333</ele><time>2026-04-06T08:38:46Z</time></trkpt><trkpt lat="41.14073630168034" lon="15.907997686468073"><ele>119.66666666666666</ele><time>2026-04-06T08:38:47Z</time></trkpt><trkpt lat="41.140586712480044" lon="15.907798824429987"><ele>120.0</ele><time>2026-04-06T08:38:48Z</time></trkpt><trkpt lat="41.14043430211823" lon="15.907599004753555"><ele>120.0</ele><time>2026-04-06T08:38:49Z</time></trkpt><trkpt lat="41.14028149147858" lon="15.907404074785878"><ele>120.0</ele><time>2026-04-06T08:38:50Z</time></trkpt><trkpt lat="41.14012712756858" lon="15.907209281522944"><ele>120.0</ele><time>2026-04-06T08:38:51Z</time></trkpt><trkpt lat="41.1399715214559" lon="15.907011035362856"><ele>119.66666666666666</ele><time>2026-04-06T08:38:52Z</time></trkpt><trkpt lat="41.13981692950263" lon="15.906812974322568"><ele>119.33333333333333</ele><time>2026-04-06T08:38:53Z</time></trkpt><trkpt lat="41.139663408539775" lon="15.906612255575704"><ele>119.0</ele><time>2026-04-06T08:38:54Z</time></trkpt><trkpt lat="41.13951141947027" lon="15.906411557499055"><ele>119.0</ele><time>2026-04-06T08:38:55Z</time></trkpt><trkpt lat="41.13935609175208" lon="15.906208427590046"><ele>119.0</ele><time>2026-04-06T08:38:56Z</time></trkpt><trkpt lat="41.13920410606785" lon="15.906011531690648"><ele>119.0</ele><time>2026-04-06T08:38:57Z</time></trkpt><trkpt lat="41.13905199021502" lon="15.905811188570155"><ele>119.66666666666666</ele><time>2026-04-06T08:38:58Z</time></trkpt><trkpt lat="41.13890106552464" lon="15.90561077289503"><ele>120.33333333333334</ele><time>2026-04-06T08:38:59Z</time></trkpt><trkpt lat="41.13874559690143" lon="15.905408660217429"><ele>121.0</ele><time>2026-04-06T08:39:00Z</time></trkpt><trkpt lat="41.138592690629295" lon="15.905208016424034"><ele>121.0</ele><time>2026-04-06T08:39:01Z</time></trkpt><trkpt lat="41.13844164574735" lon="15.905010629981197"><ele>121.0</ele><time>2026-04-06T08:39:02Z</time></trkpt><trkpt lat="41.138287757071915" lon="15.904811573019742"><ele>121.0</ele><time>2026-04-06T08:39:03Z</time></trkpt><trkpt lat="41.13813787419045" lon="15.90461663278595"><ele>121.0</ele><time>2026-04-06T08:39:04Z</time></trkpt><trkpt lat="41.13798613926231" lon="15.904419728272739"><ele>121.0</ele><time>2026-04-06T08:39:05Z</time></trkpt><trkpt lat="41.137832914015426" lon="15.90422348995013"><ele>121.0</ele><time>2026-04-06T08:39:06Z</time></trkpt><trkpt lat="41.137681490891666" lon="15.904023062932419"><ele>121.0</ele><time>2026-04-06T08:39:07Z</time></trkpt><trkpt lat="41.13752768253653" lon="15.903824609888325"><ele>121.0</ele><time>2026-04-06T08:39:08Z</time></trkpt><trkpt lat="41.1373731171887" lon="15.903625531135399"><ele>121.0</ele><time>2026-04-06T08:39:09Z</time></trkpt><trkpt lat="41.137218959025724" lon="15.903425015236882"><ele>121.0</ele><time>2026-04-06T08:39:10Z</time></trkpt><trkpt lat="41.13706593038955" lon="15.903219804399475"><ele>121.0</ele><time>2026-04-06T08:39:11Z</time></trkpt><trkpt lat="41.136914332345185" lon="15.903015226361948"><ele>121.0</ele><time>2026-04-06T08:39:12Z</time></trkpt><trkpt lat="41.13675823964271" lon="15.902811878963862"><ele>121.0</ele><time>2026-04-06T08:39:13Z</time></trkpt><trkpt lat="41.13660134125333" lon="15.902614050955723"><ele>121.0</ele><time>2026-04-06T08:39:14Z</time></trkpt><trkpt lat="41.13644515129409" lon="15.902414399426338"><ele>121.0</ele><time>2026-04-06T08:39:15Z</time></trkpt><trkpt lat="41.13628947632267" lon="15.902211303590526"><ele>121.0</ele><time>2026-04-06T08:39:16Z</time></trkpt><trkpt lat="41.1361351840727" lon="15.902006329423912"><ele>121.0</ele><time>2026-04-06T08:39:17Z</time></trkpt><trkpt lat="41.1359825283557" lon="15.901803380216549"><ele>121.0</ele><time>2026-04-06T08:39:18Z</time></trkpt><trkpt lat="41.13582598702968" lon="15.90159946829384"><ele>121.0</ele><time>2026-04-06T08:39:19Z</time></trkpt><trkpt lat="41.135670224892344" lon="15.901395360537336"><ele>121.0</ele><time>2026-04-06T08:39:20Z</time></trkpt><trkpt lat="41.13551502627121" lon="15.90119238778045"><ele>121.0</ele><time>2026-04-06T08:39:21Z</time></trkpt><trkpt lat="41.13535785723593" lon="15.90098696758829"><ele>120.66666666666667</ele><time>2026-04-06T08:39:22Z</time></trkpt><trkpt lat="41.135204439728" lon="15.900784777416161"><ele>120.33333333333334</ele><time>2026-04-06T08:39:23Z</time></trkpt><trkpt lat="41.1350503174728" lon="15.900579275270465"><ele>120.0</ele><time>2026-04-06T08:39:24Z</time></trkpt><trkpt lat="41.13489676305081" lon="15.900375004274828"><ele>120.33333333333334</ele><time>2026-04-06T08:39:25Z</time></trkpt><trkpt lat="41.13474096425152" lon="15.900170526793138"><ele>120.66666666666667</ele><time>2026-04-06T08:39:26Z</time></trkpt><trkpt lat="41.13458715170689" lon="15.899970311991002"><ele>121.0</ele><time>2026-04-06T08:39:27Z</time></trkpt><trkpt lat="41.13443154869367" lon="15.899769749084728"><ele>121.0</ele><time>2026-04-06T08:39:28Z</time></trkpt><trkpt lat="41.13427469614332" lon="15.899567001809547"><ele>121.0</ele><time>2026-04-06T08:39:29Z</time></trkpt><trkpt lat="41.13412172602097" lon="15.899364971924753"><ele>121.0</ele><time>2026-04-06T08:39:30Z</time></trkpt><trkpt lat="41.133968824897785" lon="15.899159492895544"><ele>121.66666666666667</ele><time>2026-04-06T08:39:31Z</time></trkpt><trkpt lat="41.13381542331052" lon="15.898957802100426"><ele>122.33333333333334</ele><time>2026-04-06T08:39:32Z</time></trkpt><trkpt lat="41.133659208950526" lon="15.898755671281883"><ele>123.0</ele><time>2026-04-06T08:39:33Z</time></trkpt><trkpt lat="41.133505461363804" lon="15.898556022234837"><ele>123.0</ele><time>2026-04-06T08:39:34Z</time></trkpt><trkpt lat="41.13335199027064" lon="15.898354119730241"><ele>123.0</ele><time>2026-04-06T08:39:35Z</time></trkpt><trkpt lat="41.13319804717275" lon="15.898153749550879"><ele>123.0</ele><time>2026-04-06T08:39:36Z</time></trkpt><trkpt lat="41.133044688811786" lon="15.897951470417611"><ele>123.0</ele><time>2026-04-06T08:39:37Z</time></trkpt><trkpt lat="41.13289207634413" lon="15.89774929330539"><ele>123.0</ele><time>2026-04-06T08:39:38Z</time></trkpt><trkpt lat="41.132739030943036" lon="15.897546515608976"><ele>123.0</ele><time>2026-04-06T08:39:39Z</time></trkpt><trkpt lat="41.13258424235403" lon="15.897345924372509"><ele>123.33333333333334</ele><time>2026-04-06T08:39:40Z</time></trkpt><trkpt lat="41.132427449050084" lon="15.897145096394224"><ele>123.66666666666667</ele><time>2026-04-06T08:39:41Z</time></trkpt><trkpt lat="41.13227098981912" lon="15.896948076851821"><ele>124.0</ele><time>2026-04-06T08:39:42Z</time></trkpt><trkpt lat="41.13210982609098" lon="15.896741605878312"><ele>124.0</ele><time>2026-04-06T08:39:43Z</time></trkpt><trkpt lat="41.13195415312884" lon="15.896539595994318"><ele>124.0</ele><time>2026-04-06T08:39:44Z</time></trkpt><trkpt lat="41.13180000314533" lon="15.896327927713708"><ele>124.0</ele><time>2026-04-06T08:39:45Z</time></trkpt><trkpt lat="41.13164582257765" lon="15.896117933626085"><ele>124.0</ele><time>2026-04-06T08:39:46Z</time></trkpt><trkpt lat="41.13148977258864" lon="15.895913773069"><ele>124.0</ele><time>2026-04-06T08:39:47Z</time></trkpt><trkpt lat="41.1313333617086" lon="15.895711821193819"><ele>124.0</ele><time>2026-04-06T08:39:48Z</time></trkpt><trkpt lat="41.131176913910274" lon="15.895511056178146"><ele>124.0</ele><time>2026-04-06T08:39:49Z</time></trkpt><trkpt lat="41.13102058939811" lon="15.895307129116777"><ele>124.0</ele><time>2026-04-06T08:39:50Z</time></trkpt><trkpt lat="41.13086430657947" lon="15.895101557883768"><ele>124.0</ele><time>2026-04-06T08:39:51Z</time></trkpt><trkpt lat="41.1307090602041" lon="15.894898939780012"><ele>124.33333333333334</ele><time>2026-04-06T08:39:52Z</time></trkpt><trkpt lat="41.13055217430924" lon="15.894697266389493"><ele>124.66666666666666</ele><time>2026-04-06T08:39:53Z</time></trkpt><trkpt lat="41.13039622492037" lon="15.894493067753476"><ele>125.0</ele><time>2026-04-06T08:39:54Z</time></trkpt><trkpt lat="41.13024215143394" lon="15.894290447235253"><ele>125.0</ele><time>2026-04-06T08:39:55Z</time></trkpt><trkpt lat="41.1300855335221" lon="15.894083963202908"><ele>125.0</ele><time>2026-04-06T08:39:56Z</time></trkpt><trkpt lat="41.12993178269525" lon="15.893879895440334"><ele>125.0</ele><time>2026-04-06T08:39:57Z</time></trkpt><trkpt lat="41.12977882042935" lon="15.893676893046159"><ele>125.33333333333333</ele><time>2026-04-06T08:39:58Z</time></trkpt><trkpt lat="41.12962526778186" lon="15.893471757800013"><ele>125.66666666666666</ele><time>2026-04-06T08:39:59Z</time></trkpt><trkpt lat="41.12947124747467" lon="15.893271548680145"><ele>126.0</ele><time>2026-04-06T08:40:00Z</time></trkpt><trkpt lat="41.12931512090457" lon="15.89307030120329"><ele>126.0</ele><time>2026-04-06T08:40:01Z</time></trkpt><trkpt lat="41.12915901542884" lon="15.89286963444271"><ele>126.0</ele><time>2026-04-06T08:40:02Z</time></trkpt><trkpt lat="41.1290063043699" lon="15.892665178795353"><ele>126.0</ele><time>2026-04-06T08:40:03Z</time></trkpt><trkpt lat="41.12885440585018" lon="15.89246187783764"><ele>126.33333333333334</ele><time>2026-04-06T08:40:04Z</time></trkpt><trkpt lat="41.128700768775296" lon="15.89225712283114"><ele>126.66666666666667</ele><time>2026-04-06T08:40:05Z</time></trkpt><trkpt lat="41.128546863236025" lon="15.892057508472922"><ele>127.0</ele><time>2026-04-06T08:40:06Z</time></trkpt><trkpt lat="41.12839437019928" lon="15.891858858354851"><ele>127.0</ele><time>2026-04-06T08:40:07Z</time></trkpt><trkpt lat="41.12823946986196" lon="15.891655770476659"><ele>127.0</ele><time>2026-04-06T08:40:08Z</time></trkpt><trkpt lat="41.128085862493116" lon="15.89145706950568"><ele>127.0</ele><time>2026-04-06T08:40:09Z</time></trkpt><trkpt lat="41.12793564204736" lon="15.891258662201023"><ele>126.33333333333334</ele><time>2026-04-06T08:40:10Z</time></trkpt><trkpt lat="41.12778280203216" lon="15.891054690909685"><ele>125.66666666666666</ele><time>2026-04-06T08:40:11Z</time></trkpt><trkpt lat="41.12763147590961" lon="15.890853308514567"><ele>125.0</ele><time>2026-04-06T08:40:12Z</time></trkpt><trkpt lat="41.12748024580209" lon="15.890654902574907"><ele>125.33333333333333</ele><time>2026-04-06T08:40:13Z</time></trkpt><trkpt lat="41.127325587199195" lon="15.890453373291011"><ele>125.66666666666666</ele><time>2026-04-06T08:40:14Z</time></trkpt><trkpt lat="41.127175084006105" lon="15.89025503652816"><ele>126.0</ele><time>2026-04-06T08:40:15Z</time></trkpt><trkpt lat="41.12702292620627" lon="15.890055735884198"><ele>126.0</ele><time>2026-04-06T08:40:16Z</time></trkpt><trkpt lat="41.126868856368915" lon="15.889855835418455"><ele>126.0</ele><time>2026-04-06T08:40:17Z</time></trkpt><trkpt lat="41.12671588497706" lon="15.889658872718115"><ele>126.0</ele><time>2026-04-06T08:40:18Z</time></trkpt><trkpt lat="41.12656241965122" lon="15.889460263429461"><ele>126.0</ele><time>2026-04-06T08:40:19Z</time></trkpt><trkpt lat="41.12640694664833" lon="15.889262005344088"><ele>126.0</ele><time>2026-04-06T08:40:20Z</time></trkpt><trkpt lat="41.126256290377874" lon="15.889064669846322"><ele>126.0</ele><time>2026-04-06T08:40:21Z</time></trkpt><trkpt lat="41.12610454717602" lon="15.888864331173735"><ele>125.66666666666666</ele><time>2026-04-06T08:40:22Z</time></trkpt><trkpt lat="41.12595453668737" lon="15.888663244101812"><ele>125.33333333333333</ele><time>2026-04-06T08:40:23Z</time></trkpt><trkpt lat="41.125802491815" lon="15.888464338688443"><ele>125.0</ele><time>2026-04-06T08:40:24Z</time></trkpt><trkpt lat="41.12565078683295" lon="15.888266980039685"><ele>125.66666666666666</ele><time>2026-04-06T08:40:25Z</time></trkpt><trkpt lat="41.12550145679335" lon="15.888070409086044"><ele>126.33333333333334</ele><time>2026-04-06T08:40:26Z</time></trkpt><trkpt lat="41.125348204688926" lon="15.887872022501343"><ele>127.0</ele><time>2026-04-06T08:40:27Z</time></trkpt><trkpt lat="41.125199431627294" lon="15.887675796937257"><ele>127.0</ele><time>2026-04-06T08:40:28Z</time></trkpt><trkpt lat="41.1250504706022" lon="15.887479193915974"><ele>127.0</ele><time>2026-04-06T08:40:29Z</time></trkpt><trkpt lat="41.12490022922933" lon="15.887286774274047"><ele>127.0</ele><time>2026-04-06T08:40:30Z</time></trkpt><trkpt lat="41.124747541844734" lon="15.887094902130753"><ele>127.33333333333334</ele><time>2026-04-06T08:40:31Z</time></trkpt><trkpt lat="41.124597923898115" lon="15.886900681519373"><ele>127.66666666666666</ele><time>2026-04-06T08:40:32Z</time></trkpt><trkpt lat="41.124451542372675" lon="15.886704678036216"><ele>128.0</ele><time>2026-04-06T08:40:33Z</time></trkpt><trkpt lat="41.12430526124175" lon="15.886511732259342"><ele>128.0</ele><time>2026-04-06T08:40:34Z</time></trkpt><trkpt lat="41.12415229789585" lon="15.886317518200006"><ele>128.0</ele><time>2026-04-06T08:40:35Z</time></trkpt><trkpt lat="41.12400314850103" lon="15.886122653627499"><ele>128.0</ele><time>2026-04-06T08:40:36Z</time></trkpt><trkpt lat="41.1238555349616" lon="15.885927595631202"><ele>128.33333333333331</ele><time>2026-04-06T08:40:37Z</time></trkpt><trkpt lat="41.12370295195177" lon="15.8857320720842"><ele>128.66666666666666</ele><time>2026-04-06T08:40:38Z</time></trkpt><trkpt lat="41.12355245051298" lon="15.885538649834464"><ele>129.0</ele><time>2026-04-06T08:40:39Z</time></trkpt><trkpt lat="41.12339911969682" lon="15.885344578125077"><ele>129.0</ele><time>2026-04-06T08:40:40Z</time></trkpt><trkpt lat="41.123246535400334" lon="15.885154781662102"><ele>129.0</ele><time>2026-04-06T08:40:41Z</time></trkpt><trkpt lat="41.123090825531015" lon="15.884963999940803"><ele>129.0</ele><time>2026-04-06T08:40:42Z</time></trkpt><trkpt lat="41.122939386555245" lon="15.884776774348039"><ele>129.33333333333334</ele><time>2026-04-06T08:40:43Z</time></trkpt><trkpt lat="41.122781222834824" lon="15.884583709895654"><ele>129.66666666666669</ele><time>2026-04-06T08:40:44Z</time></trkpt><trkpt lat="41.12262699661382" lon="15.884392484926176"><ele>130.0</ele><time>2026-04-06T08:40:45Z</time></trkpt><trkpt lat="41.12247317916808" lon="15.884196294019253"><ele>130.0</ele><time>2026-04-06T08:40:46Z</time></trkpt><trkpt lat="41.1223233104683" lon="15.884007692687673"><ele>130.0</ele><time>2026-04-06T08:40:47Z</time></trkpt><trkpt lat="41.12216989739997" lon="15.883818299218394"><ele>130.0</ele><time>2026-04-06T08:40:48Z</time></trkpt><trkpt lat="41.12201335278047" lon="15.883625958724638"><ele>130.0</ele><time>2026-04-06T08:40:49Z</time></trkpt><trkpt lat="41.12185817723245" lon="15.883432571338572"><ele>130.0</ele><time>2026-04-06T08:40:50Z</time></trkpt><trkpt lat="41.121706277525284" lon="15.883241637672807"><ele>130.0</ele><time>2026-04-06T08:40:51Z</time></trkpt><trkpt lat="41.12155139874533" lon="15.883051012528629"><ele>130.33333333333334</ele><time>2026-04-06T08:40:52Z</time></trkpt><trkpt lat="41.12139599208869" lon="15.882859046593236"><ele>130.66666666666666</ele><time>2026-04-06T08:40:53Z</time></trkpt><trkpt lat="41.12124095680795" lon="15.882670207746303"><ele>131.0</ele><time>2026-04-06T08:40:54Z</time></trkpt><trkpt lat="41.121085830953724" lon="15.882483435613388"><ele>131.0</ele><time>2026-04-06T08:40:55Z</time></trkpt><trkpt lat="41.12092702861223" lon="15.882291966157425"><ele>131.0</ele><time>2026-04-06T08:40:56Z</time></trkpt><trkpt lat="41.12077287004963" lon="15.882100460672033"><ele>131.0</ele><time>2026-04-06T08:40:57Z</time></trkpt><trkpt lat="41.12061936738762" lon="15.881909126868683"><ele>132.0</ele><time>2026-04-06T08:40:58Z</time></trkpt><trkpt lat="41.120463550701096" lon="15.881716549183002"><ele>133.0</ele><time>2026-04-06T08:40:59Z</time></trkpt><trkpt lat="41.12031043825219" lon="15.881524664383237"><ele>134.0</ele><time>2026-04-06T08:41:00Z</time></trkpt><trkpt lat="41.12016086068379" lon="15.8813367341699"><ele>134.0</ele><time>2026-04-06T08:41:01Z</time></trkpt><trkpt lat="41.120005794155965" lon="15.881141903110544"><ele>134.0</ele><time>2026-04-06T08:41:02Z</time></trkpt><trkpt lat="41.11985259318614" lon="15.880948687267079"><ele>134.0</ele><time>2026-04-06T08:41:03Z</time></trkpt><trkpt lat="41.119696702559445" lon="15.880757512651538"><ele>133.66666666666666</ele><time>2026-04-06T08:41:04Z</time></trkpt><trkpt lat="41.119540674153036" lon="15.880568991999505"><ele>133.33333333333334</ele><time>2026-04-06T08:41:05Z</time></trkpt><trkpt lat="41.11938447969774" lon="15.880378771095915"><ele>133.0</ele><time>2026-04-06T08:41:06Z</time></trkpt><trkpt lat="41.119229354224814" lon="15.880188069459972"><ele>133.0</ele><time>2026-04-06T08:41:07Z</time></trkpt><trkpt lat="41.11907388200893" lon="15.87999204827977"><ele>133.0</ele><time>2026-04-06T08:41:08Z</time></trkpt><trkpt lat="41.11891799145943" lon="15.87979803909327"><ele>133.0</ele><time>2026-04-06T08:41:09Z</time></trkpt><trkpt lat="41.118763914326316" lon="15.879610403022722"><ele>133.0</ele><time>2026-04-06T08:41:10Z</time></trkpt><trkpt lat="41.11861273497367" lon="15.87942928493692"><ele>133.0</ele><time>2026-04-06T08:41:11Z</time></trkpt><trkpt lat="41.11844876496188" lon="15.879230236856607"><ele>133.0</ele><time>2026-04-06T08:41:12Z</time></trkpt><trkpt lat="41.11829717298571" lon="15.879047066637378"><ele>133.33333333333334</ele><time>2026-04-06T08:41:13Z</time></trkpt><trkpt lat="41.118144046409945" lon="15.878853028028677"><ele>133.66666666666666</ele><time>2026-04-06T08:41:14Z</time></trkpt><trkpt lat="41.117986889009075" lon="15.878661102798679"><ele>134.0</ele><time>2026-04-06T08:41:15Z</time></trkpt><trkpt lat="41.1178308908794" lon="15.878472609497885"><ele>134.33333333333331</ele><time>2026-04-06T08:41:16Z</time></trkpt><trkpt lat="41.11767890704139" lon="15.878283132504649"><ele>134.66666666666666</ele><time>2026-04-06T08:41:17Z</time></trkpt><trkpt lat="41.11752137520943" lon="15.87808881372944"><ele>135.0</ele><time>2026-04-06T08:41:18Z</time></trkpt><trkpt lat="41.117368701021235" lon="15.877894271180931"><ele>135.0</ele><time>2026-04-06T08:41:19Z</time></trkpt><trkpt lat="41.117211380741765" lon="15.877700428839153"><ele>135.0</ele><time>2026-04-06T08:41:20Z</time></trkpt><trkpt lat="41.11705438320265" lon="15.877508675813324"><ele>135.0</ele><time>2026-04-06T08:41:21Z</time></trkpt><trkpt lat="41.11689845455958" lon="15.877316188563716"><ele>135.33333333333334</ele><time>2026-04-06T08:41:22Z</time></trkpt><trkpt lat="41.116741879072315" lon="15.87712659484867"><ele>135.66666666666669</ele><time>2026-04-06T08:41:23Z</time></trkpt><trkpt lat="41.11658234332119" lon="15.876937006692446"><ele>136.0</ele><time>2026-04-06T08:41:24Z</time></trkpt><trkpt lat="41.11642177539187" lon="15.876746346236493"><ele>136.0</ele><time>2026-04-06T08:41:25Z</time></trkpt><trkpt lat="41.116265130151916" lon="15.876554430654487"><ele>136.0</ele><time>2026-04-06T08:41:26Z</time></trkpt><trkpt lat="41.11610621496063" lon="15.876359782678119"><ele>136.0</ele><time>2026-04-06T08:41:27Z</time></trkpt><trkpt lat="41.115950069443166" lon="15.876166911885468"><ele>136.0</ele><time>2026-04-06T08:41:28Z</time></trkpt><trkpt lat="41.11579196766683" lon="15.875978555367306"><ele>136.0</ele><time>2026-04-06T08:41:29Z</time></trkpt><trkpt lat="41.11563582773994" lon="15.875788927066978"><ele>136.0</ele><time>2026-04-06T08:41:30Z</time></trkpt><trkpt lat="41.11547938600116" lon="15.875597208548966"><ele>136.0</ele><time>2026-04-06T08:41:31Z</time></trkpt><trkpt lat="41.115325820355494" lon="15.8754037623418"><ele>136.0</ele><time>2026-04-06T08:41:32Z</time></trkpt><trkpt lat="41.1151685077898" lon="15.875211353967455"><ele>136.0</ele><time>2026-04-06T08:41:33Z</time></trkpt><trkpt lat="41.115008854156784" lon="15.875021788360872"><ele>136.33333333333334</ele><time>2026-04-06T08:41:34Z</time></trkpt><trkpt lat="41.11485592923149" lon="15.874832735857929"><ele>136.66666666666666</ele><time>2026-04-06T08:41:35Z</time></trkpt><trkpt lat="41.114709816678705" lon="15.874624354774523"><ele>137.0</ele><time>2026-04-06T08:41:36Z</time></trkpt><trkpt lat="41.11454679093561" lon="15.874451367558882"><ele>137.0</ele><time>2026-04-06T08:41:37Z</time></trkpt><trkpt lat="41.114388586794604" lon="15.874260139065353"><ele>137.0</ele><time>2026-04-06T08:41:38Z</time></trkpt><trkpt lat="41.1142357961693" lon="15.874070912666058"><ele>137.0</ele><time>2026-04-06T08:41:39Z</time></trkpt><trkpt lat="41.114088688703355" lon="15.873865756752688"><ele>137.0</ele><time>2026-04-06T08:41:40Z</time></trkpt><trkpt lat="41.11393533529339" lon="15.87367753128532"><ele>137.0</ele><time>2026-04-06T08:41:41Z</time></trkpt><trkpt lat="41.113778781787445" lon="15.873485378033568"><ele>137.0</ele><time>2026-04-06T08:41:42Z</time></trkpt><trkpt lat="41.11362457745541" lon="15.873295083214478"><ele>137.0</ele><time>2026-04-06T08:41:43Z</time></trkpt><trkpt lat="41.11346577506477" lon="15.87310008541372"><ele>137.0</ele><time>2026-04-06T08:41:44Z</time></trkpt><trkpt lat="41.11330684579983" lon="15.872906660357694"><ele>137.0</ele><time>2026-04-06T08:41:45Z</time></trkpt><trkpt lat="41.11314238340345" lon="15.872729784163127"><ele>137.0</ele><time>2026-04-06T08:41:46Z</time></trkpt><trkpt lat="41.11298755867623" lon="15.8725357539926"><ele>137.0</ele><time>2026-04-06T08:41:47Z</time></trkpt><trkpt lat="41.112823533464066" lon="15.872343245378067"><ele>137.0</ele><time>2026-04-06T08:41:48Z</time></trkpt><trkpt lat="41.11266597187802" lon="15.872150890900095"><ele>137.0</ele><time>2026-04-06T08:41:49Z</time></trkpt><trkpt lat="41.1125117714084" lon="15.871957983000307"><ele>137.0</ele><time>2026-04-06T08:41:50Z</time></trkpt><trkpt lat="41.11236161542414" lon="15.871746243616766"><ele>137.0</ele><time>2026-04-06T08:41:51Z</time></trkpt><trkpt lat="41.11219581978847" lon="15.871567783582652"><ele>137.66666666666666</ele><time>2026-04-06T08:41:52Z</time></trkpt><trkpt lat="41.11203796808609" lon="15.871369853701552"><ele>138.33333333333334</ele><time>2026-04-06T08:41:53Z</time></trkpt><trkpt lat="41.111881047956594" lon="15.871170484017657"><ele>139.0</ele><time>2026-04-06T08:41:54Z</time></trkpt><trkpt lat="41.111726294177004" lon="15.870972734731872"><ele>139.66666666666669</ele><time>2026-04-06T08:41:55Z</time></trkpt><trkpt lat="41.11157038068022" lon="15.870776376691593"><ele>140.33333333333334</ele><time>2026-04-06T08:41:56Z</time></trkpt><trkpt lat="41.111411273656806" lon="15.8705784498405"><ele>141.0</ele><time>2026-04-06T08:41:57Z</time></trkpt><trkpt lat="41.11124959949326" lon="15.87038224850846"><ele>141.0</ele><time>2026-04-06T08:41:58Z</time></trkpt><trkpt lat="41.11109124605616" lon="15.870194369061633"><ele>141.0</ele><time>2026-04-06T08:41:59Z</time></trkpt><trkpt lat="41.11092975396262" lon="15.870003125322466"><ele>141.0</ele><time>2026-04-06T08:42:00Z</time></trkpt><trkpt lat="41.11077339093596" lon="15.869805421809097"><ele>141.0</ele><time>2026-04-06T08:42:01Z</time></trkpt><trkpt lat="41.11061779441316" lon="15.869607051558747"><ele>141.0</ele><time>2026-04-06T08:42:02Z</time></trkpt><trkpt lat="41.110459471345166" lon="15.869409754344195"><ele>141.0</ele><time>2026-04-06T08:42:03Z</time></trkpt><trkpt lat="41.11029638745566" lon="15.869212737050855"><ele>141.0</ele><time>2026-04-06T08:42:04Z</time></trkpt><trkpt lat="41.11013942769962" lon="15.869024978151925"><ele>141.0</ele><time>2026-04-06T08:42:05Z</time></trkpt><trkpt lat="41.10997847310558" lon="15.868830630574926"><ele>141.0</ele><time>2026-04-06T08:42:06Z</time></trkpt><trkpt lat="41.10981564838042" lon="15.868638629368851"><ele>141.66666666666666</ele><time>2026-04-06T08:42:07Z</time></trkpt><trkpt lat="41.10965384683911" lon="15.86844242902737"><ele>142.33333333333331</ele><time>2026-04-06T08:42:08Z</time></trkpt><trkpt lat="41.10949474542395" lon="15.868251615211983"><ele>143.0</ele><time>2026-04-06T08:42:09Z</time></trkpt><trkpt lat="41.1093366690489" lon="15.868048386960814"><ele>143.0</ele><time>2026-04-06T08:42:10Z</time></trkpt><trkpt lat="41.10918309687421" lon="15.867855516326056"><ele>143.0</ele><time>2026-04-06T08:42:11Z</time></trkpt><trkpt lat="41.10903101649248" lon="15.867652170572748"><ele>143.0</ele><time>2026-04-06T08:42:12Z</time></trkpt><trkpt lat="41.10887263511945" lon="15.867454123452347"><ele>142.66666666666666</ele><time>2026-04-06T08:42:13Z</time></trkpt><trkpt lat="41.10871470163455" lon="15.867266815078493"><ele>142.33333333333334</ele><time>2026-04-06T08:42:14Z</time></trkpt><trkpt lat="41.10855933384968" lon="15.867077434844694"><ele>142.0</ele><time>2026-04-06T08:42:15Z</time></trkpt><trkpt lat="41.10839997484602" lon="15.866887280239323"><ele>141.66666666666669</ele><time>2026-04-06T08:42:16Z</time></trkpt><trkpt lat="41.10824402046349" lon="15.866696438597536"><ele>141.33333333333334</ele><time>2026-04-06T08:42:17Z</time></trkpt><trkpt lat="41.10808847467833" lon="15.866502117132885"><ele>141.0</ele><time>2026-04-06T08:42:18Z</time></trkpt><trkpt lat="41.107932421409444" lon="15.866307655865905"><ele>141.66666666666666</ele><time>2026-04-06T08:42:19Z</time></trkpt><trkpt lat="41.1077793923396" lon="15.866120983921745"><ele>142.33333333333331</ele><time>2026-04-06T08:42:20Z</time></trkpt><trkpt lat="41.10762372479239" lon="15.86592606458837"><ele>143.0</ele><time>2026-04-06T08:42:21Z</time></trkpt><trkpt lat="41.107471111159015" lon="15.865734345618684"><ele>144.0</ele><time>2026-04-06T08:42:22Z</time></trkpt><trkpt lat="41.1073156932396" lon="15.865544608460702"><ele>145.0</ele><time>2026-04-06T08:42:23Z</time></trkpt><trkpt lat="41.10715844479197" lon="15.865358682573591"><ele>146.0</ele><time>2026-04-06T08:42:24Z</time></trkpt><trkpt lat="41.10700349211216" lon="15.865171939440271"><ele>145.66666666666666</ele><time>2026-04-06T08:42:25Z</time></trkpt><trkpt lat="41.10684855644925" lon="15.864976474238345"><ele>145.33333333333334</ele><time>2026-04-06T08:42:26Z</time></trkpt><trkpt lat="41.10669655394611" lon="15.864789324488362"><ele>145.0</ele><time>2026-04-06T08:42:27Z</time></trkpt><trkpt lat="41.106539845729486" lon="15.864595556960245"><ele>145.33333333333334</ele><time>2026-04-06T08:42:28Z</time></trkpt><trkpt lat="41.10638306250421" lon="15.864400516737756"><ele>145.66666666666666</ele><time>2026-04-06T08:42:29Z</time></trkpt><trkpt lat="41.106224836711796" lon="15.864206183444043"><ele>146.0</ele><time>2026-04-06T08:42:30Z</time></trkpt><trkpt lat="41.10606857030515" lon="15.864012445063052"><ele>146.0</ele><time>2026-04-06T08:42:31Z</time></trkpt><trkpt lat="41.10591129268054" lon="15.863823610779614"><ele>146.0</ele><time>2026-04-06T08:42:32Z</time></trkpt><trkpt lat="41.10575476759629" lon="15.863635118047231"><ele>146.0</ele><time>2026-04-06T08:42:33Z</time></trkpt><trkpt lat="41.10559710114908" lon="15.863446451235129"><ele>147.0</ele><time>2026-04-06T08:42:34Z</time></trkpt><trkpt lat="41.10543881383357" lon="15.863256260779883"><ele>148.0</ele><time>2026-04-06T08:42:35Z</time></trkpt><trkpt lat="41.10528328337262" lon="15.863072564030979"><ele>149.0</ele><time>2026-04-06T08:42:36Z</time></trkpt><trkpt lat="41.10512850640609" lon="15.86288076259114"><ele>149.0</ele><time>2026-04-06T08:42:37Z</time></trkpt><trkpt lat="41.10497294693709" lon="15.862682973041995"><ele>149.0</ele><time>2026-04-06T08:42:38Z</time></trkpt><trkpt lat="41.10482159918103" lon="15.862490015154934"><ele>149.0</ele><time>2026-04-06T08:42:39Z</time></trkpt><trkpt lat="41.10466557628642" lon="15.862297237048542"><ele>148.0</ele><time>2026-04-06T08:42:40Z</time></trkpt><trkpt lat="41.10451220912955" lon="15.862113620123159"><ele>147.0</ele><time>2026-04-06T08:42:41Z</time></trkpt><trkpt lat="41.10435357342971" lon="15.8619247540208"><ele>146.0</ele><time>2026-04-06T08:42:42Z</time></trkpt><trkpt lat="41.10419936697906" lon="15.861730380308028"><ele>145.66666666666666</ele><time>2026-04-06T08:42:43Z</time></trkpt><trkpt lat="41.10404547867354" lon="15.86153517761697"><ele>145.33333333333334</ele><time>2026-04-06T08:42:44Z</time></trkpt><trkpt lat="41.103892192438714" lon="15.861342689654522"><ele>145.0</ele><time>2026-04-06T08:42:45Z</time></trkpt><trkpt lat="41.10373544365979" lon="15.861154122976352"><ele>145.0</ele><time>2026-04-06T08:42:46Z</time></trkpt><trkpt lat="41.1035787635181" lon="15.860964222527802"><ele>145.0</ele><time>2026-04-06T08:42:47Z</time></trkpt><trkpt lat="41.10342335855058" lon="15.860771751561746"><ele>145.0</ele><time>2026-04-06T08:42:48Z</time></trkpt><trkpt lat="41.10326666286652" lon="15.860578397613361"><ele>145.0</ele><time>2026-04-06T08:42:49Z</time></trkpt><trkpt lat="41.10310858062012" lon="15.860385114893186"><ele>145.0</ele><time>2026-04-06T08:42:50Z</time></trkpt><trkpt lat="41.102948837391665" lon="15.860194630825395"><ele>145.0</ele><time>2026-04-06T08:42:51Z</time></trkpt><trkpt lat="41.102794957267875" lon="15.859997753670859"><ele>145.0</ele><time>2026-04-06T08:42:52Z</time></trkpt><trkpt lat="41.10264029690086" lon="15.859799419939524"><ele>145.0</ele><time>2026-04-06T08:42:53Z</time></trkpt><trkpt lat="41.102482819559114" lon="15.859603844635844"><ele>145.0</ele><time>2026-04-06T08:42:54Z</time></trkpt><trkpt lat="41.10232062125991" lon="15.859413458601784"><ele>144.66666666666669</ele><time>2026-04-06T08:42:55Z</time></trkpt><trkpt lat="41.102165200732124" lon="15.859218734366905"><ele>144.33333333333334</ele><time>2026-04-06T08:42:56Z</time></trkpt><trkpt lat="41.10200615680124" lon="15.859023633041334"><ele>144.0</ele><time>2026-04-06T08:42:57Z</time></trkpt><trkpt lat="41.10184974691529" lon="15.858827305857277"><ele>144.0</ele><time>2026-04-06T08:42:58Z</time></trkpt><trkpt lat="41.10168916150582" lon="15.858639269709949"><ele>144.0</ele><time>2026-04-06T08:42:59Z</time></trkpt><trkpt lat="41.10152956750049" lon="15.858446506248157"><ele>144.0</ele><time>2026-04-06T08:43:00Z</time></trkpt><trkpt lat="41.10136807141915" lon="15.858258293260755"><ele>145.66666666666666</ele><time>2026-04-06T08:43:01Z</time></trkpt><trkpt lat="41.101211608958614" lon="15.858062254938002"><ele>147.33333333333331</ele><time>2026-04-06T08:43:02Z</time></trkpt><trkpt lat="41.10105729422658" lon="15.857865138458418"><ele>149.0</ele><time>2026-04-06T08:43:03Z</time></trkpt><trkpt lat="41.100897403837024" lon="15.857666872061127"><ele>149.66666666666666</ele><time>2026-04-06T08:43:04Z</time></trkpt><trkpt lat="41.10074065305314" lon="15.857467995564141"><ele>150.33333333333334</ele><time>2026-04-06T08:43:05Z</time></trkpt><trkpt lat="41.1005818504736" lon="15.857269684251543"><ele>151.0</ele><time>2026-04-06T08:43:06Z</time></trkpt><trkpt lat="41.100418697625344" lon="15.857076319143516"><ele>151.0</ele><time>2026-04-06T08:43:07Z</time></trkpt><trkpt lat="41.10025716024099" lon="15.856880349088517"><ele>151.0</ele><time>2026-04-06T08:43:08Z</time></trkpt><trkpt lat="41.10009871320714" lon="15.85668465891577"><ele>151.0</ele><time>2026-04-06T08:43:09Z</time></trkpt><trkpt lat="41.099938094418356" lon="15.85648530844035"><ele>151.0</ele><time>2026-04-06T08:43:10Z</time></trkpt><trkpt lat="41.09977704138814" lon="15.856287712602242"><ele>151.0</ele><time>2026-04-06T08:43:11Z</time></trkpt><trkpt lat="41.09961500058936" lon="15.85609147290147"><ele>151.0</ele><time>2026-04-06T08:43:12Z</time></trkpt><trkpt lat="41.099457853853515" lon="15.855893738872162"><ele>151.33333333333334</ele><time>2026-04-06T08:43:13Z</time></trkpt><trkpt lat="41.099295303812085" lon="15.855698322400515"><ele>151.66666666666666</ele><time>2026-04-06T08:43:14Z</time></trkpt><trkpt lat="41.09913518051581" lon="15.855497361522977"><ele>152.0</ele><time>2026-04-06T08:43:15Z</time></trkpt><trkpt lat="41.09897487353085" lon="15.855302057728226"><ele>152.0</ele><time>2026-04-06T08:43:16Z</time></trkpt><trkpt lat="41.09881376164021" lon="15.85510159728767"><ele>152.0</ele><time>2026-04-06T08:43:17Z</time></trkpt><trkpt lat="41.098651502320436" lon="15.854908828613842"><ele>152.0</ele><time>2026-04-06T08:43:18Z</time></trkpt><trkpt lat="41.098492610123834" lon="15.85470788550338"><ele>152.0</ele><time>2026-04-06T08:43:19Z</time></trkpt><trkpt lat="41.09833422397972" lon="15.854508450816933"><ele>152.0</ele><time>2026-04-06T08:43:20Z</time></trkpt><trkpt lat="41.09817433646798" lon="15.854309491733833"><ele>152.0</ele><time>2026-04-06T08:43:21Z</time></trkpt><trkpt lat="41.09801466881453" lon="15.85411187793386"><ele>152.66666666666666</ele><time>2026-04-06T08:43:22Z</time></trkpt><trkpt lat="41.09785460390159" lon="15.853913460793962"><ele>153.33333333333334</ele><time>2026-04-06T08:43:23Z</time></trkpt><trkpt lat="41.09769587629996" lon="15.853714019230532"><ele>154.0</ele><time>2026-04-06T08:43:24Z</time></trkpt><trkpt lat="41.097537634560055" lon="15.853517378038495"><ele>154.33333333333334</ele><time>2026-04-06T08:43:25Z</time></trkpt><trkpt lat="41.0973747801031" lon="15.853322192933309"><ele>154.66666666666666</ele><time>2026-04-06T08:43:26Z</time></trkpt><trkpt lat="41.097211565115884" lon="15.853121628417"><ele>155.0</ele><time>2026-04-06T08:43:27Z</time></trkpt><trkpt lat="41.097048546151136" lon="15.852930422735495"><ele>155.0</ele><time>2026-04-06T08:43:28Z</time></trkpt><trkpt lat="41.096889009761234" lon="15.852733148957693"><ele>155.0</ele><time>2026-04-06T08:43:29Z</time></trkpt><trkpt lat="41.09672968372017" lon="15.852537187703746"><ele>155.0</ele><time>2026-04-06T08:43:30Z</time></trkpt><trkpt lat="41.09656775177436" lon="15.852341889160746"><ele>154.66666666666666</ele><time>2026-04-06T08:43:31Z</time></trkpt><trkpt lat="41.09640889688193" lon="15.852144386698258"><ele>154.33333333333334</ele><time>2026-04-06T08:43:32Z</time></trkpt><trkpt lat="41.09624977940554" lon="15.851948063260952"><ele>154.0</ele><time>2026-04-06T08:43:33Z</time></trkpt><trkpt lat="41.096095146697095" lon="15.851746152312622"><ele>154.0</ele><time>2026-04-06T08:43:34Z</time></trkpt><trkpt lat="41.09593484468318" lon="15.851548737600336"><ele>154.0</ele><time>2026-04-06T08:43:35Z</time></trkpt><trkpt lat="41.09577225307927" lon="15.85135423461788"><ele>154.0</ele><time>2026-04-06T08:43:36Z</time></trkpt><trkpt lat="41.095613420999605" lon="15.851153357951196"><ele>154.66666666666669</ele><time>2026-04-06T08:43:37Z</time></trkpt><trkpt lat="41.095451691124694" lon="15.85096146732272"><ele>155.33333333333334</ele><time>2026-04-06T08:43:38Z</time></trkpt><trkpt lat="41.09529307589794" lon="15.85076614946824"><ele>156.0</ele><time>2026-04-06T08:43:39Z</time></trkpt><trkpt lat="41.0951338413791" lon="15.850570625188297"><ele>156.33333333333334</ele><time>2026-04-06T08:43:40Z</time></trkpt><trkpt lat="41.094975429387354" lon="15.850372767618525"><ele>156.66666666666669</ele><time>2026-04-06T08:43:41Z</time></trkpt><trkpt lat="41.09481481310418" lon="15.85017815474142"><ele>157.0</ele><time>2026-04-06T08:43:42Z</time></trkpt><trkpt lat="41.09465602168332" lon="15.84997966752994"><ele>157.66666666666669</ele><time>2026-04-06T08:43:43Z</time></trkpt><trkpt lat="41.094492785751456" lon="15.849789656205804"><ele>158.33333333333334</ele><time>2026-04-06T08:43:44Z</time></trkpt><trkpt lat="41.09433475513961" lon="15.849590396212642"><ele>159.0</ele><time>2026-04-06T08:43:45Z</time></trkpt><trkpt lat="41.094175538362016" lon="15.849395270303486"><ele>158.66666666666666</ele><time>2026-04-06T08:43:46Z</time></trkpt><trkpt lat="41.0940155319775" lon="15.849199120238886"><ele>158.33333333333331</ele><time>2026-04-06T08:43:47Z</time></trkpt><trkpt lat="41.093857818486505" lon="15.848997926211604"><ele>158.0</ele><time>2026-04-06T08:43:48Z</time></trkpt><trkpt lat="41.09369719726816" lon="15.848801924230239"><ele>158.0</ele><time>2026-04-06T08:43:49Z</time></trkpt><trkpt lat="41.09354012851943" lon="15.848596207112404"><ele>158.0</ele><time>2026-04-06T08:43:50Z</time></trkpt><trkpt lat="41.09337561250485" lon="15.848401373007077"><ele>158.0</ele><time>2026-04-06T08:43:51Z</time></trkpt><trkpt lat="41.09321145744573" lon="15.848202580586452"><ele>158.33333333333331</ele><time>2026-04-06T08:43:52Z</time></trkpt><trkpt lat="41.093050710795126" lon="15.848005902363502"><ele>158.66666666666666</ele><time>2026-04-06T08:43:53Z</time></trkpt><trkpt lat="41.092888368130986" lon="15.847808533472506"><ele>159.0</ele><time>2026-04-06T08:43:54Z</time></trkpt><trkpt lat="41.09272165998012" lon="15.847614470655682"><ele>159.0</ele><time>2026-04-06T08:43:55Z</time></trkpt><trkpt lat="41.092559185192854" lon="15.847418248042208"><ele>159.0</ele><time>2026-04-06T08:43:56Z</time></trkpt><trkpt lat="41.092402727784574" lon="15.84721378384275"><ele>159.0</ele><time>2026-04-06T08:43:57Z</time></trkpt><trkpt lat="41.092246059777075" lon="15.847012133920078"><ele>159.0</ele><time>2026-04-06T08:43:58Z</time></trkpt><trkpt lat="41.09207971351645" lon="15.846818891763302"><ele>159.0</ele><time>2026-04-06T08:43:59Z</time></trkpt><trkpt lat="41.091916547822066" lon="15.8466241120359"><ele>159.0</ele><time>2026-04-06T08:44:00Z</time></trkpt><trkpt lat="41.09175882400814" lon="15.846426081505234"><ele>159.33333333333334</ele><time>2026-04-06T08:44:01Z</time></trkpt><trkpt lat="41.09160163185905" lon="15.846227614362117"><ele>159.66666666666669</ele><time>2026-04-06T08:44:02Z</time></trkpt><trkpt lat="41.091439843851056" lon="15.84603071613369"><ele>160.0</ele><time>2026-04-06T08:44:03Z</time></trkpt><trkpt lat="41.09127970137512" lon="15.845830103901"><ele>160.0</ele><time>2026-04-06T08:44:04Z</time></trkpt><trkpt lat="41.09111553767896" lon="15.845634691506369"><ele>160.0</ele><time>2026-04-06T08:44:05Z</time></trkpt><trkpt lat="41.09095549406298" lon="15.84543338589825"><ele>160.0</ele><time>2026-04-06T08:44:06Z</time></trkpt><trkpt lat="41.090792657187045" lon="15.84523529870287"><ele>161.0</ele><time>2026-04-06T08:44:07Z</time></trkpt><trkpt lat="41.09063195616876" lon="15.845035523556277"><ele>162.0</ele><time>2026-04-06T08:44:08Z</time></trkpt><trkpt lat="41.090467584780086" lon="15.844839168500142"><ele>163.0</ele><time>2026-04-06T08:44:09Z</time></trkpt><trkpt lat="41.090303628138166" lon="15.844641577690526"><ele>163.0</ele><time>2026-04-06T08:44:10Z</time></trkpt><trkpt lat="41.09014966922208" lon="15.844432213768046"><ele>163.0</ele><time>2026-04-06T08:44:11Z</time></trkpt><trkpt lat="41.08997818863625" lon="15.844249033960393"><ele>163.0</ele><time>2026-04-06T08:44:12Z</time></trkpt><trkpt lat="41.08981664274318" lon="15.844049641337554"><ele>163.0</ele><time>2026-04-06T08:44:13Z</time></trkpt><trkpt lat="41.08966430989069" lon="15.843837225201511"><ele>163.0</ele><time>2026-04-06T08:44:14Z</time></trkpt><trkpt lat="41.089502560832784" lon="15.84363925336372"><ele>163.0</ele><time>2026-04-06T08:44:15Z</time></trkpt><trkpt lat="41.08933980955367" lon="15.843440054854787"><ele>162.66666666666669</ele><time>2026-04-06T08:44:16Z</time></trkpt><trkpt lat="41.08917787773543" lon="15.84324185932001"><ele>162.33333333333334</ele><time>2026-04-06T08:44:17Z</time></trkpt><trkpt lat="41.08901613477482" lon="15.843043894949519"><ele>162.0</ele><time>2026-04-06T08:44:18Z</time></trkpt><trkpt lat="41.08884420231449" lon="15.842857390924587"><ele>162.0</ele><time>2026-04-06T08:44:19Z</time></trkpt><trkpt lat="41.08868770080563" lon="15.842647740261208"><ele>162.0</ele><time>2026-04-06T08:44:20Z</time></trkpt><trkpt lat="41.088530414470846" lon="15.842440327987283"><ele>162.0</ele><time>2026-04-06T08:44:21Z</time></trkpt><trkpt lat="41.08836707795457" lon="15.842242556999471"><ele>161.66666666666666</ele><time>2026-04-06T08:44:22Z</time></trkpt><trkpt lat="41.08820490818767" lon="15.842043776692815"><ele>161.33333333333331</ele><time>2026-04-06T08:44:23Z</time></trkpt><trkpt lat="41.08803930113527" lon="15.841845166343063"><ele>161.0</ele><time>2026-04-06T08:44:24Z</time></trkpt><trkpt lat="41.087881992111555" lon="15.841647580221684"><ele>161.0</ele><time>2026-04-06T08:44:25Z</time></trkpt><trkpt lat="41.08771648056669" lon="15.841448555588864"><ele>161.0</ele><time>2026-04-06T08:44:26Z</time></trkpt><trkpt lat="41.08755645469341" lon="15.841249780301325"><ele>161.0</ele><time>2026-04-06T08:44:27Z</time></trkpt><trkpt lat="41.0873945681761" lon="15.841049092252428"><ele>161.66666666666666</ele><time>2026-04-06T08:44:28Z</time></trkpt><trkpt lat="41.08723530091051" lon="15.840850869321104"><ele>162.33333333333334</ele><time>2026-04-06T08:44:29Z</time></trkpt><trkpt lat="41.08707342790597" lon="15.840652483419271"><ele>163.0</ele><time>2026-04-06T08:44:30Z</time></trkpt><trkpt lat="41.086911724305246" lon="15.840454225922892"><ele>163.0</ele><time>2026-04-06T08:44:31Z</time></trkpt><trkpt lat="41.0867506720705" lon="15.840258502252608"><ele>163.0</ele><time>2026-04-06T08:44:32Z</time></trkpt><trkpt lat="41.08658622117372" lon="15.840061107365978"><ele>163.0</ele><time>2026-04-06T08:44:33Z</time></trkpt><trkpt lat="41.086426736232575" lon="15.839862916556324"><ele>162.66666666666669</ele><time>2026-04-06T08:44:34Z</time></trkpt><trkpt lat="41.08626777778589" lon="15.839668917863806"><ele>162.33333333333334</ele><time>2026-04-06T08:44:35Z</time></trkpt><trkpt lat="41.08610683320687" lon="15.839466164364284"><ele>162.0</ele><time>2026-04-06T08:44:36Z</time></trkpt><trkpt lat="41.08594691722478" lon="15.839271198401287"><ele>162.0</ele><time>2026-04-06T08:44:37Z</time></trkpt><trkpt lat="41.08578469225861" lon="15.839071579567834"><ele>162.0</ele><time>2026-04-06T08:44:38Z</time></trkpt><trkpt lat="41.08562498396339" lon="15.838873659443792"><ele>162.0</ele><time>2026-04-06T08:44:39Z</time></trkpt><trkpt lat="41.085461890940245" lon="15.838676870843996"><ele>162.0</ele><time>2026-04-06T08:44:40Z</time></trkpt><trkpt lat="41.085308963692455" lon="15.838480458352937"><ele>162.0</ele><time>2026-04-06T08:44:41Z</time></trkpt><trkpt lat="41.085147972492884" lon="15.838280980749047"><ele>162.0</ele><time>2026-04-06T08:44:42Z</time></trkpt><trkpt lat="41.084983249782134" lon="15.838080744522058"><ele>162.33333333333334</ele><time>2026-04-06T08:44:43Z</time></trkpt><trkpt lat="41.084823242418025" lon="15.837886399330408"><ele>162.66666666666669</ele><time>2026-04-06T08:44:44Z</time></trkpt><trkpt lat="41.08466060775029" lon="15.83768781556304"><ele>163.0</ele><time>2026-04-06T08:44:45Z</time></trkpt><trkpt lat="41.08450115608854" lon="15.837492685404198"><ele>163.0</ele><time>2026-04-06T08:44:46Z</time></trkpt><trkpt lat="41.08433626945934" lon="15.837290056607461"><ele>163.0</ele><time>2026-04-06T08:44:47Z</time></trkpt><trkpt lat="41.084175512317024" lon="15.837092223140194"><ele>163.0</ele><time>2026-04-06T08:44:48Z</time></trkpt><trkpt lat="41.08401446383462" lon="15.836893052348703"><ele>163.0</ele><time>2026-04-06T08:44:49Z</time></trkpt><trkpt lat="41.083851473242184" lon="15.836692537743348"><ele>163.0</ele><time>2026-04-06T08:44:50Z</time></trkpt><trkpt lat="41.08369155853257" lon="15.836495121896675"><ele>163.0</ele><time>2026-04-06T08:44:51Z</time></trkpt><trkpt lat="41.083531610085295" lon="15.836294326345266"><ele>163.0</ele><time>2026-04-06T08:44:52Z</time></trkpt><trkpt lat="41.08337045757" lon="15.836089976211742"><ele>163.0</ele><time>2026-04-06T08:44:53Z</time></trkpt><trkpt lat="41.08321396692609" lon="15.835896622374674"><ele>163.0</ele><time>2026-04-06T08:44:54Z</time></trkpt><trkpt lat="41.083048617757605" lon="15.835697116360873"><ele>163.0</ele><time>2026-04-06T08:44:55Z</time></trkpt><trkpt lat="41.082883396587015" lon="15.835502432567212"><ele>163.0</ele><time>2026-04-06T08:44:56Z</time></trkpt><trkpt lat="41.082721808929925" lon="15.83530460440741"><ele>163.0</ele><time>2026-04-06T08:44:57Z</time></trkpt><trkpt lat="41.08255821919007" lon="15.83509353270936"><ele>163.33333333333334</ele><time>2026-04-06T08:44:58Z</time></trkpt><trkpt lat="41.08239883473096" lon="15.834889663482876"><ele>163.66666666666666</ele><time>2026-04-06T08:44:59Z</time></trkpt><trkpt lat="41.08223786803725" lon="15.834690981937182"><ele>164.0</ele><time>2026-04-06T08:45:00Z</time></trkpt><trkpt lat="41.0820753736165" lon="15.834495963076009"><ele>163.5</ele><time>2026-04-06T08:45:01Z</time></trkpt><trkpt lat="41.081912837299626" lon="15.834290691507471"><ele>163.0</ele><time>2026-04-06T08:45:02Z</time></trkpt><trkpt lat="41.08174798582902" lon="15.83408398326303"><ele>163.33333333333334</ele><time>2026-04-06T08:45:03Z</time></trkpt><trkpt lat="41.081587283306746" lon="15.83389213467823"><ele>163.66666666666666</ele><time>2026-04-06T08:45:04Z</time></trkpt><trkpt lat="41.08142209514648" lon="15.83369221173369"><ele>164.0</ele><time>2026-04-06T08:45:05Z</time></trkpt><trkpt lat="41.08126173650072" lon="15.833491601051792"><ele>164.0</ele><time>2026-04-06T08:45:06Z</time></trkpt><trkpt lat="41.08109838187709" lon="15.833289860097238"><ele>164.0</ele><time>2026-04-06T08:45:07Z</time></trkpt><trkpt lat="41.08093172352995" lon="15.833088456018034"><ele>164.0</ele><time>2026-04-06T08:45:08Z</time></trkpt><trkpt lat="41.080771272014665" lon="15.83290220768318"><ele>164.33333333333331</ele><time>2026-04-06T08:45:09Z</time></trkpt><trkpt lat="41.080609178775894" lon="15.832704530421482"><ele>164.66666666666666</ele><time>2026-04-06T08:45:10Z</time></trkpt><trkpt lat="41.08044994344968" lon="15.832505272726175"><ele>165.0</ele><time>2026-04-06T08:45:11Z</time></trkpt><trkpt lat="41.0802914507293" lon="15.832303547188774"><ele>165.0</ele><time>2026-04-06T08:45:12Z</time></trkpt><trkpt lat="41.08013193957222" lon="15.832108041952521"><ele>165.0</ele><time>2026-04-06T08:45:13Z</time></trkpt><trkpt lat="41.07996925513198" lon="15.83191035882294"><ele>165.0</ele><time>2026-04-06T08:45:14Z</time></trkpt><trkpt lat="41.079812152422896" lon="15.831716102080925"><ele>165.0</ele><time>2026-04-06T08:45:15Z</time></trkpt><trkpt lat="41.07965204911397" lon="15.83152000562732"><ele>165.0</ele><time>2026-04-06T08:45:16Z</time></trkpt><trkpt lat="41.07949098874539" lon="15.831322684691193"><ele>165.0</ele><time>2026-04-06T08:45:17Z</time></trkpt><trkpt lat="41.07933341415965" lon="15.831124420199645"><ele>165.0</ele><time>2026-04-06T08:45:18Z</time></trkpt><trkpt lat="41.07917256957726" lon="15.830923692105076"><ele>165.0</ele><time>2026-04-06T08:45:19Z</time></trkpt><trkpt lat="41.07901288599184" lon="15.830725479491571"><ele>165.0</ele><time>2026-04-06T08:45:20Z</time></trkpt><trkpt lat="41.078850842871866" lon="15.830527710180634"><ele>165.33333333333334</ele><time>2026-04-06T08:45:21Z</time></trkpt><trkpt lat="41.07869008614797" lon="15.830331727483577"><ele>165.66666666666669</ele><time>2026-04-06T08:45:22Z</time></trkpt><trkpt lat="41.078533040856364" lon="15.83013669095501"><ele>166.0</ele><time>2026-04-06T08:45:23Z</time></trkpt><trkpt lat="41.07836691459914" lon="15.829936979854494"><ele>167.0</ele><time>2026-04-06T08:45:24Z</time></trkpt><trkpt lat="41.078206192458396" lon="15.829736779129943"><ele>168.0</ele><time>2026-04-06T08:45:25Z</time></trkpt><trkpt lat="41.07805007648717" lon="15.829535935250597"><ele>169.0</ele><time>2026-04-06T08:45:26Z</time></trkpt><trkpt lat="41.077884971657646" lon="15.829336345855259"><ele>168.66666666666669</ele><time>2026-04-06T08:45:27Z</time></trkpt><trkpt lat="41.07773279318748" lon="15.829141614995335"><ele>168.33333333333334</ele><time>2026-04-06T08:45:28Z</time></trkpt><trkpt lat="41.07756647966726" lon="15.82894289669908"><ele>168.0</ele><time>2026-04-06T08:45:29Z</time></trkpt><trkpt lat="41.07741617353593" lon="15.828743669644092"><ele>168.0</ele><time>2026-04-06T08:45:30Z</time></trkpt><trkpt lat="41.07724950259875" lon="15.828546943838163"><ele>168.0</ele><time>2026-04-06T08:45:31Z</time></trkpt><trkpt lat="41.07708594732784" lon="15.828353103691677"><ele>168.0</ele><time>2026-04-06T08:45:32Z</time></trkpt><trkpt lat="41.07692450290259" lon="15.828155252788816"><ele>168.0</ele><time>2026-04-06T08:45:33Z</time></trkpt><trkpt lat="41.07676236876025" lon="15.827956036490534"><ele>168.0</ele><time>2026-04-06T08:45:34Z</time></trkpt><trkpt lat="41.07660342671483" lon="15.827756267265524"><ele>168.0</ele><time>2026-04-06T08:45:35Z</time></trkpt><trkpt lat="41.076443970180655" lon="15.827559597938237"><ele>169.33333333333334</ele><time>2026-04-06T08:45:36Z</time></trkpt><trkpt lat="41.07628420257479" lon="15.827361941621465"><ele>170.66666666666669</ele><time>2026-04-06T08:45:37Z</time></trkpt><trkpt lat="41.07612939569507" lon="15.82716529602986"><ele>172.0</ele><time>2026-04-06T08:45:38Z</time></trkpt><trkpt lat="41.075962458152446" lon="15.826967571326774"><ele>172.0</ele><time>2026-04-06T08:45:39Z</time></trkpt><trkpt lat="41.07580044170088" lon="15.826771478747247"><ele>172.0</ele><time>2026-04-06T08:45:40Z</time></trkpt><trkpt lat="41.07563588858853" lon="15.826575904454565"><ele>172.0</ele><time>2026-04-06T08:45:41Z</time></trkpt><trkpt lat="41.07547918933564" lon="15.82638197957941"><ele>172.0</ele><time>2026-04-06T08:45:42Z</time></trkpt><trkpt lat="41.0753192984619" lon="15.8261841577211"><ele>172.0</ele><time>2026-04-06T08:45:43Z</time></trkpt><trkpt lat="41.075154599231176" lon="15.825987951072088"><ele>172.0</ele><time>2026-04-06T08:45:44Z</time></trkpt><trkpt lat="41.07499834686748" lon="15.825794344515815"><ele>172.66666666666669</ele><time>2026-04-06T08:45:45Z</time></trkpt><trkpt lat="41.07483653198049" lon="15.825593789995452"><ele>173.33333333333334</ele><time>2026-04-06T08:45:46Z</time></trkpt><trkpt lat="41.07468004701925" lon="15.82539367229051"><ele>174.0</ele><time>2026-04-06T08:45:47Z</time></trkpt><trkpt lat="41.07451832170278" lon="15.825194298358507"><ele>174.0</ele><time>2026-04-06T08:45:48Z</time></trkpt><trkpt lat="41.07435541846697" lon="15.824999781065072"><ele>174.0</ele><time>2026-04-06T08:45:49Z</time></trkpt><trkpt lat="41.07419281276499" lon="15.824806576530259"><ele>174.0</ele><time>2026-04-06T08:45:50Z</time></trkpt><trkpt lat="41.07402972460297" lon="15.824611652685551"><ele>174.66666666666666</ele><time>2026-04-06T08:45:51Z</time></trkpt><trkpt lat="41.0738680617434" lon="15.824413863875307"><ele>175.33333333333331</ele><time>2026-04-06T08:45:52Z</time></trkpt><trkpt lat="41.07371089508444" lon="15.82421481392212"><ele>176.0</ele><time>2026-04-06T08:45:53Z</time></trkpt><trkpt lat="41.07355627918944" lon="15.82401728915721"><ele>176.0</ele><time>2026-04-06T08:45:54Z</time></trkpt><trkpt lat="41.07341299665387" lon="15.823830832484985"><ele>176.0</ele><time>2026-04-06T08:45:55Z</time></trkpt><trkpt lat="41.073234796943545" lon="15.823625487617397"><ele>176.0</ele><time>2026-04-06T08:45:56Z</time></trkpt><trkpt lat="41.073076026676844" lon="15.823431778336257"><ele>177.0</ele><time>2026-04-06T08:45:57Z</time></trkpt><trkpt lat="41.0729154590567" lon="15.823237448353371"><ele>178.0</ele><time>2026-04-06T08:45:58Z</time></trkpt><trkpt lat="41.07275734428211" lon="15.823044633692792"><ele>179.0</ele><time>2026-04-06T08:45:59Z</time></trkpt><trkpt lat="41.07259901357428" lon="15.822850738963375"><ele>179.0</ele><time>2026-04-06T08:46:00Z</time></trkpt><trkpt lat="41.07244303648045" lon="15.822655983102706"><ele>179.0</ele><time>2026-04-06T08:46:01Z</time></trkpt><trkpt lat="41.072284417868104" lon="15.822459708907212"><ele>179.0</ele><time>2026-04-06T08:46:02Z</time></trkpt><trkpt lat="41.07212981211518" lon="15.82226568650588"><ele>179.33333333333331</ele><time>2026-04-06T08:46:03Z</time></trkpt><trkpt lat="41.07197130189197" lon="15.822068334283703"><ele>179.66666666666666</ele><time>2026-04-06T08:46:04Z</time></trkpt><trkpt lat="41.0718159169583" lon="15.821877065998487"><ele>180.0</ele><time>2026-04-06T08:46:05Z</time></trkpt><trkpt lat="41.07165704923377" lon="15.821684605371557"><ele>181.0</ele><time>2026-04-06T08:46:06Z</time></trkpt><trkpt lat="41.07149558785904" lon="15.821495723201407"><ele>182.0</ele><time>2026-04-06T08:46:07Z</time></trkpt><trkpt lat="41.07133588226617" lon="15.82130393888713"><ele>183.0</ele><time>2026-04-06T08:46:08Z</time></trkpt><trkpt lat="41.07117762640988" lon="15.821111595323144"><ele>183.33333333333334</ele><time>2026-04-06T08:46:09Z</time></trkpt><trkpt lat="41.07102291118606" lon="15.82091562691885"><ele>183.66666666666669</ele><time>2026-04-06T08:46:10Z</time></trkpt><trkpt lat="41.07086046140917" lon="15.820710981253153"><ele>184.0</ele><time>2026-04-06T08:46:11Z</time></trkpt><trkpt lat="41.07070872301111" lon="15.820515864466318"><ele>184.33333333333334</ele><time>2026-04-06T08:46:12Z</time></trkpt><trkpt lat="41.07054930524314" lon="15.820317837705623"><ele>184.66666666666666</ele><time>2026-04-06T08:46:13Z</time></trkpt><trkpt lat="41.07038880571024" lon="15.820122681062875"><ele>185.0</ele><time>2026-04-06T08:46:14Z</time></trkpt><trkpt lat="41.070231348891426" lon="15.819930781534886"><ele>185.0</ele><time>2026-04-06T08:46:15Z</time></trkpt><trkpt lat="41.070068011494314" lon="15.819744024478767"><ele>185.0</ele><time>2026-04-06T08:46:16Z</time></trkpt><trkpt lat="41.069896347623356" lon="15.81956636525295"><ele>185.0</ele><time>2026-04-06T08:46:17Z</time></trkpt><trkpt lat="41.069725784398955" lon="15.819399951474658"><ele>186.0</ele><time>2026-04-06T08:46:18Z</time></trkpt><trkpt lat="41.06954314664613" lon="15.819232609290298"><ele>187.0</ele><time>2026-04-06T08:46:19Z</time></trkpt><trkpt lat="41.069366713480974" lon="15.819080429394397"><ele>188.0</ele><time>2026-04-06T08:46:20Z</time></trkpt><trkpt lat="41.069183382879" lon="15.818932395096168"><ele>188.0</ele><time>2026-04-06T08:46:21Z</time></trkpt><trkpt lat="41.06900014445604" lon="15.818788881273422"><ele>188.0</ele><time>2026-04-06T08:46:22Z</time></trkpt><trkpt lat="41.068813024676" lon="15.81865595137206"><ele>188.0</ele><time>2026-04-06T08:46:23Z</time></trkpt><trkpt lat="41.06863378108734" lon="15.818541041940696"><ele>188.0</ele><time>2026-04-06T08:46:24Z</time></trkpt><trkpt lat="41.06845293381559" lon="15.818427731433827"><ele>188.0</ele><time>2026-04-06T08:46:25Z</time></trkpt><trkpt lat="41.06826909179309" lon="15.818313088996407"><ele>188.0</ele><time>2026-04-06T08:46:26Z</time></trkpt><trkpt lat="41.06809012776774" lon="15.81819481182208"><ele>188.0</ele><time>2026-04-06T08:46:27Z</time></trkpt><trkpt lat="41.06790461446461" lon="15.81806999080106"><ele>188.0</ele><time>2026-04-06T08:46:28Z</time></trkpt><trkpt lat="41.067721052754116" lon="15.817945911370845"><ele>188.0</ele><time>2026-04-06T08:46:29Z</time></trkpt><trkpt lat="41.06752952791886" lon="15.817822723969007"><ele>188.0</ele><time>2026-04-06T08:46:30Z</time></trkpt><trkpt lat="41.067350566112346" lon="15.817705308534316"><ele>188.0</ele><time>2026-04-06T08:46:31Z</time></trkpt><trkpt lat="41.06716589200867" lon="15.817581477045838"><ele>188.0</ele><time>2026-04-06T08:46:32Z</time></trkpt><trkpt lat="41.06698125654076" lon="15.81745287027319"><ele>188.0</ele><time>2026-04-06T08:46:33Z</time></trkpt><trkpt lat="41.06679320129879" lon="15.817327192914469"><ele>188.0</ele><time>2026-04-06T08:46:34Z</time></trkpt><trkpt lat="41.06661236329861" lon="15.817210806820677"><ele>188.0</ele><time>2026-04-06T08:46:35Z</time></trkpt><trkpt lat="41.06641977330512" lon="15.81709131228181"><ele>188.33333333333331</ele><time>2026-04-06T08:46:36Z</time></trkpt><trkpt lat="41.066244402061194" lon="15.816975745218604"><ele>188.66666666666666</ele><time>2026-04-06T08:46:37Z</time></trkpt><trkpt lat="41.06606250490899" lon="15.816861981528376"><ele>189.0</ele><time>2026-04-06T08:46:38Z</time></trkpt><trkpt lat="41.065878965618225" lon="15.816741315007384"><ele>190.0</ele><time>2026-04-06T08:46:39Z</time></trkpt><trkpt lat="41.06569975907267" lon="15.816620063195321"><ele>191.0</ele><time>2026-04-06T08:46:40Z</time></trkpt><trkpt lat="41.06552220791716" lon="15.81649627504556"><ele>192.0</ele><time>2026-04-06T08:46:41Z</time></trkpt><trkpt lat="41.06535425407883" lon="15.816387037764695"><ele>192.0</ele><time>2026-04-06T08:46:42Z</time></trkpt><trkpt lat="41.065187294723046" lon="15.8162767243142"><ele>192.0</ele><time>2026-04-06T08:46:43Z</time></trkpt><trkpt lat="41.065023234909496" lon="15.816150844629476"><ele>192.0</ele><time>2026-04-06T08:46:44Z</time></trkpt><trkpt lat="41.0648686319407" lon="15.815993729545463"><ele>193.33333333333331</ele><time>2026-04-06T08:46:45Z</time></trkpt><trkpt lat="41.06473934401231" lon="15.815810469587676"><ele>194.66666666666666</ele><time>2026-04-06T08:46:46Z</time></trkpt><trkpt lat="41.06461684902471" lon="15.815610627754573"><ele>196.0</ele><time>2026-04-06T08:46:47Z</time></trkpt><trkpt lat="41.06449644538499" lon="15.815411449070476"><ele>196.0</ele><time>2026-04-06T08:46:48Z</time></trkpt><trkpt lat="41.06437838583829" lon="15.815208809181858"><ele>196.0</ele><time>2026-04-06T08:46:49Z</time></trkpt><trkpt lat="41.06427240599222" lon="15.815000715633705"><ele>196.0</ele><time>2026-04-06T08:46:50Z</time></trkpt><trkpt lat="41.06417058619192" lon="15.814787704781319"><ele>198.0</ele><time>2026-04-06T08:46:51Z</time></trkpt><trkpt lat="41.06407340282446" lon="15.814568089758836"><ele>200.0</ele><time>2026-04-06T08:46:52Z</time></trkpt><trkpt lat="41.063982253534725" lon="15.814343924594043"><ele>202.0</ele><time>2026-04-06T08:46:53Z</time></trkpt><trkpt lat="41.06390552340789" lon="15.81410848925957"><ele>204.33333333333331</ele><time>2026-04-06T08:46:54Z</time></trkpt><trkpt lat="41.06385875824903" lon="15.81387013453918"><ele>206.66666666666669</ele><time>2026-04-06T08:46:55Z</time></trkpt><trkpt lat="41.0638402800463" lon="15.813635227810988"><ele>209.0</ele><time>2026-04-06T08:46:56Z</time></trkpt><trkpt lat="41.06384358850716" lon="15.813421840131724"><ele>211.33333333333334</ele><time>2026-04-06T08:46:57Z</time></trkpt><trkpt lat="41.06387317218353" lon="15.813219213114188"><ele>213.66666666666669</ele><time>2026-04-06T08:46:58Z</time></trkpt><trkpt lat="41.06392993918204" lon="15.813027074200146"><ele>216.0</ele><time>2026-04-06T08:46:59Z</time></trkpt><trkpt lat="41.06401077986223" lon="15.812849266781054"><ele>216.0</ele><time>2026-04-06T08:47:00Z</time></trkpt><trkpt lat="41.06408984516331" lon="15.812695225686667"><ele>216.0</ele><time>2026-04-06T08:47:01Z</time></trkpt><trkpt lat="41.0641288860484" lon="15.81250450440359"><ele>216.0</ele><time>2026-04-06T08:47:02Z</time></trkpt><trkpt lat="41.0641301812152" lon="15.812301432411301"><ele>216.0</ele><time>2026-04-06T08:47:03Z</time></trkpt><trkpt lat="41.064092224385206" lon="15.812103427423004"><ele>218.33333333333331</ele><time>2026-04-06T08:47:04Z</time></trkpt><trkpt lat="41.06402455197959" lon="15.811920259355281"><ele>220.66666666666666</ele><time>2026-04-06T08:47:05Z</time></trkpt><trkpt lat="41.06393580590855" lon="15.811732093439812"><ele>223.0</ele><time>2026-04-06T08:47:06Z</time></trkpt><trkpt lat="41.06384178014002" lon="15.811558311646166"><ele>223.66666666666666</ele><time>2026-04-06T08:47:07Z</time></trkpt><trkpt lat="41.06374946614768" lon="15.811369318211963"><ele>224.33333333333331</ele><time>2026-04-06T08:47:08Z</time></trkpt><trkpt lat="41.063667186707875" lon="15.811167299415345"><ele>225.0</ele><time>2026-04-06T08:47:09Z</time></trkpt><trkpt lat="41.063596209946205" lon="15.810962291342724"><ele>225.0</ele><time>2026-04-06T08:47:10Z</time></trkpt><trkpt lat="41.06352182626787" lon="15.810756936007856"><ele>225.0</ele><time>2026-04-06T08:47:11Z</time></trkpt><trkpt lat="41.06344059231376" lon="15.810542321327064"><ele>225.0</ele><time>2026-04-06T08:47:12Z</time></trkpt><trkpt lat="41.06336912308811" lon="15.8103282768301"><ele>225.0</ele><time>2026-04-06T08:47:13Z</time></trkpt><trkpt lat="41.06329678550368" lon="15.810099686765502"><ele>225.0</ele><time>2026-04-06T08:47:14Z</time></trkpt><trkpt lat="41.06324414156182" lon="15.80987711744465"><ele>225.0</ele><time>2026-04-06T08:47:15Z</time></trkpt><trkpt lat="41.063189846161926" lon="15.809647367708207"><ele>230.0</ele><time>2026-04-06T08:47:16Z</time></trkpt><trkpt lat="41.06312811373245" lon="15.809407386909085"><ele>235.0</ele><time>2026-04-06T08:47:17Z</time></trkpt><trkpt lat="41.06306251532301" lon="15.809186825026822"><ele>240.0</ele><time>2026-04-06T08:47:18Z</time></trkpt><trkpt lat="41.06299957724599" lon="15.808964927116692"><ele>240.0</ele><time>2026-04-06T08:47:19Z</time></trkpt><trkpt lat="41.06294015072873" lon="15.808757811747897"><ele>240.0</ele><time>2026-04-06T08:47:20Z</time></trkpt><trkpt lat="41.06288022487475" lon="15.808551803436332"><ele>240.0</ele><time>2026-04-06T08:47:21Z</time></trkpt><trkpt lat="41.06282870091049" lon="15.808359865498646"><ele>239.4</ele><time>2026-04-06T08:47:22Z</time></trkpt><trkpt lat="41.06278463755555" lon="15.80818936253999"><ele>238.8</ele><time>2026-04-06T08:47:23Z</time></trkpt><trkpt lat="41.06273905476248" lon="15.808048553030384"><ele>238.2</ele><time>2026-04-06T08:47:24Z</time></trkpt><trkpt lat="41.06267516551824" lon="15.807948242238375"><ele>237.6</ele><time>2026-04-06T08:47:25Z</time></trkpt><trkpt lat="41.06260214604077" lon="15.807908317158565"><ele>237.0</ele><time>2026-04-06T08:47:26Z</time></trkpt><trkpt lat="41.06252707847896" lon="15.807929363779383"><ele>242.2</ele><time>2026-04-06T08:47:27Z</time></trkpt><trkpt lat="41.06244798131523" lon="15.807999241728137"><ele>247.39999999999998</ele><time>2026-04-06T08:47:28Z</time></trkpt><trkpt lat="41.06240636168344" lon="15.808108670495079"><ele>252.60000000000002</ele><time>2026-04-06T08:47:29Z</time></trkpt><trkpt lat="41.06240037735652" lon="15.8082526257419"><ele>257.8</ele><time>2026-04-06T08:47:30Z</time></trkpt><trkpt lat="41.06241757524903" lon="15.80840931859553"><ele>263.0</ele><time>2026-04-06T08:47:31Z</time></trkpt><trkpt lat="41.06243768794632" lon="15.80858690914095"><ele>263.25</ele><time>2026-04-06T08:47:32Z</time></trkpt><trkpt lat="41.06244277995404" lon="15.808771385139726"><ele>263.5</ele><time>2026-04-06T08:47:33Z</time></trkpt><trkpt lat="41.0624381655935" lon="15.80896419620715"><ele>263.75</ele><time>2026-04-06T08:47:34Z</time></trkpt><trkpt lat="41.06244226601228" lon="15.809172314673933"><ele>264.0</ele><time>2026-04-06T08:47:35Z</time></trkpt><trkpt lat="41.062457017492655" lon="15.809375779490166"><ele>257.0</ele><time>2026-04-06T08:47:36Z</time></trkpt><trkpt lat="41.06247331331995" lon="15.809586349600833"><ele>250.0</ele><time>2026-04-06T08:47:37Z</time></trkpt><trkpt lat="41.06248217957706" lon="15.809806746418904"><ele>243.0</ele><time>2026-04-06T08:47:38Z</time></trkpt><trkpt lat="41.06248903804627" lon="15.810022938438788"><ele>243.66666666666669</ele><time>2026-04-06T08:47:39Z</time></trkpt><trkpt lat="41.06249891344056" lon="15.810251931350177"><ele>244.33333333333334</ele><time>2026-04-06T08:47:40Z</time></trkpt><trkpt lat="41.06250584983914" lon="15.810484732838422"><ele>245.0</ele><time>2026-04-06T08:47:41Z</time></trkpt><trkpt lat="41.06250448405926" lon="15.810713191260449"><ele>245.0</ele><time>2026-04-06T08:47:42Z</time></trkpt><trkpt lat="41.0624922117536" lon="15.810949340630719"><ele>245.0</ele><time>2026-04-06T08:47:43Z</time></trkpt><trkpt lat="41.062475527237574" lon="15.811186547534442"><ele>245.0</ele><time>2026-04-06T08:47:44Z</time></trkpt><trkpt lat="41.0624640624389" lon="15.811413117158885"><ele>245.25</ele><time>2026-04-06T08:47:45Z</time></trkpt><trkpt lat="41.0624603450913" lon="15.811622610662257"><ele>245.5</ele><time>2026-04-06T08:47:46Z</time></trkpt><trkpt lat="41.06245413074439" lon="15.81181743425979"><ele>245.75</ele><time>2026-04-06T08:47:47Z</time></trkpt><trkpt lat="41.062438820332616" lon="15.81198927647563"><ele>246.0</ele><time>2026-04-06T08:47:48Z</time></trkpt><trkpt lat="41.062409806120456" lon="15.812134806825153"><ele>247.25</ele><time>2026-04-06T08:47:49Z</time></trkpt><trkpt lat="41.06235754219486" lon="15.812272064856282"><ele>248.5</ele><time>2026-04-06T08:47:50Z</time></trkpt><trkpt lat="41.06227301946182" lon="15.812392784117735"><ele>249.75</ele><time>2026-04-06T08:47:51Z</time></trkpt><trkpt lat="41.06215728138971" lon="15.812494657724063"><ele>251.0</ele><time>2026-04-06T08:47:52Z</time></trkpt><trkpt lat="41.06203794019353" lon="15.812561827216308"><ele>251.0</ele><time>2026-04-06T08:47:53Z</time></trkpt><trkpt lat="41.06191689377251" lon="15.812593538119556"><ele>251.0</ele><time>2026-04-06T08:47:54Z</time></trkpt><trkpt lat="41.061782545033054" lon="15.812581567475048"><ele>251.0</ele><time>2026-04-06T08:47:55Z</time></trkpt><trkpt lat="41.06164122684927" lon="15.812539328303595"><ele>251.0</ele><time>2026-04-06T08:47:56Z</time></trkpt><trkpt lat="41.06150580174934" lon="15.812464894997936"><ele>247.66666666666669</ele><time>2026-04-06T08:47:57Z</time></trkpt><trkpt lat="41.06138069060175" lon="15.8123535714066"><ele>244.33333333333331</ele><time>2026-04-06T08:47:58Z</time></trkpt><trkpt lat="41.061263665111824" lon="15.812212663284129"><ele>241.0</ele><time>2026-04-06T08:47:59Z</time></trkpt><trkpt lat="41.06116913091694" lon="15.81205652626924"><ele>241.0</ele><time>2026-04-06T08:48:00Z</time></trkpt><trkpt lat="41.06109725603367" lon="15.811874533340909"><ele>241.0</ele><time>2026-04-06T08:48:01Z</time></trkpt><trkpt lat="41.061044371614436" lon="15.811673830838297"><ele>241.0</ele><time>2026-04-06T08:48:02Z</time></trkpt><trkpt lat="41.06099806594344" lon="15.81146671288149"><ele>246.33333333333331</ele><time>2026-04-06T08:48:03Z</time></trkpt><trkpt lat="41.0609519809997" lon="15.81125591216829"><ele>251.66666666666669</ele><time>2026-04-06T08:48:04Z</time></trkpt><trkpt lat="41.06090144088558" lon="15.81104537005579"><ele>257.0</ele><time>2026-04-06T08:48:05Z</time></trkpt><trkpt lat="41.06083402980833" lon="15.810831294418037"><ele>260.6666666666667</ele><time>2026-04-06T08:48:06Z</time></trkpt><trkpt lat="41.06074765955152" lon="15.810631787761858"><ele>264.3333333333333</ele><time>2026-04-06T08:48:07Z</time></trkpt><trkpt lat="41.06064235243257" lon="15.810448009565944"><ele>268.0</ele><time>2026-04-06T08:48:08Z</time></trkpt><trkpt lat="41.06052105217034" lon="15.810268096040268"><ele>269.75</ele><time>2026-04-06T08:48:09Z</time></trkpt><trkpt lat="41.06039363597693" lon="15.810107904576267"><ele>271.5</ele><time>2026-04-06T08:48:10Z</time></trkpt><trkpt lat="41.060280230255685" lon="15.810009843856994"><ele>273.25</ele><time>2026-04-06T08:48:11Z</time></trkpt><trkpt lat="41.06018591802343" lon="15.809959208891666"><ele>275.0</ele><time>2026-04-06T08:48:12Z</time></trkpt><trkpt lat="41.060093170813616" lon="15.809948900231795"><ele>275.0</ele><time>2026-04-06T08:48:13Z</time></trkpt><trkpt lat="41.05999533149652" lon="15.809988326908433"><ele>275.0</ele><time>2026-04-06T08:48:14Z</time></trkpt><trkpt lat="41.05991445740638" lon="15.810090423971115"><ele>275.0</ele><time>2026-04-06T08:48:15Z</time></trkpt><trkpt lat="41.05987916701273" lon="15.810212031499665"><ele>275.0</ele><time>2026-04-06T08:48:16Z</time></trkpt><trkpt lat="41.059866301079964" lon="15.81035578745131"><ele>275.0</ele><time>2026-04-06T08:48:17Z</time></trkpt><trkpt lat="41.05987066612802" lon="15.810511172943807"><ele>273.6</ele><time>2026-04-06T08:48:18Z</time></trkpt><trkpt lat="41.059859189721934" lon="15.81068900448146"><ele>272.2</ele><time>2026-04-06T08:48:19Z</time></trkpt><trkpt lat="41.05981584786901" lon="15.8107840727624"><ele>270.8</ele><time>2026-04-06T08:48:20Z</time></trkpt><trkpt lat="41.059735664139055" lon="15.810866925444747"><ele>269.4</ele><time>2026-04-06T08:48:21Z</time></trkpt><trkpt lat="41.059635112234545" lon="15.810908125694448"><ele>268.0</ele><time>2026-04-06T08:48:22Z</time></trkpt><trkpt lat="41.059537545016255" lon="15.810892759966471"><ele>268.0</ele><time>2026-04-06T08:48:23Z</time></trkpt><trkpt lat="41.059434202395444" lon="15.810835255591591"><ele>268.0</ele><time>2026-04-06T08:48:24Z</time></trkpt><trkpt lat="41.05933015099467" lon="15.81075088426586"><ele>268.0</ele><time>2026-04-06T08:48:25Z</time></trkpt><trkpt lat="41.05922461415922" lon="15.810645648090354"><ele>268.0</ele><time>2026-04-06T08:48:26Z</time></trkpt><trkpt lat="41.059119679172746" lon="15.810525229813795"><ele>267.3333333333333</ele><time>2026-04-06T08:48:27Z</time></trkpt><trkpt lat="41.0590127655079" lon="15.810393815575985"><ele>266.6666666666667</ele><time>2026-04-06T08:48:28Z</time></trkpt><trkpt lat="41.058907338665556" lon="15.810251959947141"><ele>266.0</ele><time>2026-04-06T08:48:29Z</time></trkpt><trkpt lat="41.05879897641717" lon="15.810094854884564"><ele>266.0</ele><time>2026-04-06T08:48:30Z</time></trkpt><trkpt lat="41.058695590310926" lon="15.80992901212058"><ele>266.0</ele><time>2026-04-06T08:48:31Z</time></trkpt><trkpt lat="41.05858942052492" lon="15.80975917549677"><ele>266.0</ele><time>2026-04-06T08:48:32Z</time></trkpt><trkpt lat="41.058478336540055" lon="15.809580298146843"><ele>266.0</ele><time>2026-04-06T08:48:33Z</time></trkpt><trkpt lat="41.05836227877645" lon="15.8093970432714"><ele>266.0</ele><time>2026-04-06T08:48:34Z</time></trkpt><trkpt lat="41.05826296830098" lon="15.809228239511649"><ele>266.0</ele><time>2026-04-06T08:48:35Z</time></trkpt><trkpt lat="41.05815001223079" lon="15.809050362385435"><ele>264.6666666666667</ele><time>2026-04-06T08:48:36Z</time></trkpt><trkpt lat="41.05803951589978" lon="15.808870337501634"><ele>263.3333333333333</ele><time>2026-04-06T08:48:37Z</time></trkpt><trkpt lat="41.05792687301066" lon="15.808686117374606"><ele>262.0</ele><time>2026-04-06T08:48:38Z</time></trkpt><trkpt lat="41.05782342246718" lon="15.808495627769343"><ele>267.3333333333333</ele><time>2026-04-06T08:48:39Z</time></trkpt><trkpt lat="41.05771908371442" lon="15.80830446672486"><ele>272.6666666666667</ele><time>2026-04-06T08:48:40Z</time></trkpt><trkpt lat="41.05760948382544" lon="15.808109667753808"><ele>278.0</ele><time>2026-04-06T08:48:41Z</time></trkpt><trkpt lat="41.05750018152876" lon="15.80791550137615"><ele>277.33333333333337</ele><time>2026-04-06T08:48:42Z</time></trkpt><trkpt lat="41.05739402851759" lon="15.807720227982395"><ele>276.6666666666667</ele><time>2026-04-06T08:48:43Z</time></trkpt><trkpt lat="41.057275243974146" lon="15.807533414306828"><ele>276.0</ele><time>2026-04-06T08:48:44Z</time></trkpt><trkpt lat="41.057164860367955" lon="15.807336594786708"><ele>276.0</ele><time>2026-04-06T08:48:45Z</time></trkpt><trkpt lat="41.05705431570504" lon="15.807144010311722"><ele>276.0</ele><time>2026-04-06T08:48:46Z</time></trkpt><trkpt lat="41.056940756998415" lon="15.806943601143109"><ele>276.0</ele><time>2026-04-06T08:48:47Z</time></trkpt><trkpt lat="41.05683969019908" lon="15.806757269216417"><ele>275.0</ele><time>2026-04-06T08:48:48Z</time></trkpt><trkpt lat="41.05674160987726" lon="15.806581331388697"><ele>274.0</ele><time>2026-04-06T08:48:49Z</time></trkpt><trkpt lat="41.05664189386068" lon="15.806407224430561"><ele>273.0</ele><time>2026-04-06T08:48:50Z</time></trkpt><trkpt lat="41.05655228790847" lon="15.806231752236595"><ele>273.0</ele><time>2026-04-06T08:48:51Z</time></trkpt><trkpt lat="41.05647746957622" lon="15.806041414532073"><ele>273.0</ele><time>2026-04-06T08:48:52Z</time></trkpt><trkpt lat="41.05641212926706" lon="15.805842775962805"><ele>273.0</ele><time>2026-04-06T08:48:53Z</time></trkpt><trkpt lat="41.05634018089542" lon="15.805632286798415"><ele>278.3333333333333</ele><time>2026-04-06T08:48:54Z</time></trkpt><trkpt lat="41.056276769094055" lon="15.805421941073849"><ele>283.66666666666663</ele><time>2026-04-06T08:48:55Z</time></trkpt><trkpt lat="41.0562171465633" lon="15.80519612329504"><ele>289.0</ele><time>2026-04-06T08:48:56Z</time></trkpt><trkpt lat="41.056156687768954" lon="15.804970997728635"><ele>292.0</ele><time>2026-04-06T08:48:57Z</time></trkpt><trkpt lat="41.0560878053671" lon="15.804739327932943"><ele>295.0</ele><time>2026-04-06T08:48:58Z</time></trkpt><trkpt lat="41.056018287464205" lon="15.804513482073329"><ele>298.0</ele><time>2026-04-06T08:48:59Z</time></trkpt><trkpt lat="41.055954850746566" lon="15.804276827339098"><ele>298.66666666666663</ele><time>2026-04-06T08:49:00Z</time></trkpt><trkpt lat="41.05588551230699" lon="15.804041301494713"><ele>299.3333333333333</ele><time>2026-04-06T08:49:01Z</time></trkpt><trkpt lat="41.055821782594954" lon="15.803820725712738"><ele>300.0</ele><time>2026-04-06T08:49:02Z</time></trkpt><trkpt lat="41.05576007546035" lon="15.803613778236887"><ele>299.3333333333333</ele><time>2026-04-06T08:49:03Z</time></trkpt><trkpt lat="41.055697461851175" lon="15.803396836480271"><ele>298.66666666666663</ele><time>2026-04-06T08:49:04Z</time></trkpt><trkpt lat="41.05563478188942" lon="15.803176931520786"><ele>298.0</ele><time>2026-04-06T08:49:05Z</time></trkpt><trkpt lat="41.05557513189161" lon="15.80296285724922"><ele>298.0</ele><time>2026-04-06T08:49:06Z</time></trkpt><trkpt lat="41.05552082504286" lon="15.802764677366936"><ele>298.0</ele><time>2026-04-06T08:49:07Z</time></trkpt><trkpt lat="41.055465005607296" lon="15.802566647519146"><ele>298.0</ele><time>2026-04-06T08:49:08Z</time></trkpt><trkpt lat="41.05541352956846" lon="15.80238435266662"><ele>298.0</ele><time>2026-04-06T08:49:09Z</time></trkpt><trkpt lat="41.05536118420265" lon="15.802209192337408"><ele>298.0</ele><time>2026-04-06T08:49:10Z</time></trkpt><trkpt lat="41.05530938391604" lon="15.802034623257093"><ele>298.0</ele><time>2026-04-06T08:49:11Z</time></trkpt><trkpt lat="41.055259679216725" lon="15.801862338749006"><ele>298.0</ele><time>2026-04-06T08:49:12Z</time></trkpt><trkpt lat="41.055208671453954" lon="15.801688904523044"><ele>298.0</ele><time>2026-04-06T08:49:13Z</time></trkpt><trkpt lat="41.05515764164357" lon="15.801508931849224"><ele>298.0</ele><time>2026-04-06T08:49:14Z</time></trkpt><trkpt lat="41.05510703178779" lon="15.801333234966798"><ele>298.0</ele><time>2026-04-06T08:49:15Z</time></trkpt><trkpt lat="41.05505401758771" lon="15.801158415859934"><ele>298.0</ele><time>2026-04-06T08:49:16Z</time></trkpt><trkpt lat="41.05500195982389" lon="15.800989973097561"><ele>298.25</ele><time>2026-04-06T08:49:17Z</time></trkpt><trkpt lat="41.054955254495255" lon="15.800823728264026"><ele>298.5</ele><time>2026-04-06T08:49:18Z</time></trkpt><trkpt lat="41.05490937965492" lon="15.800665540830833"><ele>298.75</ele><time>2026-04-06T08:49:19Z</time></trkpt><trkpt lat="41.054870919952705" lon="15.800523995521129"><ele>299.0</ele><time>2026-04-06T08:49:20Z</time></trkpt><trkpt lat="41.05483386652505" lon="15.800380424805237"><ele>299.59999999999997</ele><time>2026-04-06T08:49:21Z</time></trkpt><trkpt lat="41.0547917936638" lon="15.800245033442227"><ele>300.2</ele><time>2026-04-06T08:49:22Z</time></trkpt><trkpt lat="41.05475595822271" lon="15.800119303255336"><ele>300.79999999999995</ele><time>2026-04-06T08:49:23Z</time></trkpt><trkpt lat="41.054723309549786" lon="15.800009459404484"><ele>301.4</ele><time>2026-04-06T08:49:24Z</time></trkpt><trkpt lat="41.05469556990078" lon="15.799906977334608"><ele>302.0</ele><time>2026-04-06T08:49:25Z</time></trkpt><trkpt lat="41.05467012008761" lon="15.799815323568893"><ele>302.6</ele><time>2026-04-06T08:49:26Z</time></trkpt><trkpt lat="41.0546214453882" lon="15.799669915092435"><ele>303.2</ele><time>2026-04-06T08:49:28Z</time></trkpt><trkpt lat="41.05458119846318" lon="15.799595101013972"><ele>303.8</ele><time>2026-04-06T08:49:30Z</time></trkpt><trkpt lat="41.05455325977785" lon="15.799505829406566"><ele>304.4</ele><time>2026-04-06T08:49:41Z</time></trkpt><trkpt lat="41.054498371586604" lon="15.79938554379235"><ele>305.0</ele><time>2026-04-06T08:49:43Z</time></trkpt><trkpt lat="41.054440053848616" lon="15.799286118887023"><ele>305.0</ele><time>2026-04-06T08:49:45Z</time></trkpt><trkpt lat="41.05438813351356" lon="15.799186156273192"><ele>305.0</ele><time>2026-04-06T08:49:47Z</time></trkpt><trkpt lat="41.054322960963184" lon="15.799065480899724"><ele>305.0</ele><time>2026-04-06T08:49:49Z</time></trkpt><trkpt lat="41.0542419356989" lon="15.798940663358596"><ele>305.0</ele><time>2026-04-06T08:49:51Z</time></trkpt><trkpt lat="41.054196600123426" lon="15.798871819793911"><ele>305.0</ele><time>2026-04-06T08:49:52Z</time></trkpt><trkpt lat="41.0541487463959" lon="15.798797456243733"><ele>305.0</ele><time>2026-04-06T08:49:53Z</time></trkpt><trkpt lat="41.05410188127328" lon="15.798706492063031"><ele>305.0</ele><time>2026-04-06T08:49:54Z</time></trkpt><trkpt lat="41.05406270160713" lon="15.798629938639198"><ele>305.0</ele><time>2026-04-06T08:49:55Z</time></trkpt><trkpt lat="41.05401640351521" lon="15.798571913835643"><ele>305.0</ele><time>2026-04-06T08:49:56Z</time></trkpt><trkpt lat="41.05395411876119" lon="15.798436194702088"><ele>305.0</ele><time>2026-04-06T08:49:58Z</time></trkpt><trkpt lat="41.05388427578591" lon="15.798297850277821"><ele>305.5</ele><time>2026-04-06T08:50:00Z</time></trkpt><trkpt lat="41.05383872013502" lon="15.798219889436455"><ele>306.0</ele><time>2026-04-06T08:50:01Z</time></trkpt><trkpt lat="41.05378956760214" lon="15.798125557962134"><ele>306.5</ele><time>2026-04-06T08:50:02Z</time></trkpt><trkpt lat="41.05374126055385" lon="15.79804163936113"><ele>307.0</ele><time>2026-04-06T08:50:03Z</time></trkpt><trkpt lat="41.053703432658914" lon="15.797965655420473"><ele>307.5</ele><time>2026-04-06T08:50:04Z</time></trkpt><trkpt lat="41.05366625466474" lon="15.797890130754082"><ele>308.0</ele><time>2026-04-06T08:50:05Z</time></trkpt><trkpt lat="41.0536221032751" lon="15.797810126443764"><ele>308.0</ele><time>2026-04-06T08:50:06Z</time></trkpt><trkpt lat="41.05357733986818" lon="15.797722611591688"><ele>308.0</ele><time>2026-04-06T08:50:07Z</time></trkpt><trkpt lat="41.05352804490083" lon="15.797632261215172"><ele>308.0</ele><time>2026-04-06T08:50:08Z</time></trkpt><trkpt lat="41.0534819043772" lon="15.79754098462056"><ele>308.0</ele><time>2026-04-06T08:50:09Z</time></trkpt><trkpt lat="41.053442192738196" lon="15.797466344132793"><ele>308.0</ele><time>2026-04-06T08:50:10Z</time></trkpt><trkpt lat="41.05336680849461" lon="15.797333728867807"><ele>308.0</ele><time>2026-04-06T08:50:12Z</time></trkpt><trkpt lat="41.05329837284098" lon="15.7972008704379"><ele>308.33333333333337</ele><time>2026-04-06T08:50:14Z</time></trkpt><trkpt lat="41.05325233669825" lon="15.797122365560758"><ele>308.6666666666667</ele><time>2026-04-06T08:50:15Z</time></trkpt><trkpt lat="41.053200580162155" lon="15.797024441699316"><ele>309.0</ele><time>2026-04-06T08:50:16Z</time></trkpt><trkpt lat="41.0531440023498" lon="15.796922240008655"><ele>309.3333333333333</ele><time>2026-04-06T08:50:17Z</time></trkpt><trkpt lat="41.053087467395805" lon="15.796821868835554"><ele>309.66666666666663</ele><time>2026-04-06T08:50:18Z</time></trkpt><trkpt lat="41.053039143740186" lon="15.796736513594116"><ele>310.0</ele><time>2026-04-06T08:50:19Z</time></trkpt><trkpt lat="41.052974745970225" lon="15.7966054982084"><ele>310.0</ele><time>2026-04-06T08:50:21Z</time></trkpt><trkpt lat="41.052908757475706" lon="15.796473751677565"><ele>310.0</ele><time>2026-04-06T08:50:23Z</time></trkpt><trkpt lat="41.052866612110506" lon="15.796398677191005"><ele>310.0</ele><time>2026-04-06T08:50:24Z</time></trkpt><trkpt lat="41.052821890177356" lon="15.79631678066941"><ele>310.0</ele><time>2026-04-06T08:50:25Z</time></trkpt><trkpt lat="41.05277321367004" lon="15.796221384638406"><ele>310.0</ele><time>2026-04-06T08:50:26Z</time></trkpt><trkpt lat="41.052719864134225" lon="15.796118008932906"><ele>310.0</ele><time>2026-04-06T08:50:27Z</time></trkpt><trkpt lat="41.05266207323515" lon="15.79600837855274"><ele>310.16666666666663</ele><time>2026-04-06T08:50:28Z</time></trkpt><trkpt lat="41.05261014629398" lon="15.795907612230492"><ele>310.3333333333333</ele><time>2026-04-06T08:50:29Z</time></trkpt><trkpt lat="41.052553787425325" lon="15.795803459819814"><ele>310.5</ele><time>2026-04-06T08:50:30Z</time></trkpt><trkpt lat="41.052506073965155" lon="15.795714285325571"><ele>310.6666666666667</ele><time>2026-04-06T08:50:31Z</time></trkpt><trkpt lat="41.052458049992985" lon="15.79563062153217"><ele>310.83333333333337</ele><time>2026-04-06T08:50:32Z</time></trkpt><trkpt lat="41.052411595720685" lon="15.795540035503366"><ele>311.0</ele><time>2026-04-06T08:50:33Z</time></trkpt><trkpt lat="41.05236696629497" lon="15.795451654739418"><ele>311.0</ele><time>2026-04-06T08:50:34Z</time></trkpt><trkpt lat="41.052321229103484" lon="15.795360294254511"><ele>311.0</ele><time>2026-04-06T08:50:35Z</time></trkpt><trkpt lat="41.05227021740006" lon="15.795271607674549"><ele>311.0</ele><time>2026-04-06T08:50:36Z</time></trkpt><trkpt lat="41.05222655347349" lon="15.79518428168753"><ele>311.0</ele><time>2026-04-06T08:50:37Z</time></trkpt><trkpt lat="41.05216732368362" lon="15.795087058873928"><ele>311.0</ele><time>2026-04-06T08:50:38Z</time></trkpt><trkpt lat="41.052122077743384" lon="15.794997440641279"><ele>311.0</ele><time>2026-04-06T08:50:39Z</time></trkpt><trkpt lat="41.052079158085576" lon="15.79491497112546"><ele>311.1666666666667</ele><time>2026-04-06T08:50:40Z</time></trkpt><trkpt lat="41.052035050183726" lon="15.794834542967237"><ele>311.33333333333337</ele><time>2026-04-06T08:50:41Z</time></trkpt><trkpt lat="41.05198991733318" lon="15.794759106427984"><ele>311.5</ele><time>2026-04-06T08:50:42Z</time></trkpt><trkpt lat="41.05194909371671" lon="15.794676225926734"><ele>311.6666666666667</ele><time>2026-04-06T08:50:43Z</time></trkpt><trkpt lat="41.05189945817918" lon="15.794588324294542"><ele>311.8333333333333</ele><time>2026-04-06T08:50:44Z</time></trkpt><trkpt lat="41.051854513050124" lon="15.794503050129245"><ele>312.0</ele><time>2026-04-06T08:50:45Z</time></trkpt><trkpt lat="41.05180811649494" lon="15.794413453622186"><ele>312.0</ele><time>2026-04-06T08:50:46Z</time></trkpt><trkpt lat="41.05175980151945" lon="15.794339800009723"><ele>312.0</ele><time>2026-04-06T08:50:47Z</time></trkpt><trkpt lat="41.05169053816856" lon="15.794198129897419"><ele>312.0</ele><time>2026-04-06T08:50:49Z</time></trkpt><trkpt lat="41.051653297653246" lon="15.794122941019376"><ele>312.0</ele><time>2026-04-06T08:50:50Z</time></trkpt><trkpt lat="41.051609914435375" lon="15.79404241714174"><ele>312.0</ele><time>2026-04-06T08:50:51Z</time></trkpt><trkpt lat="41.05156754592822" lon="15.793952183886448"><ele>312.0</ele><time>2026-04-06T08:50:52Z</time></trkpt><trkpt lat="41.05151989407264" lon="15.793873917187005"><ele>312.6666666666667</ele><time>2026-04-06T08:50:53Z</time></trkpt><trkpt lat="41.05147235834293" lon="15.79379849695748"><ele>313.3333333333333</ele><time>2026-04-06T08:50:54Z</time></trkpt><trkpt lat="41.05142643266444" lon="15.793726631204445"><ele>314.0</ele><time>2026-04-06T08:50:55Z</time></trkpt><trkpt lat="41.05137939035807" lon="15.7936487951501"><ele>314.66666666666663</ele><time>2026-04-06T08:50:56Z</time></trkpt><trkpt lat="41.0513276980201" lon="15.793563977256056"><ele>315.3333333333333</ele><time>2026-04-06T08:50:57Z</time></trkpt><trkpt lat="41.05127753523445" lon="15.793476758435228"><ele>316.0</ele><time>2026-04-06T08:50:58Z</time></trkpt><trkpt lat="41.05122125988071" lon="15.793378399338563"><ele>316.0</ele><time>2026-04-06T08:50:59Z</time></trkpt><trkpt lat="41.05116194316284" lon="15.793281725537998"><ele>316.0</ele><time>2026-04-06T08:51:00Z</time></trkpt><trkpt lat="41.05110807730397" lon="15.793199017372094"><ele>316.0</ele><time>2026-04-06T08:51:01Z</time></trkpt><trkpt lat="41.05105816183147" lon="15.793118018374734"><ele>316.0</ele><time>2026-04-06T08:51:02Z</time></trkpt><trkpt lat="41.05100727570888" lon="15.793037410980903"><ele>316.0</ele><time>2026-04-06T08:51:03Z</time></trkpt><trkpt lat="41.050963291611545" lon="15.792962630382164"><ele>316.0</ele><time>2026-04-06T08:51:04Z</time></trkpt><trkpt lat="41.05091180222394" lon="15.792872875899059"><ele>316.0</ele><time>2026-04-06T08:51:05Z</time></trkpt><trkpt lat="41.050857170993595" lon="15.792791800994777"><ele>316.0</ele><time>2026-04-06T08:51:06Z</time></trkpt><trkpt lat="41.0507882999809" lon="15.792688382197692"><ele>316.0</ele><time>2026-04-06T08:51:07Z</time></trkpt><trkpt lat="41.05073024121983" lon="15.792593310508316"><ele>316.0</ele><time>2026-04-06T08:51:08Z</time></trkpt><trkpt lat="41.05067498598229" lon="15.792504513469693"><ele>316.0</ele><time>2026-04-06T08:51:09Z</time></trkpt><trkpt lat="41.05062095928478" lon="15.792418735381249"><ele>316.0</ele><time>2026-04-06T08:51:10Z</time></trkpt><trkpt lat="41.0505698306496" lon="15.792336887322042"><ele>316.66666666666663</ele><time>2026-04-06T08:51:11Z</time></trkpt><trkpt lat="41.0505178966234" lon="15.792251757953036"><ele>317.3333333333333</ele><time>2026-04-06T08:51:12Z</time></trkpt><trkpt lat="41.05047456610754" lon="15.792173017437406"><ele>318.0</ele><time>2026-04-06T08:51:13Z</time></trkpt><trkpt lat="41.050429557365" lon="15.792090360862902"><ele>318.6666666666667</ele><time>2026-04-06T08:51:14Z</time></trkpt><trkpt lat="41.05038441513432" lon="15.792016238206203"><ele>319.33333333333337</ele><time>2026-04-06T08:51:15Z</time></trkpt><trkpt lat="41.050337169835046" lon="15.79193829785376"><ele>320.0</ele><time>2026-04-06T08:51:16Z</time></trkpt><trkpt lat="41.050288044180135" lon="15.791864920781196"><ele>319.4</ele><time>2026-04-06T08:51:17Z</time></trkpt><trkpt lat="41.05023962003568" lon="15.7917824320363"><ele>318.8</ele><time>2026-04-06T08:51:18Z</time></trkpt><trkpt lat="41.05018145455932" lon="15.791689220526704"><ele>318.2</ele><time>2026-04-06T08:51:19Z</time></trkpt><trkpt lat="41.05011958527923" lon="15.791603474916558"><ele>317.6</ele><time>2026-04-06T08:51:20Z</time></trkpt><trkpt lat="41.05006709235087" lon="15.791487708563633"><ele>317.0</ele><time>2026-04-06T08:51:21Z</time></trkpt><trkpt lat="41.050007593717076" lon="15.791391285056394"><ele>317.33333333333337</ele><time>2026-04-06T08:51:22Z</time></trkpt><trkpt lat="41.049956284223235" lon="15.791308111440745"><ele>317.6666666666667</ele><time>2026-04-06T08:51:23Z</time></trkpt><trkpt lat="41.04989899663408" lon="15.791215247135964"><ele>318.0</ele><time>2026-04-06T08:51:24Z</time></trkpt><trkpt lat="41.04983603184799" lon="15.791147219888332"><ele>318.3333333333333</ele><time>2026-04-06T08:51:25Z</time></trkpt><trkpt lat="41.04978823070972" lon="15.791069184076752"><ele>318.66666666666663</ele><time>2026-04-06T08:51:26Z</time></trkpt><trkpt lat="41.049742527820435" lon="15.790993604862258"><ele>319.0</ele><time>2026-04-06T08:51:27Z</time></trkpt><trkpt lat="41.049688170134345" lon="15.790903583292678"><ele>319.0</ele><time>2026-04-06T08:51:28Z</time></trkpt><trkpt lat="41.04963663133536" lon="15.790815459117814"><ele>319.0</ele><time>2026-04-06T08:51:29Z</time></trkpt><trkpt lat="41.04958715423262" lon="15.79073291288974"><ele>319.0</ele><time>2026-04-06T08:51:30Z</time></trkpt><trkpt lat="41.04954100019067" lon="15.790652502514803"><ele>319.0</ele><time>2026-04-06T08:51:31Z</time></trkpt><trkpt lat="41.04948975834955" lon="15.79058007410092"><ele>319.0</ele><time>2026-04-06T08:51:32Z</time></trkpt><trkpt lat="41.04944179063658" lon="15.790501979819528"><ele>319.0</ele><time>2026-04-06T08:51:33Z</time></trkpt><trkpt lat="41.04939135106614" lon="15.790413481013362"><ele>319.0</ele><time>2026-04-06T08:51:34Z</time></trkpt><trkpt lat="41.0493463191173" lon="15.790343831187181"><ele>319.0</ele><time>2026-04-06T08:51:35Z</time></trkpt><trkpt lat="41.04930131536053" lon="15.790265746978433"><ele>319.0</ele><time>2026-04-06T08:51:36Z</time></trkpt><trkpt lat="41.04926067606094" lon="15.790192055107871"><ele>319.0</ele><time>2026-04-06T08:51:37Z</time></trkpt><trkpt lat="41.04922801816333" lon="15.79012057129407"><ele>319.0</ele><time>2026-04-06T08:51:38Z</time></trkpt><trkpt lat="41.04917978887715" lon="15.790049318049912"><ele>319.0</ele><time>2026-04-06T08:51:39Z</time></trkpt><trkpt lat="41.04913463447749" lon="15.789973697543502"><ele>319.0</ele><time>2026-04-06T08:51:40Z</time></trkpt><trkpt lat="41.049085236974534" lon="15.789893405629176"><ele>319.4</ele><time>2026-04-06T08:51:41Z</time></trkpt><trkpt lat="41.049035498532916" lon="15.789809383468855"><ele>319.79999999999995</ele><time>2026-04-06T08:51:42Z</time></trkpt><trkpt lat="41.04898383214288" lon="15.789725454736633"><ele>320.20000000000005</ele><time>2026-04-06T08:51:43Z</time></trkpt><trkpt lat="41.04893272727899" lon="15.789650712477878"><ele>320.6</ele><time>2026-04-06T08:51:44Z</time></trkpt><trkpt lat="41.048863180915866" lon="15.78953821197702"><ele>321.0</ele><time>2026-04-06T08:51:46Z</time></trkpt><trkpt lat="41.04878815835499" lon="15.789427699642882"><ele>320.99999999999994</ele><time>2026-04-06T08:51:48Z</time></trkpt><trkpt lat="41.048742796748414" lon="15.789359901258921"><ele>321.0</ele><time>2026-04-06T08:51:49Z</time></trkpt><trkpt lat="41.04869678002826" lon="15.789287347720183"><ele>321.0</ele><time>2026-04-06T08:51:50Z</time></trkpt><trkpt lat="41.04864476394608" lon="15.789207911154053"><ele>321.0</ele><time>2026-04-06T08:51:51Z</time></trkpt><trkpt lat="41.0485902359919" lon="15.78912560040253"><ele>321.0</ele><time>2026-04-06T08:51:52Z</time></trkpt><trkpt lat="41.04854062460315" lon="15.789053767796497"><ele>320.99999999999994</ele><time>2026-04-06T08:51:53Z</time></trkpt><trkpt lat="41.048489826306295" lon="15.78898408301251"><ele>321.0</ele><time>2026-04-06T08:51:54Z</time></trkpt><trkpt lat="41.04843937661436" lon="15.788908717253996"><ele>320.6666666666667</ele><time>2026-04-06T08:51:55Z</time></trkpt><trkpt lat="41.04839894902959" lon="15.788832799283128"><ele>320.3333333333333</ele><time>2026-04-06T08:51:56Z</time></trkpt><trkpt lat="41.048333340279996" lon="15.788706426083118"><ele>320.0</ele><time>2026-04-06T08:51:58Z</time></trkpt><trkpt lat="41.04828347897337" lon="15.788638083383228"><ele>319.66666666666663</ele><time>2026-04-06T08:51:59Z</time></trkpt><trkpt lat="41.04820375543088" lon="15.78858020138717"><ele>319.3333333333333</ele><time>2026-04-06T08:52:00Z</time></trkpt><trkpt lat="41.0481356700874" lon="15.78848279559826"><ele>319.0</ele><time>2026-04-06T08:52:01Z</time></trkpt><trkpt lat="41.04805053036695" lon="15.788359780654027"><ele>319.0</ele><time>2026-04-06T08:52:02Z</time></trkpt><trkpt lat="41.04795978394673" lon="15.788230125066303"><ele>319.0</ele><time>2026-04-06T08:52:03Z</time></trkpt><trkpt lat="41.04785037388741" lon="15.788098584253506"><ele>319.0</ele><time>2026-04-06T08:52:04Z</time></trkpt><trkpt lat="41.0477583874052" lon="15.787953171916806"><ele>319.0</ele><time>2026-04-06T08:52:05Z</time></trkpt><trkpt lat="41.047670783428956" lon="15.78782492867789"><ele>319.0</ele><time>2026-04-06T08:52:06Z</time></trkpt><trkpt lat="41.04756986525867" lon="15.787692965650962"><ele>319.0</ele><time>2026-04-06T08:52:07Z</time></trkpt><trkpt lat="41.04747585591755" lon="15.787573513362295"><ele>319.0</ele><time>2026-04-06T08:52:08Z</time></trkpt><trkpt lat="41.04739577322238" lon="15.787465324411288"><ele>319.0</ele><time>2026-04-06T08:52:09Z</time></trkpt><trkpt lat="41.047322758037446" lon="15.787364975507344"><ele>319.0</ele><time>2026-04-06T08:52:10Z</time></trkpt><trkpt lat="41.04725295607243" lon="15.787270998945317"><ele>319.0</ele><time>2026-04-06T08:52:11Z</time></trkpt><trkpt lat="41.04719094352777" lon="15.787188735111409"><ele>319.0</ele><time>2026-04-06T08:52:12Z</time></trkpt><trkpt lat="41.04713155374" lon="15.78711434914885"><ele>319.0</ele><time>2026-04-06T08:52:13Z</time></trkpt><trkpt lat="41.04707771894527" lon="15.787045221356264"><ele>319.0</ele><time>2026-04-06T08:52:14Z</time></trkpt><trkpt lat="41.047030286594435" lon="15.786980869461305"><ele>319.0</ele><time>2026-04-06T08:52:15Z</time></trkpt><trkpt lat="41.04694934935621" lon="15.786880045950696"><ele>318.8</ele><time>2026-04-06T08:52:17Z</time></trkpt><trkpt lat="41.04688704001419" lon="15.78680377854425"><ele>318.59999999999997</ele><time>2026-04-06T08:52:19Z</time></trkpt><trkpt lat="41.04683893253975" lon="15.786746282824645"><ele>318.4</ele><time>2026-04-06T08:52:21Z</time></trkpt><trkpt lat="41.04678953706629" lon="15.786677427348593"><ele>318.2</ele><time>2026-04-06T08:52:33Z</time></trkpt><trkpt lat="41.046679867009225" lon="15.786561603120667"><ele>318.0</ele><time>2026-04-06T08:52:35Z</time></trkpt><trkpt lat="41.046601749825754" lon="15.786473807118098"><ele>319.75</ele><time>2026-04-06T08:52:36Z</time></trkpt><trkpt lat="41.046514332867396" lon="15.786371968722625"><ele>321.5</ele><time>2026-04-06T08:52:37Z</time></trkpt><trkpt lat="41.04644030417265" lon="15.78628184589316"><ele>323.25</ele><time>2026-04-06T08:52:38Z</time></trkpt><trkpt lat="41.04635473962749" lon="15.78617081051294"><ele>325.0</ele><time>2026-04-06T08:52:39Z</time></trkpt><trkpt lat="41.04625355295049" lon="15.786055854747344"><ele>324.25</ele><time>2026-04-06T08:52:40Z</time></trkpt><trkpt lat="41.046156888444266" lon="15.785943391961625"><ele>323.5</ele><time>2026-04-06T08:52:41Z</time></trkpt><trkpt lat="41.04605501959026" lon="15.785829767804417"><ele>322.75</ele><time>2026-04-06T08:52:42Z</time></trkpt><trkpt lat="41.04595547429382" lon="15.785717962355704"><ele>322.0</ele><time>2026-04-06T08:52:43Z</time></trkpt><trkpt lat="41.045854225357445" lon="15.78559748290674"><ele>323.0</ele><time>2026-04-06T08:52:44Z</time></trkpt><trkpt lat="41.045750206864255" lon="15.78548094845069"><ele>324.0</ele><time>2026-04-06T08:52:45Z</time></trkpt><trkpt lat="41.045655073468716" lon="15.785378749956866"><ele>325.0</ele><time>2026-04-06T08:52:46Z</time></trkpt><trkpt lat="41.04556897930135" lon="15.785285989498982"><ele>326.0</ele><time>2026-04-06T08:52:47Z</time></trkpt><trkpt lat="41.04548953791668" lon="15.785201552661261"><ele>325.5</ele><time>2026-04-06T08:52:48Z</time></trkpt><trkpt lat="41.04541639671649" lon="15.785128705826056"><ele>325.0</ele><time>2026-04-06T08:52:49Z</time></trkpt><trkpt lat="41.045350454642325" lon="15.785058652180853"><ele>324.5</ele><time>2026-04-06T08:52:50Z</time></trkpt><trkpt lat="41.04529088615919" lon="15.784993293285009"><ele>324.0</ele><time>2026-04-06T08:52:51Z</time></trkpt><trkpt lat="41.04523451123497" lon="15.784930002106364"><ele>323.5</ele><time>2026-04-06T08:52:52Z</time></trkpt><trkpt lat="41.045146906698484" lon="15.784834341442744"><ele>323.0</ele><time>2026-04-06T08:52:54Z</time></trkpt><trkpt lat="41.04506743970402" lon="15.784749130167436"><ele>323.0</ele><time>2026-04-06T08:52:56Z</time></trkpt><trkpt lat="41.044999680517506" lon="15.784682157966428"><ele>323.0</ele><time>2026-04-06T08:52:58Z</time></trkpt><trkpt lat="41.044941480136096" lon="15.784615599194192"><ele>323.0</ele><time>2026-04-06T08:53:01Z</time></trkpt><trkpt lat="41.04482980702646" lon="15.784515546333202"><ele>323.0</ele><time>2026-04-06T08:53:28Z</time></trkpt><trkpt lat="41.044755861882024" lon="15.78443401563227"><ele>323.0</ele><time>2026-04-06T08:53:29Z</time></trkpt><trkpt lat="41.04467505637087" lon="15.784337406762582"><ele>322.5</ele><time>2026-04-06T08:53:30Z</time></trkpt><trkpt lat="41.04457876520231" lon="15.784230297031414"><ele>322.0</ele><time>2026-04-06T08:53:31Z</time></trkpt><trkpt lat="41.044475270890686" lon="15.784123363965863"><ele>321.5</ele><time>2026-04-06T08:53:32Z</time></trkpt><trkpt lat="41.0443773027161" lon="15.784024142512328"><ele>321.0</ele><time>2026-04-06T08:53:33Z</time></trkpt><trkpt lat="41.044287848318554" lon="15.783934602985934"><ele>321.0</ele><time>2026-04-06T08:53:34Z</time></trkpt><trkpt lat="41.04421729576073" lon="15.783830958422161"><ele>321.0</ele><time>2026-04-06T08:53:35Z</time></trkpt><trkpt lat="41.04414263939749" lon="15.783750288130921"><ele>321.0</ele><time>2026-04-06T08:53:36Z</time></trkpt><trkpt lat="41.04407205650972" lon="15.78367401912548"><ele>321.0</ele><time>2026-04-06T08:53:37Z</time></trkpt><trkpt lat="41.044001132143" lon="15.78362398543768"><ele>321.0</ele><time>2026-04-06T08:53:38Z</time></trkpt><trkpt lat="41.043941249334594" lon="15.78355464200226"><ele>320.6666666666667</ele><time>2026-04-06T08:53:39Z</time></trkpt><trkpt lat="41.043887857610976" lon="15.783495128865916"><ele>320.3333333333333</ele><time>2026-04-06T08:53:40Z</time></trkpt><trkpt lat="41.043835454589214" lon="15.783437333517968"><ele>320.0</ele><time>2026-04-06T08:53:41Z</time></trkpt><trkpt lat="41.04374731184058" lon="15.783340253703015"><ele>319.66666666666663</ele><time>2026-04-06T08:53:43Z</time></trkpt><trkpt lat="41.04368274918866" lon="15.783265552219419"><ele>319.3333333333333</ele><time>2026-04-06T08:53:45Z</time></trkpt><trkpt lat="41.043608216553096" lon="15.78319223491163"><ele>319.0</ele><time>2026-04-06T08:53:48Z</time></trkpt><trkpt lat="41.043503120090605" lon="15.783083291784202"><ele>319.0</ele><time>2026-04-06T08:53:50Z</time></trkpt><trkpt lat="41.04343947570621" lon="15.783012320774022"><ele>319.0</ele><time>2026-04-06T08:53:51Z</time></trkpt><trkpt lat="41.043361684551876" lon="15.782920370207346"><ele>319.0</ele><time>2026-04-06T08:53:52Z</time></trkpt><trkpt lat="41.0432780812996" lon="15.782821674939019"><ele>319.0</ele><time>2026-04-06T08:53:53Z</time></trkpt><trkpt lat="41.04318089502308" lon="15.782719258036275"><ele>319.0</ele><time>2026-04-06T08:53:54Z</time></trkpt><trkpt lat="41.0430764031466" lon="15.782614949537281"><ele>317.5</ele><time>2026-04-06T08:53:55Z</time></trkpt><trkpt lat="41.042970993040115" lon="15.78250376418973"><ele>316.0</ele><time>2026-04-06T08:53:56Z</time></trkpt><trkpt lat="41.042859679204156" lon="15.782385492106645"><ele>314.5</ele><time>2026-04-06T08:53:57Z</time></trkpt><trkpt lat="41.04275278760884" lon="15.782276020029155"><ele>313.0</ele><time>2026-04-06T08:53:58Z</time></trkpt><trkpt lat="41.042632180535" lon="15.7821739651846"><ele>313.0</ele><time>2026-04-06T08:53:59Z</time></trkpt><trkpt lat="41.04251738978273" lon="15.782075620544402"><ele>313.0</ele><time>2026-04-06T08:54:00Z</time></trkpt><trkpt lat="41.04239557763597" lon="15.78196383943358"><ele>313.0</ele><time>2026-04-06T08:54:01Z</time></trkpt><trkpt lat="41.042286170651415" lon="15.78182213974588"><ele>313.0</ele><time>2026-04-06T08:54:02Z</time></trkpt><trkpt lat="41.04219272890661" lon="15.781643287418403"><ele>307.66666666666663</ele><time>2026-04-06T08:54:03Z</time></trkpt><trkpt lat="41.042119114921746" lon="15.781434862393555"><ele>302.3333333333333</ele><time>2026-04-06T08:54:04Z</time></trkpt><trkpt lat="41.042075691449476" lon="15.781218169371465"><ele>297.0</ele><time>2026-04-06T08:54:05Z</time></trkpt><trkpt lat="41.04206166484375" lon="15.780996080861254"><ele>297.0</ele><time>2026-04-06T08:54:06Z</time></trkpt><trkpt lat="41.04208644162621" lon="15.780768876424158"><ele>297.0</ele><time>2026-04-06T08:54:07Z</time></trkpt><trkpt lat="41.042110154320355" lon="15.780517615144365"><ele>297.0</ele><time>2026-04-06T08:54:08Z</time></trkpt><trkpt lat="41.04212268252296" lon="15.780268063884632"><ele>297.0</ele><time>2026-04-06T08:54:09Z</time></trkpt><trkpt lat="41.04215085542157" lon="15.780006579786505"><ele>297.0</ele><time>2026-04-06T08:54:10Z</time></trkpt><trkpt lat="41.04217173125491" lon="15.779757043185686"><ele>297.0</ele><time>2026-04-06T08:54:11Z</time></trkpt><trkpt lat="41.04218732202781" lon="15.779528756651642"><ele>296.6666666666667</ele><time>2026-04-06T08:54:12Z</time></trkpt><trkpt lat="41.04219101001171" lon="15.779286367315631"><ele>296.33333333333337</ele><time>2026-04-06T08:54:13Z</time></trkpt><trkpt lat="41.04217238251138" lon="15.779053641323127"><ele>296.0</ele><time>2026-04-06T08:54:14Z</time></trkpt><trkpt lat="41.04212949217617" lon="15.778823841021502"><ele>296.0</ele><time>2026-04-06T08:54:15Z</time></trkpt><trkpt lat="41.042072537839076" lon="15.77860518473015"><ele>296.0</ele><time>2026-04-06T08:54:16Z</time></trkpt><trkpt lat="41.04199967260112" lon="15.77840397065653"><ele>296.0</ele><time>2026-04-06T08:54:17Z</time></trkpt><trkpt lat="41.04190036818868" lon="15.778216464772091"><ele>296.0</ele><time>2026-04-06T08:54:18Z</time></trkpt><trkpt lat="41.04177408924036" lon="15.77803940282296"><ele>296.0</ele><time>2026-04-06T08:54:19Z</time></trkpt><trkpt lat="41.0416318074571" lon="15.777865233264983"><ele>296.0</ele><time>2026-04-06T08:54:20Z</time></trkpt><trkpt lat="41.04148431482548" lon="15.777698205919176"><ele>297.0</ele><time>2026-04-06T08:54:21Z</time></trkpt><trkpt lat="41.04133138606583" lon="15.777530130189284"><ele>298.0</ele><time>2026-04-06T08:54:22Z</time></trkpt><trkpt lat="41.04118913473783" lon="15.777347407276105"><ele>299.0</ele><time>2026-04-06T08:54:23Z</time></trkpt><trkpt lat="41.04104422482143" lon="15.77716621521859"><ele>299.0</ele><time>2026-04-06T08:54:24Z</time></trkpt><trkpt lat="41.04089887256741" lon="15.776985720757772"><ele>299.0</ele><time>2026-04-06T08:54:25Z</time></trkpt><trkpt lat="41.0407508055308" lon="15.776808948263893"><ele>299.0</ele><time>2026-04-06T08:54:26Z</time></trkpt><trkpt lat="41.040604708147704" lon="15.77663532313851"><ele>300.6666666666667</ele><time>2026-04-06T08:54:27Z</time></trkpt><trkpt lat="41.04045975023664" lon="15.776463003598664"><ele>302.3333333333333</ele><time>2026-04-06T08:54:28Z</time></trkpt><trkpt lat="41.04031184241474" lon="15.776283319329787"><ele>304.0</ele><time>2026-04-06T08:54:29Z</time></trkpt><trkpt lat="41.04016995418792" lon="15.776112339568042"><ele>305.0</ele><time>2026-04-06T08:54:30Z</time></trkpt><trkpt lat="41.04002595260126" lon="15.775939860590496"><ele>306.0</ele><time>2026-04-06T08:54:31Z</time></trkpt><trkpt lat="41.03988493993785" lon="15.775768871778109"><ele>307.0</ele><time>2026-04-06T08:54:32Z</time></trkpt><trkpt lat="41.03974095157136" lon="15.77560174084235"><ele>307.3333333333333</ele><time>2026-04-06T08:54:33Z</time></trkpt><trkpt lat="41.03960572593274" lon="15.775445141969515"><ele>307.6666666666667</ele><time>2026-04-06T08:54:34Z</time></trkpt><trkpt lat="41.03949024466838" lon="15.775280390197226"><ele>308.0</ele><time>2026-04-06T08:54:35Z</time></trkpt><trkpt lat="41.03937943350666" lon="15.77514650441823"><ele>308.5</ele><time>2026-04-06T08:54:36Z</time></trkpt><trkpt lat="41.03928182375829" lon="15.775028667113336"><ele>309.0</ele><time>2026-04-06T08:54:37Z</time></trkpt><trkpt lat="41.03918699270994" lon="15.774915009874775"><ele>309.5</ele><time>2026-04-06T08:54:38Z</time></trkpt><trkpt lat="41.039103334191616" lon="15.77481468873729"><ele>310.0</ele><time>2026-04-06T08:54:39Z</time></trkpt><trkpt lat="41.039028692267884" lon="15.774725180214077"><ele>310.2</ele><time>2026-04-06T08:54:40Z</time></trkpt><trkpt lat="41.038956569435925" lon="15.774638692376913"><ele>310.4</ele><time>2026-04-06T08:54:41Z</time></trkpt><trkpt lat="41.03888747870556" lon="15.774555840508388"><ele>310.6</ele><time>2026-04-06T08:54:42Z</time></trkpt><trkpt lat="41.03882251936022" lon="15.774477943001308"><ele>310.8</ele><time>2026-04-06T08:54:43Z</time></trkpt><trkpt lat="41.03875199089508" lon="15.774393367096838"><ele>311.0</ele><time>2026-04-06T08:54:44Z</time></trkpt><trkpt lat="41.03868157234168" lon="15.774308923059989"><ele>311.75</ele><time>2026-04-06T08:54:45Z</time></trkpt><trkpt lat="41.03858917798136" lon="15.77422598262555"><ele>312.5</ele><time>2026-04-06T08:54:46Z</time></trkpt><trkpt lat="41.03850246577921" lon="15.77411749469353"><ele>313.25</ele><time>2026-04-06T08:54:47Z</time></trkpt><trkpt lat="41.038410286096" lon="15.774006059213884"><ele>314.0</ele><time>2026-04-06T08:54:48Z</time></trkpt><trkpt lat="41.03831868289411" lon="15.773895451896736"><ele>313.75</ele><time>2026-04-06T08:54:49Z</time></trkpt><trkpt lat="41.038223795691295" lon="15.773785150264558"><ele>313.5</ele><time>2026-04-06T08:54:50Z</time></trkpt><trkpt lat="41.038127446957574" lon="15.773669365319089"><ele>313.25</ele><time>2026-04-06T08:54:51Z</time></trkpt><trkpt lat="41.038033265872755" lon="15.773554282689707"><ele>313.0</ele><time>2026-04-06T08:54:52Z</time></trkpt><trkpt lat="41.037936916291635" lon="15.773440322237535"><ele>314.25</ele><time>2026-04-06T08:54:53Z</time></trkpt><trkpt lat="41.03783814959073" lon="15.773319599624955"><ele>315.5</ele><time>2026-04-06T08:54:54Z</time></trkpt><trkpt lat="41.03773758579783" lon="15.773200743326088"><ele>316.75</ele><time>2026-04-06T08:54:55Z</time></trkpt><trkpt lat="41.037644095188575" lon="15.773088944681028"><ele>318.0</ele><time>2026-04-06T08:54:56Z</time></trkpt><trkpt lat="41.03755151358972" lon="15.772974961277466"><ele>318.25</ele><time>2026-04-06T08:54:57Z</time></trkpt><trkpt lat="41.03745732000526" lon="15.77285968151039"><ele>318.5</ele><time>2026-04-06T08:54:58Z</time></trkpt><trkpt lat="41.037362012450394" lon="15.772740528458606"><ele>318.75</ele><time>2026-04-06T08:54:59Z</time></trkpt><trkpt lat="41.03726462093841" lon="15.772623347246396"><ele>319.0</ele><time>2026-04-06T08:55:00Z</time></trkpt><trkpt lat="41.037172134136384" lon="15.772504857507132"><ele>319.75</ele><time>2026-04-06T08:55:01Z</time></trkpt><trkpt lat="41.03707624501818" lon="15.772383991951928"><ele>320.5</ele><time>2026-04-06T08:55:02Z</time></trkpt><trkpt lat="41.036974514860376" lon="15.772268991503445"><ele>321.25</ele><time>2026-04-06T08:55:03Z</time></trkpt><trkpt lat="41.036866062575875" lon="15.772145376664984"><ele>322.0</ele><time>2026-04-06T08:55:04Z</time></trkpt><trkpt lat="41.036754094917136" lon="15.772012356536624"><ele>322.0</ele><time>2026-04-06T08:55:05Z</time></trkpt><trkpt lat="41.03664805978913" lon="15.771883268324963"><ele>322.0</ele><time>2026-04-06T08:55:06Z</time></trkpt><trkpt lat="41.036536892270284" lon="15.771748976660279"><ele>322.0</ele><time>2026-04-06T08:55:07Z</time></trkpt><trkpt lat="41.03642797217138" lon="15.77161771879206"><ele>322.0</ele><time>2026-04-06T08:55:08Z</time></trkpt><trkpt lat="41.03632518028151" lon="15.771493756789644"><ele>322.75</ele><time>2026-04-06T08:55:09Z</time></trkpt><trkpt lat="41.03623058500337" lon="15.771380488501476"><ele>323.5</ele><time>2026-04-06T08:55:10Z</time></trkpt><trkpt lat="41.036134287038536" lon="15.771269446709773"><ele>324.25</ele><time>2026-04-06T08:55:11Z</time></trkpt><trkpt lat="41.03604096523077" lon="15.77115705314458"><ele>325.0</ele><time>2026-04-06T08:55:12Z</time></trkpt><trkpt lat="41.035939492038615" lon="15.771038498200053"><ele>324.5</ele><time>2026-04-06T08:55:13Z</time></trkpt><trkpt lat="41.03583601010186" lon="15.770914708838212"><ele>324.0</ele><time>2026-04-06T08:55:14Z</time></trkpt><trkpt lat="41.035732470674766" lon="15.770789739059717"><ele>323.5</ele><time>2026-04-06T08:55:15Z</time></trkpt><trkpt lat="41.035633133838225" lon="15.770668390991345"><ele>323.0</ele><time>2026-04-06T08:55:16Z</time></trkpt><trkpt lat="41.03553038736157" lon="15.770549593831008"><ele>323.0</ele><time>2026-04-06T08:55:17Z</time></trkpt><trkpt lat="41.03543620084632" lon="15.770434438398558"><ele>323.0</ele><time>2026-04-06T08:55:18Z</time></trkpt><trkpt lat="41.03534035317836" lon="15.770321334956718"><ele>323.0</ele><time>2026-04-06T08:55:19Z</time></trkpt><trkpt lat="41.035245075364436" lon="15.770203994728222"><ele>323.0</ele><time>2026-04-06T08:55:20Z</time></trkpt><trkpt lat="41.0351426308313" lon="15.770084086214265"><ele>323.0</ele><time>2026-04-06T08:55:21Z</time></trkpt><trkpt lat="41.03504304732253" lon="15.769935080686713"><ele>323.0</ele><time>2026-04-06T08:55:22Z</time></trkpt><trkpt lat="41.03491259091666" lon="15.76981915233778"><ele>323.0</ele><time>2026-04-06T08:55:23Z</time></trkpt><trkpt lat="41.03480063159914" lon="15.769666033702228"><ele>323.6666666666667</ele><time>2026-04-06T08:55:24Z</time></trkpt><trkpt lat="41.034681121448685" lon="15.769511079234455"><ele>324.3333333333333</ele><time>2026-04-06T08:55:25Z</time></trkpt><trkpt lat="41.034551830029834" lon="15.769356373766534"><ele>325.0</ele><time>2026-04-06T08:55:26Z</time></trkpt><trkpt lat="41.034423134018084" lon="15.769197953733011"><ele>325.0</ele><time>2026-04-06T08:55:27Z</time></trkpt><trkpt lat="41.03428826378195" lon="15.769033471161297"><ele>325.0</ele><time>2026-04-06T08:55:28Z</time></trkpt><trkpt lat="41.034149970789755" lon="15.768867091389591"><ele>325.0</ele><time>2026-04-06T08:55:29Z</time></trkpt><trkpt lat="41.0340104047379" lon="15.76869916869457"><ele>325.3333333333333</ele><time>2026-04-06T08:55:30Z</time></trkpt><trkpt lat="41.0338671682228" lon="15.768533719646888"><ele>325.6666666666667</ele><time>2026-04-06T08:55:31Z</time></trkpt><trkpt lat="41.03372753675149" lon="15.768369229233747"><ele>326.0</ele><time>2026-04-06T08:55:32Z</time></trkpt><trkpt lat="41.03359122525155" lon="15.76820628799406"><ele>326.33333333333337</ele><time>2026-04-06T08:55:33Z</time></trkpt><trkpt lat="41.033459783417335" lon="15.76805125735701"><ele>326.6666666666667</ele><time>2026-04-06T08:55:34Z</time></trkpt><trkpt lat="41.033325207630405" lon="15.767892489407842"><ele>327.0</ele><time>2026-04-06T08:55:35Z</time></trkpt><trkpt lat="41.033187673777576" lon="15.767725101968187"><ele>327.0</ele><time>2026-04-06T08:55:36Z</time></trkpt><trkpt lat="41.033042911006696" lon="15.767550158724305"><ele>327.0</ele><time>2026-04-06T08:55:37Z</time></trkpt><trkpt lat="41.032901788174286" lon="15.767378066397272"><ele>327.0</ele><time>2026-04-06T08:55:38Z</time></trkpt><trkpt lat="41.032755708684334" lon="15.767201585511364"><ele>327.0</ele><time>2026-04-06T08:55:39Z</time></trkpt><trkpt lat="41.03260582391638" lon="15.767017646497544"><ele>327.0</ele><time>2026-04-06T08:55:40Z</time></trkpt><trkpt lat="41.03245648809098" lon="15.766834170880896"><ele>327.0</ele><time>2026-04-06T08:55:41Z</time></trkpt><trkpt lat="41.03230416093752" lon="15.76665091717636"><ele>326.6666666666667</ele><time>2026-04-06T08:55:42Z</time></trkpt><trkpt lat="41.03215835663115" lon="15.766476239781612"><ele>326.33333333333337</ele><time>2026-04-06T08:55:43Z</time></trkpt><trkpt lat="41.032013056871264" lon="15.766302453013022"><ele>326.0</ele><time>2026-04-06T08:55:44Z</time></trkpt><trkpt lat="41.03187042031839" lon="15.766129280126219"><ele>326.33333333333337</ele><time>2026-04-06T08:55:45Z</time></trkpt><trkpt lat="41.03172330669228" lon="15.76595187263862"><ele>326.6666666666667</ele><time>2026-04-06T08:55:46Z</time></trkpt><trkpt lat="41.03158521736511" lon="15.765780243367573"><ele>327.0</ele><time>2026-04-06T08:55:47Z</time></trkpt><trkpt lat="41.0314546684192" lon="15.765621550171097"><ele>327.6666666666667</ele><time>2026-04-06T08:55:48Z</time></trkpt><trkpt lat="41.03133100163549" lon="15.765484794555956"><ele>328.33333333333337</ele><time>2026-04-06T08:55:49Z</time></trkpt><trkpt lat="41.031202904838125" lon="15.76534999477535"><ele>329.0</ele><time>2026-04-06T08:55:50Z</time></trkpt><trkpt lat="41.03105977127412" lon="15.765221554536891"><ele>329.33333333333337</ele><time>2026-04-06T08:55:51Z</time></trkpt><trkpt lat="41.03091236722227" lon="15.765077483512195"><ele>329.6666666666667</ele><time>2026-04-06T08:55:52Z</time></trkpt><trkpt lat="41.03076606636911" lon="15.764924783413983"><ele>330.0</ele><time>2026-04-06T08:55:53Z</time></trkpt><trkpt lat="41.03061013524215" lon="15.764780737421663"><ele>330.6666666666667</ele><time>2026-04-06T08:55:54Z</time></trkpt><trkpt lat="41.030444361647" lon="15.764644739465277"><ele>331.33333333333337</ele><time>2026-04-06T08:55:55Z</time></trkpt><trkpt lat="41.03027429853822" lon="15.764511027799802"><ele>332.0</ele><time>2026-04-06T08:55:56Z</time></trkpt><trkpt lat="41.03010379597382" lon="15.764372340760625"><ele>333.0</ele><time>2026-04-06T08:55:57Z</time></trkpt><trkpt lat="41.02993056051665" lon="15.764233685449215"><ele>334.0</ele><time>2026-04-06T08:55:58Z</time></trkpt><trkpt lat="41.02977653267033" lon="15.764111575855825"><ele>335.0</ele><time>2026-04-06T08:55:59Z</time></trkpt><trkpt lat="41.02965138442678" lon="15.763990747905103"><ele>335.0</ele><time>2026-04-06T08:56:00Z</time></trkpt><trkpt lat="41.029512660292305" lon="15.763902059261333"><ele>335.0</ele><time>2026-04-06T08:56:01Z</time></trkpt><trkpt lat="41.02939723140952" lon="15.763809842018354"><ele>335.0</ele><time>2026-04-06T08:56:02Z</time></trkpt><trkpt lat="41.029290997539455" lon="15.763723166973794"><ele>335.0</ele><time>2026-04-06T08:56:03Z</time></trkpt><trkpt lat="41.02919495136773" lon="15.763643300432689"><ele>334.8</ele><time>2026-04-06T08:56:04Z</time></trkpt><trkpt lat="41.02910800808602" lon="15.763569795050165"><ele>334.6</ele><time>2026-04-06T08:56:05Z</time></trkpt><trkpt lat="41.02902857766761" lon="15.763502631514111"><ele>334.4</ele><time>2026-04-06T08:56:06Z</time></trkpt><trkpt lat="41.02895040965388" lon="15.763438966287861"><ele>334.2</ele><time>2026-04-06T08:56:07Z</time></trkpt><trkpt lat="41.028870457707434" lon="15.763370039334198"><ele>334.0</ele><time>2026-04-06T08:56:08Z</time></trkpt><trkpt lat="41.02877257707673" lon="15.763294518185331"><ele>334.0</ele><time>2026-04-06T08:56:09Z</time></trkpt><trkpt lat="41.028666583885695" lon="15.763213062033024"><ele>334.0</ele><time>2026-04-06T08:56:10Z</time></trkpt><trkpt lat="41.02854869929879" lon="15.763119940045048"><ele>334.0</ele><time>2026-04-06T08:56:11Z</time></trkpt><trkpt lat="41.0284257833592" lon="15.763016043753966"><ele>334.0</ele><time>2026-04-06T08:56:12Z</time></trkpt><trkpt lat="41.02829735747663" lon="15.762907864397263"><ele>333.66666666666663</ele><time>2026-04-06T08:56:13Z</time></trkpt><trkpt lat="41.02816495649752" lon="15.762797736227723"><ele>333.3333333333333</ele><time>2026-04-06T08:56:14Z</time></trkpt><trkpt lat="41.02802938883095" lon="15.762692098156274"><ele>333.0</ele><time>2026-04-06T08:56:15Z</time></trkpt><trkpt lat="41.02788908080149" lon="15.76256569610723"><ele>334.0</ele><time>2026-04-06T08:56:16Z</time></trkpt><trkpt lat="41.02774300791951" lon="15.762447218118128"><ele>335.0</ele><time>2026-04-06T08:56:17Z</time></trkpt><trkpt lat="41.02759338613481" lon="15.762325492076977"><ele>336.0</ele><time>2026-04-06T08:56:18Z</time></trkpt><trkpt lat="41.0274379725694" lon="15.762198137280809"><ele>336.0</ele><time>2026-04-06T08:56:19Z</time></trkpt><trkpt lat="41.0272815973118" lon="15.762085289066805"><ele>336.0</ele><time>2026-04-06T08:56:20Z</time></trkpt><trkpt lat="41.02713899691134" lon="15.761964204736303"><ele>336.0</ele><time>2026-04-06T08:56:21Z</time></trkpt><trkpt lat="41.02702835486059" lon="15.761845479971829"><ele>336.5</ele><time>2026-04-06T08:56:22Z</time></trkpt><trkpt lat="41.02692263851196" lon="15.761712659574096"><ele>337.0</ele><time>2026-04-06T08:56:23Z</time></trkpt><trkpt lat="41.026850397619526" lon="15.76157717236798"><ele>337.5</ele><time>2026-04-06T08:56:24Z</time></trkpt><trkpt lat="41.02679773561239" lon="15.761426656269727"><ele>338.0</ele><time>2026-04-06T08:56:25Z</time></trkpt><trkpt lat="41.026779904181474" lon="15.761278187612895"><ele>338.0</ele><time>2026-04-06T08:56:26Z</time></trkpt><trkpt lat="41.02678714243445" lon="15.76111596865377"><ele>338.0</ele><time>2026-04-06T08:56:27Z</time></trkpt><trkpt lat="41.02681875136226" lon="15.760944593441076"><ele>338.0</ele><time>2026-04-06T08:56:28Z</time></trkpt><trkpt lat="41.0268606504437" lon="15.76076619437442"><ele>338.0</ele><time>2026-04-06T08:56:29Z</time></trkpt><trkpt lat="41.02690596907968" lon="15.76057253238022"><ele>338.33333333333337</ele><time>2026-04-06T08:56:30Z</time></trkpt><trkpt lat="41.026955735115514" lon="15.760366280332867"><ele>338.6666666666667</ele><time>2026-04-06T08:56:31Z</time></trkpt><trkpt lat="41.02700727008919" lon="15.760148561272693"><ele>339.0</ele><time>2026-04-06T08:56:32Z</time></trkpt><trkpt lat="41.027056209077536" lon="15.759931627364955"><ele>339.3333333333333</ele><time>2026-04-06T08:56:33Z</time></trkpt><trkpt lat="41.02710887765612" lon="15.759701990262718"><ele>339.66666666666663</ele><time>2026-04-06T08:56:34Z</time></trkpt><trkpt lat="41.027163902446546" lon="15.75947176503211"><ele>340.0</ele><time>2026-04-06T08:56:35Z</time></trkpt><trkpt lat="41.027219636664974" lon="15.75922391958789"><ele>339.3333333333333</ele><time>2026-04-06T08:56:36Z</time></trkpt><trkpt lat="41.02727249174507" lon="15.758980381038093"><ele>338.6666666666667</ele><time>2026-04-06T08:56:37Z</time></trkpt><trkpt lat="41.0273217958202" lon="15.758761037385641"><ele>338.0</ele><time>2026-04-06T08:56:38Z</time></trkpt><trkpt lat="41.02737020053183" lon="15.758556334108706"><ele>338.0</ele><time>2026-04-06T08:56:39Z</time></trkpt><trkpt lat="41.02741799586138" lon="15.75837582810391"><ele>338.0</ele><time>2026-04-06T08:56:40Z</time></trkpt><trkpt lat="41.0274783851367" lon="15.758238284324834"><ele>338.0</ele><time>2026-04-06T08:56:41Z</time></trkpt><trkpt lat="41.02756149975618" lon="15.758140826285757"><ele>338.0</ele><time>2026-04-06T08:56:42Z</time></trkpt><trkpt lat="41.02766833593259" lon="15.758097250147438"><ele>337.0</ele><time>2026-04-06T08:56:43Z</time></trkpt><trkpt lat="41.02779821690564" lon="15.75812248455737"><ele>336.0</ele><time>2026-04-06T08:56:44Z</time></trkpt><trkpt lat="41.027947494404565" lon="15.758127876978179"><ele>335.0</ele><time>2026-04-06T08:56:45Z</time></trkpt><trkpt lat="41.02810176089364" lon="15.758171845238532"><ele>334.0</ele><time>2026-04-06T08:56:46Z</time></trkpt><trkpt lat="41.02827088817318" lon="15.758196269481566"><ele>333.3333333333333</ele><time>2026-04-06T08:56:47Z</time></trkpt><trkpt lat="41.028449495594145" lon="15.758211888515003"><ele>332.6666666666667</ele><time>2026-04-06T08:56:48Z</time></trkpt><trkpt lat="41.028637529181374" lon="15.758234620069405"><ele>332.0</ele><time>2026-04-06T08:56:49Z</time></trkpt><trkpt lat="41.02883171120978" lon="15.758256666191638"><ele>332.0</ele><time>2026-04-06T08:56:50Z</time></trkpt><trkpt lat="41.02902391789386" lon="15.75826370245258"><ele>332.0</ele><time>2026-04-06T08:56:51Z</time></trkpt><trkpt lat="41.02922051430107" lon="15.758250801507277"><ele>332.0</ele><time>2026-04-06T08:56:52Z</time></trkpt><trkpt lat="41.02940171491674" lon="15.758232071367178"><ele>330.33333333333337</ele><time>2026-04-06T08:56:53Z</time></trkpt><trkpt lat="41.02957922056561" lon="15.758224436951064"><ele>328.6666666666667</ele><time>2026-04-06T08:56:54Z</time></trkpt><trkpt lat="41.02974977668565" lon="15.758239311872408"><ele>327.0</ele><time>2026-04-06T08:56:55Z</time></trkpt><trkpt lat="41.02989669262766" lon="15.758275878226101"><ele>325.25</ele><time>2026-04-06T08:56:56Z</time></trkpt><trkpt lat="41.03003429028457" lon="15.758297950787373"><ele>323.5</ele><time>2026-04-06T08:56:57Z</time></trkpt><trkpt lat="41.03017513261486" lon="15.758269557882535"><ele>321.75</ele><time>2026-04-06T08:56:58Z</time></trkpt><trkpt lat="41.030319562831245" lon="15.758185418428658"><ele>320.0</ele><time>2026-04-06T08:56:59Z</time></trkpt><trkpt lat="41.03046061993246" lon="15.758063504165781"><ele>320.0</ele><time>2026-04-06T08:57:00Z</time></trkpt><trkpt lat="41.030601822970795" lon="15.757934068485929"><ele>320.0</ele><time>2026-04-06T08:57:01Z</time></trkpt><trkpt lat="41.0307498956861" lon="15.757822440036028"><ele>320.0</ele><time>2026-04-06T08:57:02Z</time></trkpt><trkpt lat="41.0308986248721" lon="15.757747191791845"><ele>320.5</ele><time>2026-04-06T08:57:03Z</time></trkpt><trkpt lat="41.03103877378087" lon="15.757687440021808"><ele>321.0</ele><time>2026-04-06T08:57:04Z</time></trkpt><trkpt lat="41.03115309504375" lon="15.757614737576713"><ele>321.5</ele><time>2026-04-06T08:57:05Z</time></trkpt><trkpt lat="41.03123593319001" lon="15.757514897374278"><ele>322.0</ele><time>2026-04-06T08:57:06Z</time></trkpt><trkpt lat="41.03128743798188" lon="15.757395279220148"><ele>322.0</ele><time>2026-04-06T08:57:07Z</time></trkpt><trkpt lat="41.031304751732826" lon="15.757258268834686"><ele>322.0</ele><time>2026-04-06T08:57:08Z</time></trkpt><trkpt lat="41.03128295811829" lon="15.757111828484252"><ele>322.0</ele><time>2026-04-06T08:57:09Z</time></trkpt><trkpt lat="41.03122342214586" lon="15.756949895150289"><ele>322.0</ele><time>2026-04-06T08:57:10Z</time></trkpt><trkpt lat="41.03115118312301" lon="15.75679057464973"><ele>321.0</ele><time>2026-04-06T08:57:11Z</time></trkpt><trkpt lat="41.03109190399044" lon="15.756618132063934"><ele>320.0</ele><time>2026-04-06T08:57:12Z</time></trkpt><trkpt lat="41.031077923310775" lon="15.756445053789886"><ele>319.0</ele><time>2026-04-06T08:57:13Z</time></trkpt><trkpt lat="41.03110050047774" lon="15.756277213258775"><ele>318.0</ele><time>2026-04-06T08:57:14Z</time></trkpt><trkpt lat="41.03117464071598" lon="15.756147004497741"><ele>317.25</ele><time>2026-04-06T08:57:15Z</time></trkpt><trkpt lat="41.03122989518815" lon="15.755996189360687"><ele>316.5</ele><time>2026-04-06T08:57:16Z</time></trkpt><trkpt lat="41.03127948966733" lon="15.755874418484636"><ele>315.75</ele><time>2026-04-06T08:57:17Z</time></trkpt><trkpt lat="41.03128170247012" lon="15.75573116414043"><ele>315.0</ele><time>2026-04-06T08:57:18Z</time></trkpt><trkpt lat="41.03123873458375" lon="15.75558114014014"><ele>315.0</ele><time>2026-04-06T08:57:19Z</time></trkpt><trkpt lat="41.03116134814413" lon="15.755423869309755"><ele>315.0</ele><time>2026-04-06T08:57:20Z</time></trkpt><trkpt lat="41.031075847858006" lon="15.755279045593747"><ele>315.0</ele><time>2026-04-06T08:57:21Z</time></trkpt><trkpt lat="41.03102043804977" lon="15.755134191139316"><ele>315.0</ele><time>2026-04-06T08:57:22Z</time></trkpt><trkpt lat="41.03100893099897" lon="15.754976219445156"><ele>313.75</ele><time>2026-04-06T08:57:23Z</time></trkpt><trkpt lat="41.0310455920315" lon="15.75481173526477"><ele>312.5</ele><time>2026-04-06T08:57:24Z</time></trkpt><trkpt lat="41.031096151855344" lon="15.754637786049436"><ele>311.25</ele><time>2026-04-06T08:57:25Z</time></trkpt><trkpt lat="41.03111062742659" lon="15.75445244551493"><ele>310.0</ele><time>2026-04-06T08:57:26Z</time></trkpt><trkpt lat="41.03108170314388" lon="15.754244190438456"><ele>308.3333333333333</ele><time>2026-04-06T08:57:27Z</time></trkpt><trkpt lat="41.03103661241578" lon="15.75402167037139"><ele>306.6666666666667</ele><time>2026-04-06T08:57:28Z</time></trkpt><trkpt lat="41.03099677020013" lon="15.753804333037332"><ele>305.0</ele><time>2026-04-06T08:57:29Z</time></trkpt><trkpt lat="41.03097518414679" lon="15.753598535105219"><ele>302.33333333333337</ele><time>2026-04-06T08:57:30Z</time></trkpt><trkpt lat="41.0309701516811" lon="15.753406861124061"><ele>299.6666666666667</ele><time>2026-04-06T08:57:31Z</time></trkpt><trkpt lat="41.03098171589283" lon="15.75320101727156"><ele>297.0</ele><time>2026-04-06T08:57:32Z</time></trkpt><trkpt lat="41.031011528378706" lon="15.75300016324194"><ele>297.0</ele><time>2026-04-06T08:57:33Z</time></trkpt><trkpt lat="41.03103651801977" lon="15.752822647343585"><ele>297.0</ele><time>2026-04-06T08:57:34Z</time></trkpt><trkpt lat="41.03103300686444" lon="15.752675062218687"><ele>297.0</ele><time>2026-04-06T08:57:35Z</time></trkpt><trkpt lat="41.03098464820551" lon="15.752552380745513"><ele>297.0</ele><time>2026-04-06T08:57:36Z</time></trkpt><trkpt lat="41.030902363798724" lon="15.752455806876558"><ele>292.75</ele><time>2026-04-06T08:57:37Z</time></trkpt><trkpt lat="41.03079301443173" lon="15.75239335035811"><ele>288.5</ele><time>2026-04-06T08:57:38Z</time></trkpt><trkpt lat="41.03066169473007" lon="15.752360223317638"><ele>284.25</ele><time>2026-04-06T08:57:39Z</time></trkpt><trkpt lat="41.030520755487665" lon="15.752368505856682"><ele>280.0</ele><time>2026-04-06T08:57:40Z</time></trkpt><trkpt lat="41.030392146705374" lon="15.75242738865758"><ele>280.0</ele><time>2026-04-06T08:57:41Z</time></trkpt><trkpt lat="41.03027546912441" lon="15.752529270429417"><ele>280.0</ele><time>2026-04-06T08:57:42Z</time></trkpt><trkpt lat="41.03018210764382" lon="15.752665619411882"><ele>280.0</ele><time>2026-04-06T08:57:43Z</time></trkpt><trkpt lat="41.03012004936813" lon="15.752827043544642"><ele>280.0</ele><time>2026-04-06T08:57:44Z</time></trkpt><trkpt lat="41.0300879593868" lon="15.753006697217069"><ele>282.66666666666663</ele><time>2026-04-06T08:57:45Z</time></trkpt><trkpt lat="41.03008296281087" lon="15.75319428775707"><ele>285.3333333333333</ele><time>2026-04-06T08:57:46Z</time></trkpt><trkpt lat="41.030090778121796" lon="15.753402748676674"><ele>288.0</ele><time>2026-04-06T08:57:47Z</time></trkpt><trkpt lat="41.030070581262734" lon="15.75362275251384"><ele>288.6666666666667</ele><time>2026-04-06T08:57:48Z</time></trkpt><trkpt lat="41.03005714595261" lon="15.753836335303498"><ele>289.33333333333337</ele><time>2026-04-06T08:57:49Z</time></trkpt><trkpt lat="41.03000653935486" lon="15.75402492366159"><ele>290.0</ele><time>2026-04-06T08:57:50Z</time></trkpt><trkpt lat="41.029938887617305" lon="15.754185585326999"><ele>290.0</ele><time>2026-04-06T08:57:51Z</time></trkpt><trkpt lat="41.0298564726549" lon="15.754326740263584"><ele>290.0</ele><time>2026-04-06T08:57:52Z</time></trkpt><trkpt lat="41.02977357016069" lon="15.754438318034175"><ele>290.0</ele><time>2026-04-06T08:57:53Z</time></trkpt><trkpt lat="41.029685962650724" lon="15.754514538988776"><ele>290.0</ele><time>2026-04-06T08:57:54Z</time></trkpt><trkpt lat="41.02959199044244" lon="15.754536462103042"><ele>290.0</ele><time>2026-04-06T08:57:55Z</time></trkpt><trkpt lat="41.02950583584328" lon="15.75447464053618"><ele>290.0</ele><time>2026-04-06T08:57:56Z</time></trkpt><trkpt lat="41.02945629903653" lon="15.754384925766857"><ele>290.0</ele><time>2026-04-06T08:57:57Z</time></trkpt><trkpt lat="41.029392362517925" lon="15.754268926990797"><ele>290.0</ele><time>2026-04-06T08:57:58Z</time></trkpt><trkpt lat="41.02931215265333" lon="15.754130678203635"><ele>290.0</ele><time>2026-04-06T08:57:59Z</time></trkpt><trkpt lat="41.02921728196566" lon="15.753993167347229"><ele>297.6666666666667</ele><time>2026-04-06T08:58:00Z</time></trkpt><trkpt lat="41.029083988744894" lon="15.753879836522287"><ele>305.3333333333333</ele><time>2026-04-06T08:58:01Z</time></trkpt><trkpt lat="41.02893521272284" lon="15.75378919330581"><ele>313.0</ele><time>2026-04-06T08:58:02Z</time></trkpt><trkpt lat="41.02879678549549" lon="15.7536966292386"><ele>313.0</ele><time>2026-04-06T08:58:03Z</time></trkpt><trkpt lat="41.02869912593512" lon="15.753555033118225"><ele>313.0</ele><time>2026-04-06T08:58:04Z</time></trkpt><trkpt lat="41.02860917516747" lon="15.753388921887485"><ele>313.0</ele><time>2026-04-06T08:58:05Z</time></trkpt><trkpt lat="41.02851607851366" lon="15.753213194466333"><ele>306.75</ele><time>2026-04-06T08:58:06Z</time></trkpt><trkpt lat="41.02845270631332" lon="15.753049487345486"><ele>300.5</ele><time>2026-04-06T08:58:07Z</time></trkpt><trkpt lat="41.02836941739957" lon="15.75292462816358"><ele>294.25</ele><time>2026-04-06T08:58:08Z</time></trkpt><trkpt lat="41.02826481521597" lon="15.752844687017689"><ele>288.0</ele><time>2026-04-06T08:58:09Z</time></trkpt><trkpt lat="41.02814936073032" lon="15.752820326973998"><ele>288.0</ele><time>2026-04-06T08:58:10Z</time></trkpt><trkpt lat="41.02802738954498" lon="15.752849715145384"><ele>288.0</ele><time>2026-04-06T08:58:11Z</time></trkpt><trkpt lat="41.02789040355925" lon="15.752920712953891"><ele>288.0</ele><time>2026-04-06T08:58:12Z</time></trkpt><trkpt lat="41.027750541278586" lon="15.752995749568909"><ele>288.0</ele><time>2026-04-06T08:58:13Z</time></trkpt><trkpt lat="41.02759820615262" lon="15.753065473654559"><ele>282.3333333333333</ele><time>2026-04-06T08:58:14Z</time></trkpt><trkpt lat="41.02744326491907" lon="15.753131061591935"><ele>276.66666666666663</ele><time>2026-04-06T08:58:15Z</time></trkpt><trkpt lat="41.02727578178549" lon="15.753207945752061"><ele>271.0</ele><time>2026-04-06T08:58:16Z</time></trkpt><trkpt lat="41.02711697589308" lon="15.75329780846499"><ele>271.0</ele><time>2026-04-06T08:58:17Z</time></trkpt><trkpt lat="41.0269794461443" lon="15.753420610931666"><ele>271.0</ele><time>2026-04-06T08:58:18Z</time></trkpt><trkpt lat="41.026850620857644" lon="15.75356610691099"><ele>271.0</ele><time>2026-04-06T08:58:19Z</time></trkpt><trkpt lat="41.026740012009185" lon="15.753711227707273"><ele>275.0</ele><time>2026-04-06T08:58:20Z</time></trkpt><trkpt lat="41.02662582977984" lon="15.753806139170843"><ele>279.0</ele><time>2026-04-06T08:58:21Z</time></trkpt><trkpt lat="41.026495004382646" lon="15.753838880000382"><ele>283.0</ele><time>2026-04-06T08:58:22Z</time></trkpt><trkpt lat="41.026339864742965" lon="15.75387026639183"><ele>287.0</ele><time>2026-04-06T08:58:23Z</time></trkpt><trkpt lat="41.02617473780144" lon="15.753904200760807"><ele>287.0</ele><time>2026-04-06T08:58:24Z</time></trkpt><trkpt lat="41.02601663928241" lon="15.753935447237003"><ele>287.0</ele><time>2026-04-06T08:58:25Z</time></trkpt><trkpt lat="41.02587722001831" lon="15.753959027068994"><ele>287.0</ele><time>2026-04-06T08:58:26Z</time></trkpt><trkpt lat="41.0257479493464" lon="15.753977432032281"><ele>287.0</ele><time>2026-04-06T08:58:27Z</time></trkpt><trkpt lat="41.02564699368583" lon="15.753927890014522"><ele>287.75</ele><time>2026-04-06T08:58:28Z</time></trkpt><trkpt lat="41.025598572006274" lon="15.753808772925687"><ele>288.5</ele><time>2026-04-06T08:58:29Z</time></trkpt><trkpt lat="41.025533428067945" lon="15.753695384613073"><ele>289.25</ele><time>2026-04-06T08:58:30Z</time></trkpt><trkpt lat="41.0254704426039" lon="15.753546817927965"><ele>290.0</ele><time>2026-04-06T08:58:31Z</time></trkpt><trkpt lat="41.02543810001813" lon="15.753369086029743"><ele>290.25</ele><time>2026-04-06T08:58:32Z</time></trkpt><trkpt lat="41.02545408650129" lon="15.753204808497776"><ele>290.5</ele><time>2026-04-06T08:58:33Z</time></trkpt><trkpt lat="41.02549323426647" lon="15.753046081232576"><ele>290.75</ele><time>2026-04-06T08:58:34Z</time></trkpt><trkpt lat="41.02554506663225" lon="15.75286866225247"><ele>291.0</ele><time>2026-04-06T08:58:35Z</time></trkpt><trkpt lat="41.02559511810725" lon="15.752666357166401"><ele>290.0</ele><time>2026-04-06T08:58:36Z</time></trkpt><trkpt lat="41.025671286618625" lon="15.752472036224534"><ele>289.0</ele><time>2026-04-06T08:58:37Z</time></trkpt><trkpt lat="41.025737525859164" lon="15.752289737038678"><ele>288.0</ele><time>2026-04-06T08:58:38Z</time></trkpt><trkpt lat="41.02576597818025" lon="15.752116598821225"><ele>288.0</ele><time>2026-04-06T08:58:39Z</time></trkpt><trkpt lat="41.02576783803102" lon="15.75192777820136"><ele>288.0</ele><time>2026-04-06T08:58:40Z</time></trkpt><trkpt lat="41.02573948975773" lon="15.75171997511246"><ele>288.0</ele><time>2026-04-06T08:58:41Z</time></trkpt><trkpt lat="41.025693298077485" lon="15.751514787699627"><ele>288.0</ele><time>2026-04-06T08:58:42Z</time></trkpt><trkpt lat="41.025649330258375" lon="15.751298805782834"><ele>288.0</ele><time>2026-04-06T08:58:43Z</time></trkpt><trkpt lat="41.02560900505611" lon="15.751082284591758"><ele>288.0</ele><time>2026-04-06T08:58:44Z</time></trkpt><trkpt lat="41.02557485848525" lon="15.750884320222053"><ele>286.5</ele><time>2026-04-06T08:58:45Z</time></trkpt><trkpt lat="41.02554019400799" lon="15.750716652740687"><ele>285.0</ele><time>2026-04-06T08:58:46Z</time></trkpt><trkpt lat="41.02549673147899" lon="15.750573936370872"><ele>283.5</ele><time>2026-04-06T08:58:47Z</time></trkpt><trkpt lat="41.02543198777198" lon="15.750454088337687"><ele>282.0</ele><time>2026-04-06T08:58:48Z</time></trkpt><trkpt lat="41.02533301971213" lon="15.750376335987573"><ele>282.0</ele><time>2026-04-06T08:58:49Z</time></trkpt><trkpt lat="41.02522476787575" lon="15.750345761161011"><ele>282.0</ele><time>2026-04-06T08:58:50Z</time></trkpt><trkpt lat="41.025091063193244" lon="15.750344632803905"><ele>282.0</ele><time>2026-04-06T08:58:51Z</time></trkpt><trkpt lat="41.02495144096539" lon="15.750325553298948"><ele>282.0</ele><time>2026-04-06T08:58:52Z</time></trkpt><trkpt lat="41.024817794861704" lon="15.750233098373785"><ele>279.6666666666667</ele><time>2026-04-06T08:58:53Z</time></trkpt><trkpt lat="41.024682755705726" lon="15.75011364270023"><ele>277.33333333333337</ele><time>2026-04-06T08:58:54Z</time></trkpt><trkpt lat="41.024551091831654" lon="15.749967693329722"><ele>275.0</ele><time>2026-04-06T08:58:55Z</time></trkpt><trkpt lat="41.02441686372497" lon="15.749820899624055"><ele>275.0</ele><time>2026-04-06T08:58:56Z</time></trkpt><trkpt lat="41.02430558960979" lon="15.749667281089767"><ele>275.0</ele><time>2026-04-06T08:58:57Z</time></trkpt><trkpt lat="41.0242047961483" lon="15.749543738224505"><ele>275.0</ele><time>2026-04-06T08:58:58Z</time></trkpt><trkpt lat="41.024094872143706" lon="15.74946506106968"><ele>275.0</ele><time>2026-04-06T08:58:59Z</time></trkpt><trkpt lat="41.02396028577099" lon="15.74942932658988"><ele>276.33333333333337</ele><time>2026-04-06T08:59:00Z</time></trkpt><trkpt lat="41.02381132539227" lon="15.749439863423172"><ele>277.6666666666667</ele><time>2026-04-06T08:59:01Z</time></trkpt><trkpt lat="41.023660613533984" lon="15.749484893759629"><ele>279.0</ele><time>2026-04-06T08:59:02Z</time></trkpt><trkpt lat="41.02351788405201" lon="15.749528460281105"><ele>279.0</ele><time>2026-04-06T08:59:03Z</time></trkpt><trkpt lat="41.02339748864116" lon="15.749521277111397"><ele>279.0</ele><time>2026-04-06T08:59:04Z</time></trkpt><trkpt lat="41.02329510378711" lon="15.749457482994101"><ele>279.0</ele><time>2026-04-06T08:59:05Z</time></trkpt><trkpt lat="41.02323823443496" lon="15.749326003827282"><ele>279.0</ele><time>2026-04-06T08:59:06Z</time></trkpt><trkpt lat="41.02317424397388" lon="15.74918510886632"><ele>279.0</ele><time>2026-04-06T08:59:07Z</time></trkpt><trkpt lat="41.02308804999577" lon="15.749036831884835"><ele>279.0</ele><time>2026-04-06T08:59:08Z</time></trkpt><trkpt lat="41.02299198109097" lon="15.748881798411496"><ele>279.0</ele><time>2026-04-06T08:59:09Z</time></trkpt><trkpt lat="41.02286562345994" lon="15.74874615664276"><ele>279.0</ele><time>2026-04-06T08:59:10Z</time></trkpt><trkpt lat="41.022723840285416" lon="15.748615190905136"><ele>279.0</ele><time>2026-04-06T08:59:11Z</time></trkpt><trkpt lat="41.0225922975871" lon="15.748471763603787"><ele>279.0</ele><time>2026-04-06T08:59:12Z</time></trkpt><trkpt lat="41.02248437412424" lon="15.74829619690917"><ele>278.3333333333333</ele><time>2026-04-06T08:59:13Z</time></trkpt><trkpt lat="41.0223925201587" lon="15.748108239456043"><ele>277.66666666666663</ele><time>2026-04-06T08:59:14Z</time></trkpt><trkpt lat="41.022282859285745" lon="15.747938133077243"><ele>277.0</ele><time>2026-04-06T08:59:15Z</time></trkpt><trkpt lat="41.02215630665511" lon="15.747795614465954"><ele>271.66666666666663</ele><time>2026-04-06T08:59:16Z</time></trkpt><trkpt lat="41.0220296974226" lon="15.747672948469017"><ele>266.3333333333333</ele><time>2026-04-06T08:59:17Z</time></trkpt><trkpt lat="41.02190131717357" lon="15.747580891172808"><ele>261.0</ele><time>2026-04-06T08:59:18Z</time></trkpt><trkpt lat="41.02175410666062" lon="15.747528820517152"><ele>263.6666666666667</ele><time>2026-04-06T08:59:19Z</time></trkpt><trkpt lat="41.02158639698938" lon="15.747491458000265"><ele>266.33333333333337</ele><time>2026-04-06T08:59:20Z</time></trkpt><trkpt lat="41.02141875206964" lon="15.747417826225453"><ele>269.0</ele><time>2026-04-06T08:59:21Z</time></trkpt><trkpt lat="41.021267800932314" lon="15.747326162795682"><ele>269.0</ele><time>2026-04-06T08:59:22Z</time></trkpt><trkpt lat="41.02113052738955" lon="15.747209904315891"><ele>269.0</ele><time>2026-04-06T08:59:23Z</time></trkpt><trkpt lat="41.02100698519759" lon="15.747063452921294"><ele>269.0</ele><time>2026-04-06T08:59:24Z</time></trkpt><trkpt lat="41.02090324920194" lon="15.746903848499224"><ele>264.25</ele><time>2026-04-06T08:59:25Z</time></trkpt><trkpt lat="41.020795123469085" lon="15.746766974554212"><ele>259.5</ele><time>2026-04-06T08:59:26Z</time></trkpt><trkpt lat="41.02071730356796" lon="15.74666401000162"><ele>254.75</ele><time>2026-04-06T08:59:27Z</time></trkpt><trkpt lat="41.020627539865885" lon="15.74658159224697"><ele>250.0</ele><time>2026-04-06T08:59:28Z</time></trkpt><trkpt lat="41.02050122452377" lon="15.74659148022023"><ele>250.0</ele><time>2026-04-06T08:59:29Z</time></trkpt><trkpt lat="41.02036971425036" lon="15.746628005943721"><ele>250.0</ele><time>2026-04-06T08:59:30Z</time></trkpt><trkpt lat="41.02023228800892" lon="15.746709789663507"><ele>250.0</ele><time>2026-04-06T08:59:31Z</time></trkpt><trkpt lat="41.02008479560818" lon="15.746790087961982"><ele>250.0</ele><time>2026-04-06T08:59:32Z</time></trkpt><trkpt lat="41.01993861725153" lon="15.746857844271565"><ele>250.0</ele><time>2026-04-06T08:59:33Z</time></trkpt><trkpt lat="41.01977752889422" lon="15.74687220479032"><ele>250.0</ele><time>2026-04-06T08:59:34Z</time></trkpt><trkpt lat="41.0196058734524" lon="15.746860358004062"><ele>250.0</ele><time>2026-04-06T08:59:35Z</time></trkpt><trkpt lat="41.01941505597576" lon="15.746857392527666"><ele>250.0</ele><time>2026-04-06T08:59:36Z</time></trkpt><trkpt lat="41.01922194249361" lon="15.746830319852037"><ele>250.0</ele><time>2026-04-06T08:59:37Z</time></trkpt><trkpt lat="41.019028893850376" lon="15.746815962101044"><ele>250.0</ele><time>2026-04-06T08:59:38Z</time></trkpt><trkpt lat="41.01882020212391" lon="15.74680825356899"><ele>249.66666666666666</ele><time>2026-04-06T08:59:39Z</time></trkpt><trkpt lat="41.018610883956576" lon="15.746773487685562"><ele>249.33333333333331</ele><time>2026-04-06T08:59:40Z</time></trkpt><trkpt lat="41.01840084027548" lon="15.746756904511352"><ele>249.0</ele><time>2026-04-06T08:59:41Z</time></trkpt><trkpt lat="41.018181464516296" lon="15.746739584560077"><ele>245.5</ele><time>2026-04-06T08:59:42Z</time></trkpt><trkpt lat="41.0179633771904" lon="15.74672797368707"><ele>242.0</ele><time>2026-04-06T08:59:43Z</time></trkpt><trkpt lat="41.017725444956575" lon="15.746872983150281"><ele>245.5</ele><time>2026-04-06T08:59:44Z</time></trkpt><trkpt lat="41.01749690296558" lon="15.746914572382714"><ele>249.0</ele><time>2026-04-06T08:59:45Z</time></trkpt><trkpt lat="41.01726894907499" lon="15.746968708214377"><ele>249.0</ele><time>2026-04-06T08:59:46Z</time></trkpt><trkpt lat="41.0170471690553" lon="15.747040006424921"><ele>249.0</ele><time>2026-04-06T08:59:47Z</time></trkpt><trkpt lat="41.01682568080177" lon="15.74711433847665"><ele>244.66666666666669</ele><time>2026-04-06T08:59:48Z</time></trkpt><trkpt lat="41.01661879485548" lon="15.747158867653088"><ele>240.33333333333334</ele><time>2026-04-06T08:59:49Z</time></trkpt><trkpt lat="41.016408570181845" lon="15.747193142356416"><ele>236.0</ele><time>2026-04-06T08:59:50Z</time></trkpt><trkpt lat="41.01620673295493" lon="15.747226971682172"><ele>236.0</ele><time>2026-04-06T08:59:51Z</time></trkpt><trkpt lat="41.016016591342535" lon="15.747261815670404"><ele>236.0</ele><time>2026-04-06T08:59:52Z</time></trkpt><trkpt lat="41.01585707716257" lon="15.747297906097605"><ele>236.0</ele><time>2026-04-06T08:59:53Z</time></trkpt><trkpt lat="41.015702894493714" lon="15.7473529039847"><ele>233.5</ele><time>2026-04-06T08:59:54Z</time></trkpt><trkpt lat="41.015562404516444" lon="15.747437158998043"><ele>231.0</ele><time>2026-04-06T08:59:55Z</time></trkpt><trkpt lat="41.015439617322734" lon="15.747546650761535"><ele>228.5</ele><time>2026-04-06T08:59:56Z</time></trkpt><trkpt lat="41.0153400343572" lon="15.74768189896282"><ele>226.0</ele><time>2026-04-06T08:59:57Z</time></trkpt><trkpt lat="41.01526645316062" lon="15.747841837935772"><ele>226.0</ele><time>2026-04-06T08:59:58Z</time></trkpt><trkpt lat="41.01521622689571" lon="15.74802941632386"><ele>226.0</ele><time>2026-04-06T08:59:59Z</time></trkpt><trkpt lat="41.015185492315766" lon="15.748244956723665"><ele>226.0</ele><time>2026-04-06T09:00:00Z</time></trkpt><trkpt lat="41.015182284011686" lon="15.74845671272127"><ele>228.25</ele><time>2026-04-06T09:00:01Z</time></trkpt><trkpt lat="41.01516917121658" lon="15.748653868758682"><ele>230.5</ele><time>2026-04-06T09:00:02Z</time></trkpt><trkpt lat="41.01514233902945" lon="15.748848771807065"><ele>232.75</ele><time>2026-04-06T09:00:03Z</time></trkpt><trkpt lat="41.01507585562825" lon="15.749016593127028"><ele>235.0</ele><time>2026-04-06T09:00:04Z</time></trkpt><trkpt lat="41.01498073935938" lon="15.749169073186197"><ele>233.33333333333331</ele><time>2026-04-06T09:00:05Z</time></trkpt><trkpt lat="41.01484237490402" lon="15.749272860046185"><ele>231.66666666666669</ele><time>2026-04-06T09:00:06Z</time></trkpt><trkpt lat="41.01469955606563" lon="15.749396048022422"><ele>230.0</ele><time>2026-04-06T09:00:07Z</time></trkpt><trkpt lat="41.01455347741426" lon="15.74954276126927"><ele>230.0</ele><time>2026-04-06T09:00:08Z</time></trkpt><trkpt lat="41.01438922030694" lon="15.749663057572219"><ele>230.0</ele><time>2026-04-06T09:00:09Z</time></trkpt><trkpt lat="41.0142282464865" lon="15.749811584200266"><ele>230.0</ele><time>2026-04-06T09:00:10Z</time></trkpt><trkpt lat="41.01406669399495" lon="15.749981407613236"><ele>228.33333333333334</ele><time>2026-04-06T09:00:11Z</time></trkpt><trkpt lat="41.01389620417085" lon="15.750144826704938"><ele>226.66666666666669</ele><time>2026-04-06T09:00:12Z</time></trkpt><trkpt lat="41.013718212159894" lon="15.750310640515748"><ele>225.0</ele><time>2026-04-06T09:00:13Z</time></trkpt><trkpt lat="41.01354452624421" lon="15.75047645954406"><ele>225.0</ele><time>2026-04-06T09:00:14Z</time></trkpt><trkpt lat="41.01337168365846" lon="15.75064050314541"><ele>225.0</ele><time>2026-04-06T09:00:15Z</time></trkpt><trkpt lat="41.013197084489725" lon="15.750791556366012"><ele>225.0</ele><time>2026-04-06T09:00:16Z</time></trkpt><trkpt lat="41.01302735479667" lon="15.750926037132427"><ele>222.33333333333331</ele><time>2026-04-06T09:00:17Z</time></trkpt><trkpt lat="41.01286317534428" lon="15.751066894502802"><ele>219.66666666666666</ele><time>2026-04-06T09:00:18Z</time></trkpt><trkpt lat="41.0127165225768" lon="15.751208083896918"><ele>217.0</ele><time>2026-04-06T09:00:19Z</time></trkpt><trkpt lat="41.01259644007296" lon="15.751368733960964"><ele>217.0</ele><time>2026-04-06T09:00:20Z</time></trkpt><trkpt lat="41.01250494733009" lon="15.75154954077392"><ele>217.0</ele><time>2026-04-06T09:00:21Z</time></trkpt><trkpt lat="41.012439161449926" lon="15.751732169236863"><ele>217.0</ele><time>2026-04-06T09:00:22Z</time></trkpt><trkpt lat="41.012371396104626" lon="15.751894196321565"><ele>213.75</ele><time>2026-04-06T09:00:23Z</time></trkpt><trkpt lat="41.01228320574364" lon="15.752010792142613"><ele>210.5</ele><time>2026-04-06T09:00:24Z</time></trkpt><trkpt lat="41.01216409298807" lon="15.752064106697048"><ele>207.25</ele><time>2026-04-06T09:00:25Z</time></trkpt><trkpt lat="41.01203438047685" lon="15.752077776478018"><ele>204.0</ele><time>2026-04-06T09:00:26Z</time></trkpt><trkpt lat="41.011887451985736" lon="15.752059547233067"><ele>204.0</ele><time>2026-04-06T09:00:27Z</time></trkpt><trkpt lat="41.011735440697414" lon="15.752012407787594"><ele>204.0</ele><time>2026-04-06T09:00:28Z</time></trkpt><trkpt lat="41.01155709519405" lon="15.751969610355358"><ele>204.0</ele><time>2026-04-06T09:00:29Z</time></trkpt><trkpt lat="41.01137732434355" lon="15.751905939978762"><ele>203.66666666666669</ele><time>2026-04-06T09:00:30Z</time></trkpt><trkpt lat="41.011188470891845" lon="15.75185695845125"><ele>203.33333333333334</ele><time>2026-04-06T09:00:31Z</time></trkpt><trkpt lat="41.01099298680364" lon="15.751801036616994"><ele>203.0</ele><time>2026-04-06T09:00:32Z</time></trkpt><trkpt lat="41.010801267060096" lon="15.751738857420644"><ele>201.66666666666669</ele><time>2026-04-06T09:00:33Z</time></trkpt><trkpt lat="41.01061851876155" lon="15.751682552540405"><ele>200.33333333333331</ele><time>2026-04-06T09:00:34Z</time></trkpt><trkpt lat="41.01045102663685" lon="15.751602924397103"><ele>199.0</ele><time>2026-04-06T09:00:35Z</time></trkpt><trkpt lat="41.01027811710728" lon="15.751520943055983"><ele>199.0</ele><time>2026-04-06T09:00:36Z</time></trkpt><trkpt lat="41.01009375723178" lon="15.751422497534529"><ele>199.0</ele><time>2026-04-06T09:00:37Z</time></trkpt><trkpt lat="41.00990467441768" lon="15.751337039930245"><ele>199.0</ele><time>2026-04-06T09:00:38Z</time></trkpt><trkpt lat="41.009716590912895" lon="15.751236069705149"><ele>199.66666666666666</ele><time>2026-04-06T09:00:39Z</time></trkpt><trkpt lat="41.009527258703166" lon="15.751120223224468"><ele>200.33333333333331</ele><time>2026-04-06T09:00:40Z</time></trkpt><trkpt lat="41.00935040148862" lon="15.75102611598911"><ele>201.0</ele><time>2026-04-06T09:00:41Z</time></trkpt><trkpt lat="41.00917502525289" lon="15.75095571253522"><ele>205.33333333333331</ele><time>2026-04-06T09:00:42Z</time></trkpt><trkpt lat="41.009022594436054" lon="15.750843342720994"><ele>209.66666666666666</ele><time>2026-04-06T09:00:43Z</time></trkpt><trkpt lat="41.00886595137521" lon="15.750730482658426"><ele>214.0</ele><time>2026-04-06T09:00:44Z</time></trkpt><trkpt lat="41.008748512087685" lon="15.750556134418275"><ele>214.0</ele><time>2026-04-06T09:00:45Z</time></trkpt><trkpt lat="41.008623714059624" lon="15.750398521274033"><ele>214.0</ele><time>2026-04-06T09:00:46Z</time></trkpt><trkpt lat="41.0085378142575" lon="15.750241145800798"><ele>214.0</ele><time>2026-04-06T09:00:47Z</time></trkpt><trkpt lat="41.00847322836251" lon="15.750123170327283"><ele>214.0</ele><time>2026-04-06T09:00:48Z</time></trkpt><trkpt lat="41.008427315226264" lon="15.750024091165606"><ele>214.25</ele><time>2026-04-06T09:00:49Z</time></trkpt><trkpt lat="41.00838141057784" lon="15.7499012786404"><ele>214.5</ele><time>2026-04-06T09:00:50Z</time></trkpt><trkpt lat="41.008345353160614" lon="15.749739488082337"><ele>214.75</ele><time>2026-04-06T09:00:51Z</time></trkpt><trkpt lat="41.00832421653086" lon="15.749552154411742"><ele>215.0</ele><time>2026-04-06T09:00:52Z</time></trkpt><trkpt lat="41.00830068576906" lon="15.749353862375898"><ele>220.66666666666669</ele><time>2026-04-06T09:00:53Z</time></trkpt><trkpt lat="41.008272513702096" lon="15.749156912940974"><ele>226.33333333333331</ele><time>2026-04-06T09:00:54Z</time></trkpt><trkpt lat="41.00823858974407" lon="15.748946494329337"><ele>232.0</ele><time>2026-04-06T09:00:55Z</time></trkpt><trkpt lat="41.0082086731168" lon="15.748731069490859"><ele>230.33333333333331</ele><time>2026-04-06T09:00:56Z</time></trkpt><trkpt lat="41.00818423214395" lon="15.74850558686981"><ele>228.66666666666669</ele><time>2026-04-06T09:00:57Z</time></trkpt><trkpt lat="41.00815736554325" lon="15.748269188792618"><ele>227.0</ele><time>2026-04-06T09:00:58Z</time></trkpt><trkpt lat="41.00812586484024" lon="15.748032426237806"><ele>227.0</ele><time>2026-04-06T09:00:59Z</time></trkpt><trkpt lat="41.008094859386595" lon="15.747789427995464"><ele>227.0</ele><time>2026-04-06T09:01:00Z</time></trkpt><trkpt lat="41.0080746591635" lon="15.747535493145516"><ele>227.0</ele><time>2026-04-06T09:01:01Z</time></trkpt><trkpt lat="41.00806908950659" lon="15.747282570477685"><ele>225.33333333333334</ele><time>2026-04-06T09:01:02Z</time></trkpt><trkpt lat="41.00806789388402" lon="15.747016460115756"><ele>223.66666666666669</ele><time>2026-04-06T09:01:03Z</time></trkpt><trkpt lat="41.00807097434801" lon="15.746749426754096"><ele>222.0</ele><time>2026-04-06T09:01:04Z</time></trkpt><trkpt lat="41.00807301009648" lon="15.746475075203909"><ele>221.0</ele><time>2026-04-06T09:01:05Z</time></trkpt><trkpt lat="41.00807525456147" lon="15.746200058973638"><ele>220.0</ele><time>2026-04-06T09:01:06Z</time></trkpt><trkpt lat="41.008077470915744" lon="15.745932019699824"><ele>219.0</ele><time>2026-04-06T09:01:07Z</time></trkpt><trkpt lat="41.008076011905956" lon="15.74564716587485"><ele>219.0</ele><time>2026-04-06T09:01:08Z</time></trkpt><trkpt lat="41.0080773012206" lon="15.745365024566489"><ele>219.0</ele><time>2026-04-06T09:01:09Z</time></trkpt><trkpt lat="41.00807973306902" lon="15.74508173484208"><ele>219.0</ele><time>2026-04-06T09:01:10Z</time></trkpt><trkpt lat="41.00808077233127" lon="15.74480263994743"><ele>219.0</ele><time>2026-04-06T09:01:11Z</time></trkpt><trkpt lat="41.008077201046795" lon="15.7445174406231"><ele>219.0</ele><time>2026-04-06T09:01:12Z</time></trkpt><trkpt lat="41.00807969810322" lon="15.744226881946044"><ele>219.0</ele><time>2026-04-06T09:01:13Z</time></trkpt><trkpt lat="41.00809358328981" lon="15.743939459733015"><ele>219.0</ele><time>2026-04-06T09:01:14Z</time></trkpt><trkpt lat="41.00811384813333" lon="15.743649084750274"><ele>219.0</ele><time>2026-04-06T09:01:15Z</time></trkpt><trkpt lat="41.008136363304516" lon="15.743353878316011"><ele>219.0</ele><time>2026-04-06T09:01:16Z</time></trkpt><trkpt lat="41.00816286597341" lon="15.74306214333426"><ele>219.0</ele><time>2026-04-06T09:01:17Z</time></trkpt><trkpt lat="41.00819466748063" lon="15.742760054457923"><ele>219.0</ele><time>2026-04-06T09:01:18Z</time></trkpt><trkpt lat="41.008223275335546" lon="15.742458497053583"><ele>218.66666666666669</ele><time>2026-04-06T09:01:19Z</time></trkpt><trkpt lat="41.00824614853137" lon="15.742163958852473"><ele>218.33333333333334</ele><time>2026-04-06T09:01:20Z</time></trkpt><trkpt lat="41.008271372799655" lon="15.741868299823617"><ele>218.0</ele><time>2026-04-06T09:01:21Z</time></trkpt><trkpt lat="41.00830104909512" lon="15.74156981785093"><ele>217.0</ele><time>2026-04-06T09:01:22Z</time></trkpt><trkpt lat="41.00832676184343" lon="15.741273826265022"><ele>216.0</ele><time>2026-04-06T09:01:23Z</time></trkpt><trkpt lat="41.008347802796806" lon="15.740975281951831"><ele>215.66666666666669</ele><time>2026-04-06T09:01:24Z</time></trkpt><trkpt lat="41.00837096923155" lon="15.740689193314596"><ele>215.33333333333334</ele><time>2026-04-06T09:01:25Z</time></trkpt><trkpt lat="41.008397898356804" lon="15.740396533113785"><ele>215.0</ele><time>2026-04-06T09:01:26Z</time></trkpt><trkpt lat="41.00842894106291" lon="15.74010363062541"><ele>215.0</ele><time>2026-04-06T09:01:27Z</time></trkpt><trkpt lat="41.00845750439578" lon="15.739806420354537"><ele>215.0</ele><time>2026-04-06T09:01:28Z</time></trkpt><trkpt lat="41.008481593583866" lon="15.739515231550769"><ele>215.0</ele><time>2026-04-06T09:01:29Z</time></trkpt><trkpt lat="41.00850341144981" lon="15.739212416527746"><ele>214.66666666666669</ele><time>2026-04-06T09:01:30Z</time></trkpt><trkpt lat="41.008529126444635" lon="15.738919934468466"><ele>214.33333333333331</ele><time>2026-04-06T09:01:31Z</time></trkpt><trkpt lat="41.008554390649195" lon="15.738630096933393"><ele>214.0</ele><time>2026-04-06T09:01:32Z</time></trkpt><trkpt lat="41.00857970466506" lon="15.738348529149173"><ele>213.33333333333331</ele><time>2026-04-06T09:01:33Z</time></trkpt><trkpt lat="41.00860603270642" lon="15.738062782005285"><ele>212.66666666666669</ele><time>2026-04-06T09:01:34Z</time></trkpt><trkpt lat="41.00863019865819" lon="15.737793935140786"><ele>212.0</ele><time>2026-04-06T09:01:35Z</time></trkpt><trkpt lat="41.008651322179425" lon="15.737523570849284"><ele>212.0</ele><time>2026-04-06T09:01:36Z</time></trkpt><trkpt lat="41.00867091749715" lon="15.73726619249891"><ele>212.0</ele><time>2026-04-06T09:01:37Z</time></trkpt><trkpt lat="41.00868344941729" lon="15.737019662162979"><ele>212.0</ele><time>2026-04-06T09:01:38Z</time></trkpt><trkpt lat="41.00867966680566" lon="15.736789359788457"><ele>211.66666666666669</ele><time>2026-04-06T09:01:39Z</time></trkpt><trkpt lat="41.00865308558412" lon="15.736566182546053"><ele>211.33333333333331</ele><time>2026-04-06T09:01:40Z</time></trkpt><trkpt lat="41.00860490839394" lon="15.736354773724859"><ele>211.0</ele><time>2026-04-06T09:01:41Z</time></trkpt><trkpt lat="41.008530503889105" lon="15.736158051530085"><ele>211.33333333333331</ele><time>2026-04-06T09:01:42Z</time></trkpt><trkpt lat="41.00843355124056" lon="15.73597831118824"><ele>211.66666666666669</ele><time>2026-04-06T09:01:43Z</time></trkpt><trkpt lat="41.0083127254773" lon="15.735813241919384"><ele>212.0</ele><time>2026-04-06T09:01:44Z</time></trkpt><trkpt lat="41.00816860740012" lon="15.73565811959088"><ele>212.66666666666669</ele><time>2026-04-06T09:01:45Z</time></trkpt><trkpt lat="41.008017537711424" lon="15.735509969227543"><ele>213.33333333333331</ele><time>2026-04-06T09:01:46Z</time></trkpt><trkpt lat="41.00787464274733" lon="15.735358503966594"><ele>214.0</ele><time>2026-04-06T09:01:47Z</time></trkpt><trkpt lat="41.00772844126604" lon="15.73519694569256"><ele>214.0</ele><time>2026-04-06T09:01:48Z</time></trkpt><trkpt lat="41.00758021920422" lon="15.73503608099994"><ele>214.0</ele><time>2026-04-06T09:01:49Z</time></trkpt><trkpt lat="41.00743180173253" lon="15.734877953897382"><ele>214.0</ele><time>2026-04-06T09:01:50Z</time></trkpt><trkpt lat="41.00727464978036" lon="15.73470399853304"><ele>215.33333333333331</ele><time>2026-04-06T09:01:51Z</time></trkpt><trkpt lat="41.007121280063416" lon="15.73453387488134"><ele>216.66666666666669</ele><time>2026-04-06T09:01:52Z</time></trkpt><trkpt lat="41.006970284036214" lon="15.734362756349759"><ele>218.0</ele><time>2026-04-06T09:01:53Z</time></trkpt><trkpt lat="41.00681746522214" lon="15.734186575990499"><ele>218.0</ele><time>2026-04-06T09:01:54Z</time></trkpt><trkpt lat="41.00667365607093" lon="15.734013241595624"><ele>218.0</ele><time>2026-04-06T09:01:55Z</time></trkpt><trkpt lat="41.00652786129221" lon="15.73382406365014"><ele>218.0</ele><time>2026-04-06T09:01:56Z</time></trkpt><trkpt lat="41.00638813277896" lon="15.733634225221234"><ele>220.0</ele><time>2026-04-06T09:01:57Z</time></trkpt><trkpt lat="41.006246323396645" lon="15.733445438574313"><ele>222.0</ele><time>2026-04-06T09:01:58Z</time></trkpt><trkpt lat="41.0060936148024" lon="15.733274195441032"><ele>224.0</ele><time>2026-04-06T09:01:59Z</time></trkpt><trkpt lat="41.00592801320764" lon="15.733123860754256"><ele>226.66666666666669</ele><time>2026-04-06T09:02:00Z</time></trkpt><trkpt lat="41.005760410002175" lon="15.732973397225855"><ele>229.33333333333331</ele><time>2026-04-06T09:02:01Z</time></trkpt><trkpt lat="41.005601175191266" lon="15.732813755869921"><ele>232.0</ele><time>2026-04-06T09:02:02Z</time></trkpt><trkpt lat="41.005443122573055" lon="15.732650900094113"><ele>232.0</ele><time>2026-04-06T09:02:03Z</time></trkpt><trkpt lat="41.005297078194424" lon="15.732486936602053"><ele>232.0</ele><time>2026-04-06T09:02:04Z</time></trkpt><trkpt lat="41.00515804269902" lon="15.732300966129058"><ele>232.0</ele><time>2026-04-06T09:02:05Z</time></trkpt><trkpt lat="41.00503721644515" lon="15.732101732564814"><ele>235.0</ele><time>2026-04-06T09:02:06Z</time></trkpt><trkpt lat="41.00493384753931" lon="15.731909971364908"><ele>238.0</ele><time>2026-04-06T09:02:07Z</time></trkpt><trkpt lat="41.00483320561819" lon="15.73174051685042"><ele>241.0</ele><time>2026-04-06T09:02:08Z</time></trkpt><trkpt lat="41.00474245484064" lon="15.731578601598073"><ele>241.0</ele><time>2026-04-06T09:02:09Z</time></trkpt><trkpt lat="41.00467899907994" lon="15.731416471240312"><ele>241.0</ele><time>2026-04-06T09:02:10Z</time></trkpt><trkpt lat="41.004586047225956" lon="15.731238476437252"><ele>241.0</ele><time>2026-04-06T09:02:11Z</time></trkpt><trkpt lat="41.004511629421096" lon="15.731050825185255"><ele>240.33333333333331</ele><time>2026-04-06T09:02:12Z</time></trkpt><trkpt lat="41.00443617830732" lon="15.730860223364735"><ele>239.66666666666669</ele><time>2026-04-06T09:02:13Z</time></trkpt><trkpt lat="41.0043602634714" lon="15.730664370451276"><ele>239.0</ele><time>2026-04-06T09:02:14Z</time></trkpt><trkpt lat="41.00427407032939" lon="15.73047112012517"><ele>239.0</ele><time>2026-04-06T09:02:15Z</time></trkpt><trkpt lat="41.004175576766315" lon="15.730284463689035"><ele>239.0</ele><time>2026-04-06T09:02:16Z</time></trkpt><trkpt lat="41.00406306922508" lon="15.730111625457639"><ele>239.0</ele><time>2026-04-06T09:02:17Z</time></trkpt><trkpt lat="41.003938169188466" lon="15.729968528192174"><ele>243.66666666666669</ele><time>2026-04-06T09:02:18Z</time></trkpt><trkpt lat="41.00378895286295" lon="15.729833765382265"><ele>248.33333333333331</ele><time>2026-04-06T09:02:19Z</time></trkpt><trkpt lat="41.00364214068384" lon="15.729714057441479"><ele>253.0</ele><time>2026-04-06T09:02:20Z</time></trkpt><trkpt lat="41.00350722303761" lon="15.729583879447494"><ele>253.0</ele><time>2026-04-06T09:02:21Z</time></trkpt><trkpt lat="41.003375270623735" lon="15.729432269566233"><ele>253.0</ele><time>2026-04-06T09:02:22Z</time></trkpt><trkpt lat="41.00326416830548" lon="15.729285973466842"><ele>253.0</ele><time>2026-04-06T09:02:23Z</time></trkpt><trkpt lat="41.003158151600445" lon="15.729145948875814"><ele>256.25</ele><time>2026-04-06T09:02:24Z</time></trkpt><trkpt lat="41.003058848079654" lon="15.729018172451143"><ele>259.5</ele><time>2026-04-06T09:02:25Z</time></trkpt><trkpt lat="41.00296492984557" lon="15.728879150918996"><ele>262.75</ele><time>2026-04-06T09:02:26Z</time></trkpt><trkpt lat="41.002889615782095" lon="15.728745470431413"><ele>266.0</ele><time>2026-04-06T09:02:27Z</time></trkpt><trkpt lat="41.00281534189506" lon="15.728613087526185"><ele>265.0</ele><time>2026-04-06T09:02:28Z</time></trkpt><trkpt lat="41.00274222749428" lon="15.728474458651405"><ele>264.0</ele><time>2026-04-06T09:02:29Z</time></trkpt><trkpt lat="41.002675938768995" lon="15.728340839018083"><ele>263.0</ele><time>2026-04-06T09:02:30Z</time></trkpt><trkpt lat="41.002609467280216" lon="15.72820702378173"><ele>262.0</ele><time>2026-04-06T09:02:31Z</time></trkpt><trkpt lat="41.00255734041313" lon="15.728076580322602"><ele>262.0</ele><time>2026-04-06T09:02:32Z</time></trkpt><trkpt lat="41.00251786262437" lon="15.72793531573047"><ele>262.0</ele><time>2026-04-06T09:02:33Z</time></trkpt><trkpt lat="41.00249651788172" lon="15.727788641233758"><ele>262.0</ele><time>2026-04-06T09:02:34Z</time></trkpt><trkpt lat="41.002494085238396" lon="15.727638895319705"><ele>262.0</ele><time>2026-04-06T09:02:35Z</time></trkpt><trkpt lat="41.00251662101557" lon="15.727486819097416"><ele>262.0</ele><time>2026-04-06T09:02:36Z</time></trkpt><trkpt lat="41.00256560600515" lon="15.727340171309493"><ele>262.0</ele><time>2026-04-06T09:02:37Z</time></trkpt><trkpt lat="41.00263685293167" lon="15.727201082517395"><ele>262.0</ele><time>2026-04-06T09:02:38Z</time></trkpt><trkpt lat="41.00272029597078" lon="15.72705308514809"><ele>262.0</ele><time>2026-04-06T09:02:39Z</time></trkpt><trkpt lat="41.00279730339416" lon="15.726897225761991"><ele>261.66666666666663</ele><time>2026-04-06T09:02:40Z</time></trkpt><trkpt lat="41.002866717634035" lon="15.726743350981232"><ele>261.3333333333333</ele><time>2026-04-06T09:02:41Z</time></trkpt><trkpt lat="41.00294041688063" lon="15.726549535331324"><ele>261.0</ele><time>2026-04-06T09:02:42Z</time></trkpt><trkpt lat="41.0030017267314" lon="15.726342502592434"><ele>261.0</ele><time>2026-04-06T09:02:43Z</time></trkpt><trkpt lat="41.00306938209908" lon="15.726182378484118"><ele>261.0</ele><time>2026-04-06T09:02:44Z</time></trkpt><trkpt lat="41.003115544909974" lon="15.725978583039382"><ele>261.0</ele><time>2026-04-06T09:02:45Z</time></trkpt><trkpt lat="41.003151604104616" lon="15.725784123651879"><ele>259.25</ele><time>2026-04-06T09:02:46Z</time></trkpt><trkpt lat="41.00318263508073" lon="15.72560248983848"><ele>257.5</ele><time>2026-04-06T09:02:47Z</time></trkpt><trkpt lat="41.003211152876894" lon="15.725442596156872"><ele>255.75</ele><time>2026-04-06T09:02:48Z</time></trkpt><trkpt lat="41.003240784966074" lon="15.72528346669111"><ele>254.0</ele><time>2026-04-06T09:02:49Z</time></trkpt><trkpt lat="41.00326097846316" lon="15.725137107060336"><ele>252.2</ele><time>2026-04-06T09:02:50Z</time></trkpt><trkpt lat="41.00325350501243" lon="15.724999754832968"><ele>250.39999999999998</ele><time>2026-04-06T09:02:51Z</time></trkpt><trkpt lat="41.003218131286374" lon="15.724873893767734"><ele>248.6</ele><time>2026-04-06T09:02:52Z</time></trkpt><trkpt lat="41.003146154517204" lon="15.724770145515665"><ele>246.8</ele><time>2026-04-06T09:02:53Z</time></trkpt><trkpt lat="41.00305556878705" lon="15.724687770933292"><ele>245.0</ele><time>2026-04-06T09:02:54Z</time></trkpt><trkpt lat="41.00294872745185" lon="15.724647802564558"><ele>245.0</ele><time>2026-04-06T09:02:55Z</time></trkpt><trkpt lat="41.00283558125987" lon="15.724650980097381"><ele>245.0</ele><time>2026-04-06T09:02:56Z</time></trkpt><trkpt lat="41.002725329965656" lon="15.724692979604473"><ele>245.0</ele><time>2026-04-06T09:02:57Z</time></trkpt><trkpt lat="41.00262354624885" lon="15.72477918681402"><ele>245.0</ele><time>2026-04-06T09:02:58Z</time></trkpt><trkpt lat="41.00252604994789" lon="15.724912589491712"><ele>243.5</ele><time>2026-04-06T09:02:59Z</time></trkpt><trkpt lat="41.00242320922594" lon="15.72505567980003"><ele>242.0</ele><time>2026-04-06T09:03:00Z</time></trkpt><trkpt lat="41.002325219710784" lon="15.725168034488282"><ele>240.5</ele><time>2026-04-06T09:03:01Z</time></trkpt><trkpt lat="41.002212117426865" lon="15.725227075079282"><ele>239.0</ele><time>2026-04-06T09:03:02Z</time></trkpt><trkpt lat="41.00210537617006" lon="15.725253733676503"><ele>239.0</ele><time>2026-04-06T09:03:03Z</time></trkpt><trkpt lat="41.00200077653708" lon="15.725221967705801"><ele>239.0</ele><time>2026-04-06T09:03:04Z</time></trkpt><trkpt lat="41.00187663244566" lon="15.725169929159435"><ele>239.0</ele><time>2026-04-06T09:03:05Z</time></trkpt><trkpt lat="41.00173227866974" lon="15.725108759276083"><ele>239.0</ele><time>2026-04-06T09:03:06Z</time></trkpt><trkpt lat="41.001585657299735" lon="15.72504395520866"><ele>241.0</ele><time>2026-04-06T09:03:07Z</time></trkpt><trkpt lat="41.001425915642365" lon="15.72497302510543"><ele>243.0</ele><time>2026-04-06T09:03:08Z</time></trkpt><trkpt lat="41.00125688522713" lon="15.724893210963353"><ele>245.0</ele><time>2026-04-06T09:03:09Z</time></trkpt><trkpt lat="41.00108849912614" lon="15.724789639548952"><ele>245.0</ele><time>2026-04-06T09:03:10Z</time></trkpt><trkpt lat="41.00092226231442" lon="15.72466191140722"><ele>245.0</ele><time>2026-04-06T09:03:11Z</time></trkpt><trkpt lat="41.000748546375235" lon="15.724523383093551"><ele>245.0</ele><time>2026-04-06T09:03:12Z</time></trkpt><trkpt lat="41.00056850520179" lon="15.724390643863565"><ele>242.33333333333334</ele><time>2026-04-06T09:03:13Z</time></trkpt><trkpt lat="41.00038990935026" lon="15.724255996913127"><ele>239.66666666666669</ele><time>2026-04-06T09:03:14Z</time></trkpt><trkpt lat="41.000222029650196" lon="15.7241396898886"><ele>237.0</ele><time>2026-04-06T09:03:15Z</time></trkpt><trkpt lat="41.00004225095743" lon="15.724031769963979"><ele>237.0</ele><time>2026-04-06T09:03:16Z</time></trkpt><trkpt lat="40.999854154628174" lon="15.723933658374314"><ele>237.0</ele><time>2026-04-06T09:03:17Z</time></trkpt><trkpt lat="40.99966310254775" lon="15.723846664851239"><ele>237.0</ele><time>2026-04-06T09:03:18Z</time></trkpt><trkpt lat="40.99948965271263" lon="15.723760975919726"><ele>237.0</ele><time>2026-04-06T09:03:19Z</time></trkpt><trkpt lat="40.99933552267299" lon="15.72367054241446"><ele>237.0</ele><time>2026-04-06T09:03:20Z</time></trkpt><trkpt lat="40.99918482665123" lon="15.723542252530452"><ele>237.0</ele><time>2026-04-06T09:03:21Z</time></trkpt><trkpt lat="40.99902201785144" lon="15.723444924753736"><ele>235.0</ele><time>2026-04-06T09:03:22Z</time></trkpt><trkpt lat="40.998863522303466" lon="15.723328824800797"><ele>233.0</ele><time>2026-04-06T09:03:23Z</time></trkpt><trkpt lat="40.99868949684514" lon="15.723237250617911"><ele>231.0</ele><time>2026-04-06T09:03:24Z</time></trkpt><trkpt lat="40.99850921803489" lon="15.723139603571195"><ele>232.33333333333331</ele><time>2026-04-06T09:03:25Z</time></trkpt><trkpt lat="40.99831561513292" lon="15.72305016472856"><ele>233.66666666666666</ele><time>2026-04-06T09:03:26Z</time></trkpt><trkpt lat="40.99812489712908" lon="15.722962389340351"><ele>235.0</ele><time>2026-04-06T09:03:27Z</time></trkpt><trkpt lat="40.99792429771233" lon="15.722870957996502"><ele>235.0</ele><time>2026-04-06T09:03:28Z</time></trkpt><trkpt lat="40.99773130409018" lon="15.72278377709097"><ele>235.0</ele><time>2026-04-06T09:03:29Z</time></trkpt><trkpt lat="40.99753392648851" lon="15.722694458076239"><ele>235.0</ele><time>2026-04-06T09:03:30Z</time></trkpt><trkpt lat="40.997330399667455" lon="15.722601912251426"><ele>236.66666666666666</ele><time>2026-04-06T09:03:31Z</time></trkpt><trkpt lat="40.99713279401991" lon="15.722512058716847"><ele>238.33333333333331</ele><time>2026-04-06T09:03:32Z</time></trkpt><trkpt lat="40.99692693394193" lon="15.722418451869746"><ele>240.0</ele><time>2026-04-06T09:03:33Z</time></trkpt><trkpt lat="40.99672691249285" lon="15.72235027947721"><ele>241.0</ele><time>2026-04-06T09:03:34Z</time></trkpt><trkpt lat="40.996517715415536" lon="15.72224968294852"><ele>242.0</ele><time>2026-04-06T09:03:35Z</time></trkpt><trkpt lat="40.99631318213338" lon="15.72216002031536"><ele>243.0</ele><time>2026-04-06T09:03:36Z</time></trkpt><trkpt lat="40.99611106361272" lon="15.722049232851303"><ele>243.0</ele><time>2026-04-06T09:03:37Z</time></trkpt><trkpt lat="40.99590883236868" lon="15.721958220202493"><ele>243.0</ele><time>2026-04-06T09:03:38Z</time></trkpt><trkpt lat="40.99570468984265" lon="15.721866347316155"><ele>243.0</ele><time>2026-04-06T09:03:39Z</time></trkpt><trkpt lat="40.99550932039465" lon="15.721778422797245"><ele>241.66666666666669</ele><time>2026-04-06T09:03:40Z</time></trkpt><trkpt lat="40.995323172422985" lon="15.721693356654526"><ele>240.33333333333334</ele><time>2026-04-06T09:03:41Z</time></trkpt><trkpt lat="40.995155070830634" lon="15.721615700085586"><ele>239.0</ele><time>2026-04-06T09:03:42Z</time></trkpt><trkpt lat="40.99499911537188" lon="15.72155235784862"><ele>239.0</ele><time>2026-04-06T09:03:43Z</time></trkpt><trkpt lat="40.99485121108463" lon="15.721440958949602"><ele>239.0</ele><time>2026-04-06T09:03:44Z</time></trkpt><trkpt lat="40.99471885099771" lon="15.721288081294961"><ele>239.0</ele><time>2026-04-06T09:03:45Z</time></trkpt><trkpt lat="40.994605211596976" lon="15.721107968613266"><ele>239.0</ele><time>2026-04-06T09:03:46Z</time></trkpt><trkpt lat="40.9945246303111" lon="15.720908867419858"><ele>239.0</ele><time>2026-04-06T09:03:47Z</time></trkpt><trkpt lat="40.99448688231818" lon="15.720678623374173"><ele>239.0</ele><time>2026-04-06T09:03:48Z</time></trkpt><trkpt lat="40.994426892038" lon="15.720456065848339"><ele>239.0</ele><time>2026-04-06T09:03:49Z</time></trkpt><trkpt lat="40.99437832030793" lon="15.720222782375151"><ele>239.0</ele><time>2026-04-06T09:03:50Z</time></trkpt><trkpt lat="40.99431775063552" lon="15.71998773485474"><ele>239.0</ele><time>2026-04-06T09:03:51Z</time></trkpt><trkpt lat="40.99426176609937" lon="15.719754634019763"><ele>239.0</ele><time>2026-04-06T09:03:52Z</time></trkpt><trkpt lat="40.99421243368866" lon="15.719526978867663"><ele>239.0</ele><time>2026-04-06T09:03:53Z</time></trkpt><trkpt lat="40.994153692069055" lon="15.719321962556684"><ele>239.0</ele><time>2026-04-06T09:03:54Z</time></trkpt><trkpt lat="40.9940709256946" lon="15.719131124178388"><ele>240.0</ele><time>2026-04-06T09:03:55Z</time></trkpt><trkpt lat="40.993968704667054" lon="15.71897881309015"><ele>241.0</ele><time>2026-04-06T09:03:56Z</time></trkpt><trkpt lat="40.993847091707984" lon="15.718856411368135"><ele>242.0</ele><time>2026-04-06T09:03:57Z</time></trkpt><trkpt lat="40.99370257744212" lon="15.718761259996237"><ele>242.0</ele><time>2026-04-06T09:03:58Z</time></trkpt><trkpt lat="40.99354465876609" lon="15.71867207312466"><ele>242.0</ele><time>2026-04-06T09:03:59Z</time></trkpt><trkpt lat="40.99339360540627" lon="15.718564794089918"><ele>242.0</ele><time>2026-04-06T09:04:00Z</time></trkpt><trkpt lat="40.993243358569906" lon="15.718432061651809"><ele>243.0</ele><time>2026-04-06T09:04:01Z</time></trkpt><trkpt lat="40.99310140194464" lon="15.718282924241764"><ele>244.0</ele><time>2026-04-06T09:04:02Z</time></trkpt><trkpt lat="40.99295866969939" lon="15.718124305555717"><ele>245.0</ele><time>2026-04-06T09:04:03Z</time></trkpt><trkpt lat="40.9928140329002" lon="15.717962842401812"><ele>245.0</ele><time>2026-04-06T09:04:04Z</time></trkpt><trkpt lat="40.992666513752184" lon="15.717796055132398"><ele>245.0</ele><time>2026-04-06T09:04:05Z</time></trkpt><trkpt lat="40.99251948530749" lon="15.717634869792867"><ele>245.0</ele><time>2026-04-06T09:04:06Z</time></trkpt><trkpt lat="40.99237477119807" lon="15.717472250746026"><ele>245.33333333333334</ele><time>2026-04-06T09:04:07Z</time></trkpt><trkpt lat="40.99222944375972" lon="15.717314898105704"><ele>245.66666666666669</ele><time>2026-04-06T09:04:08Z</time></trkpt><trkpt lat="40.992097809191286" lon="15.717163682278283"><ele>246.0</ele><time>2026-04-06T09:04:09Z</time></trkpt><trkpt lat="40.9919779979936" lon="15.71700617591125"><ele>249.66666666666669</ele><time>2026-04-06T09:04:10Z</time></trkpt><trkpt lat="40.991887816196" lon="15.716813783539669"><ele>253.33333333333334</ele><time>2026-04-06T09:04:11Z</time></trkpt><trkpt lat="40.99179505048836" lon="15.716615297656118"><ele>257.0</ele><time>2026-04-06T09:04:12Z</time></trkpt><trkpt lat="40.9917371197877" lon="15.71638745379011"><ele>257.0</ele><time>2026-04-06T09:04:13Z</time></trkpt><trkpt lat="40.99172121345626" lon="15.716150337376611"><ele>257.0</ele><time>2026-04-06T09:04:14Z</time></trkpt><trkpt lat="40.99172042984246" lon="15.715915836452439"><ele>257.0</ele><time>2026-04-06T09:04:15Z</time></trkpt><trkpt lat="40.99172616688739" lon="15.715692535955208"><ele>259.0</ele><time>2026-04-06T09:04:16Z</time></trkpt><trkpt lat="40.99173277101752" lon="15.71550582929621"><ele>261.0</ele><time>2026-04-06T09:04:17Z</time></trkpt><trkpt lat="40.99173765362782" lon="15.715332150518218"><ele>263.0</ele><time>2026-04-06T09:04:18Z</time></trkpt><trkpt lat="40.991723488386526" lon="15.715186372826492"><ele>265.0</ele><time>2026-04-06T09:04:19Z</time></trkpt><trkpt lat="40.99168444468209" lon="15.715067095141181"><ele>263.5</ele><time>2026-04-06T09:04:20Z</time></trkpt><trkpt lat="40.99161367714392" lon="15.714967932511033"><ele>262.0</ele><time>2026-04-06T09:04:21Z</time></trkpt><trkpt lat="40.9915058778587" lon="15.714892775642921"><ele>260.5</ele><time>2026-04-06T09:04:22Z</time></trkpt><trkpt lat="40.99137624391467" lon="15.714836822536947"><ele>259.0</ele><time>2026-04-06T09:04:23Z</time></trkpt><trkpt lat="40.99124780290703" lon="15.714747618454465"><ele>259.0</ele><time>2026-04-06T09:04:24Z</time></trkpt><trkpt lat="40.991126859374916" lon="15.714671172697246"><ele>259.0</ele><time>2026-04-06T09:04:25Z</time></trkpt><trkpt lat="40.99101092526881" lon="15.714611283262293"><ele>259.0</ele><time>2026-04-06T09:04:26Z</time></trkpt><trkpt lat="40.990891133606404" lon="15.71451682555594"><ele>259.0</ele><time>2026-04-06T09:04:27Z</time></trkpt><trkpt lat="40.99076123732361" lon="15.714418861090948"><ele>258.5</ele><time>2026-04-06T09:04:28Z</time></trkpt><trkpt lat="40.990641232510704" lon="15.714302900829772"><ele>258.0</ele><time>2026-04-06T09:04:29Z</time></trkpt><trkpt lat="40.99053938564859" lon="15.714168682344125"><ele>257.5</ele><time>2026-04-06T09:04:30Z</time></trkpt><trkpt lat="40.99044648288563" lon="15.71403494847039"><ele>257.0</ele><time>2026-04-06T09:04:31Z</time></trkpt><trkpt lat="40.990351062771424" lon="15.713909425039724"><ele>257.0</ele><time>2026-04-06T09:04:32Z</time></trkpt><trkpt lat="40.99024669596468" lon="15.713797782323102"><ele>257.0</ele><time>2026-04-06T09:04:33Z</time></trkpt><trkpt lat="40.990124350811506" lon="15.713695691484102"><ele>257.0</ele><time>2026-04-06T09:04:34Z</time></trkpt><trkpt lat="40.98999690545419" lon="15.71361079667461"><ele>257.0</ele><time>2026-04-06T09:04:35Z</time></trkpt><trkpt lat="40.98986630011181" lon="15.713548379388259"><ele>259.75</ele><time>2026-04-06T09:04:36Z</time></trkpt><trkpt lat="40.989730658298626" lon="15.713499880799537"><ele>262.5</ele><time>2026-04-06T09:04:37Z</time></trkpt><trkpt lat="40.98959433268406" lon="15.7134610476279"><ele>265.25</ele><time>2026-04-06T09:04:38Z</time></trkpt><trkpt lat="40.9894632244878" lon="15.713429946012534"><ele>268.0</ele><time>2026-04-06T09:04:39Z</time></trkpt><trkpt lat="40.989341208931506" lon="15.713406675659346"><ele>268.0</ele><time>2026-04-06T09:04:40Z</time></trkpt><trkpt lat="40.9892263771009" lon="15.713397117832645"><ele>268.0</ele><time>2026-04-06T09:04:41Z</time></trkpt><trkpt lat="40.989106044835665" lon="15.713405587270417"><ele>268.0</ele><time>2026-04-06T09:04:42Z</time></trkpt><trkpt lat="40.9889823807824" lon="15.713419131517833"><ele>268.0</ele><time>2026-04-06T09:04:43Z</time></trkpt><trkpt lat="40.988871457733644" lon="15.713426137069522"><ele>266.0</ele><time>2026-04-06T09:04:44Z</time></trkpt><trkpt lat="40.98875721189707" lon="15.713418601425591"><ele>264.0</ele><time>2026-04-06T09:04:45Z</time></trkpt><trkpt lat="40.988646360312416" lon="15.713398681774004"><ele>262.0</ele><time>2026-04-06T09:04:46Z</time></trkpt><trkpt lat="40.98853176478135" lon="15.713349478244785"><ele>260.0</ele><time>2026-04-06T09:04:47Z</time></trkpt><trkpt lat="40.98842685721816" lon="15.713250309681106"><ele>258.0</ele><time>2026-04-06T09:04:48Z</time></trkpt><trkpt lat="40.98832645603478" lon="15.713108948698775"><ele>256.0</ele><time>2026-04-06T09:04:49Z</time></trkpt><trkpt lat="40.98822504553795" lon="15.712956442799614"><ele>254.0</ele><time>2026-04-06T09:04:50Z</time></trkpt><trkpt lat="40.98810679606159" lon="15.712815441214307"><ele>257.0</ele><time>2026-04-06T09:04:51Z</time></trkpt><trkpt lat="40.9879988208986" lon="15.712643881969148"><ele>260.0</ele><time>2026-04-06T09:04:52Z</time></trkpt><trkpt lat="40.98787950593219" lon="15.712484195992182"><ele>263.0</ele><time>2026-04-06T09:04:53Z</time></trkpt><trkpt lat="40.98775391171631" lon="15.712319926752714"><ele>263.0</ele><time>2026-04-06T09:04:54Z</time></trkpt><trkpt lat="40.98761705290121" lon="15.712161126823867"><ele>263.0</ele><time>2026-04-06T09:04:55Z</time></trkpt><trkpt lat="40.98746682588264" lon="15.712028906036043"><ele>263.0</ele><time>2026-04-06T09:04:56Z</time></trkpt><trkpt lat="40.987320207268944" lon="15.711890227134393"><ele>264.6666666666667</ele><time>2026-04-06T09:04:57Z</time></trkpt><trkpt lat="40.987172233560806" lon="15.711753114637725"><ele>266.3333333333333</ele><time>2026-04-06T09:04:58Z</time></trkpt><trkpt lat="40.98703756313211" lon="15.711611026024487"><ele>268.0</ele><time>2026-04-06T09:04:59Z</time></trkpt><trkpt lat="40.98693662006114" lon="15.711425522195418"><ele>268.0</ele><time>2026-04-06T09:05:00Z</time></trkpt><trkpt lat="40.986832950114234" lon="15.711240408914845"><ele>268.0</ele><time>2026-04-06T09:05:01Z</time></trkpt><trkpt lat="40.98672437976305" lon="15.711036774423881"><ele>268.0</ele><time>2026-04-06T09:05:02Z</time></trkpt><trkpt lat="40.98666696545471" lon="15.71080964586004"><ele>267.0</ele><time>2026-04-06T09:05:03Z</time></trkpt><trkpt lat="40.98661072745732" lon="15.71057216113957"><ele>266.0</ele><time>2026-04-06T09:05:04Z</time></trkpt><trkpt lat="40.98654440493357" lon="15.710330109914906"><ele>265.0</ele><time>2026-04-06T09:05:05Z</time></trkpt><trkpt lat="40.98649824843752" lon="15.71008016915759"><ele>265.0</ele><time>2026-04-06T09:05:06Z</time></trkpt><trkpt lat="40.98644595943963" lon="15.709829794928156"><ele>265.0</ele><time>2026-04-06T09:05:07Z</time></trkpt><trkpt lat="40.98639681948316" lon="15.709579792345671"><ele>265.0</ele><time>2026-04-06T09:05:08Z</time></trkpt><trkpt lat="40.986361069079045" lon="15.709327489801973"><ele>266.66666666666663</ele><time>2026-04-06T09:05:09Z</time></trkpt><trkpt lat="40.98630651109947" lon="15.709072662160404"><ele>268.3333333333333</ele><time>2026-04-06T09:05:10Z</time></trkpt><trkpt lat="40.98625912202063" lon="15.70882254574949"><ele>270.0</ele><time>2026-04-06T09:05:11Z</time></trkpt><trkpt lat="40.986218067971464" lon="15.708582653694426"><ele>273.0</ele><time>2026-04-06T09:05:12Z</time></trkpt><trkpt lat="40.986187674913566" lon="15.708369161707912"><ele>276.0</ele><time>2026-04-06T09:05:13Z</time></trkpt><trkpt lat="40.9861492929154" lon="15.708178279400594"><ele>279.0</ele><time>2026-04-06T09:05:14Z</time></trkpt><trkpt lat="40.986083196776576" lon="15.707999328599017"><ele>279.0</ele><time>2026-04-06T09:05:15Z</time></trkpt><trkpt lat="40.98597703077592" lon="15.70783898217323"><ele>279.0</ele><time>2026-04-06T09:05:16Z</time></trkpt><trkpt lat="40.98584867595839" lon="15.707709370648073"><ele>279.0</ele><time>2026-04-06T09:05:17Z</time></trkpt><trkpt lat="40.98570161672741" lon="15.707591433662824"><ele>279.3333333333333</ele><time>2026-04-06T09:05:18Z</time></trkpt><trkpt lat="40.98554964760934" lon="15.707489755535764"><ele>279.66666666666663</ele><time>2026-04-06T09:05:19Z</time></trkpt><trkpt lat="40.98538719220538" lon="15.707391891532989"><ele>280.0</ele><time>2026-04-06T09:05:20Z</time></trkpt><trkpt lat="40.98523123167212" lon="15.707289876351926"><ele>280.0</ele><time>2026-04-06T09:05:21Z</time></trkpt><trkpt lat="40.985087109644255" lon="15.707194334786584"><ele>280.0</ele><time>2026-04-06T09:05:22Z</time></trkpt><trkpt lat="40.98494436832112" lon="15.707117096156"><ele>280.0</ele><time>2026-04-06T09:05:23Z</time></trkpt><trkpt lat="40.98478927004925" lon="15.707063805330995"><ele>277.3333333333333</ele><time>2026-04-06T09:05:24Z</time></trkpt><trkpt lat="40.984625014107486" lon="15.707055187278316"><ele>274.6666666666667</ele><time>2026-04-06T09:05:25Z</time></trkpt><trkpt lat="40.98444949512303" lon="15.707095570972376"><ele>272.0</ele><time>2026-04-06T09:05:26Z</time></trkpt><trkpt lat="40.984275503530064" lon="15.707169427590715"><ele>272.0</ele><time>2026-04-06T09:05:27Z</time></trkpt><trkpt lat="40.98409809638054" lon="15.707246057326795"><ele>272.0</ele><time>2026-04-06T09:05:28Z</time></trkpt><trkpt lat="40.98390978630616" lon="15.707287576292888"><ele>272.0</ele><time>2026-04-06T09:05:29Z</time></trkpt><trkpt lat="40.98373021271274" lon="15.707356089194679"><ele>272.0</ele><time>2026-04-06T09:05:30Z</time></trkpt><trkpt lat="40.983550695493726" lon="15.707405841281311"><ele>272.0</ele><time>2026-04-06T09:05:31Z</time></trkpt><trkpt lat="40.98339198722182" lon="15.707461771379267"><ele>272.0</ele><time>2026-04-06T09:05:32Z</time></trkpt><trkpt lat="40.98323245350411" lon="15.70750446868609"><ele>273.0</ele><time>2026-04-06T09:05:33Z</time></trkpt><trkpt lat="40.98309908381708" lon="15.707511330688888"><ele>274.0</ele><time>2026-04-06T09:05:34Z</time></trkpt><trkpt lat="40.982993939368846" lon="15.707486500320114"><ele>275.0</ele><time>2026-04-06T09:05:35Z</time></trkpt><trkpt lat="40.982897288193335" lon="15.707416865263577"><ele>276.0</ele><time>2026-04-06T09:05:36Z</time></trkpt><trkpt lat="40.98280933151796" lon="15.707294002824227"><ele>276.0</ele><time>2026-04-06T09:05:37Z</time></trkpt><trkpt lat="40.98277056096256" lon="15.707125290981894"><ele>276.0</ele><time>2026-04-06T09:05:38Z</time></trkpt><trkpt lat="40.98275003570975" lon="15.706942621431537"><ele>276.0</ele><time>2026-04-06T09:05:39Z</time></trkpt><trkpt lat="40.9827312297934" lon="15.706753313991015"><ele>276.0</ele><time>2026-04-06T09:05:40Z</time></trkpt><trkpt lat="40.98271389778296" lon="15.706550923681236"><ele>280.3333333333333</ele><time>2026-04-06T09:05:41Z</time></trkpt><trkpt lat="40.98263916496218" lon="15.70637138119743"><ele>284.66666666666663</ele><time>2026-04-06T09:05:42Z</time></trkpt><trkpt lat="40.98254656859084" lon="15.706197705243676"><ele>289.0</ele><time>2026-04-06T09:05:43Z</time></trkpt><trkpt lat="40.98244178936511" lon="15.706031704204051"><ele>289.0</ele><time>2026-04-06T09:05:44Z</time></trkpt><trkpt lat="40.98233490272982" lon="15.705860775524622"><ele>289.0</ele><time>2026-04-06T09:05:45Z</time></trkpt><trkpt lat="40.98223646940491" lon="15.705691130590823"><ele>289.0</ele><time>2026-04-06T09:05:46Z</time></trkpt><trkpt lat="40.98212814929324" lon="15.705514704891321"><ele>289.0</ele><time>2026-04-06T09:05:47Z</time></trkpt><trkpt lat="40.98200773894695" lon="15.705359660226685"><ele>289.0</ele><time>2026-04-06T09:05:48Z</time></trkpt><trkpt lat="40.98186950646455" lon="15.70522967910179"><ele>289.0</ele><time>2026-04-06T09:05:49Z</time></trkpt><trkpt lat="40.981724505683644" lon="15.70511786844159"><ele>289.66666666666663</ele><time>2026-04-06T09:05:50Z</time></trkpt><trkpt lat="40.981579479020624" lon="15.704999053799162"><ele>290.3333333333333</ele><time>2026-04-06T09:05:51Z</time></trkpt><trkpt lat="40.98145136337239" lon="15.704885157148073"><ele>291.0</ele><time>2026-04-06T09:05:52Z</time></trkpt><trkpt lat="40.98134454727048" lon="15.704766805483873"><ele>291.0</ele><time>2026-04-06T09:05:53Z</time></trkpt><trkpt lat="40.98127042530925" lon="15.704634551288772"><ele>291.0</ele><time>2026-04-06T09:05:54Z</time></trkpt><trkpt lat="40.98122221928573" lon="15.704478684004066"><ele>291.0</ele><time>2026-04-06T09:05:55Z</time></trkpt><trkpt lat="40.98119394946522" lon="15.704301222656387"><ele>291.0</ele><time>2026-04-06T09:05:56Z</time></trkpt><trkpt lat="40.98117057096674" lon="15.704115802221011"><ele>297.6666666666667</ele><time>2026-04-06T09:05:57Z</time></trkpt><trkpt lat="40.981144539275164" lon="15.70392854994283"><ele>304.33333333333337</ele><time>2026-04-06T09:05:58Z</time></trkpt><trkpt lat="40.98111422416894" lon="15.703732743702075"><ele>311.0</ele><time>2026-04-06T09:05:59Z</time></trkpt><trkpt lat="40.98109932320298" lon="15.70352791042125"><ele>313.6666666666667</ele><time>2026-04-06T09:06:00Z</time></trkpt><trkpt lat="40.9811027151656" lon="15.703316712734113"><ele>316.3333333333333</ele><time>2026-04-06T09:06:01Z</time></trkpt><trkpt lat="40.98111813068966" lon="15.703103075843709"><ele>319.0</ele><time>2026-04-06T09:06:02Z</time></trkpt><trkpt lat="40.981133165416075" lon="15.702898468337223"><ele>318.75</ele><time>2026-04-06T09:06:03Z</time></trkpt><trkpt lat="40.98114310961792" lon="15.702706363392583"><ele>318.5</ele><time>2026-04-06T09:06:04Z</time></trkpt><trkpt lat="40.98115398564781" lon="15.702508644021856"><ele>318.25</ele><time>2026-04-06T09:06:05Z</time></trkpt><trkpt lat="40.98116569052143" lon="15.702317914166343"><ele>318.0</ele><time>2026-04-06T09:06:06Z</time></trkpt><trkpt lat="40.98115972189676" lon="15.702132441770342"><ele>318.0</ele><time>2026-04-06T09:06:07Z</time></trkpt><trkpt lat="40.98114831426051" lon="15.70192598671329"><ele>318.0</ele><time>2026-04-06T09:06:08Z</time></trkpt><trkpt lat="40.98111766960921" lon="15.701717970990796"><ele>318.0</ele><time>2026-04-06T09:06:09Z</time></trkpt><trkpt lat="40.981082451854306" lon="15.7014940465584"><ele>318.0</ele><time>2026-04-06T09:06:10Z</time></trkpt><trkpt lat="40.98103614131974" lon="15.701271605769469"><ele>318.0</ele><time>2026-04-06T09:06:11Z</time></trkpt><trkpt lat="40.98100126603509" lon="15.701039477620009"><ele>318.0</ele><time>2026-04-06T09:06:12Z</time></trkpt><trkpt lat="40.98095654846429" lon="15.700803749628648"><ele>319.6666666666667</ele><time>2026-04-06T09:06:13Z</time></trkpt><trkpt lat="40.98090387978912" lon="15.7005720677842"><ele>321.33333333333337</ele><time>2026-04-06T09:06:14Z</time></trkpt><trkpt lat="40.980833628924806" lon="15.700341882946816"><ele>323.0</ele><time>2026-04-06T09:06:15Z</time></trkpt><trkpt lat="40.980742682859116" lon="15.700123908585661"><ele>323.0</ele><time>2026-04-06T09:06:16Z</time></trkpt><trkpt lat="40.98063613849082" lon="15.69990841155928"><ele>323.0</ele><time>2026-04-06T09:06:17Z</time></trkpt><trkpt lat="40.9805206327758" lon="15.699706613338204"><ele>323.0</ele><time>2026-04-06T09:06:18Z</time></trkpt><trkpt lat="40.980412565075206" lon="15.699501936360237"><ele>331.0</ele><time>2026-04-06T09:06:19Z</time></trkpt><trkpt lat="40.98032032632705" lon="15.699285214932143"><ele>339.0</ele><time>2026-04-06T09:06:20Z</time></trkpt><trkpt lat="40.980238122148094" lon="15.699045301580954"><ele>347.0</ele><time>2026-04-06T09:06:21Z</time></trkpt><trkpt lat="40.980176821836466" lon="15.698815840325636"><ele>351.6666666666667</ele><time>2026-04-06T09:06:22Z</time></trkpt><trkpt lat="40.980158143669236" lon="15.69858279479562"><ele>356.3333333333333</ele><time>2026-04-06T09:06:23Z</time></trkpt><trkpt lat="40.98014476404812" lon="15.698344393945936"><ele>361.0</ele><time>2026-04-06T09:06:24Z</time></trkpt><trkpt lat="40.98012535176951" lon="15.698103223423889"><ele>361.0</ele><time>2026-04-06T09:06:25Z</time></trkpt><trkpt lat="40.980113815065295" lon="15.697886980165892"><ele>361.0</ele><time>2026-04-06T09:06:26Z</time></trkpt><trkpt lat="40.98008932063701" lon="15.697686278539043"><ele>361.0</ele><time>2026-04-06T09:06:27Z</time></trkpt><trkpt lat="40.98004259234514" lon="15.69748320996022"><ele>349.0</ele><time>2026-04-06T09:06:28Z</time></trkpt><trkpt lat="40.97996059001784" lon="15.697294159679398"><ele>337.0</ele><time>2026-04-06T09:06:29Z</time></trkpt><trkpt lat="40.9798501856163" lon="15.697122630536738"><ele>325.0</ele><time>2026-04-06T09:06:30Z</time></trkpt><trkpt lat="40.97972266141716" lon="15.696960499957433"><ele>335.0</ele><time>2026-04-06T09:06:31Z</time></trkpt><trkpt lat="40.979588995119066" lon="15.69681385182485"><ele>345.0</ele><time>2026-04-06T09:06:32Z</time></trkpt><trkpt lat="40.979441477395284" lon="15.696690037482957"><ele>355.0</ele><time>2026-04-06T09:06:33Z</time></trkpt><trkpt lat="40.97928871050616" lon="15.696564564601958"><ele>352.25</ele><time>2026-04-06T09:06:34Z</time></trkpt><trkpt lat="40.979150274611506" lon="15.696458449883373"><ele>349.5</ele><time>2026-04-06T09:06:35Z</time></trkpt><trkpt lat="40.97903265734804" lon="15.696363037017726"><ele>346.75</ele><time>2026-04-06T09:06:36Z</time></trkpt><trkpt lat="40.97892440974654" lon="15.69626578574381"><ele>344.0</ele><time>2026-04-06T09:06:37Z</time></trkpt><trkpt lat="40.9788769012967" lon="15.696085793156575"><ele>344.0</ele><time>2026-04-06T09:06:38Z</time></trkpt><trkpt lat="40.97883779355973" lon="15.695894127745118"><ele>344.0</ele><time>2026-04-06T09:06:39Z</time></trkpt><trkpt lat="40.97879698245527" lon="15.695683641627452"><ele>344.0</ele><time>2026-04-06T09:06:40Z</time></trkpt><trkpt lat="40.97877239716985" lon="15.695477749071657"><ele>344.0</ele><time>2026-04-06T09:06:41Z</time></trkpt><trkpt lat="40.9787398182223" lon="15.69527631621436"><ele>344.0</ele><time>2026-04-06T09:06:42Z</time></trkpt><trkpt lat="40.978726497796075" lon="15.695093296621403"><ele>344.0</ele><time>2026-04-06T09:06:43Z</time></trkpt><trkpt lat="40.9787697518896" lon="15.694931032290397"><ele>344.0</ele><time>2026-04-06T09:06:44Z</time></trkpt><trkpt lat="40.97883522794053" lon="15.694768612898892"><ele>345.0</ele><time>2026-04-06T09:06:45Z</time></trkpt><trkpt lat="40.97889921639052" lon="15.694574205691564"><ele>346.0</ele><time>2026-04-06T09:06:46Z</time></trkpt><trkpt lat="40.97897718015062" lon="15.69438907686595"><ele>347.0</ele><time>2026-04-06T09:06:47Z</time></trkpt><trkpt lat="40.97901806634501" lon="15.694180964728007"><ele>344.33333333333337</ele><time>2026-04-06T09:06:48Z</time></trkpt><trkpt lat="40.97903594030693" lon="15.693948397041826"><ele>341.6666666666667</ele><time>2026-04-06T09:06:49Z</time></trkpt><trkpt lat="40.97903985942343" lon="15.69372320871944"><ele>339.0</ele><time>2026-04-06T09:06:50Z</time></trkpt><trkpt lat="40.979008337664645" lon="15.69350499868456"><ele>339.0</ele><time>2026-04-06T09:06:51Z</time></trkpt><trkpt lat="40.97896355787341" lon="15.693278472434772"><ele>339.0</ele><time>2026-04-06T09:06:52Z</time></trkpt><trkpt lat="40.97890711229661" lon="15.693053514468579"><ele>339.0</ele><time>2026-04-06T09:06:53Z</time></trkpt><trkpt lat="40.97888011743441" lon="15.692811075336607"><ele>338.3333333333333</ele><time>2026-04-06T09:06:54Z</time></trkpt><trkpt lat="40.978844972501385" lon="15.692579280103523"><ele>337.66666666666663</ele><time>2026-04-06T09:06:55Z</time></trkpt><trkpt lat="40.97887454417689" lon="15.692329509145011"><ele>337.0</ele><time>2026-04-06T09:06:56Z</time></trkpt><trkpt lat="40.97891087536046" lon="15.692106252363445"><ele>336.0</ele><time>2026-04-06T09:06:57Z</time></trkpt><trkpt lat="40.97896362339947" lon="15.691876566426664"><ele>335.0</ele><time>2026-04-06T09:06:58Z</time></trkpt><trkpt lat="40.979008241348915" lon="15.69163179350119"><ele>334.0</ele><time>2026-04-06T09:06:59Z</time></trkpt><trkpt lat="40.97907657948262" lon="15.691390463422726"><ele>334.0</ele><time>2026-04-06T09:07:00Z</time></trkpt><trkpt lat="40.979127311372956" lon="15.691160093962667"><ele>334.0</ele><time>2026-04-06T09:07:01Z</time></trkpt><trkpt lat="40.979169676369416" lon="15.690946813294596"><ele>334.0</ele><time>2026-04-06T09:07:02Z</time></trkpt><trkpt lat="40.97919587949732" lon="15.69073707143525"><ele>332.75</ele><time>2026-04-06T09:07:03Z</time></trkpt><trkpt lat="40.97919294148729" lon="15.690519215873454"><ele>331.5</ele><time>2026-04-06T09:07:04Z</time></trkpt><trkpt lat="40.97917674947424" lon="15.690320057910792"><ele>330.25</ele><time>2026-04-06T09:07:05Z</time></trkpt><trkpt lat="40.97917987342043" lon="15.690146013615426"><ele>329.0</ele><time>2026-04-06T09:07:06Z</time></trkpt><trkpt lat="40.97920986726366" lon="15.689984019630346"><ele>329.75</ele><time>2026-04-06T09:07:07Z</time></trkpt><trkpt lat="40.97928299699897" lon="15.689830792691074"><ele>330.5</ele><time>2026-04-06T09:07:08Z</time></trkpt><trkpt lat="40.979393013208416" lon="15.689679801766813"><ele>331.25</ele><time>2026-04-06T09:07:09Z</time></trkpt><trkpt lat="40.979468395346125" lon="15.689560242477468"><ele>332.0</ele><time>2026-04-06T09:07:10Z</time></trkpt><trkpt lat="40.97951506850054" lon="15.689423559647611"><ele>332.0</ele><time>2026-04-06T09:07:11Z</time></trkpt><trkpt lat="40.979542445263114" lon="15.689291847469292"><ele>332.0</ele><time>2026-04-06T09:07:12Z</time></trkpt><trkpt lat="40.979561617894944" lon="15.689140180414404"><ele>332.0</ele><time>2026-04-06T09:07:13Z</time></trkpt><trkpt lat="40.97955251595612" lon="15.689005359889652"><ele>332.0</ele><time>2026-04-06T09:07:14Z</time></trkpt><trkpt lat="40.97934499964836" lon="15.688977033362427"><ele>332.0</ele><time>2026-04-06T09:07:15Z</time></trkpt><trkpt lat="40.97923578851347" lon="15.68894915531519"><ele>332.0</ele><time>2026-04-06T09:07:16Z</time></trkpt><trkpt lat="40.97910537113965" lon="15.688949426602287"><ele>332.0</ele><time>2026-04-06T09:07:17Z</time></trkpt><trkpt lat="40.978966864829566" lon="15.688901395323587"><ele>332.0</ele><time>2026-04-06T09:07:18Z</time></trkpt><trkpt lat="40.978831625287405" lon="15.688854550220764"><ele>329.0</ele><time>2026-04-06T09:07:19Z</time></trkpt><trkpt lat="40.978711226875305" lon="15.688770277038026"><ele>326.0</ele><time>2026-04-06T09:07:20Z</time></trkpt><trkpt lat="40.97860146338552" lon="15.688680713904922"><ele>323.0</ele><time>2026-04-06T09:07:21Z</time></trkpt><trkpt lat="40.97851584951699" lon="15.688553767347914"><ele>320.0</ele><time>2026-04-06T09:07:22Z</time></trkpt><trkpt lat="40.97845710113792" lon="15.688387971478138"><ele>320.0</ele><time>2026-04-06T09:07:23Z</time></trkpt><trkpt lat="40.9784189325847" lon="15.688203882146297"><ele>320.0</ele><time>2026-04-06T09:07:24Z</time></trkpt><trkpt lat="40.97837923253769" lon="15.688012165814925"><ele>320.0</ele><time>2026-04-06T09:07:25Z</time></trkpt><trkpt lat="40.97833165740949" lon="15.687821381091476"><ele>320.0</ele><time>2026-04-06T09:07:26Z</time></trkpt><trkpt lat="40.97828296017528" lon="15.687624795110493"><ele>322.6666666666667</ele><time>2026-04-06T09:07:27Z</time></trkpt><trkpt lat="40.97823829577051" lon="15.687423940266987"><ele>325.3333333333333</ele><time>2026-04-06T09:07:28Z</time></trkpt><trkpt lat="40.978190217229276" lon="15.687217813035955"><ele>328.0</ele><time>2026-04-06T09:07:29Z</time></trkpt><trkpt lat="40.978138585030955" lon="15.687012230108957"><ele>328.3333333333333</ele><time>2026-04-06T09:07:30Z</time></trkpt><trkpt lat="40.978106927390726" lon="15.686799003762093"><ele>328.6666666666667</ele><time>2026-04-06T09:07:31Z</time></trkpt><trkpt lat="40.978103405087055" lon="15.686575350864114"><ele>329.0</ele><time>2026-04-06T09:07:32Z</time></trkpt><trkpt lat="40.978118178423756" lon="15.686345172669732"><ele>329.0</ele><time>2026-04-06T09:07:33Z</time></trkpt><trkpt lat="40.97814165789549" lon="15.68611424302404"><ele>329.0</ele><time>2026-04-06T09:07:34Z</time></trkpt><trkpt lat="40.9781607430781" lon="15.685877137875622"><ele>329.0</ele><time>2026-04-06T09:07:35Z</time></trkpt><trkpt lat="40.978178696333956" lon="15.685642588545958"><ele>331.0</ele><time>2026-04-06T09:07:36Z</time></trkpt><trkpt lat="40.97819843755816" lon="15.685409181314188"><ele>333.0</ele><time>2026-04-06T09:07:37Z</time></trkpt><trkpt lat="40.97821782378358" lon="15.685190546596717"><ele>335.0</ele><time>2026-04-06T09:07:38Z</time></trkpt><trkpt lat="40.978236252933556" lon="15.684979817908367"><ele>337.25</ele><time>2026-04-06T09:07:39Z</time></trkpt><trkpt lat="40.978254374842244" lon="15.684769922700665"><ele>339.5</ele><time>2026-04-06T09:07:40Z</time></trkpt><trkpt lat="40.978274966129305" lon="15.684579196487471"><ele>341.75</ele><time>2026-04-06T09:07:41Z</time></trkpt><trkpt lat="40.97830414408295" lon="15.684401853991911"><ele>344.0</ele><time>2026-04-06T09:07:42Z</time></trkpt><trkpt lat="40.97833221871946" lon="15.684221895255279"><ele>345.25</ele><time>2026-04-06T09:07:43Z</time></trkpt><trkpt lat="40.978341961954406" lon="15.68405471003906"><ele>346.5</ele><time>2026-04-06T09:07:44Z</time></trkpt><trkpt lat="40.97831677771332" lon="15.683903680291218"><ele>347.75</ele><time>2026-04-06T09:07:45Z</time></trkpt><trkpt lat="40.97824922848728" lon="15.683780540243403"><ele>349.0</ele><time>2026-04-06T09:07:46Z</time></trkpt><trkpt lat="40.97815466950704" lon="15.68366395526319"><ele>346.75</ele><time>2026-04-06T09:07:47Z</time></trkpt><trkpt lat="40.9780774168624" lon="15.68352962220672"><ele>344.5</ele><time>2026-04-06T09:07:48Z</time></trkpt><trkpt lat="40.978011141184915" lon="15.68340328091431"><ele>342.25</ele><time>2026-04-06T09:07:49Z</time></trkpt><trkpt lat="40.97794900630575" lon="15.683270291076678"><ele>340.0</ele><time>2026-04-06T09:07:50Z</time></trkpt><trkpt lat="40.9778752505074" lon="15.68314213971014"><ele>340.0</ele><time>2026-04-06T09:07:51Z</time></trkpt><trkpt lat="40.977817169958996" lon="15.683016274382139"><ele>340.0</ele><time>2026-04-06T09:07:52Z</time></trkpt><trkpt lat="40.977758102806796" lon="15.68290410407304"><ele>340.0</ele><time>2026-04-06T09:07:53Z</time></trkpt><trkpt lat="40.97772125303818" lon="15.682792164258942"><ele>340.0</ele><time>2026-04-06T09:07:54Z</time></trkpt><trkpt lat="40.977676409017064" lon="15.682693355210866"><ele>340.0</ele><time>2026-04-06T09:07:55Z</time></trkpt><trkpt lat="40.97762376481392" lon="15.682588254909867"><ele>341.25</ele><time>2026-04-06T09:07:56Z</time></trkpt><trkpt lat="40.97760315818041" lon="15.682453765397529"><ele>342.5</ele><time>2026-04-06T09:07:57Z</time></trkpt><trkpt lat="40.97759438858841" lon="15.68229992826051"><ele>343.75</ele><time>2026-04-06T09:07:58Z</time></trkpt><trkpt lat="40.977586906409705" lon="15.682132139275213"><ele>345.0</ele><time>2026-04-06T09:07:59Z</time></trkpt><trkpt lat="40.977565083032275" lon="15.68196536384802"><ele>349.75</ele><time>2026-04-06T09:08:00Z</time></trkpt><trkpt lat="40.977515838012835" lon="15.68179069070232"><ele>354.5</ele><time>2026-04-06T09:08:01Z</time></trkpt><trkpt lat="40.97748330473903" lon="15.681599837274915"><ele>359.25</ele><time>2026-04-06T09:08:02Z</time></trkpt><trkpt lat="40.977431525990546" lon="15.681407025948332"><ele>364.0</ele><time>2026-04-06T09:08:03Z</time></trkpt><trkpt lat="40.97737988046879" lon="15.681210609130515"><ele>364.0</ele><time>2026-04-06T09:08:04Z</time></trkpt><trkpt lat="40.977328023954364" lon="15.681013390328554"><ele>364.0</ele><time>2026-04-06T09:08:05Z</time></trkpt><trkpt lat="40.97727635255661" lon="15.68081854799293"><ele>364.0</ele><time>2026-04-06T09:08:06Z</time></trkpt><trkpt lat="40.97722908609348" lon="15.680645511964476"><ele>364.0</ele><time>2026-04-06T09:08:07Z</time></trkpt><trkpt lat="40.97718428331991" lon="15.680486994898533"><ele>364.0</ele><time>2026-04-06T09:08:08Z</time></trkpt><trkpt lat="40.977128934852736" lon="15.680353602920869"><ele>364.0</ele><time>2026-04-06T09:08:09Z</time></trkpt><trkpt lat="40.97709004702529" lon="15.680217924439109"><ele>364.0</ele><time>2026-04-06T09:08:10Z</time></trkpt><trkpt lat="40.97704826582592" lon="15.680087262137057"><ele>366.0</ele><time>2026-04-06T09:08:11Z</time></trkpt><trkpt lat="40.9770108182231" lon="15.679960552840955"><ele>368.0</ele><time>2026-04-06T09:08:12Z</time></trkpt><trkpt lat="40.976975848817005" lon="15.679829557450258"><ele>370.0</ele><time>2026-04-06T09:08:13Z</time></trkpt><trkpt lat="40.9769388586507" lon="15.679692795601799"><ele>372.0</ele><time>2026-04-06T09:08:14Z</time></trkpt><trkpt lat="40.976902794177626" lon="15.679553832260888"><ele>374.0</ele><time>2026-04-06T09:08:15Z</time></trkpt><trkpt lat="40.976862649721035" lon="15.67943161222407"><ele>375.5</ele><time>2026-04-06T09:08:16Z</time></trkpt><trkpt lat="40.976813295369816" lon="15.679335452202764"><ele>377.0</ele><time>2026-04-06T09:08:17Z</time></trkpt><trkpt lat="40.97674985204859" lon="15.679253892560933"><ele>378.5</ele><time>2026-04-06T09:08:18Z</time></trkpt><trkpt lat="40.976680138651886" lon="15.679177235120537"><ele>380.0</ele><time>2026-04-06T09:08:19Z</time></trkpt><trkpt lat="40.97661259935223" lon="15.679104882409714"><ele>381.5</ele><time>2026-04-06T09:08:20Z</time></trkpt><trkpt lat="40.97655637913505" lon="15.679010299057463"><ele>383.0</ele><time>2026-04-06T09:08:21Z</time></trkpt><trkpt lat="40.97648071503646" lon="15.678920814789114"><ele>383.0</ele><time>2026-04-06T09:08:22Z</time></trkpt><trkpt lat="40.97640395511895" lon="15.678859450584438"><ele>383.0</ele><time>2026-04-06T09:08:23Z</time></trkpt><trkpt lat="40.97635247451316" lon="15.678774869068588"><ele>383.0</ele><time>2026-04-06T09:08:24Z</time></trkpt><trkpt lat="40.9762934700787" lon="15.678709334521406"><ele>383.0</ele><time>2026-04-06T09:08:25Z</time></trkpt><trkpt lat="40.97622687645445" lon="15.678663460373157"><ele>383.0</ele><time>2026-04-06T09:08:26Z</time></trkpt><trkpt lat="40.976164075429644" lon="15.678610934744256"><ele>383.0</ele><time>2026-04-06T09:08:27Z</time></trkpt><trkpt lat="40.97610113089909" lon="15.67856941508457"><ele>384.2857142857143</ele><time>2026-04-06T09:08:28Z</time></trkpt><trkpt lat="40.97604267968168" lon="15.678530665251893"><ele>385.57142857142856</ele><time>2026-04-06T09:08:29Z</time></trkpt><trkpt lat="40.97597733541998" lon="15.678493913517583"><ele>386.8571428571429</ele><time>2026-04-06T09:08:30Z</time></trkpt><trkpt lat="40.97590631924074" lon="15.678459440206604"><ele>388.1428571428571</ele><time>2026-04-06T09:08:31Z</time></trkpt><trkpt lat="40.975842744511176" lon="15.67841308674704"><ele>389.42857142857144</ele><time>2026-04-06T09:08:32Z</time></trkpt><trkpt lat="40.975787862345996" lon="15.678336843534515"><ele>390.7142857142857</ele><time>2026-04-06T09:08:33Z</time></trkpt><trkpt lat="40.97574793854729" lon="15.678241717335569"><ele>392.0</ele><time>2026-04-06T09:08:34Z</time></trkpt><trkpt lat="40.9757093488913" lon="15.678132704512509"><ele>391.99999999999994</ele><time>2026-04-06T09:08:35Z</time></trkpt><trkpt lat="40.975670087861474" lon="15.678021184496465"><ele>392.0</ele><time>2026-04-06T09:08:36Z</time></trkpt><trkpt lat="40.97563580643994" lon="15.677911444529304"><ele>392.0</ele><time>2026-04-06T09:08:37Z</time></trkpt><trkpt lat="40.975631513825036" lon="15.677795226653624"><ele>392.0</ele><time>2026-04-06T09:08:38Z</time></trkpt><trkpt lat="40.97562035644898" lon="15.677682809206344"><ele>391.99999999999994</ele><time>2026-04-06T09:08:39Z</time></trkpt><trkpt lat="40.975616655521875" lon="15.677581054001822"><ele>392.0</ele><time>2026-04-06T09:08:40Z</time></trkpt><trkpt lat="40.975618257643916" lon="15.67748746622514"><ele>391.49999999999994</ele><time>2026-04-06T09:08:41Z</time></trkpt><trkpt lat="40.97562516017298" lon="15.67737079065607"><ele>391.0</ele><time>2026-04-06T09:08:43Z</time></trkpt><trkpt lat="40.975617340098346" lon="15.67727853718939"><ele>390.5</ele><time>2026-04-06T09:08:46Z</time></trkpt><trkpt lat="40.97561700798783" lon="15.67718767211137"><ele>390.0</ele><time>2026-04-06T09:08:54Z</time></trkpt><trkpt lat="40.97563265768632" lon="15.677010929951923"><ele>389.49999999999994</ele><time>2026-04-06T09:08:56Z</time></trkpt><trkpt lat="40.9756694252559" lon="15.676909360789434"><ele>389.0</ele><time>2026-04-06T09:08:57Z</time></trkpt><trkpt lat="40.97567023217019" lon="15.676806826469958"><ele>390.4</ele><time>2026-04-06T09:08:58Z</time></trkpt><trkpt lat="40.97568453845913" lon="15.676694778667692"><ele>391.79999999999995</ele><time>2026-04-06T09:08:59Z</time></trkpt><trkpt lat="40.97570428777521" lon="15.676550682737357"><ele>393.20000000000005</ele><time>2026-04-06T09:09:00Z</time></trkpt><trkpt lat="40.97572683212484" lon="15.676401261145838"><ele>394.6</ele><time>2026-04-06T09:09:01Z</time></trkpt><trkpt lat="40.97575003743352" lon="15.676258052880165"><ele>396.0</ele><time>2026-04-06T09:09:02Z</time></trkpt><trkpt lat="40.97576021634694" lon="15.67612294078202"><ele>398.25</ele><time>2026-04-06T09:09:03Z</time></trkpt><trkpt lat="40.97570928882797" lon="15.675982628668098"><ele>400.5</ele><time>2026-04-06T09:09:04Z</time></trkpt><trkpt lat="40.9756276606479" lon="15.67584417020633"><ele>402.75</ele><time>2026-04-06T09:09:05Z</time></trkpt><trkpt lat="40.975571279172016" lon="15.675687731865791"><ele>405.0</ele><time>2026-04-06T09:09:06Z</time></trkpt><trkpt lat="40.97551499139478" lon="15.675553434645085"><ele>405.0</ele><time>2026-04-06T09:09:07Z</time></trkpt><trkpt lat="40.97546619293575" lon="15.675436519705082"><ele>405.0</ele><time>2026-04-06T09:09:08Z</time></trkpt><trkpt lat="40.97542025202671" lon="15.675326451537186"><ele>405.0</ele><time>2026-04-06T09:09:09Z</time></trkpt><trkpt lat="40.975360583851995" lon="15.675205550965572"><ele>405.0</ele><time>2026-04-06T09:09:10Z</time></trkpt><trkpt lat="40.97527676166461" lon="15.675093305464406"><ele>405.0</ele><time>2026-04-06T09:09:11Z</time></trkpt><trkpt lat="40.975184154372705" lon="15.674995014481237"><ele>406.5</ele><time>2026-04-06T09:09:12Z</time></trkpt><trkpt lat="40.97508350469791" lon="15.674893390751324"><ele>408.0</ele><time>2026-04-06T09:09:13Z</time></trkpt><trkpt lat="40.9749588104528" lon="15.674826926625041"><ele>409.5</ele><time>2026-04-06T09:09:14Z</time></trkpt><trkpt lat="40.97486192225873" lon="15.674709771345572"><ele>411.0</ele><time>2026-04-06T09:09:15Z</time></trkpt><trkpt lat="40.974763037487385" lon="15.674595591175605"><ele>411.0</ele><time>2026-04-06T09:09:16Z</time></trkpt><trkpt lat="40.97468064839091" lon="15.674497880063495"><ele>411.0</ele><time>2026-04-06T09:09:17Z</time></trkpt><trkpt lat="40.974614488629605" lon="15.674414954926933"><ele>411.0</ele><time>2026-04-06T09:09:18Z</time></trkpt><trkpt lat="40.97458363479674" lon="15.674310808811727"><ele>411.0</ele><time>2026-04-06T09:09:20Z</time></trkpt><trkpt lat="40.97457713391021" lon="15.674122833456725"><ele>411.0</ele><time>2026-04-06T09:09:22Z</time></trkpt><trkpt lat="40.9745848418548" lon="15.674007620566929"><ele>413.4</ele><time>2026-04-06T09:09:23Z</time></trkpt><trkpt lat="40.974591626407694" lon="15.673885575511104"><ele>415.8</ele><time>2026-04-06T09:09:24Z</time></trkpt><trkpt lat="40.97459276066459" lon="15.673756571469003"><ele>418.2</ele><time>2026-04-06T09:09:25Z</time></trkpt><trkpt lat="40.97457747058444" lon="15.6736312843477"><ele>420.59999999999997</ele><time>2026-04-06T09:09:26Z</time></trkpt><trkpt lat="40.97454275604631" lon="15.673499312638867"><ele>423.0</ele><time>2026-04-06T09:09:27Z</time></trkpt><trkpt lat="40.97450364876836" lon="15.673354179008669"><ele>426.5</ele><time>2026-04-06T09:09:28Z</time></trkpt><trkpt lat="40.97446111489971" lon="15.673218440564783"><ele>430.0</ele><time>2026-04-06T09:09:29Z</time></trkpt><trkpt lat="40.974404602627835" lon="15.673089841403572"><ele>433.5</ele><time>2026-04-06T09:09:30Z</time></trkpt><trkpt lat="40.97436332570987" lon="15.672948426965002"><ele>437.0</ele><time>2026-04-06T09:09:31Z</time></trkpt><trkpt lat="40.97430704142092" lon="15.672818596334123"><ele>436.0</ele><time>2026-04-06T09:09:32Z</time></trkpt><trkpt lat="40.97425623256376" lon="15.672653483171118"><ele>435.00000000000006</ele><time>2026-04-06T09:09:33Z</time></trkpt><trkpt lat="40.9742236248769" lon="15.672499266231075"><ele>434.00000000000006</ele><time>2026-04-06T09:09:34Z</time></trkpt><trkpt lat="40.974189871821345" lon="15.672376589951739"><ele>433.0</ele><time>2026-04-06T09:09:35Z</time></trkpt><trkpt lat="40.97416079496013" lon="15.672282460697753"><ele>432.0</ele><time>2026-04-06T09:09:36Z</time></trkpt><trkpt lat="40.974042407682774" lon="15.672288291567899"><ele>432.0</ele><time>2026-04-06T09:09:37Z</time></trkpt><trkpt lat="40.97398578018583" lon="15.672214729341913"><ele>432.0</ele><time>2026-04-06T09:09:38Z</time></trkpt><trkpt lat="40.973914888634425" lon="15.672137188564786"><ele>432.0</ele><time>2026-04-06T09:09:39Z</time></trkpt><trkpt lat="40.97384412865438" lon="15.67206395987423"><ele>432.0</ele><time>2026-04-06T09:09:40Z</time></trkpt><trkpt lat="40.97378063120441" lon="15.67199633230055"><ele>432.0</ele><time>2026-04-06T09:09:41Z</time></trkpt><trkpt lat="40.97372079288508" lon="15.67190887210874"><ele>432.0</ele><time>2026-04-06T09:09:48Z</time></trkpt><trkpt lat="40.973777476796926" lon="15.672006718991558"><ele>432.0</ele><time>2026-04-06T09:09:51Z</time></trkpt><trkpt lat="40.973897606195386" lon="15.672110761055126"><ele>432.0</ele><time>2026-04-06T09:09:53Z</time></trkpt><trkpt lat="40.97399724630426" lon="15.672290309050586"><ele>432.0</ele><time>2026-04-06T09:09:55Z</time></trkpt><trkpt lat="40.974046424752814" lon="15.67235707245765"><ele>432.0</ele><time>2026-04-06T09:09:56Z</time></trkpt><trkpt lat="40.97400844845143" lon="15.672486567370747"><ele>432.0</ele><time>2026-04-06T09:09:59Z</time></trkpt><trkpt lat="40.97399283142035" lon="15.672578452336673"><ele>432.00000000000006</ele><time>2026-04-06T09:10:00Z</time></trkpt><trkpt lat="40.97396417555575" lon="15.672694037534093"><ele>432.00000000000006</ele><time>2026-04-06T09:10:01Z</time></trkpt><trkpt lat="40.97396914656168" lon="15.672845055241726"><ele>432.0</ele><time>2026-04-06T09:10:02Z</time></trkpt><trkpt lat="40.973997368060346" lon="15.672999949680582"><ele>432.0</ele><time>2026-04-06T09:10:03Z</time></trkpt><trkpt lat="40.974049140223116" lon="15.673142552502123"><ele>431.5</ele><time>2026-04-06T09:10:04Z</time></trkpt><trkpt lat="40.97408899328536" lon="15.673273412577627"><ele>431.0</ele><time>2026-04-06T09:10:05Z</time></trkpt><trkpt lat="40.97410332556855" lon="15.673398669340134"><ele>430.5</ele><time>2026-04-06T09:10:06Z</time></trkpt><trkpt lat="40.97410053693404" lon="15.673504003952758"><ele>430.0</ele><time>2026-04-06T09:10:07Z</time></trkpt><trkpt lat="40.97407034955369" lon="15.673588466667475"><ele>429.5</ele><time>2026-04-06T09:10:08Z</time></trkpt><trkpt lat="40.97401248793073" lon="15.673628281286392"><ele>429.0</ele><time>2026-04-06T09:10:09Z</time></trkpt><trkpt lat="40.97393803925574" lon="15.67359376246297"><ele>426.79999999999995</ele><time>2026-04-06T09:10:10Z</time></trkpt><trkpt lat="40.973859698578735" lon="15.673623788155245"><ele>424.59999999999997</ele><time>2026-04-06T09:10:11Z</time></trkpt><trkpt lat="40.97376701236547" lon="15.67364790604089"><ele>422.4</ele><time>2026-04-06T09:10:12Z</time></trkpt><trkpt lat="40.973663557929925" lon="15.673686432075545"><ele>420.2</ele><time>2026-04-06T09:10:13Z</time></trkpt><trkpt lat="40.97355478413602" lon="15.673722507020834"><ele>418.0</ele><time>2026-04-06T09:10:14Z</time></trkpt><trkpt lat="40.97344546045678" lon="15.673764605702925"><ele>421.50000000000006</ele><time>2026-04-06T09:10:15Z</time></trkpt><trkpt lat="40.9733378798791" lon="15.673804072372917"><ele>425.0</ele><time>2026-04-06T09:10:16Z</time></trkpt><trkpt lat="40.973245678854994" lon="15.67383092027826"><ele>428.5</ele><time>2026-04-06T09:10:17Z</time></trkpt><trkpt lat="40.97317363947976" lon="15.673855052629214"><ele>432.0</ele><time>2026-04-06T09:10:18Z</time></trkpt><trkpt lat="40.973111307436795" lon="15.67387239344536"><ele>435.50000000000006</ele><time>2026-04-06T09:10:19Z</time></trkpt><trkpt lat="40.973050293708965" lon="15.673914245447639"><ele>439.0</ele><time>2026-04-06T09:10:20Z</time></trkpt><trkpt lat="40.972972982466274" lon="15.674094033163952"><ele>439.0</ele><time>2026-04-06T09:10:22Z</time></trkpt><trkpt lat="40.97297521223589" lon="15.674214706504058"><ele>439.0</ele><time>2026-04-06T09:10:23Z</time></trkpt><trkpt lat="40.97300643110246" lon="15.674335724913147"><ele>439.0</ele><time>2026-04-06T09:10:24Z</time></trkpt><trkpt lat="40.973072787717534" lon="15.674446934783534"><ele>439.0</ele><time>2026-04-06T09:10:25Z</time></trkpt><trkpt lat="40.97316826312351" lon="15.67453462670709"><ele>439.0</ele><time>2026-04-06T09:10:26Z</time></trkpt><trkpt lat="40.97328867087603" lon="15.674600039923382"><ele>435.33333333333337</ele><time>2026-04-06T09:10:27Z</time></trkpt><trkpt lat="40.97345594873451" lon="15.674632021687273"><ele>431.66666666666663</ele><time>2026-04-06T09:10:28Z</time></trkpt><trkpt lat="40.97358260976243" lon="15.674708667792547"><ele>428.0</ele><time>2026-04-06T09:10:29Z</time></trkpt><trkpt lat="40.973710288260634" lon="15.674797738668842"><ele>428.0</ele><time>2026-04-06T09:10:30Z</time></trkpt><trkpt lat="40.97383801190466" lon="15.674898580438226"><ele>428.0</ele><time>2026-04-06T09:10:31Z</time></trkpt><trkpt lat="40.97394169055526" lon="15.675016975534135"><ele>428.0</ele><time>2026-04-06T09:10:32Z</time></trkpt><trkpt lat="40.97403929602999" lon="15.67516386828045"><ele>428.0</ele><time>2026-04-06T09:10:33Z</time></trkpt><trkpt lat="40.97412821706877" lon="15.675322121507941"><ele>425.2</ele><time>2026-04-06T09:10:34Z</time></trkpt><trkpt lat="40.97418922100905" lon="15.675466157062072"><ele>422.4</ele><time>2026-04-06T09:10:35Z</time></trkpt><trkpt lat="40.97422917530683" lon="15.675593688833018"><ele>419.59999999999997</ele><time>2026-04-06T09:10:36Z</time></trkpt><trkpt lat="40.974237444064926" lon="15.67572444221467"><ele>416.79999999999995</ele><time>2026-04-06T09:10:37Z</time></trkpt><trkpt lat="40.974213374054244" lon="15.675844512846407"><ele>414.0</ele><time>2026-04-06T09:10:38Z</time></trkpt><trkpt lat="40.974153098489744" lon="15.675952294076726"><ele>421.75</ele><time>2026-04-06T09:10:39Z</time></trkpt><trkpt lat="40.97406446896931" lon="15.67605792301186"><ele>429.5</ele><time>2026-04-06T09:10:40Z</time></trkpt><trkpt lat="40.97395445584636" lon="15.67615247575552"><ele>437.25</ele><time>2026-04-06T09:10:41Z</time></trkpt><trkpt lat="40.97383923492351" lon="15.676243123440937"><ele>445.0</ele><time>2026-04-06T09:10:42Z</time></trkpt><trkpt lat="40.97372202360309" lon="15.676341260729624"><ele>445.75</ele><time>2026-04-06T09:10:43Z</time></trkpt><trkpt lat="40.97359741369269" lon="15.676429202083803"><ele>446.5</ele><time>2026-04-06T09:10:44Z</time></trkpt><trkpt lat="40.973457069964695" lon="15.676495031565533"><ele>447.25</ele><time>2026-04-06T09:10:45Z</time></trkpt><trkpt lat="40.97330836866983" lon="15.676536402618662"><ele>448.0</ele><time>2026-04-06T09:10:46Z</time></trkpt><trkpt lat="40.97314750514045" lon="15.676563195905212"><ele>449.6666666666667</ele><time>2026-04-06T09:10:47Z</time></trkpt><trkpt lat="40.97298095035936" lon="15.676562424391745"><ele>451.33333333333337</ele><time>2026-04-06T09:10:48Z</time></trkpt><trkpt lat="40.972816892777416" lon="15.676533057626328"><ele>453.0</ele><time>2026-04-06T09:10:49Z</time></trkpt><trkpt lat="40.97266083570891" lon="15.67645242928355"><ele>454.0</ele><time>2026-04-06T09:10:50Z</time></trkpt><trkpt lat="40.972509033996175" lon="15.676357823458648"><ele>455.0</ele><time>2026-04-06T09:10:51Z</time></trkpt><trkpt lat="40.97235064533874" lon="15.676263510687415"><ele>456.0</ele><time>2026-04-06T09:10:52Z</time></trkpt><trkpt lat="40.97221192718629" lon="15.676129941975548"><ele>457.66666666666663</ele><time>2026-04-06T09:10:53Z</time></trkpt><trkpt lat="40.97206270562585" lon="15.676009305705955"><ele>459.3333333333333</ele><time>2026-04-06T09:10:54Z</time></trkpt><trkpt lat="40.97189990929685" lon="15.675910894520138"><ele>461.0</ele><time>2026-04-06T09:10:55Z</time></trkpt><trkpt lat="40.97173776237416" lon="15.67581705013261"><ele>462.66666666666663</ele><time>2026-04-06T09:10:56Z</time></trkpt><trkpt lat="40.97157048670679" lon="15.67571990646049"><ele>464.33333333333337</ele><time>2026-04-06T09:10:57Z</time></trkpt><trkpt lat="40.971407000334565" lon="15.675620230339423"><ele>466.0</ele><time>2026-04-06T09:10:58Z</time></trkpt><trkpt lat="40.971252758699734" lon="15.675494433768277"><ele>466.0</ele><time>2026-04-06T09:10:59Z</time></trkpt><trkpt lat="40.97111230789033" lon="15.675338530491489"><ele>466.0</ele><time>2026-04-06T09:11:00Z</time></trkpt><trkpt lat="40.97099013476741" lon="15.675169411319377"><ele>466.0</ele><time>2026-04-06T09:11:01Z</time></trkpt><trkpt lat="40.97088097415106" lon="15.675022841098773"><ele>468.0</ele><time>2026-04-06T09:11:02Z</time></trkpt><trkpt lat="40.97077176968916" lon="15.674911286843619"><ele>470.0</ele><time>2026-04-06T09:11:03Z</time></trkpt><trkpt lat="40.97065312394503" lon="15.67485225557631"><ele>472.0</ele><time>2026-04-06T09:11:04Z</time></trkpt><trkpt lat="40.970532308651606" lon="15.674848897186244"><ele>474.0</ele><time>2026-04-06T09:11:05Z</time></trkpt><trkpt lat="40.97042490828694" lon="15.674906609493446"><ele>474.0</ele><time>2026-04-06T09:11:06Z</time></trkpt><trkpt lat="40.9703243906394" lon="15.675009289046802"><ele>474.0</ele><time>2026-04-06T09:11:07Z</time></trkpt><trkpt lat="40.97023526374364" lon="15.675153033757507"><ele>474.0</ele><time>2026-04-06T09:11:08Z</time></trkpt><trkpt lat="40.970160249411244" lon="15.675314478438871"><ele>474.0</ele><time>2026-04-06T09:11:09Z</time></trkpt><trkpt lat="40.97008110809606" lon="15.67548930895637"><ele>474.66666666666663</ele><time>2026-04-06T09:11:10Z</time></trkpt><trkpt lat="40.96999073373469" lon="15.675658349714816"><ele>475.3333333333333</ele><time>2026-04-06T09:11:11Z</time></trkpt><trkpt lat="40.96988869883325" lon="15.675841902562363"><ele>476.0</ele><time>2026-04-06T09:11:12Z</time></trkpt><trkpt lat="40.969785252873436" lon="15.676000752136183"><ele>475.66666666666663</ele><time>2026-04-06T09:11:13Z</time></trkpt><trkpt lat="40.96966568802808" lon="15.67615229026349"><ele>475.33333333333337</ele><time>2026-04-06T09:11:14Z</time></trkpt><trkpt lat="40.96953009594585" lon="15.676274171898962"><ele>475.0</ele><time>2026-04-06T09:11:15Z</time></trkpt><trkpt lat="40.969379566657196" lon="15.676388235968313"><ele>475.0</ele><time>2026-04-06T09:11:16Z</time></trkpt><trkpt lat="40.96922135133835" lon="15.676482895657752"><ele>475.0</ele><time>2026-04-06T09:11:17Z</time></trkpt><trkpt lat="40.969057961395634" lon="15.67652845901705"><ele>475.0</ele><time>2026-04-06T09:11:18Z</time></trkpt><trkpt lat="40.96888955333053" lon="15.676561278771883"><ele>476.6666666666667</ele><time>2026-04-06T09:11:19Z</time></trkpt><trkpt lat="40.968723331118646" lon="15.676570433293994"><ele>478.33333333333337</ele><time>2026-04-06T09:11:20Z</time></trkpt><trkpt lat="40.968536253117534" lon="15.676574241120845"><ele>480.0</ele><time>2026-04-06T09:11:21Z</time></trkpt><trkpt lat="40.96837664546304" lon="15.676512067670027"><ele>481.0</ele><time>2026-04-06T09:11:22Z</time></trkpt><trkpt lat="40.96820997594834" lon="15.676447921418852"><ele>482.0</ele><time>2026-04-06T09:11:23Z</time></trkpt><trkpt lat="40.96805063006678" lon="15.676356569347446"><ele>483.0</ele><time>2026-04-06T09:11:24Z</time></trkpt><trkpt lat="40.967903438442164" lon="15.67623869885729"><ele>484.33333333333337</ele><time>2026-04-06T09:11:25Z</time></trkpt><trkpt lat="40.96776491251988" lon="15.6760970008469"><ele>485.6666666666667</ele><time>2026-04-06T09:11:26Z</time></trkpt><trkpt lat="40.96763491335755" lon="15.675933488730447"><ele>487.0</ele><time>2026-04-06T09:11:27Z</time></trkpt><trkpt lat="40.96750270269958" lon="15.675765803304298"><ele>487.0</ele><time>2026-04-06T09:11:28Z</time></trkpt><trkpt lat="40.967389954997785" lon="15.675581368838309"><ele>487.0</ele><time>2026-04-06T09:11:29Z</time></trkpt><trkpt lat="40.96727339089212" lon="15.675399833675836"><ele>487.0</ele><time>2026-04-06T09:11:30Z</time></trkpt><trkpt lat="40.967153713433845" lon="15.675216580949295"><ele>490.0</ele><time>2026-04-06T09:11:31Z</time></trkpt><trkpt lat="40.96703319298024" lon="15.675031931184725"><ele>493.0</ele><time>2026-04-06T09:11:32Z</time></trkpt><trkpt lat="40.96691561423814" lon="15.674853271703657"><ele>496.0</ele><time>2026-04-06T09:11:33Z</time></trkpt><trkpt lat="40.96679877894529" lon="15.674669561344517"><ele>496.0</ele><time>2026-04-06T09:11:34Z</time></trkpt><trkpt lat="40.96670066846372" lon="15.674466791170595"><ele>496.0</ele><time>2026-04-06T09:11:35Z</time></trkpt><trkpt lat="40.96660284678901" lon="15.674264013757602"><ele>496.0</ele><time>2026-04-06T09:11:36Z</time></trkpt><trkpt lat="40.966498617013805" lon="15.674063578629708"><ele>498.0</ele><time>2026-04-06T09:11:37Z</time></trkpt><trkpt lat="40.966415548140006" lon="15.673859069255668"><ele>500.0</ele><time>2026-04-06T09:11:38Z</time></trkpt><trkpt lat="40.96631124743807" lon="15.673668782579332"><ele>502.0</ele><time>2026-04-06T09:11:39Z</time></trkpt><trkpt lat="40.9661843261676" lon="15.673498124472891"><ele>502.33333333333337</ele><time>2026-04-06T09:11:40Z</time></trkpt><trkpt lat="40.966034537620594" lon="15.673351083605871"><ele>502.66666666666663</ele><time>2026-04-06T09:11:41Z</time></trkpt><trkpt lat="40.96590103393549" lon="15.673179440227653"><ele>503.0</ele><time>2026-04-06T09:11:42Z</time></trkpt><trkpt lat="40.965760100496404" lon="15.673023630591516"><ele>503.0</ele><time>2026-04-06T09:11:43Z</time></trkpt><trkpt lat="40.965627268508065" lon="15.672881430376744"><ele>503.0</ele><time>2026-04-06T09:11:44Z</time></trkpt><trkpt lat="40.96552445253101" lon="15.672704693127551"><ele>503.0</ele><time>2026-04-06T09:11:45Z</time></trkpt><trkpt lat="40.96544278979773" lon="15.672528183586985"><ele>506.5</ele><time>2026-04-06T09:11:46Z</time></trkpt><trkpt lat="40.96536663561072" lon="15.672363467253733"><ele>510.0</ele><time>2026-04-06T09:11:47Z</time></trkpt><trkpt lat="40.96526838274975" lon="15.67222222895386"><ele>513.5</ele><time>2026-04-06T09:11:48Z</time></trkpt><trkpt lat="40.965143116478906" lon="15.672094989884885"><ele>517.0</ele><time>2026-04-06T09:11:49Z</time></trkpt><trkpt lat="40.96502579618395" lon="15.671930888685221"><ele>519.0</ele><time>2026-04-06T09:11:50Z</time></trkpt><trkpt lat="40.964899547971406" lon="15.671783590733483"><ele>521.0</ele><time>2026-04-06T09:11:51Z</time></trkpt><trkpt lat="40.964760723222064" lon="15.671645807358797"><ele>523.0</ele><time>2026-04-06T09:11:52Z</time></trkpt><trkpt lat="40.96463840271317" lon="15.671482175053578"><ele>523.0</ele><time>2026-04-06T09:11:53Z</time></trkpt><trkpt lat="40.9645188336813" lon="15.671323589701514"><ele>523.0</ele><time>2026-04-06T09:11:54Z</time></trkpt><trkpt lat="40.96441636149244" lon="15.671185909875847"><ele>523.0</ele><time>2026-04-06T09:11:55Z</time></trkpt><trkpt lat="40.96432914480643" lon="15.671075331011057"><ele>523.0</ele><time>2026-04-06T09:11:56Z</time></trkpt><trkpt lat="40.96424154708316" lon="15.670994012806192"><ele>523.4</ele><time>2026-04-06T09:11:57Z</time></trkpt><trkpt lat="40.96414836867115" lon="15.67095934674962"><ele>523.8</ele><time>2026-04-06T09:11:58Z</time></trkpt><trkpt lat="40.964052613397754" lon="15.670985911677617"><ele>524.2</ele><time>2026-04-06T09:11:59Z</time></trkpt><trkpt lat="40.96396371775087" lon="15.671068039400524"><ele>524.6</ele><time>2026-04-06T09:12:00Z</time></trkpt><trkpt lat="40.963895306605565" lon="15.671199926696314"><ele>525.0</ele><time>2026-04-06T09:12:01Z</time></trkpt><trkpt lat="40.963870864839805" lon="15.67135833569798"><ele>525.0</ele><time>2026-04-06T09:12:02Z</time></trkpt><trkpt lat="40.963893643713796" lon="15.671530494317699"><ele>525.0</ele><time>2026-04-06T09:12:03Z</time></trkpt><trkpt lat="40.963952255257645" lon="15.671694249312889"><ele>525.0</ele><time>2026-04-06T09:12:04Z</time></trkpt><trkpt lat="40.964016168737444" lon="15.671866842510775"><ele>525.0</ele><time>2026-04-06T09:12:05Z</time></trkpt><trkpt lat="40.964073357183935" lon="15.67204800116133"><ele>525.6666666666666</ele><time>2026-04-06T09:12:06Z</time></trkpt><trkpt lat="40.96412980055469" lon="15.672239196415077"><ele>526.3333333333333</ele><time>2026-04-06T09:12:07Z</time></trkpt><trkpt lat="40.964189395720815" lon="15.672437344343068"><ele>527.0</ele><time>2026-04-06T09:12:08Z</time></trkpt><trkpt lat="40.96426564615522" lon="15.672631353836964"><ele>521.0</ele><time>2026-04-06T09:12:09Z</time></trkpt><trkpt lat="40.96436119489028" lon="15.672816685650453"><ele>515.0</ele><time>2026-04-06T09:12:10Z</time></trkpt><trkpt lat="40.96446288952715" lon="15.673007826867412"><ele>509.0</ele><time>2026-04-06T09:12:11Z</time></trkpt><trkpt lat="40.964551584518304" lon="15.673188855792846"><ele>509.0</ele><time>2026-04-06T09:12:12Z</time></trkpt><trkpt lat="40.964595759815566" lon="15.67335578292608"><ele>509.0</ele><time>2026-04-06T09:12:13Z</time></trkpt><trkpt lat="40.96461662479457" lon="15.67352427543599"><ele>509.0</ele><time>2026-04-06T09:12:14Z</time></trkpt><trkpt lat="40.96457891244925" lon="15.673681019235476"><ele>509.0</ele><time>2026-04-06T09:12:15Z</time></trkpt><trkpt lat="40.964522214758915" lon="15.67381680940326"><ele>510.0</ele><time>2026-04-06T09:12:16Z</time></trkpt><trkpt lat="40.96443137772551" lon="15.67393862069364"><ele>511.0</ele><time>2026-04-06T09:12:17Z</time></trkpt><trkpt lat="40.96433411852325" lon="15.674081185502764"><ele>512.0</ele><time>2026-04-06T09:12:18Z</time></trkpt><trkpt lat="40.964236410579474" lon="15.67422733359755"><ele>513.0</ele><time>2026-04-06T09:12:19Z</time></trkpt><trkpt lat="40.96412428299212" lon="15.674382047613008"><ele>515.6666666666666</ele><time>2026-04-06T09:12:20Z</time></trkpt><trkpt lat="40.964013859985535" lon="15.674540093855423"><ele>518.3333333333333</ele><time>2026-04-06T09:12:21Z</time></trkpt><trkpt lat="40.96391465658327" lon="15.674687055906064"><ele>521.0</ele><time>2026-04-06T09:12:22Z</time></trkpt><trkpt lat="40.96381334573623" lon="15.674826535378788"><ele>521.0</ele><time>2026-04-06T09:12:23Z</time></trkpt><trkpt lat="40.96369196131683" lon="15.674954247033174"><ele>521.0</ele><time>2026-04-06T09:12:24Z</time></trkpt><trkpt lat="40.963547732285456" lon="15.675056591635732"><ele>521.0</ele><time>2026-04-06T09:12:25Z</time></trkpt><trkpt lat="40.96339738814099" lon="15.675127419887215"><ele>521.5</ele><time>2026-04-06T09:12:26Z</time></trkpt><trkpt lat="40.963276862643454" lon="15.675166755643993"><ele>522.0</ele><time>2026-04-06T09:12:27Z</time></trkpt><trkpt lat="40.96316337813714" lon="15.675168772521248"><ele>522.5</ele><time>2026-04-06T09:12:28Z</time></trkpt><trkpt lat="40.963058951046726" lon="15.675094105004627"><ele>523.0</ele><time>2026-04-06T09:12:29Z</time></trkpt><trkpt lat="40.9629481360325" lon="15.675017325627104"><ele>523.0</ele><time>2026-04-06T09:12:30Z</time></trkpt><trkpt lat="40.96281293390305" lon="15.67494492283033"><ele>523.0</ele><time>2026-04-06T09:12:31Z</time></trkpt><trkpt lat="40.96268553880214" lon="15.674837996909554"><ele>523.0</ele><time>2026-04-06T09:12:32Z</time></trkpt><trkpt lat="40.96255926744425" lon="15.67471736132651"><ele>524.0</ele><time>2026-04-06T09:12:33Z</time></trkpt><trkpt lat="40.96246812100547" lon="15.674548721655533"><ele>525.0</ele><time>2026-04-06T09:12:34Z</time></trkpt><trkpt lat="40.962378166327184" lon="15.674412423515525"><ele>526.0</ele><time>2026-04-06T09:12:35Z</time></trkpt><trkpt lat="40.96230456368127" lon="15.674298726573047"><ele>527.0</ele><time>2026-04-06T09:12:36Z</time></trkpt><trkpt lat="40.962202340713326" lon="15.67424204097499"><ele>527.0</ele><time>2026-04-06T09:12:37Z</time></trkpt><trkpt lat="40.9620792780065" lon="15.67425660988"><ele>527.0</ele><time>2026-04-06T09:12:38Z</time></trkpt><trkpt lat="40.96195298733438" lon="15.67428881730876"><ele>527.0</ele><time>2026-04-06T09:12:39Z</time></trkpt><trkpt lat="40.961814888111185" lon="15.674318401953508"><ele>527.0</ele><time>2026-04-06T09:12:40Z</time></trkpt><trkpt lat="40.961679133420816" lon="15.67430937290025"><ele>526.2</ele><time>2026-04-06T09:12:41Z</time></trkpt><trkpt lat="40.9615758961262" lon="15.674315400615445"><ele>525.4000000000001</ele><time>2026-04-06T09:12:42Z</time></trkpt><trkpt lat="40.96148283300182" lon="15.67437527802111"><ele>524.5999999999999</ele><time>2026-04-06T09:12:43Z</time></trkpt><trkpt lat="40.961421780889985" lon="15.67447660974041"><ele>523.8</ele><time>2026-04-06T09:12:44Z</time></trkpt><trkpt lat="40.9613973652416" lon="15.674597545520973"><ele>523.0</ele><time>2026-04-06T09:12:45Z</time></trkpt><trkpt lat="40.96141999497113" lon="15.674717299648073"><ele>522.25</ele><time>2026-04-06T09:12:46Z</time></trkpt><trkpt lat="40.96145752867638" lon="15.674846692461472"><ele>521.5</ele><time>2026-04-06T09:12:47Z</time></trkpt><trkpt lat="40.96152014265594" lon="15.674972360999915"><ele>520.75</ele><time>2026-04-06T09:12:48Z</time></trkpt><trkpt lat="40.96163085985413" lon="15.675108797558025"><ele>520.0</ele><time>2026-04-06T09:12:49Z</time></trkpt><trkpt lat="40.96174406728236" lon="15.675245039226207"><ele>517.0</ele><time>2026-04-06T09:12:50Z</time></trkpt><trkpt lat="40.9618507615649" lon="15.675395471345153"><ele>514.0</ele><time>2026-04-06T09:12:51Z</time></trkpt><trkpt lat="40.96195988470828" lon="15.675557307808134"><ele>511.0</ele><time>2026-04-06T09:12:52Z</time></trkpt><trkpt lat="40.96202994091102" lon="15.675715911359262"><ele>511.0</ele><time>2026-04-06T09:12:53Z</time></trkpt><trkpt lat="40.96205849395606" lon="15.67587441497026"><ele>511.0</ele><time>2026-04-06T09:12:54Z</time></trkpt><trkpt lat="40.962059182759674" lon="15.676031915947698"><ele>511.0</ele><time>2026-04-06T09:12:55Z</time></trkpt><trkpt lat="40.96203206741542" lon="15.676196680533902"><ele>511.0</ele><time>2026-04-06T09:12:56Z</time></trkpt><trkpt lat="40.96197065919402" lon="15.676345149881701"><ele>511.75</ele><time>2026-04-06T09:12:57Z</time></trkpt><trkpt lat="40.96187609939786" lon="15.676443617820157"><ele>512.5</ele><time>2026-04-06T09:12:58Z</time></trkpt><trkpt lat="40.961751885932394" lon="15.676505204696495"><ele>513.25</ele><time>2026-04-06T09:12:59Z</time></trkpt><trkpt lat="40.961619495916324" lon="15.676591812028803"><ele>514.0</ele><time>2026-04-06T09:13:00Z</time></trkpt><trkpt lat="40.961469757835516" lon="15.67664481641669"><ele>517.0</ele><time>2026-04-06T09:13:01Z</time></trkpt><trkpt lat="40.96132101303397" lon="15.676713829722585"><ele>520.0</ele><time>2026-04-06T09:13:02Z</time></trkpt><trkpt lat="40.961166009071036" lon="15.676788407810347"><ele>523.0</ele><time>2026-04-06T09:13:03Z</time></trkpt><trkpt lat="40.961007885071616" lon="15.676862778092174"><ele>522.6666666666667</ele><time>2026-04-06T09:13:04Z</time></trkpt><trkpt lat="40.9608479052351" lon="15.676949210731665"><ele>522.3333333333334</ele><time>2026-04-06T09:13:05Z</time></trkpt><trkpt lat="40.96068538335031" lon="15.677040911946088"><ele>522.0</ele><time>2026-04-06T09:13:06Z</time></trkpt><trkpt lat="40.96052451488083" lon="15.677119743391728"><ele>522.0</ele><time>2026-04-06T09:13:07Z</time></trkpt><trkpt lat="40.960367716935956" lon="15.677188646346252"><ele>522.0</ele><time>2026-04-06T09:13:08Z</time></trkpt><trkpt lat="40.96019606216001" lon="15.677214190790902"><ele>522.0</ele><time>2026-04-06T09:13:09Z</time></trkpt><trkpt lat="40.96002275310318" lon="15.677206878664103"><ele>522.6666666666666</ele><time>2026-04-06T09:13:10Z</time></trkpt><trkpt lat="40.95983668127313" lon="15.677194480707657"><ele>523.3333333333333</ele><time>2026-04-06T09:13:11Z</time></trkpt><trkpt lat="40.959649961296826" lon="15.677188268043258"><ele>524.0</ele><time>2026-04-06T09:13:12Z</time></trkpt><trkpt lat="40.959471031414125" lon="15.67718462905434"><ele>524.0</ele><time>2026-04-06T09:13:13Z</time></trkpt><trkpt lat="40.95930135078606" lon="15.677190494491953"><ele>524.0</ele><time>2026-04-06T09:13:14Z</time></trkpt><trkpt lat="40.95913952374669" lon="15.677198384170179"><ele>524.0</ele><time>2026-04-06T09:13:15Z</time></trkpt><trkpt lat="40.9589858587454" lon="15.677200035426772"><ele>524.5</ele><time>2026-04-06T09:13:16Z</time></trkpt><trkpt lat="40.95884044029912" lon="15.677192059317546"><ele>525.0</ele><time>2026-04-06T09:13:17Z</time></trkpt><trkpt lat="40.95871616513592" lon="15.677182983920064"><ele>525.5</ele><time>2026-04-06T09:13:18Z</time></trkpt><trkpt lat="40.958613684442" lon="15.677141366856873"><ele>526.0</ele><time>2026-04-06T09:13:19Z</time></trkpt><trkpt lat="40.95854728773864" lon="15.677027830319453"><ele>526.0</ele><time>2026-04-06T09:13:20Z</time></trkpt><trkpt lat="40.9584767765174" lon="15.676940298305809"><ele>526.0</ele><time>2026-04-06T09:13:21Z</time></trkpt><trkpt lat="40.95844867678724" lon="15.67681086821895"><ele>526.0</ele><time>2026-04-06T09:13:22Z</time></trkpt><trkpt lat="40.95842252544035" lon="15.676669430623422"><ele>526.0</ele><time>2026-04-06T09:13:23Z</time></trkpt><trkpt lat="40.95837953403704" lon="15.676518243195302"><ele>526.0</ele><time>2026-04-06T09:13:24Z</time></trkpt><trkpt lat="40.95831264405236" lon="15.676354449360705"><ele>526.75</ele><time>2026-04-06T09:13:25Z</time></trkpt><trkpt lat="40.958247179546156" lon="15.676210328222437"><ele>527.5</ele><time>2026-04-06T09:13:26Z</time></trkpt><trkpt lat="40.95818901907155" lon="15.676077075652952"><ele>528.25</ele><time>2026-04-06T09:13:27Z</time></trkpt><trkpt lat="40.958135658711484" lon="15.67596399649181"><ele>529.0</ele><time>2026-04-06T09:13:28Z</time></trkpt><trkpt lat="40.958023956172276" lon="15.675724037779645"><ele>531.75</ele><time>2026-04-06T09:13:30Z</time></trkpt><trkpt lat="40.95795679955811" lon="15.675603521768565"><ele>534.5</ele><time>2026-04-06T09:13:31Z</time></trkpt><trkpt lat="40.95788461432189" lon="15.675491556309916"><ele>537.25</ele><time>2026-04-06T09:13:32Z</time></trkpt><trkpt lat="40.957805408513074" lon="15.67538341658138"><ele>540.0</ele><time>2026-04-06T09:13:33Z</time></trkpt><trkpt lat="40.95771555277507" lon="15.675274744131473"><ele>540.25</ele><time>2026-04-06T09:13:34Z</time></trkpt><trkpt lat="40.95761123927321" lon="15.675174624106615"><ele>540.5</ele><time>2026-04-06T09:13:35Z</time></trkpt><trkpt lat="40.95750228655394" lon="15.675092754621991"><ele>540.75</ele><time>2026-04-06T09:13:36Z</time></trkpt><trkpt lat="40.9573907707575" lon="15.675028415964398"><ele>541.0</ele><time>2026-04-06T09:13:37Z</time></trkpt><trkpt lat="40.95727923693622" lon="15.674971590154254"><ele>541.0</ele><time>2026-04-06T09:13:38Z</time></trkpt><trkpt lat="40.95717821364291" lon="15.674922765039508"><ele>541.0</ele><time>2026-04-06T09:13:39Z</time></trkpt><trkpt lat="40.957077018320184" lon="15.674888758883897"><ele>541.0</ele><time>2026-04-06T09:13:40Z</time></trkpt><trkpt lat="40.95697339209328" lon="15.674889554328114"><ele>541.0</ele><time>2026-04-06T09:13:41Z</time></trkpt><trkpt lat="40.95687235567597" lon="15.674944540799967"><ele>541.0</ele><time>2026-04-06T09:13:42Z</time></trkpt><trkpt lat="40.95679461552829" lon="15.6750418207699"><ele>541.0</ele><time>2026-04-06T09:13:43Z</time></trkpt><trkpt lat="40.95675231607913" lon="15.675162276843949"><ele>541.0</ele><time>2026-04-06T09:13:44Z</time></trkpt><trkpt lat="40.95675489172919" lon="15.675293598089901"><ele>541.0</ele><time>2026-04-06T09:13:45Z</time></trkpt><trkpt lat="40.95679478539874" lon="15.67542841695557"><ele>541.0</ele><time>2026-04-06T09:13:46Z</time></trkpt><trkpt lat="40.95685989885142" lon="15.675566960001479"><ele>541.0</ele><time>2026-04-06T09:13:47Z</time></trkpt><trkpt lat="40.956924640542184" lon="15.675719476669588"><ele>538.75</ele><time>2026-04-06T09:13:48Z</time></trkpt><trkpt lat="40.95696469522999" lon="15.6758968126554"><ele>536.5</ele><time>2026-04-06T09:13:49Z</time></trkpt><trkpt lat="40.95699481623966" lon="15.676065797482158"><ele>534.25</ele><time>2026-04-06T09:13:50Z</time></trkpt><trkpt lat="40.95700975072988" lon="15.676229369497673"><ele>532.0</ele><time>2026-04-06T09:13:51Z</time></trkpt><trkpt lat="40.957022674079425" lon="15.67637276338085"><ele>531.4</ele><time>2026-04-06T09:13:52Z</time></trkpt><trkpt lat="40.95699036677429" lon="15.676502254121246"><ele>530.8000000000001</ele><time>2026-04-06T09:13:53Z</time></trkpt><trkpt lat="40.95694678712618" lon="15.676603540599455"><ele>530.2</ele><time>2026-04-06T09:13:54Z</time></trkpt><trkpt lat="40.956875782805625" lon="15.676681485074138"><ele>529.6</ele><time>2026-04-06T09:13:55Z</time></trkpt><trkpt lat="40.95678026852109" lon="15.676744741270289"><ele>529.0</ele><time>2026-04-06T09:13:56Z</time></trkpt><trkpt lat="40.95665605106464" lon="15.676806051487377"><ele>533.0</ele><time>2026-04-06T09:13:57Z</time></trkpt><trkpt lat="40.956524222674155" lon="15.67681238596499"><ele>537.0</ele><time>2026-04-06T09:13:58Z</time></trkpt><trkpt lat="40.95638229219688" lon="15.676813190212874"><ele>541.0</ele><time>2026-04-06T09:13:59Z</time></trkpt><trkpt lat="40.956245775458044" lon="15.676790913573312"><ele>545.0</ele><time>2026-04-06T09:14:00Z</time></trkpt><trkpt lat="40.9561132645238" lon="15.67671538047185"><ele>545.0</ele><time>2026-04-06T09:14:01Z</time></trkpt><trkpt lat="40.95596630816746" lon="15.676665765576853"><ele>545.0</ele><time>2026-04-06T09:14:02Z</time></trkpt><trkpt lat="40.9558357213861" lon="15.676588850123078"><ele>545.0</ele><time>2026-04-06T09:14:03Z</time></trkpt><trkpt lat="40.955710107720726" lon="15.67653971444537"><ele>545.0</ele><time>2026-04-06T09:14:04Z</time></trkpt><trkpt lat="40.95559289497577" lon="15.676520495964807"><ele>545.4</ele><time>2026-04-06T09:14:05Z</time></trkpt><trkpt lat="40.95549097478513" lon="15.676535132157998"><ele>545.8</ele><time>2026-04-06T09:14:06Z</time></trkpt><trkpt lat="40.95540180541732" lon="15.676587590965546"><ele>546.2</ele><time>2026-04-06T09:14:07Z</time></trkpt><trkpt lat="40.95534724449183" lon="15.676671940405111"><ele>546.6</ele><time>2026-04-06T09:14:08Z</time></trkpt><trkpt lat="40.95530294697231" lon="15.676779428618708"><ele>547.0</ele><time>2026-04-06T09:14:09Z</time></trkpt><trkpt lat="40.95523434306856" lon="15.676874716585003"><ele>545.5</ele><time>2026-04-06T09:14:10Z</time></trkpt><trkpt lat="40.955151798501525" lon="15.6769903109863"><ele>544.0</ele><time>2026-04-06T09:14:11Z</time></trkpt><trkpt lat="40.955063097523166" lon="15.677088122564081"><ele>542.5</ele><time>2026-04-06T09:14:12Z</time></trkpt><trkpt lat="40.95495248958387" lon="15.677125826052146"><ele>541.0</ele><time>2026-04-06T09:14:13Z</time></trkpt><trkpt lat="40.95483355630197" lon="15.677120216861159"><ele>541.0</ele><time>2026-04-06T09:14:14Z</time></trkpt><trkpt lat="40.95473687758266" lon="15.677037401396847"><ele>541.0</ele><time>2026-04-06T09:14:15Z</time></trkpt><trkpt lat="40.95461905662798" lon="15.676977968195692"><ele>541.0</ele><time>2026-04-06T09:14:16Z</time></trkpt><trkpt lat="40.95453257525893" lon="15.676828225888894"><ele>541.0</ele><time>2026-04-06T09:14:17Z</time></trkpt><trkpt lat="40.954413644239764" lon="15.676713841996698"><ele>543.0</ele><time>2026-04-06T09:14:18Z</time></trkpt><trkpt lat="40.954311242535034" lon="15.67656209396549"><ele>545.0</ele><time>2026-04-06T09:14:19Z</time></trkpt><trkpt lat="40.9541983846092" lon="15.676424064082257"><ele>547.0</ele><time>2026-04-06T09:14:20Z</time></trkpt><trkpt lat="40.95408103461122" lon="15.67627724830175"><ele>547.0</ele><time>2026-04-06T09:14:21Z</time></trkpt><trkpt lat="40.95394603905257" lon="15.676157226967378"><ele>547.0</ele><time>2026-04-06T09:14:22Z</time></trkpt><trkpt lat="40.9538034413907" lon="15.676030368051892"><ele>547.0</ele><time>2026-04-06T09:14:23Z</time></trkpt><trkpt lat="40.95365728240951" lon="15.675915761215096"><ele>548.3333333333334</ele><time>2026-04-06T09:14:24Z</time></trkpt><trkpt lat="40.95351419405151" lon="15.675782068909871"><ele>549.6666666666666</ele><time>2026-04-06T09:14:25Z</time></trkpt><trkpt lat="40.953394495907695" lon="15.675598816085294"><ele>551.0</ele><time>2026-04-06T09:14:26Z</time></trkpt><trkpt lat="40.953278404144505" lon="15.6754241017474"><ele>555.0</ele><time>2026-04-06T09:14:27Z</time></trkpt><trkpt lat="40.95316241578399" lon="15.675223690235601"><ele>559.0</ele><time>2026-04-06T09:14:28Z</time></trkpt><trkpt lat="40.953053147206056" lon="15.675019033241075"><ele>563.0</ele><time>2026-04-06T09:14:29Z</time></trkpt><trkpt lat="40.952951873828006" lon="15.674816122112876"><ele>563.0</ele><time>2026-04-06T09:14:30Z</time></trkpt><trkpt lat="40.95284203534316" lon="15.674610242134673"><ele>563.0</ele><time>2026-04-06T09:14:31Z</time></trkpt><trkpt lat="40.95272197801002" lon="15.674415424847057"><ele>563.0</ele><time>2026-04-06T09:14:32Z</time></trkpt><trkpt lat="40.95261798333615" lon="15.674202821747496"><ele>562.6666666666666</ele><time>2026-04-06T09:14:33Z</time></trkpt><trkpt lat="40.952505139391" lon="15.674009168878733"><ele>562.3333333333334</ele><time>2026-04-06T09:14:34Z</time></trkpt><trkpt lat="40.9524224231612" lon="15.673811669886554"><ele>562.0</ele><time>2026-04-06T09:14:35Z</time></trkpt><trkpt lat="40.95233249957551" lon="15.673642961175972"><ele>563.5</ele><time>2026-04-06T09:14:36Z</time></trkpt><trkpt lat="40.952233165531034" lon="15.673498554500826"><ele>565.0</ele><time>2026-04-06T09:14:37Z</time></trkpt><trkpt lat="40.95213596619074" lon="15.673387823926765"><ele>566.5</ele><time>2026-04-06T09:14:38Z</time></trkpt><trkpt lat="40.95204354880586" lon="15.673313786204629"><ele>568.0</ele><time>2026-04-06T09:14:39Z</time></trkpt><trkpt lat="40.95194797291931" lon="15.673290499935248"><ele>568.0</ele><time>2026-04-06T09:14:40Z</time></trkpt><trkpt lat="40.95185968369508" lon="15.673326929052125"><ele>568.0</ele><time>2026-04-06T09:14:41Z</time></trkpt><trkpt lat="40.95178668218642" lon="15.673412882015297"><ele>568.0</ele><time>2026-04-06T09:14:42Z</time></trkpt><trkpt lat="40.951751692711454" lon="15.673525469839905"><ele>568.0</ele><time>2026-04-06T09:14:43Z</time></trkpt><trkpt lat="40.951764870929345" lon="15.673649061431144"><ele>568.0</ele><time>2026-04-06T09:14:44Z</time></trkpt><trkpt lat="40.95180671776612" lon="15.673783923642159"><ele>566.5</ele><time>2026-04-06T09:14:45Z</time></trkpt><trkpt lat="40.95186002238459" lon="15.673917279402312"><ele>565.0</ele><time>2026-04-06T09:14:46Z</time></trkpt><trkpt lat="40.951895624677874" lon="15.674069036923498"><ele>563.5</ele><time>2026-04-06T09:14:47Z</time></trkpt><trkpt lat="40.951901842909514" lon="15.674248111294945"><ele>562.0</ele><time>2026-04-06T09:14:48Z</time></trkpt><trkpt lat="40.951889801089656" lon="15.674433710382157"><ele>560.6666666666667</ele><time>2026-04-06T09:14:49Z</time></trkpt><trkpt lat="40.951903225949025" lon="15.674618300768996"><ele>559.3333333333334</ele><time>2026-04-06T09:14:50Z</time></trkpt><trkpt lat="40.951931921133216" lon="15.67481898691136"><ele>558.0</ele><time>2026-04-06T09:14:51Z</time></trkpt><trkpt lat="40.951974172965066" lon="15.675021119024873"><ele>558.0</ele><time>2026-04-06T09:14:52Z</time></trkpt><trkpt lat="40.95200773545256" lon="15.675229045977282"><ele>558.0</ele><time>2026-04-06T09:14:53Z</time></trkpt><trkpt lat="40.952070663458606" lon="15.67541603457252"><ele>558.0</ele><time>2026-04-06T09:14:54Z</time></trkpt><trkpt lat="40.952102548266915" lon="15.6755951195446"><ele>558.25</ele><time>2026-04-06T09:14:55Z</time></trkpt><trkpt lat="40.952120344511435" lon="15.675762786104812"><ele>558.5</ele><time>2026-04-06T09:14:56Z</time></trkpt><trkpt lat="40.952105446794" lon="15.675935200811587"><ele>558.75</ele><time>2026-04-06T09:14:57Z</time></trkpt><trkpt lat="40.952037144074204" lon="15.676104013585656"><ele>559.0</ele><time>2026-04-06T09:14:58Z</time></trkpt><trkpt lat="40.95198780247307" lon="15.676291631483227"><ele>561.6666666666667</ele><time>2026-04-06T09:14:59Z</time></trkpt><trkpt lat="40.951889258133825" lon="15.676450681960182"><ele>564.3333333333334</ele><time>2026-04-06T09:15:00Z</time></trkpt><trkpt lat="40.95178803765622" lon="15.676594910039015"><ele>567.0</ele><time>2026-04-06T09:15:01Z</time></trkpt><trkpt lat="40.95166586972658" lon="15.676724469244611"><ele>569.3333333333334</ele><time>2026-04-06T09:15:02Z</time></trkpt><trkpt lat="40.95152704499464" lon="15.676831000234985"><ele>571.6666666666667</ele><time>2026-04-06T09:15:03Z</time></trkpt><trkpt lat="40.95138417960701" lon="15.676937320441962"><ele>574.0</ele><time>2026-04-06T09:15:04Z</time></trkpt><trkpt lat="40.951237086127485" lon="15.677007774141385"><ele>574.0</ele><time>2026-04-06T09:15:05Z</time></trkpt><trkpt lat="40.951109761282396" lon="15.677063367276082"><ele>574.0</ele><time>2026-04-06T09:15:06Z</time></trkpt><trkpt lat="40.9509846126359" lon="15.677062731274109"><ele>574.0</ele><time>2026-04-06T09:15:07Z</time></trkpt><trkpt lat="40.950864178581355" lon="15.677031140753783"><ele>574.0</ele><time>2026-04-06T09:15:08Z</time></trkpt><trkpt lat="40.95075515853943" lon="15.676960310341357"><ele>576.5</ele><time>2026-04-06T09:15:09Z</time></trkpt><trkpt lat="40.95065900768005" lon="15.676843092953161"><ele>579.0</ele><time>2026-04-06T09:15:10Z</time></trkpt><trkpt lat="40.950578450148996" lon="15.676695962681864"><ele>581.5</ele><time>2026-04-06T09:15:11Z</time></trkpt><trkpt lat="40.95052855066325" lon="15.676528421380336"><ele>584.0</ele><time>2026-04-06T09:15:12Z</time></trkpt><trkpt lat="40.9504873707824" lon="15.676337795771248"><ele>584.0</ele><time>2026-04-06T09:15:13Z</time></trkpt><trkpt lat="40.95044775597053" lon="15.676146866153504"><ele>584.0</ele><time>2026-04-06T09:15:14Z</time></trkpt><trkpt lat="40.95040700405256" lon="15.675937893158611"><ele>584.0</ele><time>2026-04-06T09:15:15Z</time></trkpt><trkpt lat="40.9503566753983" lon="15.675734385374682"><ele>586.0</ele><time>2026-04-06T09:15:16Z</time></trkpt><trkpt lat="40.950309079174446" lon="15.675526750507482"><ele>588.0</ele><time>2026-04-06T09:15:17Z</time></trkpt><trkpt lat="40.950264512637126" lon="15.675305439169115"><ele>590.0</ele><time>2026-04-06T09:15:18Z</time></trkpt><trkpt lat="40.95022136386491" lon="15.675086183805458"><ele>592.3333333333333</ele><time>2026-04-06T09:15:19Z</time></trkpt><trkpt lat="40.95017490808141" lon="15.674862982263987"><ele>594.6666666666666</ele><time>2026-04-06T09:15:20Z</time></trkpt><trkpt lat="40.9501264314971" lon="15.674653543311361"><ele>597.0</ele><time>2026-04-06T09:15:21Z</time></trkpt><trkpt lat="40.95007178818075" lon="15.67441396088326"><ele>595.0</ele><time>2026-04-06T09:15:22Z</time></trkpt><trkpt lat="40.95001651085877" lon="15.67417003119186"><ele>593.0</ele><time>2026-04-06T09:15:23Z</time></trkpt><trkpt lat="40.949943244984894" lon="15.673985071785859"><ele>591.0</ele><time>2026-04-06T09:15:24Z</time></trkpt><trkpt lat="40.94985674100164" lon="15.673774627665457"><ele>594.3333333333334</ele><time>2026-04-06T09:15:25Z</time></trkpt><trkpt lat="40.949770025275136" lon="15.673578729378736"><ele>597.6666666666667</ele><time>2026-04-06T09:15:26Z</time></trkpt><trkpt lat="40.949676087908074" lon="15.673367838586744"><ele>601.0</ele><time>2026-04-06T09:15:27Z</time></trkpt><trkpt lat="40.94958916912475" lon="15.673155753084139"><ele>601.0</ele><time>2026-04-06T09:15:28Z</time></trkpt><trkpt lat="40.94951364089612" lon="15.672970429718724"><ele>601.0</ele><time>2026-04-06T09:15:29Z</time></trkpt><trkpt lat="40.9494253142323" lon="15.67275337274711"><ele>601.0</ele><time>2026-04-06T09:15:30Z</time></trkpt><trkpt lat="40.949332084026615" lon="15.672563386428955"><ele>600.0</ele><time>2026-04-06T09:15:31Z</time></trkpt><trkpt lat="40.949220688848584" lon="15.672385032670132"><ele>599.0</ele><time>2026-04-06T09:15:32Z</time></trkpt><trkpt lat="40.94908893101339" lon="15.672222603421549"><ele>598.0</ele><time>2026-04-06T09:15:33Z</time></trkpt><trkpt lat="40.94895804972812" lon="15.672062330805904"><ele>602.6666666666667</ele><time>2026-04-06T09:15:34Z</time></trkpt><trkpt lat="40.94883134331025" lon="15.671893930933177"><ele>607.3333333333334</ele><time>2026-04-06T09:15:35Z</time></trkpt><trkpt lat="40.94871213596607" lon="15.671714729876138"><ele>612.0</ele><time>2026-04-06T09:15:36Z</time></trkpt><trkpt lat="40.94859223333243" lon="15.67153872995837"><ele>612.0</ele><time>2026-04-06T09:15:37Z</time></trkpt><trkpt lat="40.9484712104875" lon="15.671369044760631"><ele>612.0</ele><time>2026-04-06T09:15:38Z</time></trkpt><trkpt lat="40.948331239091104" lon="15.67121643560549"><ele>612.0</ele><time>2026-04-06T09:15:39Z</time></trkpt><trkpt lat="40.94817051169187" lon="15.671094734908994"><ele>622.3333333333334</ele><time>2026-04-06T09:15:40Z</time></trkpt><trkpt lat="40.947995676321824" lon="15.671005467471668"><ele>632.6666666666667</ele><time>2026-04-06T09:15:41Z</time></trkpt><trkpt lat="40.94782634217875" lon="15.670918516615426"><ele>643.0</ele><time>2026-04-06T09:15:42Z</time></trkpt><trkpt lat="40.94768123259418" lon="15.670805896717033"><ele>643.0</ele><time>2026-04-06T09:15:43Z</time></trkpt><trkpt lat="40.94754936524757" lon="15.670659495327985"><ele>643.0</ele><time>2026-04-06T09:15:44Z</time></trkpt><trkpt lat="40.94743288406706" lon="15.670489380642339"><ele>643.0</ele><time>2026-04-06T09:15:45Z</time></trkpt><trkpt lat="40.94732314505662" lon="15.670308076822797"><ele>642.0</ele><time>2026-04-06T09:15:46Z</time></trkpt><trkpt lat="40.94720862019627" lon="15.670136095277092"><ele>641.0</ele><time>2026-04-06T09:15:47Z</time></trkpt><trkpt lat="40.94708982402731" lon="15.669960965373686"><ele>640.0</ele><time>2026-04-06T09:15:48Z</time></trkpt><trkpt lat="40.94697263666947" lon="15.669781774275743"><ele>640.0</ele><time>2026-04-06T09:15:49Z</time></trkpt><trkpt lat="40.94686892021352" lon="15.669616984227579"><ele>640.0</ele><time>2026-04-06T09:15:50Z</time></trkpt><trkpt lat="40.946770915147944" lon="15.669463838435119"><ele>640.0</ele><time>2026-04-06T09:15:51Z</time></trkpt><trkpt lat="40.94666015634975" lon="15.6693469038493"><ele>637.75</ele><time>2026-04-06T09:15:52Z</time></trkpt><trkpt lat="40.9465356677938" lon="15.66928606481202"><ele>635.5</ele><time>2026-04-06T09:15:53Z</time></trkpt><trkpt lat="40.946399178256556" lon="15.66924647252374"><ele>633.25</ele><time>2026-04-06T09:15:54Z</time></trkpt><trkpt lat="40.94626870598487" lon="15.669252617458934"><ele>631.0</ele><time>2026-04-06T09:15:55Z</time></trkpt><trkpt lat="40.9461523383486" lon="15.669301148452334"><ele>631.0</ele><time>2026-04-06T09:15:56Z</time></trkpt><trkpt lat="40.946045100176676" lon="15.66939136883972"><ele>631.0</ele><time>2026-04-06T09:15:57Z</time></trkpt><trkpt lat="40.94592008204783" lon="15.669494885032394"><ele>631.0</ele><time>2026-04-06T09:15:58Z</time></trkpt><trkpt lat="40.945811921910796" lon="15.66965525405632"><ele>631.0</ele><time>2026-04-06T09:15:59Z</time></trkpt><trkpt lat="40.94573027072971" lon="15.669837444178409"><ele>628.0</ele><time>2026-04-06T09:16:00Z</time></trkpt><trkpt lat="40.94569854945182" lon="15.670056792411906"><ele>625.0</ele><time>2026-04-06T09:16:01Z</time></trkpt><trkpt lat="40.94567482766594" lon="15.670282491974314"><ele>622.0</ele><time>2026-04-06T09:16:02Z</time></trkpt><trkpt lat="40.945644186701486" lon="15.670488182507297"><ele>622.0</ele><time>2026-04-06T09:16:03Z</time></trkpt><trkpt lat="40.945615808033835" lon="15.670652764249501"><ele>622.0</ele><time>2026-04-06T09:16:04Z</time></trkpt><trkpt lat="40.945560235968635" lon="15.67080083336025"><ele>622.0</ele><time>2026-04-06T09:16:05Z</time></trkpt><trkpt lat="40.94546675656554" lon="15.670917452672525"><ele>622.0</ele><time>2026-04-06T09:16:06Z</time></trkpt><trkpt lat="40.94536125618473" lon="15.671037584594524"><ele>622.0</ele><time>2026-04-06T09:16:07Z</time></trkpt><trkpt lat="40.94521988072431" lon="15.671087843006854"><ele>622.0</ele><time>2026-04-06T09:16:08Z</time></trkpt><trkpt lat="40.945065298420445" lon="15.67111656346297"><ele>622.0</ele><time>2026-04-06T09:16:09Z</time></trkpt><trkpt lat="40.944902880465705" lon="15.671139764635678"><ele>620.6666666666667</ele><time>2026-04-06T09:16:10Z</time></trkpt><trkpt lat="40.94475184637628" lon="15.671181077124281"><ele>619.3333333333334</ele><time>2026-04-06T09:16:11Z</time></trkpt><trkpt lat="40.94460059963243" lon="15.671259570693366"><ele>618.0</ele><time>2026-04-06T09:16:12Z</time></trkpt><trkpt lat="40.94446539687135" lon="15.671401712981401"><ele>618.0</ele><time>2026-04-06T09:16:13Z</time></trkpt><trkpt lat="40.94433734310847" lon="15.671564408778776"><ele>618.0</ele><time>2026-04-06T09:16:14Z</time></trkpt><trkpt lat="40.94422063104545" lon="15.671718522254688"><ele>618.0</ele><time>2026-04-06T09:16:15Z</time></trkpt><trkpt lat="40.94409622511739" lon="15.671825380334548"><ele>618.75</ele><time>2026-04-06T09:16:16Z</time></trkpt><trkpt lat="40.94397637889188" lon="15.671905104594613"><ele>619.5</ele><time>2026-04-06T09:16:17Z</time></trkpt><trkpt lat="40.943829226529054" lon="15.671945544943465"><ele>620.25</ele><time>2026-04-06T09:16:18Z</time></trkpt><trkpt lat="40.94367784279596" lon="15.671965636193912"><ele>621.0</ele><time>2026-04-06T09:16:19Z</time></trkpt><trkpt lat="40.94348439443149" lon="15.67197480405855"><ele>622.6666666666666</ele><time>2026-04-06T09:16:20Z</time></trkpt><trkpt lat="40.94330587178021" lon="15.672020485385703"><ele>624.3333333333333</ele><time>2026-04-06T09:16:21Z</time></trkpt><trkpt lat="40.943139783219486" lon="15.6720459714631"><ele>626.0</ele><time>2026-04-06T09:16:22Z</time></trkpt><trkpt lat="40.94296880548096" lon="15.672129787016244"><ele>626.0</ele><time>2026-04-06T09:16:23Z</time></trkpt><trkpt lat="40.94279654519038" lon="15.672218504804528"><ele>626.0</ele><time>2026-04-06T09:16:24Z</time></trkpt><trkpt lat="40.94268893755229" lon="15.67229935660477"><ele>626.0</ele><time>2026-04-06T09:16:25Z</time></trkpt><trkpt lat="40.942579319079286" lon="15.672385373738356"><ele>626.0</ele><time>2026-04-06T09:16:26Z</time></trkpt><trkpt lat="40.94249665477156" lon="15.67250063261472"><ele>627.75</ele><time>2026-04-06T09:16:27Z</time></trkpt><trkpt lat="40.942434096839094" lon="15.67264299025904"><ele>629.5</ele><time>2026-04-06T09:16:28Z</time></trkpt><trkpt lat="40.942398191446415" lon="15.672814500185247"><ele>631.25</ele><time>2026-04-06T09:16:29Z</time></trkpt><trkpt lat="40.94236996878555" lon="15.672996832887469"><ele>633.0</ele><time>2026-04-06T09:16:30Z</time></trkpt><trkpt lat="40.942301737697626" lon="15.673159460420345"><ele>633.0</ele><time>2026-04-06T09:16:31Z</time></trkpt><trkpt lat="40.94222370876583" lon="15.67331498515753"><ele>633.0</ele><time>2026-04-06T09:16:32Z</time></trkpt><trkpt lat="40.94210258385071" lon="15.673454284239494"><ele>633.0</ele><time>2026-04-06T09:16:33Z</time></trkpt><trkpt lat="40.941977688575754" lon="15.673581509920044"><ele>634.3333333333334</ele><time>2026-04-06T09:16:34Z</time></trkpt><trkpt lat="40.94186039346714" lon="15.673724997098155"><ele>635.6666666666667</ele><time>2026-04-06T09:16:35Z</time></trkpt><trkpt lat="40.941742237139174" lon="15.673870232777764"><ele>637.0</ele><time>2026-04-06T09:16:36Z</time></trkpt><trkpt lat="40.941630736667754" lon="15.674000904680648"><ele>637.0</ele><time>2026-04-06T09:16:37Z</time></trkpt><trkpt lat="40.94151008210076" lon="15.674138398377151"><ele>637.0</ele><time>2026-04-06T09:16:38Z</time></trkpt><trkpt lat="40.94138861877012" lon="15.67427524569265"><ele>637.0</ele><time>2026-04-06T09:16:39Z</time></trkpt><trkpt lat="40.94126843024313" lon="15.674402392428451"><ele>635.25</ele><time>2026-04-06T09:16:40Z</time></trkpt><trkpt lat="40.94115690432378" lon="15.674523710709474"><ele>633.5</ele><time>2026-04-06T09:16:41Z</time></trkpt><trkpt lat="40.94105796535849" lon="15.674649344312293"><ele>631.75</ele><time>2026-04-06T09:16:42Z</time></trkpt><trkpt lat="40.94097739776594" lon="15.674799072728932"><ele>630.0</ele><time>2026-04-06T09:16:43Z</time></trkpt><trkpt lat="40.94093453434267" lon="15.674963489971597"><ele>630.0</ele><time>2026-04-06T09:16:44Z</time></trkpt><trkpt lat="40.94088808469316" lon="15.675116824250699"><ele>630.0</ele><time>2026-04-06T09:16:45Z</time></trkpt><trkpt lat="40.940836442016625" lon="15.675263845749786"><ele>630.0</ele><time>2026-04-06T09:16:46Z</time></trkpt><trkpt lat="40.94076037320189" lon="15.675410000507425"><ele>630.0</ele><time>2026-04-06T09:16:47Z</time></trkpt><trkpt lat="40.94065636300171" lon="15.675537661035769"><ele>633.0</ele><time>2026-04-06T09:16:48Z</time></trkpt><trkpt lat="40.94054469066161" lon="15.675677040047226"><ele>636.0</ele><time>2026-04-06T09:16:49Z</time></trkpt><trkpt lat="40.940445106320944" lon="15.67582269643156"><ele>639.0</ele><time>2026-04-06T09:16:50Z</time></trkpt><trkpt lat="40.940323730785835" lon="15.675959179661362"><ele>638.3333333333334</ele><time>2026-04-06T09:16:51Z</time></trkpt><trkpt lat="40.94020844672967" lon="15.67610364062287"><ele>637.6666666666667</ele><time>2026-04-06T09:16:52Z</time></trkpt><trkpt lat="40.94009285381976" lon="15.67625247620577"><ele>637.0</ele><time>2026-04-06T09:16:53Z</time></trkpt><trkpt lat="40.939977586946306" lon="15.676401847287927"><ele>638.75</ele><time>2026-04-06T09:16:54Z</time></trkpt><trkpt lat="40.93986367583572" lon="15.676531318382393"><ele>640.5</ele><time>2026-04-06T09:16:55Z</time></trkpt><trkpt lat="40.9397460029095" lon="15.676635526753902"><ele>642.25</ele><time>2026-04-06T09:16:56Z</time></trkpt><trkpt lat="40.93961031160348" lon="15.676696918423948"><ele>644.0</ele><time>2026-04-06T09:16:57Z</time></trkpt><trkpt lat="40.93947558488153" lon="15.676679272792455"><ele>644.0</ele><time>2026-04-06T09:16:58Z</time></trkpt><trkpt lat="40.93934238628513" lon="15.676653217351566"><ele>644.0</ele><time>2026-04-06T09:16:59Z</time></trkpt><trkpt lat="40.93919762153092" lon="15.676649391307715"><ele>644.0</ele><time>2026-04-06T09:17:00Z</time></trkpt><trkpt lat="40.93906857799805" lon="15.676609043837676"><ele>644.0</ele><time>2026-04-06T09:17:01Z</time></trkpt><trkpt lat="40.93894383105224" lon="15.676590886056951"><ele>644.25</ele><time>2026-04-06T09:17:02Z</time></trkpt><trkpt lat="40.938820222252374" lon="15.676578945320248"><ele>644.5</ele><time>2026-04-06T09:17:03Z</time></trkpt><trkpt lat="40.93869826249236" lon="15.676557365547314"><ele>644.75</ele><time>2026-04-06T09:17:04Z</time></trkpt><trkpt lat="40.938576236824595" lon="15.676527785052953"><ele>645.0</ele><time>2026-04-06T09:17:05Z</time></trkpt><trkpt lat="40.938449153330495" lon="15.676502529837274"><ele>643.75</ele><time>2026-04-06T09:17:06Z</time></trkpt><trkpt lat="40.93830957525586" lon="15.676478173206297"><ele>642.5</ele><time>2026-04-06T09:17:07Z</time></trkpt><trkpt lat="40.93818368405972" lon="15.676464567489488"><ele>641.25</ele><time>2026-04-06T09:17:08Z</time></trkpt><trkpt lat="40.93804839590272" lon="15.676431566395953"><ele>640.0</ele><time>2026-04-06T09:17:09Z</time></trkpt><trkpt lat="40.937921930342064" lon="15.676392352463004"><ele>640.0</ele><time>2026-04-06T09:17:10Z</time></trkpt><trkpt lat="40.93779511608966" lon="15.676337922289253"><ele>640.0</ele><time>2026-04-06T09:17:11Z</time></trkpt><trkpt lat="40.93767372844255" lon="15.67628488904745"><ele>640.0</ele><time>2026-04-06T09:17:12Z</time></trkpt><trkpt lat="40.93754807436039" lon="15.676234720589447"><ele>640.0</ele><time>2026-04-06T09:17:13Z</time></trkpt><trkpt lat="40.93742198060397" lon="15.676182814165495"><ele>638.5</ele><time>2026-04-06T09:17:14Z</time></trkpt><trkpt lat="40.9373019026083" lon="15.676138265185452"><ele>637.0</ele><time>2026-04-06T09:17:15Z</time></trkpt><trkpt lat="40.93719459590629" lon="15.676092636601455"><ele>635.5</ele><time>2026-04-06T09:17:16Z</time></trkpt><trkpt lat="40.93708692617682" lon="15.676045022206427"><ele>634.0</ele><time>2026-04-06T09:17:17Z</time></trkpt><trkpt lat="40.936977648815294" lon="15.675987923578159"><ele>635.25</ele><time>2026-04-06T09:17:18Z</time></trkpt><trkpt lat="40.93687720216326" lon="15.675926437112706"><ele>636.5</ele><time>2026-04-06T09:17:19Z</time></trkpt><trkpt lat="40.93677096220787" lon="15.675843623449103"><ele>637.75</ele><time>2026-04-06T09:17:20Z</time></trkpt><trkpt lat="40.93666979188897" lon="15.675730876680339"><ele>639.0</ele><time>2026-04-06T09:17:21Z</time></trkpt><trkpt lat="40.936578841922774" lon="15.675618447065359"><ele>639.0</ele><time>2026-04-06T09:17:22Z</time></trkpt><trkpt lat="40.936503237448605" lon="15.675519017940694"><ele>639.0</ele><time>2026-04-06T09:17:23Z</time></trkpt><trkpt lat="40.93643127076391" lon="15.675433556129768"><ele>639.0</ele><time>2026-04-06T09:17:24Z</time></trkpt><trkpt lat="40.93636381859058" lon="15.675355831523207"><ele>639.0</ele><time>2026-04-06T09:17:25Z</time></trkpt><trkpt lat="40.936300411598815" lon="15.675285810693392"><ele>639.0</ele><time>2026-04-06T09:17:26Z</time></trkpt><trkpt lat="40.936239600200004" lon="15.67523195764647"><ele>639.0</ele><time>2026-04-06T09:17:27Z</time></trkpt><trkpt lat="40.93617284369754" lon="15.675197277377295"><ele>639.0</ele><time>2026-04-06T09:17:28Z</time></trkpt><trkpt lat="40.93609847099357" lon="15.675199009390063"><ele>639.0</ele><time>2026-04-06T09:17:29Z</time></trkpt><trkpt lat="40.93601950534959" lon="15.675230501009858"><ele>639.0</ele><time>2026-04-06T09:17:30Z</time></trkpt><trkpt lat="40.93594547213332" lon="15.675280322316816"><ele>639.0</ele><time>2026-04-06T09:17:31Z</time></trkpt><trkpt lat="40.93587790862943" lon="15.675343116198842"><ele>639.0</ele><time>2026-04-06T09:17:32Z</time></trkpt><trkpt lat="40.935797591718334" lon="15.675426580211237"><ele>639.0</ele><time>2026-04-06T09:17:33Z</time></trkpt><trkpt lat="40.93571052328555" lon="15.67550340135195"><ele>638.4</ele><time>2026-04-06T09:17:34Z</time></trkpt><trkpt lat="40.935616165313725" lon="15.675582992402674"><ele>637.8</ele><time>2026-04-06T09:17:35Z</time></trkpt><trkpt lat="40.93552393659386" lon="15.67563008976183"><ele>637.2</ele><time>2026-04-06T09:17:36Z</time></trkpt><trkpt lat="40.93542574362548" lon="15.675646377497007"><ele>636.6</ele><time>2026-04-06T09:17:37Z</time></trkpt><trkpt lat="40.93533015501212" lon="15.675647320932132"><ele>636.0</ele><time>2026-04-06T09:17:38Z</time></trkpt><trkpt lat="40.93523707228931" lon="15.675653033271391"><ele>636.0</ele><time>2026-04-06T09:17:39Z</time></trkpt><trkpt lat="40.93515028033501" lon="15.675664792812098"><ele>636.0</ele><time>2026-04-06T09:17:40Z</time></trkpt><trkpt lat="40.935065218601906" lon="15.675674926486652"><ele>636.0</ele><time>2026-04-06T09:17:41Z</time></trkpt><trkpt lat="40.934987223187065" lon="15.675675128196113"><ele>636.0</ele><time>2026-04-06T09:17:42Z</time></trkpt><trkpt lat="40.93491374688364" lon="15.675668779844168"><ele>636.0</ele><time>2026-04-06T09:17:43Z</time></trkpt><trkpt lat="40.93484117084641" lon="15.675661454403896"><ele>636.0</ele><time>2026-04-06T09:17:44Z</time></trkpt><trkpt lat="40.93477808320148" lon="15.675651539661379"><ele>636.5</ele><time>2026-04-06T09:17:45Z</time></trkpt><trkpt lat="40.93467655334788" lon="15.675626043795452"><ele>637.0</ele><time>2026-04-06T09:17:47Z</time></trkpt><trkpt lat="40.93457438124058" lon="15.675604926272824"><ele>637.5</ele><time>2026-04-06T09:17:49Z</time></trkpt><trkpt lat="40.9345104287994" lon="15.675601702434399"><ele>638.0</ele><time>2026-04-06T09:17:50Z</time></trkpt><trkpt lat="40.934438937704265" lon="15.675590531400358"><ele>638.5</ele><time>2026-04-06T09:17:51Z</time></trkpt><trkpt lat="40.934371272179916" lon="15.675566922283574"><ele>639.0</ele><time>2026-04-06T09:17:52Z</time></trkpt><trkpt lat="40.934290629318696" lon="15.675543676713383"><ele>639.8333333333334</ele><time>2026-04-06T09:17:53Z</time></trkpt><trkpt lat="40.93419853084134" lon="15.675532293693472"><ele>640.6666666666666</ele><time>2026-04-06T09:17:54Z</time></trkpt><trkpt lat="40.93411318798643" lon="15.675528183016972"><ele>641.5</ele><time>2026-04-06T09:17:55Z</time></trkpt><trkpt lat="40.93402852142841" lon="15.675521228175754"><ele>642.3333333333333</ele><time>2026-04-06T09:17:56Z</time></trkpt><trkpt lat="40.93394983616319" lon="15.675509144102604"><ele>643.1666666666666</ele><time>2026-04-06T09:17:57Z</time></trkpt><trkpt lat="40.933877548394676" lon="15.675494135234986"><ele>644.0</ele><time>2026-04-06T09:17:58Z</time></trkpt><trkpt lat="40.93379452541465" lon="15.675479534623326"><ele>644.0</ele><time>2026-04-06T09:17:59Z</time></trkpt><trkpt lat="40.93370321781224" lon="15.675498551164129"><ele>644.0</ele><time>2026-04-06T09:18:00Z</time></trkpt><trkpt lat="40.933581022079665" lon="15.675407416866118"><ele>644.0</ele><time>2026-04-06T09:18:01Z</time></trkpt><trkpt lat="40.93346861390594" lon="15.675327013881894"><ele>644.0</ele><time>2026-04-06T09:18:02Z</time></trkpt><trkpt lat="40.93336933630307" lon="15.675206622688771"><ele>648.0</ele><time>2026-04-06T09:18:03Z</time></trkpt><trkpt lat="40.93328044819713" lon="15.67506905045222"><ele>652.0</ele><time>2026-04-06T09:18:04Z</time></trkpt><trkpt lat="40.9331991259865" lon="15.674920157452904"><ele>656.0</ele><time>2026-04-06T09:18:05Z</time></trkpt><trkpt lat="40.93311394075761" lon="15.67476670073299"><ele>660.0</ele><time>2026-04-06T09:18:06Z</time></trkpt><trkpt lat="40.933024177973266" lon="15.67460538352227"><ele>660.0</ele><time>2026-04-06T09:18:07Z</time></trkpt><trkpt lat="40.932936409913665" lon="15.674442362794842"><ele>660.0</ele><time>2026-04-06T09:18:08Z</time></trkpt><trkpt lat="40.932854406875975" lon="15.674271605079708"><ele>660.0</ele><time>2026-04-06T09:18:09Z</time></trkpt><trkpt lat="40.932766998614376" lon="15.674099611020534"><ele>662.3333333333334</ele><time>2026-04-06T09:18:10Z</time></trkpt><trkpt lat="40.93268056045157" lon="15.673924712682748"><ele>664.6666666666667</ele><time>2026-04-06T09:18:11Z</time></trkpt><trkpt lat="40.93258489715722" lon="15.6737575428786"><ele>667.0</ele><time>2026-04-06T09:18:12Z</time></trkpt><trkpt lat="40.93247884155536" lon="15.673604008400112"><ele>667.0</ele><time>2026-04-06T09:18:13Z</time></trkpt><trkpt lat="40.93236069887156" lon="15.67345149240239"><ele>667.0</ele><time>2026-04-06T09:18:14Z</time></trkpt><trkpt lat="40.93224056465787" lon="15.673300566659622"><ele>667.0</ele><time>2026-04-06T09:18:15Z</time></trkpt><trkpt lat="40.93212046187844" lon="15.67314538638836"><ele>667.0</ele><time>2026-04-06T09:18:16Z</time></trkpt><trkpt lat="40.931999118327006" lon="15.672988130727996"><ele>667.0</ele><time>2026-04-06T09:18:17Z</time></trkpt><trkpt lat="40.9318693567497" lon="15.67283541389428"><ele>667.0</ele><time>2026-04-06T09:18:18Z</time></trkpt><trkpt lat="40.931725608891924" lon="15.672695969643817"><ele>665.6666666666667</ele><time>2026-04-06T09:18:19Z</time></trkpt><trkpt lat="40.931561555626686" lon="15.672568922907416"><ele>664.3333333333334</ele><time>2026-04-06T09:18:20Z</time></trkpt><trkpt lat="40.9313932133117" lon="15.672465405649344"><ele>663.0</ele><time>2026-04-06T09:18:21Z</time></trkpt><trkpt lat="40.931227557011546" lon="15.672387257177654"><ele>663.0</ele><time>2026-04-06T09:18:22Z</time></trkpt><trkpt lat="40.93106657585982" lon="15.672325594018801"><ele>663.0</ele><time>2026-04-06T09:18:23Z</time></trkpt><trkpt lat="40.93091165663898" lon="15.672289602251512"><ele>663.0</ele><time>2026-04-06T09:18:24Z</time></trkpt><trkpt lat="40.93075277905478" lon="15.67227322513155"><ele>662.5</ele><time>2026-04-06T09:18:25Z</time></trkpt><trkpt lat="40.93059644541296" lon="15.6722701185564"><ele>662.0</ele><time>2026-04-06T09:18:26Z</time></trkpt><trkpt lat="40.93046421941019" lon="15.672276815955003"><ele>661.5</ele><time>2026-04-06T09:18:27Z</time></trkpt><trkpt lat="40.930351446346144" lon="15.672288659559197"><ele>661.0</ele><time>2026-04-06T09:18:28Z</time></trkpt><trkpt lat="40.93025157646523" lon="15.672302346429722"><ele>661.0</ele><time>2026-04-06T09:18:29Z</time></trkpt><trkpt lat="40.930158983837764" lon="15.672316385213104"><ele>661.0</ele><time>2026-04-06T09:18:30Z</time></trkpt><trkpt lat="40.93006712087996" lon="15.672331637467565"><ele>661.0</ele><time>2026-04-06T09:18:31Z</time></trkpt><trkpt lat="40.92997259745842" lon="15.672347241154034"><ele>661.0</ele><time>2026-04-06T09:18:32Z</time></trkpt><trkpt lat="40.92987916832839" lon="15.67236513977074"><ele>661.0</ele><time>2026-04-06T09:18:33Z</time></trkpt><trkpt lat="40.929784481043534" lon="15.672387096193406"><ele>661.75</ele><time>2026-04-06T09:18:34Z</time></trkpt><trkpt lat="40.92967264498474" lon="15.672392551224135"><ele>662.5</ele><time>2026-04-06T09:18:35Z</time></trkpt><trkpt lat="40.929555673695035" lon="15.67240722433448"><ele>663.25</ele><time>2026-04-06T09:18:36Z</time></trkpt><trkpt lat="40.929422162331896" lon="15.672418070120997"><ele>664.0</ele><time>2026-04-06T09:18:37Z</time></trkpt><trkpt lat="40.9292856163148" lon="15.67243098354406"><ele>665.0</ele><time>2026-04-06T09:18:38Z</time></trkpt><trkpt lat="40.92914563902192" lon="15.672378314775207"><ele>666.0</ele><time>2026-04-06T09:18:39Z</time></trkpt><trkpt lat="40.92899236382129" lon="15.672339873023782"><ele>667.0</ele><time>2026-04-06T09:18:40Z</time></trkpt><trkpt lat="40.92883475182675" lon="15.672300250696894"><ele>667.0</ele><time>2026-04-06T09:18:41Z</time></trkpt><trkpt lat="40.92866598955349" lon="15.67225704859945"><ele>667.0</ele><time>2026-04-06T09:18:42Z</time></trkpt><trkpt lat="40.92850039296326" lon="15.672227993288187"><ele>667.0</ele><time>2026-04-06T09:18:43Z</time></trkpt><trkpt lat="40.92834509172649" lon="15.672178868940339"><ele>665.75</ele><time>2026-04-06T09:18:44Z</time></trkpt><trkpt lat="40.92820530751755" lon="15.67213851552485"><ele>664.5</ele><time>2026-04-06T09:18:45Z</time></trkpt><trkpt lat="40.92807514422809" lon="15.672106388027025"><ele>663.25</ele><time>2026-04-06T09:18:46Z</time></trkpt><trkpt lat="40.92796552800783" lon="15.672078122046827"><ele>662.0</ele><time>2026-04-06T09:18:47Z</time></trkpt><trkpt lat="40.92787926387301" lon="15.672044494435152"><ele>662.0</ele><time>2026-04-06T09:18:48Z</time></trkpt><trkpt lat="40.927815312142805" lon="15.672000728478455"><ele>662.0</ele><time>2026-04-06T09:18:49Z</time></trkpt><trkpt lat="40.92772549070542" lon="15.671890647733882"><ele>662.0</ele><time>2026-04-06T09:18:51Z</time></trkpt><trkpt lat="40.9277071476708" lon="15.671783725332553"><ele>662.0</ele><time>2026-04-06T09:18:53Z</time></trkpt><trkpt lat="40.927763888041156" lon="15.671698180915072"><ele>662.0</ele><time>2026-04-06T09:18:55Z</time></trkpt><trkpt lat="40.92782120110055" lon="15.671628214583762"><ele>662.0</ele><time>2026-04-06T09:18:57Z</time></trkpt><trkpt lat="40.92787294153575" lon="15.671569140547305"><ele>663.0</ele><time>2026-04-06T09:18:59Z</time></trkpt><trkpt lat="40.92795472866635" lon="15.671507435421326"><ele>664.0</ele><time>2026-04-06T09:19:01Z</time></trkpt><trkpt lat="40.92798978634174" lon="15.671428940545644"><ele>665.0</ele><time>2026-04-06T09:19:02Z</time></trkpt><trkpt lat="40.927920331812004" lon="15.671213979034082"><ele>666.0</ele><time>2026-04-06T09:19:07Z</time></trkpt><trkpt lat="40.927862765464155" lon="15.671140259886878"><ele>667.0</ele><time>2026-04-06T09:19:09Z</time></trkpt><trkpt lat="40.9281243729106" lon="15.671263540767061"><ele>667.0</ele><time>2026-04-06T09:19:13Z</time></trkpt><trkpt lat="40.92805654566116" lon="15.670755239963427"><ele>665.0</ele><time>2026-04-06T09:19:17Z</time></trkpt></trkseg></trk></gpx>